<?xml version="1.0" encoding="UTF-8" standalone="no" ?>
<gpx xmlns="http://www.topografix.com/GPX/1/1" xmlns:xsi="http://www.w3.org/2001/XMLSchema-instance" xsi:schemaLocation="http://www.topografix.com/GPX/1/1 http://www.topografix.com/GPX/1/1/gpx.xsd" version="1.1" creator="VisuGPX - https://www.visugpx.com">
  <metadata>
    <name>Evrune </name>
    <desc><![CDATA[Super beau village Evrune]]></desc>
  </metadata>
  <trk>
    <name><![CDATA[Evrune _1]]></name>
    <trkseg>
      <trkpt lat="46.99538" lon="-0.97836">
        <ele>104.05</ele>
        <time>2020-05-27T16:18:43Z</time>
      </trkpt>
      <trkpt lat="46.99538" lon="-0.97836">
        <ele>104.045</ele>
        <time>2020-05-27T16:18:45Z</time>
      </trkpt>
      <trkpt lat="46.99538" lon="-0.97836">
        <ele>104.044</ele>
        <time>2020-05-27T16:18:46Z</time>
      </trkpt>
      <trkpt lat="46.99538" lon="-0.97836">
        <ele>104.045</ele>
        <time>2020-05-27T16:18:47Z</time>
      </trkpt>
      <trkpt lat="46.99538" lon="-0.97836">
        <ele>104.044</ele>
        <time>2020-05-27T16:18:48Z</time>
      </trkpt>
      <trkpt lat="46.99538" lon="-0.97836">
        <ele>104.048</ele>
        <time>2020-05-27T16:18:49Z</time>
      </trkpt>
      <trkpt lat="46.99538" lon="-0.97836">
        <ele>104.04</ele>
        <time>2020-05-27T16:18:50Z</time>
      </trkpt>
      <trkpt lat="46.99538" lon="-0.97836">
        <ele>104.035</ele>
        <time>2020-05-27T16:18:51Z</time>
      </trkpt>
      <trkpt lat="46.99538" lon="-0.97836">
        <ele>104.029</ele>
        <time>2020-05-27T16:18:52Z</time>
      </trkpt>
      <trkpt lat="46.99538" lon="-0.97836">
        <ele>104.012</ele>
        <time>2020-05-27T16:18:53Z</time>
      </trkpt>
      <trkpt lat="46.99538" lon="-0.97836">
        <ele>104.006</ele>
        <time>2020-05-27T16:18:54Z</time>
      </trkpt>
      <trkpt lat="46.99538" lon="-0.97836">
        <ele>103.995</ele>
        <time>2020-05-27T16:18:55Z</time>
      </trkpt>
      <trkpt lat="46.99538" lon="-0.97836">
        <ele>103.99</ele>
        <time>2020-05-27T16:18:56Z</time>
      </trkpt>
      <trkpt lat="46.99538" lon="-0.97836">
        <ele>103.987</ele>
        <time>2020-05-27T16:18:57Z</time>
      </trkpt>
      <trkpt lat="46.99538" lon="-0.97836">
        <ele>103.99</ele>
        <time>2020-05-27T16:18:58Z</time>
      </trkpt>
      <trkpt lat="46.99538" lon="-0.97836">
        <ele>103.986</ele>
        <time>2020-05-27T16:18:59Z</time>
      </trkpt>
      <trkpt lat="46.99538" lon="-0.97836">
        <ele>103.99</ele>
        <time>2020-05-27T16:19:00Z</time>
      </trkpt>
      <trkpt lat="46.99538" lon="-0.97836">
        <ele>103.997</ele>
        <time>2020-05-27T16:19:01Z</time>
      </trkpt>
      <trkpt lat="46.99538" lon="-0.97836">
        <ele>103.989</ele>
        <time>2020-05-27T16:19:02Z</time>
      </trkpt>
      <trkpt lat="46.99538" lon="-0.97836">
        <ele>103.984</ele>
        <time>2020-05-27T16:19:03Z</time>
      </trkpt>
      <trkpt lat="46.99538" lon="-0.97836">
        <ele>103.989</ele>
        <time>2020-05-27T16:19:04Z</time>
      </trkpt>
      <trkpt lat="46.99538" lon="-0.97836">
        <ele>103.976</ele>
        <time>2020-05-27T16:19:05Z</time>
      </trkpt>
      <trkpt lat="46.99538" lon="-0.97836">
        <ele>103.98</ele>
        <time>2020-05-27T16:19:06Z</time>
      </trkpt>
      <trkpt lat="46.99538" lon="-0.97836">
        <ele>103.976</ele>
        <time>2020-05-27T16:19:07Z</time>
      </trkpt>
      <trkpt lat="46.99538" lon="-0.97836">
        <ele>103.973</ele>
        <time>2020-05-27T16:19:08Z</time>
      </trkpt>
      <trkpt lat="46.99538" lon="-0.97836">
        <ele>103.974</ele>
        <time>2020-05-27T16:19:09Z</time>
      </trkpt>
      <trkpt lat="46.99538" lon="-0.97836">
        <ele>103.96</ele>
        <time>2020-05-27T16:19:10Z</time>
      </trkpt>
      <trkpt lat="46.99538" lon="-0.97836">
        <ele>103.978</ele>
        <time>2020-05-27T16:19:11Z</time>
      </trkpt>
      <trkpt lat="46.99538" lon="-0.97836">
        <ele>103.977</ele>
        <time>2020-05-27T16:19:12Z</time>
      </trkpt>
      <trkpt lat="46.99538" lon="-0.97836">
        <ele>103.967</ele>
        <time>2020-05-27T16:19:13Z</time>
      </trkpt>
      <trkpt lat="46.99538" lon="-0.97836">
        <ele>103.966</ele>
        <time>2020-05-27T16:19:14Z</time>
      </trkpt>
      <trkpt lat="46.99538" lon="-0.97836">
        <ele>103.974</ele>
        <time>2020-05-27T16:19:15Z</time>
      </trkpt>
      <trkpt lat="46.99538" lon="-0.97836">
        <ele>103.974</ele>
        <time>2020-05-27T16:19:16Z</time>
      </trkpt>
      <trkpt lat="46.99538" lon="-0.97836">
        <ele>103.974</ele>
        <time>2020-05-27T16:19:17Z</time>
      </trkpt>
      <trkpt lat="46.99538" lon="-0.97836">
        <ele>103.975</ele>
        <time>2020-05-27T16:19:18Z</time>
      </trkpt>
      <trkpt lat="46.99538" lon="-0.97836">
        <ele>103.972</ele>
        <time>2020-05-27T16:19:19Z</time>
      </trkpt>
      <trkpt lat="46.99538" lon="-0.97836">
        <ele>103.944</ele>
        <time>2020-05-27T16:19:20Z</time>
      </trkpt>
      <trkpt lat="46.99538" lon="-0.97836">
        <ele>103.946</ele>
        <time>2020-05-27T16:19:21Z</time>
      </trkpt>
      <trkpt lat="46.99538" lon="-0.97836">
        <ele>103.944</ele>
        <time>2020-05-27T16:19:22Z</time>
      </trkpt>
      <trkpt lat="46.99538" lon="-0.97836">
        <ele>103.957</ele>
        <time>2020-05-27T16:19:23Z</time>
      </trkpt>
      <trkpt lat="46.99538" lon="-0.97836">
        <ele>103.962</ele>
        <time>2020-05-27T16:19:24Z</time>
      </trkpt>
      <trkpt lat="46.99538" lon="-0.97836">
        <ele>103.964</ele>
        <time>2020-05-27T16:19:25Z</time>
      </trkpt>
      <trkpt lat="46.99538" lon="-0.97836">
        <ele>103.944</ele>
        <time>2020-05-27T16:19:26Z</time>
      </trkpt>
      <trkpt lat="46.99538" lon="-0.97836">
        <ele>103.95</ele>
        <time>2020-05-27T16:19:27Z</time>
      </trkpt>
      <trkpt lat="46.99538" lon="-0.97836">
        <ele>103.952</ele>
        <time>2020-05-27T16:19:28Z</time>
      </trkpt>
      <trkpt lat="46.99538" lon="-0.97836">
        <ele>103.955</ele>
        <time>2020-05-27T16:19:29Z</time>
      </trkpt>
      <trkpt lat="46.99538" lon="-0.97836">
        <ele>103.965</ele>
        <time>2020-05-27T16:19:30Z</time>
      </trkpt>
      <trkpt lat="46.99538" lon="-0.97836">
        <ele>103.971</ele>
        <time>2020-05-27T16:19:31Z</time>
      </trkpt>
      <trkpt lat="46.99538" lon="-0.97836">
        <ele>103.975</ele>
        <time>2020-05-27T16:19:32Z</time>
      </trkpt>
      <trkpt lat="46.99538" lon="-0.97836">
        <ele>103.975</ele>
        <time>2020-05-27T16:19:33Z</time>
      </trkpt>
      <trkpt lat="46.99538" lon="-0.97836">
        <ele>103.982</ele>
        <time>2020-05-27T16:19:34Z</time>
      </trkpt>
      <trkpt lat="46.99538" lon="-0.97836">
        <ele>103.971</ele>
        <time>2020-05-27T16:19:35Z</time>
      </trkpt>
      <trkpt lat="46.99538" lon="-0.97836">
        <ele>104.05</ele>
        <time>2020-05-27T16:19:36Z</time>
      </trkpt>
      <trkpt lat="46.99538" lon="-0.97836">
        <ele>104.058</ele>
        <time>2020-05-27T16:19:37Z</time>
      </trkpt>
      <trkpt lat="46.99538" lon="-0.97836">
        <ele>104.055</ele>
        <time>2020-05-27T16:19:38Z</time>
      </trkpt>
      <trkpt lat="46.99538" lon="-0.97836">
        <ele>104.125</ele>
        <time>2020-05-27T16:19:39Z</time>
      </trkpt>
      <trkpt lat="46.99538" lon="-0.97836">
        <ele>104.121</ele>
        <time>2020-05-27T16:19:40Z</time>
      </trkpt>
      <trkpt lat="46.99538" lon="-0.97836">
        <ele>104.118</ele>
        <time>2020-05-27T16:19:41Z</time>
      </trkpt>
      <trkpt lat="46.99538" lon="-0.97836">
        <ele>104.169</ele>
        <time>2020-05-27T16:19:42Z</time>
      </trkpt>
      <trkpt lat="46.99538" lon="-0.97836">
        <ele>104.169</ele>
        <time>2020-05-27T16:19:43Z</time>
      </trkpt>
      <trkpt lat="46.99538" lon="-0.97836">
        <ele>104.177</ele>
        <time>2020-05-27T16:19:44Z</time>
      </trkpt>
      <trkpt lat="46.99538" lon="-0.97836">
        <ele>104.174</ele>
        <time>2020-05-27T16:19:45Z</time>
      </trkpt>
      <trkpt lat="46.99538" lon="-0.97836">
        <ele>104.178</ele>
        <time>2020-05-27T16:19:46Z</time>
      </trkpt>
      <trkpt lat="46.99538" lon="-0.97836">
        <ele>104.181</ele>
        <time>2020-05-27T16:19:47Z</time>
      </trkpt>
      <trkpt lat="46.99538" lon="-0.97836">
        <ele>104.186</ele>
        <time>2020-05-27T16:19:48Z</time>
      </trkpt>
      <trkpt lat="46.99538" lon="-0.97836">
        <ele>104.177</ele>
        <time>2020-05-27T16:19:49Z</time>
      </trkpt>
      <trkpt lat="46.99525" lon="-0.97846">
        <ele>102.615</ele>
        <time>2020-05-27T16:32:11Z</time>
      </trkpt>
      <trkpt lat="46.99531" lon="-0.97841">
        <ele>107.952</ele>
        <time>2020-05-27T16:32:13Z</time>
      </trkpt>
      <trkpt lat="46.9953" lon="-0.9784">
        <ele>104.615</ele>
        <time>2020-05-27T16:32:15Z</time>
      </trkpt>
      <trkpt lat="46.9953" lon="-0.97842">
        <ele>105.199</ele>
        <time>2020-05-27T16:32:16Z</time>
      </trkpt>
      <trkpt lat="46.9953" lon="-0.97844">
        <ele>103.953</ele>
        <time>2020-05-27T16:32:17Z</time>
      </trkpt>
      <trkpt lat="46.9953" lon="-0.97844">
        <ele>101.368</ele>
        <time>2020-05-27T16:32:18Z</time>
      </trkpt>
      <trkpt lat="46.99532" lon="-0.97844">
        <ele>103.539</ele>
        <time>2020-05-27T16:32:19Z</time>
      </trkpt>
      <trkpt lat="46.99532" lon="-0.97843">
        <ele>102.371</ele>
        <time>2020-05-27T16:32:20Z</time>
      </trkpt>
      <trkpt lat="46.99531" lon="-0.97843">
        <ele>99.955</ele>
        <time>2020-05-27T16:32:21Z</time>
      </trkpt>
      <trkpt lat="46.99531" lon="-0.97843">
        <ele>99.291</ele>
        <time>2020-05-27T16:32:22Z</time>
      </trkpt>
      <trkpt lat="46.99532" lon="-0.97843">
        <ele>100.685</ele>
        <time>2020-05-27T16:32:23Z</time>
      </trkpt>
      <trkpt lat="46.99532" lon="-0.97844">
        <ele>100.594</ele>
        <time>2020-05-27T16:32:24Z</time>
      </trkpt>
      <trkpt lat="46.99531" lon="-0.97843">
        <ele>100.094</ele>
        <time>2020-05-27T16:32:25Z</time>
      </trkpt>
      <trkpt lat="46.99531" lon="-0.97843">
        <ele>100.116</ele>
        <time>2020-05-27T16:32:26Z</time>
      </trkpt>
      <trkpt lat="46.99531" lon="-0.97843">
        <ele>100.065</ele>
        <time>2020-05-27T16:32:27Z</time>
      </trkpt>
      <trkpt lat="46.99531" lon="-0.97843">
        <ele>99.857</ele>
        <time>2020-05-27T16:32:28Z</time>
      </trkpt>
      <trkpt lat="46.99531" lon="-0.97843">
        <ele>99.895</ele>
        <time>2020-05-27T16:32:29Z</time>
      </trkpt>
      <trkpt lat="46.99531" lon="-0.97844">
        <ele>99.865</ele>
        <time>2020-05-27T16:32:30Z</time>
      </trkpt>
      <trkpt lat="46.99531" lon="-0.97845">
        <ele>97.896</ele>
        <time>2020-05-27T16:32:31Z</time>
      </trkpt>
      <trkpt lat="46.9953" lon="-0.97845">
        <ele>114.237</ele>
        <time>2020-05-27T16:32:32Z</time>
      </trkpt>
      <trkpt lat="46.99529" lon="-0.97845">
        <ele>111.24</ele>
        <time>2020-05-27T16:32:33Z</time>
      </trkpt>
      <trkpt lat="46.9953" lon="-0.97845">
        <ele>107.536</ele>
        <time>2020-05-27T16:32:34Z</time>
      </trkpt>
      <trkpt lat="46.99529" lon="-0.97845">
        <ele>105.812</ele>
        <time>2020-05-27T16:32:35Z</time>
      </trkpt>
      <trkpt lat="46.99529" lon="-0.97845">
        <ele>103.012</ele>
        <time>2020-05-27T16:32:36Z</time>
      </trkpt>
      <trkpt lat="46.99529" lon="-0.97846">
        <ele>102.691</ele>
        <time>2020-05-27T16:32:37Z</time>
      </trkpt>
      <trkpt lat="46.99529" lon="-0.97845">
        <ele>102.434</ele>
        <time>2020-05-27T16:32:38Z</time>
      </trkpt>
      <trkpt lat="46.9953" lon="-0.97845">
        <ele>101.962</ele>
        <time>2020-05-27T16:32:39Z</time>
      </trkpt>
      <trkpt lat="46.9953" lon="-0.97845">
        <ele>101.057</ele>
        <time>2020-05-27T16:32:40Z</time>
      </trkpt>
      <trkpt lat="46.9953" lon="-0.97845">
        <ele>101.33</ele>
        <time>2020-05-27T16:32:41Z</time>
      </trkpt>
      <trkpt lat="46.9953" lon="-0.97845">
        <ele>101.062</ele>
        <time>2020-05-27T16:32:42Z</time>
      </trkpt>
      <trkpt lat="46.9953" lon="-0.97845">
        <ele>100.845</ele>
        <time>2020-05-27T16:32:43Z</time>
      </trkpt>
      <trkpt lat="46.9953" lon="-0.97845">
        <ele>100.521</ele>
        <time>2020-05-27T16:32:44Z</time>
      </trkpt>
      <trkpt lat="46.9953" lon="-0.97845">
        <ele>100.612</ele>
        <time>2020-05-27T16:32:45Z</time>
      </trkpt>
      <trkpt lat="46.9953" lon="-0.97845">
        <ele>100.662</ele>
        <time>2020-05-27T16:32:46Z</time>
      </trkpt>
      <trkpt lat="46.9953" lon="-0.97845">
        <ele>100.628</ele>
        <time>2020-05-27T16:32:47Z</time>
      </trkpt>
      <trkpt lat="46.9953" lon="-0.97845">
        <ele>100.563</ele>
        <time>2020-05-27T16:32:48Z</time>
      </trkpt>
      <trkpt lat="46.9953" lon="-0.97845">
        <ele>100.382</ele>
        <time>2020-05-27T16:32:49Z</time>
      </trkpt>
      <trkpt lat="46.9953" lon="-0.97845">
        <ele>100.368</ele>
        <time>2020-05-27T16:32:50Z</time>
      </trkpt>
      <trkpt lat="46.9953" lon="-0.97845">
        <ele>100.232</ele>
        <time>2020-05-27T16:32:51Z</time>
      </trkpt>
      <trkpt lat="46.9953" lon="-0.97845">
        <ele>100.123</ele>
        <time>2020-05-27T16:32:52Z</time>
      </trkpt>
      <trkpt lat="46.9953" lon="-0.97845">
        <ele>99.947</ele>
        <time>2020-05-27T16:32:53Z</time>
      </trkpt>
      <trkpt lat="46.9953" lon="-0.97845">
        <ele>99.977</ele>
        <time>2020-05-27T16:32:54Z</time>
      </trkpt>
      <trkpt lat="46.9953" lon="-0.97845">
        <ele>100.064</ele>
        <time>2020-05-27T16:32:55Z</time>
      </trkpt>
      <trkpt lat="46.9953" lon="-0.97845">
        <ele>100.11</ele>
        <time>2020-05-27T16:32:56Z</time>
      </trkpt>
      <trkpt lat="46.9953" lon="-0.97845">
        <ele>99.782</ele>
        <time>2020-05-27T16:32:57Z</time>
      </trkpt>
      <trkpt lat="46.99531" lon="-0.97845">
        <ele>100.981</ele>
        <time>2020-05-27T16:32:58Z</time>
      </trkpt>
      <trkpt lat="46.99532" lon="-0.97843">
        <ele>99.513</ele>
        <time>2020-05-27T16:32:59Z</time>
      </trkpt>
      <trkpt lat="46.99533" lon="-0.97843">
        <ele>100.804</ele>
        <time>2020-05-27T16:33:00Z</time>
      </trkpt>
      <trkpt lat="46.99533" lon="-0.97841">
        <ele>102.006</ele>
        <time>2020-05-27T16:33:01Z</time>
      </trkpt>
      <trkpt lat="46.99535" lon="-0.97841">
        <ele>98.766</ele>
        <time>2020-05-27T16:33:02Z</time>
      </trkpt>
      <trkpt lat="46.99537" lon="-0.97843">
        <ele>101.705</ele>
        <time>2020-05-27T16:33:03Z</time>
      </trkpt>
      <trkpt lat="46.99535" lon="-0.97844">
        <ele>98.273</ele>
        <time>2020-05-27T16:33:04Z</time>
      </trkpt>
      <trkpt lat="46.99535" lon="-0.97844">
        <ele>97.675</ele>
        <time>2020-05-27T16:33:05Z</time>
      </trkpt>
      <trkpt lat="46.99536" lon="-0.97844">
        <ele>99.431</ele>
        <time>2020-05-27T16:33:06Z</time>
      </trkpt>
      <trkpt lat="46.99537" lon="-0.97844">
        <ele>102.402</ele>
        <time>2020-05-27T16:33:07Z</time>
      </trkpt>
      <trkpt lat="46.99538" lon="-0.97844">
        <ele>103.596</ele>
        <time>2020-05-27T16:33:08Z</time>
      </trkpt>
      <trkpt lat="46.99538" lon="-0.97845">
        <ele>100.959</ele>
        <time>2020-05-27T16:33:09Z</time>
      </trkpt>
      <trkpt lat="46.99537" lon="-0.97846">
        <ele>100.87</ele>
        <time>2020-05-27T16:33:10Z</time>
      </trkpt>
      <trkpt lat="46.99538" lon="-0.97845">
        <ele>101.367</ele>
        <time>2020-05-27T16:33:11Z</time>
      </trkpt>
      <trkpt lat="46.99538" lon="-0.97845">
        <ele>101.741</ele>
        <time>2020-05-27T16:33:12Z</time>
      </trkpt>
      <trkpt lat="46.99538" lon="-0.97845">
        <ele>102.584</ele>
        <time>2020-05-27T16:33:13Z</time>
      </trkpt>
      <trkpt lat="46.99539" lon="-0.97845">
        <ele>103.213</ele>
        <time>2020-05-27T16:33:14Z</time>
      </trkpt>
      <trkpt lat="46.9954" lon="-0.97845">
        <ele>105.102</ele>
        <time>2020-05-27T16:33:15Z</time>
      </trkpt>
      <trkpt lat="46.99541" lon="-0.97846">
        <ele>105.304</ele>
        <time>2020-05-27T16:33:16Z</time>
      </trkpt>
      <trkpt lat="46.99542" lon="-0.97846">
        <ele>98.404</ele>
        <time>2020-05-27T16:33:17Z</time>
      </trkpt>
      <trkpt lat="46.99543" lon="-0.97845">
        <ele>98.981</ele>
        <time>2020-05-27T16:33:18Z</time>
      </trkpt>
      <trkpt lat="46.99544" lon="-0.97845">
        <ele>98.799</ele>
        <time>2020-05-27T16:33:19Z</time>
      </trkpt>
      <trkpt lat="46.99546" lon="-0.97845">
        <ele>97.418</ele>
        <time>2020-05-27T16:33:20Z</time>
      </trkpt>
      <trkpt lat="46.99548" lon="-0.97845">
        <ele>96.435</ele>
        <time>2020-05-27T16:33:21Z</time>
      </trkpt>
      <trkpt lat="46.9955" lon="-0.97844">
        <ele>95.534</ele>
        <time>2020-05-27T16:33:22Z</time>
      </trkpt>
      <trkpt lat="46.99552" lon="-0.97842">
        <ele>96.07</ele>
        <time>2020-05-27T16:33:23Z</time>
      </trkpt>
      <trkpt lat="46.99553" lon="-0.9784">
        <ele>96.56</ele>
        <time>2020-05-27T16:33:24Z</time>
      </trkpt>
      <trkpt lat="46.99555" lon="-0.97838">
        <ele>96.315</ele>
        <time>2020-05-27T16:33:25Z</time>
      </trkpt>
      <trkpt lat="46.99558" lon="-0.97837">
        <ele>96.912</ele>
        <time>2020-05-27T16:33:26Z</time>
      </trkpt>
      <trkpt lat="46.99561" lon="-0.97836">
        <ele>98.376</ele>
        <time>2020-05-27T16:33:27Z</time>
      </trkpt>
      <trkpt lat="46.99564" lon="-0.97836">
        <ele>113.426</ele>
        <time>2020-05-27T16:33:28Z</time>
      </trkpt>
      <trkpt lat="46.99567" lon="-0.97836">
        <ele>109.183</ele>
        <time>2020-05-27T16:33:29Z</time>
      </trkpt>
      <trkpt lat="46.9957" lon="-0.97836">
        <ele>107.128</ele>
        <time>2020-05-27T16:33:30Z</time>
      </trkpt>
      <trkpt lat="46.99573" lon="-0.97836">
        <ele>105.719</ele>
        <time>2020-05-27T16:33:31Z</time>
      </trkpt>
      <trkpt lat="46.99576" lon="-0.97836">
        <ele>104.48</ele>
        <time>2020-05-27T16:33:32Z</time>
      </trkpt>
      <trkpt lat="46.99579" lon="-0.97836">
        <ele>102.941</ele>
        <time>2020-05-27T16:33:33Z</time>
      </trkpt>
      <trkpt lat="46.99583" lon="-0.97837">
        <ele>102.487</ele>
        <time>2020-05-27T16:33:34Z</time>
      </trkpt>
      <trkpt lat="46.99586" lon="-0.97837">
        <ele>102.228</ele>
        <time>2020-05-27T16:33:35Z</time>
      </trkpt>
      <trkpt lat="46.9959" lon="-0.97837">
        <ele>100.005</ele>
        <time>2020-05-27T16:33:36Z</time>
      </trkpt>
      <trkpt lat="46.99594" lon="-0.97838">
        <ele>100.068</ele>
        <time>2020-05-27T16:33:37Z</time>
      </trkpt>
      <trkpt lat="46.99597" lon="-0.97839">
        <ele>99.661</ele>
        <time>2020-05-27T16:33:38Z</time>
      </trkpt>
      <trkpt lat="46.99601" lon="-0.9784">
        <ele>99.562</ele>
        <time>2020-05-27T16:33:39Z</time>
      </trkpt>
      <trkpt lat="46.99605" lon="-0.97841">
        <ele>99.697</ele>
        <time>2020-05-27T16:33:40Z</time>
      </trkpt>
      <trkpt lat="46.99609" lon="-0.97843">
        <ele>99.695</ele>
        <time>2020-05-27T16:33:41Z</time>
      </trkpt>
      <trkpt lat="46.99612" lon="-0.97844">
        <ele>99.256</ele>
        <time>2020-05-27T16:33:42Z</time>
      </trkpt>
      <trkpt lat="46.99616" lon="-0.97845">
        <ele>99.528</ele>
        <time>2020-05-27T16:33:43Z</time>
      </trkpt>
      <trkpt lat="46.99619" lon="-0.97846">
        <ele>99.092</ele>
        <time>2020-05-27T16:33:44Z</time>
      </trkpt>
      <trkpt lat="46.99623" lon="-0.97848">
        <ele>100.238</ele>
        <time>2020-05-27T16:33:45Z</time>
      </trkpt>
      <trkpt lat="46.99628" lon="-0.97851">
        <ele>99.057</ele>
        <time>2020-05-27T16:33:46Z</time>
      </trkpt>
      <trkpt lat="46.99632" lon="-0.97854">
        <ele>98.813</ele>
        <time>2020-05-27T16:33:47Z</time>
      </trkpt>
      <trkpt lat="46.99636" lon="-0.97857">
        <ele>98.248</ele>
        <time>2020-05-27T16:33:48Z</time>
      </trkpt>
      <trkpt lat="46.9964" lon="-0.97861">
        <ele>97.696</ele>
        <time>2020-05-27T16:33:49Z</time>
      </trkpt>
      <trkpt lat="46.99643" lon="-0.97864">
        <ele>97.93</ele>
        <time>2020-05-27T16:33:50Z</time>
      </trkpt>
      <trkpt lat="46.99647" lon="-0.97868">
        <ele>99.245</ele>
        <time>2020-05-27T16:33:51Z</time>
      </trkpt>
      <trkpt lat="46.99651" lon="-0.97873">
        <ele>100.543</ele>
        <time>2020-05-27T16:33:52Z</time>
      </trkpt>
      <trkpt lat="46.99654" lon="-0.97877">
        <ele>100.135</ele>
        <time>2020-05-27T16:33:53Z</time>
      </trkpt>
      <trkpt lat="46.99658" lon="-0.97882">
        <ele>99.491</ele>
        <time>2020-05-27T16:33:54Z</time>
      </trkpt>
      <trkpt lat="46.99661" lon="-0.97886">
        <ele>97.72</ele>
        <time>2020-05-27T16:33:55Z</time>
      </trkpt>
      <trkpt lat="46.99665" lon="-0.9789">
        <ele>98.108</ele>
        <time>2020-05-27T16:33:56Z</time>
      </trkpt>
      <trkpt lat="46.99668" lon="-0.97895">
        <ele>97.447</ele>
        <time>2020-05-27T16:33:57Z</time>
      </trkpt>
      <trkpt lat="46.99671" lon="-0.97899">
        <ele>97.715</ele>
        <time>2020-05-27T16:33:58Z</time>
      </trkpt>
      <trkpt lat="46.99674" lon="-0.97904">
        <ele>98.541</ele>
        <time>2020-05-27T16:33:59Z</time>
      </trkpt>
      <trkpt lat="46.99676" lon="-0.97908">
        <ele>98.189</ele>
        <time>2020-05-27T16:34:00Z</time>
      </trkpt>
      <trkpt lat="46.99679" lon="-0.97913">
        <ele>97.904</ele>
        <time>2020-05-27T16:34:01Z</time>
      </trkpt>
      <trkpt lat="46.99681" lon="-0.97918">
        <ele>97.861</ele>
        <time>2020-05-27T16:34:02Z</time>
      </trkpt>
      <trkpt lat="46.99683" lon="-0.97924">
        <ele>98.759</ele>
        <time>2020-05-27T16:34:03Z</time>
      </trkpt>
      <trkpt lat="46.99684" lon="-0.9793">
        <ele>98.748</ele>
        <time>2020-05-27T16:34:04Z</time>
      </trkpt>
      <trkpt lat="46.99684" lon="-0.97936">
        <ele>98.179</ele>
        <time>2020-05-27T16:34:05Z</time>
      </trkpt>
      <trkpt lat="46.99685" lon="-0.97942">
        <ele>99.322</ele>
        <time>2020-05-27T16:34:06Z</time>
      </trkpt>
      <trkpt lat="46.99685" lon="-0.97951">
        <ele>99.712</ele>
        <time>2020-05-27T16:34:07Z</time>
      </trkpt>
      <trkpt lat="46.99686" lon="-0.97957">
        <ele>100.309</ele>
        <time>2020-05-27T16:34:08Z</time>
      </trkpt>
      <trkpt lat="46.9969" lon="-0.97961">
        <ele>99.437</ele>
        <time>2020-05-27T16:34:09Z</time>
      </trkpt>
      <trkpt lat="46.99691" lon="-0.97965">
        <ele>99.919</ele>
        <time>2020-05-27T16:34:10Z</time>
      </trkpt>
      <trkpt lat="46.99694" lon="-0.97971">
        <ele>98.575</ele>
        <time>2020-05-27T16:34:11Z</time>
      </trkpt>
      <trkpt lat="46.99697" lon="-0.97976">
        <ele>98.771</ele>
        <time>2020-05-27T16:34:12Z</time>
      </trkpt>
      <trkpt lat="46.997" lon="-0.97981">
        <ele>98.156</ele>
        <time>2020-05-27T16:34:13Z</time>
      </trkpt>
      <trkpt lat="46.99704" lon="-0.97987">
        <ele>97.189</ele>
        <time>2020-05-27T16:34:14Z</time>
      </trkpt>
      <trkpt lat="46.99707" lon="-0.97992">
        <ele>97.547</ele>
        <time>2020-05-27T16:34:15Z</time>
      </trkpt>
      <trkpt lat="46.99711" lon="-0.97996">
        <ele>98.306</ele>
        <time>2020-05-27T16:34:16Z</time>
      </trkpt>
      <trkpt lat="46.99715" lon="-0.98002">
        <ele>97.095</ele>
        <time>2020-05-27T16:34:17Z</time>
      </trkpt>
      <trkpt lat="46.99719" lon="-0.98008">
        <ele>95.206</ele>
        <time>2020-05-27T16:34:18Z</time>
      </trkpt>
      <trkpt lat="46.99723" lon="-0.98013">
        <ele>95.386</ele>
        <time>2020-05-27T16:34:19Z</time>
      </trkpt>
      <trkpt lat="46.99727" lon="-0.9802">
        <ele>95.716</ele>
        <time>2020-05-27T16:34:20Z</time>
      </trkpt>
      <trkpt lat="46.99731" lon="-0.98026">
        <ele>96.055</ele>
        <time>2020-05-27T16:34:21Z</time>
      </trkpt>
      <trkpt lat="46.99734" lon="-0.98032">
        <ele>95.774</ele>
        <time>2020-05-27T16:34:22Z</time>
      </trkpt>
      <trkpt lat="46.99739" lon="-0.98036">
        <ele>95.381</ele>
        <time>2020-05-27T16:34:23Z</time>
      </trkpt>
      <trkpt lat="46.99742" lon="-0.98043">
        <ele>96.797</ele>
        <time>2020-05-27T16:34:24Z</time>
      </trkpt>
      <trkpt lat="46.99747" lon="-0.98048">
        <ele>96.698</ele>
        <time>2020-05-27T16:34:25Z</time>
      </trkpt>
      <trkpt lat="46.99749" lon="-0.98054">
        <ele>97.923</ele>
        <time>2020-05-27T16:34:26Z</time>
      </trkpt>
      <trkpt lat="46.99756" lon="-0.98055">
        <ele>93.674</ele>
        <time>2020-05-27T16:34:27Z</time>
      </trkpt>
      <trkpt lat="46.99762" lon="-0.98058">
        <ele>92.22</ele>
        <time>2020-05-27T16:34:28Z</time>
      </trkpt>
      <trkpt lat="46.99766" lon="-0.98062">
        <ele>89.549</ele>
        <time>2020-05-27T16:34:29Z</time>
      </trkpt>
      <trkpt lat="46.9977" lon="-0.98066">
        <ele>89.868</ele>
        <time>2020-05-27T16:34:30Z</time>
      </trkpt>
      <trkpt lat="46.99775" lon="-0.98068">
        <ele>88.399</ele>
        <time>2020-05-27T16:34:31Z</time>
      </trkpt>
      <trkpt lat="46.99779" lon="-0.9807">
        <ele>87.566</ele>
        <time>2020-05-27T16:34:32Z</time>
      </trkpt>
      <trkpt lat="46.99782" lon="-0.98074">
        <ele>88.436</ele>
        <time>2020-05-27T16:34:33Z</time>
      </trkpt>
      <trkpt lat="46.99786" lon="-0.98079">
        <ele>89.495</ele>
        <time>2020-05-27T16:34:34Z</time>
      </trkpt>
      <trkpt lat="46.99788" lon="-0.98084">
        <ele>91.224</ele>
        <time>2020-05-27T16:34:35Z</time>
      </trkpt>
      <trkpt lat="46.9979" lon="-0.98087">
        <ele>89.521</ele>
        <time>2020-05-27T16:34:36Z</time>
      </trkpt>
      <trkpt lat="46.99793" lon="-0.98095">
        <ele>89.404</ele>
        <time>2020-05-27T16:34:37Z</time>
      </trkpt>
      <trkpt lat="46.99794" lon="-0.98102">
        <ele>89.473</ele>
        <time>2020-05-27T16:34:38Z</time>
      </trkpt>
      <trkpt lat="46.99796" lon="-0.98114">
        <ele>87.459</ele>
        <time>2020-05-27T16:34:39Z</time>
      </trkpt>
      <trkpt lat="46.99795" lon="-0.98123">
        <ele>88.034</ele>
        <time>2020-05-27T16:34:40Z</time>
      </trkpt>
      <trkpt lat="46.99794" lon="-0.98133">
        <ele>89.754</ele>
        <time>2020-05-27T16:34:41Z</time>
      </trkpt>
      <trkpt lat="46.99793" lon="-0.98141">
        <ele>90.274</ele>
        <time>2020-05-27T16:34:42Z</time>
      </trkpt>
      <trkpt lat="46.99793" lon="-0.9815">
        <ele>90.446</ele>
        <time>2020-05-27T16:34:43Z</time>
      </trkpt>
      <trkpt lat="46.99792" lon="-0.98159">
        <ele>91.079</ele>
        <time>2020-05-27T16:34:44Z</time>
      </trkpt>
      <trkpt lat="46.99792" lon="-0.98167">
        <ele>91.336</ele>
        <time>2020-05-27T16:34:45Z</time>
      </trkpt>
      <trkpt lat="46.9979" lon="-0.98175">
        <ele>94.266</ele>
        <time>2020-05-27T16:34:46Z</time>
      </trkpt>
      <trkpt lat="46.9979" lon="-0.98184">
        <ele>95.785</ele>
        <time>2020-05-27T16:34:47Z</time>
      </trkpt>
      <trkpt lat="46.9979" lon="-0.98193">
        <ele>96.934</ele>
        <time>2020-05-27T16:34:48Z</time>
      </trkpt>
      <trkpt lat="46.99792" lon="-0.98202">
        <ele>97.942</ele>
        <time>2020-05-27T16:34:49Z</time>
      </trkpt>
      <trkpt lat="46.99794" lon="-0.98211">
        <ele>97.46</ele>
        <time>2020-05-27T16:34:50Z</time>
      </trkpt>
      <trkpt lat="46.99797" lon="-0.98219">
        <ele>95.26</ele>
        <time>2020-05-27T16:34:51Z</time>
      </trkpt>
      <trkpt lat="46.99798" lon="-0.98228">
        <ele>95.562</ele>
        <time>2020-05-27T16:34:52Z</time>
      </trkpt>
      <trkpt lat="46.99798" lon="-0.98238">
        <ele>96.217</ele>
        <time>2020-05-27T16:34:53Z</time>
      </trkpt>
      <trkpt lat="46.99799" lon="-0.98249">
        <ele>95.647</ele>
        <time>2020-05-27T16:34:54Z</time>
      </trkpt>
      <trkpt lat="46.998" lon="-0.98256">
        <ele>97.402</ele>
        <time>2020-05-27T16:34:55Z</time>
      </trkpt>
      <trkpt lat="46.99797" lon="-0.98265">
        <ele>97.388</ele>
        <time>2020-05-27T16:34:56Z</time>
      </trkpt>
      <trkpt lat="46.99799" lon="-0.98273">
        <ele>97.598</ele>
        <time>2020-05-27T16:34:57Z</time>
      </trkpt>
      <trkpt lat="46.998" lon="-0.98279">
        <ele>98.244</ele>
        <time>2020-05-27T16:34:58Z</time>
      </trkpt>
      <trkpt lat="46.99802" lon="-0.98284">
        <ele>97.703</ele>
        <time>2020-05-27T16:34:59Z</time>
      </trkpt>
      <trkpt lat="46.99805" lon="-0.9829">
        <ele>110.952</ele>
        <time>2020-05-27T16:35:00Z</time>
      </trkpt>
      <trkpt lat="46.99807" lon="-0.98293">
        <ele>109.944</ele>
        <time>2020-05-27T16:35:01Z</time>
      </trkpt>
      <trkpt lat="46.99814" lon="-0.98296">
        <ele>107.784</ele>
        <time>2020-05-27T16:35:02Z</time>
      </trkpt>
      <trkpt lat="46.99819" lon="-0.98298">
        <ele>105.53</ele>
        <time>2020-05-27T16:35:03Z</time>
      </trkpt>
      <trkpt lat="46.99824" lon="-0.98302">
        <ele>104.366</ele>
        <time>2020-05-27T16:35:04Z</time>
      </trkpt>
      <trkpt lat="46.9983" lon="-0.98305">
        <ele>102.561</ele>
        <time>2020-05-27T16:35:05Z</time>
      </trkpt>
      <trkpt lat="46.99834" lon="-0.98309">
        <ele>101.491</ele>
        <time>2020-05-27T16:35:06Z</time>
      </trkpt>
      <trkpt lat="46.99837" lon="-0.98316">
        <ele>102.391</ele>
        <time>2020-05-27T16:35:07Z</time>
      </trkpt>
      <trkpt lat="46.99838" lon="-0.98324">
        <ele>102.119</ele>
        <time>2020-05-27T16:35:08Z</time>
      </trkpt>
      <trkpt lat="46.99839" lon="-0.98332">
        <ele>100.602</ele>
        <time>2020-05-27T16:35:09Z</time>
      </trkpt>
      <trkpt lat="46.99839" lon="-0.9834">
        <ele>100.677</ele>
        <time>2020-05-27T16:35:10Z</time>
      </trkpt>
      <trkpt lat="46.99841" lon="-0.98347">
        <ele>100.806</ele>
        <time>2020-05-27T16:35:11Z</time>
      </trkpt>
      <trkpt lat="46.99842" lon="-0.98353">
        <ele>102.024</ele>
        <time>2020-05-27T16:35:12Z</time>
      </trkpt>
      <trkpt lat="46.99843" lon="-0.9836">
        <ele>103.049</ele>
        <time>2020-05-27T16:35:13Z</time>
      </trkpt>
      <trkpt lat="46.99845" lon="-0.98368">
        <ele>102.504</ele>
        <time>2020-05-27T16:35:14Z</time>
      </trkpt>
      <trkpt lat="46.99847" lon="-0.98375">
        <ele>101.729</ele>
        <time>2020-05-27T16:35:15Z</time>
      </trkpt>
      <trkpt lat="46.99848" lon="-0.98382">
        <ele>113.509</ele>
        <time>2020-05-27T16:35:16Z</time>
      </trkpt>
      <trkpt lat="46.99851" lon="-0.98391">
        <ele>110.614</ele>
        <time>2020-05-27T16:35:17Z</time>
      </trkpt>
      <trkpt lat="46.99852" lon="-0.984">
        <ele>108.85</ele>
        <time>2020-05-27T16:35:18Z</time>
      </trkpt>
      <trkpt lat="46.99856" lon="-0.98408">
        <ele>108.039</ele>
        <time>2020-05-27T16:35:19Z</time>
      </trkpt>
      <trkpt lat="46.9986" lon="-0.98415">
        <ele>106.349</ele>
        <time>2020-05-27T16:35:20Z</time>
      </trkpt>
      <trkpt lat="46.99863" lon="-0.98423">
        <ele>105.924</ele>
        <time>2020-05-27T16:35:21Z</time>
      </trkpt>
      <trkpt lat="46.99866" lon="-0.98431">
        <ele>104.966</ele>
        <time>2020-05-27T16:35:22Z</time>
      </trkpt>
      <trkpt lat="46.99869" lon="-0.98439">
        <ele>104.451</ele>
        <time>2020-05-27T16:35:23Z</time>
      </trkpt>
      <trkpt lat="46.99872" lon="-0.98447">
        <ele>104.356</ele>
        <time>2020-05-27T16:35:24Z</time>
      </trkpt>
      <trkpt lat="46.99876" lon="-0.98454">
        <ele>102.497</ele>
        <time>2020-05-27T16:35:25Z</time>
      </trkpt>
      <trkpt lat="46.99879" lon="-0.98462">
        <ele>102.569</ele>
        <time>2020-05-27T16:35:26Z</time>
      </trkpt>
      <trkpt lat="46.99882" lon="-0.9847">
        <ele>103.189</ele>
        <time>2020-05-27T16:35:27Z</time>
      </trkpt>
      <trkpt lat="46.99885" lon="-0.98479">
        <ele>101.848</ele>
        <time>2020-05-27T16:35:28Z</time>
      </trkpt>
      <trkpt lat="46.99888" lon="-0.98487">
        <ele>101.609</ele>
        <time>2020-05-27T16:35:29Z</time>
      </trkpt>
      <trkpt lat="46.99891" lon="-0.98495">
        <ele>100.1</ele>
        <time>2020-05-27T16:35:30Z</time>
      </trkpt>
      <trkpt lat="46.99894" lon="-0.98504">
        <ele>99.109</ele>
        <time>2020-05-27T16:35:31Z</time>
      </trkpt>
      <trkpt lat="46.99897" lon="-0.98514">
        <ele>99.291</ele>
        <time>2020-05-27T16:35:32Z</time>
      </trkpt>
      <trkpt lat="46.99897" lon="-0.98523">
        <ele>100.108</ele>
        <time>2020-05-27T16:35:33Z</time>
      </trkpt>
      <trkpt lat="46.99899" lon="-0.98532">
        <ele>101.238</ele>
        <time>2020-05-27T16:35:34Z</time>
      </trkpt>
      <trkpt lat="46.99902" lon="-0.98539">
        <ele>98.483</ele>
        <time>2020-05-27T16:35:35Z</time>
      </trkpt>
      <trkpt lat="46.99904" lon="-0.98549">
        <ele>99.297</ele>
        <time>2020-05-27T16:35:36Z</time>
      </trkpt>
      <trkpt lat="46.99907" lon="-0.98559">
        <ele>98.436</ele>
        <time>2020-05-27T16:35:37Z</time>
      </trkpt>
      <trkpt lat="46.99908" lon="-0.98568">
        <ele>97.856</ele>
        <time>2020-05-27T16:35:38Z</time>
      </trkpt>
      <trkpt lat="46.9991" lon="-0.98578">
        <ele>96.957</ele>
        <time>2020-05-27T16:35:39Z</time>
      </trkpt>
      <trkpt lat="46.99911" lon="-0.98587">
        <ele>97.571</ele>
        <time>2020-05-27T16:35:40Z</time>
      </trkpt>
      <trkpt lat="46.99913" lon="-0.98596">
        <ele>97.687</ele>
        <time>2020-05-27T16:35:41Z</time>
      </trkpt>
      <trkpt lat="46.99914" lon="-0.98606">
        <ele>96.491</ele>
        <time>2020-05-27T16:35:42Z</time>
      </trkpt>
      <trkpt lat="46.99915" lon="-0.98616">
        <ele>95.87</ele>
        <time>2020-05-27T16:35:43Z</time>
      </trkpt>
      <trkpt lat="46.99917" lon="-0.98624">
        <ele>94.776</ele>
        <time>2020-05-27T16:35:44Z</time>
      </trkpt>
      <trkpt lat="46.99918" lon="-0.98634">
        <ele>94.582</ele>
        <time>2020-05-27T16:35:45Z</time>
      </trkpt>
      <trkpt lat="46.9992" lon="-0.98644">
        <ele>92.967</ele>
        <time>2020-05-27T16:35:46Z</time>
      </trkpt>
      <trkpt lat="46.99922" lon="-0.98652">
        <ele>93.489</ele>
        <time>2020-05-27T16:35:47Z</time>
      </trkpt>
      <trkpt lat="46.99923" lon="-0.9866">
        <ele>94.067</ele>
        <time>2020-05-27T16:35:48Z</time>
      </trkpt>
      <trkpt lat="46.99925" lon="-0.98667">
        <ele>95.468</ele>
        <time>2020-05-27T16:35:49Z</time>
      </trkpt>
      <trkpt lat="46.99926" lon="-0.98675">
        <ele>96.516</ele>
        <time>2020-05-27T16:35:50Z</time>
      </trkpt>
      <trkpt lat="46.99928" lon="-0.98683">
        <ele>96.182</ele>
        <time>2020-05-27T16:35:51Z</time>
      </trkpt>
      <trkpt lat="46.99929" lon="-0.9869">
        <ele>96.541</ele>
        <time>2020-05-27T16:35:52Z</time>
      </trkpt>
      <trkpt lat="46.99931" lon="-0.98697">
        <ele>95.565</ele>
        <time>2020-05-27T16:35:53Z</time>
      </trkpt>
      <trkpt lat="46.99933" lon="-0.98705">
        <ele>94.195</ele>
        <time>2020-05-27T16:35:54Z</time>
      </trkpt>
      <trkpt lat="46.99933" lon="-0.98713">
        <ele>93.741</ele>
        <time>2020-05-27T16:35:55Z</time>
      </trkpt>
      <trkpt lat="46.99933" lon="-0.98721">
        <ele>93.923</ele>
        <time>2020-05-27T16:35:56Z</time>
      </trkpt>
      <trkpt lat="46.99933" lon="-0.98728">
        <ele>94.143</ele>
        <time>2020-05-27T16:35:57Z</time>
      </trkpt>
      <trkpt lat="46.99934" lon="-0.98736">
        <ele>94.61</ele>
        <time>2020-05-27T16:35:58Z</time>
      </trkpt>
      <trkpt lat="46.99936" lon="-0.98742">
        <ele>94.94</ele>
        <time>2020-05-27T16:35:59Z</time>
      </trkpt>
      <trkpt lat="46.9994" lon="-0.98747">
        <ele>93.631</ele>
        <time>2020-05-27T16:36:00Z</time>
      </trkpt>
      <trkpt lat="46.99944" lon="-0.9875">
        <ele>99.383</ele>
        <time>2020-05-27T16:36:01Z</time>
      </trkpt>
      <trkpt lat="46.99948" lon="-0.98751">
        <ele>98.782</ele>
        <time>2020-05-27T16:36:02Z</time>
      </trkpt>
      <trkpt lat="46.99951" lon="-0.98753">
        <ele>99.094</ele>
        <time>2020-05-27T16:36:03Z</time>
      </trkpt>
      <trkpt lat="46.99954" lon="-0.98754">
        <ele>99.067</ele>
        <time>2020-05-27T16:36:04Z</time>
      </trkpt>
      <trkpt lat="46.99958" lon="-0.98756">
        <ele>99.551</ele>
        <time>2020-05-27T16:36:05Z</time>
      </trkpt>
      <trkpt lat="46.99962" lon="-0.98757">
        <ele>98.221</ele>
        <time>2020-05-27T16:36:06Z</time>
      </trkpt>
      <trkpt lat="46.99967" lon="-0.98762">
        <ele>99.081</ele>
        <time>2020-05-27T16:36:07Z</time>
      </trkpt>
      <trkpt lat="46.9997" lon="-0.98768">
        <ele>99.35</ele>
        <time>2020-05-27T16:36:08Z</time>
      </trkpt>
      <trkpt lat="46.99971" lon="-0.98772">
        <ele>99.351</ele>
        <time>2020-05-27T16:36:09Z</time>
      </trkpt>
      <trkpt lat="46.99974" lon="-0.98777">
        <ele>98.447</ele>
        <time>2020-05-27T16:36:10Z</time>
      </trkpt>
      <trkpt lat="46.99978" lon="-0.98784">
        <ele>98.546</ele>
        <time>2020-05-27T16:36:11Z</time>
      </trkpt>
      <trkpt lat="46.9998" lon="-0.98788">
        <ele>98.27</ele>
        <time>2020-05-27T16:36:12Z</time>
      </trkpt>
      <trkpt lat="46.99981" lon="-0.98793">
        <ele>98.164</ele>
        <time>2020-05-27T16:36:13Z</time>
      </trkpt>
      <trkpt lat="46.99984" lon="-0.98799">
        <ele>97.214</ele>
        <time>2020-05-27T16:36:14Z</time>
      </trkpt>
      <trkpt lat="46.99986" lon="-0.98802">
        <ele>98.063</ele>
        <time>2020-05-27T16:36:15Z</time>
      </trkpt>
      <trkpt lat="46.99988" lon="-0.98807">
        <ele>97.692</ele>
        <time>2020-05-27T16:36:16Z</time>
      </trkpt>
      <trkpt lat="46.99989" lon="-0.98815">
        <ele>93.639</ele>
        <time>2020-05-27T16:36:17Z</time>
      </trkpt>
      <trkpt lat="46.99991" lon="-0.98819">
        <ele>94.286</ele>
        <time>2020-05-27T16:36:18Z</time>
      </trkpt>
      <trkpt lat="46.99994" lon="-0.98822">
        <ele>94.881</ele>
        <time>2020-05-27T16:36:19Z</time>
      </trkpt>
      <trkpt lat="46.99996" lon="-0.98826">
        <ele>93.671</ele>
        <time>2020-05-27T16:36:20Z</time>
      </trkpt>
      <trkpt lat="46.99998" lon="-0.98829">
        <ele>88.961</ele>
        <time>2020-05-27T16:36:21Z</time>
      </trkpt>
      <trkpt lat="47" lon="-0.98832">
        <ele>89.085</ele>
        <time>2020-05-27T16:36:22Z</time>
      </trkpt>
      <trkpt lat="47.00003" lon="-0.98836">
        <ele>88.14</ele>
        <time>2020-05-27T16:36:23Z</time>
      </trkpt>
      <trkpt lat="47.00007" lon="-0.98839">
        <ele>86.503</ele>
        <time>2020-05-27T16:36:24Z</time>
      </trkpt>
      <trkpt lat="47.00013" lon="-0.98845">
        <ele>83.938</ele>
        <time>2020-05-27T16:36:25Z</time>
      </trkpt>
      <trkpt lat="47.00013" lon="-0.9885">
        <ele>83.488</ele>
        <time>2020-05-27T16:36:26Z</time>
      </trkpt>
      <trkpt lat="47.00018" lon="-0.98855">
        <ele>82.521</ele>
        <time>2020-05-27T16:36:27Z</time>
      </trkpt>
      <trkpt lat="47.00018" lon="-0.98866">
        <ele>81.84</ele>
        <time>2020-05-27T16:36:28Z</time>
      </trkpt>
      <trkpt lat="47.00019" lon="-0.98872">
        <ele>81.769</ele>
        <time>2020-05-27T16:36:29Z</time>
      </trkpt>
      <trkpt lat="47.00016" lon="-0.9888">
        <ele>81.918</ele>
        <time>2020-05-27T16:36:30Z</time>
      </trkpt>
      <trkpt lat="47.0001" lon="-0.98886">
        <ele>82.587</ele>
        <time>2020-05-27T16:36:31Z</time>
      </trkpt>
      <trkpt lat="47" lon="-0.98892">
        <ele>85.111</ele>
        <time>2020-05-27T16:36:32Z</time>
      </trkpt>
      <trkpt lat="46.99992" lon="-0.98896">
        <ele>84.893</ele>
        <time>2020-05-27T16:36:33Z</time>
      </trkpt>
      <trkpt lat="46.99987" lon="-0.98904">
        <ele>85.716</ele>
        <time>2020-05-27T16:36:34Z</time>
      </trkpt>
      <trkpt lat="46.99982" lon="-0.98912">
        <ele>86.054</ele>
        <time>2020-05-27T16:36:35Z</time>
      </trkpt>
      <trkpt lat="46.99978" lon="-0.9892">
        <ele>86.033</ele>
        <time>2020-05-27T16:36:36Z</time>
      </trkpt>
      <trkpt lat="46.99976" lon="-0.9893">
        <ele>85.987</ele>
        <time>2020-05-27T16:36:37Z</time>
      </trkpt>
      <trkpt lat="46.99975" lon="-0.98941">
        <ele>84.807</ele>
        <time>2020-05-27T16:36:38Z</time>
      </trkpt>
      <trkpt lat="46.99975" lon="-0.98952">
        <ele>87.138</ele>
        <time>2020-05-27T16:36:39Z</time>
      </trkpt>
      <trkpt lat="46.99976" lon="-0.98962">
        <ele>89.318</ele>
        <time>2020-05-27T16:36:40Z</time>
      </trkpt>
      <trkpt lat="46.99976" lon="-0.98969">
        <ele>90.088</ele>
        <time>2020-05-27T16:36:41Z</time>
      </trkpt>
      <trkpt lat="46.99976" lon="-0.98977">
        <ele>91.085</ele>
        <time>2020-05-27T16:36:42Z</time>
      </trkpt>
      <trkpt lat="46.99977" lon="-0.98985">
        <ele>91.182</ele>
        <time>2020-05-27T16:36:43Z</time>
      </trkpt>
      <trkpt lat="46.99978" lon="-0.98995">
        <ele>91.321</ele>
        <time>2020-05-27T16:36:44Z</time>
      </trkpt>
      <trkpt lat="46.99977" lon="-0.99004">
        <ele>92.321</ele>
        <time>2020-05-27T16:36:45Z</time>
      </trkpt>
      <trkpt lat="46.99976" lon="-0.99014">
        <ele>93.011</ele>
        <time>2020-05-27T16:36:46Z</time>
      </trkpt>
      <trkpt lat="46.99976" lon="-0.99024">
        <ele>92.526</ele>
        <time>2020-05-27T16:36:47Z</time>
      </trkpt>
      <trkpt lat="46.99976" lon="-0.99033">
        <ele>93.796</ele>
        <time>2020-05-27T16:36:48Z</time>
      </trkpt>
      <trkpt lat="46.99975" lon="-0.99041">
        <ele>95.376</ele>
        <time>2020-05-27T16:36:49Z</time>
      </trkpt>
      <trkpt lat="46.99975" lon="-0.99052">
        <ele>96.33</ele>
        <time>2020-05-27T16:36:50Z</time>
      </trkpt>
      <trkpt lat="46.99975" lon="-0.99061">
        <ele>98.833</ele>
        <time>2020-05-27T16:36:51Z</time>
      </trkpt>
      <trkpt lat="46.99978" lon="-0.9907">
        <ele>98.296</ele>
        <time>2020-05-27T16:36:52Z</time>
      </trkpt>
      <trkpt lat="46.99979" lon="-0.99079">
        <ele>100.299</ele>
        <time>2020-05-27T16:36:53Z</time>
      </trkpt>
      <trkpt lat="46.99982" lon="-0.99088">
        <ele>99.669</ele>
        <time>2020-05-27T16:36:54Z</time>
      </trkpt>
      <trkpt lat="46.99983" lon="-0.99095">
        <ele>98.622</ele>
        <time>2020-05-27T16:36:55Z</time>
      </trkpt>
      <trkpt lat="46.99983" lon="-0.99104">
        <ele>97.355</ele>
        <time>2020-05-27T16:36:56Z</time>
      </trkpt>
      <trkpt lat="46.99984" lon="-0.99114">
        <ele>97.633</ele>
        <time>2020-05-27T16:36:57Z</time>
      </trkpt>
      <trkpt lat="46.99986" lon="-0.99122">
        <ele>97.893</ele>
        <time>2020-05-27T16:36:58Z</time>
      </trkpt>
      <trkpt lat="46.99985" lon="-0.99129">
        <ele>98.989</ele>
        <time>2020-05-27T16:36:59Z</time>
      </trkpt>
      <trkpt lat="46.99986" lon="-0.99135">
        <ele>99.716</ele>
        <time>2020-05-27T16:37:00Z</time>
      </trkpt>
      <trkpt lat="46.99989" lon="-0.99141">
        <ele>96.724</ele>
        <time>2020-05-27T16:37:01Z</time>
      </trkpt>
      <trkpt lat="46.99991" lon="-0.99146">
        <ele>97.123</ele>
        <time>2020-05-27T16:37:02Z</time>
      </trkpt>
      <trkpt lat="46.99994" lon="-0.99152">
        <ele>93.922</ele>
        <time>2020-05-27T16:37:03Z</time>
      </trkpt>
      <trkpt lat="46.99996" lon="-0.99158">
        <ele>94.718</ele>
        <time>2020-05-27T16:37:04Z</time>
      </trkpt>
      <trkpt lat="46.99999" lon="-0.99165">
        <ele>93.612</ele>
        <time>2020-05-27T16:37:05Z</time>
      </trkpt>
      <trkpt lat="47.00003" lon="-0.99172">
        <ele>93.804</ele>
        <time>2020-05-27T16:37:06Z</time>
      </trkpt>
      <trkpt lat="47.00006" lon="-0.99178">
        <ele>93.937</ele>
        <time>2020-05-27T16:37:07Z</time>
      </trkpt>
      <trkpt lat="47.00008" lon="-0.99183">
        <ele>95.205</ele>
        <time>2020-05-27T16:37:08Z</time>
      </trkpt>
      <trkpt lat="47.00012" lon="-0.9919">
        <ele>94.408</ele>
        <time>2020-05-27T16:37:09Z</time>
      </trkpt>
      <trkpt lat="47.00015" lon="-0.99194">
        <ele>93.256</ele>
        <time>2020-05-27T16:37:10Z</time>
      </trkpt>
      <trkpt lat="47.00017" lon="-0.99198">
        <ele>93.591</ele>
        <time>2020-05-27T16:37:11Z</time>
      </trkpt>
      <trkpt lat="47.00019" lon="-0.99202">
        <ele>94.256</ele>
        <time>2020-05-27T16:37:12Z</time>
      </trkpt>
      <trkpt lat="47.00022" lon="-0.99206">
        <ele>93.37</ele>
        <time>2020-05-27T16:37:13Z</time>
      </trkpt>
      <trkpt lat="47.00027" lon="-0.99211">
        <ele>91.768</ele>
        <time>2020-05-27T16:37:14Z</time>
      </trkpt>
      <trkpt lat="47.0003" lon="-0.99214">
        <ele>91.116</ele>
        <time>2020-05-27T16:37:15Z</time>
      </trkpt>
      <trkpt lat="47.00034" lon="-0.99218">
        <ele>90.379</ele>
        <time>2020-05-27T16:37:16Z</time>
      </trkpt>
      <trkpt lat="47.00036" lon="-0.99223">
        <ele>90.851</ele>
        <time>2020-05-27T16:37:17Z</time>
      </trkpt>
      <trkpt lat="47.00037" lon="-0.99232">
        <ele>91.067</ele>
        <time>2020-05-27T16:37:18Z</time>
      </trkpt>
      <trkpt lat="47.00037" lon="-0.9924">
        <ele>90.816</ele>
        <time>2020-05-27T16:37:19Z</time>
      </trkpt>
      <trkpt lat="47.00037" lon="-0.99247">
        <ele>91.089</ele>
        <time>2020-05-27T16:37:20Z</time>
      </trkpt>
      <trkpt lat="47.0004" lon="-0.99252">
        <ele>90.746</ele>
        <time>2020-05-27T16:37:21Z</time>
      </trkpt>
      <trkpt lat="47.00042" lon="-0.99257">
        <ele>91.093</ele>
        <time>2020-05-27T16:37:22Z</time>
      </trkpt>
      <trkpt lat="47.00044" lon="-0.99261">
        <ele>98.847</ele>
        <time>2020-05-27T16:37:23Z</time>
      </trkpt>
      <trkpt lat="47.00047" lon="-0.99265">
        <ele>98.005</ele>
        <time>2020-05-27T16:37:24Z</time>
      </trkpt>
      <trkpt lat="47.00049" lon="-0.99266">
        <ele>97.599</ele>
        <time>2020-05-27T16:37:25Z</time>
      </trkpt>
      <trkpt lat="47.00052" lon="-0.99271">
        <ele>97.148</ele>
        <time>2020-05-27T16:37:26Z</time>
      </trkpt>
      <trkpt lat="47.00054" lon="-0.99275">
        <ele>96.606</ele>
        <time>2020-05-27T16:37:27Z</time>
      </trkpt>
      <trkpt lat="47.00056" lon="-0.99275">
        <ele>95.066</ele>
        <time>2020-05-27T16:37:28Z</time>
      </trkpt>
      <trkpt lat="47.00056" lon="-0.99279">
        <ele>94.23</ele>
        <time>2020-05-27T16:37:29Z</time>
      </trkpt>
      <trkpt lat="47.00056" lon="-0.99284">
        <ele>93.65</ele>
        <time>2020-05-27T16:37:30Z</time>
      </trkpt>
      <trkpt lat="47.00057" lon="-0.99287">
        <ele>93.523</ele>
        <time>2020-05-27T16:37:31Z</time>
      </trkpt>
      <trkpt lat="47.00057" lon="-0.9929">
        <ele>92.829</ele>
        <time>2020-05-27T16:37:32Z</time>
      </trkpt>
      <trkpt lat="47.00058" lon="-0.99292">
        <ele>91.606</ele>
        <time>2020-05-27T16:37:33Z</time>
      </trkpt>
      <trkpt lat="47.00058" lon="-0.99295">
        <ele>91.566</ele>
        <time>2020-05-27T16:37:34Z</time>
      </trkpt>
      <trkpt lat="47.00058" lon="-0.99297">
        <ele>86.105</ele>
        <time>2020-05-27T16:37:35Z</time>
      </trkpt>
      <trkpt lat="47.00059" lon="-0.993">
        <ele>83.757</ele>
        <time>2020-05-27T16:37:36Z</time>
      </trkpt>
      <trkpt lat="47.00061" lon="-0.99303">
        <ele>80.57</ele>
        <time>2020-05-27T16:37:37Z</time>
      </trkpt>
      <trkpt lat="47.00062" lon="-0.99306">
        <ele>80.156</ele>
        <time>2020-05-27T16:37:38Z</time>
      </trkpt>
      <trkpt lat="47.00063" lon="-0.99309">
        <ele>80.813</ele>
        <time>2020-05-27T16:37:39Z</time>
      </trkpt>
      <trkpt lat="47.00065" lon="-0.99313">
        <ele>81.174</ele>
        <time>2020-05-27T16:37:40Z</time>
      </trkpt>
      <trkpt lat="47.00068" lon="-0.99315">
        <ele>81.139</ele>
        <time>2020-05-27T16:37:41Z</time>
      </trkpt>
      <trkpt lat="47.00071" lon="-0.99316">
        <ele>80.701</ele>
        <time>2020-05-27T16:37:42Z</time>
      </trkpt>
      <trkpt lat="47.00073" lon="-0.99317">
        <ele>81.314</ele>
        <time>2020-05-27T16:37:43Z</time>
      </trkpt>
      <trkpt lat="47.00075" lon="-0.9932">
        <ele>80.633</ele>
        <time>2020-05-27T16:37:44Z</time>
      </trkpt>
      <trkpt lat="47.00076" lon="-0.99322">
        <ele>79.881</ele>
        <time>2020-05-27T16:37:45Z</time>
      </trkpt>
      <trkpt lat="47.00077" lon="-0.99325">
        <ele>78.603</ele>
        <time>2020-05-27T16:37:46Z</time>
      </trkpt>
      <trkpt lat="47.00079" lon="-0.99327">
        <ele>79.232</ele>
        <time>2020-05-27T16:37:47Z</time>
      </trkpt>
      <trkpt lat="47.0008" lon="-0.99329">
        <ele>78.288</ele>
        <time>2020-05-27T16:37:48Z</time>
      </trkpt>
      <trkpt lat="47.00081" lon="-0.99332">
        <ele>79.317</ele>
        <time>2020-05-27T16:37:49Z</time>
      </trkpt>
      <trkpt lat="47.00081" lon="-0.99335">
        <ele>80.13</ele>
        <time>2020-05-27T16:37:50Z</time>
      </trkpt>
      <trkpt lat="47.00082" lon="-0.99338">
        <ele>81.208</ele>
        <time>2020-05-27T16:37:51Z</time>
      </trkpt>
      <trkpt lat="47.00083" lon="-0.99342">
        <ele>80.023</ele>
        <time>2020-05-27T16:37:52Z</time>
      </trkpt>
      <trkpt lat="47.00085" lon="-0.99345">
        <ele>79.164</ele>
        <time>2020-05-27T16:37:53Z</time>
      </trkpt>
      <trkpt lat="47.00086" lon="-0.99348">
        <ele>78.815</ele>
        <time>2020-05-27T16:37:54Z</time>
      </trkpt>
      <trkpt lat="47.00087" lon="-0.9935">
        <ele>75.214</ele>
        <time>2020-05-27T16:37:55Z</time>
      </trkpt>
      <trkpt lat="47.00089" lon="-0.99351">
        <ele>74.199</ele>
        <time>2020-05-27T16:37:56Z</time>
      </trkpt>
      <trkpt lat="47.0009" lon="-0.99353">
        <ele>74.817</ele>
        <time>2020-05-27T16:37:57Z</time>
      </trkpt>
      <trkpt lat="47.0009" lon="-0.99355">
        <ele>74.318</ele>
        <time>2020-05-27T16:37:58Z</time>
      </trkpt>
      <trkpt lat="47.00092" lon="-0.99356">
        <ele>74.52</ele>
        <time>2020-05-27T16:37:59Z</time>
      </trkpt>
      <trkpt lat="47.00092" lon="-0.99357">
        <ele>73.747</ele>
        <time>2020-05-27T16:38:00Z</time>
      </trkpt>
      <trkpt lat="47.00092" lon="-0.99359">
        <ele>74.247</ele>
        <time>2020-05-27T16:38:01Z</time>
      </trkpt>
      <trkpt lat="47.00093" lon="-0.9936">
        <ele>74.8</ele>
        <time>2020-05-27T16:38:02Z</time>
      </trkpt>
      <trkpt lat="47.00092" lon="-0.99362">
        <ele>72.48</ele>
        <time>2020-05-27T16:38:03Z</time>
      </trkpt>
      <trkpt lat="47.00092" lon="-0.99365">
        <ele>73.691</ele>
        <time>2020-05-27T16:38:04Z</time>
      </trkpt>
      <trkpt lat="47.00092" lon="-0.99367">
        <ele>74.375</ele>
        <time>2020-05-27T16:38:05Z</time>
      </trkpt>
      <trkpt lat="47.00092" lon="-0.9937">
        <ele>74.173</ele>
        <time>2020-05-27T16:38:06Z</time>
      </trkpt>
      <trkpt lat="47.00092" lon="-0.99375">
        <ele>73.061</ele>
        <time>2020-05-27T16:38:07Z</time>
      </trkpt>
      <trkpt lat="47.00092" lon="-0.99381">
        <ele>72.977</ele>
        <time>2020-05-27T16:38:08Z</time>
      </trkpt>
      <trkpt lat="47.00092" lon="-0.99387">
        <ele>74.146</ele>
        <time>2020-05-27T16:38:09Z</time>
      </trkpt>
      <trkpt lat="47.00092" lon="-0.99392">
        <ele>76.567</ele>
        <time>2020-05-27T16:38:10Z</time>
      </trkpt>
      <trkpt lat="47.00092" lon="-0.99397">
        <ele>76.788</ele>
        <time>2020-05-27T16:38:11Z</time>
      </trkpt>
      <trkpt lat="47.00091" lon="-0.99401">
        <ele>79.359</ele>
        <time>2020-05-27T16:38:12Z</time>
      </trkpt>
      <trkpt lat="47.00091" lon="-0.99406">
        <ele>78.923</ele>
        <time>2020-05-27T16:38:13Z</time>
      </trkpt>
      <trkpt lat="47.0009" lon="-0.99411">
        <ele>79.358</ele>
        <time>2020-05-27T16:38:14Z</time>
      </trkpt>
      <trkpt lat="47.00089" lon="-0.99416">
        <ele>82.685</ele>
        <time>2020-05-27T16:38:15Z</time>
      </trkpt>
      <trkpt lat="47.00088" lon="-0.99422">
        <ele>86.007</ele>
        <time>2020-05-27T16:38:16Z</time>
      </trkpt>
      <trkpt lat="47.00086" lon="-0.99427">
        <ele>87.958</ele>
        <time>2020-05-27T16:38:17Z</time>
      </trkpt>
      <trkpt lat="47.00084" lon="-0.99432">
        <ele>89.078</ele>
        <time>2020-05-27T16:38:18Z</time>
      </trkpt>
      <trkpt lat="47.00082" lon="-0.99437">
        <ele>89.353</ele>
        <time>2020-05-27T16:38:19Z</time>
      </trkpt>
      <trkpt lat="47.00079" lon="-0.99443">
        <ele>91.585</ele>
        <time>2020-05-27T16:38:20Z</time>
      </trkpt>
      <trkpt lat="47.00076" lon="-0.99449">
        <ele>93.595</ele>
        <time>2020-05-27T16:38:21Z</time>
      </trkpt>
      <trkpt lat="47.00074" lon="-0.99454">
        <ele>94.744</ele>
        <time>2020-05-27T16:38:22Z</time>
      </trkpt>
      <trkpt lat="47.00073" lon="-0.99459">
        <ele>95.182</ele>
        <time>2020-05-27T16:38:23Z</time>
      </trkpt>
      <trkpt lat="47.00072" lon="-0.99463">
        <ele>95.294</ele>
        <time>2020-05-27T16:38:24Z</time>
      </trkpt>
      <trkpt lat="47.00072" lon="-0.99466">
        <ele>95.617</ele>
        <time>2020-05-27T16:38:25Z</time>
      </trkpt>
      <trkpt lat="47.00072" lon="-0.99469">
        <ele>96.975</ele>
        <time>2020-05-27T16:38:26Z</time>
      </trkpt>
      <trkpt lat="47.00072" lon="-0.99471">
        <ele>98.158</ele>
        <time>2020-05-27T16:38:27Z</time>
      </trkpt>
      <trkpt lat="47.00072" lon="-0.99474">
        <ele>98.114</ele>
        <time>2020-05-27T16:38:28Z</time>
      </trkpt>
      <trkpt lat="47.00072" lon="-0.99478">
        <ele>98.11</ele>
        <time>2020-05-27T16:38:29Z</time>
      </trkpt>
      <trkpt lat="47.00072" lon="-0.99482">
        <ele>99.078</ele>
        <time>2020-05-27T16:38:30Z</time>
      </trkpt>
      <trkpt lat="47.00072" lon="-0.99485">
        <ele>99.293</ele>
        <time>2020-05-27T16:38:31Z</time>
      </trkpt>
      <trkpt lat="47.00073" lon="-0.99488">
        <ele>100.536</ele>
        <time>2020-05-27T16:38:32Z</time>
      </trkpt>
      <trkpt lat="47.00074" lon="-0.99492">
        <ele>100.201</ele>
        <time>2020-05-27T16:38:33Z</time>
      </trkpt>
      <trkpt lat="47.00075" lon="-0.99495">
        <ele>101.534</ele>
        <time>2020-05-27T16:38:34Z</time>
      </trkpt>
      <trkpt lat="47.00075" lon="-0.99499">
        <ele>100.537</ele>
        <time>2020-05-27T16:38:35Z</time>
      </trkpt>
      <trkpt lat="47.00077" lon="-0.99503">
        <ele>100.425</ele>
        <time>2020-05-27T16:38:36Z</time>
      </trkpt>
      <trkpt lat="47.00078" lon="-0.99508">
        <ele>101.393</ele>
        <time>2020-05-27T16:38:37Z</time>
      </trkpt>
      <trkpt lat="47.0008" lon="-0.99513">
        <ele>100.694</ele>
        <time>2020-05-27T16:38:38Z</time>
      </trkpt>
      <trkpt lat="47.00081" lon="-0.99517">
        <ele>98.977</ele>
        <time>2020-05-27T16:38:39Z</time>
      </trkpt>
      <trkpt lat="47.00082" lon="-0.99522">
        <ele>99.131</ele>
        <time>2020-05-27T16:38:40Z</time>
      </trkpt>
      <trkpt lat="47.00082" lon="-0.99526">
        <ele>99.477</ele>
        <time>2020-05-27T16:38:41Z</time>
      </trkpt>
      <trkpt lat="47.00082" lon="-0.9953">
        <ele>99.501</ele>
        <time>2020-05-27T16:38:42Z</time>
      </trkpt>
      <trkpt lat="47.00083" lon="-0.99534">
        <ele>99.225</ele>
        <time>2020-05-27T16:38:43Z</time>
      </trkpt>
      <trkpt lat="47.00083" lon="-0.99538">
        <ele>98.922</ele>
        <time>2020-05-27T16:38:44Z</time>
      </trkpt>
      <trkpt lat="47.00084" lon="-0.99541">
        <ele>100.104</ele>
        <time>2020-05-27T16:38:45Z</time>
      </trkpt>
      <trkpt lat="47.00085" lon="-0.99545">
        <ele>99.331</ele>
        <time>2020-05-27T16:38:46Z</time>
      </trkpt>
      <trkpt lat="47.00085" lon="-0.99549">
        <ele>99.144</ele>
        <time>2020-05-27T16:38:47Z</time>
      </trkpt>
      <trkpt lat="47.00086" lon="-0.99553">
        <ele>98.646</ele>
        <time>2020-05-27T16:38:48Z</time>
      </trkpt>
      <trkpt lat="47.00086" lon="-0.99557">
        <ele>99.506</ele>
        <time>2020-05-27T16:38:49Z</time>
      </trkpt>
      <trkpt lat="47.00087" lon="-0.9956">
        <ele>98.919</ele>
        <time>2020-05-27T16:38:50Z</time>
      </trkpt>
      <trkpt lat="47.00087" lon="-0.99563">
        <ele>98.757</ele>
        <time>2020-05-27T16:38:51Z</time>
      </trkpt>
      <trkpt lat="47.00088" lon="-0.99566">
        <ele>98.702</ele>
        <time>2020-05-27T16:38:52Z</time>
      </trkpt>
      <trkpt lat="47.0009" lon="-0.99568">
        <ele>98.588</ele>
        <time>2020-05-27T16:38:53Z</time>
      </trkpt>
      <trkpt lat="47.00091" lon="-0.99569">
        <ele>99.39</ele>
        <time>2020-05-27T16:38:54Z</time>
      </trkpt>
      <trkpt lat="47.00092" lon="-0.9957">
        <ele>100.209</ele>
        <time>2020-05-27T16:38:55Z</time>
      </trkpt>
      <trkpt lat="47.00092" lon="-0.99572">
        <ele>100.262</ele>
        <time>2020-05-27T16:38:56Z</time>
      </trkpt>
      <trkpt lat="47.00092" lon="-0.99573">
        <ele>101.024</ele>
        <time>2020-05-27T16:38:57Z</time>
      </trkpt>
      <trkpt lat="47.00091" lon="-0.99573">
        <ele>101.102</ele>
        <time>2020-05-27T16:38:58Z</time>
      </trkpt>
      <trkpt lat="47.00091" lon="-0.99572">
        <ele>101.682</ele>
        <time>2020-05-27T16:38:59Z</time>
      </trkpt>
      <trkpt lat="47.00091" lon="-0.99572">
        <ele>101.8</ele>
        <time>2020-05-27T16:39:00Z</time>
      </trkpt>
      <trkpt lat="47.00091" lon="-0.99573">
        <ele>101.874</ele>
        <time>2020-05-27T16:39:01Z</time>
      </trkpt>
      <trkpt lat="47.00091" lon="-0.99573">
        <ele>102.803</ele>
        <time>2020-05-27T16:39:02Z</time>
      </trkpt>
      <trkpt lat="47.0009" lon="-0.99573">
        <ele>103.326</ele>
        <time>2020-05-27T16:39:03Z</time>
      </trkpt>
      <trkpt lat="47.0009" lon="-0.99573">
        <ele>103.291</ele>
        <time>2020-05-27T16:39:04Z</time>
      </trkpt>
      <trkpt lat="47.00091" lon="-0.99574">
        <ele>103.233</ele>
        <time>2020-05-27T16:39:05Z</time>
      </trkpt>
      <trkpt lat="47.00092" lon="-0.99575">
        <ele>102.855</ele>
        <time>2020-05-27T16:39:06Z</time>
      </trkpt>
      <trkpt lat="47.00093" lon="-0.99579">
        <ele>104.16</ele>
        <time>2020-05-27T16:39:08Z</time>
      </trkpt>
      <trkpt lat="47.00094" lon="-0.99581">
        <ele>102.153</ele>
        <time>2020-05-27T16:39:09Z</time>
      </trkpt>
      <trkpt lat="47.00095" lon="-0.99583">
        <ele>101.381</ele>
        <time>2020-05-27T16:39:10Z</time>
      </trkpt>
      <trkpt lat="47.00097" lon="-0.99585">
        <ele>102.833</ele>
        <time>2020-05-27T16:39:11Z</time>
      </trkpt>
      <trkpt lat="47.00098" lon="-0.99586">
        <ele>103.469</ele>
        <time>2020-05-27T16:39:12Z</time>
      </trkpt>
      <trkpt lat="47.00099" lon="-0.99588">
        <ele>103.476</ele>
        <time>2020-05-27T16:39:13Z</time>
      </trkpt>
      <trkpt lat="47.001" lon="-0.99591">
        <ele>104.266</ele>
        <time>2020-05-27T16:39:14Z</time>
      </trkpt>
      <trkpt lat="47.00101" lon="-0.99595">
        <ele>103.546</ele>
        <time>2020-05-27T16:39:15Z</time>
      </trkpt>
      <trkpt lat="47.00101" lon="-0.99598">
        <ele>103.891</ele>
        <time>2020-05-27T16:39:16Z</time>
      </trkpt>
      <trkpt lat="47.00101" lon="-0.99601">
        <ele>103.618</ele>
        <time>2020-05-27T16:39:17Z</time>
      </trkpt>
      <trkpt lat="47.001" lon="-0.99605">
        <ele>103.819</ele>
        <time>2020-05-27T16:39:18Z</time>
      </trkpt>
      <trkpt lat="47.001" lon="-0.99608">
        <ele>105.088</ele>
        <time>2020-05-27T16:39:19Z</time>
      </trkpt>
      <trkpt lat="47.001" lon="-0.9961">
        <ele>103.559</ele>
        <time>2020-05-27T16:39:20Z</time>
      </trkpt>
      <trkpt lat="47.00099" lon="-0.99612">
        <ele>105.409</ele>
        <time>2020-05-27T16:39:21Z</time>
      </trkpt>
      <trkpt lat="47.00099" lon="-0.99614">
        <ele>104.612</ele>
        <time>2020-05-27T16:39:22Z</time>
      </trkpt>
      <trkpt lat="47.00098" lon="-0.99616">
        <ele>104.12</ele>
        <time>2020-05-27T16:39:23Z</time>
      </trkpt>
      <trkpt lat="47.00096" lon="-0.99618">
        <ele>103.975</ele>
        <time>2020-05-27T16:39:24Z</time>
      </trkpt>
      <trkpt lat="47.00094" lon="-0.9962">
        <ele>104.226</ele>
        <time>2020-05-27T16:39:25Z</time>
      </trkpt>
      <trkpt lat="47.00093" lon="-0.99623">
        <ele>103.708</ele>
        <time>2020-05-27T16:39:26Z</time>
      </trkpt>
      <trkpt lat="47.00092" lon="-0.99625">
        <ele>103.644</ele>
        <time>2020-05-27T16:39:27Z</time>
      </trkpt>
      <trkpt lat="47.00092" lon="-0.99628">
        <ele>104.1</ele>
        <time>2020-05-27T16:39:28Z</time>
      </trkpt>
      <trkpt lat="47.00093" lon="-0.99631">
        <ele>104.571</ele>
        <time>2020-05-27T16:39:29Z</time>
      </trkpt>
      <trkpt lat="47.00093" lon="-0.99634">
        <ele>104.815</ele>
        <time>2020-05-27T16:39:30Z</time>
      </trkpt>
      <trkpt lat="47.00093" lon="-0.99637">
        <ele>105.628</ele>
        <time>2020-05-27T16:39:31Z</time>
      </trkpt>
      <trkpt lat="47.00093" lon="-0.99641">
        <ele>106.92</ele>
        <time>2020-05-27T16:39:32Z</time>
      </trkpt>
      <trkpt lat="47.00094" lon="-0.99645">
        <ele>107.531</ele>
        <time>2020-05-27T16:39:33Z</time>
      </trkpt>
      <trkpt lat="47.00094" lon="-0.99649">
        <ele>107.437</ele>
        <time>2020-05-27T16:39:34Z</time>
      </trkpt>
      <trkpt lat="47.00095" lon="-0.99653">
        <ele>107.287</ele>
        <time>2020-05-27T16:39:35Z</time>
      </trkpt>
      <trkpt lat="47.00095" lon="-0.99655">
        <ele>107.723</ele>
        <time>2020-05-27T16:39:36Z</time>
      </trkpt>
      <trkpt lat="47.00096" lon="-0.99659">
        <ele>105.27</ele>
        <time>2020-05-27T16:39:37Z</time>
      </trkpt>
      <trkpt lat="47.00097" lon="-0.99664">
        <ele>106.553</ele>
        <time>2020-05-27T16:39:38Z</time>
      </trkpt>
      <trkpt lat="47.00098" lon="-0.99669">
        <ele>106.156</ele>
        <time>2020-05-27T16:39:39Z</time>
      </trkpt>
      <trkpt lat="47.00098" lon="-0.99674">
        <ele>106.255</ele>
        <time>2020-05-27T16:39:40Z</time>
      </trkpt>
      <trkpt lat="47.00099" lon="-0.99679">
        <ele>105.771</ele>
        <time>2020-05-27T16:39:41Z</time>
      </trkpt>
      <trkpt lat="47.00098" lon="-0.99684">
        <ele>106.537</ele>
        <time>2020-05-27T16:39:42Z</time>
      </trkpt>
      <trkpt lat="47.00098" lon="-0.99688">
        <ele>106.178</ele>
        <time>2020-05-27T16:39:43Z</time>
      </trkpt>
      <trkpt lat="47.00099" lon="-0.99693">
        <ele>102.225</ele>
        <time>2020-05-27T16:39:44Z</time>
      </trkpt>
      <trkpt lat="47.001" lon="-0.99699">
        <ele>100.79</ele>
        <time>2020-05-27T16:39:45Z</time>
      </trkpt>
      <trkpt lat="47.00101" lon="-0.99704">
        <ele>100.635</ele>
        <time>2020-05-27T16:39:46Z</time>
      </trkpt>
      <trkpt lat="47.00101" lon="-0.99709">
        <ele>100.38</ele>
        <time>2020-05-27T16:39:47Z</time>
      </trkpt>
      <trkpt lat="47.00102" lon="-0.99714">
        <ele>99.341</ele>
        <time>2020-05-27T16:39:48Z</time>
      </trkpt>
      <trkpt lat="47.00103" lon="-0.99719">
        <ele>100.207</ele>
        <time>2020-05-27T16:39:49Z</time>
      </trkpt>
      <trkpt lat="47.00104" lon="-0.99725">
        <ele>99.743</ele>
        <time>2020-05-27T16:39:50Z</time>
      </trkpt>
      <trkpt lat="47.00104" lon="-0.9973">
        <ele>100.313</ele>
        <time>2020-05-27T16:39:51Z</time>
      </trkpt>
      <trkpt lat="47.00105" lon="-0.99734">
        <ele>99.496</ele>
        <time>2020-05-27T16:39:52Z</time>
      </trkpt>
      <trkpt lat="47.00107" lon="-0.9974">
        <ele>97.475</ele>
        <time>2020-05-27T16:39:53Z</time>
      </trkpt>
      <trkpt lat="47.00109" lon="-0.99746">
        <ele>97.825</ele>
        <time>2020-05-27T16:39:54Z</time>
      </trkpt>
      <trkpt lat="47.00111" lon="-0.99751">
        <ele>96.083</ele>
        <time>2020-05-27T16:39:55Z</time>
      </trkpt>
      <trkpt lat="47.00113" lon="-0.99757">
        <ele>94.987</ele>
        <time>2020-05-27T16:39:56Z</time>
      </trkpt>
      <trkpt lat="47.00115" lon="-0.99762">
        <ele>95.997</ele>
        <time>2020-05-27T16:39:57Z</time>
      </trkpt>
      <trkpt lat="47.00116" lon="-0.99768">
        <ele>97.23</ele>
        <time>2020-05-27T16:39:58Z</time>
      </trkpt>
      <trkpt lat="47.00118" lon="-0.99773">
        <ele>96.521</ele>
        <time>2020-05-27T16:39:59Z</time>
      </trkpt>
      <trkpt lat="47.00119" lon="-0.99776">
        <ele>95.338</ele>
        <time>2020-05-27T16:40:00Z</time>
      </trkpt>
      <trkpt lat="47.00121" lon="-0.9978">
        <ele>93.414</ele>
        <time>2020-05-27T16:40:01Z</time>
      </trkpt>
      <trkpt lat="47.00123" lon="-0.99784">
        <ele>93.423</ele>
        <time>2020-05-27T16:40:02Z</time>
      </trkpt>
      <trkpt lat="47.00125" lon="-0.99787">
        <ele>93.266</ele>
        <time>2020-05-27T16:40:03Z</time>
      </trkpt>
      <trkpt lat="47.00128" lon="-0.99791">
        <ele>92.992</ele>
        <time>2020-05-27T16:40:04Z</time>
      </trkpt>
      <trkpt lat="47.00131" lon="-0.99795">
        <ele>90.901</ele>
        <time>2020-05-27T16:40:05Z</time>
      </trkpt>
      <trkpt lat="47.00134" lon="-0.99797">
        <ele>90.411</ele>
        <time>2020-05-27T16:40:06Z</time>
      </trkpt>
      <trkpt lat="47.00136" lon="-0.99798">
        <ele>90.655</ele>
        <time>2020-05-27T16:40:07Z</time>
      </trkpt>
      <trkpt lat="47.00137" lon="-0.998">
        <ele>90.479</ele>
        <time>2020-05-27T16:40:08Z</time>
      </trkpt>
      <trkpt lat="47.00139" lon="-0.99802">
        <ele>91.706</ele>
        <time>2020-05-27T16:40:09Z</time>
      </trkpt>
      <trkpt lat="47.00142" lon="-0.99805">
        <ele>90.717</ele>
        <time>2020-05-27T16:40:10Z</time>
      </trkpt>
      <trkpt lat="47.00143" lon="-0.99807">
        <ele>92.906</ele>
        <time>2020-05-27T16:40:11Z</time>
      </trkpt>
      <trkpt lat="47.00143" lon="-0.99808">
        <ele>91.915</ele>
        <time>2020-05-27T16:40:12Z</time>
      </trkpt>
      <trkpt lat="47.00142" lon="-0.9981">
        <ele>91.552</ele>
        <time>2020-05-27T16:40:13Z</time>
      </trkpt>
      <trkpt lat="47.00143" lon="-0.99812">
        <ele>92.626</ele>
        <time>2020-05-27T16:40:14Z</time>
      </trkpt>
      <trkpt lat="47.00144" lon="-0.99814">
        <ele>94.279</ele>
        <time>2020-05-27T16:40:15Z</time>
      </trkpt>
      <trkpt lat="47.00146" lon="-0.99817">
        <ele>96.17</ele>
        <time>2020-05-27T16:40:16Z</time>
      </trkpt>
      <trkpt lat="47.00148" lon="-0.9982">
        <ele>96.258</ele>
        <time>2020-05-27T16:40:17Z</time>
      </trkpt>
      <trkpt lat="47.0015" lon="-0.99823">
        <ele>97.319</ele>
        <time>2020-05-27T16:40:18Z</time>
      </trkpt>
      <trkpt lat="47.00151" lon="-0.99826">
        <ele>97.974</ele>
        <time>2020-05-27T16:40:19Z</time>
      </trkpt>
      <trkpt lat="47.00153" lon="-0.99828">
        <ele>98.876</ele>
        <time>2020-05-27T16:40:20Z</time>
      </trkpt>
      <trkpt lat="47.00154" lon="-0.99832">
        <ele>98.929</ele>
        <time>2020-05-27T16:40:21Z</time>
      </trkpt>
      <trkpt lat="47.00156" lon="-0.99836">
        <ele>99.332</ele>
        <time>2020-05-27T16:40:22Z</time>
      </trkpt>
      <trkpt lat="47.00157" lon="-0.9984">
        <ele>100.29</ele>
        <time>2020-05-27T16:40:23Z</time>
      </trkpt>
      <trkpt lat="47.00157" lon="-0.99845">
        <ele>100.3</ele>
        <time>2020-05-27T16:40:24Z</time>
      </trkpt>
      <trkpt lat="47.00157" lon="-0.9985">
        <ele>100.037</ele>
        <time>2020-05-27T16:40:25Z</time>
      </trkpt>
      <trkpt lat="47.00156" lon="-0.99854">
        <ele>100.237</ele>
        <time>2020-05-27T16:40:26Z</time>
      </trkpt>
      <trkpt lat="47.00155" lon="-0.99858">
        <ele>102.997</ele>
        <time>2020-05-27T16:40:27Z</time>
      </trkpt>
      <trkpt lat="47.00154" lon="-0.99861">
        <ele>103.795</ele>
        <time>2020-05-27T16:40:28Z</time>
      </trkpt>
      <trkpt lat="47.00153" lon="-0.99863">
        <ele>101.945</ele>
        <time>2020-05-27T16:40:29Z</time>
      </trkpt>
      <trkpt lat="47.00152" lon="-0.99865">
        <ele>103.655</ele>
        <time>2020-05-27T16:40:30Z</time>
      </trkpt>
      <trkpt lat="47.00151" lon="-0.99869">
        <ele>102.616</ele>
        <time>2020-05-27T16:40:31Z</time>
      </trkpt>
      <trkpt lat="47.00148" lon="-0.99872">
        <ele>104.234</ele>
        <time>2020-05-27T16:40:32Z</time>
      </trkpt>
      <trkpt lat="47.00145" lon="-0.99874">
        <ele>104.691</ele>
        <time>2020-05-27T16:40:33Z</time>
      </trkpt>
      <trkpt lat="47.00143" lon="-0.99877">
        <ele>103.506</ele>
        <time>2020-05-27T16:40:34Z</time>
      </trkpt>
      <trkpt lat="47.0014" lon="-0.9988">
        <ele>103.926</ele>
        <time>2020-05-27T16:40:35Z</time>
      </trkpt>
      <trkpt lat="47.00138" lon="-0.99884">
        <ele>103.64</ele>
        <time>2020-05-27T16:40:36Z</time>
      </trkpt>
      <trkpt lat="47.00137" lon="-0.99887">
        <ele>101.619</ele>
        <time>2020-05-27T16:40:37Z</time>
      </trkpt>
      <trkpt lat="47.00137" lon="-0.99892">
        <ele>101.364</ele>
        <time>2020-05-27T16:40:38Z</time>
      </trkpt>
      <trkpt lat="47.00137" lon="-0.99896">
        <ele>100.932</ele>
        <time>2020-05-27T16:40:39Z</time>
      </trkpt>
      <trkpt lat="47.00138" lon="-0.99902">
        <ele>100.908</ele>
        <time>2020-05-27T16:40:40Z</time>
      </trkpt>
      <trkpt lat="47.00138" lon="-0.99907">
        <ele>98.832</ele>
        <time>2020-05-27T16:40:41Z</time>
      </trkpt>
      <trkpt lat="47.00139" lon="-0.99912">
        <ele>98.577</ele>
        <time>2020-05-27T16:40:42Z</time>
      </trkpt>
      <trkpt lat="47.00138" lon="-0.99918">
        <ele>97.728</ele>
        <time>2020-05-27T16:40:43Z</time>
      </trkpt>
      <trkpt lat="47.00138" lon="-0.99922">
        <ele>97.223</ele>
        <time>2020-05-27T16:40:44Z</time>
      </trkpt>
      <trkpt lat="47.00138" lon="-0.99927">
        <ele>97.161</ele>
        <time>2020-05-27T16:40:45Z</time>
      </trkpt>
      <trkpt lat="47.00139" lon="-0.9993">
        <ele>96.03</ele>
        <time>2020-05-27T16:40:46Z</time>
      </trkpt>
      <trkpt lat="47.00139" lon="-0.99933">
        <ele>96.221</ele>
        <time>2020-05-27T16:40:47Z</time>
      </trkpt>
      <trkpt lat="47.00139" lon="-0.99936">
        <ele>95.366</ele>
        <time>2020-05-27T16:40:48Z</time>
      </trkpt>
      <trkpt lat="47.0014" lon="-0.99939">
        <ele>95.286</ele>
        <time>2020-05-27T16:40:49Z</time>
      </trkpt>
      <trkpt lat="47.0014" lon="-0.99942">
        <ele>92.22</ele>
        <time>2020-05-27T16:40:50Z</time>
      </trkpt>
      <trkpt lat="47.0014" lon="-0.99945">
        <ele>92.395</ele>
        <time>2020-05-27T16:40:51Z</time>
      </trkpt>
      <trkpt lat="47.0014" lon="-0.99949">
        <ele>92.259</ele>
        <time>2020-05-27T16:40:52Z</time>
      </trkpt>
      <trkpt lat="47.0014" lon="-0.99955">
        <ele>92.076</ele>
        <time>2020-05-27T16:40:53Z</time>
      </trkpt>
      <trkpt lat="47.00139" lon="-0.99963">
        <ele>92.414</ele>
        <time>2020-05-27T16:40:54Z</time>
      </trkpt>
      <trkpt lat="47.00138" lon="-0.9997">
        <ele>90.247</ele>
        <time>2020-05-27T16:40:55Z</time>
      </trkpt>
      <trkpt lat="47.00137" lon="-0.99977">
        <ele>90.534</ele>
        <time>2020-05-27T16:40:56Z</time>
      </trkpt>
      <trkpt lat="47.00136" lon="-0.99984">
        <ele>90.27</ele>
        <time>2020-05-27T16:40:57Z</time>
      </trkpt>
      <trkpt lat="47.00134" lon="-0.99996">
        <ele>90.685</ele>
        <time>2020-05-27T16:40:58Z</time>
      </trkpt>
      <trkpt lat="47.00134" lon="-1.00002">
        <ele>90.473</ele>
        <time>2020-05-27T16:40:59Z</time>
      </trkpt>
      <trkpt lat="47.00135" lon="-1.00008">
        <ele>90.593</ele>
        <time>2020-05-27T16:41:00Z</time>
      </trkpt>
      <trkpt lat="47.00135" lon="-1.00015">
        <ele>90.503</ele>
        <time>2020-05-27T16:41:01Z</time>
      </trkpt>
      <trkpt lat="47.00134" lon="-1.00021">
        <ele>91.929</ele>
        <time>2020-05-27T16:41:02Z</time>
      </trkpt>
      <trkpt lat="47.00133" lon="-1.00027">
        <ele>92.343</ele>
        <time>2020-05-27T16:41:03Z</time>
      </trkpt>
      <trkpt lat="47.00134" lon="-1.00031">
        <ele>93.263</ele>
        <time>2020-05-27T16:41:04Z</time>
      </trkpt>
      <trkpt lat="47.00134" lon="-1.00035">
        <ele>92.249</ele>
        <time>2020-05-27T16:41:05Z</time>
      </trkpt>
      <trkpt lat="47.00136" lon="-1.00037">
        <ele>92.191</ele>
        <time>2020-05-27T16:41:06Z</time>
      </trkpt>
      <trkpt lat="47.00136" lon="-1.00038">
        <ele>92.171</ele>
        <time>2020-05-27T16:41:07Z</time>
      </trkpt>
      <trkpt lat="47.00137" lon="-1.00037">
        <ele>92.396</ele>
        <time>2020-05-27T16:41:08Z</time>
      </trkpt>
      <trkpt lat="47.00138" lon="-1.00037">
        <ele>92.367</ele>
        <time>2020-05-27T16:41:09Z</time>
      </trkpt>
      <trkpt lat="47.00137" lon="-1.00038">
        <ele>93.029</ele>
        <time>2020-05-27T16:41:10Z</time>
      </trkpt>
      <trkpt lat="47.00137" lon="-1.00041">
        <ele>94.291</ele>
        <time>2020-05-27T16:41:11Z</time>
      </trkpt>
      <trkpt lat="47.00137" lon="-1.00045">
        <ele>94.365</ele>
        <time>2020-05-27T16:41:12Z</time>
      </trkpt>
      <trkpt lat="47.00136" lon="-1.0005">
        <ele>93.209</ele>
        <time>2020-05-27T16:41:13Z</time>
      </trkpt>
      <trkpt lat="47.00135" lon="-1.00056">
        <ele>93.212</ele>
        <time>2020-05-27T16:41:14Z</time>
      </trkpt>
      <trkpt lat="47.00134" lon="-1.00063">
        <ele>93.568</ele>
        <time>2020-05-27T16:41:15Z</time>
      </trkpt>
      <trkpt lat="47.00134" lon="-1.0007">
        <ele>92.739</ele>
        <time>2020-05-27T16:41:16Z</time>
      </trkpt>
      <trkpt lat="47.00133" lon="-1.00076">
        <ele>94.88</ele>
        <time>2020-05-27T16:41:17Z</time>
      </trkpt>
      <trkpt lat="47.00133" lon="-1.00083">
        <ele>95.396</ele>
        <time>2020-05-27T16:41:18Z</time>
      </trkpt>
      <trkpt lat="47.00134" lon="-1.0009">
        <ele>97.336</ele>
        <time>2020-05-27T16:41:19Z</time>
      </trkpt>
      <trkpt lat="47.00134" lon="-1.00097">
        <ele>96.722</ele>
        <time>2020-05-27T16:41:20Z</time>
      </trkpt>
      <trkpt lat="47.00133" lon="-1.00108">
        <ele>95.348</ele>
        <time>2020-05-27T16:41:21Z</time>
      </trkpt>
      <trkpt lat="47.00134" lon="-1.00115">
        <ele>96.885</ele>
        <time>2020-05-27T16:41:22Z</time>
      </trkpt>
      <trkpt lat="47.00136" lon="-1.00122">
        <ele>96.85</ele>
        <time>2020-05-27T16:41:23Z</time>
      </trkpt>
      <trkpt lat="47.00136" lon="-1.00125">
        <ele>95.722</ele>
        <time>2020-05-27T16:41:24Z</time>
      </trkpt>
      <trkpt lat="47.00135" lon="-1.00132">
        <ele>96.962</ele>
        <time>2020-05-27T16:41:25Z</time>
      </trkpt>
      <trkpt lat="47.00137" lon="-1.00134">
        <ele>96.601</ele>
        <time>2020-05-27T16:41:26Z</time>
      </trkpt>
      <trkpt lat="47.00137" lon="-1.00141">
        <ele>97.543</ele>
        <time>2020-05-27T16:41:27Z</time>
      </trkpt>
      <trkpt lat="47.00136" lon="-1.00145">
        <ele>97.465</ele>
        <time>2020-05-27T16:41:28Z</time>
      </trkpt>
      <trkpt lat="47.00137" lon="-1.00149">
        <ele>96.253</ele>
        <time>2020-05-27T16:41:29Z</time>
      </trkpt>
      <trkpt lat="47.00139" lon="-1.00149">
        <ele>95.722</ele>
        <time>2020-05-27T16:41:30Z</time>
      </trkpt>
      <trkpt lat="47.00139" lon="-1.0015">
        <ele>95.491</ele>
        <time>2020-05-27T16:41:31Z</time>
      </trkpt>
      <trkpt lat="47.00138" lon="-1.00151">
        <ele>95.804</ele>
        <time>2020-05-27T16:41:32Z</time>
      </trkpt>
      <trkpt lat="47.00138" lon="-1.00155">
        <ele>95.805</ele>
        <time>2020-05-27T16:41:33Z</time>
      </trkpt>
      <trkpt lat="47.00138" lon="-1.00159">
        <ele>96.272</ele>
        <time>2020-05-27T16:41:34Z</time>
      </trkpt>
      <trkpt lat="47.00138" lon="-1.00163">
        <ele>97.057</ele>
        <time>2020-05-27T16:41:35Z</time>
      </trkpt>
      <trkpt lat="47.00139" lon="-1.00168">
        <ele>94.484</ele>
        <time>2020-05-27T16:41:36Z</time>
      </trkpt>
      <trkpt lat="47.0014" lon="-1.00173">
        <ele>95.635</ele>
        <time>2020-05-27T16:41:37Z</time>
      </trkpt>
      <trkpt lat="47.00142" lon="-1.00177">
        <ele>96.996</ele>
        <time>2020-05-27T16:41:38Z</time>
      </trkpt>
      <trkpt lat="47.00144" lon="-1.0018">
        <ele>96.208</ele>
        <time>2020-05-27T16:41:39Z</time>
      </trkpt>
      <trkpt lat="47.00146" lon="-1.00184">
        <ele>93.949</ele>
        <time>2020-05-27T16:41:40Z</time>
      </trkpt>
      <trkpt lat="47.00149" lon="-1.00189">
        <ele>94.73</ele>
        <time>2020-05-27T16:41:41Z</time>
      </trkpt>
      <trkpt lat="47.00152" lon="-1.00194">
        <ele>96.169</ele>
        <time>2020-05-27T16:41:42Z</time>
      </trkpt>
      <trkpt lat="47.00155" lon="-1.00197">
        <ele>95.551</ele>
        <time>2020-05-27T16:41:43Z</time>
      </trkpt>
      <trkpt lat="47.00157" lon="-1.00201">
        <ele>95.095</ele>
        <time>2020-05-27T16:41:44Z</time>
      </trkpt>
      <trkpt lat="47.00159" lon="-1.00204">
        <ele>94.688</ele>
        <time>2020-05-27T16:41:45Z</time>
      </trkpt>
      <trkpt lat="47.00161" lon="-1.00207">
        <ele>93.874</ele>
        <time>2020-05-27T16:41:46Z</time>
      </trkpt>
      <trkpt lat="47.00163" lon="-1.00209">
        <ele>93.13</ele>
        <time>2020-05-27T16:41:47Z</time>
      </trkpt>
      <trkpt lat="47.00165" lon="-1.00211">
        <ele>92.521</ele>
        <time>2020-05-27T16:41:48Z</time>
      </trkpt>
      <trkpt lat="47.00168" lon="-1.00213">
        <ele>92.78</ele>
        <time>2020-05-27T16:41:49Z</time>
      </trkpt>
      <trkpt lat="47.00169" lon="-1.00214">
        <ele>93.135</ele>
        <time>2020-05-27T16:41:50Z</time>
      </trkpt>
      <trkpt lat="47.0017" lon="-1.00214">
        <ele>94.064</ele>
        <time>2020-05-27T16:41:51Z</time>
      </trkpt>
      <trkpt lat="47.00172" lon="-1.00215">
        <ele>94.047</ele>
        <time>2020-05-27T16:41:52Z</time>
      </trkpt>
      <trkpt lat="47.00172" lon="-1.00214">
        <ele>94.825</ele>
        <time>2020-05-27T16:41:53Z</time>
      </trkpt>
      <trkpt lat="47.00171" lon="-1.00214">
        <ele>95.774</ele>
        <time>2020-05-27T16:41:54Z</time>
      </trkpt>
      <trkpt lat="47.00171" lon="-1.00214">
        <ele>96.997</ele>
        <time>2020-05-27T16:41:55Z</time>
      </trkpt>
      <trkpt lat="47.0017" lon="-1.00214">
        <ele>97.69</ele>
        <time>2020-05-27T16:41:56Z</time>
      </trkpt>
      <trkpt lat="47.0017" lon="-1.00214">
        <ele>97.396</ele>
        <time>2020-05-27T16:41:57Z</time>
      </trkpt>
      <trkpt lat="47.00168" lon="-1.00214">
        <ele>97.464</ele>
        <time>2020-05-27T16:41:58Z</time>
      </trkpt>
      <trkpt lat="47.00167" lon="-1.00214">
        <ele>98.139</ele>
        <time>2020-05-27T16:41:59Z</time>
      </trkpt>
      <trkpt lat="47.00167" lon="-1.00214">
        <ele>97.807</ele>
        <time>2020-05-27T16:42:00Z</time>
      </trkpt>
      <trkpt lat="47.00166" lon="-1.00214">
        <ele>98.132</ele>
        <time>2020-05-27T16:42:01Z</time>
      </trkpt>
      <trkpt lat="47.00165" lon="-1.00214">
        <ele>99.014</ele>
        <time>2020-05-27T16:42:02Z</time>
      </trkpt>
      <trkpt lat="47.00165" lon="-1.00215">
        <ele>97.978</ele>
        <time>2020-05-27T16:42:03Z</time>
      </trkpt>
      <trkpt lat="47.00165" lon="-1.00215">
        <ele>98.19</ele>
        <time>2020-05-27T16:42:04Z</time>
      </trkpt>
      <trkpt lat="47.00165" lon="-1.00216">
        <ele>98.058</ele>
        <time>2020-05-27T16:42:05Z</time>
      </trkpt>
      <trkpt lat="47.00165" lon="-1.00217">
        <ele>98.113</ele>
        <time>2020-05-27T16:42:06Z</time>
      </trkpt>
      <trkpt lat="47.00165" lon="-1.00218">
        <ele>99.846</ele>
        <time>2020-05-27T16:42:07Z</time>
      </trkpt>
      <trkpt lat="47.00166" lon="-1.0022">
        <ele>99.379</ele>
        <time>2020-05-27T16:42:08Z</time>
      </trkpt>
      <trkpt lat="47.00167" lon="-1.00221">
        <ele>101.127</ele>
        <time>2020-05-27T16:42:09Z</time>
      </trkpt>
      <trkpt lat="47.00167" lon="-1.00224">
        <ele>100.804</ele>
        <time>2020-05-27T16:42:10Z</time>
      </trkpt>
      <trkpt lat="47.00168" lon="-1.00227">
        <ele>100.58</ele>
        <time>2020-05-27T16:42:11Z</time>
      </trkpt>
      <trkpt lat="47.00168" lon="-1.00229">
        <ele>99.066</ele>
        <time>2020-05-27T16:42:12Z</time>
      </trkpt>
      <trkpt lat="47.0017" lon="-1.00232">
        <ele>95.805</ele>
        <time>2020-05-27T16:42:13Z</time>
      </trkpt>
      <trkpt lat="47.0017" lon="-1.00234">
        <ele>96.039</ele>
        <time>2020-05-27T16:42:14Z</time>
      </trkpt>
      <trkpt lat="47.0017" lon="-1.00234">
        <ele>96.622</ele>
        <time>2020-05-27T16:42:15Z</time>
      </trkpt>
      <trkpt lat="47.00171" lon="-1.00236">
        <ele>91.17</ele>
        <time>2020-05-27T16:42:16Z</time>
      </trkpt>
      <trkpt lat="47.00171" lon="-1.00236">
        <ele>93.395</ele>
        <time>2020-05-27T16:42:17Z</time>
      </trkpt>
      <trkpt lat="47.00172" lon="-1.00237">
        <ele>94.535</ele>
        <time>2020-05-27T16:42:18Z</time>
      </trkpt>
      <trkpt lat="47.00172" lon="-1.00238">
        <ele>96.645</ele>
        <time>2020-05-27T16:42:19Z</time>
      </trkpt>
      <trkpt lat="47.00172" lon="-1.0024">
        <ele>97.359</ele>
        <time>2020-05-27T16:42:20Z</time>
      </trkpt>
      <trkpt lat="47.00172" lon="-1.00241">
        <ele>97.651</ele>
        <time>2020-05-27T16:42:21Z</time>
      </trkpt>
      <trkpt lat="47.00172" lon="-1.00243">
        <ele>96.411</ele>
        <time>2020-05-27T16:42:22Z</time>
      </trkpt>
      <trkpt lat="47.00172" lon="-1.00244">
        <ele>97.008</ele>
        <time>2020-05-27T16:42:23Z</time>
      </trkpt>
      <trkpt lat="47.00172" lon="-1.00245">
        <ele>97.582</ele>
        <time>2020-05-27T16:42:25Z</time>
      </trkpt>
      <trkpt lat="47.00172" lon="-1.00245">
        <ele>97.582</ele>
        <time>2020-05-27T16:42:26Z</time>
      </trkpt>
      <trkpt lat="47.00172" lon="-1.00245">
        <ele>97.617</ele>
        <time>2020-05-27T16:42:27Z</time>
      </trkpt>
      <trkpt lat="47.00171" lon="-1.00245">
        <ele>98.739</ele>
        <time>2020-05-27T16:42:28Z</time>
      </trkpt>
      <trkpt lat="47.00171" lon="-1.00245">
        <ele>97.963</ele>
        <time>2020-05-27T16:42:29Z</time>
      </trkpt>
      <trkpt lat="47.00171" lon="-1.00245">
        <ele>98.091</ele>
        <time>2020-05-27T16:42:30Z</time>
      </trkpt>
      <trkpt lat="47.0017" lon="-1.00245">
        <ele>98.089</ele>
        <time>2020-05-27T16:42:31Z</time>
      </trkpt>
      <trkpt lat="47.0017" lon="-1.00245">
        <ele>98.68</ele>
        <time>2020-05-27T16:42:32Z</time>
      </trkpt>
      <trkpt lat="47.0017" lon="-1.00245">
        <ele>98.681</ele>
        <time>2020-05-27T16:42:33Z</time>
      </trkpt>
      <trkpt lat="47.0017" lon="-1.00244">
        <ele>98.818</ele>
        <time>2020-05-27T16:42:34Z</time>
      </trkpt>
      <trkpt lat="47.0017" lon="-1.00244">
        <ele>98.805</ele>
        <time>2020-05-27T16:42:35Z</time>
      </trkpt>
      <trkpt lat="47.0017" lon="-1.00244">
        <ele>98.937</ele>
        <time>2020-05-27T16:42:36Z</time>
      </trkpt>
      <trkpt lat="47.0017" lon="-1.00244">
        <ele>99.065</ele>
        <time>2020-05-27T16:42:37Z</time>
      </trkpt>
      <trkpt lat="47.0017" lon="-1.00244">
        <ele>99.078</ele>
        <time>2020-05-27T16:42:38Z</time>
      </trkpt>
      <trkpt lat="47.0017" lon="-1.00244">
        <ele>99.007</ele>
        <time>2020-05-27T16:42:39Z</time>
      </trkpt>
      <trkpt lat="47.0017" lon="-1.00244">
        <ele>99.034</ele>
        <time>2020-05-27T16:42:40Z</time>
      </trkpt>
      <trkpt lat="47.0017" lon="-1.00244">
        <ele>99.24</ele>
        <time>2020-05-27T16:42:41Z</time>
      </trkpt>
      <trkpt lat="47.0017" lon="-1.00244">
        <ele>99.238</ele>
        <time>2020-05-27T16:42:42Z</time>
      </trkpt>
      <trkpt lat="47.00169" lon="-1.00244">
        <ele>99.555</ele>
        <time>2020-05-27T16:42:45Z</time>
      </trkpt>
      <trkpt lat="47.00169" lon="-1.00244">
        <ele>99.538</ele>
        <time>2020-05-27T16:42:46Z</time>
      </trkpt>
      <trkpt lat="47.00169" lon="-1.00244">
        <ele>99.544</ele>
        <time>2020-05-27T16:42:47Z</time>
      </trkpt>
      <trkpt lat="47.00169" lon="-1.00244">
        <ele>99.564</ele>
        <time>2020-05-27T16:42:49Z</time>
      </trkpt>
      <trkpt lat="47.00169" lon="-1.00244">
        <ele>99.574</ele>
        <time>2020-05-27T16:42:51Z</time>
      </trkpt>
      <trkpt lat="47.00169" lon="-1.00244">
        <ele>99.574</ele>
        <time>2020-05-27T16:42:52Z</time>
      </trkpt>
      <trkpt lat="47.00169" lon="-1.00244">
        <ele>99.574</ele>
        <time>2020-05-27T16:42:53Z</time>
      </trkpt>
      <trkpt lat="47.00169" lon="-1.00244">
        <ele>99.568</ele>
        <time>2020-05-27T16:42:54Z</time>
      </trkpt>
      <trkpt lat="47.00169" lon="-1.00244">
        <ele>99.562</ele>
        <time>2020-05-27T16:42:55Z</time>
      </trkpt>
      <trkpt lat="47.00169" lon="-1.00244">
        <ele>99.571</ele>
        <time>2020-05-27T16:42:56Z</time>
      </trkpt>
      <trkpt lat="47.00169" lon="-1.00244">
        <ele>99.569</ele>
        <time>2020-05-27T16:42:57Z</time>
      </trkpt>
      <trkpt lat="47.0017" lon="-1.00244">
        <ele>99.622</ele>
        <time>2020-05-27T16:43:00Z</time>
      </trkpt>
      <trkpt lat="47.0017" lon="-1.00245">
        <ele>101.178</ele>
        <time>2020-05-27T16:43:01Z</time>
      </trkpt>
      <trkpt lat="47.0017" lon="-1.00245">
        <ele>103.147</ele>
        <time>2020-05-27T16:43:02Z</time>
      </trkpt>
      <trkpt lat="47.00171" lon="-1.00245">
        <ele>103.932</ele>
        <time>2020-05-27T16:43:03Z</time>
      </trkpt>
      <trkpt lat="47.00171" lon="-1.00246">
        <ele>104.299</ele>
        <time>2020-05-27T16:43:04Z</time>
      </trkpt>
      <trkpt lat="47.00171" lon="-1.00246">
        <ele>104.698</ele>
        <time>2020-05-27T16:43:05Z</time>
      </trkpt>
      <trkpt lat="47.00171" lon="-1.00246">
        <ele>105.499</ele>
        <time>2020-05-27T16:43:06Z</time>
      </trkpt>
      <trkpt lat="47.00171" lon="-1.00246">
        <ele>106.577</ele>
        <time>2020-05-27T16:43:07Z</time>
      </trkpt>
      <trkpt lat="47.0017" lon="-1.00247">
        <ele>107.184</ele>
        <time>2020-05-27T16:43:08Z</time>
      </trkpt>
      <trkpt lat="47.00171" lon="-1.00249">
        <ele>107.762</ele>
        <time>2020-05-27T16:43:09Z</time>
      </trkpt>
      <trkpt lat="47.00171" lon="-1.0025">
        <ele>107.439</ele>
        <time>2020-05-27T16:43:10Z</time>
      </trkpt>
      <trkpt lat="47.00172" lon="-1.00252">
        <ele>107.863</ele>
        <time>2020-05-27T16:43:11Z</time>
      </trkpt>
      <trkpt lat="47.00172" lon="-1.00254">
        <ele>109.621</ele>
        <time>2020-05-27T16:43:12Z</time>
      </trkpt>
      <trkpt lat="47.00172" lon="-1.00255">
        <ele>108.523</ele>
        <time>2020-05-27T16:43:13Z</time>
      </trkpt>
      <trkpt lat="47.00172" lon="-1.00256">
        <ele>107.17</ele>
        <time>2020-05-27T16:43:14Z</time>
      </trkpt>
      <trkpt lat="47.00172" lon="-1.00257">
        <ele>106.883</ele>
        <time>2020-05-27T16:43:15Z</time>
      </trkpt>
      <trkpt lat="47.00172" lon="-1.00259">
        <ele>107.686</ele>
        <time>2020-05-27T16:43:16Z</time>
      </trkpt>
      <trkpt lat="47.00172" lon="-1.00259">
        <ele>109.199</ele>
        <time>2020-05-27T16:43:17Z</time>
      </trkpt>
      <trkpt lat="47.00172" lon="-1.00259">
        <ele>108.842</ele>
        <time>2020-05-27T16:43:18Z</time>
      </trkpt>
      <trkpt lat="47.00172" lon="-1.00259">
        <ele>108.24</ele>
        <time>2020-05-27T16:43:19Z</time>
      </trkpt>
      <trkpt lat="47.00173" lon="-1.0026">
        <ele>106.019</ele>
        <time>2020-05-27T16:43:21Z</time>
      </trkpt>
      <trkpt lat="47.00173" lon="-1.0026">
        <ele>105.943</ele>
        <time>2020-05-27T16:43:22Z</time>
      </trkpt>
      <trkpt lat="47.00173" lon="-1.0026">
        <ele>106.674</ele>
        <time>2020-05-27T16:43:23Z</time>
      </trkpt>
      <trkpt lat="47.00173" lon="-1.0026">
        <ele>106.234</ele>
        <time>2020-05-27T16:43:24Z</time>
      </trkpt>
      <trkpt lat="47.00173" lon="-1.0026">
        <ele>106.546</ele>
        <time>2020-05-27T16:43:25Z</time>
      </trkpt>
      <trkpt lat="47.00173" lon="-1.0026">
        <ele>105.97</ele>
        <time>2020-05-27T16:43:26Z</time>
      </trkpt>
      <trkpt lat="47.00173" lon="-1.0026">
        <ele>105.843</ele>
        <time>2020-05-27T16:43:27Z</time>
      </trkpt>
      <trkpt lat="47.00173" lon="-1.00261">
        <ele>105.885</ele>
        <time>2020-05-27T16:43:28Z</time>
      </trkpt>
      <trkpt lat="47.00173" lon="-1.00261">
        <ele>105.892</ele>
        <time>2020-05-27T16:43:29Z</time>
      </trkpt>
      <trkpt lat="47.00174" lon="-1.00261">
        <ele>106.827</ele>
        <time>2020-05-27T16:43:32Z</time>
      </trkpt>
      <trkpt lat="47.00174" lon="-1.00261">
        <ele>106.895</ele>
        <time>2020-05-27T16:43:33Z</time>
      </trkpt>
      <trkpt lat="47.00174" lon="-1.00261">
        <ele>106.925</ele>
        <time>2020-05-27T16:43:34Z</time>
      </trkpt>
      <trkpt lat="47.00174" lon="-1.00261">
        <ele>106.925</ele>
        <time>2020-05-27T16:43:35Z</time>
      </trkpt>
      <trkpt lat="47.00174" lon="-1.00261">
        <ele>106.919</ele>
        <time>2020-05-27T16:43:36Z</time>
      </trkpt>
      <trkpt lat="47.00174" lon="-1.00263">
        <ele>106.739</ele>
        <time>2020-05-27T16:43:37Z</time>
      </trkpt>
      <trkpt lat="47.00174" lon="-1.00265">
        <ele>106.828</ele>
        <time>2020-05-27T16:43:38Z</time>
      </trkpt>
      <trkpt lat="47.00175" lon="-1.00266">
        <ele>106.47</ele>
        <time>2020-05-27T16:43:39Z</time>
      </trkpt>
      <trkpt lat="47.00176" lon="-1.00268">
        <ele>107.167</ele>
        <time>2020-05-27T16:43:40Z</time>
      </trkpt>
      <trkpt lat="47.00176" lon="-1.0027">
        <ele>108</ele>
        <time>2020-05-27T16:43:41Z</time>
      </trkpt>
      <trkpt lat="47.00177" lon="-1.00272">
        <ele>108.162</ele>
        <time>2020-05-27T16:43:42Z</time>
      </trkpt>
      <trkpt lat="47.00177" lon="-1.00274">
        <ele>107.572</ele>
        <time>2020-05-27T16:43:43Z</time>
      </trkpt>
      <trkpt lat="47.00178" lon="-1.00275">
        <ele>107.124</ele>
        <time>2020-05-27T16:43:44Z</time>
      </trkpt>
      <trkpt lat="47.00178" lon="-1.00275">
        <ele>106.456</ele>
        <time>2020-05-27T16:43:45Z</time>
      </trkpt>
      <trkpt lat="47.00178" lon="-1.00276">
        <ele>106.056</ele>
        <time>2020-05-27T16:43:46Z</time>
      </trkpt>
      <trkpt lat="47.00178" lon="-1.00275">
        <ele>106.037</ele>
        <time>2020-05-27T16:43:47Z</time>
      </trkpt>
      <trkpt lat="47.00178" lon="-1.00275">
        <ele>105.095</ele>
        <time>2020-05-27T16:43:48Z</time>
      </trkpt>
      <trkpt lat="47.00179" lon="-1.00277">
        <ele>105.182</ele>
        <time>2020-05-27T16:43:49Z</time>
      </trkpt>
      <trkpt lat="47.00179" lon="-1.0028">
        <ele>104.582</ele>
        <time>2020-05-27T16:43:50Z</time>
      </trkpt>
      <trkpt lat="47.00179" lon="-1.00284">
        <ele>103.399</ele>
        <time>2020-05-27T16:43:51Z</time>
      </trkpt>
      <trkpt lat="47.00181" lon="-1.0029">
        <ele>103.276</ele>
        <time>2020-05-27T16:43:52Z</time>
      </trkpt>
      <trkpt lat="47.00182" lon="-1.00294">
        <ele>103.144</ele>
        <time>2020-05-27T16:43:53Z</time>
      </trkpt>
      <trkpt lat="47.00184" lon="-1.00298">
        <ele>102.578</ele>
        <time>2020-05-27T16:43:54Z</time>
      </trkpt>
      <trkpt lat="47.00186" lon="-1.00302">
        <ele>102.381</ele>
        <time>2020-05-27T16:43:55Z</time>
      </trkpt>
      <trkpt lat="47.00187" lon="-1.00306">
        <ele>101.463</ele>
        <time>2020-05-27T16:43:56Z</time>
      </trkpt>
      <trkpt lat="47.00189" lon="-1.0031">
        <ele>101.075</ele>
        <time>2020-05-27T16:43:57Z</time>
      </trkpt>
      <trkpt lat="47.0019" lon="-1.00315">
        <ele>101.681</ele>
        <time>2020-05-27T16:43:58Z</time>
      </trkpt>
      <trkpt lat="47.00191" lon="-1.0032">
        <ele>102.709</ele>
        <time>2020-05-27T16:43:59Z</time>
      </trkpt>
      <trkpt lat="47.00192" lon="-1.00325">
        <ele>100.726</ele>
        <time>2020-05-27T16:44:00Z</time>
      </trkpt>
      <trkpt lat="47.00193" lon="-1.0033">
        <ele>97.348</ele>
        <time>2020-05-27T16:44:01Z</time>
      </trkpt>
      <trkpt lat="47.00195" lon="-1.00335">
        <ele>96.789</ele>
        <time>2020-05-27T16:44:02Z</time>
      </trkpt>
      <trkpt lat="47.00197" lon="-1.00339">
        <ele>94.324</ele>
        <time>2020-05-27T16:44:03Z</time>
      </trkpt>
      <trkpt lat="47.00199" lon="-1.00343">
        <ele>94.489</ele>
        <time>2020-05-27T16:44:04Z</time>
      </trkpt>
      <trkpt lat="47.00201" lon="-1.00346">
        <ele>92.844</ele>
        <time>2020-05-27T16:44:05Z</time>
      </trkpt>
      <trkpt lat="47.00203" lon="-1.00349">
        <ele>93.513</ele>
        <time>2020-05-27T16:44:06Z</time>
      </trkpt>
      <trkpt lat="47.00205" lon="-1.00353">
        <ele>94.711</ele>
        <time>2020-05-27T16:44:07Z</time>
      </trkpt>
      <trkpt lat="47.00207" lon="-1.00357">
        <ele>93.703</ele>
        <time>2020-05-27T16:44:08Z</time>
      </trkpt>
      <trkpt lat="47.00209" lon="-1.00361">
        <ele>93.583</ele>
        <time>2020-05-27T16:44:09Z</time>
      </trkpt>
      <trkpt lat="47.00211" lon="-1.00364">
        <ele>92.69</ele>
        <time>2020-05-27T16:44:10Z</time>
      </trkpt>
      <trkpt lat="47.00211" lon="-1.00366">
        <ele>92.016</ele>
        <time>2020-05-27T16:44:11Z</time>
      </trkpt>
      <trkpt lat="47.00212" lon="-1.00369">
        <ele>91.304</ele>
        <time>2020-05-27T16:44:12Z</time>
      </trkpt>
      <trkpt lat="47.00213" lon="-1.00372">
        <ele>91.961</ele>
        <time>2020-05-27T16:44:13Z</time>
      </trkpt>
      <trkpt lat="47.00215" lon="-1.00374">
        <ele>92.433</ele>
        <time>2020-05-27T16:44:14Z</time>
      </trkpt>
      <trkpt lat="47.00216" lon="-1.00378">
        <ele>91.712</ele>
        <time>2020-05-27T16:44:15Z</time>
      </trkpt>
      <trkpt lat="47.00216" lon="-1.00382">
        <ele>94.165</ele>
        <time>2020-05-27T16:44:16Z</time>
      </trkpt>
      <trkpt lat="47.00218" lon="-1.00387">
        <ele>95.008</ele>
        <time>2020-05-27T16:44:17Z</time>
      </trkpt>
      <trkpt lat="47.00219" lon="-1.00393">
        <ele>95.574</ele>
        <time>2020-05-27T16:44:18Z</time>
      </trkpt>
      <trkpt lat="47.0022" lon="-1.00398">
        <ele>95.265</ele>
        <time>2020-05-27T16:44:19Z</time>
      </trkpt>
      <trkpt lat="47.00221" lon="-1.00404">
        <ele>94.638</ele>
        <time>2020-05-27T16:44:20Z</time>
      </trkpt>
      <trkpt lat="47.00223" lon="-1.00409">
        <ele>93.449</ele>
        <time>2020-05-27T16:44:21Z</time>
      </trkpt>
      <trkpt lat="47.00224" lon="-1.00414">
        <ele>93.714</ele>
        <time>2020-05-27T16:44:22Z</time>
      </trkpt>
      <trkpt lat="47.00225" lon="-1.00419">
        <ele>93.408</ele>
        <time>2020-05-27T16:44:23Z</time>
      </trkpt>
      <trkpt lat="47.00226" lon="-1.00424">
        <ele>94.018</ele>
        <time>2020-05-27T16:44:24Z</time>
      </trkpt>
      <trkpt lat="47.00226" lon="-1.00431">
        <ele>94.559</ele>
        <time>2020-05-27T16:44:25Z</time>
      </trkpt>
      <trkpt lat="47.00226" lon="-1.00438">
        <ele>95.166</ele>
        <time>2020-05-27T16:44:26Z</time>
      </trkpt>
      <trkpt lat="47.00226" lon="-1.00445">
        <ele>96.298</ele>
        <time>2020-05-27T16:44:27Z</time>
      </trkpt>
      <trkpt lat="47.00225" lon="-1.0045">
        <ele>96.24</ele>
        <time>2020-05-27T16:44:28Z</time>
      </trkpt>
      <trkpt lat="47.00226" lon="-1.00455">
        <ele>94.934</ele>
        <time>2020-05-27T16:44:29Z</time>
      </trkpt>
      <trkpt lat="47.00227" lon="-1.00461">
        <ele>94.679</ele>
        <time>2020-05-27T16:44:30Z</time>
      </trkpt>
      <trkpt lat="47.00228" lon="-1.00466">
        <ele>95.975</ele>
        <time>2020-05-27T16:44:31Z</time>
      </trkpt>
      <trkpt lat="47.00229" lon="-1.00472">
        <ele>96.221</ele>
        <time>2020-05-27T16:44:32Z</time>
      </trkpt>
      <trkpt lat="47.0023" lon="-1.00478">
        <ele>95.008</ele>
        <time>2020-05-27T16:44:33Z</time>
      </trkpt>
      <trkpt lat="47.00231" lon="-1.00484">
        <ele>93.806</ele>
        <time>2020-05-27T16:44:34Z</time>
      </trkpt>
      <trkpt lat="47.00232" lon="-1.0049">
        <ele>93.706</ele>
        <time>2020-05-27T16:44:35Z</time>
      </trkpt>
      <trkpt lat="47.00232" lon="-1.00497">
        <ele>93.619</ele>
        <time>2020-05-27T16:44:36Z</time>
      </trkpt>
      <trkpt lat="47.00232" lon="-1.00504">
        <ele>94.35</ele>
        <time>2020-05-27T16:44:37Z</time>
      </trkpt>
      <trkpt lat="47.00233" lon="-1.00511">
        <ele>95.515</ele>
        <time>2020-05-27T16:44:38Z</time>
      </trkpt>
      <trkpt lat="47.0023" lon="-1.00522">
        <ele>95.633</ele>
        <time>2020-05-27T16:44:39Z</time>
      </trkpt>
      <trkpt lat="47.00229" lon="-1.00528">
        <ele>95.807</ele>
        <time>2020-05-27T16:44:40Z</time>
      </trkpt>
      <trkpt lat="47.00229" lon="-1.00534">
        <ele>95.312</ele>
        <time>2020-05-27T16:44:41Z</time>
      </trkpt>
      <trkpt lat="47.00226" lon="-1.0054">
        <ele>96.111</ele>
        <time>2020-05-27T16:44:42Z</time>
      </trkpt>
      <trkpt lat="47.00225" lon="-1.00547">
        <ele>96.001</ele>
        <time>2020-05-27T16:44:43Z</time>
      </trkpt>
      <trkpt lat="47.00224" lon="-1.00553">
        <ele>97.707</ele>
        <time>2020-05-27T16:44:44Z</time>
      </trkpt>
      <trkpt lat="47.00223" lon="-1.0056">
        <ele>97.709</ele>
        <time>2020-05-27T16:44:45Z</time>
      </trkpt>
      <trkpt lat="47.00222" lon="-1.00567">
        <ele>98.151</ele>
        <time>2020-05-27T16:44:46Z</time>
      </trkpt>
      <trkpt lat="47.00223" lon="-1.00574">
        <ele>99.086</ele>
        <time>2020-05-27T16:44:47Z</time>
      </trkpt>
      <trkpt lat="47.00222" lon="-1.0058">
        <ele>99.04</ele>
        <time>2020-05-27T16:44:48Z</time>
      </trkpt>
      <trkpt lat="47.00222" lon="-1.00586">
        <ele>99.172</ele>
        <time>2020-05-27T16:44:49Z</time>
      </trkpt>
      <trkpt lat="47.00222" lon="-1.00592">
        <ele>99.37</ele>
        <time>2020-05-27T16:44:50Z</time>
      </trkpt>
      <trkpt lat="47.0022" lon="-1.00599">
        <ele>100.635</ele>
        <time>2020-05-27T16:44:51Z</time>
      </trkpt>
      <trkpt lat="47.00218" lon="-1.00605">
        <ele>102.077</ele>
        <time>2020-05-27T16:44:52Z</time>
      </trkpt>
      <trkpt lat="47.0022" lon="-1.00611">
        <ele>101.703</ele>
        <time>2020-05-27T16:44:53Z</time>
      </trkpt>
      <trkpt lat="47.0022" lon="-1.00616">
        <ele>102.151</ele>
        <time>2020-05-27T16:44:54Z</time>
      </trkpt>
      <trkpt lat="47.00219" lon="-1.00622">
        <ele>102.263</ele>
        <time>2020-05-27T16:44:55Z</time>
      </trkpt>
      <trkpt lat="47.00219" lon="-1.00628">
        <ele>103.393</ele>
        <time>2020-05-27T16:44:56Z</time>
      </trkpt>
      <trkpt lat="47.00218" lon="-1.00634">
        <ele>103.131</ele>
        <time>2020-05-27T16:44:57Z</time>
      </trkpt>
      <trkpt lat="47.00218" lon="-1.0064">
        <ele>104.952</ele>
        <time>2020-05-27T16:44:58Z</time>
      </trkpt>
      <trkpt lat="47.00218" lon="-1.00645">
        <ele>103.699</ele>
        <time>2020-05-27T16:44:59Z</time>
      </trkpt>
      <trkpt lat="47.00217" lon="-1.00651">
        <ele>103.564</ele>
        <time>2020-05-27T16:45:00Z</time>
      </trkpt>
      <trkpt lat="47.00218" lon="-1.00657">
        <ele>103.805</ele>
        <time>2020-05-27T16:45:01Z</time>
      </trkpt>
      <trkpt lat="47.00218" lon="-1.00663">
        <ele>104.02</ele>
        <time>2020-05-27T16:45:02Z</time>
      </trkpt>
      <trkpt lat="47.00218" lon="-1.00669">
        <ele>104.543</ele>
        <time>2020-05-27T16:45:03Z</time>
      </trkpt>
      <trkpt lat="47.00219" lon="-1.00675">
        <ele>105.911</ele>
        <time>2020-05-27T16:45:04Z</time>
      </trkpt>
      <trkpt lat="47.00219" lon="-1.00681">
        <ele>105.796</ele>
        <time>2020-05-27T16:45:05Z</time>
      </trkpt>
      <trkpt lat="47.0022" lon="-1.00686">
        <ele>105.227</ele>
        <time>2020-05-27T16:45:06Z</time>
      </trkpt>
      <trkpt lat="47.0022" lon="-1.00692">
        <ele>104.767</ele>
        <time>2020-05-27T16:45:07Z</time>
      </trkpt>
      <trkpt lat="47.0022" lon="-1.00699">
        <ele>104.742</ele>
        <time>2020-05-27T16:45:08Z</time>
      </trkpt>
      <trkpt lat="47.0022" lon="-1.00706">
        <ele>105.05</ele>
        <time>2020-05-27T16:45:09Z</time>
      </trkpt>
      <trkpt lat="47.0022" lon="-1.00712">
        <ele>105.095</ele>
        <time>2020-05-27T16:45:10Z</time>
      </trkpt>
      <trkpt lat="47.0022" lon="-1.00718">
        <ele>105.085</ele>
        <time>2020-05-27T16:45:11Z</time>
      </trkpt>
      <trkpt lat="47.0022" lon="-1.00724">
        <ele>105.426</ele>
        <time>2020-05-27T16:45:12Z</time>
      </trkpt>
      <trkpt lat="47.0022" lon="-1.0073">
        <ele>105.547</ele>
        <time>2020-05-27T16:45:13Z</time>
      </trkpt>
      <trkpt lat="47.00221" lon="-1.00735">
        <ele>105.571</ele>
        <time>2020-05-27T16:45:14Z</time>
      </trkpt>
      <trkpt lat="47.00221" lon="-1.00741">
        <ele>106.707</ele>
        <time>2020-05-27T16:45:15Z</time>
      </trkpt>
      <trkpt lat="47.00222" lon="-1.00747">
        <ele>106.618</ele>
        <time>2020-05-27T16:45:16Z</time>
      </trkpt>
      <trkpt lat="47.00222" lon="-1.00753">
        <ele>106.8</ele>
        <time>2020-05-27T16:45:17Z</time>
      </trkpt>
      <trkpt lat="47.00222" lon="-1.00759">
        <ele>105.952</ele>
        <time>2020-05-27T16:45:18Z</time>
      </trkpt>
      <trkpt lat="47.00223" lon="-1.00765">
        <ele>107.457</ele>
        <time>2020-05-27T16:45:19Z</time>
      </trkpt>
      <trkpt lat="47.00224" lon="-1.00769">
        <ele>105.955</ele>
        <time>2020-05-27T16:45:20Z</time>
      </trkpt>
      <trkpt lat="47.00225" lon="-1.00774">
        <ele>105.266</ele>
        <time>2020-05-27T16:45:21Z</time>
      </trkpt>
      <trkpt lat="47.00226" lon="-1.00781">
        <ele>104.206</ele>
        <time>2020-05-27T16:45:22Z</time>
      </trkpt>
      <trkpt lat="47.00225" lon="-1.00795">
        <ele>104.846</ele>
        <time>2020-05-27T16:45:23Z</time>
      </trkpt>
      <trkpt lat="47.00226" lon="-1.00803">
        <ele>104.312</ele>
        <time>2020-05-27T16:45:24Z</time>
      </trkpt>
      <trkpt lat="47.00227" lon="-1.00811">
        <ele>103.994</ele>
        <time>2020-05-27T16:45:25Z</time>
      </trkpt>
      <trkpt lat="47.00227" lon="-1.00818">
        <ele>104.189</ele>
        <time>2020-05-27T16:45:26Z</time>
      </trkpt>
      <trkpt lat="47.00226" lon="-1.00826">
        <ele>105.02</ele>
        <time>2020-05-27T16:45:27Z</time>
      </trkpt>
      <trkpt lat="47.00227" lon="-1.00835">
        <ele>104.651</ele>
        <time>2020-05-27T16:45:28Z</time>
      </trkpt>
      <trkpt lat="47.00226" lon="-1.00843">
        <ele>104.382</ele>
        <time>2020-05-27T16:45:29Z</time>
      </trkpt>
      <trkpt lat="47.00226" lon="-1.0085">
        <ele>104.214</ele>
        <time>2020-05-27T16:45:30Z</time>
      </trkpt>
      <trkpt lat="47.00227" lon="-1.00857">
        <ele>104.205</ele>
        <time>2020-05-27T16:45:31Z</time>
      </trkpt>
      <trkpt lat="47.00228" lon="-1.00864">
        <ele>104.881</ele>
        <time>2020-05-27T16:45:32Z</time>
      </trkpt>
      <trkpt lat="47.00227" lon="-1.00872">
        <ele>105.02</ele>
        <time>2020-05-27T16:45:33Z</time>
      </trkpt>
      <trkpt lat="47.00226" lon="-1.00879">
        <ele>105.373</ele>
        <time>2020-05-27T16:45:34Z</time>
      </trkpt>
      <trkpt lat="47.00226" lon="-1.00887">
        <ele>105.789</ele>
        <time>2020-05-27T16:45:35Z</time>
      </trkpt>
      <trkpt lat="47.00226" lon="-1.00894">
        <ele>105.828</ele>
        <time>2020-05-27T16:45:36Z</time>
      </trkpt>
      <trkpt lat="47.00226" lon="-1.009">
        <ele>106.857</ele>
        <time>2020-05-27T16:45:37Z</time>
      </trkpt>
      <trkpt lat="47.00227" lon="-1.00906">
        <ele>107.363</ele>
        <time>2020-05-27T16:45:38Z</time>
      </trkpt>
      <trkpt lat="47.00227" lon="-1.00912">
        <ele>105.7</ele>
        <time>2020-05-27T16:45:39Z</time>
      </trkpt>
      <trkpt lat="47.00228" lon="-1.00918">
        <ele>104.211</ele>
        <time>2020-05-27T16:45:40Z</time>
      </trkpt>
      <trkpt lat="47.00227" lon="-1.00926">
        <ele>104.774</ele>
        <time>2020-05-27T16:45:41Z</time>
      </trkpt>
      <trkpt lat="47.00227" lon="-1.00932">
        <ele>104.229</ele>
        <time>2020-05-27T16:45:42Z</time>
      </trkpt>
      <trkpt lat="47.00227" lon="-1.00939">
        <ele>104.518</ele>
        <time>2020-05-27T16:45:43Z</time>
      </trkpt>
      <trkpt lat="47.00227" lon="-1.00947">
        <ele>104.918</ele>
        <time>2020-05-27T16:45:44Z</time>
      </trkpt>
      <trkpt lat="47.00228" lon="-1.00954">
        <ele>105.605</ele>
        <time>2020-05-27T16:45:45Z</time>
      </trkpt>
      <trkpt lat="47.00228" lon="-1.0096">
        <ele>106.52</ele>
        <time>2020-05-27T16:45:46Z</time>
      </trkpt>
      <trkpt lat="47.00228" lon="-1.00966">
        <ele>104.815</ele>
        <time>2020-05-27T16:45:47Z</time>
      </trkpt>
      <trkpt lat="47.00228" lon="-1.00974">
        <ele>104.13</ele>
        <time>2020-05-27T16:45:48Z</time>
      </trkpt>
      <trkpt lat="47.00228" lon="-1.00981">
        <ele>104.416</ele>
        <time>2020-05-27T16:45:49Z</time>
      </trkpt>
      <trkpt lat="47.00226" lon="-1.00988">
        <ele>104.291</ele>
        <time>2020-05-27T16:45:50Z</time>
      </trkpt>
      <trkpt lat="47.00226" lon="-1.00995">
        <ele>105.509</ele>
        <time>2020-05-27T16:45:51Z</time>
      </trkpt>
      <trkpt lat="47.00226" lon="-1.01002">
        <ele>104.282</ele>
        <time>2020-05-27T16:45:52Z</time>
      </trkpt>
      <trkpt lat="47.00227" lon="-1.01009">
        <ele>104.94</ele>
        <time>2020-05-27T16:45:53Z</time>
      </trkpt>
      <trkpt lat="47.00224" lon="-1.01016">
        <ele>105.672</ele>
        <time>2020-05-27T16:45:54Z</time>
      </trkpt>
      <trkpt lat="47.00223" lon="-1.01024">
        <ele>106.367</ele>
        <time>2020-05-27T16:45:55Z</time>
      </trkpt>
      <trkpt lat="47.00225" lon="-1.01031">
        <ele>105.205</ele>
        <time>2020-05-27T16:45:56Z</time>
      </trkpt>
      <trkpt lat="47.00226" lon="-1.0104">
        <ele>104.816</ele>
        <time>2020-05-27T16:45:57Z</time>
      </trkpt>
      <trkpt lat="47.00225" lon="-1.01047">
        <ele>104.183</ele>
        <time>2020-05-27T16:45:58Z</time>
      </trkpt>
      <trkpt lat="47.00226" lon="-1.01051">
        <ele>102.605</ele>
        <time>2020-05-27T16:45:59Z</time>
      </trkpt>
      <trkpt lat="47.00225" lon="-1.01059">
        <ele>103.037</ele>
        <time>2020-05-27T16:46:00Z</time>
      </trkpt>
      <trkpt lat="47.00225" lon="-1.01066">
        <ele>103.38</ele>
        <time>2020-05-27T16:46:01Z</time>
      </trkpt>
      <trkpt lat="47.00227" lon="-1.01073">
        <ele>103.764</ele>
        <time>2020-05-27T16:46:02Z</time>
      </trkpt>
      <trkpt lat="47.00227" lon="-1.01075">
        <ele>102.627</ele>
        <time>2020-05-27T16:46:03Z</time>
      </trkpt>
      <trkpt lat="47.00227" lon="-1.01082">
        <ele>102.29</ele>
        <time>2020-05-27T16:46:04Z</time>
      </trkpt>
      <trkpt lat="47.00228" lon="-1.01087">
        <ele>102.509</ele>
        <time>2020-05-27T16:46:05Z</time>
      </trkpt>
      <trkpt lat="47.00228" lon="-1.01092">
        <ele>102.818</ele>
        <time>2020-05-27T16:46:06Z</time>
      </trkpt>
      <trkpt lat="47.00229" lon="-1.01095">
        <ele>103.059</ele>
        <time>2020-05-27T16:46:07Z</time>
      </trkpt>
      <trkpt lat="47.00229" lon="-1.011">
        <ele>103.044</ele>
        <time>2020-05-27T16:46:08Z</time>
      </trkpt>
      <trkpt lat="47.00229" lon="-1.01105">
        <ele>102.964</ele>
        <time>2020-05-27T16:46:09Z</time>
      </trkpt>
      <trkpt lat="47.00228" lon="-1.01109">
        <ele>104.499</ele>
        <time>2020-05-27T16:46:10Z</time>
      </trkpt>
      <trkpt lat="47.00228" lon="-1.01111">
        <ele>104.744</ele>
        <time>2020-05-27T16:46:11Z</time>
      </trkpt>
      <trkpt lat="47.00227" lon="-1.01111">
        <ele>105.034</ele>
        <time>2020-05-27T16:46:12Z</time>
      </trkpt>
      <trkpt lat="47.00227" lon="-1.01111">
        <ele>105.038</ele>
        <time>2020-05-27T16:46:13Z</time>
      </trkpt>
      <trkpt lat="47.00227" lon="-1.01111">
        <ele>104.329</ele>
        <time>2020-05-27T16:46:14Z</time>
      </trkpt>
      <trkpt lat="47.00227" lon="-1.01111">
        <ele>104.452</ele>
        <time>2020-05-27T16:46:15Z</time>
      </trkpt>
      <trkpt lat="47.00227" lon="-1.01111">
        <ele>104.506</ele>
        <time>2020-05-27T16:46:16Z</time>
      </trkpt>
      <trkpt lat="47.00227" lon="-1.01111">
        <ele>104.148</ele>
        <time>2020-05-27T16:46:17Z</time>
      </trkpt>
      <trkpt lat="47.00226" lon="-1.01111">
        <ele>104.638</ele>
        <time>2020-05-27T16:46:18Z</time>
      </trkpt>
      <trkpt lat="47.00226" lon="-1.01111">
        <ele>104.793</ele>
        <time>2020-05-27T16:46:19Z</time>
      </trkpt>
      <trkpt lat="47.00226" lon="-1.01111">
        <ele>104.595</ele>
        <time>2020-05-27T16:46:20Z</time>
      </trkpt>
      <trkpt lat="47.00225" lon="-1.01112">
        <ele>104.823</ele>
        <time>2020-05-27T16:46:21Z</time>
      </trkpt>
      <trkpt lat="47.00226" lon="-1.01112">
        <ele>105.235</ele>
        <time>2020-05-27T16:46:22Z</time>
      </trkpt>
      <trkpt lat="47.00226" lon="-1.01112">
        <ele>106.959</ele>
        <time>2020-05-27T16:46:23Z</time>
      </trkpt>
      <trkpt lat="47.00226" lon="-1.01112">
        <ele>106.932</ele>
        <time>2020-05-27T16:46:24Z</time>
      </trkpt>
      <trkpt lat="47.00226" lon="-1.01112">
        <ele>107.302</ele>
        <time>2020-05-27T16:46:25Z</time>
      </trkpt>
      <trkpt lat="47.00225" lon="-1.01112">
        <ele>107.69</ele>
        <time>2020-05-27T16:46:26Z</time>
      </trkpt>
      <trkpt lat="47.00226" lon="-1.01113">
        <ele>107.144</ele>
        <time>2020-05-27T16:46:27Z</time>
      </trkpt>
      <trkpt lat="47.00226" lon="-1.01113">
        <ele>107.246</ele>
        <time>2020-05-27T16:46:28Z</time>
      </trkpt>
      <trkpt lat="47.00226" lon="-1.01113">
        <ele>107.035</ele>
        <time>2020-05-27T16:46:29Z</time>
      </trkpt>
      <trkpt lat="47.00226" lon="-1.01113">
        <ele>106.997</ele>
        <time>2020-05-27T16:46:30Z</time>
      </trkpt>
      <trkpt lat="47.00226" lon="-1.01113">
        <ele>106.987</ele>
        <time>2020-05-27T16:46:32Z</time>
      </trkpt>
      <trkpt lat="47.00226" lon="-1.01114">
        <ele>106.618</ele>
        <time>2020-05-27T16:46:33Z</time>
      </trkpt>
      <trkpt lat="47.00227" lon="-1.01115">
        <ele>106.936</ele>
        <time>2020-05-27T16:46:34Z</time>
      </trkpt>
      <trkpt lat="47.00227" lon="-1.01115">
        <ele>107.744</ele>
        <time>2020-05-27T16:46:35Z</time>
      </trkpt>
      <trkpt lat="47.00227" lon="-1.01115">
        <ele>108.743</ele>
        <time>2020-05-27T16:46:36Z</time>
      </trkpt>
      <trkpt lat="47.00227" lon="-1.01115">
        <ele>108.788</ele>
        <time>2020-05-27T16:46:37Z</time>
      </trkpt>
      <trkpt lat="47.00227" lon="-1.01115">
        <ele>108.354</ele>
        <time>2020-05-27T16:46:38Z</time>
      </trkpt>
      <trkpt lat="47.00227" lon="-1.01115">
        <ele>108.255</ele>
        <time>2020-05-27T16:46:39Z</time>
      </trkpt>
      <trkpt lat="47.00227" lon="-1.01115">
        <ele>108.755</ele>
        <time>2020-05-27T16:46:40Z</time>
      </trkpt>
      <trkpt lat="47.00227" lon="-1.01115">
        <ele>109.144</ele>
        <time>2020-05-27T16:46:41Z</time>
      </trkpt>
      <trkpt lat="47.00226" lon="-1.01116">
        <ele>109.512</ele>
        <time>2020-05-27T16:46:44Z</time>
      </trkpt>
      <trkpt lat="47.00226" lon="-1.01116">
        <ele>109.405</ele>
        <time>2020-05-27T16:46:45Z</time>
      </trkpt>
      <trkpt lat="47.00226" lon="-1.01116">
        <ele>109.486</ele>
        <time>2020-05-27T16:46:46Z</time>
      </trkpt>
      <trkpt lat="47.00226" lon="-1.01116">
        <ele>109.486</ele>
        <time>2020-05-27T16:46:47Z</time>
      </trkpt>
      <trkpt lat="47.00226" lon="-1.01116">
        <ele>109.401</ele>
        <time>2020-05-27T16:46:48Z</time>
      </trkpt>
      <trkpt lat="47.00226" lon="-1.01116">
        <ele>109.441</ele>
        <time>2020-05-27T16:46:49Z</time>
      </trkpt>
      <trkpt lat="47.00226" lon="-1.01117">
        <ele>109.225</ele>
        <time>2020-05-27T16:46:50Z</time>
      </trkpt>
      <trkpt lat="47.00227" lon="-1.01117">
        <ele>108.682</ele>
        <time>2020-05-27T16:46:51Z</time>
      </trkpt>
      <trkpt lat="47.00227" lon="-1.01117">
        <ele>107.841</ele>
        <time>2020-05-27T16:46:52Z</time>
      </trkpt>
      <trkpt lat="47.00228" lon="-1.01118">
        <ele>108.1</ele>
        <time>2020-05-27T16:46:53Z</time>
      </trkpt>
      <trkpt lat="47.00227" lon="-1.01121">
        <ele>108.209</ele>
        <time>2020-05-27T16:46:54Z</time>
      </trkpt>
      <trkpt lat="47.00228" lon="-1.01124">
        <ele>104.928</ele>
        <time>2020-05-27T16:46:55Z</time>
      </trkpt>
      <trkpt lat="47.00229" lon="-1.01127">
        <ele>104.617</ele>
        <time>2020-05-27T16:46:56Z</time>
      </trkpt>
      <trkpt lat="47.00229" lon="-1.0113">
        <ele>104.471</ele>
        <time>2020-05-27T16:46:57Z</time>
      </trkpt>
      <trkpt lat="47.0023" lon="-1.01134">
        <ele>105.003</ele>
        <time>2020-05-27T16:46:58Z</time>
      </trkpt>
      <trkpt lat="47.0023" lon="-1.01138">
        <ele>105.415</ele>
        <time>2020-05-27T16:46:59Z</time>
      </trkpt>
      <trkpt lat="47.0023" lon="-1.01141">
        <ele>105.532</ele>
        <time>2020-05-27T16:47:00Z</time>
      </trkpt>
      <trkpt lat="47.00231" lon="-1.01145">
        <ele>105.128</ele>
        <time>2020-05-27T16:47:01Z</time>
      </trkpt>
      <trkpt lat="47.00231" lon="-1.01149">
        <ele>105.699</ele>
        <time>2020-05-27T16:47:02Z</time>
      </trkpt>
      <trkpt lat="47.00231" lon="-1.01152">
        <ele>105.682</ele>
        <time>2020-05-27T16:47:03Z</time>
      </trkpt>
      <trkpt lat="47.00231" lon="-1.01156">
        <ele>104.186</ele>
        <time>2020-05-27T16:47:04Z</time>
      </trkpt>
      <trkpt lat="47.0023" lon="-1.0116">
        <ele>103.827</ele>
        <time>2020-05-27T16:47:05Z</time>
      </trkpt>
      <trkpt lat="47.00229" lon="-1.01164">
        <ele>103.803</ele>
        <time>2020-05-27T16:47:06Z</time>
      </trkpt>
      <trkpt lat="47.00229" lon="-1.01169">
        <ele>105.075</ele>
        <time>2020-05-27T16:47:07Z</time>
      </trkpt>
      <trkpt lat="47.00228" lon="-1.01173">
        <ele>103.407</ele>
        <time>2020-05-27T16:47:08Z</time>
      </trkpt>
      <trkpt lat="47.00227" lon="-1.01177">
        <ele>104.379</ele>
        <time>2020-05-27T16:47:09Z</time>
      </trkpt>
      <trkpt lat="47.00225" lon="-1.01181">
        <ele>106.138</ele>
        <time>2020-05-27T16:47:10Z</time>
      </trkpt>
      <trkpt lat="47.00223" lon="-1.01185">
        <ele>105.903</ele>
        <time>2020-05-27T16:47:11Z</time>
      </trkpt>
      <trkpt lat="47.0022" lon="-1.01189">
        <ele>105.625</ele>
        <time>2020-05-27T16:47:12Z</time>
      </trkpt>
      <trkpt lat="47.00217" lon="-1.01193">
        <ele>106.142</ele>
        <time>2020-05-27T16:47:13Z</time>
      </trkpt>
      <trkpt lat="47.00214" lon="-1.01196">
        <ele>106.821</ele>
        <time>2020-05-27T16:47:14Z</time>
      </trkpt>
      <trkpt lat="47.00212" lon="-1.01199">
        <ele>107.095</ele>
        <time>2020-05-27T16:47:15Z</time>
      </trkpt>
      <trkpt lat="47.00208" lon="-1.01202">
        <ele>105.833</ele>
        <time>2020-05-27T16:47:16Z</time>
      </trkpt>
      <trkpt lat="47.00205" lon="-1.01206">
        <ele>105.503</ele>
        <time>2020-05-27T16:47:17Z</time>
      </trkpt>
      <trkpt lat="47.00203" lon="-1.01209">
        <ele>106.034</ele>
        <time>2020-05-27T16:47:18Z</time>
      </trkpt>
      <trkpt lat="47.002" lon="-1.01212">
        <ele>106.118</ele>
        <time>2020-05-27T16:47:19Z</time>
      </trkpt>
      <trkpt lat="47.00199" lon="-1.01215">
        <ele>104.977</ele>
        <time>2020-05-27T16:47:20Z</time>
      </trkpt>
      <trkpt lat="47.00197" lon="-1.01218">
        <ele>104.31</ele>
        <time>2020-05-27T16:47:21Z</time>
      </trkpt>
      <trkpt lat="47.00196" lon="-1.0122">
        <ele>102.66</ele>
        <time>2020-05-27T16:47:22Z</time>
      </trkpt>
      <trkpt lat="47.00194" lon="-1.01223">
        <ele>101.838</ele>
        <time>2020-05-27T16:47:23Z</time>
      </trkpt>
      <trkpt lat="47.00191" lon="-1.01227">
        <ele>103.624</ele>
        <time>2020-05-27T16:47:24Z</time>
      </trkpt>
      <trkpt lat="47.00189" lon="-1.0123">
        <ele>103.703</ele>
        <time>2020-05-27T16:47:25Z</time>
      </trkpt>
      <trkpt lat="47.00187" lon="-1.01235">
        <ele>104.136</ele>
        <time>2020-05-27T16:47:26Z</time>
      </trkpt>
      <trkpt lat="47.00186" lon="-1.0124">
        <ele>103.965</ele>
        <time>2020-05-27T16:47:27Z</time>
      </trkpt>
      <trkpt lat="47.00185" lon="-1.01245">
        <ele>103.661</ele>
        <time>2020-05-27T16:47:28Z</time>
      </trkpt>
      <trkpt lat="47.00185" lon="-1.01249">
        <ele>103.728</ele>
        <time>2020-05-27T16:47:29Z</time>
      </trkpt>
      <trkpt lat="47.00184" lon="-1.01254">
        <ele>104.188</ele>
        <time>2020-05-27T16:47:30Z</time>
      </trkpt>
      <trkpt lat="47.00185" lon="-1.01259">
        <ele>103.124</ele>
        <time>2020-05-27T16:47:31Z</time>
      </trkpt>
      <trkpt lat="47.00184" lon="-1.01265">
        <ele>101.225</ele>
        <time>2020-05-27T16:47:32Z</time>
      </trkpt>
      <trkpt lat="47.00184" lon="-1.01272">
        <ele>101.028</ele>
        <time>2020-05-27T16:47:33Z</time>
      </trkpt>
      <trkpt lat="47.00184" lon="-1.01279">
        <ele>100.621</ele>
        <time>2020-05-27T16:47:34Z</time>
      </trkpt>
      <trkpt lat="47.00184" lon="-1.01285">
        <ele>101.249</ele>
        <time>2020-05-27T16:47:35Z</time>
      </trkpt>
      <trkpt lat="47.00186" lon="-1.01293">
        <ele>100.611</ele>
        <time>2020-05-27T16:47:36Z</time>
      </trkpt>
      <trkpt lat="47.00186" lon="-1.013">
        <ele>100.757</ele>
        <time>2020-05-27T16:47:37Z</time>
      </trkpt>
      <trkpt lat="47.00187" lon="-1.01307">
        <ele>100.383</ele>
        <time>2020-05-27T16:47:38Z</time>
      </trkpt>
      <trkpt lat="47.00186" lon="-1.01315">
        <ele>99.784</ele>
        <time>2020-05-27T16:47:39Z</time>
      </trkpt>
      <trkpt lat="47.00187" lon="-1.01323">
        <ele>100.116</ele>
        <time>2020-05-27T16:47:40Z</time>
      </trkpt>
      <trkpt lat="47.00187" lon="-1.01329">
        <ele>99.289</ele>
        <time>2020-05-27T16:47:41Z</time>
      </trkpt>
      <trkpt lat="47.00186" lon="-1.01337">
        <ele>99.211</ele>
        <time>2020-05-27T16:47:42Z</time>
      </trkpt>
      <trkpt lat="47.00185" lon="-1.01345">
        <ele>99.617</ele>
        <time>2020-05-27T16:47:43Z</time>
      </trkpt>
      <trkpt lat="47.00185" lon="-1.01353">
        <ele>99.919</ele>
        <time>2020-05-27T16:47:44Z</time>
      </trkpt>
      <trkpt lat="47.00184" lon="-1.01362">
        <ele>99.89</ele>
        <time>2020-05-27T16:47:45Z</time>
      </trkpt>
      <trkpt lat="47.00184" lon="-1.0137">
        <ele>99.768</ele>
        <time>2020-05-27T16:47:46Z</time>
      </trkpt>
      <trkpt lat="47.00184" lon="-1.01376">
        <ele>99.092</ele>
        <time>2020-05-27T16:47:47Z</time>
      </trkpt>
      <trkpt lat="47.00184" lon="-1.01383">
        <ele>97.602</ele>
        <time>2020-05-27T16:47:48Z</time>
      </trkpt>
      <trkpt lat="47.00185" lon="-1.01388">
        <ele>97.615</ele>
        <time>2020-05-27T16:47:49Z</time>
      </trkpt>
      <trkpt lat="47.00184" lon="-1.01393">
        <ele>97.794</ele>
        <time>2020-05-27T16:47:50Z</time>
      </trkpt>
      <trkpt lat="47.00184" lon="-1.01396">
        <ele>98.68</ele>
        <time>2020-05-27T16:47:51Z</time>
      </trkpt>
      <trkpt lat="47.00184" lon="-1.01399">
        <ele>98.431</ele>
        <time>2020-05-27T16:47:52Z</time>
      </trkpt>
      <trkpt lat="47.00181" lon="-1.01401">
        <ele>97.481</ele>
        <time>2020-05-27T16:47:53Z</time>
      </trkpt>
      <trkpt lat="47.00181" lon="-1.01404">
        <ele>97.725</ele>
        <time>2020-05-27T16:47:54Z</time>
      </trkpt>
      <trkpt lat="47.0018" lon="-1.01407">
        <ele>98.396</ele>
        <time>2020-05-27T16:47:55Z</time>
      </trkpt>
      <trkpt lat="47.00179" lon="-1.01408">
        <ele>100.204</ele>
        <time>2020-05-27T16:47:56Z</time>
      </trkpt>
      <trkpt lat="47.00181" lon="-1.01412">
        <ele>97.118</ele>
        <time>2020-05-27T16:47:57Z</time>
      </trkpt>
      <trkpt lat="47.00183" lon="-1.01415">
        <ele>95.556</ele>
        <time>2020-05-27T16:47:58Z</time>
      </trkpt>
      <trkpt lat="47.00184" lon="-1.01416">
        <ele>94.896</ele>
        <time>2020-05-27T16:47:59Z</time>
      </trkpt>
      <trkpt lat="47.00184" lon="-1.01417">
        <ele>94.636</ele>
        <time>2020-05-27T16:48:00Z</time>
      </trkpt>
      <trkpt lat="47.00184" lon="-1.01417">
        <ele>93.928</ele>
        <time>2020-05-27T16:48:01Z</time>
      </trkpt>
      <trkpt lat="47.00184" lon="-1.01417">
        <ele>93.552</ele>
        <time>2020-05-27T16:48:02Z</time>
      </trkpt>
      <trkpt lat="47.00184" lon="-1.01418">
        <ele>93.386</ele>
        <time>2020-05-27T16:48:03Z</time>
      </trkpt>
      <trkpt lat="47.00184" lon="-1.01418">
        <ele>93.287</ele>
        <time>2020-05-27T16:48:04Z</time>
      </trkpt>
      <trkpt lat="47.00184" lon="-1.01418">
        <ele>92.797</ele>
        <time>2020-05-27T16:48:05Z</time>
      </trkpt>
      <trkpt lat="47.00184" lon="-1.01418">
        <ele>92.925</ele>
        <time>2020-05-27T16:48:06Z</time>
      </trkpt>
      <trkpt lat="47.00184" lon="-1.01418">
        <ele>93.059</ele>
        <time>2020-05-27T16:48:07Z</time>
      </trkpt>
      <trkpt lat="47.00184" lon="-1.01418">
        <ele>92.972</ele>
        <time>2020-05-27T16:48:08Z</time>
      </trkpt>
      <trkpt lat="47.00184" lon="-1.01418">
        <ele>92.251</ele>
        <time>2020-05-27T16:48:09Z</time>
      </trkpt>
      <trkpt lat="47.00184" lon="-1.01419">
        <ele>92.469</ele>
        <time>2020-05-27T16:48:10Z</time>
      </trkpt>
      <trkpt lat="47.00184" lon="-1.01419">
        <ele>92.468</ele>
        <time>2020-05-27T16:48:11Z</time>
      </trkpt>
      <trkpt lat="47.00184" lon="-1.01419">
        <ele>92.796</ele>
        <time>2020-05-27T16:48:12Z</time>
      </trkpt>
      <trkpt lat="47.00184" lon="-1.01419">
        <ele>92.628</ele>
        <time>2020-05-27T16:48:13Z</time>
      </trkpt>
      <trkpt lat="47.00184" lon="-1.01419">
        <ele>92.736</ele>
        <time>2020-05-27T16:48:14Z</time>
      </trkpt>
      <trkpt lat="47.00184" lon="-1.01418">
        <ele>93.726</ele>
        <time>2020-05-27T16:48:15Z</time>
      </trkpt>
      <trkpt lat="47.00184" lon="-1.01418">
        <ele>93.739</ele>
        <time>2020-05-27T16:48:16Z</time>
      </trkpt>
      <trkpt lat="47.00184" lon="-1.01418">
        <ele>93.951</ele>
        <time>2020-05-27T16:48:17Z</time>
      </trkpt>
      <trkpt lat="47.00184" lon="-1.01418">
        <ele>93.708</ele>
        <time>2020-05-27T16:48:18Z</time>
      </trkpt>
      <trkpt lat="47.00184" lon="-1.01418">
        <ele>93.69</ele>
        <time>2020-05-27T16:48:19Z</time>
      </trkpt>
      <trkpt lat="47.00184" lon="-1.01418">
        <ele>93.74</ele>
        <time>2020-05-27T16:48:20Z</time>
      </trkpt>
      <trkpt lat="47.00184" lon="-1.01418">
        <ele>93.813</ele>
        <time>2020-05-27T16:48:21Z</time>
      </trkpt>
      <trkpt lat="47.00184" lon="-1.01418">
        <ele>93.824</ele>
        <time>2020-05-27T16:48:22Z</time>
      </trkpt>
      <trkpt lat="47.00184" lon="-1.01419">
        <ele>93.774</ele>
        <time>2020-05-27T16:48:23Z</time>
      </trkpt>
      <trkpt lat="47.00184" lon="-1.01419">
        <ele>93.553</ele>
        <time>2020-05-27T16:48:24Z</time>
      </trkpt>
      <trkpt lat="47.00184" lon="-1.01419">
        <ele>93.67</ele>
        <time>2020-05-27T16:48:25Z</time>
      </trkpt>
      <trkpt lat="47.00184" lon="-1.01419">
        <ele>93.678</ele>
        <time>2020-05-27T16:48:26Z</time>
      </trkpt>
      <trkpt lat="47.00184" lon="-1.01419">
        <ele>93.704</ele>
        <time>2020-05-27T16:48:27Z</time>
      </trkpt>
      <trkpt lat="47.00184" lon="-1.01419">
        <ele>93.9</ele>
        <time>2020-05-27T16:48:28Z</time>
      </trkpt>
      <trkpt lat="47.00183" lon="-1.0142">
        <ele>95.691</ele>
        <time>2020-05-27T16:48:29Z</time>
      </trkpt>
      <trkpt lat="47.00182" lon="-1.0142">
        <ele>95.346</ele>
        <time>2020-05-27T16:48:30Z</time>
      </trkpt>
      <trkpt lat="47.00181" lon="-1.0142">
        <ele>97.896</ele>
        <time>2020-05-27T16:48:31Z</time>
      </trkpt>
      <trkpt lat="47.0018" lon="-1.01421">
        <ele>97.641</ele>
        <time>2020-05-27T16:48:32Z</time>
      </trkpt>
      <trkpt lat="47.0018" lon="-1.01422">
        <ele>98.633</ele>
        <time>2020-05-27T16:48:33Z</time>
      </trkpt>
      <trkpt lat="47.00179" lon="-1.01423">
        <ele>97.883</ele>
        <time>2020-05-27T16:48:34Z</time>
      </trkpt>
      <trkpt lat="47.00179" lon="-1.01424">
        <ele>96.9</ele>
        <time>2020-05-27T16:48:35Z</time>
      </trkpt>
      <trkpt lat="47.00179" lon="-1.01424">
        <ele>96.152</ele>
        <time>2020-05-27T16:48:36Z</time>
      </trkpt>
      <trkpt lat="47.00179" lon="-1.01424">
        <ele>95.832</ele>
        <time>2020-05-27T16:48:37Z</time>
      </trkpt>
      <trkpt lat="47.00179" lon="-1.01424">
        <ele>95.683</ele>
        <time>2020-05-27T16:48:38Z</time>
      </trkpt>
      <trkpt lat="47.00178" lon="-1.01424">
        <ele>95.085</ele>
        <time>2020-05-27T16:48:39Z</time>
      </trkpt>
      <trkpt lat="47.00178" lon="-1.01424">
        <ele>95.484</ele>
        <time>2020-05-27T16:48:40Z</time>
      </trkpt>
      <trkpt lat="47.00178" lon="-1.01425">
        <ele>95.201</ele>
        <time>2020-05-27T16:48:41Z</time>
      </trkpt>
      <trkpt lat="47.00178" lon="-1.01425">
        <ele>95.104</ele>
        <time>2020-05-27T16:48:42Z</time>
      </trkpt>
      <trkpt lat="47.00178" lon="-1.01425">
        <ele>95.354</ele>
        <time>2020-05-27T16:48:43Z</time>
      </trkpt>
      <trkpt lat="47.00178" lon="-1.01425">
        <ele>95.628</ele>
        <time>2020-05-27T16:48:44Z</time>
      </trkpt>
      <trkpt lat="47.00178" lon="-1.01425">
        <ele>95.634</ele>
        <time>2020-05-27T16:48:45Z</time>
      </trkpt>
      <trkpt lat="47.00177" lon="-1.01426">
        <ele>95.84</ele>
        <time>2020-05-27T16:48:46Z</time>
      </trkpt>
      <trkpt lat="47.00177" lon="-1.01427">
        <ele>95.082</ele>
        <time>2020-05-27T16:48:47Z</time>
      </trkpt>
      <trkpt lat="47.00177" lon="-1.01427">
        <ele>94.869</ele>
        <time>2020-05-27T16:48:48Z</time>
      </trkpt>
      <trkpt lat="47.00176" lon="-1.01428">
        <ele>95.198</ele>
        <time>2020-05-27T16:48:49Z</time>
      </trkpt>
      <trkpt lat="47.00176" lon="-1.01429">
        <ele>92.703</ele>
        <time>2020-05-27T16:48:50Z</time>
      </trkpt>
      <trkpt lat="47.00176" lon="-1.0143">
        <ele>91.342</ele>
        <time>2020-05-27T16:48:51Z</time>
      </trkpt>
      <trkpt lat="47.00176" lon="-1.01431">
        <ele>91.917</ele>
        <time>2020-05-27T16:48:52Z</time>
      </trkpt>
      <trkpt lat="47.00176" lon="-1.01433">
        <ele>93.206</ele>
        <time>2020-05-27T16:48:53Z</time>
      </trkpt>
      <trkpt lat="47.00177" lon="-1.01433">
        <ele>93.396</ele>
        <time>2020-05-27T16:48:54Z</time>
      </trkpt>
      <trkpt lat="47.00178" lon="-1.01434">
        <ele>93.85</ele>
        <time>2020-05-27T16:48:55Z</time>
      </trkpt>
      <trkpt lat="47.00179" lon="-1.01435">
        <ele>94.273</ele>
        <time>2020-05-27T16:48:56Z</time>
      </trkpt>
      <trkpt lat="47.0018" lon="-1.01436">
        <ele>93.941</ele>
        <time>2020-05-27T16:48:57Z</time>
      </trkpt>
      <trkpt lat="47.00181" lon="-1.01437">
        <ele>93.857</ele>
        <time>2020-05-27T16:48:58Z</time>
      </trkpt>
      <trkpt lat="47.00182" lon="-1.01439">
        <ele>93.422</ele>
        <time>2020-05-27T16:48:59Z</time>
      </trkpt>
      <trkpt lat="47.00182" lon="-1.0144">
        <ele>92.496</ele>
        <time>2020-05-27T16:49:00Z</time>
      </trkpt>
      <trkpt lat="47.00183" lon="-1.01441">
        <ele>93.19</ele>
        <time>2020-05-27T16:49:01Z</time>
      </trkpt>
      <trkpt lat="47.00183" lon="-1.01442">
        <ele>94.227</ele>
        <time>2020-05-27T16:49:02Z</time>
      </trkpt>
      <trkpt lat="47.00184" lon="-1.01444">
        <ele>95.152</ele>
        <time>2020-05-27T16:49:03Z</time>
      </trkpt>
      <trkpt lat="47.00184" lon="-1.01445">
        <ele>95.578</ele>
        <time>2020-05-27T16:49:04Z</time>
      </trkpt>
      <trkpt lat="47.00185" lon="-1.01446">
        <ele>94.483</ele>
        <time>2020-05-27T16:49:05Z</time>
      </trkpt>
      <trkpt lat="47.00185" lon="-1.01447">
        <ele>95.132</ele>
        <time>2020-05-27T16:49:06Z</time>
      </trkpt>
      <trkpt lat="47.00186" lon="-1.01448">
        <ele>95.067</ele>
        <time>2020-05-27T16:49:07Z</time>
      </trkpt>
      <trkpt lat="47.00186" lon="-1.01449">
        <ele>96.045</ele>
        <time>2020-05-27T16:49:08Z</time>
      </trkpt>
      <trkpt lat="47.00186" lon="-1.01449">
        <ele>96.782</ele>
        <time>2020-05-27T16:49:09Z</time>
      </trkpt>
      <trkpt lat="47.00186" lon="-1.0145">
        <ele>96.459</ele>
        <time>2020-05-27T16:49:10Z</time>
      </trkpt>
      <trkpt lat="47.00186" lon="-1.0145">
        <ele>96.819</ele>
        <time>2020-05-27T16:49:11Z</time>
      </trkpt>
      <trkpt lat="47.00186" lon="-1.01451">
        <ele>97.495</ele>
        <time>2020-05-27T16:49:12Z</time>
      </trkpt>
      <trkpt lat="47.00186" lon="-1.01451">
        <ele>97.802</ele>
        <time>2020-05-27T16:49:13Z</time>
      </trkpt>
      <trkpt lat="47.00187" lon="-1.01452">
        <ele>98.303</ele>
        <time>2020-05-27T16:49:14Z</time>
      </trkpt>
      <trkpt lat="47.00187" lon="-1.01453">
        <ele>98.883</ele>
        <time>2020-05-27T16:49:15Z</time>
      </trkpt>
      <trkpt lat="47.00187" lon="-1.01454">
        <ele>98.78</ele>
        <time>2020-05-27T16:49:16Z</time>
      </trkpt>
      <trkpt lat="47.00187" lon="-1.01455">
        <ele>98.295</ele>
        <time>2020-05-27T16:49:17Z</time>
      </trkpt>
      <trkpt lat="47.00187" lon="-1.01456">
        <ele>97.945</ele>
        <time>2020-05-27T16:49:18Z</time>
      </trkpt>
      <trkpt lat="47.00188" lon="-1.01457">
        <ele>99.208</ele>
        <time>2020-05-27T16:49:19Z</time>
      </trkpt>
      <trkpt lat="47.00188" lon="-1.01459">
        <ele>98.396</ele>
        <time>2020-05-27T16:49:20Z</time>
      </trkpt>
      <trkpt lat="47.00188" lon="-1.0146">
        <ele>97.927</ele>
        <time>2020-05-27T16:49:21Z</time>
      </trkpt>
      <trkpt lat="47.00188" lon="-1.01462">
        <ele>97.133</ele>
        <time>2020-05-27T16:49:22Z</time>
      </trkpt>
      <trkpt lat="47.00188" lon="-1.01463">
        <ele>97.026</ele>
        <time>2020-05-27T16:49:23Z</time>
      </trkpt>
      <trkpt lat="47.00189" lon="-1.01465">
        <ele>96.969</ele>
        <time>2020-05-27T16:49:24Z</time>
      </trkpt>
      <trkpt lat="47.00189" lon="-1.01466">
        <ele>97.158</ele>
        <time>2020-05-27T16:49:25Z</time>
      </trkpt>
      <trkpt lat="47.00189" lon="-1.01467">
        <ele>96.937</ele>
        <time>2020-05-27T16:49:26Z</time>
      </trkpt>
      <trkpt lat="47.00189" lon="-1.01468">
        <ele>97.093</ele>
        <time>2020-05-27T16:49:27Z</time>
      </trkpt>
      <trkpt lat="47.00189" lon="-1.0147">
        <ele>97.131</ele>
        <time>2020-05-27T16:49:28Z</time>
      </trkpt>
      <trkpt lat="47.00189" lon="-1.01472">
        <ele>97.621</ele>
        <time>2020-05-27T16:49:29Z</time>
      </trkpt>
      <trkpt lat="47.00189" lon="-1.01474">
        <ele>97.599</ele>
        <time>2020-05-27T16:49:30Z</time>
      </trkpt>
      <trkpt lat="47.00188" lon="-1.01475">
        <ele>97.129</ele>
        <time>2020-05-27T16:49:31Z</time>
      </trkpt>
      <trkpt lat="47.00188" lon="-1.01477">
        <ele>96.575</ele>
        <time>2020-05-27T16:49:32Z</time>
      </trkpt>
      <trkpt lat="47.00187" lon="-1.01477">
        <ele>96.912</ele>
        <time>2020-05-27T16:49:33Z</time>
      </trkpt>
      <trkpt lat="47.00187" lon="-1.01477">
        <ele>107.504</ele>
        <time>2020-05-27T16:49:34Z</time>
      </trkpt>
      <trkpt lat="47.00187" lon="-1.01477">
        <ele>104.339</ele>
        <time>2020-05-27T16:49:35Z</time>
      </trkpt>
      <trkpt lat="47.00188" lon="-1.01476">
        <ele>103.051</ele>
        <time>2020-05-27T16:49:36Z</time>
      </trkpt>
      <trkpt lat="47.00188" lon="-1.01476">
        <ele>102.138</ele>
        <time>2020-05-27T16:49:37Z</time>
      </trkpt>
      <trkpt lat="47.00188" lon="-1.01476">
        <ele>101.414</ele>
        <time>2020-05-27T16:49:38Z</time>
      </trkpt>
      <trkpt lat="47.00188" lon="-1.01476">
        <ele>100.381</ele>
        <time>2020-05-27T16:49:39Z</time>
      </trkpt>
      <trkpt lat="47.00188" lon="-1.01476">
        <ele>100.215</ele>
        <time>2020-05-27T16:49:40Z</time>
      </trkpt>
      <trkpt lat="47.00188" lon="-1.01476">
        <ele>100.492</ele>
        <time>2020-05-27T16:49:41Z</time>
      </trkpt>
      <trkpt lat="47.00188" lon="-1.01476">
        <ele>100.202</ele>
        <time>2020-05-27T16:49:42Z</time>
      </trkpt>
      <trkpt lat="47.00188" lon="-1.01475">
        <ele>99.991</ele>
        <time>2020-05-27T16:49:43Z</time>
      </trkpt>
      <trkpt lat="47.00188" lon="-1.01475">
        <ele>100.037</ele>
        <time>2020-05-27T16:49:44Z</time>
      </trkpt>
      <trkpt lat="47.00188" lon="-1.01475">
        <ele>100.085</ele>
        <time>2020-05-27T16:49:45Z</time>
      </trkpt>
      <trkpt lat="47.00188" lon="-1.01475">
        <ele>100.147</ele>
        <time>2020-05-27T16:49:46Z</time>
      </trkpt>
      <trkpt lat="47.00188" lon="-1.01475">
        <ele>100.016</ele>
        <time>2020-05-27T16:49:47Z</time>
      </trkpt>
      <trkpt lat="47.00188" lon="-1.01475">
        <ele>99.874</ele>
        <time>2020-05-27T16:49:48Z</time>
      </trkpt>
      <trkpt lat="47.00188" lon="-1.01475">
        <ele>99.796</ele>
        <time>2020-05-27T16:49:49Z</time>
      </trkpt>
      <trkpt lat="47.00188" lon="-1.01475">
        <ele>99.766</ele>
        <time>2020-05-27T16:49:50Z</time>
      </trkpt>
      <trkpt lat="47.00188" lon="-1.01475">
        <ele>99.737</ele>
        <time>2020-05-27T16:49:51Z</time>
      </trkpt>
      <trkpt lat="47.00188" lon="-1.01475">
        <ele>138.81</ele>
        <time>2020-05-27T16:49:52Z</time>
      </trkpt>
      <trkpt lat="47.00188" lon="-1.01475">
        <ele>126.856</ele>
        <time>2020-05-27T16:49:53Z</time>
      </trkpt>
      <trkpt lat="47.00188" lon="-1.01475">
        <ele>119.989</ele>
        <time>2020-05-27T16:49:54Z</time>
      </trkpt>
      <trkpt lat="47.00188" lon="-1.01475">
        <ele>113.565</ele>
        <time>2020-05-27T16:49:55Z</time>
      </trkpt>
      <trkpt lat="47.00188" lon="-1.01475">
        <ele>110.047</ele>
        <time>2020-05-27T16:49:56Z</time>
      </trkpt>
      <trkpt lat="47.00188" lon="-1.01475">
        <ele>107.87</ele>
        <time>2020-05-27T16:49:57Z</time>
      </trkpt>
      <trkpt lat="47.00188" lon="-1.01475">
        <ele>106.268</ele>
        <time>2020-05-27T16:49:58Z</time>
      </trkpt>
      <trkpt lat="47.00188" lon="-1.01475">
        <ele>105.748</ele>
        <time>2020-05-27T16:49:59Z</time>
      </trkpt>
      <trkpt lat="47.00188" lon="-1.01475">
        <ele>105.29</ele>
        <time>2020-05-27T16:50:00Z</time>
      </trkpt>
      <trkpt lat="47.00188" lon="-1.01475">
        <ele>104.141</ele>
        <time>2020-05-27T16:50:01Z</time>
      </trkpt>
      <trkpt lat="47.00188" lon="-1.01475">
        <ele>103.307</ele>
        <time>2020-05-27T16:50:02Z</time>
      </trkpt>
      <trkpt lat="47.00188" lon="-1.01475">
        <ele>102.244</ele>
        <time>2020-05-27T16:50:03Z</time>
      </trkpt>
      <trkpt lat="47.00188" lon="-1.01475">
        <ele>102.149</ele>
        <time>2020-05-27T16:50:04Z</time>
      </trkpt>
      <trkpt lat="47.00188" lon="-1.01475">
        <ele>102.06</ele>
        <time>2020-05-27T16:50:05Z</time>
      </trkpt>
      <trkpt lat="47.00188" lon="-1.01475">
        <ele>101.654</ele>
        <time>2020-05-27T16:50:06Z</time>
      </trkpt>
      <trkpt lat="47.00188" lon="-1.01475">
        <ele>101.044</ele>
        <time>2020-05-27T16:50:07Z</time>
      </trkpt>
      <trkpt lat="47.00188" lon="-1.01475">
        <ele>100.899</ele>
        <time>2020-05-27T16:50:08Z</time>
      </trkpt>
      <trkpt lat="47.00188" lon="-1.01476">
        <ele>99.823</ele>
        <time>2020-05-27T16:50:09Z</time>
      </trkpt>
      <trkpt lat="47.00188" lon="-1.01476">
        <ele>100.372</ele>
        <time>2020-05-27T16:50:10Z</time>
      </trkpt>
      <trkpt lat="47.00188" lon="-1.01476">
        <ele>100.582</ele>
        <time>2020-05-27T16:50:11Z</time>
      </trkpt>
      <trkpt lat="47.00188" lon="-1.01475">
        <ele>101.593</ele>
        <time>2020-05-27T16:50:12Z</time>
      </trkpt>
      <trkpt lat="47.00188" lon="-1.01474">
        <ele>102.278</ele>
        <time>2020-05-27T16:50:13Z</time>
      </trkpt>
      <trkpt lat="47.00187" lon="-1.01473">
        <ele>102.513</ele>
        <time>2020-05-27T16:50:14Z</time>
      </trkpt>
      <trkpt lat="47.00187" lon="-1.01472">
        <ele>102.174</ele>
        <time>2020-05-27T16:50:15Z</time>
      </trkpt>
      <trkpt lat="47.00187" lon="-1.01471">
        <ele>101.706</ele>
        <time>2020-05-27T16:50:16Z</time>
      </trkpt>
      <trkpt lat="47.00186" lon="-1.0147">
        <ele>101.287</ele>
        <time>2020-05-27T16:50:17Z</time>
      </trkpt>
      <trkpt lat="47.00185" lon="-1.01471">
        <ele>101.013</ele>
        <time>2020-05-27T16:50:18Z</time>
      </trkpt>
      <trkpt lat="47.00185" lon="-1.01471">
        <ele>100.805</ele>
        <time>2020-05-27T16:50:19Z</time>
      </trkpt>
      <trkpt lat="47.00185" lon="-1.01471">
        <ele>100.919</ele>
        <time>2020-05-27T16:50:21Z</time>
      </trkpt>
      <trkpt lat="47.00185" lon="-1.01471">
        <ele>101.147</ele>
        <time>2020-05-27T16:50:22Z</time>
      </trkpt>
      <trkpt lat="47.00185" lon="-1.0147">
        <ele>101.797</ele>
        <time>2020-05-27T16:50:23Z</time>
      </trkpt>
      <trkpt lat="47.00184" lon="-1.01469">
        <ele>101.632</ele>
        <time>2020-05-27T16:50:24Z</time>
      </trkpt>
      <trkpt lat="47.00183" lon="-1.01468">
        <ele>101.718</ele>
        <time>2020-05-27T16:50:25Z</time>
      </trkpt>
      <trkpt lat="47.00183" lon="-1.01467">
        <ele>100.441</ele>
        <time>2020-05-27T16:50:26Z</time>
      </trkpt>
      <trkpt lat="47.00183" lon="-1.01466">
        <ele>100.297</ele>
        <time>2020-05-27T16:50:27Z</time>
      </trkpt>
      <trkpt lat="47.00182" lon="-1.01465">
        <ele>100.471</ele>
        <time>2020-05-27T16:50:28Z</time>
      </trkpt>
      <trkpt lat="47.00182" lon="-1.01463">
        <ele>100.412</ele>
        <time>2020-05-27T16:50:29Z</time>
      </trkpt>
      <trkpt lat="47.00181" lon="-1.01462">
        <ele>101.699</ele>
        <time>2020-05-27T16:50:30Z</time>
      </trkpt>
      <trkpt lat="47.00181" lon="-1.01461">
        <ele>101.515</ele>
        <time>2020-05-27T16:50:31Z</time>
      </trkpt>
      <trkpt lat="47.0018" lon="-1.01459">
        <ele>101.892</ele>
        <time>2020-05-27T16:50:32Z</time>
      </trkpt>
      <trkpt lat="47.0018" lon="-1.01458">
        <ele>102.402</ele>
        <time>2020-05-27T16:50:33Z</time>
      </trkpt>
      <trkpt lat="47.0018" lon="-1.01456">
        <ele>101.588</ele>
        <time>2020-05-27T16:50:34Z</time>
      </trkpt>
      <trkpt lat="47.0018" lon="-1.01455">
        <ele>101.091</ele>
        <time>2020-05-27T16:50:35Z</time>
      </trkpt>
      <trkpt lat="47.00179" lon="-1.01454">
        <ele>100.115</ele>
        <time>2020-05-27T16:50:36Z</time>
      </trkpt>
      <trkpt lat="47.00179" lon="-1.01452">
        <ele>99.88</ele>
        <time>2020-05-27T16:50:37Z</time>
      </trkpt>
      <trkpt lat="47.00178" lon="-1.01451">
        <ele>98.759</ele>
        <time>2020-05-27T16:50:38Z</time>
      </trkpt>
      <trkpt lat="47.00178" lon="-1.0145">
        <ele>97.5</ele>
        <time>2020-05-27T16:50:39Z</time>
      </trkpt>
      <trkpt lat="47.00178" lon="-1.0145">
        <ele>95.519</ele>
        <time>2020-05-27T16:50:40Z</time>
      </trkpt>
      <trkpt lat="47.00177" lon="-1.01449">
        <ele>95.271</ele>
        <time>2020-05-27T16:50:41Z</time>
      </trkpt>
      <trkpt lat="47.00177" lon="-1.01449">
        <ele>93.557</ele>
        <time>2020-05-27T16:50:42Z</time>
      </trkpt>
      <trkpt lat="47.00176" lon="-1.01448">
        <ele>94.073</ele>
        <time>2020-05-27T16:50:43Z</time>
      </trkpt>
      <trkpt lat="47.00176" lon="-1.01448">
        <ele>94.074</ele>
        <time>2020-05-27T16:50:44Z</time>
      </trkpt>
      <trkpt lat="47.00175" lon="-1.01447">
        <ele>96.108</ele>
        <time>2020-05-27T16:50:45Z</time>
      </trkpt>
      <trkpt lat="47.00175" lon="-1.01447">
        <ele>95.937</ele>
        <time>2020-05-27T16:50:46Z</time>
      </trkpt>
      <trkpt lat="47.00175" lon="-1.01447">
        <ele>96.038</ele>
        <time>2020-05-27T16:50:47Z</time>
      </trkpt>
      <trkpt lat="47.00174" lon="-1.01446">
        <ele>96.381</ele>
        <time>2020-05-27T16:50:48Z</time>
      </trkpt>
      <trkpt lat="47.00173" lon="-1.01445">
        <ele>96.76</ele>
        <time>2020-05-27T16:50:49Z</time>
      </trkpt>
      <trkpt lat="47.00173" lon="-1.01445">
        <ele>96.802</ele>
        <time>2020-05-27T16:50:50Z</time>
      </trkpt>
      <trkpt lat="47.00172" lon="-1.01444">
        <ele>95.478</ele>
        <time>2020-05-27T16:50:51Z</time>
      </trkpt>
      <trkpt lat="47.00172" lon="-1.01443">
        <ele>95.223</ele>
        <time>2020-05-27T16:50:52Z</time>
      </trkpt>
      <trkpt lat="47.00171" lon="-1.01442">
        <ele>94.723</ele>
        <time>2020-05-27T16:50:53Z</time>
      </trkpt>
      <trkpt lat="47.00171" lon="-1.01442">
        <ele>94.87</ele>
        <time>2020-05-27T16:50:54Z</time>
      </trkpt>
      <trkpt lat="47.00171" lon="-1.01441">
        <ele>94.89</ele>
        <time>2020-05-27T16:50:55Z</time>
      </trkpt>
      <trkpt lat="47.00171" lon="-1.0144">
        <ele>95.044</ele>
        <time>2020-05-27T16:50:56Z</time>
      </trkpt>
      <trkpt lat="47.00171" lon="-1.0144">
        <ele>93.855</ele>
        <time>2020-05-27T16:50:57Z</time>
      </trkpt>
      <trkpt lat="47.00171" lon="-1.0144">
        <ele>94.033</ele>
        <time>2020-05-27T16:50:59Z</time>
      </trkpt>
      <trkpt lat="47.00171" lon="-1.01439">
        <ele>94.994</ele>
        <time>2020-05-27T16:51:00Z</time>
      </trkpt>
      <trkpt lat="47.00171" lon="-1.01438">
        <ele>95.523</ele>
        <time>2020-05-27T16:51:01Z</time>
      </trkpt>
      <trkpt lat="47.00172" lon="-1.01437">
        <ele>94.91</ele>
        <time>2020-05-27T16:51:02Z</time>
      </trkpt>
      <trkpt lat="47.00172" lon="-1.01436">
        <ele>95.569</ele>
        <time>2020-05-27T16:51:03Z</time>
      </trkpt>
      <trkpt lat="47.00173" lon="-1.01435">
        <ele>95.919</ele>
        <time>2020-05-27T16:51:04Z</time>
      </trkpt>
      <trkpt lat="47.00173" lon="-1.01433">
        <ele>96.352</ele>
        <time>2020-05-27T16:51:05Z</time>
      </trkpt>
      <trkpt lat="47.00174" lon="-1.01432">
        <ele>96.813</ele>
        <time>2020-05-27T16:51:06Z</time>
      </trkpt>
      <trkpt lat="47.00174" lon="-1.01431">
        <ele>95.725</ele>
        <time>2020-05-27T16:51:07Z</time>
      </trkpt>
      <trkpt lat="47.00175" lon="-1.0143">
        <ele>97.724</ele>
        <time>2020-05-27T16:51:08Z</time>
      </trkpt>
      <trkpt lat="47.00175" lon="-1.0143">
        <ele>96.849</ele>
        <time>2020-05-27T16:51:09Z</time>
      </trkpt>
      <trkpt lat="47.00175" lon="-1.0143">
        <ele>97.311</ele>
        <time>2020-05-27T16:51:10Z</time>
      </trkpt>
      <trkpt lat="47.00175" lon="-1.0143">
        <ele>96.504</ele>
        <time>2020-05-27T16:51:11Z</time>
      </trkpt>
      <trkpt lat="47.00175" lon="-1.0143">
        <ele>96.603</ele>
        <time>2020-05-27T16:51:12Z</time>
      </trkpt>
      <trkpt lat="47.00175" lon="-1.0143">
        <ele>96.599</ele>
        <time>2020-05-27T16:51:13Z</time>
      </trkpt>
      <trkpt lat="47.00175" lon="-1.0143">
        <ele>96.784</ele>
        <time>2020-05-27T16:51:14Z</time>
      </trkpt>
      <trkpt lat="47.00175" lon="-1.0143">
        <ele>98.012</ele>
        <time>2020-05-27T16:51:15Z</time>
      </trkpt>
      <trkpt lat="47.00176" lon="-1.01431">
        <ele>97.636</ele>
        <time>2020-05-27T16:51:16Z</time>
      </trkpt>
      <trkpt lat="47.00176" lon="-1.01431">
        <ele>95.69</ele>
        <time>2020-05-27T16:51:17Z</time>
      </trkpt>
      <trkpt lat="47.00177" lon="-1.01432">
        <ele>94.77</ele>
        <time>2020-05-27T16:51:18Z</time>
      </trkpt>
      <trkpt lat="47.00178" lon="-1.01434">
        <ele>91.77</ele>
        <time>2020-05-27T16:51:19Z</time>
      </trkpt>
      <trkpt lat="47.00179" lon="-1.01436">
        <ele>90.557</ele>
        <time>2020-05-27T16:51:20Z</time>
      </trkpt>
      <trkpt lat="47.0018" lon="-1.01438">
        <ele>89.3</ele>
        <time>2020-05-27T16:51:21Z</time>
      </trkpt>
      <trkpt lat="47.00182" lon="-1.01439">
        <ele>88.184</ele>
        <time>2020-05-27T16:51:22Z</time>
      </trkpt>
      <trkpt lat="47.00184" lon="-1.0144">
        <ele>88.655</ele>
        <time>2020-05-27T16:51:23Z</time>
      </trkpt>
      <trkpt lat="47.00187" lon="-1.01442">
        <ele>89.028</ele>
        <time>2020-05-27T16:51:24Z</time>
      </trkpt>
      <trkpt lat="47.0019" lon="-1.01443">
        <ele>89.441</ele>
        <time>2020-05-27T16:51:25Z</time>
      </trkpt>
      <trkpt lat="47.00193" lon="-1.01444">
        <ele>90.95</ele>
        <time>2020-05-27T16:51:26Z</time>
      </trkpt>
      <trkpt lat="47.00196" lon="-1.01445">
        <ele>89.63</ele>
        <time>2020-05-27T16:51:27Z</time>
      </trkpt>
      <trkpt lat="47.00199" lon="-1.01447">
        <ele>85.993</ele>
        <time>2020-05-27T16:51:28Z</time>
      </trkpt>
      <trkpt lat="47.00202" lon="-1.01448">
        <ele>84.76</ele>
        <time>2020-05-27T16:51:29Z</time>
      </trkpt>
      <trkpt lat="47.00205" lon="-1.0145">
        <ele>82.98</ele>
        <time>2020-05-27T16:51:30Z</time>
      </trkpt>
      <trkpt lat="47.00207" lon="-1.01452">
        <ele>83.639</ele>
        <time>2020-05-27T16:51:31Z</time>
      </trkpt>
      <trkpt lat="47.00209" lon="-1.01455">
        <ele>83.901</ele>
        <time>2020-05-27T16:51:32Z</time>
      </trkpt>
      <trkpt lat="47.00211" lon="-1.01457">
        <ele>83.793</ele>
        <time>2020-05-27T16:51:33Z</time>
      </trkpt>
      <trkpt lat="47.00213" lon="-1.01458">
        <ele>86.107</ele>
        <time>2020-05-27T16:51:34Z</time>
      </trkpt>
      <trkpt lat="47.00218" lon="-1.01462">
        <ele>85.239</ele>
        <time>2020-05-27T16:51:36Z</time>
      </trkpt>
      <trkpt lat="47.00221" lon="-1.01465">
        <ele>86.15</ele>
        <time>2020-05-27T16:51:37Z</time>
      </trkpt>
      <trkpt lat="47.00223" lon="-1.01467">
        <ele>87.011</ele>
        <time>2020-05-27T16:51:38Z</time>
      </trkpt>
      <trkpt lat="47.00225" lon="-1.01469">
        <ele>87.006</ele>
        <time>2020-05-27T16:51:39Z</time>
      </trkpt>
      <trkpt lat="47.00227" lon="-1.01471">
        <ele>86.046</ele>
        <time>2020-05-27T16:51:40Z</time>
      </trkpt>
      <trkpt lat="47.00229" lon="-1.01473">
        <ele>85.444</ele>
        <time>2020-05-27T16:51:41Z</time>
      </trkpt>
      <trkpt lat="47.00231" lon="-1.01475">
        <ele>87.451</ele>
        <time>2020-05-27T16:51:42Z</time>
      </trkpt>
      <trkpt lat="47.00234" lon="-1.01477">
        <ele>83.727</ele>
        <time>2020-05-27T16:51:43Z</time>
      </trkpt>
      <trkpt lat="47.00237" lon="-1.01479">
        <ele>83.757</ele>
        <time>2020-05-27T16:51:44Z</time>
      </trkpt>
      <trkpt lat="47.0024" lon="-1.01481">
        <ele>84.138</ele>
        <time>2020-05-27T16:51:45Z</time>
      </trkpt>
      <trkpt lat="47.00243" lon="-1.01482">
        <ele>85.369</ele>
        <time>2020-05-27T16:51:46Z</time>
      </trkpt>
      <trkpt lat="47.00247" lon="-1.01483">
        <ele>85.809</ele>
        <time>2020-05-27T16:51:47Z</time>
      </trkpt>
      <trkpt lat="47.00249" lon="-1.01485">
        <ele>87.768</ele>
        <time>2020-05-27T16:51:48Z</time>
      </trkpt>
      <trkpt lat="47.00252" lon="-1.01487">
        <ele>87.762</ele>
        <time>2020-05-27T16:51:49Z</time>
      </trkpt>
      <trkpt lat="47.00255" lon="-1.01489">
        <ele>86.612</ele>
        <time>2020-05-27T16:51:50Z</time>
      </trkpt>
      <trkpt lat="47.00257" lon="-1.01492">
        <ele>87.057</ele>
        <time>2020-05-27T16:51:51Z</time>
      </trkpt>
      <trkpt lat="47.0026" lon="-1.01495">
        <ele>86.458</ele>
        <time>2020-05-27T16:51:52Z</time>
      </trkpt>
      <trkpt lat="47.00262" lon="-1.01498">
        <ele>86.816</ele>
        <time>2020-05-27T16:51:53Z</time>
      </trkpt>
      <trkpt lat="47.00265" lon="-1.01501">
        <ele>86.949</ele>
        <time>2020-05-27T16:51:54Z</time>
      </trkpt>
      <trkpt lat="47.00267" lon="-1.01503">
        <ele>87.271</ele>
        <time>2020-05-27T16:51:55Z</time>
      </trkpt>
      <trkpt lat="47.00269" lon="-1.01507">
        <ele>87.108</ele>
        <time>2020-05-27T16:51:56Z</time>
      </trkpt>
      <trkpt lat="47.00271" lon="-1.01509">
        <ele>86.858</ele>
        <time>2020-05-27T16:51:57Z</time>
      </trkpt>
      <trkpt lat="47.00272" lon="-1.01511">
        <ele>87.563</ele>
        <time>2020-05-27T16:51:58Z</time>
      </trkpt>
      <trkpt lat="47.00274" lon="-1.01512">
        <ele>85.978</ele>
        <time>2020-05-27T16:51:59Z</time>
      </trkpt>
      <trkpt lat="47.00275" lon="-1.01513">
        <ele>86.017</ele>
        <time>2020-05-27T16:52:00Z</time>
      </trkpt>
      <trkpt lat="47.00276" lon="-1.01513">
        <ele>86.45</ele>
        <time>2020-05-27T16:52:01Z</time>
      </trkpt>
      <trkpt lat="47.00277" lon="-1.01512">
        <ele>86.395</ele>
        <time>2020-05-27T16:52:02Z</time>
      </trkpt>
      <trkpt lat="47.00278" lon="-1.01512">
        <ele>83.628</ele>
        <time>2020-05-27T16:52:03Z</time>
      </trkpt>
      <trkpt lat="47.00278" lon="-1.01513">
        <ele>83.863</ele>
        <time>2020-05-27T16:52:04Z</time>
      </trkpt>
      <trkpt lat="47.00279" lon="-1.01513">
        <ele>83.809</ele>
        <time>2020-05-27T16:52:05Z</time>
      </trkpt>
      <trkpt lat="47.00279" lon="-1.01513">
        <ele>83.496</ele>
        <time>2020-05-27T16:52:06Z</time>
      </trkpt>
      <trkpt lat="47.00279" lon="-1.01514">
        <ele>82.828</ele>
        <time>2020-05-27T16:52:07Z</time>
      </trkpt>
      <trkpt lat="47.00279" lon="-1.01514">
        <ele>83.141</ele>
        <time>2020-05-27T16:52:08Z</time>
      </trkpt>
      <trkpt lat="47.00278" lon="-1.01515">
        <ele>83.26</ele>
        <time>2020-05-27T16:52:09Z</time>
      </trkpt>
      <trkpt lat="47.00278" lon="-1.01516">
        <ele>83.986</ele>
        <time>2020-05-27T16:52:10Z</time>
      </trkpt>
      <trkpt lat="47.00278" lon="-1.01517">
        <ele>85.404</ele>
        <time>2020-05-27T16:52:11Z</time>
      </trkpt>
      <trkpt lat="47.00277" lon="-1.01519">
        <ele>88.725</ele>
        <time>2020-05-27T16:52:12Z</time>
      </trkpt>
      <trkpt lat="47.00275" lon="-1.0152">
        <ele>90.059</ele>
        <time>2020-05-27T16:52:13Z</time>
      </trkpt>
      <trkpt lat="47.00275" lon="-1.0152">
        <ele>90.219</ele>
        <time>2020-05-27T16:52:14Z</time>
      </trkpt>
      <trkpt lat="47.00274" lon="-1.01521">
        <ele>90.824</ele>
        <time>2020-05-27T16:52:15Z</time>
      </trkpt>
      <trkpt lat="47.00274" lon="-1.01522">
        <ele>92.356</ele>
        <time>2020-05-27T16:52:16Z</time>
      </trkpt>
      <trkpt lat="47.00274" lon="-1.01522">
        <ele>92.797</ele>
        <time>2020-05-27T16:52:17Z</time>
      </trkpt>
      <trkpt lat="47.00274" lon="-1.01523">
        <ele>93.259</ele>
        <time>2020-05-27T16:52:18Z</time>
      </trkpt>
      <trkpt lat="47.00274" lon="-1.01523">
        <ele>93.403</ele>
        <time>2020-05-27T16:52:19Z</time>
      </trkpt>
      <trkpt lat="47.00274" lon="-1.01523">
        <ele>93.751</ele>
        <time>2020-05-27T16:52:20Z</time>
      </trkpt>
      <trkpt lat="47.00274" lon="-1.01523">
        <ele>94.461</ele>
        <time>2020-05-27T16:52:21Z</time>
      </trkpt>
      <trkpt lat="47.00274" lon="-1.01523">
        <ele>94.676</ele>
        <time>2020-05-27T16:52:22Z</time>
      </trkpt>
      <trkpt lat="47.00274" lon="-1.01523">
        <ele>94.053</ele>
        <time>2020-05-27T16:52:23Z</time>
      </trkpt>
      <trkpt lat="47.00274" lon="-1.01523">
        <ele>93.564</ele>
        <time>2020-05-27T16:52:24Z</time>
      </trkpt>
      <trkpt lat="47.00275" lon="-1.01523">
        <ele>93.272</ele>
        <time>2020-05-27T16:52:25Z</time>
      </trkpt>
      <trkpt lat="47.00275" lon="-1.01523">
        <ele>94.141</ele>
        <time>2020-05-27T16:52:26Z</time>
      </trkpt>
      <trkpt lat="47.00275" lon="-1.01522">
        <ele>97.648</ele>
        <time>2020-05-27T16:52:27Z</time>
      </trkpt>
      <trkpt lat="47.00274" lon="-1.01523">
        <ele>97.414</ele>
        <time>2020-05-27T16:52:28Z</time>
      </trkpt>
      <trkpt lat="47.00275" lon="-1.01522">
        <ele>99.062</ele>
        <time>2020-05-27T16:52:31Z</time>
      </trkpt>
      <trkpt lat="47.00275" lon="-1.01522">
        <ele>100.272</ele>
        <time>2020-05-27T16:52:32Z</time>
      </trkpt>
      <trkpt lat="47.00276" lon="-1.01522">
        <ele>99.335</ele>
        <time>2020-05-27T16:52:33Z</time>
      </trkpt>
      <trkpt lat="47.00277" lon="-1.01524">
        <ele>102.54</ele>
        <time>2020-05-27T16:52:35Z</time>
      </trkpt>
      <trkpt lat="47.00278" lon="-1.01525">
        <ele>102.077</ele>
        <time>2020-05-27T16:52:36Z</time>
      </trkpt>
      <trkpt lat="47.00278" lon="-1.01525">
        <ele>103.125</ele>
        <time>2020-05-27T16:52:37Z</time>
      </trkpt>
      <trkpt lat="47.00279" lon="-1.01526">
        <ele>103.346</ele>
        <time>2020-05-27T16:52:38Z</time>
      </trkpt>
      <trkpt lat="47.00279" lon="-1.01526">
        <ele>103.585</ele>
        <time>2020-05-27T16:52:39Z</time>
      </trkpt>
      <trkpt lat="47.00279" lon="-1.01527">
        <ele>103.636</ele>
        <time>2020-05-27T16:52:40Z</time>
      </trkpt>
      <trkpt lat="47.00279" lon="-1.01527">
        <ele>104.119</ele>
        <time>2020-05-27T16:52:41Z</time>
      </trkpt>
      <trkpt lat="47.00279" lon="-1.01527">
        <ele>105.449</ele>
        <time>2020-05-27T16:52:42Z</time>
      </trkpt>
      <trkpt lat="47.0028" lon="-1.01527">
        <ele>105.092</ele>
        <time>2020-05-27T16:52:43Z</time>
      </trkpt>
      <trkpt lat="47.0028" lon="-1.01527">
        <ele>104.975</ele>
        <time>2020-05-27T16:52:44Z</time>
      </trkpt>
      <trkpt lat="47.00281" lon="-1.01527">
        <ele>106.427</ele>
        <time>2020-05-27T16:52:45Z</time>
      </trkpt>
      <trkpt lat="47.00281" lon="-1.01527">
        <ele>106.315</ele>
        <time>2020-05-27T16:52:46Z</time>
      </trkpt>
      <trkpt lat="47.00281" lon="-1.01526">
        <ele>106.5</ele>
        <time>2020-05-27T16:52:47Z</time>
      </trkpt>
      <trkpt lat="47.00282" lon="-1.01526">
        <ele>107.1</ele>
        <time>2020-05-27T16:52:48Z</time>
      </trkpt>
      <trkpt lat="47.00282" lon="-1.01526">
        <ele>107.297</ele>
        <time>2020-05-27T16:52:49Z</time>
      </trkpt>
      <trkpt lat="47.00282" lon="-1.01526">
        <ele>107.791</ele>
        <time>2020-05-27T16:52:50Z</time>
      </trkpt>
      <trkpt lat="47.00283" lon="-1.01526">
        <ele>108.032</ele>
        <time>2020-05-27T16:52:51Z</time>
      </trkpt>
      <trkpt lat="47.00283" lon="-1.01526">
        <ele>109.573</ele>
        <time>2020-05-27T16:52:52Z</time>
      </trkpt>
      <trkpt lat="47.00284" lon="-1.01526">
        <ele>111.187</ele>
        <time>2020-05-27T16:52:53Z</time>
      </trkpt>
      <trkpt lat="47.00285" lon="-1.01526">
        <ele>110.854</ele>
        <time>2020-05-27T16:52:54Z</time>
      </trkpt>
      <trkpt lat="47.00285" lon="-1.01526">
        <ele>110.688</ele>
        <time>2020-05-27T16:52:55Z</time>
      </trkpt>
      <trkpt lat="47.00285" lon="-1.01526">
        <ele>110.201</ele>
        <time>2020-05-27T16:52:56Z</time>
      </trkpt>
      <trkpt lat="47.00285" lon="-1.01527">
        <ele>109.088</ele>
        <time>2020-05-27T16:52:57Z</time>
      </trkpt>
      <trkpt lat="47.00286" lon="-1.01527">
        <ele>109.092</ele>
        <time>2020-05-27T16:52:58Z</time>
      </trkpt>
      <trkpt lat="47.00285" lon="-1.01527">
        <ele>109.142</ele>
        <time>2020-05-27T16:52:59Z</time>
      </trkpt>
      <trkpt lat="47.00285" lon="-1.01527">
        <ele>109.006</ele>
        <time>2020-05-27T16:53:00Z</time>
      </trkpt>
      <trkpt lat="47.00285" lon="-1.01527">
        <ele>107.983</ele>
        <time>2020-05-27T16:53:01Z</time>
      </trkpt>
      <trkpt lat="47.00285" lon="-1.01527">
        <ele>107.982</ele>
        <time>2020-05-27T16:53:02Z</time>
      </trkpt>
      <trkpt lat="47.00285" lon="-1.01527">
        <ele>109.187</ele>
        <time>2020-05-27T16:53:03Z</time>
      </trkpt>
      <trkpt lat="47.00285" lon="-1.01527">
        <ele>109.086</ele>
        <time>2020-05-27T16:53:04Z</time>
      </trkpt>
      <trkpt lat="47.00286" lon="-1.01527">
        <ele>106.743</ele>
        <time>2020-05-27T16:53:05Z</time>
      </trkpt>
      <trkpt lat="47.00287" lon="-1.01527">
        <ele>106.68</ele>
        <time>2020-05-27T16:53:06Z</time>
      </trkpt>
      <trkpt lat="47.00287" lon="-1.01527">
        <ele>106.763</ele>
        <time>2020-05-27T16:53:07Z</time>
      </trkpt>
      <trkpt lat="47.00287" lon="-1.01527">
        <ele>105.261</ele>
        <time>2020-05-27T16:53:08Z</time>
      </trkpt>
      <trkpt lat="47.00287" lon="-1.01527">
        <ele>104.966</ele>
        <time>2020-05-27T16:53:09Z</time>
      </trkpt>
      <trkpt lat="47.00288" lon="-1.01526">
        <ele>105.625</ele>
        <time>2020-05-27T16:53:10Z</time>
      </trkpt>
      <trkpt lat="47.00288" lon="-1.01526">
        <ele>103.644</ele>
        <time>2020-05-27T16:53:11Z</time>
      </trkpt>
      <trkpt lat="47.00289" lon="-1.01526">
        <ele>104.003</ele>
        <time>2020-05-27T16:53:12Z</time>
      </trkpt>
      <trkpt lat="47.00289" lon="-1.01526">
        <ele>103.799</ele>
        <time>2020-05-27T16:53:13Z</time>
      </trkpt>
      <trkpt lat="47.00289" lon="-1.01526">
        <ele>104.393</ele>
        <time>2020-05-27T16:53:14Z</time>
      </trkpt>
      <trkpt lat="47.00291" lon="-1.01526">
        <ele>102.729</ele>
        <time>2020-05-27T16:53:16Z</time>
      </trkpt>
      <trkpt lat="47.00291" lon="-1.01527">
        <ele>101.705</ele>
        <time>2020-05-27T16:53:17Z</time>
      </trkpt>
      <trkpt lat="47.00292" lon="-1.01528">
        <ele>101.761</ele>
        <time>2020-05-27T16:53:18Z</time>
      </trkpt>
      <trkpt lat="47.00292" lon="-1.0153">
        <ele>101.924</ele>
        <time>2020-05-27T16:53:19Z</time>
      </trkpt>
      <trkpt lat="47.00292" lon="-1.01532">
        <ele>99.977</ele>
        <time>2020-05-27T16:53:20Z</time>
      </trkpt>
      <trkpt lat="47.00292" lon="-1.01534">
        <ele>100.358</ele>
        <time>2020-05-27T16:53:21Z</time>
      </trkpt>
      <trkpt lat="47.00291" lon="-1.01536">
        <ele>99.641</ele>
        <time>2020-05-27T16:53:22Z</time>
      </trkpt>
      <trkpt lat="47.00289" lon="-1.01539">
        <ele>98.749</ele>
        <time>2020-05-27T16:53:24Z</time>
      </trkpt>
      <trkpt lat="47.00288" lon="-1.0154">
        <ele>99.416</ele>
        <time>2020-05-27T16:53:25Z</time>
      </trkpt>
      <trkpt lat="47.00287" lon="-1.01542">
        <ele>100.253</ele>
        <time>2020-05-27T16:53:26Z</time>
      </trkpt>
      <trkpt lat="47.00286" lon="-1.01543">
        <ele>101.086</ele>
        <time>2020-05-27T16:53:27Z</time>
      </trkpt>
      <trkpt lat="47.00286" lon="-1.01544">
        <ele>101.657</ele>
        <time>2020-05-27T16:53:28Z</time>
      </trkpt>
      <trkpt lat="47.00285" lon="-1.01546">
        <ele>101.912</ele>
        <time>2020-05-27T16:53:29Z</time>
      </trkpt>
      <trkpt lat="47.00284" lon="-1.01547">
        <ele>101.751</ele>
        <time>2020-05-27T16:53:30Z</time>
      </trkpt>
      <trkpt lat="47.00283" lon="-1.01547">
        <ele>102.741</ele>
        <time>2020-05-27T16:53:31Z</time>
      </trkpt>
      <trkpt lat="47.00282" lon="-1.01547">
        <ele>103.506</ele>
        <time>2020-05-27T16:53:32Z</time>
      </trkpt>
      <trkpt lat="47.00282" lon="-1.01546">
        <ele>103.63</ele>
        <time>2020-05-27T16:53:33Z</time>
      </trkpt>
      <trkpt lat="47.00282" lon="-1.01546">
        <ele>103.845</ele>
        <time>2020-05-27T16:53:34Z</time>
      </trkpt>
      <trkpt lat="47.00282" lon="-1.01545">
        <ele>103.733</ele>
        <time>2020-05-27T16:53:35Z</time>
      </trkpt>
      <trkpt lat="47.00282" lon="-1.01545">
        <ele>103.815</ele>
        <time>2020-05-27T16:53:37Z</time>
      </trkpt>
      <trkpt lat="47.00282" lon="-1.01545">
        <ele>104.175</ele>
        <time>2020-05-27T16:53:38Z</time>
      </trkpt>
      <trkpt lat="47.00282" lon="-1.01545">
        <ele>104.207</ele>
        <time>2020-05-27T16:53:39Z</time>
      </trkpt>
      <trkpt lat="47.00281" lon="-1.01545">
        <ele>103.984</ele>
        <time>2020-05-27T16:53:40Z</time>
      </trkpt>
      <trkpt lat="47.00281" lon="-1.01545">
        <ele>104.765</ele>
        <time>2020-05-27T16:53:41Z</time>
      </trkpt>
      <trkpt lat="47.00281" lon="-1.01545">
        <ele>105.581</ele>
        <time>2020-05-27T16:53:42Z</time>
      </trkpt>
      <trkpt lat="47.00281" lon="-1.01545">
        <ele>106.136</ele>
        <time>2020-05-27T16:53:43Z</time>
      </trkpt>
      <trkpt lat="47.00281" lon="-1.01545">
        <ele>106.293</ele>
        <time>2020-05-27T16:53:44Z</time>
      </trkpt>
      <trkpt lat="47.00281" lon="-1.01545">
        <ele>106.283</ele>
        <time>2020-05-27T16:53:45Z</time>
      </trkpt>
      <trkpt lat="47.00281" lon="-1.01545">
        <ele>106.277</ele>
        <time>2020-05-27T16:53:46Z</time>
      </trkpt>
      <trkpt lat="47.00281" lon="-1.01545">
        <ele>106.321</ele>
        <time>2020-05-27T16:53:47Z</time>
      </trkpt>
      <trkpt lat="47.0028" lon="-1.01545">
        <ele>106.331</ele>
        <time>2020-05-27T16:53:48Z</time>
      </trkpt>
      <trkpt lat="47.0028" lon="-1.01545">
        <ele>106.344</ele>
        <time>2020-05-27T16:53:49Z</time>
      </trkpt>
      <trkpt lat="47.0028" lon="-1.01545">
        <ele>106.449</ele>
        <time>2020-05-27T16:53:50Z</time>
      </trkpt>
      <trkpt lat="47.0028" lon="-1.01545">
        <ele>106.538</ele>
        <time>2020-05-27T16:53:51Z</time>
      </trkpt>
      <trkpt lat="47.0028" lon="-1.01545">
        <ele>106.376</ele>
        <time>2020-05-27T16:53:52Z</time>
      </trkpt>
      <trkpt lat="47.0028" lon="-1.01545">
        <ele>106.378</ele>
        <time>2020-05-27T16:53:53Z</time>
      </trkpt>
      <trkpt lat="47.0028" lon="-1.01545">
        <ele>106.375</ele>
        <time>2020-05-27T16:53:54Z</time>
      </trkpt>
      <trkpt lat="47.0028" lon="-1.01545">
        <ele>106.385</ele>
        <time>2020-05-27T16:53:55Z</time>
      </trkpt>
      <trkpt lat="47.0028" lon="-1.01545">
        <ele>106.461</ele>
        <time>2020-05-27T16:53:56Z</time>
      </trkpt>
      <trkpt lat="47.0028" lon="-1.01545">
        <ele>106.603</ele>
        <time>2020-05-27T16:53:57Z</time>
      </trkpt>
      <trkpt lat="47.0028" lon="-1.01545">
        <ele>106.9</ele>
        <time>2020-05-27T16:53:58Z</time>
      </trkpt>
      <trkpt lat="47.0028" lon="-1.01545">
        <ele>107.056</ele>
        <time>2020-05-27T16:53:59Z</time>
      </trkpt>
      <trkpt lat="47.0028" lon="-1.01545">
        <ele>107.052</ele>
        <time>2020-05-27T16:54:00Z</time>
      </trkpt>
      <trkpt lat="47.0028" lon="-1.01545">
        <ele>107.057</ele>
        <time>2020-05-27T16:54:01Z</time>
      </trkpt>
      <trkpt lat="47.0028" lon="-1.01545">
        <ele>107.062</ele>
        <time>2020-05-27T16:54:02Z</time>
      </trkpt>
      <trkpt lat="47.0028" lon="-1.01545">
        <ele>107.068</ele>
        <time>2020-05-27T16:54:03Z</time>
      </trkpt>
      <trkpt lat="47.0028" lon="-1.01545">
        <ele>107.085</ele>
        <time>2020-05-27T16:54:04Z</time>
      </trkpt>
      <trkpt lat="47.0028" lon="-1.01545">
        <ele>107.086</ele>
        <time>2020-05-27T16:54:05Z</time>
      </trkpt>
      <trkpt lat="47.0028" lon="-1.01545">
        <ele>107.087</ele>
        <time>2020-05-27T16:54:06Z</time>
      </trkpt>
      <trkpt lat="47.0028" lon="-1.01545">
        <ele>107.093</ele>
        <time>2020-05-27T16:54:07Z</time>
      </trkpt>
      <trkpt lat="47.0028" lon="-1.01545">
        <ele>107.097</ele>
        <time>2020-05-27T16:54:08Z</time>
      </trkpt>
      <trkpt lat="47.0028" lon="-1.01545">
        <ele>107.1</ele>
        <time>2020-05-27T16:54:09Z</time>
      </trkpt>
      <trkpt lat="47.0028" lon="-1.01545">
        <ele>107.107</ele>
        <time>2020-05-27T16:54:10Z</time>
      </trkpt>
      <trkpt lat="47.0028" lon="-1.01545">
        <ele>107.051</ele>
        <time>2020-05-27T16:54:11Z</time>
      </trkpt>
      <trkpt lat="47.0028" lon="-1.01545">
        <ele>107.097</ele>
        <time>2020-05-27T16:54:12Z</time>
      </trkpt>
      <trkpt lat="47.0028" lon="-1.01545">
        <ele>107.095</ele>
        <time>2020-05-27T16:54:13Z</time>
      </trkpt>
      <trkpt lat="47.0028" lon="-1.01545">
        <ele>107.101</ele>
        <time>2020-05-27T16:54:14Z</time>
      </trkpt>
      <trkpt lat="47.0028" lon="-1.01545">
        <ele>107.107</ele>
        <time>2020-05-27T16:54:15Z</time>
      </trkpt>
      <trkpt lat="47.0028" lon="-1.01545">
        <ele>107.106</ele>
        <time>2020-05-27T16:54:16Z</time>
      </trkpt>
      <trkpt lat="47.0028" lon="-1.01545">
        <ele>107.105</ele>
        <time>2020-05-27T16:54:17Z</time>
      </trkpt>
      <trkpt lat="47.0028" lon="-1.01545">
        <ele>107.11</ele>
        <time>2020-05-27T16:54:18Z</time>
      </trkpt>
      <trkpt lat="47.0028" lon="-1.01545">
        <ele>107.109</ele>
        <time>2020-05-27T16:54:19Z</time>
      </trkpt>
      <trkpt lat="47.0028" lon="-1.01547">
        <ele>107.626</ele>
        <time>2020-05-27T16:54:20Z</time>
      </trkpt>
      <trkpt lat="47.0028" lon="-1.01549">
        <ele>107.447</ele>
        <time>2020-05-27T16:54:21Z</time>
      </trkpt>
      <trkpt lat="47.00279" lon="-1.01552">
        <ele>107.587</ele>
        <time>2020-05-27T16:54:22Z</time>
      </trkpt>
      <trkpt lat="47.00279" lon="-1.01556">
        <ele>107.592</ele>
        <time>2020-05-27T16:54:23Z</time>
      </trkpt>
      <trkpt lat="47.00278" lon="-1.0156">
        <ele>107.684</ele>
        <time>2020-05-27T16:54:24Z</time>
      </trkpt>
      <trkpt lat="47.00276" lon="-1.01563">
        <ele>107.411</ele>
        <time>2020-05-27T16:54:25Z</time>
      </trkpt>
      <trkpt lat="47.00275" lon="-1.01566">
        <ele>107.279</ele>
        <time>2020-05-27T16:54:26Z</time>
      </trkpt>
      <trkpt lat="47.00273" lon="-1.01568">
        <ele>107.149</ele>
        <time>2020-05-27T16:54:27Z</time>
      </trkpt>
      <trkpt lat="47.00271" lon="-1.0157">
        <ele>106.879</ele>
        <time>2020-05-27T16:54:28Z</time>
      </trkpt>
      <trkpt lat="47.00269" lon="-1.01572">
        <ele>107.109</ele>
        <time>2020-05-27T16:54:29Z</time>
      </trkpt>
      <trkpt lat="47.00268" lon="-1.01574">
        <ele>107.263</ele>
        <time>2020-05-27T16:54:30Z</time>
      </trkpt>
      <trkpt lat="47.00266" lon="-1.01576">
        <ele>107.022</ele>
        <time>2020-05-27T16:54:31Z</time>
      </trkpt>
      <trkpt lat="47.00265" lon="-1.01578">
        <ele>107.039</ele>
        <time>2020-05-27T16:54:32Z</time>
      </trkpt>
      <trkpt lat="47.00264" lon="-1.01578">
        <ele>107.096</ele>
        <time>2020-05-27T16:54:33Z</time>
      </trkpt>
      <trkpt lat="47.00264" lon="-1.01578">
        <ele>106.744</ele>
        <time>2020-05-27T16:54:34Z</time>
      </trkpt>
      <trkpt lat="47.00264" lon="-1.01578">
        <ele>106.777</ele>
        <time>2020-05-27T16:54:35Z</time>
      </trkpt>
      <trkpt lat="47.00264" lon="-1.01578">
        <ele>106.191</ele>
        <time>2020-05-27T16:54:36Z</time>
      </trkpt>
      <trkpt lat="47.00264" lon="-1.01578">
        <ele>105.648</ele>
        <time>2020-05-27T16:54:37Z</time>
      </trkpt>
      <trkpt lat="47.00264" lon="-1.01579">
        <ele>106.227</ele>
        <time>2020-05-27T16:54:38Z</time>
      </trkpt>
      <trkpt lat="47.00264" lon="-1.01579">
        <ele>105.813</ele>
        <time>2020-05-27T16:54:39Z</time>
      </trkpt>
      <trkpt lat="47.00264" lon="-1.01578">
        <ele>104.963</ele>
        <time>2020-05-27T16:54:40Z</time>
      </trkpt>
      <trkpt lat="47.00264" lon="-1.01578">
        <ele>104.981</ele>
        <time>2020-05-27T16:54:41Z</time>
      </trkpt>
      <trkpt lat="47.00264" lon="-1.01578">
        <ele>105.251</ele>
        <time>2020-05-27T16:54:42Z</time>
      </trkpt>
      <trkpt lat="47.00265" lon="-1.01578">
        <ele>104.207</ele>
        <time>2020-05-27T16:54:43Z</time>
      </trkpt>
      <trkpt lat="47.00265" lon="-1.01578">
        <ele>104.656</ele>
        <time>2020-05-27T16:54:44Z</time>
      </trkpt>
      <trkpt lat="47.00265" lon="-1.01578">
        <ele>104.68</ele>
        <time>2020-05-27T16:54:45Z</time>
      </trkpt>
      <trkpt lat="47.00265" lon="-1.01578">
        <ele>104.968</ele>
        <time>2020-05-27T16:54:46Z</time>
      </trkpt>
      <trkpt lat="47.00265" lon="-1.01578">
        <ele>105.098</ele>
        <time>2020-05-27T16:54:47Z</time>
      </trkpt>
      <trkpt lat="47.00265" lon="-1.01578">
        <ele>104.648</ele>
        <time>2020-05-27T16:54:48Z</time>
      </trkpt>
      <trkpt lat="47.00266" lon="-1.01578">
        <ele>104.963</ele>
        <time>2020-05-27T16:54:49Z</time>
      </trkpt>
      <trkpt lat="47.00266" lon="-1.01579">
        <ele>106.188</ele>
        <time>2020-05-27T16:54:50Z</time>
      </trkpt>
      <trkpt lat="47.00267" lon="-1.0158">
        <ele>103.822</ele>
        <time>2020-05-27T16:54:51Z</time>
      </trkpt>
      <trkpt lat="47.00267" lon="-1.01581">
        <ele>102.605</ele>
        <time>2020-05-27T16:54:52Z</time>
      </trkpt>
      <trkpt lat="47.00268" lon="-1.01582">
        <ele>103.891</ele>
        <time>2020-05-27T16:54:53Z</time>
      </trkpt>
      <trkpt lat="47.00269" lon="-1.01584">
        <ele>100.231</ele>
        <time>2020-05-27T16:54:54Z</time>
      </trkpt>
      <trkpt lat="47.0027" lon="-1.01586">
        <ele>99.899</ele>
        <time>2020-05-27T16:54:55Z</time>
      </trkpt>
      <trkpt lat="47.00271" lon="-1.01587">
        <ele>99.535</ele>
        <time>2020-05-27T16:54:56Z</time>
      </trkpt>
      <trkpt lat="47.00271" lon="-1.01589">
        <ele>98.086</ele>
        <time>2020-05-27T16:54:57Z</time>
      </trkpt>
      <trkpt lat="47.00272" lon="-1.0159">
        <ele>98.75</ele>
        <time>2020-05-27T16:54:58Z</time>
      </trkpt>
      <trkpt lat="47.00272" lon="-1.01591">
        <ele>98.748</ele>
        <time>2020-05-27T16:54:59Z</time>
      </trkpt>
      <trkpt lat="47.00272" lon="-1.01591">
        <ele>98.787</ele>
        <time>2020-05-27T16:55:00Z</time>
      </trkpt>
      <trkpt lat="47.00272" lon="-1.01591">
        <ele>98.742</ele>
        <time>2020-05-27T16:55:01Z</time>
      </trkpt>
      <trkpt lat="47.00272" lon="-1.01591">
        <ele>97.781</ele>
        <time>2020-05-27T16:55:02Z</time>
      </trkpt>
      <trkpt lat="47.00272" lon="-1.01591">
        <ele>97.733</ele>
        <time>2020-05-27T16:55:03Z</time>
      </trkpt>
      <trkpt lat="47.00272" lon="-1.01592">
        <ele>98.049</ele>
        <time>2020-05-27T16:55:04Z</time>
      </trkpt>
      <trkpt lat="47.00272" lon="-1.01592">
        <ele>97.93</ele>
        <time>2020-05-27T16:55:05Z</time>
      </trkpt>
      <trkpt lat="47.00273" lon="-1.01592">
        <ele>97.955</ele>
        <time>2020-05-27T16:55:06Z</time>
      </trkpt>
      <trkpt lat="47.00274" lon="-1.01592">
        <ele>97.614</ele>
        <time>2020-05-27T16:55:07Z</time>
      </trkpt>
      <trkpt lat="47.00275" lon="-1.01593">
        <ele>99.329</ele>
        <time>2020-05-27T16:55:08Z</time>
      </trkpt>
      <trkpt lat="47.00278" lon="-1.01597">
        <ele>98.955</ele>
        <time>2020-05-27T16:55:10Z</time>
      </trkpt>
      <trkpt lat="47.00279" lon="-1.016">
        <ele>99.918</ele>
        <time>2020-05-27T16:55:11Z</time>
      </trkpt>
      <trkpt lat="47.0028" lon="-1.01603">
        <ele>99.71</ele>
        <time>2020-05-27T16:55:12Z</time>
      </trkpt>
      <trkpt lat="47.00281" lon="-1.01605">
        <ele>99.971</ele>
        <time>2020-05-27T16:55:13Z</time>
      </trkpt>
      <trkpt lat="47.00282" lon="-1.01608">
        <ele>100.655</ele>
        <time>2020-05-27T16:55:14Z</time>
      </trkpt>
      <trkpt lat="47.00284" lon="-1.01611">
        <ele>99.274</ele>
        <time>2020-05-27T16:55:15Z</time>
      </trkpt>
      <trkpt lat="47.00286" lon="-1.01614">
        <ele>100.212</ele>
        <time>2020-05-27T16:55:16Z</time>
      </trkpt>
      <trkpt lat="47.00288" lon="-1.01616">
        <ele>98.775</ele>
        <time>2020-05-27T16:55:17Z</time>
      </trkpt>
      <trkpt lat="47.0029" lon="-1.01618">
        <ele>98.976</ele>
        <time>2020-05-27T16:55:18Z</time>
      </trkpt>
      <trkpt lat="47.00292" lon="-1.01621">
        <ele>98.86</ele>
        <time>2020-05-27T16:55:19Z</time>
      </trkpt>
      <trkpt lat="47.00293" lon="-1.01625">
        <ele>98.154</ele>
        <time>2020-05-27T16:55:20Z</time>
      </trkpt>
      <trkpt lat="47.00295" lon="-1.01629">
        <ele>97.796</ele>
        <time>2020-05-27T16:55:21Z</time>
      </trkpt>
      <trkpt lat="47.00296" lon="-1.01632">
        <ele>98.275</ele>
        <time>2020-05-27T16:55:22Z</time>
      </trkpt>
      <trkpt lat="47.00297" lon="-1.01635">
        <ele>98.791</ele>
        <time>2020-05-27T16:55:23Z</time>
      </trkpt>
      <trkpt lat="47.00299" lon="-1.01638">
        <ele>98.642</ele>
        <time>2020-05-27T16:55:24Z</time>
      </trkpt>
      <trkpt lat="47.003" lon="-1.0164">
        <ele>95.872</ele>
        <time>2020-05-27T16:55:25Z</time>
      </trkpt>
      <trkpt lat="47.00302" lon="-1.01643">
        <ele>95.664</ele>
        <time>2020-05-27T16:55:26Z</time>
      </trkpt>
      <trkpt lat="47.00303" lon="-1.01646">
        <ele>94.65</ele>
        <time>2020-05-27T16:55:27Z</time>
      </trkpt>
      <trkpt lat="47.00304" lon="-1.01649">
        <ele>94.058</ele>
        <time>2020-05-27T16:55:28Z</time>
      </trkpt>
      <trkpt lat="47.00306" lon="-1.01652">
        <ele>94.117</ele>
        <time>2020-05-27T16:55:29Z</time>
      </trkpt>
      <trkpt lat="47.00308" lon="-1.01653">
        <ele>94.43</ele>
        <time>2020-05-27T16:55:30Z</time>
      </trkpt>
      <trkpt lat="47.0031" lon="-1.01655">
        <ele>94.851</ele>
        <time>2020-05-27T16:55:31Z</time>
      </trkpt>
      <trkpt lat="47.00312" lon="-1.01658">
        <ele>95.415</ele>
        <time>2020-05-27T16:55:32Z</time>
      </trkpt>
      <trkpt lat="47.00314" lon="-1.01662">
        <ele>93.908</ele>
        <time>2020-05-27T16:55:33Z</time>
      </trkpt>
      <trkpt lat="47.00315" lon="-1.01665">
        <ele>92.717</ele>
        <time>2020-05-27T16:55:34Z</time>
      </trkpt>
      <trkpt lat="47.00317" lon="-1.01668">
        <ele>93.345</ele>
        <time>2020-05-27T16:55:35Z</time>
      </trkpt>
      <trkpt lat="47.00319" lon="-1.01672">
        <ele>93.933</ele>
        <time>2020-05-27T16:55:36Z</time>
      </trkpt>
      <trkpt lat="47.0032" lon="-1.01674">
        <ele>92.694</ele>
        <time>2020-05-27T16:55:37Z</time>
      </trkpt>
      <trkpt lat="47.00323" lon="-1.01675">
        <ele>92.292</ele>
        <time>2020-05-27T16:55:38Z</time>
      </trkpt>
      <trkpt lat="47.00325" lon="-1.01676">
        <ele>91.149</ele>
        <time>2020-05-27T16:55:39Z</time>
      </trkpt>
      <trkpt lat="47.00328" lon="-1.01676">
        <ele>92.188</ele>
        <time>2020-05-27T16:55:40Z</time>
      </trkpt>
      <trkpt lat="47.0033" lon="-1.01677">
        <ele>92.935</ele>
        <time>2020-05-27T16:55:41Z</time>
      </trkpt>
      <trkpt lat="47.00333" lon="-1.01678">
        <ele>93.327</ele>
        <time>2020-05-27T16:55:42Z</time>
      </trkpt>
      <trkpt lat="47.00335" lon="-1.0168">
        <ele>92.378</ele>
        <time>2020-05-27T16:55:43Z</time>
      </trkpt>
      <trkpt lat="47.00338" lon="-1.01682">
        <ele>92.716</ele>
        <time>2020-05-27T16:55:44Z</time>
      </trkpt>
      <trkpt lat="47.0034" lon="-1.01683">
        <ele>92.756</ele>
        <time>2020-05-27T16:55:45Z</time>
      </trkpt>
      <trkpt lat="47.00343" lon="-1.01685">
        <ele>92.837</ele>
        <time>2020-05-27T16:55:46Z</time>
      </trkpt>
      <trkpt lat="47.00345" lon="-1.01687">
        <ele>93.195</ele>
        <time>2020-05-27T16:55:47Z</time>
      </trkpt>
      <trkpt lat="47.00348" lon="-1.01689">
        <ele>92.832</ele>
        <time>2020-05-27T16:55:48Z</time>
      </trkpt>
      <trkpt lat="47.0035" lon="-1.01691">
        <ele>93.419</ele>
        <time>2020-05-27T16:55:49Z</time>
      </trkpt>
      <trkpt lat="47.00353" lon="-1.01693">
        <ele>93.856</ele>
        <time>2020-05-27T16:55:50Z</time>
      </trkpt>
      <trkpt lat="47.00355" lon="-1.01696">
        <ele>93.827</ele>
        <time>2020-05-27T16:55:51Z</time>
      </trkpt>
      <trkpt lat="47.00358" lon="-1.01698">
        <ele>94.437</ele>
        <time>2020-05-27T16:55:52Z</time>
      </trkpt>
      <trkpt lat="47.00361" lon="-1.017">
        <ele>94.496</ele>
        <time>2020-05-27T16:55:53Z</time>
      </trkpt>
      <trkpt lat="47.00363" lon="-1.01703">
        <ele>93.869</ele>
        <time>2020-05-27T16:55:54Z</time>
      </trkpt>
      <trkpt lat="47.00365" lon="-1.01706">
        <ele>94.024</ele>
        <time>2020-05-27T16:55:55Z</time>
      </trkpt>
      <trkpt lat="47.00368" lon="-1.01709">
        <ele>93.707</ele>
        <time>2020-05-27T16:55:56Z</time>
      </trkpt>
      <trkpt lat="47.0037" lon="-1.01712">
        <ele>94.352</ele>
        <time>2020-05-27T16:55:57Z</time>
      </trkpt>
      <trkpt lat="47.00373" lon="-1.01714">
        <ele>94.563</ele>
        <time>2020-05-27T16:55:58Z</time>
      </trkpt>
      <trkpt lat="47.00375" lon="-1.01717">
        <ele>96.574</ele>
        <time>2020-05-27T16:55:59Z</time>
      </trkpt>
      <trkpt lat="47.00377" lon="-1.01719">
        <ele>95.585</ele>
        <time>2020-05-27T16:56:00Z</time>
      </trkpt>
      <trkpt lat="47.0038" lon="-1.01722">
        <ele>95.355</ele>
        <time>2020-05-27T16:56:01Z</time>
      </trkpt>
      <trkpt lat="47.00382" lon="-1.01724">
        <ele>95.316</ele>
        <time>2020-05-27T16:56:02Z</time>
      </trkpt>
      <trkpt lat="47.00385" lon="-1.01726">
        <ele>94.998</ele>
        <time>2020-05-27T16:56:03Z</time>
      </trkpt>
      <trkpt lat="47.00387" lon="-1.01728">
        <ele>95.499</ele>
        <time>2020-05-27T16:56:04Z</time>
      </trkpt>
      <trkpt lat="47.0039" lon="-1.0173">
        <ele>96.037</ele>
        <time>2020-05-27T16:56:05Z</time>
      </trkpt>
      <trkpt lat="47.00393" lon="-1.01732">
        <ele>95.252</ele>
        <time>2020-05-27T16:56:06Z</time>
      </trkpt>
      <trkpt lat="47.00395" lon="-1.01733">
        <ele>94.678</ele>
        <time>2020-05-27T16:56:07Z</time>
      </trkpt>
      <trkpt lat="47.00398" lon="-1.01734">
        <ele>95.825</ele>
        <time>2020-05-27T16:56:08Z</time>
      </trkpt>
      <trkpt lat="47.00401" lon="-1.01735">
        <ele>95.411</ele>
        <time>2020-05-27T16:56:09Z</time>
      </trkpt>
      <trkpt lat="47.00405" lon="-1.01736">
        <ele>95.877</ele>
        <time>2020-05-27T16:56:10Z</time>
      </trkpt>
      <trkpt lat="47.00408" lon="-1.01737">
        <ele>96.289</ele>
        <time>2020-05-27T16:56:11Z</time>
      </trkpt>
      <trkpt lat="47.00412" lon="-1.01739">
        <ele>96.042</ele>
        <time>2020-05-27T16:56:12Z</time>
      </trkpt>
      <trkpt lat="47.00415" lon="-1.01742">
        <ele>95.914</ele>
        <time>2020-05-27T16:56:13Z</time>
      </trkpt>
      <trkpt lat="47.00418" lon="-1.01745">
        <ele>97.065</ele>
        <time>2020-05-27T16:56:14Z</time>
      </trkpt>
      <trkpt lat="47.00421" lon="-1.01748">
        <ele>96.387</ele>
        <time>2020-05-27T16:56:15Z</time>
      </trkpt>
      <trkpt lat="47.00425" lon="-1.01751">
        <ele>99.752</ele>
        <time>2020-05-27T16:56:16Z</time>
      </trkpt>
      <trkpt lat="47.00428" lon="-1.01753">
        <ele>98.838</ele>
        <time>2020-05-27T16:56:17Z</time>
      </trkpt>
      <trkpt lat="47.00431" lon="-1.01756">
        <ele>98.038</ele>
        <time>2020-05-27T16:56:18Z</time>
      </trkpt>
      <trkpt lat="47.00434" lon="-1.01759">
        <ele>97.662</ele>
        <time>2020-05-27T16:56:19Z</time>
      </trkpt>
      <trkpt lat="47.00438" lon="-1.01763">
        <ele>96.786</ele>
        <time>2020-05-27T16:56:20Z</time>
      </trkpt>
      <trkpt lat="47.0044" lon="-1.01768">
        <ele>96.073</ele>
        <time>2020-05-27T16:56:21Z</time>
      </trkpt>
      <trkpt lat="47.00443" lon="-1.01772">
        <ele>95.588</ele>
        <time>2020-05-27T16:56:22Z</time>
      </trkpt>
      <trkpt lat="47.00447" lon="-1.01775">
        <ele>95.91</ele>
        <time>2020-05-27T16:56:23Z</time>
      </trkpt>
      <trkpt lat="47.0045" lon="-1.01778">
        <ele>96.244</ele>
        <time>2020-05-27T16:56:24Z</time>
      </trkpt>
      <trkpt lat="47.00454" lon="-1.01781">
        <ele>96.398</ele>
        <time>2020-05-27T16:56:25Z</time>
      </trkpt>
      <trkpt lat="47.00458" lon="-1.01784">
        <ele>96.49</ele>
        <time>2020-05-27T16:56:26Z</time>
      </trkpt>
      <trkpt lat="47.00461" lon="-1.01788">
        <ele>96.384</ele>
        <time>2020-05-27T16:56:27Z</time>
      </trkpt>
      <trkpt lat="47.00465" lon="-1.01791">
        <ele>96.626</ele>
        <time>2020-05-27T16:56:28Z</time>
      </trkpt>
      <trkpt lat="47.00468" lon="-1.01796">
        <ele>96.658</ele>
        <time>2020-05-27T16:56:29Z</time>
      </trkpt>
      <trkpt lat="47.00471" lon="-1.018">
        <ele>97.29</ele>
        <time>2020-05-27T16:56:30Z</time>
      </trkpt>
      <trkpt lat="47.00474" lon="-1.01804">
        <ele>97.025</ele>
        <time>2020-05-27T16:56:31Z</time>
      </trkpt>
      <trkpt lat="47.00476" lon="-1.01809">
        <ele>96.588</ele>
        <time>2020-05-27T16:56:32Z</time>
      </trkpt>
      <trkpt lat="47.00479" lon="-1.01813">
        <ele>95.967</ele>
        <time>2020-05-27T16:56:33Z</time>
      </trkpt>
      <trkpt lat="47.00481" lon="-1.01817">
        <ele>96.036</ele>
        <time>2020-05-27T16:56:34Z</time>
      </trkpt>
      <trkpt lat="47.00482" lon="-1.01821">
        <ele>96.035</ele>
        <time>2020-05-27T16:56:35Z</time>
      </trkpt>
      <trkpt lat="47.00484" lon="-1.01824">
        <ele>96.297</ele>
        <time>2020-05-27T16:56:36Z</time>
      </trkpt>
      <trkpt lat="47.00485" lon="-1.01826">
        <ele>97.009</ele>
        <time>2020-05-27T16:56:37Z</time>
      </trkpt>
      <trkpt lat="47.00486" lon="-1.01827">
        <ele>97.942</ele>
        <time>2020-05-27T16:56:38Z</time>
      </trkpt>
      <trkpt lat="47.00485" lon="-1.01827">
        <ele>98.282</ele>
        <time>2020-05-27T16:56:39Z</time>
      </trkpt>
      <trkpt lat="47.00485" lon="-1.01827">
        <ele>98.307</ele>
        <time>2020-05-27T16:56:40Z</time>
      </trkpt>
      <trkpt lat="47.00485" lon="-1.01828">
        <ele>98.822</ele>
        <time>2020-05-27T16:56:41Z</time>
      </trkpt>
      <trkpt lat="47.00485" lon="-1.01828">
        <ele>99.107</ele>
        <time>2020-05-27T16:56:42Z</time>
      </trkpt>
      <trkpt lat="47.00484" lon="-1.01828">
        <ele>99.469</ele>
        <time>2020-05-27T16:56:43Z</time>
      </trkpt>
      <trkpt lat="47.00484" lon="-1.01828">
        <ele>99.426</ele>
        <time>2020-05-27T16:56:44Z</time>
      </trkpt>
      <trkpt lat="47.00484" lon="-1.01828">
        <ele>99.763</ele>
        <time>2020-05-27T16:56:45Z</time>
      </trkpt>
      <trkpt lat="47.00484" lon="-1.01828">
        <ele>99.95</ele>
        <time>2020-05-27T16:56:46Z</time>
      </trkpt>
      <trkpt lat="47.00484" lon="-1.01828">
        <ele>100.588</ele>
        <time>2020-05-27T16:56:47Z</time>
      </trkpt>
      <trkpt lat="47.00484" lon="-1.01828">
        <ele>100.067</ele>
        <time>2020-05-27T16:56:48Z</time>
      </trkpt>
      <trkpt lat="47.00484" lon="-1.01829">
        <ele>101.071</ele>
        <time>2020-05-27T16:56:49Z</time>
      </trkpt>
      <trkpt lat="47.00483" lon="-1.0183">
        <ele>100.489</ele>
        <time>2020-05-27T16:56:50Z</time>
      </trkpt>
      <trkpt lat="47.00483" lon="-1.0183">
        <ele>100.291</ele>
        <time>2020-05-27T16:56:51Z</time>
      </trkpt>
      <trkpt lat="47.00483" lon="-1.01831">
        <ele>100.672</ele>
        <time>2020-05-27T16:56:52Z</time>
      </trkpt>
      <trkpt lat="47.00483" lon="-1.01832">
        <ele>100.461</ele>
        <time>2020-05-27T16:56:53Z</time>
      </trkpt>
      <trkpt lat="47.00482" lon="-1.01833">
        <ele>100.54</ele>
        <time>2020-05-27T16:56:54Z</time>
      </trkpt>
      <trkpt lat="47.00482" lon="-1.01833">
        <ele>100.228</ele>
        <time>2020-05-27T16:56:55Z</time>
      </trkpt>
      <trkpt lat="47.00482" lon="-1.01833">
        <ele>99.838</ele>
        <time>2020-05-27T16:56:56Z</time>
      </trkpt>
      <trkpt lat="47.00482" lon="-1.01834">
        <ele>99.622</ele>
        <time>2020-05-27T16:56:57Z</time>
      </trkpt>
      <trkpt lat="47.00481" lon="-1.01834">
        <ele>99.443</ele>
        <time>2020-05-27T16:56:58Z</time>
      </trkpt>
      <trkpt lat="47.00482" lon="-1.01834">
        <ele>99.523</ele>
        <time>2020-05-27T16:56:59Z</time>
      </trkpt>
      <trkpt lat="47.00482" lon="-1.01834">
        <ele>99.493</ele>
        <time>2020-05-27T16:57:00Z</time>
      </trkpt>
      <trkpt lat="47.00482" lon="-1.01834">
        <ele>99.557</ele>
        <time>2020-05-27T16:57:01Z</time>
      </trkpt>
      <trkpt lat="47.00482" lon="-1.01834">
        <ele>99.598</ele>
        <time>2020-05-27T16:57:02Z</time>
      </trkpt>
      <trkpt lat="47.00482" lon="-1.01834">
        <ele>99.632</ele>
        <time>2020-05-27T16:57:03Z</time>
      </trkpt>
      <trkpt lat="47.00482" lon="-1.01834">
        <ele>99.655</ele>
        <time>2020-05-27T16:57:04Z</time>
      </trkpt>
      <trkpt lat="47.00482" lon="-1.01834">
        <ele>99.667</ele>
        <time>2020-05-27T16:57:05Z</time>
      </trkpt>
      <trkpt lat="47.00482" lon="-1.01834">
        <ele>99.682</ele>
        <time>2020-05-27T16:57:06Z</time>
      </trkpt>
      <trkpt lat="47.00482" lon="-1.01834">
        <ele>99.688</ele>
        <time>2020-05-27T16:57:07Z</time>
      </trkpt>
      <trkpt lat="47.00482" lon="-1.01834">
        <ele>99.687</ele>
        <time>2020-05-27T16:57:08Z</time>
      </trkpt>
      <trkpt lat="47.00482" lon="-1.01834">
        <ele>99.695</ele>
        <time>2020-05-27T16:57:09Z</time>
      </trkpt>
      <trkpt lat="47.00482" lon="-1.01834">
        <ele>99.702</ele>
        <time>2020-05-27T16:57:10Z</time>
      </trkpt>
      <trkpt lat="47.00482" lon="-1.01834">
        <ele>99.712</ele>
        <time>2020-05-27T16:57:11Z</time>
      </trkpt>
      <trkpt lat="47.00482" lon="-1.01833">
        <ele>100.648</ele>
        <time>2020-05-27T16:57:12Z</time>
      </trkpt>
      <trkpt lat="47.00482" lon="-1.01834">
        <ele>100.967</ele>
        <time>2020-05-27T16:57:13Z</time>
      </trkpt>
      <trkpt lat="47.00482" lon="-1.01833">
        <ele>100.848</ele>
        <time>2020-05-27T16:57:14Z</time>
      </trkpt>
      <trkpt lat="47.00482" lon="-1.01833">
        <ele>100.567</ele>
        <time>2020-05-27T16:57:15Z</time>
      </trkpt>
      <trkpt lat="47.00482" lon="-1.01833">
        <ele>101.248</ele>
        <time>2020-05-27T16:57:16Z</time>
      </trkpt>
      <trkpt lat="47.00482" lon="-1.01833">
        <ele>101.18</ele>
        <time>2020-05-27T16:57:17Z</time>
      </trkpt>
      <trkpt lat="47.00482" lon="-1.01833">
        <ele>100.996</ele>
        <time>2020-05-27T16:57:18Z</time>
      </trkpt>
      <trkpt lat="47.00482" lon="-1.01833">
        <ele>100.731</ele>
        <time>2020-05-27T16:57:19Z</time>
      </trkpt>
      <trkpt lat="47.00481" lon="-1.01833">
        <ele>100.858</ele>
        <time>2020-05-27T16:57:20Z</time>
      </trkpt>
      <trkpt lat="47.00481" lon="-1.01832">
        <ele>101.02</ele>
        <time>2020-05-27T16:57:21Z</time>
      </trkpt>
      <trkpt lat="47.00481" lon="-1.01832">
        <ele>101.131</ele>
        <time>2020-05-27T16:57:22Z</time>
      </trkpt>
      <trkpt lat="47.00481" lon="-1.01832">
        <ele>101.245</ele>
        <time>2020-05-27T16:57:23Z</time>
      </trkpt>
      <trkpt lat="47.00481" lon="-1.01832">
        <ele>100.948</ele>
        <time>2020-05-27T16:57:24Z</time>
      </trkpt>
      <trkpt lat="47.00481" lon="-1.01832">
        <ele>101.517</ele>
        <time>2020-05-27T16:57:25Z</time>
      </trkpt>
      <trkpt lat="47.00481" lon="-1.01832">
        <ele>102.997</ele>
        <time>2020-05-27T16:57:26Z</time>
      </trkpt>
      <trkpt lat="47.00481" lon="-1.01832">
        <ele>102.733</ele>
        <time>2020-05-27T16:57:27Z</time>
      </trkpt>
      <trkpt lat="47.00481" lon="-1.01832">
        <ele>103.273</ele>
        <time>2020-05-27T16:57:28Z</time>
      </trkpt>
      <trkpt lat="47.00481" lon="-1.01833">
        <ele>103.112</ele>
        <time>2020-05-27T16:57:29Z</time>
      </trkpt>
      <trkpt lat="47.00481" lon="-1.01833">
        <ele>102.761</ele>
        <time>2020-05-27T16:57:30Z</time>
      </trkpt>
      <trkpt lat="47.00481" lon="-1.01833">
        <ele>103.764</ele>
        <time>2020-05-27T16:57:31Z</time>
      </trkpt>
      <trkpt lat="47.00481" lon="-1.01833">
        <ele>103.494</ele>
        <time>2020-05-27T16:57:32Z</time>
      </trkpt>
      <trkpt lat="47.00481" lon="-1.01834">
        <ele>102.727</ele>
        <time>2020-05-27T16:57:33Z</time>
      </trkpt>
      <trkpt lat="47.00481" lon="-1.01834">
        <ele>100.733</ele>
        <time>2020-05-27T16:57:34Z</time>
      </trkpt>
      <trkpt lat="47.00481" lon="-1.01834">
        <ele>99.41</ele>
        <time>2020-05-27T16:57:35Z</time>
      </trkpt>
      <trkpt lat="47.00481" lon="-1.01834">
        <ele>99.301</ele>
        <time>2020-05-27T16:57:36Z</time>
      </trkpt>
      <trkpt lat="47.00481" lon="-1.01834">
        <ele>99.26</ele>
        <time>2020-05-27T16:57:37Z</time>
      </trkpt>
      <trkpt lat="47.00481" lon="-1.01834">
        <ele>99.259</ele>
        <time>2020-05-27T16:57:38Z</time>
      </trkpt>
      <trkpt lat="47.00481" lon="-1.01834">
        <ele>99.351</ele>
        <time>2020-05-27T16:57:39Z</time>
      </trkpt>
      <trkpt lat="47.00481" lon="-1.01834">
        <ele>99.351</ele>
        <time>2020-05-27T16:57:40Z</time>
      </trkpt>
      <trkpt lat="47.00481" lon="-1.01834">
        <ele>99.358</ele>
        <time>2020-05-27T16:57:41Z</time>
      </trkpt>
      <trkpt lat="47.00481" lon="-1.01834">
        <ele>99.358</ele>
        <time>2020-05-27T16:57:42Z</time>
      </trkpt>
      <trkpt lat="47.00481" lon="-1.01834">
        <ele>99.341</ele>
        <time>2020-05-27T16:57:43Z</time>
      </trkpt>
      <trkpt lat="47.00481" lon="-1.01834">
        <ele>99.364</ele>
        <time>2020-05-27T16:57:44Z</time>
      </trkpt>
      <trkpt lat="47.00481" lon="-1.01834">
        <ele>99.353</ele>
        <time>2020-05-27T16:57:45Z</time>
      </trkpt>
      <trkpt lat="47.00481" lon="-1.01834">
        <ele>99.346</ele>
        <time>2020-05-27T16:57:46Z</time>
      </trkpt>
      <trkpt lat="47.00481" lon="-1.01834">
        <ele>99.359</ele>
        <time>2020-05-27T16:57:47Z</time>
      </trkpt>
      <trkpt lat="47.00481" lon="-1.01834">
        <ele>99.367</ele>
        <time>2020-05-27T16:57:48Z</time>
      </trkpt>
      <trkpt lat="47.00481" lon="-1.01834">
        <ele>99.366</ele>
        <time>2020-05-27T16:57:49Z</time>
      </trkpt>
      <trkpt lat="47.00481" lon="-1.01834">
        <ele>99.358</ele>
        <time>2020-05-27T16:57:50Z</time>
      </trkpt>
      <trkpt lat="47.00481" lon="-1.01834">
        <ele>99.362</ele>
        <time>2020-05-27T16:57:51Z</time>
      </trkpt>
      <trkpt lat="47.00481" lon="-1.01834">
        <ele>99.361</ele>
        <time>2020-05-27T16:57:52Z</time>
      </trkpt>
      <trkpt lat="47.00481" lon="-1.01834">
        <ele>99.354</ele>
        <time>2020-05-27T16:57:53Z</time>
      </trkpt>
      <trkpt lat="47.00481" lon="-1.01834">
        <ele>99.351</ele>
        <time>2020-05-27T16:57:54Z</time>
      </trkpt>
      <trkpt lat="47.00481" lon="-1.01834">
        <ele>99.371</ele>
        <time>2020-05-27T16:57:55Z</time>
      </trkpt>
      <trkpt lat="47.00481" lon="-1.01834">
        <ele>99.369</ele>
        <time>2020-05-27T16:57:56Z</time>
      </trkpt>
      <trkpt lat="47.00481" lon="-1.01834">
        <ele>99.369</ele>
        <time>2020-05-27T16:57:57Z</time>
      </trkpt>
      <trkpt lat="47.00481" lon="-1.01834">
        <ele>99.391</ele>
        <time>2020-05-27T16:57:58Z</time>
      </trkpt>
      <trkpt lat="47.00481" lon="-1.01834">
        <ele>99.408</ele>
        <time>2020-05-27T16:57:59Z</time>
      </trkpt>
      <trkpt lat="47.00481" lon="-1.01834">
        <ele>99.431</ele>
        <time>2020-05-27T16:58:00Z</time>
      </trkpt>
      <trkpt lat="47.00481" lon="-1.01834">
        <ele>99.44</ele>
        <time>2020-05-27T16:58:01Z</time>
      </trkpt>
      <trkpt lat="47.00481" lon="-1.01834">
        <ele>99.445</ele>
        <time>2020-05-27T16:58:02Z</time>
      </trkpt>
      <trkpt lat="47.00481" lon="-1.01834">
        <ele>99.449</ele>
        <time>2020-05-27T16:58:03Z</time>
      </trkpt>
      <trkpt lat="47.00481" lon="-1.01834">
        <ele>99.466</ele>
        <time>2020-05-27T16:58:04Z</time>
      </trkpt>
      <trkpt lat="47.00481" lon="-1.01834">
        <ele>99.356</ele>
        <time>2020-05-27T16:58:05Z</time>
      </trkpt>
      <trkpt lat="47.00481" lon="-1.01834">
        <ele>99.505</ele>
        <time>2020-05-27T16:58:06Z</time>
      </trkpt>
      <trkpt lat="47.00481" lon="-1.01834">
        <ele>99.302</ele>
        <time>2020-05-27T16:58:07Z</time>
      </trkpt>
      <trkpt lat="47.00481" lon="-1.01834">
        <ele>98.979</ele>
        <time>2020-05-27T16:58:08Z</time>
      </trkpt>
      <trkpt lat="47.00481" lon="-1.01834">
        <ele>99.007</ele>
        <time>2020-05-27T16:58:09Z</time>
      </trkpt>
      <trkpt lat="47.00481" lon="-1.01834">
        <ele>98.882</ele>
        <time>2020-05-27T16:58:10Z</time>
      </trkpt>
      <trkpt lat="47.00481" lon="-1.01834">
        <ele>98.896</ele>
        <time>2020-05-27T16:58:11Z</time>
      </trkpt>
      <trkpt lat="47.00481" lon="-1.01834">
        <ele>98.851</ele>
        <time>2020-05-27T16:58:12Z</time>
      </trkpt>
      <trkpt lat="47.00481" lon="-1.01834">
        <ele>98.851</ele>
        <time>2020-05-27T16:58:13Z</time>
      </trkpt>
      <trkpt lat="47.00481" lon="-1.01834">
        <ele>98.86</ele>
        <time>2020-05-27T16:58:14Z</time>
      </trkpt>
      <trkpt lat="47.00481" lon="-1.01834">
        <ele>98.862</ele>
        <time>2020-05-27T16:58:15Z</time>
      </trkpt>
      <trkpt lat="47.00481" lon="-1.01834">
        <ele>98.864</ele>
        <time>2020-05-27T16:58:16Z</time>
      </trkpt>
      <trkpt lat="47.00481" lon="-1.01834">
        <ele>99.559</ele>
        <time>2020-05-27T16:58:17Z</time>
      </trkpt>
      <trkpt lat="47.00481" lon="-1.01834">
        <ele>99.436</ele>
        <time>2020-05-27T16:58:18Z</time>
      </trkpt>
      <trkpt lat="47.00481" lon="-1.01834">
        <ele>99.272</ele>
        <time>2020-05-27T16:58:19Z</time>
      </trkpt>
      <trkpt lat="47.00481" lon="-1.01834">
        <ele>99.183</ele>
        <time>2020-05-27T16:58:20Z</time>
      </trkpt>
      <trkpt lat="47.00481" lon="-1.01834">
        <ele>99.128</ele>
        <time>2020-05-27T16:58:21Z</time>
      </trkpt>
      <trkpt lat="47.00481" lon="-1.01834">
        <ele>99.067</ele>
        <time>2020-05-27T16:58:22Z</time>
      </trkpt>
      <trkpt lat="47.00481" lon="-1.01834">
        <ele>99.037</ele>
        <time>2020-05-27T16:58:23Z</time>
      </trkpt>
      <trkpt lat="47.00481" lon="-1.01834">
        <ele>99.015</ele>
        <time>2020-05-27T16:58:24Z</time>
      </trkpt>
      <trkpt lat="47.00481" lon="-1.01834">
        <ele>98.984</ele>
        <time>2020-05-27T16:58:25Z</time>
      </trkpt>
      <trkpt lat="47.00481" lon="-1.01834">
        <ele>99.007</ele>
        <time>2020-05-27T16:58:26Z</time>
      </trkpt>
      <trkpt lat="47.00481" lon="-1.01834">
        <ele>98.988</ele>
        <time>2020-05-27T16:58:27Z</time>
      </trkpt>
      <trkpt lat="47.00481" lon="-1.01834">
        <ele>98.982</ele>
        <time>2020-05-27T16:58:28Z</time>
      </trkpt>
      <trkpt lat="47.00481" lon="-1.01834">
        <ele>98.977</ele>
        <time>2020-05-27T16:58:29Z</time>
      </trkpt>
      <trkpt lat="47.00481" lon="-1.01834">
        <ele>98.988</ele>
        <time>2020-05-27T16:58:30Z</time>
      </trkpt>
      <trkpt lat="47.0048" lon="-1.01833">
        <ele>99.142</ele>
        <time>2020-05-27T16:58:31Z</time>
      </trkpt>
      <trkpt lat="47.00479" lon="-1.01832">
        <ele>99.05</ele>
        <time>2020-05-27T16:58:32Z</time>
      </trkpt>
      <trkpt lat="47.00479" lon="-1.01831">
        <ele>98.732</ele>
        <time>2020-05-27T16:58:33Z</time>
      </trkpt>
      <trkpt lat="47.00479" lon="-1.01831">
        <ele>98.875</ele>
        <time>2020-05-27T16:58:34Z</time>
      </trkpt>
      <trkpt lat="47.00479" lon="-1.01831">
        <ele>98.877</ele>
        <time>2020-05-27T16:58:35Z</time>
      </trkpt>
      <trkpt lat="47.00479" lon="-1.01831">
        <ele>99.157</ele>
        <time>2020-05-27T16:58:36Z</time>
      </trkpt>
      <trkpt lat="47.00479" lon="-1.01832">
        <ele>99.425</ele>
        <time>2020-05-27T16:58:39Z</time>
      </trkpt>
      <trkpt lat="47.00479" lon="-1.01832">
        <ele>99.988</ele>
        <time>2020-05-27T16:58:40Z</time>
      </trkpt>
      <trkpt lat="47.00479" lon="-1.01832">
        <ele>99.794</ele>
        <time>2020-05-27T16:58:41Z</time>
      </trkpt>
      <trkpt lat="47.00479" lon="-1.01832">
        <ele>99.381</ele>
        <time>2020-05-27T16:58:42Z</time>
      </trkpt>
      <trkpt lat="47.00479" lon="-1.01832">
        <ele>99.33</ele>
        <time>2020-05-27T16:58:43Z</time>
      </trkpt>
      <trkpt lat="47.00479" lon="-1.01832">
        <ele>97.761</ele>
        <time>2020-05-27T16:58:44Z</time>
      </trkpt>
      <trkpt lat="47.00479" lon="-1.01832">
        <ele>96.507</ele>
        <time>2020-05-27T16:58:45Z</time>
      </trkpt>
      <trkpt lat="47.00479" lon="-1.01833">
        <ele>95.535</ele>
        <time>2020-05-27T16:58:46Z</time>
      </trkpt>
      <trkpt lat="47.00479" lon="-1.01834">
        <ele>97.587</ele>
        <time>2020-05-27T16:58:47Z</time>
      </trkpt>
      <trkpt lat="47.0048" lon="-1.01834">
        <ele>97.23</ele>
        <time>2020-05-27T16:58:48Z</time>
      </trkpt>
      <trkpt lat="47.0048" lon="-1.01834">
        <ele>97.241</ele>
        <time>2020-05-27T16:58:49Z</time>
      </trkpt>
      <trkpt lat="47.0048" lon="-1.01834">
        <ele>96.829</ele>
        <time>2020-05-27T16:58:50Z</time>
      </trkpt>
      <trkpt lat="47.0048" lon="-1.01834">
        <ele>97.687</ele>
        <time>2020-05-27T16:58:51Z</time>
      </trkpt>
      <trkpt lat="47.0048" lon="-1.01834">
        <ele>97.527</ele>
        <time>2020-05-27T16:58:52Z</time>
      </trkpt>
      <trkpt lat="47.0048" lon="-1.01834">
        <ele>97.102</ele>
        <time>2020-05-27T16:58:53Z</time>
      </trkpt>
      <trkpt lat="47.00479" lon="-1.01834">
        <ele>97.119</ele>
        <time>2020-05-27T16:58:54Z</time>
      </trkpt>
      <trkpt lat="47.00479" lon="-1.01834">
        <ele>97.909</ele>
        <time>2020-05-27T16:58:55Z</time>
      </trkpt>
      <trkpt lat="47.00479" lon="-1.01834">
        <ele>98.383</ele>
        <time>2020-05-27T16:58:56Z</time>
      </trkpt>
      <trkpt lat="47.00479" lon="-1.01834">
        <ele>98.803</ele>
        <time>2020-05-27T16:58:57Z</time>
      </trkpt>
      <trkpt lat="47.00479" lon="-1.01834">
        <ele>99.055</ele>
        <time>2020-05-27T16:58:58Z</time>
      </trkpt>
      <trkpt lat="47.00478" lon="-1.01834">
        <ele>97.67</ele>
        <time>2020-05-27T16:59:00Z</time>
      </trkpt>
      <trkpt lat="47.00478" lon="-1.01834">
        <ele>98.295</ele>
        <time>2020-05-27T16:59:01Z</time>
      </trkpt>
      <trkpt lat="47.00478" lon="-1.01834">
        <ele>96.455</ele>
        <time>2020-05-27T16:59:02Z</time>
      </trkpt>
      <trkpt lat="47.00478" lon="-1.01835">
        <ele>97.055</ele>
        <time>2020-05-27T16:59:03Z</time>
      </trkpt>
      <trkpt lat="47.00478" lon="-1.01835">
        <ele>97.602</ele>
        <time>2020-05-27T16:59:04Z</time>
      </trkpt>
      <trkpt lat="47.00479" lon="-1.01835">
        <ele>97.952</ele>
        <time>2020-05-27T16:59:05Z</time>
      </trkpt>
      <trkpt lat="47.00479" lon="-1.01834">
        <ele>98.389</ele>
        <time>2020-05-27T16:59:06Z</time>
      </trkpt>
      <trkpt lat="47.00479" lon="-1.01834">
        <ele>98.666</ele>
        <time>2020-05-27T16:59:07Z</time>
      </trkpt>
      <trkpt lat="47.00479" lon="-1.01835">
        <ele>98.855</ele>
        <time>2020-05-27T16:59:08Z</time>
      </trkpt>
      <trkpt lat="47.0048" lon="-1.01835">
        <ele>99.461</ele>
        <time>2020-05-27T16:59:09Z</time>
      </trkpt>
      <trkpt lat="47.0048" lon="-1.01835">
        <ele>99.408</ele>
        <time>2020-05-27T16:59:10Z</time>
      </trkpt>
      <trkpt lat="47.0048" lon="-1.01835">
        <ele>99.581</ele>
        <time>2020-05-27T16:59:11Z</time>
      </trkpt>
      <trkpt lat="47.0048" lon="-1.01835">
        <ele>99.598</ele>
        <time>2020-05-27T16:59:12Z</time>
      </trkpt>
      <trkpt lat="47.0048" lon="-1.01835">
        <ele>99.471</ele>
        <time>2020-05-27T16:59:13Z</time>
      </trkpt>
      <trkpt lat="47.0048" lon="-1.01835">
        <ele>98.82</ele>
        <time>2020-05-27T16:59:14Z</time>
      </trkpt>
      <trkpt lat="47.00479" lon="-1.01835">
        <ele>98.795</ele>
        <time>2020-05-27T16:59:15Z</time>
      </trkpt>
      <trkpt lat="47.0048" lon="-1.01834">
        <ele>98.677</ele>
        <time>2020-05-27T16:59:16Z</time>
      </trkpt>
      <trkpt lat="47.0048" lon="-1.01834">
        <ele>98.645</ele>
        <time>2020-05-27T16:59:17Z</time>
      </trkpt>
      <trkpt lat="47.0048" lon="-1.01834">
        <ele>98.595</ele>
        <time>2020-05-27T16:59:18Z</time>
      </trkpt>
      <trkpt lat="47.0048" lon="-1.01834">
        <ele>98.456</ele>
        <time>2020-05-27T16:59:19Z</time>
      </trkpt>
      <trkpt lat="47.0048" lon="-1.01834">
        <ele>99.065</ele>
        <time>2020-05-27T16:59:20Z</time>
      </trkpt>
      <trkpt lat="47.0048" lon="-1.01834">
        <ele>99.315</ele>
        <time>2020-05-27T16:59:22Z</time>
      </trkpt>
      <trkpt lat="47.0048" lon="-1.01833">
        <ele>99.776</ele>
        <time>2020-05-27T16:59:23Z</time>
      </trkpt>
      <trkpt lat="47.0048" lon="-1.01833">
        <ele>99.841</ele>
        <time>2020-05-27T16:59:24Z</time>
      </trkpt>
      <trkpt lat="47.0048" lon="-1.01832">
        <ele>99.786</ele>
        <time>2020-05-27T16:59:25Z</time>
      </trkpt>
      <trkpt lat="47.0048" lon="-1.01832">
        <ele>99.952</ele>
        <time>2020-05-27T16:59:26Z</time>
      </trkpt>
      <trkpt lat="47.0048" lon="-1.01832">
        <ele>99.97</ele>
        <time>2020-05-27T16:59:27Z</time>
      </trkpt>
      <trkpt lat="47.0048" lon="-1.01832">
        <ele>99.881</ele>
        <time>2020-05-27T16:59:28Z</time>
      </trkpt>
      <trkpt lat="47.0048" lon="-1.01832">
        <ele>99.856</ele>
        <time>2020-05-27T16:59:29Z</time>
      </trkpt>
      <trkpt lat="47.0048" lon="-1.01832">
        <ele>99.93</ele>
        <time>2020-05-27T16:59:30Z</time>
      </trkpt>
      <trkpt lat="47.0048" lon="-1.01832">
        <ele>100.139</ele>
        <time>2020-05-27T16:59:31Z</time>
      </trkpt>
      <trkpt lat="47.0048" lon="-1.01832">
        <ele>100.232</ele>
        <time>2020-05-27T16:59:32Z</time>
      </trkpt>
      <trkpt lat="47.0048" lon="-1.01832">
        <ele>100.237</ele>
        <time>2020-05-27T16:59:33Z</time>
      </trkpt>
      <trkpt lat="47.0048" lon="-1.01832">
        <ele>100.163</ele>
        <time>2020-05-27T16:59:34Z</time>
      </trkpt>
      <trkpt lat="47.0048" lon="-1.01831">
        <ele>100.162</ele>
        <time>2020-05-27T16:59:35Z</time>
      </trkpt>
      <trkpt lat="47.0048" lon="-1.01831">
        <ele>100.163</ele>
        <time>2020-05-27T16:59:36Z</time>
      </trkpt>
      <trkpt lat="47.0048" lon="-1.01831">
        <ele>100.166</ele>
        <time>2020-05-27T16:59:37Z</time>
      </trkpt>
      <trkpt lat="47.0048" lon="-1.01831">
        <ele>100.164</ele>
        <time>2020-05-27T16:59:38Z</time>
      </trkpt>
      <trkpt lat="47.0048" lon="-1.01831">
        <ele>100.164</ele>
        <time>2020-05-27T16:59:39Z</time>
      </trkpt>
      <trkpt lat="47.0048" lon="-1.01831">
        <ele>100.163</ele>
        <time>2020-05-27T16:59:40Z</time>
      </trkpt>
      <trkpt lat="47.0048" lon="-1.01831">
        <ele>100.117</ele>
        <time>2020-05-27T16:59:41Z</time>
      </trkpt>
      <trkpt lat="47.0048" lon="-1.01831">
        <ele>100.094</ele>
        <time>2020-05-27T16:59:42Z</time>
      </trkpt>
      <trkpt lat="47.0048" lon="-1.01832">
        <ele>98.796</ele>
        <time>2020-05-27T16:59:43Z</time>
      </trkpt>
      <trkpt lat="47.00481" lon="-1.01832">
        <ele>97.368</ele>
        <time>2020-05-27T16:59:44Z</time>
      </trkpt>
      <trkpt lat="47.00481" lon="-1.01833">
        <ele>97.808</ele>
        <time>2020-05-27T16:59:45Z</time>
      </trkpt>
      <trkpt lat="47.00481" lon="-1.01833">
        <ele>97.904</ele>
        <time>2020-05-27T16:59:46Z</time>
      </trkpt>
      <trkpt lat="47.00481" lon="-1.01833">
        <ele>97.774</ele>
        <time>2020-05-27T16:59:47Z</time>
      </trkpt>
      <trkpt lat="47.00481" lon="-1.01833">
        <ele>97.775</ele>
        <time>2020-05-27T16:59:48Z</time>
      </trkpt>
      <trkpt lat="47.00481" lon="-1.01833">
        <ele>97.515</ele>
        <time>2020-05-27T16:59:49Z</time>
      </trkpt>
      <trkpt lat="47.00481" lon="-1.01833">
        <ele>97.508</ele>
        <time>2020-05-27T16:59:50Z</time>
      </trkpt>
      <trkpt lat="47.00481" lon="-1.01833">
        <ele>97.491</ele>
        <time>2020-05-27T16:59:51Z</time>
      </trkpt>
      <trkpt lat="47.00481" lon="-1.01833">
        <ele>97.496</ele>
        <time>2020-05-27T16:59:52Z</time>
      </trkpt>
      <trkpt lat="47.0048" lon="-1.01832">
        <ele>97.06</ele>
        <time>2020-05-27T16:59:53Z</time>
      </trkpt>
      <trkpt lat="47.0048" lon="-1.01832">
        <ele>97.046</ele>
        <time>2020-05-27T16:59:54Z</time>
      </trkpt>
      <trkpt lat="47.00479" lon="-1.01831">
        <ele>96.569</ele>
        <time>2020-05-27T16:59:55Z</time>
      </trkpt>
      <trkpt lat="47.00479" lon="-1.01831">
        <ele>96.576</ele>
        <time>2020-05-27T16:59:56Z</time>
      </trkpt>
      <trkpt lat="47.00479" lon="-1.01831">
        <ele>95.719</ele>
        <time>2020-05-27T16:59:57Z</time>
      </trkpt>
      <trkpt lat="47.00479" lon="-1.01831">
        <ele>95.977</ele>
        <time>2020-05-27T16:59:58Z</time>
      </trkpt>
      <trkpt lat="47.00479" lon="-1.01831">
        <ele>96.204</ele>
        <time>2020-05-27T16:59:59Z</time>
      </trkpt>
      <trkpt lat="47.00479" lon="-1.01831">
        <ele>96.218</ele>
        <time>2020-05-27T17:00:00Z</time>
      </trkpt>
      <trkpt lat="47.00478" lon="-1.01831">
        <ele>95.828</ele>
        <time>2020-05-27T17:00:01Z</time>
      </trkpt>
      <trkpt lat="47.00478" lon="-1.01831">
        <ele>96.298</ele>
        <time>2020-05-27T17:00:02Z</time>
      </trkpt>
      <trkpt lat="47.00478" lon="-1.01831">
        <ele>96.831</ele>
        <time>2020-05-27T17:00:03Z</time>
      </trkpt>
      <trkpt lat="47.00479" lon="-1.01831">
        <ele>97.283</ele>
        <time>2020-05-27T17:00:04Z</time>
      </trkpt>
      <trkpt lat="47.00479" lon="-1.01831">
        <ele>97.263</ele>
        <time>2020-05-27T17:00:05Z</time>
      </trkpt>
      <trkpt lat="47.00479" lon="-1.01831">
        <ele>97.375</ele>
        <time>2020-05-27T17:00:06Z</time>
      </trkpt>
      <trkpt lat="47.00479" lon="-1.01831">
        <ele>97.475</ele>
        <time>2020-05-27T17:00:07Z</time>
      </trkpt>
      <trkpt lat="47.00479" lon="-1.01831">
        <ele>97.94</ele>
        <time>2020-05-27T17:00:08Z</time>
      </trkpt>
      <trkpt lat="47.00479" lon="-1.01831">
        <ele>98.72</ele>
        <time>2020-05-27T17:00:09Z</time>
      </trkpt>
      <trkpt lat="47.00479" lon="-1.01831">
        <ele>98.901</ele>
        <time>2020-05-27T17:00:10Z</time>
      </trkpt>
      <trkpt lat="47.00479" lon="-1.01831">
        <ele>99.723</ele>
        <time>2020-05-27T17:00:11Z</time>
      </trkpt>
      <trkpt lat="47.00479" lon="-1.0183">
        <ele>100.637</ele>
        <time>2020-05-27T17:00:12Z</time>
      </trkpt>
      <trkpt lat="47.00479" lon="-1.0183">
        <ele>100.662</ele>
        <time>2020-05-27T17:00:13Z</time>
      </trkpt>
      <trkpt lat="47.00479" lon="-1.0183">
        <ele>100.759</ele>
        <time>2020-05-27T17:00:14Z</time>
      </trkpt>
      <trkpt lat="47.00479" lon="-1.0183">
        <ele>100.924</ele>
        <time>2020-05-27T17:00:15Z</time>
      </trkpt>
      <trkpt lat="47.00478" lon="-1.0183">
        <ele>100.789</ele>
        <time>2020-05-27T17:00:16Z</time>
      </trkpt>
      <trkpt lat="47.00479" lon="-1.0183">
        <ele>101.183</ele>
        <time>2020-05-27T17:00:17Z</time>
      </trkpt>
      <trkpt lat="47.00479" lon="-1.0183">
        <ele>100.569</ele>
        <time>2020-05-27T17:00:18Z</time>
      </trkpt>
      <trkpt lat="47.00479" lon="-1.0183">
        <ele>99.893</ele>
        <time>2020-05-27T17:00:19Z</time>
      </trkpt>
      <trkpt lat="47.00479" lon="-1.0183">
        <ele>100.08</ele>
        <time>2020-05-27T17:00:20Z</time>
      </trkpt>
      <trkpt lat="47.0048" lon="-1.0183">
        <ele>100.742</ele>
        <time>2020-05-27T17:00:21Z</time>
      </trkpt>
      <trkpt lat="47.0048" lon="-1.0183">
        <ele>100.084</ele>
        <time>2020-05-27T17:00:22Z</time>
      </trkpt>
      <trkpt lat="47.00479" lon="-1.01831">
        <ele>100.04</ele>
        <time>2020-05-27T17:00:23Z</time>
      </trkpt>
      <trkpt lat="47.0048" lon="-1.01831">
        <ele>100.261</ele>
        <time>2020-05-27T17:00:24Z</time>
      </trkpt>
      <trkpt lat="47.0048" lon="-1.01831">
        <ele>100.917</ele>
        <time>2020-05-27T17:00:25Z</time>
      </trkpt>
      <trkpt lat="47.00469" lon="-1.01848">
        <ele>102.882</ele>
        <time>2020-05-27T17:10:21Z</time>
      </trkpt>
      <trkpt lat="47.00471" lon="-1.01847">
        <ele>104.149</ele>
        <time>2020-05-27T17:10:22Z</time>
      </trkpt>
      <trkpt lat="47.00472" lon="-1.01846">
        <ele>106.5</ele>
        <time>2020-05-27T17:10:23Z</time>
      </trkpt>
      <trkpt lat="47.00473" lon="-1.01846">
        <ele>103.982</ele>
        <time>2020-05-27T17:10:24Z</time>
      </trkpt>
      <trkpt lat="47.00473" lon="-1.01845">
        <ele>103.5</ele>
        <time>2020-05-27T17:10:25Z</time>
      </trkpt>
      <trkpt lat="47.00473" lon="-1.01845">
        <ele>150.405</ele>
        <time>2020-05-27T17:10:26Z</time>
      </trkpt>
      <trkpt lat="47.00474" lon="-1.01843">
        <ele>140.901</ele>
        <time>2020-05-27T17:10:27Z</time>
      </trkpt>
      <trkpt lat="47.00474" lon="-1.01842">
        <ele>131.471</ele>
        <time>2020-05-27T17:10:28Z</time>
      </trkpt>
      <trkpt lat="47.00475" lon="-1.01841">
        <ele>121.079</ele>
        <time>2020-05-27T17:10:29Z</time>
      </trkpt>
      <trkpt lat="47.00476" lon="-1.01842">
        <ele>115.905</ele>
        <time>2020-05-27T17:10:30Z</time>
      </trkpt>
      <trkpt lat="47.00478" lon="-1.0184">
        <ele>106.145</ele>
        <time>2020-05-27T17:10:32Z</time>
      </trkpt>
      <trkpt lat="47.00478" lon="-1.0184">
        <ele>104.104</ele>
        <time>2020-05-27T17:10:33Z</time>
      </trkpt>
      <trkpt lat="47.00478" lon="-1.01841">
        <ele>103.435</ele>
        <time>2020-05-27T17:10:34Z</time>
      </trkpt>
      <trkpt lat="47.00478" lon="-1.01843">
        <ele>102.254</ele>
        <time>2020-05-27T17:10:35Z</time>
      </trkpt>
      <trkpt lat="47.00479" lon="-1.01844">
        <ele>102.56</ele>
        <time>2020-05-27T17:10:36Z</time>
      </trkpt>
      <trkpt lat="47.0048" lon="-1.01845">
        <ele>103.673</ele>
        <time>2020-05-27T17:10:37Z</time>
      </trkpt>
      <trkpt lat="47.00481" lon="-1.01845">
        <ele>104.211</ele>
        <time>2020-05-27T17:10:38Z</time>
      </trkpt>
      <trkpt lat="47.00482" lon="-1.01846">
        <ele>104.256</ele>
        <time>2020-05-27T17:10:39Z</time>
      </trkpt>
      <trkpt lat="47.00482" lon="-1.01848">
        <ele>103.711</ele>
        <time>2020-05-27T17:10:40Z</time>
      </trkpt>
      <trkpt lat="47.00483" lon="-1.01849">
        <ele>103.405</ele>
        <time>2020-05-27T17:10:41Z</time>
      </trkpt>
      <trkpt lat="47.00484" lon="-1.0185">
        <ele>103.915</ele>
        <time>2020-05-27T17:10:42Z</time>
      </trkpt>
      <trkpt lat="47.00485" lon="-1.01852">
        <ele>102.87</ele>
        <time>2020-05-27T17:10:43Z</time>
      </trkpt>
      <trkpt lat="47.00485" lon="-1.01853">
        <ele>101.856</ele>
        <time>2020-05-27T17:10:44Z</time>
      </trkpt>
      <trkpt lat="47.00486" lon="-1.01855">
        <ele>101.684</ele>
        <time>2020-05-27T17:10:45Z</time>
      </trkpt>
      <trkpt lat="47.00487" lon="-1.01858">
        <ele>101.188</ele>
        <time>2020-05-27T17:10:46Z</time>
      </trkpt>
      <trkpt lat="47.00488" lon="-1.0186">
        <ele>102.072</ele>
        <time>2020-05-27T17:10:47Z</time>
      </trkpt>
      <trkpt lat="47.00489" lon="-1.01863">
        <ele>101.885</ele>
        <time>2020-05-27T17:10:48Z</time>
      </trkpt>
      <trkpt lat="47.0049" lon="-1.01866">
        <ele>102.415</ele>
        <time>2020-05-27T17:10:49Z</time>
      </trkpt>
      <trkpt lat="47.00491" lon="-1.01869">
        <ele>102.197</ele>
        <time>2020-05-27T17:10:50Z</time>
      </trkpt>
      <trkpt lat="47.00492" lon="-1.01872">
        <ele>101.681</ele>
        <time>2020-05-27T17:10:51Z</time>
      </trkpt>
      <trkpt lat="47.00492" lon="-1.01876">
        <ele>102.237</ele>
        <time>2020-05-27T17:10:52Z</time>
      </trkpt>
      <trkpt lat="47.00492" lon="-1.0188">
        <ele>101.045</ele>
        <time>2020-05-27T17:10:53Z</time>
      </trkpt>
      <trkpt lat="47.00492" lon="-1.01883">
        <ele>100.238</ele>
        <time>2020-05-27T17:10:54Z</time>
      </trkpt>
      <trkpt lat="47.00493" lon="-1.01886">
        <ele>99.946</ele>
        <time>2020-05-27T17:10:55Z</time>
      </trkpt>
      <trkpt lat="47.00493" lon="-1.0189">
        <ele>99.667</ele>
        <time>2020-05-27T17:10:56Z</time>
      </trkpt>
      <trkpt lat="47.00494" lon="-1.01893">
        <ele>99.185</ele>
        <time>2020-05-27T17:10:57Z</time>
      </trkpt>
      <trkpt lat="47.00495" lon="-1.01896">
        <ele>99.553</ele>
        <time>2020-05-27T17:10:58Z</time>
      </trkpt>
      <trkpt lat="47.00495" lon="-1.01899">
        <ele>98.673</ele>
        <time>2020-05-27T17:10:59Z</time>
      </trkpt>
      <trkpt lat="47.00496" lon="-1.01901">
        <ele>99.326</ele>
        <time>2020-05-27T17:11:00Z</time>
      </trkpt>
      <trkpt lat="47.00497" lon="-1.01904">
        <ele>99.001</ele>
        <time>2020-05-27T17:11:01Z</time>
      </trkpt>
      <trkpt lat="47.00498" lon="-1.01906">
        <ele>99.001</ele>
        <time>2020-05-27T17:11:02Z</time>
      </trkpt>
      <trkpt lat="47.00498" lon="-1.01909">
        <ele>99.414</ele>
        <time>2020-05-27T17:11:03Z</time>
      </trkpt>
      <trkpt lat="47.00499" lon="-1.01912">
        <ele>98.815</ele>
        <time>2020-05-27T17:11:04Z</time>
      </trkpt>
      <trkpt lat="47.00499" lon="-1.01916">
        <ele>98.77</ele>
        <time>2020-05-27T17:11:05Z</time>
      </trkpt>
      <trkpt lat="47.00499" lon="-1.01919">
        <ele>99.497</ele>
        <time>2020-05-27T17:11:06Z</time>
      </trkpt>
      <trkpt lat="47.00499" lon="-1.01923">
        <ele>100.073</ele>
        <time>2020-05-27T17:11:07Z</time>
      </trkpt>
      <trkpt lat="47.00499" lon="-1.01927">
        <ele>99.688</ele>
        <time>2020-05-27T17:11:08Z</time>
      </trkpt>
      <trkpt lat="47.00499" lon="-1.01931">
        <ele>99.218</ele>
        <time>2020-05-27T17:11:09Z</time>
      </trkpt>
      <trkpt lat="47.00498" lon="-1.01935">
        <ele>99.001</ele>
        <time>2020-05-27T17:11:10Z</time>
      </trkpt>
      <trkpt lat="47.00498" lon="-1.01939">
        <ele>99.186</ele>
        <time>2020-05-27T17:11:11Z</time>
      </trkpt>
      <trkpt lat="47.00498" lon="-1.01943">
        <ele>99.391</ele>
        <time>2020-05-27T17:11:12Z</time>
      </trkpt>
      <trkpt lat="47.00497" lon="-1.01946">
        <ele>98.958</ele>
        <time>2020-05-27T17:11:13Z</time>
      </trkpt>
      <trkpt lat="47.00497" lon="-1.0195">
        <ele>99.037</ele>
        <time>2020-05-27T17:11:14Z</time>
      </trkpt>
      <trkpt lat="47.00496" lon="-1.01953">
        <ele>98.611</ele>
        <time>2020-05-27T17:11:15Z</time>
      </trkpt>
      <trkpt lat="47.00496" lon="-1.01957">
        <ele>98.549</ele>
        <time>2020-05-27T17:11:16Z</time>
      </trkpt>
      <trkpt lat="47.00495" lon="-1.0196">
        <ele>97.848</ele>
        <time>2020-05-27T17:11:17Z</time>
      </trkpt>
      <trkpt lat="47.00494" lon="-1.01964">
        <ele>97.416</ele>
        <time>2020-05-27T17:11:18Z</time>
      </trkpt>
      <trkpt lat="47.00494" lon="-1.01968">
        <ele>96.046</ele>
        <time>2020-05-27T17:11:19Z</time>
      </trkpt>
      <trkpt lat="47.00494" lon="-1.01972">
        <ele>95.383</ele>
        <time>2020-05-27T17:11:20Z</time>
      </trkpt>
      <trkpt lat="47.00493" lon="-1.01976">
        <ele>94.282</ele>
        <time>2020-05-27T17:11:21Z</time>
      </trkpt>
      <trkpt lat="47.00493" lon="-1.0198">
        <ele>94.102</ele>
        <time>2020-05-27T17:11:22Z</time>
      </trkpt>
      <trkpt lat="47.00493" lon="-1.01984">
        <ele>94.196</ele>
        <time>2020-05-27T17:11:23Z</time>
      </trkpt>
      <trkpt lat="47.00493" lon="-1.01987">
        <ele>93.78</ele>
        <time>2020-05-27T17:11:24Z</time>
      </trkpt>
      <trkpt lat="47.00493" lon="-1.01991">
        <ele>93.428</ele>
        <time>2020-05-27T17:11:25Z</time>
      </trkpt>
      <trkpt lat="47.00493" lon="-1.01995">
        <ele>93.379</ele>
        <time>2020-05-27T17:11:26Z</time>
      </trkpt>
      <trkpt lat="47.00493" lon="-1.01998">
        <ele>93.151</ele>
        <time>2020-05-27T17:11:27Z</time>
      </trkpt>
      <trkpt lat="47.00493" lon="-1.02002">
        <ele>92.956</ele>
        <time>2020-05-27T17:11:28Z</time>
      </trkpt>
      <trkpt lat="47.00494" lon="-1.02005">
        <ele>93.162</ele>
        <time>2020-05-27T17:11:29Z</time>
      </trkpt>
      <trkpt lat="47.00493" lon="-1.02008">
        <ele>93.278</ele>
        <time>2020-05-27T17:11:30Z</time>
      </trkpt>
      <trkpt lat="47.00493" lon="-1.02011">
        <ele>93.548</ele>
        <time>2020-05-27T17:11:31Z</time>
      </trkpt>
      <trkpt lat="47.00493" lon="-1.02014">
        <ele>94.555</ele>
        <time>2020-05-27T17:11:32Z</time>
      </trkpt>
      <trkpt lat="47.00493" lon="-1.02017">
        <ele>93.82</ele>
        <time>2020-05-27T17:11:33Z</time>
      </trkpt>
      <trkpt lat="47.00492" lon="-1.02021">
        <ele>94.103</ele>
        <time>2020-05-27T17:11:34Z</time>
      </trkpt>
      <trkpt lat="47.00492" lon="-1.02024">
        <ele>93.815</ele>
        <time>2020-05-27T17:11:35Z</time>
      </trkpt>
      <trkpt lat="47.00492" lon="-1.02027">
        <ele>94.016</ele>
        <time>2020-05-27T17:11:36Z</time>
      </trkpt>
      <trkpt lat="47.00492" lon="-1.02027">
        <ele>94.747</ele>
        <time>2020-05-27T17:11:37Z</time>
      </trkpt>
      <trkpt lat="47.00491" lon="-1.02027">
        <ele>94.722</ele>
        <time>2020-05-27T17:11:38Z</time>
      </trkpt>
      <trkpt lat="47.00491" lon="-1.02027">
        <ele>94.965</ele>
        <time>2020-05-27T17:11:39Z</time>
      </trkpt>
      <trkpt lat="47.00491" lon="-1.02027">
        <ele>94.863</ele>
        <time>2020-05-27T17:11:39Z</time>
      </trkpt>
      <trkpt lat="47.00491" lon="-1.02027">
        <ele>95.081</ele>
        <time>2020-05-27T17:11:40Z</time>
      </trkpt>
      <trkpt lat="47.0049" lon="-1.02027">
        <ele>95.191</ele>
        <time>2020-05-27T17:11:41Z</time>
      </trkpt>
      <trkpt lat="47.0049" lon="-1.02026">
        <ele>94.935</ele>
        <time>2020-05-27T17:11:42Z</time>
      </trkpt>
      <trkpt lat="47.0049" lon="-1.02026">
        <ele>94.882</ele>
        <time>2020-05-27T17:11:43Z</time>
      </trkpt>
      <trkpt lat="47.0049" lon="-1.02026">
        <ele>94.91</ele>
        <time>2020-05-27T17:11:44Z</time>
      </trkpt>
      <trkpt lat="47.0049" lon="-1.02026">
        <ele>94.433</ele>
        <time>2020-05-27T17:11:45Z</time>
      </trkpt>
      <trkpt lat="47.0049" lon="-1.02026">
        <ele>94.485</ele>
        <time>2020-05-27T17:11:46Z</time>
      </trkpt>
      <trkpt lat="47.0049" lon="-1.02026">
        <ele>94.151</ele>
        <time>2020-05-27T17:11:47Z</time>
      </trkpt>
      <trkpt lat="47.0049" lon="-1.02026">
        <ele>94.385</ele>
        <time>2020-05-27T17:11:48Z</time>
      </trkpt>
      <trkpt lat="47.0049" lon="-1.02026">
        <ele>94.435</ele>
        <time>2020-05-27T17:11:49Z</time>
      </trkpt>
      <trkpt lat="47.0049" lon="-1.02026">
        <ele>94.536</ele>
        <time>2020-05-27T17:11:50Z</time>
      </trkpt>
      <trkpt lat="47.0049" lon="-1.02026">
        <ele>94.526</ele>
        <time>2020-05-27T17:11:51Z</time>
      </trkpt>
      <trkpt lat="47.0049" lon="-1.02026">
        <ele>94.566</ele>
        <time>2020-05-27T17:11:52Z</time>
      </trkpt>
      <trkpt lat="47.0049" lon="-1.02026">
        <ele>94.551</ele>
        <time>2020-05-27T17:11:53Z</time>
      </trkpt>
      <trkpt lat="47.0049" lon="-1.02026">
        <ele>94.554</ele>
        <time>2020-05-27T17:11:54Z</time>
      </trkpt>
      <trkpt lat="47.0049" lon="-1.02026">
        <ele>94.555</ele>
        <time>2020-05-27T17:11:55Z</time>
      </trkpt>
      <trkpt lat="47.0049" lon="-1.02026">
        <ele>94.553</ele>
        <time>2020-05-27T17:11:56Z</time>
      </trkpt>
      <trkpt lat="47.0049" lon="-1.02026">
        <ele>94.553</ele>
        <time>2020-05-27T17:11:57Z</time>
      </trkpt>
      <trkpt lat="47.0049" lon="-1.02026">
        <ele>94.546</ele>
        <time>2020-05-27T17:11:58Z</time>
      </trkpt>
      <trkpt lat="47.0049" lon="-1.02026">
        <ele>94.547</ele>
        <time>2020-05-27T17:11:59Z</time>
      </trkpt>
      <trkpt lat="47.0049" lon="-1.02026">
        <ele>94.55</ele>
        <time>2020-05-27T17:12:00Z</time>
      </trkpt>
      <trkpt lat="47.0049" lon="-1.02026">
        <ele>94.544</ele>
        <time>2020-05-27T17:12:01Z</time>
      </trkpt>
      <trkpt lat="47.0049" lon="-1.02026">
        <ele>94.543</ele>
        <time>2020-05-27T17:12:02Z</time>
      </trkpt>
      <trkpt lat="47.0049" lon="-1.02026">
        <ele>94.542</ele>
        <time>2020-05-27T17:12:03Z</time>
      </trkpt>
      <trkpt lat="47.0049" lon="-1.02026">
        <ele>94.561</ele>
        <time>2020-05-27T17:12:04Z</time>
      </trkpt>
      <trkpt lat="47.0049" lon="-1.02026">
        <ele>94.575</ele>
        <time>2020-05-27T17:12:05Z</time>
      </trkpt>
      <trkpt lat="47.0049" lon="-1.02026">
        <ele>94.574</ele>
        <time>2020-05-27T17:12:06Z</time>
      </trkpt>
      <trkpt lat="47.0049" lon="-1.02026">
        <ele>94.573</ele>
        <time>2020-05-27T17:12:07Z</time>
      </trkpt>
      <trkpt lat="47.0049" lon="-1.02026">
        <ele>94.575</ele>
        <time>2020-05-27T17:12:08Z</time>
      </trkpt>
      <trkpt lat="47.0049" lon="-1.02026">
        <ele>94.04</ele>
        <time>2020-05-27T17:12:09Z</time>
      </trkpt>
      <trkpt lat="47.00491" lon="-1.02027">
        <ele>98.192</ele>
        <time>2020-05-27T17:12:10Z</time>
      </trkpt>
      <trkpt lat="47.00491" lon="-1.02028">
        <ele>96.344</ele>
        <time>2020-05-27T17:12:11Z</time>
      </trkpt>
      <trkpt lat="47.00491" lon="-1.0203">
        <ele>95.965</ele>
        <time>2020-05-27T17:12:12Z</time>
      </trkpt>
      <trkpt lat="47.00491" lon="-1.02032">
        <ele>95.39</ele>
        <time>2020-05-27T17:12:13Z</time>
      </trkpt>
      <trkpt lat="47.00491" lon="-1.02035">
        <ele>96.458</ele>
        <time>2020-05-27T17:12:14Z</time>
      </trkpt>
      <trkpt lat="47.00491" lon="-1.02037">
        <ele>95.574</ele>
        <time>2020-05-27T17:12:15Z</time>
      </trkpt>
      <trkpt lat="47.00491" lon="-1.02041">
        <ele>94.009</ele>
        <time>2020-05-27T17:12:16Z</time>
      </trkpt>
      <trkpt lat="47.00491" lon="-1.02044">
        <ele>93.993</ele>
        <time>2020-05-27T17:12:17Z</time>
      </trkpt>
      <trkpt lat="47.00491" lon="-1.02048">
        <ele>94.275</ele>
        <time>2020-05-27T17:12:18Z</time>
      </trkpt>
      <trkpt lat="47.00491" lon="-1.02052">
        <ele>94.169</ele>
        <time>2020-05-27T17:12:19Z</time>
      </trkpt>
      <trkpt lat="47.00491" lon="-1.02055">
        <ele>93.738</ele>
        <time>2020-05-27T17:12:20Z</time>
      </trkpt>
      <trkpt lat="47.00491" lon="-1.02059">
        <ele>94.354</ele>
        <time>2020-05-27T17:12:21Z</time>
      </trkpt>
      <trkpt lat="47.0049" lon="-1.02062">
        <ele>94.096</ele>
        <time>2020-05-27T17:12:22Z</time>
      </trkpt>
      <trkpt lat="47.0049" lon="-1.02065">
        <ele>94.983</ele>
        <time>2020-05-27T17:12:23Z</time>
      </trkpt>
      <trkpt lat="47.0049" lon="-1.02069">
        <ele>95.306</ele>
        <time>2020-05-27T17:12:24Z</time>
      </trkpt>
      <trkpt lat="47.00489" lon="-1.02072">
        <ele>95.386</ele>
        <time>2020-05-27T17:12:25Z</time>
      </trkpt>
      <trkpt lat="47.00489" lon="-1.02075">
        <ele>94.636</ele>
        <time>2020-05-27T17:12:26Z</time>
      </trkpt>
      <trkpt lat="47.00489" lon="-1.02078">
        <ele>95.306</ele>
        <time>2020-05-27T17:12:27Z</time>
      </trkpt>
      <trkpt lat="47.00488" lon="-1.02081">
        <ele>95.453</ele>
        <time>2020-05-27T17:12:28Z</time>
      </trkpt>
      <trkpt lat="47.00488" lon="-1.02085">
        <ele>95.322</ele>
        <time>2020-05-27T17:12:29Z</time>
      </trkpt>
      <trkpt lat="47.00487" lon="-1.02088">
        <ele>95.417</ele>
        <time>2020-05-27T17:12:30Z</time>
      </trkpt>
      <trkpt lat="47.00486" lon="-1.02091">
        <ele>95.586</ele>
        <time>2020-05-27T17:12:31Z</time>
      </trkpt>
      <trkpt lat="47.00485" lon="-1.02095">
        <ele>95.3</ele>
        <time>2020-05-27T17:12:32Z</time>
      </trkpt>
      <trkpt lat="47.00485" lon="-1.02098">
        <ele>95.406</ele>
        <time>2020-05-27T17:12:33Z</time>
      </trkpt>
      <trkpt lat="47.00485" lon="-1.02101">
        <ele>95.603</ele>
        <time>2020-05-27T17:12:34Z</time>
      </trkpt>
      <trkpt lat="47.00484" lon="-1.02105">
        <ele>95.484</ele>
        <time>2020-05-27T17:12:35Z</time>
      </trkpt>
      <trkpt lat="47.00483" lon="-1.02108">
        <ele>95.63</ele>
        <time>2020-05-27T17:12:36Z</time>
      </trkpt>
      <trkpt lat="47.00483" lon="-1.02112">
        <ele>95.633</ele>
        <time>2020-05-27T17:12:37Z</time>
      </trkpt>
      <trkpt lat="47.00483" lon="-1.02115">
        <ele>96.373</ele>
        <time>2020-05-27T17:12:38Z</time>
      </trkpt>
      <trkpt lat="47.00483" lon="-1.02118">
        <ele>96.817</ele>
        <time>2020-05-27T17:12:39Z</time>
      </trkpt>
      <trkpt lat="47.00429" lon="-1.02212">
        <ele>118.372</ele>
        <time>2020-05-27T17:13:23Z</time>
      </trkpt>
      <trkpt lat="47.00425" lon="-1.02213">
        <ele>117.465</ele>
        <time>2020-05-27T17:13:24Z</time>
      </trkpt>
      <trkpt lat="47.00422" lon="-1.02215">
        <ele>116.256</ele>
        <time>2020-05-27T17:13:25Z</time>
      </trkpt>
      <trkpt lat="47.00418" lon="-1.02217">
        <ele>117.567</ele>
        <time>2020-05-27T17:13:26Z</time>
      </trkpt>
      <trkpt lat="47.00415" lon="-1.02218">
        <ele>117.672</ele>
        <time>2020-05-27T17:13:27Z</time>
      </trkpt>
      <trkpt lat="47.00412" lon="-1.02221">
        <ele>117.492</ele>
        <time>2020-05-27T17:13:28Z</time>
      </trkpt>
      <trkpt lat="47.00409" lon="-1.02222">
        <ele>116.885</ele>
        <time>2020-05-27T17:13:30Z</time>
      </trkpt>
      <trkpt lat="47.00407" lon="-1.02226">
        <ele>110.624</ele>
        <time>2020-05-27T17:13:30Z</time>
      </trkpt>
      <trkpt lat="47.00406" lon="-1.02229">
        <ele>109.001</ele>
        <time>2020-05-27T17:13:32Z</time>
      </trkpt>
      <trkpt lat="47.00403" lon="-1.02233">
        <ele>106.966</ele>
        <time>2020-05-27T17:13:32Z</time>
      </trkpt>
      <trkpt lat="47.00401" lon="-1.02237">
        <ele>107.93</ele>
        <time>2020-05-27T17:13:33Z</time>
      </trkpt>
      <trkpt lat="47.004" lon="-1.02239">
        <ele>106.775</ele>
        <time>2020-05-27T17:13:34Z</time>
      </trkpt>
      <trkpt lat="47.00399" lon="-1.02242">
        <ele>104.612</ele>
        <time>2020-05-27T17:13:35Z</time>
      </trkpt>
      <trkpt lat="47.00398" lon="-1.02244">
        <ele>102.856</ele>
        <time>2020-05-27T17:13:36Z</time>
      </trkpt>
      <trkpt lat="47.00396" lon="-1.02247">
        <ele>103.301</ele>
        <time>2020-05-27T17:13:37Z</time>
      </trkpt>
      <trkpt lat="47.00395" lon="-1.02251">
        <ele>103.627</ele>
        <time>2020-05-27T17:13:38Z</time>
      </trkpt>
      <trkpt lat="47.00394" lon="-1.02254">
        <ele>113.458</ele>
        <time>2020-05-27T17:13:39Z</time>
      </trkpt>
      <trkpt lat="47.00393" lon="-1.02258">
        <ele>110.716</ele>
        <time>2020-05-27T17:13:40Z</time>
      </trkpt>
      <trkpt lat="47.00392" lon="-1.02261">
        <ele>108.572</ele>
        <time>2020-05-27T17:13:41Z</time>
      </trkpt>
      <trkpt lat="47.00392" lon="-1.02264">
        <ele>107.398</ele>
        <time>2020-05-27T17:13:42Z</time>
      </trkpt>
      <trkpt lat="47.00391" lon="-1.02266">
        <ele>107.181</ele>
        <time>2020-05-27T17:13:43Z</time>
      </trkpt>
      <trkpt lat="47.0039" lon="-1.02269">
        <ele>107.589</ele>
        <time>2020-05-27T17:13:44Z</time>
      </trkpt>
      <trkpt lat="47.0039" lon="-1.02271">
        <ele>107.691</ele>
        <time>2020-05-27T17:13:45Z</time>
      </trkpt>
      <trkpt lat="47.0039" lon="-1.02275">
        <ele>108.654</ele>
        <time>2020-05-27T17:13:46Z</time>
      </trkpt>
      <trkpt lat="47.0039" lon="-1.02278">
        <ele>107.314</ele>
        <time>2020-05-27T17:13:47Z</time>
      </trkpt>
      <trkpt lat="47.0039" lon="-1.02282">
        <ele>107.417</ele>
        <time>2020-05-27T17:13:48Z</time>
      </trkpt>
      <trkpt lat="47.0039" lon="-1.02289">
        <ele>107.897</ele>
        <time>2020-05-27T17:13:50Z</time>
      </trkpt>
      <trkpt lat="47.00391" lon="-1.02292">
        <ele>108.33</ele>
        <time>2020-05-27T17:13:51Z</time>
      </trkpt>
      <trkpt lat="47.00391" lon="-1.02294">
        <ele>107.403</ele>
        <time>2020-05-27T17:13:52Z</time>
      </trkpt>
      <trkpt lat="47.00392" lon="-1.02295">
        <ele>105.92</ele>
        <time>2020-05-27T17:13:54Z</time>
      </trkpt>
      <trkpt lat="47.00392" lon="-1.02295">
        <ele>108.843</ele>
        <time>2020-05-27T17:13:54Z</time>
      </trkpt>
      <trkpt lat="47.00392" lon="-1.02296">
        <ele>111.387</ele>
        <time>2020-05-27T17:13:55Z</time>
      </trkpt>
      <trkpt lat="47.00392" lon="-1.02297">
        <ele>111.076</ele>
        <time>2020-05-27T17:13:56Z</time>
      </trkpt>
      <trkpt lat="47.00392" lon="-1.02297">
        <ele>111.017</ele>
        <time>2020-05-27T17:13:57Z</time>
      </trkpt>
      <trkpt lat="47.00392" lon="-1.02297">
        <ele>110.56</ele>
        <time>2020-05-27T17:13:58Z</time>
      </trkpt>
      <trkpt lat="47.00392" lon="-1.02297">
        <ele>110.422</ele>
        <time>2020-05-27T17:13:59Z</time>
      </trkpt>
      <trkpt lat="47.00392" lon="-1.02297">
        <ele>109.648</ele>
        <time>2020-05-27T17:14:00Z</time>
      </trkpt>
      <trkpt lat="47.00392" lon="-1.02298">
        <ele>109.218</ele>
        <time>2020-05-27T17:14:02Z</time>
      </trkpt>
      <trkpt lat="47.00392" lon="-1.02298">
        <ele>108.933</ele>
        <time>2020-05-27T17:14:03Z</time>
      </trkpt>
      <trkpt lat="47.00392" lon="-1.02298">
        <ele>109.24</ele>
        <time>2020-05-27T17:14:04Z</time>
      </trkpt>
      <trkpt lat="47.00392" lon="-1.02299">
        <ele>111.781</ele>
        <time>2020-05-27T17:14:05Z</time>
      </trkpt>
      <trkpt lat="47.00392" lon="-1.02299">
        <ele>112.781</ele>
        <time>2020-05-27T17:14:06Z</time>
      </trkpt>
      <trkpt lat="47.00392" lon="-1.02299">
        <ele>113.639</ele>
        <time>2020-05-27T17:14:07Z</time>
      </trkpt>
      <trkpt lat="47.00392" lon="-1.02299">
        <ele>112.677</ele>
        <time>2020-05-27T17:14:08Z</time>
      </trkpt>
      <trkpt lat="47.00392" lon="-1.02299">
        <ele>112.359</ele>
        <time>2020-05-27T17:14:09Z</time>
      </trkpt>
      <trkpt lat="47.00391" lon="-1.02299">
        <ele>112.379</ele>
        <time>2020-05-27T17:14:10Z</time>
      </trkpt>
      <trkpt lat="47.00391" lon="-1.02299">
        <ele>113.202</ele>
        <time>2020-05-27T17:14:11Z</time>
      </trkpt>
      <trkpt lat="47.00391" lon="-1.02298">
        <ele>112.502</ele>
        <time>2020-05-27T17:14:12Z</time>
      </trkpt>
      <trkpt lat="47.00391" lon="-1.02298">
        <ele>112.754</ele>
        <time>2020-05-27T17:14:13Z</time>
      </trkpt>
      <trkpt lat="47.00391" lon="-1.02298">
        <ele>113.129</ele>
        <time>2020-05-27T17:14:14Z</time>
      </trkpt>
      <trkpt lat="47.00392" lon="-1.02298">
        <ele>113.179</ele>
        <time>2020-05-27T17:14:15Z</time>
      </trkpt>
      <trkpt lat="47.00392" lon="-1.02298">
        <ele>112.533</ele>
        <time>2020-05-27T17:14:16Z</time>
      </trkpt>
      <trkpt lat="47.00392" lon="-1.02298">
        <ele>112.174</ele>
        <time>2020-05-27T17:14:17Z</time>
      </trkpt>
      <trkpt lat="47.00391" lon="-1.02298">
        <ele>112.084</ele>
        <time>2020-05-27T17:14:18Z</time>
      </trkpt>
      <trkpt lat="47.00391" lon="-1.02298">
        <ele>111.938</ele>
        <time>2020-05-27T17:14:19Z</time>
      </trkpt>
      <trkpt lat="47.00391" lon="-1.02298">
        <ele>111.454</ele>
        <time>2020-05-27T17:14:20Z</time>
      </trkpt>
      <trkpt lat="47.00391" lon="-1.02299">
        <ele>113.065</ele>
        <time>2020-05-27T17:14:22Z</time>
      </trkpt>
      <trkpt lat="47.00391" lon="-1.023">
        <ele>110.717</ele>
        <time>2020-05-27T17:14:22Z</time>
      </trkpt>
      <trkpt lat="47.0039" lon="-1.023">
        <ele>110.856</ele>
        <time>2020-05-27T17:14:23Z</time>
      </trkpt>
      <trkpt lat="47.0039" lon="-1.02299">
        <ele>110.784</ele>
        <time>2020-05-27T17:14:24Z</time>
      </trkpt>
      <trkpt lat="47.0039" lon="-1.02299">
        <ele>110.512</ele>
        <time>2020-05-27T17:14:25Z</time>
      </trkpt>
      <trkpt lat="47.0039" lon="-1.02299">
        <ele>111.292</ele>
        <time>2020-05-27T17:14:27Z</time>
      </trkpt>
      <trkpt lat="47.0039" lon="-1.02299">
        <ele>110.234</ele>
        <time>2020-05-27T17:14:27Z</time>
      </trkpt>
      <trkpt lat="47.0039" lon="-1.02299">
        <ele>110.139</ele>
        <time>2020-05-27T17:14:28Z</time>
      </trkpt>
      <trkpt lat="47.0039" lon="-1.02299">
        <ele>110.398</ele>
        <time>2020-05-27T17:14:29Z</time>
      </trkpt>
      <trkpt lat="47.0039" lon="-1.023">
        <ele>109.427</ele>
        <time>2020-05-27T17:14:32Z</time>
      </trkpt>
      <trkpt lat="47.0039" lon="-1.023">
        <ele>109.602</ele>
        <time>2020-05-27T17:14:33Z</time>
      </trkpt>
      <trkpt lat="47.0039" lon="-1.02301">
        <ele>109.873</ele>
        <time>2020-05-27T17:14:34Z</time>
      </trkpt>
      <trkpt lat="47.0039" lon="-1.02301">
        <ele>109.582</ele>
        <time>2020-05-27T17:14:35Z</time>
      </trkpt>
      <trkpt lat="47.0039" lon="-1.02301">
        <ele>109.591</ele>
        <time>2020-05-27T17:14:36Z</time>
      </trkpt>
      <trkpt lat="47.0039" lon="-1.02301">
        <ele>109.66</ele>
        <time>2020-05-27T17:14:37Z</time>
      </trkpt>
      <trkpt lat="47.0039" lon="-1.02301">
        <ele>109.648</ele>
        <time>2020-05-27T17:14:38Z</time>
      </trkpt>
      <trkpt lat="47.0039" lon="-1.02301">
        <ele>109.642</ele>
        <time>2020-05-27T17:14:39Z</time>
      </trkpt>
      <trkpt lat="47.0039" lon="-1.02301">
        <ele>109.637</ele>
        <time>2020-05-27T17:14:40Z</time>
      </trkpt>
      <trkpt lat="47.0039" lon="-1.02301">
        <ele>109.635</ele>
        <time>2020-05-27T17:14:41Z</time>
      </trkpt>
      <trkpt lat="47.0039" lon="-1.02301">
        <ele>109.64</ele>
        <time>2020-05-27T17:14:42Z</time>
      </trkpt>
      <trkpt lat="47.0039" lon="-1.02301">
        <ele>109.606</ele>
        <time>2020-05-27T17:14:43Z</time>
      </trkpt>
      <trkpt lat="47.0039" lon="-1.02301">
        <ele>109.601</ele>
        <time>2020-05-27T17:14:44Z</time>
      </trkpt>
      <trkpt lat="47.0039" lon="-1.02301">
        <ele>109.573</ele>
        <time>2020-05-27T17:14:46Z</time>
      </trkpt>
      <trkpt lat="47.0039" lon="-1.02301">
        <ele>109.543</ele>
        <time>2020-05-27T17:14:48Z</time>
      </trkpt>
      <trkpt lat="47.0039" lon="-1.02301">
        <ele>109.525</ele>
        <time>2020-05-27T17:14:48Z</time>
      </trkpt>
      <trkpt lat="47.0039" lon="-1.02301">
        <ele>109.552</ele>
        <time>2020-05-27T17:14:49Z</time>
      </trkpt>
      <trkpt lat="47.0039" lon="-1.02301">
        <ele>109.554</ele>
        <time>2020-05-27T17:14:50Z</time>
      </trkpt>
      <trkpt lat="47.0039" lon="-1.02301">
        <ele>109.555</ele>
        <time>2020-05-27T17:14:52Z</time>
      </trkpt>
      <trkpt lat="47.0039" lon="-1.02301">
        <ele>109.555</ele>
        <time>2020-05-27T17:14:52Z</time>
      </trkpt>
      <trkpt lat="47.00389" lon="-1.02303">
        <ele>108.562</ele>
        <time>2020-05-27T17:14:53Z</time>
      </trkpt>
      <trkpt lat="47.00389" lon="-1.02305">
        <ele>108.382</ele>
        <time>2020-05-27T17:14:54Z</time>
      </trkpt>
      <trkpt lat="47.00389" lon="-1.02307">
        <ele>105.886</ele>
        <time>2020-05-27T17:14:55Z</time>
      </trkpt>
      <trkpt lat="47.00389" lon="-1.0231">
        <ele>105.008</ele>
        <time>2020-05-27T17:14:56Z</time>
      </trkpt>
      <trkpt lat="47.00389" lon="-1.02312">
        <ele>106.76</ele>
        <time>2020-05-27T17:14:57Z</time>
      </trkpt>
      <trkpt lat="47.00389" lon="-1.02315">
        <ele>105.372</ele>
        <time>2020-05-27T17:14:58Z</time>
      </trkpt>
      <trkpt lat="47.0039" lon="-1.02317">
        <ele>103.943</ele>
        <time>2020-05-27T17:14:59Z</time>
      </trkpt>
      <trkpt lat="47.0039" lon="-1.02319">
        <ele>100.468</ele>
        <time>2020-05-27T17:15:00Z</time>
      </trkpt>
      <trkpt lat="47.00391" lon="-1.02321">
        <ele>99.605</ele>
        <time>2020-05-27T17:15:01Z</time>
      </trkpt>
      <trkpt lat="47.0039" lon="-1.02324">
        <ele>98.245</ele>
        <time>2020-05-27T17:15:02Z</time>
      </trkpt>
      <trkpt lat="47.00389" lon="-1.02326">
        <ele>152.651</ele>
        <time>2020-05-27T17:15:03Z</time>
      </trkpt>
      <trkpt lat="47.00389" lon="-1.02328">
        <ele>145.437</ele>
        <time>2020-05-27T17:15:04Z</time>
      </trkpt>
      <trkpt lat="47.00388" lon="-1.02329">
        <ele>139.718</ele>
        <time>2020-05-27T17:15:05Z</time>
      </trkpt>
      <trkpt lat="47.00388" lon="-1.02329">
        <ele>137.875</ele>
        <time>2020-05-27T17:15:06Z</time>
      </trkpt>
      <trkpt lat="47.00391" lon="-1.02327">
        <ele>129.68</ele>
        <time>2020-05-27T17:15:09Z</time>
      </trkpt>
      <trkpt lat="47.00393" lon="-1.02326">
        <ele>125.113</ele>
        <time>2020-05-27T17:15:09Z</time>
      </trkpt>
      <trkpt lat="47.00393" lon="-1.02326">
        <ele>121.542</ele>
        <time>2020-05-27T17:15:10Z</time>
      </trkpt>
      <trkpt lat="47.00392" lon="-1.02329">
        <ele>118.63</ele>
        <time>2020-05-27T17:15:11Z</time>
      </trkpt>
      <trkpt lat="47.00391" lon="-1.02331">
        <ele>115.15</ele>
        <time>2020-05-27T17:15:12Z</time>
      </trkpt>
      <trkpt lat="47.0039" lon="-1.02332">
        <ele>113.346</ele>
        <time>2020-05-27T17:15:13Z</time>
      </trkpt>
      <trkpt lat="47.0039" lon="-1.02333">
        <ele>112.224</ele>
        <time>2020-05-27T17:15:14Z</time>
      </trkpt>
      <trkpt lat="47.00389" lon="-1.02335">
        <ele>111.079</ele>
        <time>2020-05-27T17:15:15Z</time>
      </trkpt>
      <trkpt lat="47.00388" lon="-1.02336">
        <ele>109.964</ele>
        <time>2020-05-27T17:15:16Z</time>
      </trkpt>
      <trkpt lat="47.00388" lon="-1.02338">
        <ele>108.852</ele>
        <time>2020-05-27T17:15:17Z</time>
      </trkpt>
      <trkpt lat="47.00388" lon="-1.0234">
        <ele>106.893</ele>
        <time>2020-05-27T17:15:18Z</time>
      </trkpt>
      <trkpt lat="47.00388" lon="-1.02342">
        <ele>104.351</ele>
        <time>2020-05-27T17:15:19Z</time>
      </trkpt>
      <trkpt lat="47.00388" lon="-1.02344">
        <ele>104.894</ele>
        <time>2020-05-27T17:15:20Z</time>
      </trkpt>
      <trkpt lat="47.00389" lon="-1.02347">
        <ele>105.637</ele>
        <time>2020-05-27T17:15:21Z</time>
      </trkpt>
      <trkpt lat="47.0039" lon="-1.0235">
        <ele>103.545</ele>
        <time>2020-05-27T17:15:22Z</time>
      </trkpt>
      <trkpt lat="47.00391" lon="-1.02352">
        <ele>100.626</ele>
        <time>2020-05-27T17:15:23Z</time>
      </trkpt>
      <trkpt lat="47.00391" lon="-1.02354">
        <ele>102.108</ele>
        <time>2020-05-27T17:15:25Z</time>
      </trkpt>
      <trkpt lat="47.00392" lon="-1.02356">
        <ele>102.033</ele>
        <time>2020-05-27T17:15:25Z</time>
      </trkpt>
      <trkpt lat="47.00392" lon="-1.02358">
        <ele>102.979</ele>
        <time>2020-05-27T17:15:26Z</time>
      </trkpt>
      <trkpt lat="47.00392" lon="-1.02361">
        <ele>102.391</ele>
        <time>2020-05-27T17:15:27Z</time>
      </trkpt>
      <trkpt lat="47.00392" lon="-1.02362">
        <ele>102.005</ele>
        <time>2020-05-27T17:15:28Z</time>
      </trkpt>
      <trkpt lat="47.00392" lon="-1.02363">
        <ele>101.735</ele>
        <time>2020-05-27T17:15:29Z</time>
      </trkpt>
      <trkpt lat="47.00391" lon="-1.02364">
        <ele>100.661</ele>
        <time>2020-05-27T17:15:30Z</time>
      </trkpt>
      <trkpt lat="47.00391" lon="-1.02365">
        <ele>100.226</ele>
        <time>2020-05-27T17:15:31Z</time>
      </trkpt>
      <trkpt lat="47.00391" lon="-1.02367">
        <ele>99.572</ele>
        <time>2020-05-27T17:15:32Z</time>
      </trkpt>
      <trkpt lat="47.00391" lon="-1.02367">
        <ele>98.663</ele>
        <time>2020-05-27T17:15:33Z</time>
      </trkpt>
      <trkpt lat="47.00391" lon="-1.02369">
        <ele>98.547</ele>
        <time>2020-05-27T17:15:35Z</time>
      </trkpt>
      <trkpt lat="47.00391" lon="-1.0237">
        <ele>98.656</ele>
        <time>2020-05-27T17:15:36Z</time>
      </trkpt>
      <trkpt lat="47.00391" lon="-1.02372">
        <ele>96.791</ele>
        <time>2020-05-27T17:15:37Z</time>
      </trkpt>
      <trkpt lat="47.00391" lon="-1.02373">
        <ele>97.232</ele>
        <time>2020-05-27T17:15:38Z</time>
      </trkpt>
      <trkpt lat="47.00391" lon="-1.02373">
        <ele>97.253</ele>
        <time>2020-05-27T17:15:39Z</time>
      </trkpt>
      <trkpt lat="47.00391" lon="-1.02374">
        <ele>98.005</ele>
        <time>2020-05-27T17:15:40Z</time>
      </trkpt>
      <trkpt lat="47.00391" lon="-1.02374">
        <ele>99.316</ele>
        <time>2020-05-27T17:15:41Z</time>
      </trkpt>
      <trkpt lat="47.00391" lon="-1.02374">
        <ele>98.536</ele>
        <time>2020-05-27T17:15:42Z</time>
      </trkpt>
      <trkpt lat="47.00391" lon="-1.02375">
        <ele>98.238</ele>
        <time>2020-05-27T17:15:43Z</time>
      </trkpt>
      <trkpt lat="47.00391" lon="-1.02375">
        <ele>97.658</ele>
        <time>2020-05-27T17:15:44Z</time>
      </trkpt>
      <trkpt lat="47.00391" lon="-1.02376">
        <ele>96.871</ele>
        <time>2020-05-27T17:15:45Z</time>
      </trkpt>
      <trkpt lat="47.00391" lon="-1.02376">
        <ele>96.832</ele>
        <time>2020-05-27T17:15:46Z</time>
      </trkpt>
      <trkpt lat="47.00391" lon="-1.02376">
        <ele>96.695</ele>
        <time>2020-05-27T17:15:47Z</time>
      </trkpt>
      <trkpt lat="47.00391" lon="-1.02377">
        <ele>96.554</ele>
        <time>2020-05-27T17:15:48Z</time>
      </trkpt>
      <trkpt lat="47.00391" lon="-1.02377">
        <ele>96.602</ele>
        <time>2020-05-27T17:15:49Z</time>
      </trkpt>
      <trkpt lat="47.00391" lon="-1.02377">
        <ele>97.512</ele>
        <time>2020-05-27T17:15:50Z</time>
      </trkpt>
      <trkpt lat="47.00391" lon="-1.02378">
        <ele>97.597</ele>
        <time>2020-05-27T17:15:51Z</time>
      </trkpt>
      <trkpt lat="47.00391" lon="-1.02378">
        <ele>97.786</ele>
        <time>2020-05-27T17:15:52Z</time>
      </trkpt>
      <trkpt lat="47.00391" lon="-1.02378">
        <ele>97.997</ele>
        <time>2020-05-27T17:15:53Z</time>
      </trkpt>
      <trkpt lat="47.00391" lon="-1.02378">
        <ele>98.097</ele>
        <time>2020-05-27T17:15:54Z</time>
      </trkpt>
      <trkpt lat="47.00391" lon="-1.02379">
        <ele>98.044</ele>
        <time>2020-05-27T17:15:55Z</time>
      </trkpt>
      <trkpt lat="47.00391" lon="-1.02379">
        <ele>98.07</ele>
        <time>2020-05-27T17:15:56Z</time>
      </trkpt>
      <trkpt lat="47.00391" lon="-1.02379">
        <ele>98.029</ele>
        <time>2020-05-27T17:15:57Z</time>
      </trkpt>
      <trkpt lat="47.00391" lon="-1.02379">
        <ele>98.014</ele>
        <time>2020-05-27T17:15:58Z</time>
      </trkpt>
      <trkpt lat="47.00391" lon="-1.02379">
        <ele>98.006</ele>
        <time>2020-05-27T17:15:59Z</time>
      </trkpt>
      <trkpt lat="47.00391" lon="-1.02379">
        <ele>98.02</ele>
        <time>2020-05-27T17:16:00Z</time>
      </trkpt>
      <trkpt lat="47.00391" lon="-1.02379">
        <ele>98.016</ele>
        <time>2020-05-27T17:16:01Z</time>
      </trkpt>
      <trkpt lat="47.00391" lon="-1.02379">
        <ele>97.999</ele>
        <time>2020-05-27T17:16:02Z</time>
      </trkpt>
      <trkpt lat="47.00391" lon="-1.02379">
        <ele>97.999</ele>
        <time>2020-05-27T17:16:03Z</time>
      </trkpt>
      <trkpt lat="47.00391" lon="-1.02379">
        <ele>97.982</ele>
        <time>2020-05-27T17:16:04Z</time>
      </trkpt>
      <trkpt lat="47.00391" lon="-1.02379">
        <ele>97.987</ele>
        <time>2020-05-27T17:16:05Z</time>
      </trkpt>
      <trkpt lat="47.00391" lon="-1.02379">
        <ele>97.983</ele>
        <time>2020-05-27T17:16:06Z</time>
      </trkpt>
      <trkpt lat="47.00391" lon="-1.02379">
        <ele>97.975</ele>
        <time>2020-05-27T17:16:07Z</time>
      </trkpt>
      <trkpt lat="47.00391" lon="-1.02379">
        <ele>97.978</ele>
        <time>2020-05-27T17:16:08Z</time>
      </trkpt>
      <trkpt lat="47.00391" lon="-1.02379">
        <ele>97.985</ele>
        <time>2020-05-27T17:16:09Z</time>
      </trkpt>
      <trkpt lat="47.00391" lon="-1.02379">
        <ele>97.981</ele>
        <time>2020-05-27T17:16:10Z</time>
      </trkpt>
      <trkpt lat="47.00391" lon="-1.02379">
        <ele>97.953</ele>
        <time>2020-05-27T17:16:11Z</time>
      </trkpt>
      <trkpt lat="47.00391" lon="-1.02379">
        <ele>97.979</ele>
        <time>2020-05-27T17:16:12Z</time>
      </trkpt>
      <trkpt lat="47.00391" lon="-1.02379">
        <ele>97.985</ele>
        <time>2020-05-27T17:16:13Z</time>
      </trkpt>
      <trkpt lat="47.00391" lon="-1.02379">
        <ele>97.994</ele>
        <time>2020-05-27T17:16:14Z</time>
      </trkpt>
      <trkpt lat="47.00391" lon="-1.02379">
        <ele>98.057</ele>
        <time>2020-05-27T17:16:15Z</time>
      </trkpt>
      <trkpt lat="47.00391" lon="-1.02379">
        <ele>98.048</ele>
        <time>2020-05-27T17:16:16Z</time>
      </trkpt>
      <trkpt lat="47.00391" lon="-1.02379">
        <ele>98.046</ele>
        <time>2020-05-27T17:16:17Z</time>
      </trkpt>
      <trkpt lat="47.00391" lon="-1.02379">
        <ele>98.043</ele>
        <time>2020-05-27T17:16:18Z</time>
      </trkpt>
      <trkpt lat="47.00391" lon="-1.02379">
        <ele>98.057</ele>
        <time>2020-05-27T17:16:19Z</time>
      </trkpt>
      <trkpt lat="47.00391" lon="-1.02379">
        <ele>98.066</ele>
        <time>2020-05-27T17:16:20Z</time>
      </trkpt>
      <trkpt lat="47.00391" lon="-1.02379">
        <ele>98.076</ele>
        <time>2020-05-27T17:16:21Z</time>
      </trkpt>
      <trkpt lat="47.00391" lon="-1.02379">
        <ele>98.076</ele>
        <time>2020-05-27T17:16:22Z</time>
      </trkpt>
      <trkpt lat="47.00391" lon="-1.02379">
        <ele>98.079</ele>
        <time>2020-05-27T17:16:23Z</time>
      </trkpt>
      <trkpt lat="47.00391" lon="-1.02379">
        <ele>98.086</ele>
        <time>2020-05-27T17:16:24Z</time>
      </trkpt>
      <trkpt lat="47.00391" lon="-1.02379">
        <ele>98.096</ele>
        <time>2020-05-27T17:16:25Z</time>
      </trkpt>
      <trkpt lat="47.0039" lon="-1.02379">
        <ele>98.108</ele>
        <time>2020-05-27T17:16:26Z</time>
      </trkpt>
      <trkpt lat="47.0039" lon="-1.02379">
        <ele>98.123</ele>
        <time>2020-05-27T17:16:27Z</time>
      </trkpt>
      <trkpt lat="47.0039" lon="-1.02379">
        <ele>98.142</ele>
        <time>2020-05-27T17:16:28Z</time>
      </trkpt>
      <trkpt lat="47.0039" lon="-1.02379">
        <ele>98.163</ele>
        <time>2020-05-27T17:16:29Z</time>
      </trkpt>
      <trkpt lat="47.0039" lon="-1.02379">
        <ele>98.172</ele>
        <time>2020-05-27T17:16:30Z</time>
      </trkpt>
      <trkpt lat="47.0039" lon="-1.02379">
        <ele>98.187</ele>
        <time>2020-05-27T17:16:31Z</time>
      </trkpt>
      <trkpt lat="47.0039" lon="-1.02379">
        <ele>98.209</ele>
        <time>2020-05-27T17:16:32Z</time>
      </trkpt>
      <trkpt lat="47.0039" lon="-1.02379">
        <ele>98.214</ele>
        <time>2020-05-27T17:16:33Z</time>
      </trkpt>
      <trkpt lat="47.0039" lon="-1.02379">
        <ele>98.221</ele>
        <time>2020-05-27T17:16:34Z</time>
      </trkpt>
      <trkpt lat="47.0039" lon="-1.02379">
        <ele>98.201</ele>
        <time>2020-05-27T17:16:35Z</time>
      </trkpt>
      <trkpt lat="47.0039" lon="-1.02379">
        <ele>98.202</ele>
        <time>2020-05-27T17:16:36Z</time>
      </trkpt>
      <trkpt lat="47.0039" lon="-1.02379">
        <ele>98.206</ele>
        <time>2020-05-27T17:16:37Z</time>
      </trkpt>
      <trkpt lat="47.0039" lon="-1.02379">
        <ele>98.225</ele>
        <time>2020-05-27T17:16:38Z</time>
      </trkpt>
      <trkpt lat="47.0039" lon="-1.02379">
        <ele>98.243</ele>
        <time>2020-05-27T17:16:39Z</time>
      </trkpt>
      <trkpt lat="47.0039" lon="-1.02379">
        <ele>98.268</ele>
        <time>2020-05-27T17:16:40Z</time>
      </trkpt>
      <trkpt lat="47.0039" lon="-1.02379">
        <ele>98.287</ele>
        <time>2020-05-27T17:16:41Z</time>
      </trkpt>
      <trkpt lat="47.0039" lon="-1.02379">
        <ele>98.303</ele>
        <time>2020-05-27T17:16:42Z</time>
      </trkpt>
      <trkpt lat="47.0039" lon="-1.02379">
        <ele>98.32</ele>
        <time>2020-05-27T17:16:43Z</time>
      </trkpt>
      <trkpt lat="47.0039" lon="-1.02379">
        <ele>98.338</ele>
        <time>2020-05-27T17:16:44Z</time>
      </trkpt>
      <trkpt lat="47.0039" lon="-1.02379">
        <ele>98.356</ele>
        <time>2020-05-27T17:16:45Z</time>
      </trkpt>
      <trkpt lat="47.0039" lon="-1.02379">
        <ele>98.359</ele>
        <time>2020-05-27T17:16:46Z</time>
      </trkpt>
      <trkpt lat="47.0039" lon="-1.02379">
        <ele>98.374</ele>
        <time>2020-05-27T17:16:47Z</time>
      </trkpt>
      <trkpt lat="47.0039" lon="-1.02379">
        <ele>98.393</ele>
        <time>2020-05-27T17:16:48Z</time>
      </trkpt>
      <trkpt lat="47.0039" lon="-1.0238">
        <ele>98.414</ele>
        <time>2020-05-27T17:16:49Z</time>
      </trkpt>
      <trkpt lat="47.0039" lon="-1.0238">
        <ele>98.434</ele>
        <time>2020-05-27T17:16:50Z</time>
      </trkpt>
      <trkpt lat="47.0039" lon="-1.0238">
        <ele>98.448</ele>
        <time>2020-05-27T17:16:51Z</time>
      </trkpt>
      <trkpt lat="47.0039" lon="-1.0238">
        <ele>98.461</ele>
        <time>2020-05-27T17:16:52Z</time>
      </trkpt>
      <trkpt lat="47.0039" lon="-1.0238">
        <ele>98.476</ele>
        <time>2020-05-27T17:16:53Z</time>
      </trkpt>
      <trkpt lat="47.0039" lon="-1.0238">
        <ele>98.482</ele>
        <time>2020-05-27T17:16:54Z</time>
      </trkpt>
      <trkpt lat="47.0039" lon="-1.0238">
        <ele>98.49</ele>
        <time>2020-05-27T17:16:55Z</time>
      </trkpt>
      <trkpt lat="47.0039" lon="-1.0238">
        <ele>98.497</ele>
        <time>2020-05-27T17:16:56Z</time>
      </trkpt>
      <trkpt lat="47.0039" lon="-1.0238">
        <ele>98.572</ele>
        <time>2020-05-27T17:16:57Z</time>
      </trkpt>
      <trkpt lat="47.0039" lon="-1.0238">
        <ele>98.594</ele>
        <time>2020-05-27T17:16:58Z</time>
      </trkpt>
      <trkpt lat="47.0039" lon="-1.0238">
        <ele>98.604</ele>
        <time>2020-05-27T17:16:59Z</time>
      </trkpt>
      <trkpt lat="47.0039" lon="-1.0238">
        <ele>98.438</ele>
        <time>2020-05-27T17:17:00Z</time>
      </trkpt>
      <trkpt lat="47.0039" lon="-1.0238">
        <ele>98.654</ele>
        <time>2020-05-27T17:17:01Z</time>
      </trkpt>
      <trkpt lat="47.0039" lon="-1.0238">
        <ele>98.662</ele>
        <time>2020-05-27T17:17:02Z</time>
      </trkpt>
      <trkpt lat="47.0039" lon="-1.0238">
        <ele>98.673</ele>
        <time>2020-05-27T17:17:03Z</time>
      </trkpt>
      <trkpt lat="47.0039" lon="-1.0238">
        <ele>98.684</ele>
        <time>2020-05-27T17:17:04Z</time>
      </trkpt>
      <trkpt lat="47.0039" lon="-1.0238">
        <ele>98.702</ele>
        <time>2020-05-27T17:17:05Z</time>
      </trkpt>
      <trkpt lat="47.0039" lon="-1.0238">
        <ele>98.715</ele>
        <time>2020-05-27T17:17:06Z</time>
      </trkpt>
      <trkpt lat="47.0039" lon="-1.0238">
        <ele>98.707</ele>
        <time>2020-05-27T17:17:07Z</time>
      </trkpt>
      <trkpt lat="47.0039" lon="-1.0238">
        <ele>98.712</ele>
        <time>2020-05-27T17:17:08Z</time>
      </trkpt>
      <trkpt lat="47.0039" lon="-1.0238">
        <ele>98.712</ele>
        <time>2020-05-27T17:17:09Z</time>
      </trkpt>
      <trkpt lat="47.0039" lon="-1.0238">
        <ele>98.713</ele>
        <time>2020-05-27T17:17:10Z</time>
      </trkpt>
      <trkpt lat="47.0039" lon="-1.0238">
        <ele>98.719</ele>
        <time>2020-05-27T17:17:11Z</time>
      </trkpt>
      <trkpt lat="47.0039" lon="-1.0238">
        <ele>98.722</ele>
        <time>2020-05-27T17:17:12Z</time>
      </trkpt>
      <trkpt lat="47.0039" lon="-1.0238">
        <ele>98.721</ele>
        <time>2020-05-27T17:17:13Z</time>
      </trkpt>
      <trkpt lat="47.0039" lon="-1.0238">
        <ele>98.729</ele>
        <time>2020-05-27T17:17:14Z</time>
      </trkpt>
      <trkpt lat="47.0039" lon="-1.0238">
        <ele>98.729</ele>
        <time>2020-05-27T17:17:15Z</time>
      </trkpt>
      <trkpt lat="47.0039" lon="-1.0238">
        <ele>98.702</ele>
        <time>2020-05-27T17:17:16Z</time>
      </trkpt>
      <trkpt lat="47.0039" lon="-1.0238">
        <ele>98.674</ele>
        <time>2020-05-27T17:17:17Z</time>
      </trkpt>
      <trkpt lat="47.0039" lon="-1.0238">
        <ele>98.687</ele>
        <time>2020-05-27T17:17:18Z</time>
      </trkpt>
      <trkpt lat="47.0039" lon="-1.0238">
        <ele>98.687</ele>
        <time>2020-05-27T17:17:19Z</time>
      </trkpt>
      <trkpt lat="47.0039" lon="-1.0238">
        <ele>98.679</ele>
        <time>2020-05-27T17:17:20Z</time>
      </trkpt>
      <trkpt lat="47.0039" lon="-1.0238">
        <ele>98.69</ele>
        <time>2020-05-27T17:17:21Z</time>
      </trkpt>
      <trkpt lat="47.0039" lon="-1.0238">
        <ele>98.701</ele>
        <time>2020-05-27T17:17:22Z</time>
      </trkpt>
      <trkpt lat="47.0039" lon="-1.0238">
        <ele>98.701</ele>
        <time>2020-05-27T17:17:23Z</time>
      </trkpt>
      <trkpt lat="47.0039" lon="-1.0238">
        <ele>98.732</ele>
        <time>2020-05-27T17:17:24Z</time>
      </trkpt>
      <trkpt lat="47.0039" lon="-1.0238">
        <ele>98.708</ele>
        <time>2020-05-27T17:17:25Z</time>
      </trkpt>
      <trkpt lat="47.0039" lon="-1.0238">
        <ele>98.725</ele>
        <time>2020-05-27T17:17:26Z</time>
      </trkpt>
      <trkpt lat="47.0039" lon="-1.0238">
        <ele>98.735</ele>
        <time>2020-05-27T17:17:27Z</time>
      </trkpt>
      <trkpt lat="47.0039" lon="-1.0238">
        <ele>100.502</ele>
        <time>2020-05-27T17:17:28Z</time>
      </trkpt>
      <trkpt lat="47.00391" lon="-1.02381">
        <ele>99.719</ele>
        <time>2020-05-27T17:17:29Z</time>
      </trkpt>
      <trkpt lat="47.00391" lon="-1.02381">
        <ele>98.862</ele>
        <time>2020-05-27T17:17:30Z</time>
      </trkpt>
      <trkpt lat="47.00391" lon="-1.02382">
        <ele>100.714</ele>
        <time>2020-05-27T17:17:32Z</time>
      </trkpt>
      <trkpt lat="47.00391" lon="-1.02383">
        <ele>101.452</ele>
        <time>2020-05-27T17:17:33Z</time>
      </trkpt>
      <trkpt lat="47.00392" lon="-1.02384">
        <ele>101.777</ele>
        <time>2020-05-27T17:17:34Z</time>
      </trkpt>
      <trkpt lat="47.00392" lon="-1.02385">
        <ele>101.995</ele>
        <time>2020-05-27T17:17:35Z</time>
      </trkpt>
      <trkpt lat="47.00392" lon="-1.02388">
        <ele>101.854</ele>
        <time>2020-05-27T17:17:36Z</time>
      </trkpt>
      <trkpt lat="47.00391" lon="-1.0239">
        <ele>101.087</ele>
        <time>2020-05-27T17:17:37Z</time>
      </trkpt>
      <trkpt lat="47.00391" lon="-1.02392">
        <ele>102.318</ele>
        <time>2020-05-27T17:17:38Z</time>
      </trkpt>
      <trkpt lat="47.00391" lon="-1.02393">
        <ele>100.788</ele>
        <time>2020-05-27T17:17:39Z</time>
      </trkpt>
      <trkpt lat="47.00391" lon="-1.02395">
        <ele>101.204</ele>
        <time>2020-05-27T17:17:40Z</time>
      </trkpt>
      <trkpt lat="47.00391" lon="-1.02396">
        <ele>102.489</ele>
        <time>2020-05-27T17:17:41Z</time>
      </trkpt>
      <trkpt lat="47.00391" lon="-1.02397">
        <ele>103.814</ele>
        <time>2020-05-27T17:17:42Z</time>
      </trkpt>
      <trkpt lat="47.0039" lon="-1.02398">
        <ele>103.482</ele>
        <time>2020-05-27T17:17:43Z</time>
      </trkpt>
      <trkpt lat="47.0039" lon="-1.02399">
        <ele>104.175</ele>
        <time>2020-05-27T17:17:44Z</time>
      </trkpt>
      <trkpt lat="47.00389" lon="-1.024">
        <ele>102.931</ele>
        <time>2020-05-27T17:17:45Z</time>
      </trkpt>
      <trkpt lat="47.00388" lon="-1.02401">
        <ele>104.78</ele>
        <time>2020-05-27T17:17:46Z</time>
      </trkpt>
      <trkpt lat="47.00387" lon="-1.02402">
        <ele>107.345</ele>
        <time>2020-05-27T17:17:47Z</time>
      </trkpt>
      <trkpt lat="47.00387" lon="-1.02403">
        <ele>105.031</ele>
        <time>2020-05-27T17:17:48Z</time>
      </trkpt>
      <trkpt lat="47.00386" lon="-1.02404">
        <ele>104.541</ele>
        <time>2020-05-27T17:17:49Z</time>
      </trkpt>
      <trkpt lat="47.00386" lon="-1.02406">
        <ele>104.013</ele>
        <time>2020-05-27T17:17:50Z</time>
      </trkpt>
      <trkpt lat="47.00386" lon="-1.02407">
        <ele>103.061</ele>
        <time>2020-05-27T17:17:51Z</time>
      </trkpt>
      <trkpt lat="47.00385" lon="-1.02409">
        <ele>102.803</ele>
        <time>2020-05-27T17:17:52Z</time>
      </trkpt>
      <trkpt lat="47.00385" lon="-1.02411">
        <ele>103.554</ele>
        <time>2020-05-27T17:17:53Z</time>
      </trkpt>
      <trkpt lat="47.00386" lon="-1.02413">
        <ele>106.127</ele>
        <time>2020-05-27T17:17:54Z</time>
      </trkpt>
      <trkpt lat="47.00386" lon="-1.02415">
        <ele>105.465</ele>
        <time>2020-05-27T17:17:56Z</time>
      </trkpt>
      <trkpt lat="47.00386" lon="-1.02416">
        <ele>105.832</ele>
        <time>2020-05-27T17:17:56Z</time>
      </trkpt>
      <trkpt lat="47.00386" lon="-1.02417">
        <ele>105.677</ele>
        <time>2020-05-27T17:17:57Z</time>
      </trkpt>
      <trkpt lat="47.00386" lon="-1.02418">
        <ele>106.247</ele>
        <time>2020-05-27T17:17:58Z</time>
      </trkpt>
      <trkpt lat="47.00386" lon="-1.02419">
        <ele>107.534</ele>
        <time>2020-05-27T17:17:59Z</time>
      </trkpt>
      <trkpt lat="47.00385" lon="-1.0242">
        <ele>107.788</ele>
        <time>2020-05-27T17:18:00Z</time>
      </trkpt>
      <trkpt lat="47.00385" lon="-1.02421">
        <ele>107.531</ele>
        <time>2020-05-27T17:18:01Z</time>
      </trkpt>
      <trkpt lat="47.00385" lon="-1.02422">
        <ele>106.977</ele>
        <time>2020-05-27T17:18:02Z</time>
      </trkpt>
      <trkpt lat="47.00385" lon="-1.02423">
        <ele>106.77</ele>
        <time>2020-05-27T17:18:03Z</time>
      </trkpt>
      <trkpt lat="47.00385" lon="-1.02425">
        <ele>108.48</ele>
        <time>2020-05-27T17:18:04Z</time>
      </trkpt>
      <trkpt lat="47.00384" lon="-1.02427">
        <ele>109.664</ele>
        <time>2020-05-27T17:18:05Z</time>
      </trkpt>
      <trkpt lat="47.00383" lon="-1.02427">
        <ele>109.012</ele>
        <time>2020-05-27T17:18:06Z</time>
      </trkpt>
      <trkpt lat="47.00382" lon="-1.02428">
        <ele>108.049</ele>
        <time>2020-05-27T17:18:07Z</time>
      </trkpt>
      <trkpt lat="47.00381" lon="-1.02429">
        <ele>157.939</ele>
        <time>2020-05-27T17:18:08Z</time>
      </trkpt>
      <trkpt lat="47.0038" lon="-1.0243">
        <ele>145.244</ele>
        <time>2020-05-27T17:18:10Z</time>
      </trkpt>
      <trkpt lat="47.0038" lon="-1.02431">
        <ele>139.927</ele>
        <time>2020-05-27T17:18:11Z</time>
      </trkpt>
      <trkpt lat="47.0038" lon="-1.02433">
        <ele>137.044</ele>
        <time>2020-05-27T17:18:12Z</time>
      </trkpt>
      <trkpt lat="47.0038" lon="-1.02434">
        <ele>131.856</ele>
        <time>2020-05-27T17:18:13Z</time>
      </trkpt>
      <trkpt lat="47.00381" lon="-1.02436">
        <ele>127.724</ele>
        <time>2020-05-27T17:18:14Z</time>
      </trkpt>
      <trkpt lat="47.00381" lon="-1.02437">
        <ele>123.503</ele>
        <time>2020-05-27T17:18:15Z</time>
      </trkpt>
      <trkpt lat="47.0038" lon="-1.02438">
        <ele>120.313</ele>
        <time>2020-05-27T17:18:16Z</time>
      </trkpt>
      <trkpt lat="47.0038" lon="-1.0244">
        <ele>118.829</ele>
        <time>2020-05-27T17:18:17Z</time>
      </trkpt>
      <trkpt lat="47.00379" lon="-1.02441">
        <ele>118.399</ele>
        <time>2020-05-27T17:18:18Z</time>
      </trkpt>
      <trkpt lat="47.00379" lon="-1.02442">
        <ele>113.456</ele>
        <time>2020-05-27T17:18:19Z</time>
      </trkpt>
      <trkpt lat="47.00378" lon="-1.02443">
        <ele>114.039</ele>
        <time>2020-05-27T17:18:20Z</time>
      </trkpt>
      <trkpt lat="47.00378" lon="-1.02443">
        <ele>113.732</ele>
        <time>2020-05-27T17:18:21Z</time>
      </trkpt>
      <trkpt lat="47.00378" lon="-1.02445">
        <ele>113.781</ele>
        <time>2020-05-27T17:18:23Z</time>
      </trkpt>
      <trkpt lat="47.00377" lon="-1.02445">
        <ele>112.825</ele>
        <time>2020-05-27T17:18:24Z</time>
      </trkpt>
      <trkpt lat="47.00376" lon="-1.02445">
        <ele>112.418</ele>
        <time>2020-05-27T17:18:25Z</time>
      </trkpt>
      <trkpt lat="47.00376" lon="-1.02445">
        <ele>111.297</ele>
        <time>2020-05-27T17:18:26Z</time>
      </trkpt>
      <trkpt lat="47.00376" lon="-1.02445">
        <ele>110.57</ele>
        <time>2020-05-27T17:18:27Z</time>
      </trkpt>
      <trkpt lat="47.00376" lon="-1.02445">
        <ele>110.507</ele>
        <time>2020-05-27T17:18:28Z</time>
      </trkpt>
      <trkpt lat="47.00376" lon="-1.02445">
        <ele>110.637</ele>
        <time>2020-05-27T17:18:29Z</time>
      </trkpt>
      <trkpt lat="47.00376" lon="-1.02446">
        <ele>109.877</ele>
        <time>2020-05-27T17:18:30Z</time>
      </trkpt>
      <trkpt lat="47.00376" lon="-1.02446">
        <ele>101.86</ele>
        <time>2020-05-27T17:18:32Z</time>
      </trkpt>
      <trkpt lat="47.00376" lon="-1.02445">
        <ele>102.968</ele>
        <time>2020-05-27T17:18:32Z</time>
      </trkpt>
      <trkpt lat="47.00375" lon="-1.02445">
        <ele>103.894</ele>
        <time>2020-05-27T17:18:33Z</time>
      </trkpt>
      <trkpt lat="47.00375" lon="-1.02444">
        <ele>104.708</ele>
        <time>2020-05-27T17:18:34Z</time>
      </trkpt>
      <trkpt lat="47.00375" lon="-1.02444">
        <ele>105.963</ele>
        <time>2020-05-27T17:18:35Z</time>
      </trkpt>
      <trkpt lat="47.00375" lon="-1.02444">
        <ele>106.504</ele>
        <time>2020-05-27T17:18:36Z</time>
      </trkpt>
      <trkpt lat="47.00375" lon="-1.02444">
        <ele>107.083</ele>
        <time>2020-05-27T17:18:37Z</time>
      </trkpt>
      <trkpt lat="47.00375" lon="-1.02445">
        <ele>107.747</ele>
        <time>2020-05-27T17:18:38Z</time>
      </trkpt>
      <trkpt lat="47.00375" lon="-1.02445">
        <ele>108.103</ele>
        <time>2020-05-27T17:18:39Z</time>
      </trkpt>
      <trkpt lat="47.00375" lon="-1.02445">
        <ele>108.566</ele>
        <time>2020-05-27T17:18:40Z</time>
      </trkpt>
      <trkpt lat="47.00374" lon="-1.02445">
        <ele>108.411</ele>
        <time>2020-05-27T17:18:41Z</time>
      </trkpt>
      <trkpt lat="47.00374" lon="-1.02446">
        <ele>108.473</ele>
        <time>2020-05-27T17:18:42Z</time>
      </trkpt>
      <trkpt lat="47.00373" lon="-1.02447">
        <ele>109.428</ele>
        <time>2020-05-27T17:18:43Z</time>
      </trkpt>
      <trkpt lat="47.00372" lon="-1.02448">
        <ele>110.188</ele>
        <time>2020-05-27T17:18:44Z</time>
      </trkpt>
      <trkpt lat="47.00371" lon="-1.02448">
        <ele>111.139</ele>
        <time>2020-05-27T17:18:45Z</time>
      </trkpt>
      <trkpt lat="47.00371" lon="-1.02448">
        <ele>111.47</ele>
        <time>2020-05-27T17:18:46Z</time>
      </trkpt>
      <trkpt lat="47.0037" lon="-1.02449">
        <ele>159.341</ele>
        <time>2020-05-27T17:18:47Z</time>
      </trkpt>
      <trkpt lat="47.0037" lon="-1.02448">
        <ele>150.883</ele>
        <time>2020-05-27T17:18:48Z</time>
      </trkpt>
      <trkpt lat="47.0037" lon="-1.02448">
        <ele>143.379</ele>
        <time>2020-05-27T17:18:49Z</time>
      </trkpt>
      <trkpt lat="47.0037" lon="-1.02447">
        <ele>137.962</ele>
        <time>2020-05-27T17:18:50Z</time>
      </trkpt>
      <trkpt lat="47.00369" lon="-1.02447">
        <ele>133.104</ele>
        <time>2020-05-27T17:18:51Z</time>
      </trkpt>
      <trkpt lat="47.00369" lon="-1.02447">
        <ele>129.444</ele>
        <time>2020-05-27T17:18:52Z</time>
      </trkpt>
      <trkpt lat="47.00369" lon="-1.02447">
        <ele>126.04</ele>
        <time>2020-05-27T17:18:53Z</time>
      </trkpt>
      <trkpt lat="47.00369" lon="-1.02447">
        <ele>124.105</ele>
        <time>2020-05-27T17:18:54Z</time>
      </trkpt>
      <trkpt lat="47.00369" lon="-1.02447">
        <ele>122.649</ele>
        <time>2020-05-27T17:18:55Z</time>
      </trkpt>
      <trkpt lat="47.00369" lon="-1.02446">
        <ele>120.935</ele>
        <time>2020-05-27T17:18:56Z</time>
      </trkpt>
      <trkpt lat="47.00368" lon="-1.02446">
        <ele>119.863</ele>
        <time>2020-05-27T17:18:57Z</time>
      </trkpt>
      <trkpt lat="47.00368" lon="-1.02446">
        <ele>118.582</ele>
        <time>2020-05-27T17:18:58Z</time>
      </trkpt>
      <trkpt lat="47.00368" lon="-1.02446">
        <ele>117.485</ele>
        <time>2020-05-27T17:18:59Z</time>
      </trkpt>
      <trkpt lat="47.00368" lon="-1.02446">
        <ele>117.572</ele>
        <time>2020-05-27T17:19:00Z</time>
      </trkpt>
      <trkpt lat="47.00368" lon="-1.02446">
        <ele>116.548</ele>
        <time>2020-05-27T17:19:01Z</time>
      </trkpt>
      <trkpt lat="47.00368" lon="-1.02446">
        <ele>116.811</ele>
        <time>2020-05-27T17:19:02Z</time>
      </trkpt>
      <trkpt lat="47.00368" lon="-1.02446">
        <ele>116.036</ele>
        <time>2020-05-27T17:19:03Z</time>
      </trkpt>
      <trkpt lat="47.00368" lon="-1.02446">
        <ele>114.7</ele>
        <time>2020-05-27T17:19:04Z</time>
      </trkpt>
      <trkpt lat="47.00368" lon="-1.02446">
        <ele>114.521</ele>
        <time>2020-05-27T17:19:06Z</time>
      </trkpt>
      <trkpt lat="47.00368" lon="-1.02446">
        <ele>114.093</ele>
        <time>2020-05-27T17:19:07Z</time>
      </trkpt>
      <trkpt lat="47.00368" lon="-1.02446">
        <ele>113.607</ele>
        <time>2020-05-27T17:19:08Z</time>
      </trkpt>
      <trkpt lat="47.00368" lon="-1.02446">
        <ele>113.244</ele>
        <time>2020-05-27T17:19:09Z</time>
      </trkpt>
      <trkpt lat="47.00368" lon="-1.02446">
        <ele>112.882</ele>
        <time>2020-05-27T17:19:10Z</time>
      </trkpt>
      <trkpt lat="47.00368" lon="-1.02446">
        <ele>112.604</ele>
        <time>2020-05-27T17:19:11Z</time>
      </trkpt>
      <trkpt lat="47.00368" lon="-1.02446">
        <ele>112.323</ele>
        <time>2020-05-27T17:19:12Z</time>
      </trkpt>
      <trkpt lat="47.00368" lon="-1.02446">
        <ele>112.033</ele>
        <time>2020-05-27T17:19:13Z</time>
      </trkpt>
      <trkpt lat="47.00368" lon="-1.02446">
        <ele>112.238</ele>
        <time>2020-05-27T17:19:14Z</time>
      </trkpt>
      <trkpt lat="47.00368" lon="-1.02446">
        <ele>112.125</ele>
        <time>2020-05-27T17:19:15Z</time>
      </trkpt>
      <trkpt lat="47.00368" lon="-1.02446">
        <ele>112.479</ele>
        <time>2020-05-27T17:19:16Z</time>
      </trkpt>
      <trkpt lat="47.00368" lon="-1.02446">
        <ele>112.328</ele>
        <time>2020-05-27T17:19:17Z</time>
      </trkpt>
      <trkpt lat="47.00368" lon="-1.02446">
        <ele>112.034</ele>
        <time>2020-05-27T17:19:18Z</time>
      </trkpt>
      <trkpt lat="47.00368" lon="-1.02446">
        <ele>111.887</ele>
        <time>2020-05-27T17:19:19Z</time>
      </trkpt>
      <trkpt lat="47.00368" lon="-1.02446">
        <ele>111.698</ele>
        <time>2020-05-27T17:19:20Z</time>
      </trkpt>
      <trkpt lat="47.00368" lon="-1.02446">
        <ele>111.8</ele>
        <time>2020-05-27T17:19:21Z</time>
      </trkpt>
      <trkpt lat="47.00368" lon="-1.02446">
        <ele>111.637</ele>
        <time>2020-05-27T17:19:22Z</time>
      </trkpt>
      <trkpt lat="47.00368" lon="-1.02446">
        <ele>111.564</ele>
        <time>2020-05-27T17:19:23Z</time>
      </trkpt>
      <trkpt lat="47.00368" lon="-1.02446">
        <ele>111.473</ele>
        <time>2020-05-27T17:19:24Z</time>
      </trkpt>
      <trkpt lat="47.00368" lon="-1.02446">
        <ele>111.692</ele>
        <time>2020-05-27T17:19:25Z</time>
      </trkpt>
      <trkpt lat="47.00368" lon="-1.02446">
        <ele>111.922</ele>
        <time>2020-05-27T17:19:26Z</time>
      </trkpt>
      <trkpt lat="47.00368" lon="-1.02446">
        <ele>111.874</ele>
        <time>2020-05-27T17:19:27Z</time>
      </trkpt>
      <trkpt lat="47.00368" lon="-1.02446">
        <ele>111.992</ele>
        <time>2020-05-27T17:19:28Z</time>
      </trkpt>
      <trkpt lat="47.00368" lon="-1.02446">
        <ele>111.704</ele>
        <time>2020-05-27T17:19:29Z</time>
      </trkpt>
      <trkpt lat="47.00368" lon="-1.02446">
        <ele>111.951</ele>
        <time>2020-05-27T17:19:30Z</time>
      </trkpt>
      <trkpt lat="47.00368" lon="-1.02445">
        <ele>111.27</ele>
        <time>2020-05-27T17:19:31Z</time>
      </trkpt>
      <trkpt lat="47.00368" lon="-1.02446">
        <ele>110.162</ele>
        <time>2020-05-27T17:19:32Z</time>
      </trkpt>
      <trkpt lat="47.00367" lon="-1.02446">
        <ele>109.775</ele>
        <time>2020-05-27T17:19:33Z</time>
      </trkpt>
      <trkpt lat="47.00365" lon="-1.02447">
        <ele>107.766</ele>
        <time>2020-05-27T17:19:36Z</time>
      </trkpt>
      <trkpt lat="47.00365" lon="-1.02447">
        <ele>102.158</ele>
        <time>2020-05-27T17:19:37Z</time>
      </trkpt>
      <trkpt lat="47.00366" lon="-1.02446">
        <ele>107.045</ele>
        <time>2020-05-27T17:19:40Z</time>
      </trkpt>
      <trkpt lat="47.00365" lon="-1.02446">
        <ele>108.295</ele>
        <time>2020-05-27T17:19:41Z</time>
      </trkpt>
      <trkpt lat="47.00365" lon="-1.02446">
        <ele>108.793</ele>
        <time>2020-05-27T17:19:42Z</time>
      </trkpt>
      <trkpt lat="47.00365" lon="-1.02446">
        <ele>111.662</ele>
        <time>2020-05-27T17:19:43Z</time>
      </trkpt>
      <trkpt lat="47.00365" lon="-1.02445">
        <ele>113.767</ele>
        <time>2020-05-27T17:19:45Z</time>
      </trkpt>
      <trkpt lat="47.00365" lon="-1.02445">
        <ele>114.607</ele>
        <time>2020-05-27T17:19:46Z</time>
      </trkpt>
      <trkpt lat="47.00365" lon="-1.02444">
        <ele>115.334</ele>
        <time>2020-05-27T17:19:47Z</time>
      </trkpt>
      <trkpt lat="47.00365" lon="-1.02444">
        <ele>115.142</ele>
        <time>2020-05-27T17:19:48Z</time>
      </trkpt>
      <trkpt lat="47.00365" lon="-1.02444">
        <ele>115.578</ele>
        <time>2020-05-27T17:19:49Z</time>
      </trkpt>
      <trkpt lat="47.00365" lon="-1.02444">
        <ele>115.659</ele>
        <time>2020-05-27T17:19:50Z</time>
      </trkpt>
      <trkpt lat="47.00364" lon="-1.02444">
        <ele>115.505</ele>
        <time>2020-05-27T17:19:51Z</time>
      </trkpt>
      <trkpt lat="47.00364" lon="-1.02444">
        <ele>153.629</ele>
        <time>2020-05-27T17:19:52Z</time>
      </trkpt>
      <trkpt lat="47.00364" lon="-1.02444">
        <ele>143.892</ele>
        <time>2020-05-27T17:19:53Z</time>
      </trkpt>
      <trkpt lat="47.00363" lon="-1.02444">
        <ele>138.101</ele>
        <time>2020-05-27T17:19:54Z</time>
      </trkpt>
      <trkpt lat="47.00363" lon="-1.02444">
        <ele>132.815</ele>
        <time>2020-05-27T17:19:55Z</time>
      </trkpt>
      <trkpt lat="47.00363" lon="-1.02443">
        <ele>129.261</ele>
        <time>2020-05-27T17:19:56Z</time>
      </trkpt>
      <trkpt lat="47.00363" lon="-1.02443">
        <ele>126.841</ele>
        <time>2020-05-27T17:19:57Z</time>
      </trkpt>
      <trkpt lat="47.00363" lon="-1.02443">
        <ele>124.99</ele>
        <time>2020-05-27T17:19:58Z</time>
      </trkpt>
      <trkpt lat="47.00363" lon="-1.02443">
        <ele>123.095</ele>
        <time>2020-05-27T17:19:59Z</time>
      </trkpt>
      <trkpt lat="47.00363" lon="-1.02443">
        <ele>121.468</ele>
        <time>2020-05-27T17:20:00Z</time>
      </trkpt>
      <trkpt lat="47.00363" lon="-1.02443">
        <ele>121.159</ele>
        <time>2020-05-27T17:20:01Z</time>
      </trkpt>
      <trkpt lat="47.00363" lon="-1.02443">
        <ele>121.054</ele>
        <time>2020-05-27T17:20:02Z</time>
      </trkpt>
      <trkpt lat="47.00363" lon="-1.02443">
        <ele>120.282</ele>
        <time>2020-05-27T17:20:03Z</time>
      </trkpt>
      <trkpt lat="47.00362" lon="-1.02443">
        <ele>118.634</ele>
        <time>2020-05-27T17:20:04Z</time>
      </trkpt>
      <trkpt lat="47.00361" lon="-1.02443">
        <ele>116.221</ele>
        <time>2020-05-27T17:20:05Z</time>
      </trkpt>
      <trkpt lat="47.0036" lon="-1.02444">
        <ele>117.833</ele>
        <time>2020-05-27T17:20:06Z</time>
      </trkpt>
      <trkpt lat="47.00358" lon="-1.02444">
        <ele>118.679</ele>
        <time>2020-05-27T17:20:07Z</time>
      </trkpt>
      <trkpt lat="47.00357" lon="-1.02444">
        <ele>118.651</ele>
        <time>2020-05-27T17:20:08Z</time>
      </trkpt>
      <trkpt lat="47.00356" lon="-1.02444">
        <ele>118.809</ele>
        <time>2020-05-27T17:20:09Z</time>
      </trkpt>
      <trkpt lat="47.00354" lon="-1.02444">
        <ele>118.763</ele>
        <time>2020-05-27T17:20:10Z</time>
      </trkpt>
      <trkpt lat="47.00353" lon="-1.02444">
        <ele>119.778</ele>
        <time>2020-05-27T17:20:11Z</time>
      </trkpt>
      <trkpt lat="47.00351" lon="-1.02443">
        <ele>119.281</ele>
        <time>2020-05-27T17:20:12Z</time>
      </trkpt>
      <trkpt lat="47.0035" lon="-1.02443">
        <ele>122.121</ele>
        <time>2020-05-27T17:20:13Z</time>
      </trkpt>
      <trkpt lat="47.00349" lon="-1.02443">
        <ele>123.484</ele>
        <time>2020-05-27T17:20:14Z</time>
      </trkpt>
      <trkpt lat="47.00348" lon="-1.02443">
        <ele>124.719</ele>
        <time>2020-05-27T17:20:15Z</time>
      </trkpt>
      <trkpt lat="47.00347" lon="-1.02444">
        <ele>124.125</ele>
        <time>2020-05-27T17:20:16Z</time>
      </trkpt>
      <trkpt lat="47.00346" lon="-1.02446">
        <ele>123.464</ele>
        <time>2020-05-27T17:20:17Z</time>
      </trkpt>
      <trkpt lat="47.00345" lon="-1.02447">
        <ele>123.993</ele>
        <time>2020-05-27T17:20:18Z</time>
      </trkpt>
      <trkpt lat="47.00343" lon="-1.02448">
        <ele>124.148</ele>
        <time>2020-05-27T17:20:19Z</time>
      </trkpt>
      <trkpt lat="47.00342" lon="-1.02448">
        <ele>123.547</ele>
        <time>2020-05-27T17:20:20Z</time>
      </trkpt>
      <trkpt lat="47.0034" lon="-1.02448">
        <ele>123.63</ele>
        <time>2020-05-27T17:20:21Z</time>
      </trkpt>
      <trkpt lat="47.00339" lon="-1.02448">
        <ele>122.018</ele>
        <time>2020-05-27T17:20:22Z</time>
      </trkpt>
      <trkpt lat="47.00338" lon="-1.02449">
        <ele>122.073</ele>
        <time>2020-05-27T17:20:23Z</time>
      </trkpt>
      <trkpt lat="47.00337" lon="-1.0245">
        <ele>122.378</ele>
        <time>2020-05-27T17:20:24Z</time>
      </trkpt>
      <trkpt lat="47.00335" lon="-1.02451">
        <ele>123.366</ele>
        <time>2020-05-27T17:20:25Z</time>
      </trkpt>
      <trkpt lat="47.00333" lon="-1.02452">
        <ele>122.908</ele>
        <time>2020-05-27T17:20:27Z</time>
      </trkpt>
      <trkpt lat="47.00331" lon="-1.02453">
        <ele>124.413</ele>
        <time>2020-05-27T17:20:27Z</time>
      </trkpt>
      <trkpt lat="47.00329" lon="-1.02454">
        <ele>124.923</ele>
        <time>2020-05-27T17:20:28Z</time>
      </trkpt>
      <trkpt lat="47.00327" lon="-1.02454">
        <ele>125.927</ele>
        <time>2020-05-27T17:20:29Z</time>
      </trkpt>
      <trkpt lat="47.00325" lon="-1.02455">
        <ele>123.565</ele>
        <time>2020-05-27T17:20:30Z</time>
      </trkpt>
      <trkpt lat="47.00323" lon="-1.02455">
        <ele>124.093</ele>
        <time>2020-05-27T17:20:31Z</time>
      </trkpt>
      <trkpt lat="47.00321" lon="-1.02455">
        <ele>123.999</ele>
        <time>2020-05-27T17:20:32Z</time>
      </trkpt>
      <trkpt lat="47.0032" lon="-1.02456">
        <ele>123.204</ele>
        <time>2020-05-27T17:20:33Z</time>
      </trkpt>
      <trkpt lat="47.00318" lon="-1.02457">
        <ele>124.199</ele>
        <time>2020-05-27T17:20:34Z</time>
      </trkpt>
      <trkpt lat="47.00317" lon="-1.02458">
        <ele>125.179</ele>
        <time>2020-05-27T17:20:35Z</time>
      </trkpt>
      <trkpt lat="47.00315" lon="-1.02459">
        <ele>122.986</ele>
        <time>2020-05-27T17:20:36Z</time>
      </trkpt>
      <trkpt lat="47.00313" lon="-1.02459">
        <ele>123.199</ele>
        <time>2020-05-27T17:20:37Z</time>
      </trkpt>
      <trkpt lat="47.00311" lon="-1.02459">
        <ele>123.779</ele>
        <time>2020-05-27T17:20:38Z</time>
      </trkpt>
      <trkpt lat="47.00309" lon="-1.02459">
        <ele>126.344</ele>
        <time>2020-05-27T17:20:39Z</time>
      </trkpt>
      <trkpt lat="47.00307" lon="-1.02459">
        <ele>127.59</ele>
        <time>2020-05-27T17:20:40Z</time>
      </trkpt>
      <trkpt lat="47.00306" lon="-1.02459">
        <ele>127.59</ele>
        <time>2020-05-27T17:20:41Z</time>
      </trkpt>
      <trkpt lat="47.00305" lon="-1.0246">
        <ele>128.7</ele>
        <time>2020-05-27T17:20:42Z</time>
      </trkpt>
      <trkpt lat="47.00304" lon="-1.02461">
        <ele>109.224</ele>
        <time>2020-05-27T17:20:43Z</time>
      </trkpt>
      <trkpt lat="47.00303" lon="-1.02462">
        <ele>113.505</ele>
        <time>2020-05-27T17:20:44Z</time>
      </trkpt>
      <trkpt lat="47.00303" lon="-1.02462">
        <ele>117.043</ele>
        <time>2020-05-27T17:20:45Z</time>
      </trkpt>
      <trkpt lat="47.00304" lon="-1.02461">
        <ele>119.182</ele>
        <time>2020-05-27T17:20:46Z</time>
      </trkpt>
      <trkpt lat="47.00304" lon="-1.0246">
        <ele>122.225</ele>
        <time>2020-05-27T17:20:47Z</time>
      </trkpt>
      <trkpt lat="47.00304" lon="-1.0246">
        <ele>123.704</ele>
        <time>2020-05-27T17:20:48Z</time>
      </trkpt>
      <trkpt lat="47.00304" lon="-1.02459">
        <ele>124.592</ele>
        <time>2020-05-27T17:20:49Z</time>
      </trkpt>
      <trkpt lat="47.00304" lon="-1.02459">
        <ele>125.087</ele>
        <time>2020-05-27T17:20:50Z</time>
      </trkpt>
      <trkpt lat="47.00304" lon="-1.02459">
        <ele>125.525</ele>
        <time>2020-05-27T17:20:51Z</time>
      </trkpt>
      <trkpt lat="47.00304" lon="-1.02459">
        <ele>125.933</ele>
        <time>2020-05-27T17:20:52Z</time>
      </trkpt>
      <trkpt lat="47.00304" lon="-1.02458">
        <ele>126.439</ele>
        <time>2020-05-27T17:20:53Z</time>
      </trkpt>
      <trkpt lat="47.00304" lon="-1.02458">
        <ele>126.415</ele>
        <time>2020-05-27T17:20:54Z</time>
      </trkpt>
      <trkpt lat="47.00303" lon="-1.02458">
        <ele>126.681</ele>
        <time>2020-05-27T17:20:55Z</time>
      </trkpt>
      <trkpt lat="47.00303" lon="-1.02458">
        <ele>127.186</ele>
        <time>2020-05-27T17:20:56Z</time>
      </trkpt>
      <trkpt lat="47.00303" lon="-1.02458">
        <ele>127.622</ele>
        <time>2020-05-27T17:20:57Z</time>
      </trkpt>
      <trkpt lat="47.00303" lon="-1.02458">
        <ele>127.806</ele>
        <time>2020-05-27T17:20:58Z</time>
      </trkpt>
      <trkpt lat="47.00303" lon="-1.02458">
        <ele>128.828</ele>
        <time>2020-05-27T17:21:00Z</time>
      </trkpt>
      <trkpt lat="47.00304" lon="-1.02458">
        <ele>128.885</ele>
        <time>2020-05-27T17:21:01Z</time>
      </trkpt>
      <trkpt lat="47.00304" lon="-1.02458">
        <ele>129.187</ele>
        <time>2020-05-27T17:21:02Z</time>
      </trkpt>
      <trkpt lat="47.00304" lon="-1.02459">
        <ele>128.561</ele>
        <time>2020-05-27T17:21:04Z</time>
      </trkpt>
      <trkpt lat="47.00304" lon="-1.0246">
        <ele>128.666</ele>
        <time>2020-05-27T17:21:05Z</time>
      </trkpt>
      <trkpt lat="47.00304" lon="-1.0246">
        <ele>128.748</ele>
        <time>2020-05-27T17:21:06Z</time>
      </trkpt>
      <trkpt lat="47.00304" lon="-1.0246">
        <ele>128.825</ele>
        <time>2020-05-27T17:21:07Z</time>
      </trkpt>
      <trkpt lat="47.00304" lon="-1.0246">
        <ele>128.803</ele>
        <time>2020-05-27T17:21:08Z</time>
      </trkpt>
      <trkpt lat="47.00304" lon="-1.0246">
        <ele>128.763</ele>
        <time>2020-05-27T17:21:09Z</time>
      </trkpt>
      <trkpt lat="47.00304" lon="-1.02459">
        <ele>128.232</ele>
        <time>2020-05-27T17:21:10Z</time>
      </trkpt>
      <trkpt lat="47.00305" lon="-1.02458">
        <ele>127.8</ele>
        <time>2020-05-27T17:21:11Z</time>
      </trkpt>
      <trkpt lat="47.00307" lon="-1.02457">
        <ele>127.743</ele>
        <time>2020-05-27T17:21:12Z</time>
      </trkpt>
      <trkpt lat="47.00309" lon="-1.02456">
        <ele>127.417</ele>
        <time>2020-05-27T17:21:13Z</time>
      </trkpt>
      <trkpt lat="47.00311" lon="-1.02455">
        <ele>126.94</ele>
        <time>2020-05-27T17:21:14Z</time>
      </trkpt>
      <trkpt lat="47.00312" lon="-1.02454">
        <ele>126.588</ele>
        <time>2020-05-27T17:21:15Z</time>
      </trkpt>
      <trkpt lat="47.00314" lon="-1.02453">
        <ele>127.328</ele>
        <time>2020-05-27T17:21:16Z</time>
      </trkpt>
      <trkpt lat="47.00316" lon="-1.02452">
        <ele>127.552</ele>
        <time>2020-05-27T17:21:17Z</time>
      </trkpt>
      <trkpt lat="47.00318" lon="-1.0245">
        <ele>126.049</ele>
        <time>2020-05-27T17:21:18Z</time>
      </trkpt>
      <trkpt lat="47.00319" lon="-1.02449">
        <ele>125.344</ele>
        <time>2020-05-27T17:21:19Z</time>
      </trkpt>
      <trkpt lat="47.0032" lon="-1.02447">
        <ele>127.059</ele>
        <time>2020-05-27T17:21:20Z</time>
      </trkpt>
      <trkpt lat="47.00322" lon="-1.02446">
        <ele>127.491</ele>
        <time>2020-05-27T17:21:21Z</time>
      </trkpt>
      <trkpt lat="47.00324" lon="-1.02444">
        <ele>126.832</ele>
        <time>2020-05-27T17:21:22Z</time>
      </trkpt>
      <trkpt lat="47.00327" lon="-1.02442">
        <ele>127.015</ele>
        <time>2020-05-27T17:21:23Z</time>
      </trkpt>
      <trkpt lat="47.00329" lon="-1.02441">
        <ele>126.678</ele>
        <time>2020-05-27T17:21:24Z</time>
      </trkpt>
      <trkpt lat="47.00333" lon="-1.0244">
        <ele>127.553</ele>
        <time>2020-05-27T17:21:25Z</time>
      </trkpt>
      <trkpt lat="47.00337" lon="-1.0244">
        <ele>127.307</ele>
        <time>2020-05-27T17:21:26Z</time>
      </trkpt>
      <trkpt lat="47.00341" lon="-1.0244">
        <ele>127.219</ele>
        <time>2020-05-27T17:21:27Z</time>
      </trkpt>
      <trkpt lat="47.00344" lon="-1.0244">
        <ele>126.74</ele>
        <time>2020-05-27T17:21:28Z</time>
      </trkpt>
      <trkpt lat="47.00347" lon="-1.02439">
        <ele>123.248</ele>
        <time>2020-05-27T17:21:29Z</time>
      </trkpt>
      <trkpt lat="47.0035" lon="-1.02439">
        <ele>121.472</ele>
        <time>2020-05-27T17:21:30Z</time>
      </trkpt>
      <trkpt lat="47.00357" lon="-1.02439">
        <ele>120.374</ele>
        <time>2020-05-27T17:21:32Z</time>
      </trkpt>
      <trkpt lat="47.0036" lon="-1.0244">
        <ele>121.986</ele>
        <time>2020-05-27T17:21:33Z</time>
      </trkpt>
      <trkpt lat="47.00362" lon="-1.02441">
        <ele>121.606</ele>
        <time>2020-05-27T17:21:34Z</time>
      </trkpt>
      <trkpt lat="47.00364" lon="-1.02442">
        <ele>120.904</ele>
        <time>2020-05-27T17:21:35Z</time>
      </trkpt>
      <trkpt lat="47.00365" lon="-1.02442">
        <ele>120.819</ele>
        <time>2020-05-27T17:21:36Z</time>
      </trkpt>
      <trkpt lat="47.00366" lon="-1.02443">
        <ele>120.319</ele>
        <time>2020-05-27T17:21:37Z</time>
      </trkpt>
      <trkpt lat="47.00367" lon="-1.02443">
        <ele>120.725</ele>
        <time>2020-05-27T17:21:38Z</time>
      </trkpt>
      <trkpt lat="47.00367" lon="-1.02444">
        <ele>121.789</ele>
        <time>2020-05-27T17:21:39Z</time>
      </trkpt>
      <trkpt lat="47.00367" lon="-1.02444">
        <ele>121.322</ele>
        <time>2020-05-27T17:21:40Z</time>
      </trkpt>
      <trkpt lat="47.00368" lon="-1.02445">
        <ele>121.959</ele>
        <time>2020-05-27T17:21:41Z</time>
      </trkpt>
      <trkpt lat="47.00367" lon="-1.02445">
        <ele>121.374</ele>
        <time>2020-05-27T17:21:42Z</time>
      </trkpt>
      <trkpt lat="47.00367" lon="-1.02446">
        <ele>121.233</ele>
        <time>2020-05-27T17:21:43Z</time>
      </trkpt>
      <trkpt lat="47.00368" lon="-1.02446">
        <ele>122.26</ele>
        <time>2020-05-27T17:21:44Z</time>
      </trkpt>
      <trkpt lat="47.00368" lon="-1.02446">
        <ele>122.397</ele>
        <time>2020-05-27T17:21:45Z</time>
      </trkpt>
      <trkpt lat="47.00368" lon="-1.02446">
        <ele>122.633</ele>
        <time>2020-05-27T17:21:46Z</time>
      </trkpt>
      <trkpt lat="47.00369" lon="-1.02446">
        <ele>122.206</ele>
        <time>2020-05-27T17:21:48Z</time>
      </trkpt>
      <trkpt lat="47.00369" lon="-1.02446">
        <ele>121.375</ele>
        <time>2020-05-27T17:21:48Z</time>
      </trkpt>
      <trkpt lat="47.00369" lon="-1.02447">
        <ele>121.409</ele>
        <time>2020-05-27T17:21:49Z</time>
      </trkpt>
      <trkpt lat="47.00369" lon="-1.02447">
        <ele>121.842</ele>
        <time>2020-05-27T17:21:50Z</time>
      </trkpt>
      <trkpt lat="47.00369" lon="-1.02447">
        <ele>121.752</ele>
        <time>2020-05-27T17:21:51Z</time>
      </trkpt>
      <trkpt lat="47.0037" lon="-1.02447">
        <ele>120.761</ele>
        <time>2020-05-27T17:21:52Z</time>
      </trkpt>
      <trkpt lat="47.0037" lon="-1.02446">
        <ele>120.391</ele>
        <time>2020-05-27T17:21:53Z</time>
      </trkpt>
      <trkpt lat="47.00371" lon="-1.02445">
        <ele>120.487</ele>
        <time>2020-05-27T17:21:54Z</time>
      </trkpt>
      <trkpt lat="47.00371" lon="-1.02445">
        <ele>121.683</ele>
        <time>2020-05-27T17:21:55Z</time>
      </trkpt>
      <trkpt lat="47.00372" lon="-1.02446">
        <ele>122.444</ele>
        <time>2020-05-27T17:21:56Z</time>
      </trkpt>
      <trkpt lat="47.00372" lon="-1.02446">
        <ele>123.093</ele>
        <time>2020-05-27T17:21:57Z</time>
      </trkpt>
      <trkpt lat="47.00372" lon="-1.02447">
        <ele>122.298</ele>
        <time>2020-05-27T17:21:58Z</time>
      </trkpt>
      <trkpt lat="47.00372" lon="-1.02447">
        <ele>121.487</ele>
        <time>2020-05-27T17:21:59Z</time>
      </trkpt>
      <trkpt lat="47.00372" lon="-1.02446">
        <ele>121.078</ele>
        <time>2020-05-27T17:22:00Z</time>
      </trkpt>
      <trkpt lat="47.00372" lon="-1.02445">
        <ele>121.615</ele>
        <time>2020-05-27T17:22:01Z</time>
      </trkpt>
      <trkpt lat="47.00373" lon="-1.02444">
        <ele>121.435</ele>
        <time>2020-05-27T17:22:02Z</time>
      </trkpt>
      <trkpt lat="47.00372" lon="-1.02443">
        <ele>121.351</ele>
        <time>2020-05-27T17:22:04Z</time>
      </trkpt>
      <trkpt lat="47.00372" lon="-1.02443">
        <ele>121.154</ele>
        <time>2020-05-27T17:22:05Z</time>
      </trkpt>
      <trkpt lat="47.00372" lon="-1.02443">
        <ele>121.221</ele>
        <time>2020-05-27T17:22:06Z</time>
      </trkpt>
      <trkpt lat="47.00372" lon="-1.02443">
        <ele>121.067</ele>
        <time>2020-05-27T17:22:07Z</time>
      </trkpt>
      <trkpt lat="47.00372" lon="-1.02443">
        <ele>121.19</ele>
        <time>2020-05-27T17:22:08Z</time>
      </trkpt>
      <trkpt lat="47.00372" lon="-1.02443">
        <ele>121.25</ele>
        <time>2020-05-27T17:22:09Z</time>
      </trkpt>
      <trkpt lat="47.00372" lon="-1.02443">
        <ele>121.247</ele>
        <time>2020-05-27T17:22:10Z</time>
      </trkpt>
      <trkpt lat="47.00372" lon="-1.02443">
        <ele>121.772</ele>
        <time>2020-05-27T17:22:11Z</time>
      </trkpt>
      <trkpt lat="47.00372" lon="-1.02443">
        <ele>122.271</ele>
        <time>2020-05-27T17:22:12Z</time>
      </trkpt>
      <trkpt lat="47.00372" lon="-1.02443">
        <ele>122.317</ele>
        <time>2020-05-27T17:22:13Z</time>
      </trkpt>
      <trkpt lat="47.00372" lon="-1.02443">
        <ele>121.87</ele>
        <time>2020-05-27T17:22:14Z</time>
      </trkpt>
      <trkpt lat="47.00372" lon="-1.02443">
        <ele>121.939</ele>
        <time>2020-05-27T17:22:15Z</time>
      </trkpt>
      <trkpt lat="47.00372" lon="-1.02443">
        <ele>121.928</ele>
        <time>2020-05-27T17:22:16Z</time>
      </trkpt>
      <trkpt lat="47.00372" lon="-1.02443">
        <ele>121.92</ele>
        <time>2020-05-27T17:22:17Z</time>
      </trkpt>
      <trkpt lat="47.00372" lon="-1.02443">
        <ele>121.915</ele>
        <time>2020-05-27T17:22:18Z</time>
      </trkpt>
      <trkpt lat="47.00372" lon="-1.02443">
        <ele>121.914</ele>
        <time>2020-05-27T17:22:19Z</time>
      </trkpt>
      <trkpt lat="47.00372" lon="-1.02443">
        <ele>121.912</ele>
        <time>2020-05-27T17:22:20Z</time>
      </trkpt>
      <trkpt lat="47.00372" lon="-1.02443">
        <ele>121.912</ele>
        <time>2020-05-27T17:22:23Z</time>
      </trkpt>
      <trkpt lat="47.00372" lon="-1.02443">
        <ele>121.912</ele>
        <time>2020-05-27T17:22:23Z</time>
      </trkpt>
      <trkpt lat="47.00372" lon="-1.02443">
        <ele>121.909</ele>
        <time>2020-05-27T17:22:23Z</time>
      </trkpt>
      <trkpt lat="47.00372" lon="-1.02443">
        <ele>121.91</ele>
        <time>2020-05-27T17:22:24Z</time>
      </trkpt>
      <trkpt lat="47.00372" lon="-1.02443">
        <ele>121.94</ele>
        <time>2020-05-27T17:22:25Z</time>
      </trkpt>
      <trkpt lat="47.00372" lon="-1.02443">
        <ele>121.936</ele>
        <time>2020-05-27T17:22:26Z</time>
      </trkpt>
      <trkpt lat="47.00372" lon="-1.02443">
        <ele>121.927</ele>
        <time>2020-05-27T17:22:27Z</time>
      </trkpt>
      <trkpt lat="47.00372" lon="-1.02443">
        <ele>121.942</ele>
        <time>2020-05-27T17:22:28Z</time>
      </trkpt>
      <trkpt lat="47.00372" lon="-1.02443">
        <ele>121.875</ele>
        <time>2020-05-27T17:22:30Z</time>
      </trkpt>
      <trkpt lat="47.00372" lon="-1.02443">
        <ele>121.815</ele>
        <time>2020-05-27T17:22:30Z</time>
      </trkpt>
      <trkpt lat="47.00372" lon="-1.02443">
        <ele>121.766</ele>
        <time>2020-05-27T17:22:31Z</time>
      </trkpt>
      <trkpt lat="47.00372" lon="-1.02443">
        <ele>121.795</ele>
        <time>2020-05-27T17:22:32Z</time>
      </trkpt>
      <trkpt lat="47.00372" lon="-1.02443">
        <ele>121.795</ele>
        <time>2020-05-27T17:22:33Z</time>
      </trkpt>
      <trkpt lat="47.00372" lon="-1.02443">
        <ele>121.809</ele>
        <time>2020-05-27T17:22:34Z</time>
      </trkpt>
      <trkpt lat="47.00372" lon="-1.02443">
        <ele>121.81</ele>
        <time>2020-05-27T17:22:35Z</time>
      </trkpt>
      <trkpt lat="47.00372" lon="-1.02443">
        <ele>121.851</ele>
        <time>2020-05-27T17:22:36Z</time>
      </trkpt>
      <trkpt lat="47.00372" lon="-1.02442">
        <ele>121.207</ele>
        <time>2020-05-27T17:22:37Z</time>
      </trkpt>
      <trkpt lat="47.00371" lon="-1.0244">
        <ele>120.292</ele>
        <time>2020-05-27T17:22:38Z</time>
      </trkpt>
      <trkpt lat="47.0037" lon="-1.02438">
        <ele>119.247</ele>
        <time>2020-05-27T17:22:39Z</time>
      </trkpt>
      <trkpt lat="47.00369" lon="-1.02436">
        <ele>118.975</ele>
        <time>2020-05-27T17:22:40Z</time>
      </trkpt>
      <trkpt lat="47.00369" lon="-1.02433">
        <ele>118.679</ele>
        <time>2020-05-27T17:22:41Z</time>
      </trkpt>
      <trkpt lat="47.00369" lon="-1.0243">
        <ele>119.613</ele>
        <time>2020-05-27T17:22:42Z</time>
      </trkpt>
      <trkpt lat="47.00369" lon="-1.02427">
        <ele>119.391</ele>
        <time>2020-05-27T17:22:43Z</time>
      </trkpt>
      <trkpt lat="47.00369" lon="-1.02424">
        <ele>118.796</ele>
        <time>2020-05-27T17:22:44Z</time>
      </trkpt>
      <trkpt lat="47.00369" lon="-1.02422">
        <ele>119.772</ele>
        <time>2020-05-27T17:22:45Z</time>
      </trkpt>
      <trkpt lat="47.00369" lon="-1.02419">
        <ele>119.853</ele>
        <time>2020-05-27T17:22:46Z</time>
      </trkpt>
      <trkpt lat="47.00369" lon="-1.02418">
        <ele>119.505</ele>
        <time>2020-05-27T17:22:47Z</time>
      </trkpt>
      <trkpt lat="47.00368" lon="-1.02417">
        <ele>120.065</ele>
        <time>2020-05-27T17:22:48Z</time>
      </trkpt>
      <trkpt lat="47.00366" lon="-1.02418">
        <ele>120.531</ele>
        <time>2020-05-27T17:22:49Z</time>
      </trkpt>
      <trkpt lat="47.00365" lon="-1.02419">
        <ele>120.842</ele>
        <time>2020-05-27T17:22:50Z</time>
      </trkpt>
      <trkpt lat="47.00363" lon="-1.0242">
        <ele>120.258</ele>
        <time>2020-05-27T17:22:51Z</time>
      </trkpt>
      <trkpt lat="47.00361" lon="-1.02421">
        <ele>121.219</ele>
        <time>2020-05-27T17:22:52Z</time>
      </trkpt>
      <trkpt lat="47.00359" lon="-1.02422">
        <ele>122.721</ele>
        <time>2020-05-27T17:22:53Z</time>
      </trkpt>
      <trkpt lat="47.00358" lon="-1.02423">
        <ele>123.709</ele>
        <time>2020-05-27T17:22:54Z</time>
      </trkpt>
      <trkpt lat="47.00357" lon="-1.02423">
        <ele>123.503</ele>
        <time>2020-05-27T17:22:55Z</time>
      </trkpt>
      <trkpt lat="47.00356" lon="-1.02423">
        <ele>123.737</ele>
        <time>2020-05-27T17:22:56Z</time>
      </trkpt>
      <trkpt lat="47.00355" lon="-1.02423">
        <ele>124.812</ele>
        <time>2020-05-27T17:22:57Z</time>
      </trkpt>
      <trkpt lat="47.00353" lon="-1.02423">
        <ele>123.937</ele>
        <time>2020-05-27T17:22:58Z</time>
      </trkpt>
      <trkpt lat="47.00351" lon="-1.02422">
        <ele>123.734</ele>
        <time>2020-05-27T17:22:59Z</time>
      </trkpt>
      <trkpt lat="47.0035" lon="-1.02421">
        <ele>119.007</ele>
        <time>2020-05-27T17:23:01Z</time>
      </trkpt>
      <trkpt lat="47.00348" lon="-1.0242">
        <ele>119.176</ele>
        <time>2020-05-27T17:23:01Z</time>
      </trkpt>
      <trkpt lat="47.00346" lon="-1.0242">
        <ele>119.638</ele>
        <time>2020-05-27T17:23:02Z</time>
      </trkpt>
      <trkpt lat="47.00344" lon="-1.0242">
        <ele>118.714</ele>
        <time>2020-05-27T17:23:03Z</time>
      </trkpt>
      <trkpt lat="47.00337" lon="-1.02419">
        <ele>118.685</ele>
        <time>2020-05-27T17:23:07Z</time>
      </trkpt>
      <trkpt lat="47.00335" lon="-1.02419">
        <ele>117.553</ele>
        <time>2020-05-27T17:23:07Z</time>
      </trkpt>
      <trkpt lat="47.00334" lon="-1.02419">
        <ele>116.924</ele>
        <time>2020-05-27T17:23:08Z</time>
      </trkpt>
      <trkpt lat="47.00332" lon="-1.02419">
        <ele>118.115</ele>
        <time>2020-05-27T17:23:09Z</time>
      </trkpt>
      <trkpt lat="47.0033" lon="-1.02419">
        <ele>118.14</ele>
        <time>2020-05-27T17:23:10Z</time>
      </trkpt>
      <trkpt lat="47.00328" lon="-1.02419">
        <ele>118.27</ele>
        <time>2020-05-27T17:23:11Z</time>
      </trkpt>
      <trkpt lat="47.00326" lon="-1.0242">
        <ele>117.786</ele>
        <time>2020-05-27T17:23:12Z</time>
      </trkpt>
      <trkpt lat="47.00325" lon="-1.02421">
        <ele>116.942</ele>
        <time>2020-05-27T17:23:13Z</time>
      </trkpt>
      <trkpt lat="47.00323" lon="-1.02422">
        <ele>117.091</ele>
        <time>2020-05-27T17:23:14Z</time>
      </trkpt>
      <trkpt lat="47.00323" lon="-1.02423">
        <ele>117.019</ele>
        <time>2020-05-27T17:23:15Z</time>
      </trkpt>
      <trkpt lat="47.00322" lon="-1.02422">
        <ele>116.911</ele>
        <time>2020-05-27T17:23:16Z</time>
      </trkpt>
      <trkpt lat="47.00321" lon="-1.02423">
        <ele>117.64</ele>
        <time>2020-05-27T17:23:17Z</time>
      </trkpt>
      <trkpt lat="47.0032" lon="-1.02425">
        <ele>117.453</ele>
        <time>2020-05-27T17:23:18Z</time>
      </trkpt>
      <trkpt lat="47.00318" lon="-1.02426">
        <ele>117.557</ele>
        <time>2020-05-27T17:23:19Z</time>
      </trkpt>
      <trkpt lat="47.00315" lon="-1.02427">
        <ele>114.987</ele>
        <time>2020-05-27T17:23:20Z</time>
      </trkpt>
      <trkpt lat="47.00313" lon="-1.02429">
        <ele>116.265</ele>
        <time>2020-05-27T17:23:21Z</time>
      </trkpt>
      <trkpt lat="47.0031" lon="-1.0243">
        <ele>117.031</ele>
        <time>2020-05-27T17:23:22Z</time>
      </trkpt>
      <trkpt lat="47.00308" lon="-1.02431">
        <ele>116.935</ele>
        <time>2020-05-27T17:23:23Z</time>
      </trkpt>
      <trkpt lat="47.00306" lon="-1.02432">
        <ele>117.018</ele>
        <time>2020-05-27T17:23:24Z</time>
      </trkpt>
      <trkpt lat="47.00304" lon="-1.02433">
        <ele>117.747</ele>
        <time>2020-05-27T17:23:25Z</time>
      </trkpt>
      <trkpt lat="47.00301" lon="-1.02434">
        <ele>119.526</ele>
        <time>2020-05-27T17:23:26Z</time>
      </trkpt>
      <trkpt lat="47.00299" lon="-1.02434">
        <ele>120.469</ele>
        <time>2020-05-27T17:23:27Z</time>
      </trkpt>
      <trkpt lat="47.00297" lon="-1.02434">
        <ele>121.417</ele>
        <time>2020-05-27T17:23:28Z</time>
      </trkpt>
      <trkpt lat="47.00295" lon="-1.02433">
        <ele>121.937</ele>
        <time>2020-05-27T17:23:29Z</time>
      </trkpt>
      <trkpt lat="47.00294" lon="-1.02432">
        <ele>122.398</ele>
        <time>2020-05-27T17:23:30Z</time>
      </trkpt>
      <trkpt lat="47.00292" lon="-1.02431">
        <ele>122.345</ele>
        <time>2020-05-27T17:23:31Z</time>
      </trkpt>
      <trkpt lat="47.0029" lon="-1.02431">
        <ele>122.781</ele>
        <time>2020-05-27T17:23:32Z</time>
      </trkpt>
      <trkpt lat="47.00289" lon="-1.02431">
        <ele>122.155</ele>
        <time>2020-05-27T17:23:33Z</time>
      </trkpt>
      <trkpt lat="47.00287" lon="-1.02432">
        <ele>122.542</ele>
        <time>2020-05-27T17:23:34Z</time>
      </trkpt>
      <trkpt lat="47.00285" lon="-1.02433">
        <ele>123.536</ele>
        <time>2020-05-27T17:23:35Z</time>
      </trkpt>
      <trkpt lat="47.00283" lon="-1.02435">
        <ele>123.734</ele>
        <time>2020-05-27T17:23:36Z</time>
      </trkpt>
      <trkpt lat="47.00282" lon="-1.02437">
        <ele>124.278</ele>
        <time>2020-05-27T17:23:37Z</time>
      </trkpt>
      <trkpt lat="47.0028" lon="-1.02439">
        <ele>124.607</ele>
        <time>2020-05-27T17:23:38Z</time>
      </trkpt>
      <trkpt lat="47.00279" lon="-1.02441">
        <ele>125.202</ele>
        <time>2020-05-27T17:23:39Z</time>
      </trkpt>
      <trkpt lat="47.00277" lon="-1.02443">
        <ele>125.763</ele>
        <time>2020-05-27T17:23:40Z</time>
      </trkpt>
      <trkpt lat="47.00275" lon="-1.02444">
        <ele>125.458</ele>
        <time>2020-05-27T17:23:41Z</time>
      </trkpt>
      <trkpt lat="47.00273" lon="-1.02446">
        <ele>126.595</ele>
        <time>2020-05-27T17:23:42Z</time>
      </trkpt>
      <trkpt lat="47.00272" lon="-1.02448">
        <ele>125.66</ele>
        <time>2020-05-27T17:23:43Z</time>
      </trkpt>
      <trkpt lat="47.0027" lon="-1.0245">
        <ele>126.515</ele>
        <time>2020-05-27T17:23:44Z</time>
      </trkpt>
      <trkpt lat="47.00268" lon="-1.02451">
        <ele>127.81</ele>
        <time>2020-05-27T17:23:45Z</time>
      </trkpt>
      <trkpt lat="47.00266" lon="-1.02452">
        <ele>128.462</ele>
        <time>2020-05-27T17:23:46Z</time>
      </trkpt>
      <trkpt lat="47.00265" lon="-1.02454">
        <ele>128.249</ele>
        <time>2020-05-27T17:23:47Z</time>
      </trkpt>
      <trkpt lat="47.00263" lon="-1.02454">
        <ele>128.336</ele>
        <time>2020-05-27T17:23:48Z</time>
      </trkpt>
      <trkpt lat="47.00262" lon="-1.02455">
        <ele>128.883</ele>
        <time>2020-05-27T17:23:49Z</time>
      </trkpt>
      <trkpt lat="47.0026" lon="-1.02456">
        <ele>129.186</ele>
        <time>2020-05-27T17:23:50Z</time>
      </trkpt>
      <trkpt lat="47.00259" lon="-1.02458">
        <ele>162.653</ele>
        <time>2020-05-27T17:23:51Z</time>
      </trkpt>
      <trkpt lat="47.00258" lon="-1.02459">
        <ele>156.278</ele>
        <time>2020-05-27T17:23:52Z</time>
      </trkpt>
      <trkpt lat="47.00256" lon="-1.02461">
        <ele>150.065</ele>
        <time>2020-05-27T17:23:53Z</time>
      </trkpt>
      <trkpt lat="47.00255" lon="-1.02462">
        <ele>143.1</ele>
        <time>2020-05-27T17:23:54Z</time>
      </trkpt>
      <trkpt lat="47.00253" lon="-1.02464">
        <ele>140.251</ele>
        <time>2020-05-27T17:23:55Z</time>
      </trkpt>
      <trkpt lat="47.00251" lon="-1.02465">
        <ele>136.979</ele>
        <time>2020-05-27T17:23:56Z</time>
      </trkpt>
      <trkpt lat="47.00249" lon="-1.02466">
        <ele>135.398</ele>
        <time>2020-05-27T17:23:57Z</time>
      </trkpt>
      <trkpt lat="47.00247" lon="-1.02467">
        <ele>135.303</ele>
        <time>2020-05-27T17:23:58Z</time>
      </trkpt>
      <trkpt lat="47.00245" lon="-1.02468">
        <ele>134.735</ele>
        <time>2020-05-27T17:23:59Z</time>
      </trkpt>
      <trkpt lat="47.00243" lon="-1.02469">
        <ele>134.116</ele>
        <time>2020-05-27T17:24:00Z</time>
      </trkpt>
      <trkpt lat="47.00241" lon="-1.02471">
        <ele>134.189</ele>
        <time>2020-05-27T17:24:01Z</time>
      </trkpt>
      <trkpt lat="47.00239" lon="-1.02472">
        <ele>134.663</ele>
        <time>2020-05-27T17:24:02Z</time>
      </trkpt>
      <trkpt lat="47.00237" lon="-1.02473">
        <ele>133.573</ele>
        <time>2020-05-27T17:24:03Z</time>
      </trkpt>
      <trkpt lat="47.00236" lon="-1.02475">
        <ele>133.446</ele>
        <time>2020-05-27T17:24:04Z</time>
      </trkpt>
      <trkpt lat="47.00234" lon="-1.02476">
        <ele>134.305</ele>
        <time>2020-05-27T17:24:05Z</time>
      </trkpt>
      <trkpt lat="47.00233" lon="-1.02477">
        <ele>134.241</ele>
        <time>2020-05-27T17:24:06Z</time>
      </trkpt>
      <trkpt lat="47.0023" lon="-1.02477">
        <ele>134.313</ele>
        <time>2020-05-27T17:24:07Z</time>
      </trkpt>
      <trkpt lat="47.00228" lon="-1.02478">
        <ele>134.194</ele>
        <time>2020-05-27T17:24:08Z</time>
      </trkpt>
      <trkpt lat="47.00226" lon="-1.02479">
        <ele>133.767</ele>
        <time>2020-05-27T17:24:09Z</time>
      </trkpt>
      <trkpt lat="47.00224" lon="-1.0248">
        <ele>133.123</ele>
        <time>2020-05-27T17:24:10Z</time>
      </trkpt>
      <trkpt lat="47.00222" lon="-1.0248">
        <ele>133.331</ele>
        <time>2020-05-27T17:24:11Z</time>
      </trkpt>
      <trkpt lat="47.00219" lon="-1.02481">
        <ele>133.199</ele>
        <time>2020-05-27T17:24:12Z</time>
      </trkpt>
      <trkpt lat="47.00217" lon="-1.02483">
        <ele>133.928</ele>
        <time>2020-05-27T17:24:13Z</time>
      </trkpt>
      <trkpt lat="47.00215" lon="-1.02484">
        <ele>134.634</ele>
        <time>2020-05-27T17:24:14Z</time>
      </trkpt>
      <trkpt lat="47.00213" lon="-1.02485">
        <ele>135.134</ele>
        <time>2020-05-27T17:24:15Z</time>
      </trkpt>
      <trkpt lat="47.00211" lon="-1.02486">
        <ele>135.047</ele>
        <time>2020-05-27T17:24:16Z</time>
      </trkpt>
      <trkpt lat="47.00209" lon="-1.02487">
        <ele>135.427</ele>
        <time>2020-05-27T17:24:17Z</time>
      </trkpt>
      <trkpt lat="47.00206" lon="-1.02488">
        <ele>135.606</ele>
        <time>2020-05-27T17:24:18Z</time>
      </trkpt>
      <trkpt lat="47.00204" lon="-1.02489">
        <ele>135.289</ele>
        <time>2020-05-27T17:24:19Z</time>
      </trkpt>
      <trkpt lat="47.00202" lon="-1.0249">
        <ele>135.772</ele>
        <time>2020-05-27T17:24:20Z</time>
      </trkpt>
      <trkpt lat="47.002" lon="-1.02491">
        <ele>136.72</ele>
        <time>2020-05-27T17:24:21Z</time>
      </trkpt>
      <trkpt lat="47.00199" lon="-1.02492">
        <ele>137.534</ele>
        <time>2020-05-27T17:24:22Z</time>
      </trkpt>
      <trkpt lat="47.00197" lon="-1.02493">
        <ele>137.239</ele>
        <time>2020-05-27T17:24:23Z</time>
      </trkpt>
      <trkpt lat="47.00195" lon="-1.02494">
        <ele>137.424</ele>
        <time>2020-05-27T17:24:24Z</time>
      </trkpt>
      <trkpt lat="47.00193" lon="-1.02496">
        <ele>138.335</ele>
        <time>2020-05-27T17:24:25Z</time>
      </trkpt>
      <trkpt lat="47.00191" lon="-1.02497">
        <ele>138.993</ele>
        <time>2020-05-27T17:24:26Z</time>
      </trkpt>
      <trkpt lat="47.00189" lon="-1.02499">
        <ele>139.517</ele>
        <time>2020-05-27T17:24:27Z</time>
      </trkpt>
      <trkpt lat="47.00187" lon="-1.02501">
        <ele>139.858</ele>
        <time>2020-05-27T17:24:28Z</time>
      </trkpt>
      <trkpt lat="47.00184" lon="-1.02502">
        <ele>139.312</ele>
        <time>2020-05-27T17:24:29Z</time>
      </trkpt>
      <trkpt lat="47.00183" lon="-1.02503">
        <ele>139.131</ele>
        <time>2020-05-27T17:24:30Z</time>
      </trkpt>
      <trkpt lat="47.00181" lon="-1.02504">
        <ele>139.295</ele>
        <time>2020-05-27T17:24:31Z</time>
      </trkpt>
      <trkpt lat="47.00178" lon="-1.02505">
        <ele>138.94</ele>
        <time>2020-05-27T17:24:32Z</time>
      </trkpt>
      <trkpt lat="47.00176" lon="-1.02507">
        <ele>139.201</ele>
        <time>2020-05-27T17:24:33Z</time>
      </trkpt>
      <trkpt lat="47.00174" lon="-1.02508">
        <ele>139.311</ele>
        <time>2020-05-27T17:24:34Z</time>
      </trkpt>
      <trkpt lat="47.00172" lon="-1.02509">
        <ele>139.488</ele>
        <time>2020-05-27T17:24:35Z</time>
      </trkpt>
      <trkpt lat="47.0017" lon="-1.0251">
        <ele>139.235</ele>
        <time>2020-05-27T17:24:36Z</time>
      </trkpt>
      <trkpt lat="47.00168" lon="-1.02511">
        <ele>139.32</ele>
        <time>2020-05-27T17:24:37Z</time>
      </trkpt>
      <trkpt lat="47.00165" lon="-1.02511">
        <ele>139.111</ele>
        <time>2020-05-27T17:24:38Z</time>
      </trkpt>
      <trkpt lat="47.00164" lon="-1.02512">
        <ele>139.118</ele>
        <time>2020-05-27T17:24:39Z</time>
      </trkpt>
      <trkpt lat="47.00161" lon="-1.02513">
        <ele>138.473</ele>
        <time>2020-05-27T17:24:40Z</time>
      </trkpt>
      <trkpt lat="47.00159" lon="-1.02514">
        <ele>138.597</ele>
        <time>2020-05-27T17:24:41Z</time>
      </trkpt>
      <trkpt lat="47.00156" lon="-1.02514">
        <ele>139.237</ele>
        <time>2020-05-27T17:24:42Z</time>
      </trkpt>
      <trkpt lat="47.00154" lon="-1.02514">
        <ele>138.989</ele>
        <time>2020-05-27T17:24:43Z</time>
      </trkpt>
      <trkpt lat="47.00151" lon="-1.02514">
        <ele>139.332</ele>
        <time>2020-05-27T17:24:44Z</time>
      </trkpt>
      <trkpt lat="47.00148" lon="-1.02514">
        <ele>139.871</ele>
        <time>2020-05-27T17:24:45Z</time>
      </trkpt>
      <trkpt lat="47.00145" lon="-1.02513">
        <ele>140.024</ele>
        <time>2020-05-27T17:24:46Z</time>
      </trkpt>
      <trkpt lat="47.00142" lon="-1.02513">
        <ele>138.338</ele>
        <time>2020-05-27T17:24:47Z</time>
      </trkpt>
      <trkpt lat="47.0014" lon="-1.02512">
        <ele>138.75</ele>
        <time>2020-05-27T17:24:48Z</time>
      </trkpt>
      <trkpt lat="47.00138" lon="-1.02512">
        <ele>138.859</ele>
        <time>2020-05-27T17:24:49Z</time>
      </trkpt>
      <trkpt lat="47.00136" lon="-1.02512">
        <ele>137.863</ele>
        <time>2020-05-27T17:24:50Z</time>
      </trkpt>
      <trkpt lat="47.00135" lon="-1.02511">
        <ele>139.127</ele>
        <time>2020-05-27T17:24:51Z</time>
      </trkpt>
      <trkpt lat="47.00133" lon="-1.02511">
        <ele>139.167</ele>
        <time>2020-05-27T17:24:52Z</time>
      </trkpt>
      <trkpt lat="47.0013" lon="-1.0251">
        <ele>139.485</ele>
        <time>2020-05-27T17:24:53Z</time>
      </trkpt>
      <trkpt lat="47.00127" lon="-1.02508">
        <ele>139.23</ele>
        <time>2020-05-27T17:24:54Z</time>
      </trkpt>
      <trkpt lat="47.00125" lon="-1.02507">
        <ele>140.354</ele>
        <time>2020-05-27T17:24:55Z</time>
      </trkpt>
      <trkpt lat="47.00122" lon="-1.02506">
        <ele>141.787</ele>
        <time>2020-05-27T17:24:56Z</time>
      </trkpt>
      <trkpt lat="47.00119" lon="-1.02505">
        <ele>141.889</ele>
        <time>2020-05-27T17:24:57Z</time>
      </trkpt>
      <trkpt lat="47.00117" lon="-1.02504">
        <ele>141.061</ele>
        <time>2020-05-27T17:24:58Z</time>
      </trkpt>
      <trkpt lat="47.00115" lon="-1.02504">
        <ele>141.958</ele>
        <time>2020-05-27T17:24:59Z</time>
      </trkpt>
      <trkpt lat="47.00112" lon="-1.02503">
        <ele>141.307</ele>
        <time>2020-05-27T17:25:00Z</time>
      </trkpt>
      <trkpt lat="47.0011" lon="-1.02503">
        <ele>141.949</ele>
        <time>2020-05-27T17:25:01Z</time>
      </trkpt>
      <trkpt lat="47.00108" lon="-1.02503">
        <ele>141.617</ele>
        <time>2020-05-27T17:25:02Z</time>
      </trkpt>
      <trkpt lat="47.00105" lon="-1.02502">
        <ele>141.693</ele>
        <time>2020-05-27T17:25:03Z</time>
      </trkpt>
      <trkpt lat="47.00103" lon="-1.02502">
        <ele>141.126</ele>
        <time>2020-05-27T17:25:04Z</time>
      </trkpt>
      <trkpt lat="47.001" lon="-1.02502">
        <ele>141.959</ele>
        <time>2020-05-27T17:25:05Z</time>
      </trkpt>
      <trkpt lat="47.00098" lon="-1.02502">
        <ele>142.218</ele>
        <time>2020-05-27T17:25:06Z</time>
      </trkpt>
      <trkpt lat="47.00096" lon="-1.02503">
        <ele>140.055</ele>
        <time>2020-05-27T17:25:07Z</time>
      </trkpt>
      <trkpt lat="47.00094" lon="-1.02504">
        <ele>140.074</ele>
        <time>2020-05-27T17:25:08Z</time>
      </trkpt>
      <trkpt lat="47.00091" lon="-1.02504">
        <ele>140.775</ele>
        <time>2020-05-27T17:25:09Z</time>
      </trkpt>
      <trkpt lat="47.00089" lon="-1.02505">
        <ele>141.576</ele>
        <time>2020-05-27T17:25:10Z</time>
      </trkpt>
      <trkpt lat="47.00086" lon="-1.02506">
        <ele>142.957</ele>
        <time>2020-05-27T17:25:11Z</time>
      </trkpt>
      <trkpt lat="47.00084" lon="-1.02506">
        <ele>142.422</ele>
        <time>2020-05-27T17:25:12Z</time>
      </trkpt>
      <trkpt lat="47.00082" lon="-1.02507">
        <ele>143.305</ele>
        <time>2020-05-27T17:25:13Z</time>
      </trkpt>
      <trkpt lat="47.00079" lon="-1.02507">
        <ele>144.094</ele>
        <time>2020-05-27T17:25:14Z</time>
      </trkpt>
      <trkpt lat="47.00077" lon="-1.02509">
        <ele>143.822</ele>
        <time>2020-05-27T17:25:15Z</time>
      </trkpt>
      <trkpt lat="47.00074" lon="-1.02509">
        <ele>144.493</ele>
        <time>2020-05-27T17:25:16Z</time>
      </trkpt>
      <trkpt lat="47.00071" lon="-1.0251">
        <ele>143.814</ele>
        <time>2020-05-27T17:25:17Z</time>
      </trkpt>
      <trkpt lat="47.00068" lon="-1.0251">
        <ele>143.687</ele>
        <time>2020-05-27T17:25:18Z</time>
      </trkpt>
      <trkpt lat="47.00064" lon="-1.02511">
        <ele>143.5</ele>
        <time>2020-05-27T17:25:19Z</time>
      </trkpt>
      <trkpt lat="47.00061" lon="-1.02513">
        <ele>143.719</ele>
        <time>2020-05-27T17:25:20Z</time>
      </trkpt>
      <trkpt lat="47.00058" lon="-1.02514">
        <ele>145.095</ele>
        <time>2020-05-27T17:25:21Z</time>
      </trkpt>
      <trkpt lat="47.00055" lon="-1.02515">
        <ele>145.893</ele>
        <time>2020-05-27T17:25:22Z</time>
      </trkpt>
      <trkpt lat="47.00051" lon="-1.02515">
        <ele>146.194</ele>
        <time>2020-05-27T17:25:23Z</time>
      </trkpt>
      <trkpt lat="47.00048" lon="-1.02515">
        <ele>145.347</ele>
        <time>2020-05-27T17:25:24Z</time>
      </trkpt>
      <trkpt lat="47.00046" lon="-1.02515">
        <ele>144.984</ele>
        <time>2020-05-27T17:25:25Z</time>
      </trkpt>
      <trkpt lat="47.00043" lon="-1.02515">
        <ele>144.815</ele>
        <time>2020-05-27T17:25:26Z</time>
      </trkpt>
      <trkpt lat="47.0004" lon="-1.02515">
        <ele>144.33</ele>
        <time>2020-05-27T17:25:27Z</time>
      </trkpt>
      <trkpt lat="47.00037" lon="-1.02516">
        <ele>144.406</ele>
        <time>2020-05-27T17:25:28Z</time>
      </trkpt>
      <trkpt lat="47.00034" lon="-1.02516">
        <ele>144.613</ele>
        <time>2020-05-27T17:25:29Z</time>
      </trkpt>
      <trkpt lat="47.00031" lon="-1.02516">
        <ele>144.313</ele>
        <time>2020-05-27T17:25:30Z</time>
      </trkpt>
      <trkpt lat="47.00027" lon="-1.02517">
        <ele>145.002</ele>
        <time>2020-05-27T17:25:31Z</time>
      </trkpt>
      <trkpt lat="47.00024" lon="-1.02517">
        <ele>145.469</ele>
        <time>2020-05-27T17:25:32Z</time>
      </trkpt>
      <trkpt lat="47.0002" lon="-1.02517">
        <ele>146.06</ele>
        <time>2020-05-27T17:25:33Z</time>
      </trkpt>
      <trkpt lat="47.00016" lon="-1.02518">
        <ele>146.912</ele>
        <time>2020-05-27T17:25:34Z</time>
      </trkpt>
      <trkpt lat="47.00013" lon="-1.02519">
        <ele>147.956</ele>
        <time>2020-05-27T17:25:35Z</time>
      </trkpt>
      <trkpt lat="47.00009" lon="-1.0252">
        <ele>147.768</ele>
        <time>2020-05-27T17:25:36Z</time>
      </trkpt>
      <trkpt lat="47.00005" lon="-1.02521">
        <ele>148.247</ele>
        <time>2020-05-27T17:25:37Z</time>
      </trkpt>
      <trkpt lat="47.00001" lon="-1.02522">
        <ele>147.925</ele>
        <time>2020-05-27T17:25:39Z</time>
      </trkpt>
      <trkpt lat="46.99997" lon="-1.02523">
        <ele>147.678</ele>
        <time>2020-05-27T17:25:39Z</time>
      </trkpt>
      <trkpt lat="46.99994" lon="-1.02524">
        <ele>148.191</ele>
        <time>2020-05-27T17:25:40Z</time>
      </trkpt>
      <trkpt lat="46.9999" lon="-1.02525">
        <ele>148.544</ele>
        <time>2020-05-27T17:25:41Z</time>
      </trkpt>
      <trkpt lat="46.99987" lon="-1.02526">
        <ele>148.877</ele>
        <time>2020-05-27T17:25:42Z</time>
      </trkpt>
      <trkpt lat="46.99985" lon="-1.02526">
        <ele>149.478</ele>
        <time>2020-05-27T17:25:43Z</time>
      </trkpt>
      <trkpt lat="46.99982" lon="-1.02527">
        <ele>149.129</ele>
        <time>2020-05-27T17:25:44Z</time>
      </trkpt>
      <trkpt lat="46.99981" lon="-1.02528">
        <ele>149.065</ele>
        <time>2020-05-27T17:25:45Z</time>
      </trkpt>
      <trkpt lat="46.9998" lon="-1.02529">
        <ele>149.072</ele>
        <time>2020-05-27T17:25:46Z</time>
      </trkpt>
      <trkpt lat="46.99976" lon="-1.02531">
        <ele>149.122</ele>
        <time>2020-05-27T17:25:48Z</time>
      </trkpt>
      <trkpt lat="46.99974" lon="-1.02531">
        <ele>147.824</ele>
        <time>2020-05-27T17:25:49Z</time>
      </trkpt>
      <trkpt lat="46.99971" lon="-1.02531">
        <ele>169.795</ele>
        <time>2020-05-27T17:25:50Z</time>
      </trkpt>
      <trkpt lat="46.99968" lon="-1.02533">
        <ele>158.096</ele>
        <time>2020-05-27T17:25:52Z</time>
      </trkpt>
      <trkpt lat="46.99964" lon="-1.02536">
        <ele>154.627</ele>
        <time>2020-05-27T17:25:54Z</time>
      </trkpt>
      <trkpt lat="46.99962" lon="-1.02537">
        <ele>153.514</ele>
        <time>2020-05-27T17:25:55Z</time>
      </trkpt>
      <trkpt lat="46.99959" lon="-1.02537">
        <ele>153.385</ele>
        <time>2020-05-27T17:25:56Z</time>
      </trkpt>
      <trkpt lat="46.99956" lon="-1.02538">
        <ele>151.829</ele>
        <time>2020-05-27T17:25:57Z</time>
      </trkpt>
      <trkpt lat="46.99953" lon="-1.02539">
        <ele>152.142</ele>
        <time>2020-05-27T17:25:58Z</time>
      </trkpt>
      <trkpt lat="46.9995" lon="-1.02541">
        <ele>151.922</ele>
        <time>2020-05-27T17:25:59Z</time>
      </trkpt>
      <trkpt lat="46.99947" lon="-1.02542">
        <ele>152.187</ele>
        <time>2020-05-27T17:26:00Z</time>
      </trkpt>
      <trkpt lat="46.99944" lon="-1.02543">
        <ele>152.182</ele>
        <time>2020-05-27T17:26:01Z</time>
      </trkpt>
      <trkpt lat="46.9994" lon="-1.02544">
        <ele>152.682</ele>
        <time>2020-05-27T17:26:02Z</time>
      </trkpt>
      <trkpt lat="46.99937" lon="-1.02545">
        <ele>153.347</ele>
        <time>2020-05-27T17:26:03Z</time>
      </trkpt>
      <trkpt lat="46.99934" lon="-1.02546">
        <ele>153.076</ele>
        <time>2020-05-27T17:26:04Z</time>
      </trkpt>
      <trkpt lat="46.99931" lon="-1.02548">
        <ele>152.508</ele>
        <time>2020-05-27T17:26:05Z</time>
      </trkpt>
      <trkpt lat="46.99927" lon="-1.02549">
        <ele>152.234</ele>
        <time>2020-05-27T17:26:06Z</time>
      </trkpt>
      <trkpt lat="46.99924" lon="-1.02551">
        <ele>152.43</ele>
        <time>2020-05-27T17:26:07Z</time>
      </trkpt>
      <trkpt lat="46.99921" lon="-1.02553">
        <ele>152.823</ele>
        <time>2020-05-27T17:26:08Z</time>
      </trkpt>
      <trkpt lat="46.99918" lon="-1.02555">
        <ele>152.842</ele>
        <time>2020-05-27T17:26:09Z</time>
      </trkpt>
      <trkpt lat="46.99915" lon="-1.02557">
        <ele>153.511</ele>
        <time>2020-05-27T17:26:10Z</time>
      </trkpt>
      <trkpt lat="46.99912" lon="-1.0256">
        <ele>153.914</ele>
        <time>2020-05-27T17:26:11Z</time>
      </trkpt>
      <trkpt lat="46.99909" lon="-1.02562">
        <ele>153.961</ele>
        <time>2020-05-27T17:26:12Z</time>
      </trkpt>
      <trkpt lat="46.99907" lon="-1.02566">
        <ele>152.524</ele>
        <time>2020-05-27T17:26:13Z</time>
      </trkpt>
      <trkpt lat="46.99904" lon="-1.02569">
        <ele>151.985</ele>
        <time>2020-05-27T17:26:14Z</time>
      </trkpt>
      <trkpt lat="46.99901" lon="-1.02573">
        <ele>152.127</ele>
        <time>2020-05-27T17:26:15Z</time>
      </trkpt>
      <trkpt lat="46.99899" lon="-1.02577">
        <ele>152.085</ele>
        <time>2020-05-27T17:26:16Z</time>
      </trkpt>
      <trkpt lat="46.99897" lon="-1.02581">
        <ele>152.465</ele>
        <time>2020-05-27T17:26:17Z</time>
      </trkpt>
      <trkpt lat="46.99894" lon="-1.02584">
        <ele>153.226</ele>
        <time>2020-05-27T17:26:18Z</time>
      </trkpt>
      <trkpt lat="46.99891" lon="-1.02587">
        <ele>153.941</ele>
        <time>2020-05-27T17:26:19Z</time>
      </trkpt>
      <trkpt lat="46.99888" lon="-1.02589">
        <ele>154.103</ele>
        <time>2020-05-27T17:26:20Z</time>
      </trkpt>
      <trkpt lat="46.99885" lon="-1.0259">
        <ele>154.426</ele>
        <time>2020-05-27T17:26:21Z</time>
      </trkpt>
      <trkpt lat="46.99882" lon="-1.0259">
        <ele>154.608</ele>
        <time>2020-05-27T17:26:22Z</time>
      </trkpt>
      <trkpt lat="46.99878" lon="-1.02589">
        <ele>155.136</ele>
        <time>2020-05-27T17:26:23Z</time>
      </trkpt>
      <trkpt lat="46.99876" lon="-1.02588">
        <ele>156.051</ele>
        <time>2020-05-27T17:26:24Z</time>
      </trkpt>
      <trkpt lat="46.99874" lon="-1.02586">
        <ele>155.265</ele>
        <time>2020-05-27T17:26:25Z</time>
      </trkpt>
      <trkpt lat="46.99871" lon="-1.02585">
        <ele>155.006</ele>
        <time>2020-05-27T17:26:26Z</time>
      </trkpt>
      <trkpt lat="46.99868" lon="-1.02583">
        <ele>155.017</ele>
        <time>2020-05-27T17:26:27Z</time>
      </trkpt>
      <trkpt lat="46.99866" lon="-1.02582">
        <ele>155.134</ele>
        <time>2020-05-27T17:26:28Z</time>
      </trkpt>
      <trkpt lat="46.99863" lon="-1.02581">
        <ele>155.824</ele>
        <time>2020-05-27T17:26:29Z</time>
      </trkpt>
      <trkpt lat="46.9986" lon="-1.0258">
        <ele>156.348</ele>
        <time>2020-05-27T17:26:30Z</time>
      </trkpt>
      <trkpt lat="46.99857" lon="-1.0258">
        <ele>155.093</ele>
        <time>2020-05-27T17:26:31Z</time>
      </trkpt>
      <trkpt lat="46.99853" lon="-1.02581">
        <ele>155.851</ele>
        <time>2020-05-27T17:26:32Z</time>
      </trkpt>
      <trkpt lat="46.9985" lon="-1.02582">
        <ele>155.688</ele>
        <time>2020-05-27T17:26:33Z</time>
      </trkpt>
      <trkpt lat="46.99847" lon="-1.02583">
        <ele>156.342</ele>
        <time>2020-05-27T17:26:34Z</time>
      </trkpt>
      <trkpt lat="46.99844" lon="-1.02585">
        <ele>157.71</ele>
        <time>2020-05-27T17:26:35Z</time>
      </trkpt>
      <trkpt lat="46.9984" lon="-1.02586">
        <ele>157.591</ele>
        <time>2020-05-27T17:26:36Z</time>
      </trkpt>
      <trkpt lat="46.99837" lon="-1.02588">
        <ele>157.711</ele>
        <time>2020-05-27T17:26:37Z</time>
      </trkpt>
      <trkpt lat="46.99834" lon="-1.0259">
        <ele>158.116</ele>
        <time>2020-05-27T17:26:38Z</time>
      </trkpt>
      <trkpt lat="46.99831" lon="-1.02593">
        <ele>158.425</ele>
        <time>2020-05-27T17:26:39Z</time>
      </trkpt>
      <trkpt lat="46.99829" lon="-1.02595">
        <ele>157.453</ele>
        <time>2020-05-27T17:26:40Z</time>
      </trkpt>
      <trkpt lat="46.99826" lon="-1.02598">
        <ele>157.911</ele>
        <time>2020-05-27T17:26:41Z</time>
      </trkpt>
      <trkpt lat="46.99823" lon="-1.02601">
        <ele>158.013</ele>
        <time>2020-05-27T17:26:42Z</time>
      </trkpt>
      <trkpt lat="46.99821" lon="-1.02604">
        <ele>158.899</ele>
        <time>2020-05-27T17:26:43Z</time>
      </trkpt>
      <trkpt lat="46.99817" lon="-1.02607">
        <ele>159.527</ele>
        <time>2020-05-27T17:26:44Z</time>
      </trkpt>
      <trkpt lat="46.99814" lon="-1.0261">
        <ele>159.028</ele>
        <time>2020-05-27T17:26:45Z</time>
      </trkpt>
      <trkpt lat="46.9981" lon="-1.02613">
        <ele>158.766</ele>
        <time>2020-05-27T17:26:46Z</time>
      </trkpt>
      <trkpt lat="46.99807" lon="-1.02616">
        <ele>158.208</ele>
        <time>2020-05-27T17:26:47Z</time>
      </trkpt>
      <trkpt lat="46.99803" lon="-1.0262">
        <ele>155.314</ele>
        <time>2020-05-27T17:26:48Z</time>
      </trkpt>
      <trkpt lat="46.998" lon="-1.02622">
        <ele>154.11</ele>
        <time>2020-05-27T17:26:49Z</time>
      </trkpt>
      <trkpt lat="46.99797" lon="-1.02624">
        <ele>153.779</ele>
        <time>2020-05-27T17:26:50Z</time>
      </trkpt>
      <trkpt lat="46.99794" lon="-1.02627">
        <ele>154.066</ele>
        <time>2020-05-27T17:26:51Z</time>
      </trkpt>
      <trkpt lat="46.9979" lon="-1.0263">
        <ele>154.791</ele>
        <time>2020-05-27T17:26:52Z</time>
      </trkpt>
      <trkpt lat="46.99786" lon="-1.02633">
        <ele>155.576</ele>
        <time>2020-05-27T17:26:53Z</time>
      </trkpt>
      <trkpt lat="46.99783" lon="-1.02635">
        <ele>155.954</ele>
        <time>2020-05-27T17:26:54Z</time>
      </trkpt>
      <trkpt lat="46.99779" lon="-1.02638">
        <ele>156.668</ele>
        <time>2020-05-27T17:26:55Z</time>
      </trkpt>
      <trkpt lat="46.99775" lon="-1.02641">
        <ele>157.737</ele>
        <time>2020-05-27T17:26:56Z</time>
      </trkpt>
      <trkpt lat="46.99772" lon="-1.02644">
        <ele>158.408</ele>
        <time>2020-05-27T17:26:57Z</time>
      </trkpt>
      <trkpt lat="46.99768" lon="-1.02647">
        <ele>158.582</ele>
        <time>2020-05-27T17:26:58Z</time>
      </trkpt>
      <trkpt lat="46.99765" lon="-1.02649">
        <ele>159.85</ele>
        <time>2020-05-27T17:26:59Z</time>
      </trkpt>
      <trkpt lat="46.99761" lon="-1.02652">
        <ele>160.367</ele>
        <time>2020-05-27T17:27:00Z</time>
      </trkpt>
      <trkpt lat="46.99758" lon="-1.02655">
        <ele>158.932</ele>
        <time>2020-05-27T17:27:01Z</time>
      </trkpt>
      <trkpt lat="46.99755" lon="-1.02658">
        <ele>159.146</ele>
        <time>2020-05-27T17:27:02Z</time>
      </trkpt>
      <trkpt lat="46.99751" lon="-1.0266">
        <ele>159.65</ele>
        <time>2020-05-27T17:27:03Z</time>
      </trkpt>
      <trkpt lat="46.99748" lon="-1.02663">
        <ele>159.909</ele>
        <time>2020-05-27T17:27:04Z</time>
      </trkpt>
      <trkpt lat="46.99745" lon="-1.02666">
        <ele>158.682</ele>
        <time>2020-05-27T17:27:05Z</time>
      </trkpt>
      <trkpt lat="46.99741" lon="-1.02669">
        <ele>158.639</ele>
        <time>2020-05-27T17:27:06Z</time>
      </trkpt>
      <trkpt lat="46.99737" lon="-1.02672">
        <ele>160.063</ele>
        <time>2020-05-27T17:27:07Z</time>
      </trkpt>
      <trkpt lat="46.99734" lon="-1.02674">
        <ele>162.33</ele>
        <time>2020-05-27T17:27:08Z</time>
      </trkpt>
      <trkpt lat="46.99731" lon="-1.02678">
        <ele>161.729</ele>
        <time>2020-05-27T17:27:09Z</time>
      </trkpt>
      <trkpt lat="46.99727" lon="-1.02681">
        <ele>162.453</ele>
        <time>2020-05-27T17:27:10Z</time>
      </trkpt>
      <trkpt lat="46.99724" lon="-1.02684">
        <ele>162.881</ele>
        <time>2020-05-27T17:27:11Z</time>
      </trkpt>
      <trkpt lat="46.99721" lon="-1.02687">
        <ele>163.853</ele>
        <time>2020-05-27T17:27:12Z</time>
      </trkpt>
      <trkpt lat="46.99718" lon="-1.0269">
        <ele>164.428</ele>
        <time>2020-05-27T17:27:13Z</time>
      </trkpt>
      <trkpt lat="46.99715" lon="-1.02692">
        <ele>164.986</ele>
        <time>2020-05-27T17:27:14Z</time>
      </trkpt>
      <trkpt lat="46.99711" lon="-1.02695">
        <ele>165.227</ele>
        <time>2020-05-27T17:27:15Z</time>
      </trkpt>
      <trkpt lat="46.99708" lon="-1.02697">
        <ele>165.426</ele>
        <time>2020-05-27T17:27:16Z</time>
      </trkpt>
      <trkpt lat="46.99704" lon="-1.027">
        <ele>165.898</ele>
        <time>2020-05-27T17:27:17Z</time>
      </trkpt>
      <trkpt lat="46.99701" lon="-1.02703">
        <ele>166.098</ele>
        <time>2020-05-27T17:27:18Z</time>
      </trkpt>
      <trkpt lat="46.99698" lon="-1.02706">
        <ele>166.53</ele>
        <time>2020-05-27T17:27:19Z</time>
      </trkpt>
      <trkpt lat="46.99694" lon="-1.0271">
        <ele>168.779</ele>
        <time>2020-05-27T17:27:20Z</time>
      </trkpt>
      <trkpt lat="46.99691" lon="-1.02713">
        <ele>168.497</ele>
        <time>2020-05-27T17:27:21Z</time>
      </trkpt>
      <trkpt lat="46.99688" lon="-1.02717">
        <ele>168.077</ele>
        <time>2020-05-27T17:27:22Z</time>
      </trkpt>
      <trkpt lat="46.99685" lon="-1.0272">
        <ele>167.842</ele>
        <time>2020-05-27T17:27:23Z</time>
      </trkpt>
      <trkpt lat="46.99682" lon="-1.02723">
        <ele>168.145</ele>
        <time>2020-05-27T17:27:24Z</time>
      </trkpt>
      <trkpt lat="46.99679" lon="-1.02726">
        <ele>168.85</ele>
        <time>2020-05-27T17:27:25Z</time>
      </trkpt>
      <trkpt lat="46.99675" lon="-1.0273">
        <ele>166.296</ele>
        <time>2020-05-27T17:27:26Z</time>
      </trkpt>
      <trkpt lat="46.99672" lon="-1.02734">
        <ele>165.878</ele>
        <time>2020-05-27T17:27:27Z</time>
      </trkpt>
      <trkpt lat="46.99669" lon="-1.02737">
        <ele>166.132</ele>
        <time>2020-05-27T17:27:28Z</time>
      </trkpt>
      <trkpt lat="46.99665" lon="-1.02741">
        <ele>166.879</ele>
        <time>2020-05-27T17:27:29Z</time>
      </trkpt>
      <trkpt lat="46.99662" lon="-1.02743">
        <ele>167.342</ele>
        <time>2020-05-27T17:27:30Z</time>
      </trkpt>
      <trkpt lat="46.99659" lon="-1.02746">
        <ele>167.529</ele>
        <time>2020-05-27T17:27:31Z</time>
      </trkpt>
      <trkpt lat="46.99655" lon="-1.02749">
        <ele>167.498</ele>
        <time>2020-05-27T17:27:32Z</time>
      </trkpt>
      <trkpt lat="46.99652" lon="-1.02751">
        <ele>168.085</ele>
        <time>2020-05-27T17:27:33Z</time>
      </trkpt>
      <trkpt lat="46.99649" lon="-1.02754">
        <ele>168.159</ele>
        <time>2020-05-27T17:27:34Z</time>
      </trkpt>
      <trkpt lat="46.99645" lon="-1.02756">
        <ele>167.877</ele>
        <time>2020-05-27T17:27:35Z</time>
      </trkpt>
      <trkpt lat="46.99642" lon="-1.02758">
        <ele>167.851</ele>
        <time>2020-05-27T17:27:36Z</time>
      </trkpt>
      <trkpt lat="46.99638" lon="-1.02759">
        <ele>169.34</ele>
        <time>2020-05-27T17:27:37Z</time>
      </trkpt>
      <trkpt lat="46.99635" lon="-1.02761">
        <ele>169.222</ele>
        <time>2020-05-27T17:27:38Z</time>
      </trkpt>
      <trkpt lat="46.99631" lon="-1.02762">
        <ele>169.394</ele>
        <time>2020-05-27T17:27:39Z</time>
      </trkpt>
      <trkpt lat="46.99627" lon="-1.02764">
        <ele>169.498</ele>
        <time>2020-05-27T17:27:40Z</time>
      </trkpt>
      <trkpt lat="46.99623" lon="-1.02765">
        <ele>169.564</ele>
        <time>2020-05-27T17:27:41Z</time>
      </trkpt>
      <trkpt lat="46.99619" lon="-1.02767">
        <ele>170.476</ele>
        <time>2020-05-27T17:27:42Z</time>
      </trkpt>
      <trkpt lat="46.99615" lon="-1.02768">
        <ele>170.628</ele>
        <time>2020-05-27T17:27:43Z</time>
      </trkpt>
      <trkpt lat="46.99611" lon="-1.0277">
        <ele>170.683</ele>
        <time>2020-05-27T17:27:44Z</time>
      </trkpt>
      <trkpt lat="46.99607" lon="-1.02772">
        <ele>170.454</ele>
        <time>2020-05-27T17:27:45Z</time>
      </trkpt>
      <trkpt lat="46.99603" lon="-1.02774">
        <ele>171.067</ele>
        <time>2020-05-27T17:27:46Z</time>
      </trkpt>
      <trkpt lat="46.99599" lon="-1.02775">
        <ele>171.864</ele>
        <time>2020-05-27T17:27:47Z</time>
      </trkpt>
      <trkpt lat="46.99595" lon="-1.02777">
        <ele>172.091</ele>
        <time>2020-05-27T17:27:49Z</time>
      </trkpt>
      <trkpt lat="46.99591" lon="-1.02779">
        <ele>172.212</ele>
        <time>2020-05-27T17:27:49Z</time>
      </trkpt>
      <trkpt lat="46.99587" lon="-1.0278">
        <ele>173.572</ele>
        <time>2020-05-27T17:27:50Z</time>
      </trkpt>
      <trkpt lat="46.99583" lon="-1.02782">
        <ele>173.991</ele>
        <time>2020-05-27T17:27:51Z</time>
      </trkpt>
      <trkpt lat="46.99579" lon="-1.02783">
        <ele>174.147</ele>
        <time>2020-05-27T17:27:52Z</time>
      </trkpt>
      <trkpt lat="46.99575" lon="-1.02785">
        <ele>174.764</ele>
        <time>2020-05-27T17:27:53Z</time>
      </trkpt>
      <trkpt lat="46.99571" lon="-1.02787">
        <ele>174.595</ele>
        <time>2020-05-27T17:27:54Z</time>
      </trkpt>
      <trkpt lat="46.99567" lon="-1.02789">
        <ele>174.875</ele>
        <time>2020-05-27T17:27:55Z</time>
      </trkpt>
      <trkpt lat="46.99564" lon="-1.02791">
        <ele>175.296</ele>
        <time>2020-05-27T17:27:56Z</time>
      </trkpt>
      <trkpt lat="46.9956" lon="-1.02793">
        <ele>175.363</ele>
        <time>2020-05-27T17:27:57Z</time>
      </trkpt>
      <trkpt lat="46.99556" lon="-1.02795">
        <ele>176.327</ele>
        <time>2020-05-27T17:27:58Z</time>
      </trkpt>
      <trkpt lat="46.99552" lon="-1.02797">
        <ele>176.498</ele>
        <time>2020-05-27T17:27:59Z</time>
      </trkpt>
      <trkpt lat="46.99548" lon="-1.02799">
        <ele>177.174</ele>
        <time>2020-05-27T17:28:00Z</time>
      </trkpt>
      <trkpt lat="46.99544" lon="-1.028">
        <ele>177.992</ele>
        <time>2020-05-27T17:28:01Z</time>
      </trkpt>
      <trkpt lat="46.99541" lon="-1.02802">
        <ele>177.705</ele>
        <time>2020-05-27T17:28:02Z</time>
      </trkpt>
      <trkpt lat="46.99537" lon="-1.02803">
        <ele>178.226</ele>
        <time>2020-05-27T17:28:03Z</time>
      </trkpt>
      <trkpt lat="46.99534" lon="-1.02805">
        <ele>178.089</ele>
        <time>2020-05-27T17:28:04Z</time>
      </trkpt>
      <trkpt lat="46.99531" lon="-1.02806">
        <ele>178.657</ele>
        <time>2020-05-27T17:28:05Z</time>
      </trkpt>
      <trkpt lat="46.99527" lon="-1.02807">
        <ele>178.723</ele>
        <time>2020-05-27T17:28:06Z</time>
      </trkpt>
      <trkpt lat="46.99524" lon="-1.02808">
        <ele>178.366</ele>
        <time>2020-05-27T17:28:07Z</time>
      </trkpt>
      <trkpt lat="46.99522" lon="-1.02806">
        <ele>179.817</ele>
        <time>2020-05-27T17:28:08Z</time>
      </trkpt>
      <trkpt lat="46.9952" lon="-1.02803">
        <ele>179.827</ele>
        <time>2020-05-27T17:28:09Z</time>
      </trkpt>
      <trkpt lat="46.99518" lon="-1.02799">
        <ele>180.231</ele>
        <time>2020-05-27T17:28:10Z</time>
      </trkpt>
      <trkpt lat="46.99518" lon="-1.02793">
        <ele>180.359</ele>
        <time>2020-05-27T17:28:11Z</time>
      </trkpt>
      <trkpt lat="46.99518" lon="-1.02788">
        <ele>179.553</ele>
        <time>2020-05-27T17:28:12Z</time>
      </trkpt>
      <trkpt lat="46.99518" lon="-1.02781">
        <ele>178.785</ele>
        <time>2020-05-27T17:28:13Z</time>
      </trkpt>
      <trkpt lat="46.99519" lon="-1.02775">
        <ele>178.881</ele>
        <time>2020-05-27T17:28:14Z</time>
      </trkpt>
      <trkpt lat="46.99519" lon="-1.02769">
        <ele>179.247</ele>
        <time>2020-05-27T17:28:15Z</time>
      </trkpt>
      <trkpt lat="46.99519" lon="-1.02762">
        <ele>178.843</ele>
        <time>2020-05-27T17:28:16Z</time>
      </trkpt>
      <trkpt lat="46.9952" lon="-1.02753">
        <ele>178.827</ele>
        <time>2020-05-27T17:28:17Z</time>
      </trkpt>
      <trkpt lat="46.9952" lon="-1.02745">
        <ele>178.665</ele>
        <time>2020-05-27T17:28:18Z</time>
      </trkpt>
      <trkpt lat="46.9952" lon="-1.02738">
        <ele>178.295</ele>
        <time>2020-05-27T17:28:19Z</time>
      </trkpt>
      <trkpt lat="46.99519" lon="-1.02731">
        <ele>182.17</ele>
        <time>2020-05-27T17:28:20Z</time>
      </trkpt>
      <trkpt lat="46.99519" lon="-1.02723">
        <ele>181.198</ele>
        <time>2020-05-27T17:28:21Z</time>
      </trkpt>
      <trkpt lat="46.99519" lon="-1.02715">
        <ele>180.083</ele>
        <time>2020-05-27T17:28:22Z</time>
      </trkpt>
      <trkpt lat="46.99518" lon="-1.02707">
        <ele>180.086</ele>
        <time>2020-05-27T17:28:23Z</time>
      </trkpt>
      <trkpt lat="46.99517" lon="-1.027">
        <ele>179.811</ele>
        <time>2020-05-27T17:28:24Z</time>
      </trkpt>
      <trkpt lat="46.99516" lon="-1.02693">
        <ele>178.969</ele>
        <time>2020-05-27T17:28:25Z</time>
      </trkpt>
      <trkpt lat="46.99515" lon="-1.02685">
        <ele>179.193</ele>
        <time>2020-05-27T17:28:26Z</time>
      </trkpt>
      <trkpt lat="46.99514" lon="-1.02679">
        <ele>177.443</ele>
        <time>2020-05-27T17:28:27Z</time>
      </trkpt>
      <trkpt lat="46.99513" lon="-1.02673">
        <ele>178.188</ele>
        <time>2020-05-27T17:28:28Z</time>
      </trkpt>
      <trkpt lat="46.99513" lon="-1.02668">
        <ele>177.094</ele>
        <time>2020-05-27T17:28:29Z</time>
      </trkpt>
      <trkpt lat="46.99513" lon="-1.02661">
        <ele>179.229</ele>
        <time>2020-05-27T17:28:30Z</time>
      </trkpt>
      <trkpt lat="46.99514" lon="-1.02654">
        <ele>179.163</ele>
        <time>2020-05-27T17:28:31Z</time>
      </trkpt>
      <trkpt lat="46.99512" lon="-1.02647">
        <ele>178.813</ele>
        <time>2020-05-27T17:28:32Z</time>
      </trkpt>
      <trkpt lat="46.9951" lon="-1.02638">
        <ele>178.506</ele>
        <time>2020-05-27T17:28:33Z</time>
      </trkpt>
      <trkpt lat="46.99509" lon="-1.02631">
        <ele>178.048</ele>
        <time>2020-05-27T17:28:34Z</time>
      </trkpt>
      <trkpt lat="46.99507" lon="-1.02623">
        <ele>178.421</ele>
        <time>2020-05-27T17:28:35Z</time>
      </trkpt>
      <trkpt lat="46.99506" lon="-1.02616">
        <ele>177.797</ele>
        <time>2020-05-27T17:28:36Z</time>
      </trkpt>
      <trkpt lat="46.99505" lon="-1.02612">
        <ele>176.176</ele>
        <time>2020-05-27T17:28:37Z</time>
      </trkpt>
      <trkpt lat="46.99505" lon="-1.02604">
        <ele>178.202</ele>
        <time>2020-05-27T17:28:38Z</time>
      </trkpt>
      <trkpt lat="46.99505" lon="-1.02595">
        <ele>180.008</ele>
        <time>2020-05-27T17:28:39Z</time>
      </trkpt>
      <trkpt lat="46.99505" lon="-1.02587">
        <ele>180.595</ele>
        <time>2020-05-27T17:28:40Z</time>
      </trkpt>
      <trkpt lat="46.99505" lon="-1.0258">
        <ele>180.559</ele>
        <time>2020-05-27T17:28:41Z</time>
      </trkpt>
      <trkpt lat="46.99507" lon="-1.02574">
        <ele>180.874</ele>
        <time>2020-05-27T17:28:42Z</time>
      </trkpt>
      <trkpt lat="46.99508" lon="-1.02567">
        <ele>180.791</ele>
        <time>2020-05-27T17:28:43Z</time>
      </trkpt>
      <trkpt lat="46.9951" lon="-1.02561">
        <ele>179.052</ele>
        <time>2020-05-27T17:28:44Z</time>
      </trkpt>
      <trkpt lat="46.99513" lon="-1.02555">
        <ele>178.908</ele>
        <time>2020-05-27T17:28:45Z</time>
      </trkpt>
      <trkpt lat="46.99516" lon="-1.02549">
        <ele>180.862</ele>
        <time>2020-05-27T17:28:46Z</time>
      </trkpt>
      <trkpt lat="46.99518" lon="-1.02541">
        <ele>180.951</ele>
        <time>2020-05-27T17:28:47Z</time>
      </trkpt>
      <trkpt lat="46.99522" lon="-1.02534">
        <ele>182.188</ele>
        <time>2020-05-27T17:28:48Z</time>
      </trkpt>
      <trkpt lat="46.99526" lon="-1.02528">
        <ele>182.244</ele>
        <time>2020-05-27T17:28:49Z</time>
      </trkpt>
      <trkpt lat="46.99529" lon="-1.02521">
        <ele>182.362</ele>
        <time>2020-05-27T17:28:50Z</time>
      </trkpt>
      <trkpt lat="46.99531" lon="-1.02514">
        <ele>182.248</ele>
        <time>2020-05-27T17:28:51Z</time>
      </trkpt>
      <trkpt lat="46.99535" lon="-1.02507">
        <ele>182.403</ele>
        <time>2020-05-27T17:28:52Z</time>
      </trkpt>
      <trkpt lat="46.99537" lon="-1.025">
        <ele>182.226</ele>
        <time>2020-05-27T17:28:53Z</time>
      </trkpt>
      <trkpt lat="46.9954" lon="-1.02493">
        <ele>181.529</ele>
        <time>2020-05-27T17:28:54Z</time>
      </trkpt>
      <trkpt lat="46.99543" lon="-1.02488">
        <ele>180.559</ele>
        <time>2020-05-27T17:28:55Z</time>
      </trkpt>
      <trkpt lat="46.99543" lon="-1.02479">
        <ele>179.959</ele>
        <time>2020-05-27T17:28:56Z</time>
      </trkpt>
      <trkpt lat="46.99544" lon="-1.02472">
        <ele>178.485</ele>
        <time>2020-05-27T17:28:57Z</time>
      </trkpt>
      <trkpt lat="46.99545" lon="-1.02466">
        <ele>178.458</ele>
        <time>2020-05-27T17:28:58Z</time>
      </trkpt>
      <trkpt lat="46.99547" lon="-1.02459">
        <ele>179.032</ele>
        <time>2020-05-27T17:28:59Z</time>
      </trkpt>
      <trkpt lat="46.99548" lon="-1.02452">
        <ele>179.3</ele>
        <time>2020-05-27T17:29:00Z</time>
      </trkpt>
      <trkpt lat="46.99548" lon="-1.02445">
        <ele>178.943</ele>
        <time>2020-05-27T17:29:01Z</time>
      </trkpt>
      <trkpt lat="46.9955" lon="-1.02439">
        <ele>178.157</ele>
        <time>2020-05-27T17:29:02Z</time>
      </trkpt>
      <trkpt lat="46.99551" lon="-1.02432">
        <ele>178.032</ele>
        <time>2020-05-27T17:29:03Z</time>
      </trkpt>
      <trkpt lat="46.99553" lon="-1.02427">
        <ele>177.835</ele>
        <time>2020-05-27T17:29:04Z</time>
      </trkpt>
      <trkpt lat="46.99553" lon="-1.02421">
        <ele>177.855</ele>
        <time>2020-05-27T17:29:05Z</time>
      </trkpt>
      <trkpt lat="46.99554" lon="-1.02415">
        <ele>177.236</ele>
        <time>2020-05-27T17:29:06Z</time>
      </trkpt>
      <trkpt lat="46.99553" lon="-1.02409">
        <ele>176.535</ele>
        <time>2020-05-27T17:29:07Z</time>
      </trkpt>
      <trkpt lat="46.99554" lon="-1.02402">
        <ele>176.62</ele>
        <time>2020-05-27T17:29:08Z</time>
      </trkpt>
      <trkpt lat="46.99555" lon="-1.02395">
        <ele>176.503</ele>
        <time>2020-05-27T17:29:09Z</time>
      </trkpt>
      <trkpt lat="46.99554" lon="-1.02388">
        <ele>176.919</ele>
        <time>2020-05-27T17:29:10Z</time>
      </trkpt>
      <trkpt lat="46.99555" lon="-1.02381">
        <ele>176.326</ele>
        <time>2020-05-27T17:29:11Z</time>
      </trkpt>
      <trkpt lat="46.99555" lon="-1.02374">
        <ele>176.09</ele>
        <time>2020-05-27T17:29:12Z</time>
      </trkpt>
      <trkpt lat="46.99554" lon="-1.02367">
        <ele>175.043</ele>
        <time>2020-05-27T17:29:13Z</time>
      </trkpt>
      <trkpt lat="46.99552" lon="-1.0236">
        <ele>175.055</ele>
        <time>2020-05-27T17:29:14Z</time>
      </trkpt>
      <trkpt lat="46.99553" lon="-1.02353">
        <ele>176.21</ele>
        <time>2020-05-27T17:29:15Z</time>
      </trkpt>
      <trkpt lat="46.99553" lon="-1.02345">
        <ele>176.183</ele>
        <time>2020-05-27T17:29:16Z</time>
      </trkpt>
      <trkpt lat="46.99554" lon="-1.02339">
        <ele>174.885</ele>
        <time>2020-05-27T17:29:17Z</time>
      </trkpt>
      <trkpt lat="46.99555" lon="-1.02332">
        <ele>174.865</ele>
        <time>2020-05-27T17:29:18Z</time>
      </trkpt>
      <trkpt lat="46.99557" lon="-1.02324">
        <ele>174.644</ele>
        <time>2020-05-27T17:29:19Z</time>
      </trkpt>
      <trkpt lat="46.99558" lon="-1.02319">
        <ele>172.868</ele>
        <time>2020-05-27T17:29:20Z</time>
      </trkpt>
      <trkpt lat="46.99559" lon="-1.02311">
        <ele>172.949</ele>
        <time>2020-05-27T17:29:21Z</time>
      </trkpt>
      <trkpt lat="46.99561" lon="-1.02304">
        <ele>172.218</ele>
        <time>2020-05-27T17:29:22Z</time>
      </trkpt>
      <trkpt lat="46.99564" lon="-1.02297">
        <ele>171.744</ele>
        <time>2020-05-27T17:29:23Z</time>
      </trkpt>
      <trkpt lat="46.99565" lon="-1.0229">
        <ele>171.623</ele>
        <time>2020-05-27T17:29:24Z</time>
      </trkpt>
      <trkpt lat="46.99567" lon="-1.02283">
        <ele>171.091</ele>
        <time>2020-05-27T17:29:25Z</time>
      </trkpt>
      <trkpt lat="46.99569" lon="-1.02276">
        <ele>171.313</ele>
        <time>2020-05-27T17:29:26Z</time>
      </trkpt>
      <trkpt lat="46.99571" lon="-1.02268">
        <ele>172.555</ele>
        <time>2020-05-27T17:29:27Z</time>
      </trkpt>
      <trkpt lat="46.99572" lon="-1.02261">
        <ele>172.76</ele>
        <time>2020-05-27T17:29:28Z</time>
      </trkpt>
      <trkpt lat="46.99574" lon="-1.02254">
        <ele>171.004</ele>
        <time>2020-05-27T17:29:30Z</time>
      </trkpt>
      <trkpt lat="46.99575" lon="-1.02247">
        <ele>170.203</ele>
        <time>2020-05-27T17:29:30Z</time>
      </trkpt>
      <trkpt lat="46.99578" lon="-1.02239">
        <ele>171.248</ele>
        <time>2020-05-27T17:29:31Z</time>
      </trkpt>
      <trkpt lat="46.99578" lon="-1.02232">
        <ele>170.87</ele>
        <time>2020-05-27T17:29:32Z</time>
      </trkpt>
      <trkpt lat="46.99577" lon="-1.02223">
        <ele>172.356</ele>
        <time>2020-05-27T17:29:33Z</time>
      </trkpt>
      <trkpt lat="46.99577" lon="-1.02216">
        <ele>172.097</ele>
        <time>2020-05-27T17:29:34Z</time>
      </trkpt>
      <trkpt lat="46.99576" lon="-1.02209">
        <ele>171.49</ele>
        <time>2020-05-27T17:29:35Z</time>
      </trkpt>
      <trkpt lat="46.99576" lon="-1.02201">
        <ele>172.461</ele>
        <time>2020-05-27T17:29:36Z</time>
      </trkpt>
      <trkpt lat="46.99574" lon="-1.02194">
        <ele>172.143</ele>
        <time>2020-05-27T17:29:37Z</time>
      </trkpt>
      <trkpt lat="46.99574" lon="-1.02187">
        <ele>173.157</ele>
        <time>2020-05-27T17:29:38Z</time>
      </trkpt>
      <trkpt lat="46.9957" lon="-1.02181">
        <ele>169.765</ele>
        <time>2020-05-27T17:29:39Z</time>
      </trkpt>
      <trkpt lat="46.99569" lon="-1.02174">
        <ele>169.702</ele>
        <time>2020-05-27T17:29:40Z</time>
      </trkpt>
      <trkpt lat="46.99568" lon="-1.02168">
        <ele>168.005</ele>
        <time>2020-05-27T17:29:41Z</time>
      </trkpt>
      <trkpt lat="46.99567" lon="-1.0216">
        <ele>167.54</ele>
        <time>2020-05-27T17:29:42Z</time>
      </trkpt>
      <trkpt lat="46.99566" lon="-1.02153">
        <ele>165.945</ele>
        <time>2020-05-27T17:29:43Z</time>
      </trkpt>
      <trkpt lat="46.99565" lon="-1.02145">
        <ele>165.116</ele>
        <time>2020-05-27T17:29:44Z</time>
      </trkpt>
      <trkpt lat="46.99563" lon="-1.02137">
        <ele>164.816</ele>
        <time>2020-05-27T17:29:45Z</time>
      </trkpt>
      <trkpt lat="46.99563" lon="-1.02129">
        <ele>166.074</ele>
        <time>2020-05-27T17:29:46Z</time>
      </trkpt>
      <trkpt lat="46.9956" lon="-1.02122">
        <ele>165.753</ele>
        <time>2020-05-27T17:29:47Z</time>
      </trkpt>
      <trkpt lat="46.99558" lon="-1.02115">
        <ele>165.001</ele>
        <time>2020-05-27T17:29:48Z</time>
      </trkpt>
      <trkpt lat="46.99557" lon="-1.02107">
        <ele>164.909</ele>
        <time>2020-05-27T17:29:49Z</time>
      </trkpt>
      <trkpt lat="46.99556" lon="-1.021">
        <ele>165.311</ele>
        <time>2020-05-27T17:29:50Z</time>
      </trkpt>
      <trkpt lat="46.99556" lon="-1.02093">
        <ele>166.014</ele>
        <time>2020-05-27T17:29:51Z</time>
      </trkpt>
      <trkpt lat="46.99554" lon="-1.02085">
        <ele>166.468</ele>
        <time>2020-05-27T17:29:52Z</time>
      </trkpt>
      <trkpt lat="46.99553" lon="-1.02077">
        <ele>166.499</ele>
        <time>2020-05-27T17:29:53Z</time>
      </trkpt>
      <trkpt lat="46.99551" lon="-1.02069">
        <ele>167.723</ele>
        <time>2020-05-27T17:29:54Z</time>
      </trkpt>
      <trkpt lat="46.9955" lon="-1.02061">
        <ele>167.595</ele>
        <time>2020-05-27T17:29:55Z</time>
      </trkpt>
      <trkpt lat="46.99548" lon="-1.02054">
        <ele>168.03</ele>
        <time>2020-05-27T17:29:56Z</time>
      </trkpt>
      <trkpt lat="46.99547" lon="-1.02046">
        <ele>167.066</ele>
        <time>2020-05-27T17:29:57Z</time>
      </trkpt>
      <trkpt lat="46.99546" lon="-1.02037">
        <ele>166.285</ele>
        <time>2020-05-27T17:29:58Z</time>
      </trkpt>
      <trkpt lat="46.99545" lon="-1.02027">
        <ele>167.357</ele>
        <time>2020-05-27T17:29:59Z</time>
      </trkpt>
      <trkpt lat="46.99543" lon="-1.02018">
        <ele>166.6</ele>
        <time>2020-05-27T17:30:00Z</time>
      </trkpt>
      <trkpt lat="46.99541" lon="-1.02008">
        <ele>166.173</ele>
        <time>2020-05-27T17:30:01Z</time>
      </trkpt>
      <trkpt lat="46.99539" lon="-1.02">
        <ele>165.848</ele>
        <time>2020-05-27T17:30:02Z</time>
      </trkpt>
      <trkpt lat="46.99538" lon="-1.0199">
        <ele>165.863</ele>
        <time>2020-05-27T17:30:03Z</time>
      </trkpt>
      <trkpt lat="46.99537" lon="-1.0198">
        <ele>166.918</ele>
        <time>2020-05-27T17:30:04Z</time>
      </trkpt>
      <trkpt lat="46.99535" lon="-1.0197">
        <ele>166.961</ele>
        <time>2020-05-27T17:30:05Z</time>
      </trkpt>
      <trkpt lat="46.99533" lon="-1.0196">
        <ele>165.929</ele>
        <time>2020-05-27T17:30:06Z</time>
      </trkpt>
      <trkpt lat="46.99531" lon="-1.0195">
        <ele>166.193</ele>
        <time>2020-05-27T17:30:07Z</time>
      </trkpt>
      <trkpt lat="46.9953" lon="-1.0194">
        <ele>166.316</ele>
        <time>2020-05-27T17:30:08Z</time>
      </trkpt>
      <trkpt lat="46.99529" lon="-1.0193">
        <ele>166.437</ele>
        <time>2020-05-27T17:30:09Z</time>
      </trkpt>
      <trkpt lat="46.99527" lon="-1.0192">
        <ele>165.228</ele>
        <time>2020-05-27T17:30:10Z</time>
      </trkpt>
      <trkpt lat="46.99526" lon="-1.0191">
        <ele>165.395</ele>
        <time>2020-05-27T17:30:11Z</time>
      </trkpt>
      <trkpt lat="46.99525" lon="-1.019">
        <ele>165.214</ele>
        <time>2020-05-27T17:30:12Z</time>
      </trkpt>
      <trkpt lat="46.99523" lon="-1.01889">
        <ele>164.951</ele>
        <time>2020-05-27T17:30:13Z</time>
      </trkpt>
      <trkpt lat="46.99522" lon="-1.01878">
        <ele>164.452</ele>
        <time>2020-05-27T17:30:14Z</time>
      </trkpt>
      <trkpt lat="46.99521" lon="-1.01867">
        <ele>163.679</ele>
        <time>2020-05-27T17:30:15Z</time>
      </trkpt>
      <trkpt lat="46.99521" lon="-1.01857">
        <ele>163.41</ele>
        <time>2020-05-27T17:30:16Z</time>
      </trkpt>
      <trkpt lat="46.9952" lon="-1.01846">
        <ele>161.706</ele>
        <time>2020-05-27T17:30:17Z</time>
      </trkpt>
      <trkpt lat="46.99521" lon="-1.01835">
        <ele>161.155</ele>
        <time>2020-05-27T17:30:18Z</time>
      </trkpt>
      <trkpt lat="46.99522" lon="-1.01824">
        <ele>160.777</ele>
        <time>2020-05-27T17:30:19Z</time>
      </trkpt>
      <trkpt lat="46.99524" lon="-1.01813">
        <ele>160.363</ele>
        <time>2020-05-27T17:30:20Z</time>
      </trkpt>
      <trkpt lat="46.99525" lon="-1.01803">
        <ele>159.992</ele>
        <time>2020-05-27T17:30:21Z</time>
      </trkpt>
      <trkpt lat="46.99527" lon="-1.01792">
        <ele>159.918</ele>
        <time>2020-05-27T17:30:22Z</time>
      </trkpt>
      <trkpt lat="46.99529" lon="-1.01781">
        <ele>159.474</ele>
        <time>2020-05-27T17:30:23Z</time>
      </trkpt>
      <trkpt lat="46.9953" lon="-1.0177">
        <ele>159.116</ele>
        <time>2020-05-27T17:30:24Z</time>
      </trkpt>
      <trkpt lat="46.99532" lon="-1.0176">
        <ele>158.039</ele>
        <time>2020-05-27T17:30:25Z</time>
      </trkpt>
      <trkpt lat="46.99534" lon="-1.01749">
        <ele>157.904</ele>
        <time>2020-05-27T17:30:26Z</time>
      </trkpt>
      <trkpt lat="46.99535" lon="-1.0174">
        <ele>156.757</ele>
        <time>2020-05-27T17:30:27Z</time>
      </trkpt>
      <trkpt lat="46.99536" lon="-1.01729">
        <ele>156.033</ele>
        <time>2020-05-27T17:30:28Z</time>
      </trkpt>
      <trkpt lat="46.99536" lon="-1.01719">
        <ele>155.335</ele>
        <time>2020-05-27T17:30:29Z</time>
      </trkpt>
      <trkpt lat="46.99536" lon="-1.01709">
        <ele>154.796</ele>
        <time>2020-05-27T17:30:30Z</time>
      </trkpt>
      <trkpt lat="46.99536" lon="-1.01698">
        <ele>154.891</ele>
        <time>2020-05-27T17:30:31Z</time>
      </trkpt>
      <trkpt lat="46.99534" lon="-1.01688">
        <ele>155.549</ele>
        <time>2020-05-27T17:30:32Z</time>
      </trkpt>
      <trkpt lat="46.99532" lon="-1.01679">
        <ele>155.476</ele>
        <time>2020-05-27T17:30:34Z</time>
      </trkpt>
      <trkpt lat="46.9953" lon="-1.01671">
        <ele>154.633</ele>
        <time>2020-05-27T17:30:34Z</time>
      </trkpt>
      <trkpt lat="46.99528" lon="-1.01663">
        <ele>153.708</ele>
        <time>2020-05-27T17:30:35Z</time>
      </trkpt>
      <trkpt lat="46.99525" lon="-1.01656">
        <ele>153.777</ele>
        <time>2020-05-27T17:30:36Z</time>
      </trkpt>
      <trkpt lat="46.99523" lon="-1.01648">
        <ele>152.851</ele>
        <time>2020-05-27T17:30:37Z</time>
      </trkpt>
      <trkpt lat="46.99521" lon="-1.0164">
        <ele>152.911</ele>
        <time>2020-05-27T17:30:38Z</time>
      </trkpt>
      <trkpt lat="46.9952" lon="-1.0163">
        <ele>152.174</ele>
        <time>2020-05-27T17:30:39Z</time>
      </trkpt>
      <trkpt lat="46.9952" lon="-1.01621">
        <ele>151.705</ele>
        <time>2020-05-27T17:30:40Z</time>
      </trkpt>
      <trkpt lat="46.99521" lon="-1.0161">
        <ele>151.105</ele>
        <time>2020-05-27T17:30:41Z</time>
      </trkpt>
      <trkpt lat="46.99523" lon="-1.01601">
        <ele>151.057</ele>
        <time>2020-05-27T17:30:42Z</time>
      </trkpt>
      <trkpt lat="46.99526" lon="-1.01592">
        <ele>150.369</ele>
        <time>2020-05-27T17:30:43Z</time>
      </trkpt>
      <trkpt lat="46.9953" lon="-1.01583">
        <ele>150.328</ele>
        <time>2020-05-27T17:30:44Z</time>
      </trkpt>
      <trkpt lat="46.99534" lon="-1.01576">
        <ele>148.892</ele>
        <time>2020-05-27T17:30:45Z</time>
      </trkpt>
      <trkpt lat="46.99539" lon="-1.01569">
        <ele>149.121</ele>
        <time>2020-05-27T17:30:47Z</time>
      </trkpt>
      <trkpt lat="46.99543" lon="-1.0156">
        <ele>147.516</ele>
        <time>2020-05-27T17:30:47Z</time>
      </trkpt>
      <trkpt lat="46.99546" lon="-1.0155">
        <ele>148.151</ele>
        <time>2020-05-27T17:30:48Z</time>
      </trkpt>
      <trkpt lat="46.99548" lon="-1.0154">
        <ele>149.068</ele>
        <time>2020-05-27T17:30:49Z</time>
      </trkpt>
      <trkpt lat="46.9955" lon="-1.0153">
        <ele>149.32</ele>
        <time>2020-05-27T17:30:50Z</time>
      </trkpt>
      <trkpt lat="46.99552" lon="-1.0152">
        <ele>148.901</ele>
        <time>2020-05-27T17:30:51Z</time>
      </trkpt>
      <trkpt lat="46.99555" lon="-1.0151">
        <ele>148.493</ele>
        <time>2020-05-27T17:30:52Z</time>
      </trkpt>
      <trkpt lat="46.99558" lon="-1.01501">
        <ele>147.837</ele>
        <time>2020-05-27T17:30:53Z</time>
      </trkpt>
      <trkpt lat="46.9956" lon="-1.01491">
        <ele>147.741</ele>
        <time>2020-05-27T17:30:54Z</time>
      </trkpt>
      <trkpt lat="46.99562" lon="-1.01482">
        <ele>147.02</ele>
        <time>2020-05-27T17:30:55Z</time>
      </trkpt>
      <trkpt lat="46.99564" lon="-1.01472">
        <ele>146.522</ele>
        <time>2020-05-27T17:30:57Z</time>
      </trkpt>
      <trkpt lat="46.99568" lon="-1.01465">
        <ele>145.462</ele>
        <time>2020-05-27T17:30:57Z</time>
      </trkpt>
      <trkpt lat="46.99568" lon="-1.01455">
        <ele>143.828</ele>
        <time>2020-05-27T17:30:58Z</time>
      </trkpt>
      <trkpt lat="46.99569" lon="-1.01445">
        <ele>143.984</ele>
        <time>2020-05-27T17:30:59Z</time>
      </trkpt>
      <trkpt lat="46.99572" lon="-1.01434">
        <ele>143.86</ele>
        <time>2020-05-27T17:31:00Z</time>
      </trkpt>
      <trkpt lat="46.99574" lon="-1.01423">
        <ele>143.613</ele>
        <time>2020-05-27T17:31:01Z</time>
      </trkpt>
      <trkpt lat="46.99576" lon="-1.01413">
        <ele>143.07</ele>
        <time>2020-05-27T17:31:02Z</time>
      </trkpt>
      <trkpt lat="46.99578" lon="-1.01404">
        <ele>143.344</ele>
        <time>2020-05-27T17:31:03Z</time>
      </trkpt>
      <trkpt lat="46.99577" lon="-1.01393">
        <ele>141.667</ele>
        <time>2020-05-27T17:31:04Z</time>
      </trkpt>
      <trkpt lat="46.99578" lon="-1.01384">
        <ele>142.416</ele>
        <time>2020-05-27T17:31:05Z</time>
      </trkpt>
      <trkpt lat="46.99579" lon="-1.01371">
        <ele>140.978</ele>
        <time>2020-05-27T17:31:06Z</time>
      </trkpt>
      <trkpt lat="46.99579" lon="-1.0136">
        <ele>142.698</ele>
        <time>2020-05-27T17:31:07Z</time>
      </trkpt>
      <trkpt lat="46.99578" lon="-1.01352">
        <ele>140.911</ele>
        <time>2020-05-27T17:31:08Z</time>
      </trkpt>
      <trkpt lat="46.99578" lon="-1.01342">
        <ele>142.519</ele>
        <time>2020-05-27T17:31:09Z</time>
      </trkpt>
      <trkpt lat="46.99579" lon="-1.01332">
        <ele>143.411</ele>
        <time>2020-05-27T17:31:10Z</time>
      </trkpt>
      <trkpt lat="46.99582" lon="-1.01322">
        <ele>143.993</ele>
        <time>2020-05-27T17:31:11Z</time>
      </trkpt>
      <trkpt lat="46.99585" lon="-1.01311">
        <ele>144.026</ele>
        <time>2020-05-27T17:31:12Z</time>
      </trkpt>
      <trkpt lat="46.9959" lon="-1.01303">
        <ele>143.721</ele>
        <time>2020-05-27T17:31:13Z</time>
      </trkpt>
      <trkpt lat="46.99592" lon="-1.01298">
        <ele>140.044</ele>
        <time>2020-05-27T17:31:14Z</time>
      </trkpt>
      <trkpt lat="46.99593" lon="-1.01287">
        <ele>139.24</ele>
        <time>2020-05-27T17:31:15Z</time>
      </trkpt>
      <trkpt lat="46.99595" lon="-1.01277">
        <ele>138.398</ele>
        <time>2020-05-27T17:31:16Z</time>
      </trkpt>
      <trkpt lat="46.99596" lon="-1.01267">
        <ele>139.002</ele>
        <time>2020-05-27T17:31:17Z</time>
      </trkpt>
      <trkpt lat="46.99596" lon="-1.01256">
        <ele>137.215</ele>
        <time>2020-05-27T17:31:18Z</time>
      </trkpt>
      <trkpt lat="46.99594" lon="-1.01246">
        <ele>135.678</ele>
        <time>2020-05-27T17:31:19Z</time>
      </trkpt>
      <trkpt lat="46.99593" lon="-1.01236">
        <ele>135.695</ele>
        <time>2020-05-27T17:31:20Z</time>
      </trkpt>
      <trkpt lat="46.99593" lon="-1.01227">
        <ele>136.105</ele>
        <time>2020-05-27T17:31:21Z</time>
      </trkpt>
      <trkpt lat="46.99594" lon="-1.01218">
        <ele>137.058</ele>
        <time>2020-05-27T17:31:22Z</time>
      </trkpt>
      <trkpt lat="46.99593" lon="-1.01207">
        <ele>136.426</ele>
        <time>2020-05-27T17:31:23Z</time>
      </trkpt>
      <trkpt lat="46.99592" lon="-1.01197">
        <ele>136.095</ele>
        <time>2020-05-27T17:31:24Z</time>
      </trkpt>
      <trkpt lat="46.99593" lon="-1.01185">
        <ele>136.037</ele>
        <time>2020-05-27T17:31:25Z</time>
      </trkpt>
      <trkpt lat="46.99595" lon="-1.01173">
        <ele>136.347</ele>
        <time>2020-05-27T17:31:26Z</time>
      </trkpt>
      <trkpt lat="46.99598" lon="-1.01162">
        <ele>137.103</ele>
        <time>2020-05-27T17:31:27Z</time>
      </trkpt>
      <trkpt lat="46.99603" lon="-1.0115">
        <ele>137.405</ele>
        <time>2020-05-27T17:31:28Z</time>
      </trkpt>
      <trkpt lat="46.99606" lon="-1.01139">
        <ele>135.671</ele>
        <time>2020-05-27T17:31:30Z</time>
      </trkpt>
      <trkpt lat="46.99609" lon="-1.01129">
        <ele>135.094</ele>
        <time>2020-05-27T17:31:30Z</time>
      </trkpt>
      <trkpt lat="46.99612" lon="-1.01118">
        <ele>135.717</ele>
        <time>2020-05-27T17:31:31Z</time>
      </trkpt>
      <trkpt lat="46.99616" lon="-1.01106">
        <ele>136.796</ele>
        <time>2020-05-27T17:31:32Z</time>
      </trkpt>
      <trkpt lat="46.99616" lon="-1.01101">
        <ele>134.345</ele>
        <time>2020-05-27T17:31:33Z</time>
      </trkpt>
      <trkpt lat="46.99617" lon="-1.01095">
        <ele>133.37</ele>
        <time>2020-05-27T17:31:34Z</time>
      </trkpt>
      <trkpt lat="46.99619" lon="-1.0109">
        <ele>132.387</ele>
        <time>2020-05-27T17:31:35Z</time>
      </trkpt>
      <trkpt lat="46.9962" lon="-1.01084">
        <ele>131.855</ele>
        <time>2020-05-27T17:31:36Z</time>
      </trkpt>
      <trkpt lat="46.99621" lon="-1.01078">
        <ele>131.519</ele>
        <time>2020-05-27T17:31:37Z</time>
      </trkpt>
      <trkpt lat="46.99623" lon="-1.01071">
        <ele>131.809</ele>
        <time>2020-05-27T17:31:38Z</time>
      </trkpt>
      <trkpt lat="46.99627" lon="-1.01063">
        <ele>132.702</ele>
        <time>2020-05-27T17:31:39Z</time>
      </trkpt>
      <trkpt lat="46.99632" lon="-1.01058">
        <ele>131.866</ele>
        <time>2020-05-27T17:31:40Z</time>
      </trkpt>
      <trkpt lat="46.99637" lon="-1.01052">
        <ele>134.971</ele>
        <time>2020-05-27T17:31:41Z</time>
      </trkpt>
      <trkpt lat="46.99638" lon="-1.01046">
        <ele>133.952</ele>
        <time>2020-05-27T17:31:42Z</time>
      </trkpt>
      <trkpt lat="46.99641" lon="-1.01042">
        <ele>132.945</ele>
        <time>2020-05-27T17:31:43Z</time>
      </trkpt>
      <trkpt lat="46.99643" lon="-1.01037">
        <ele>132.668</ele>
        <time>2020-05-27T17:31:44Z</time>
      </trkpt>
      <trkpt lat="46.99644" lon="-1.01033">
        <ele>132.49</ele>
        <time>2020-05-27T17:31:45Z</time>
      </trkpt>
      <trkpt lat="46.99646" lon="-1.01027">
        <ele>132.647</ele>
        <time>2020-05-27T17:31:46Z</time>
      </trkpt>
      <trkpt lat="46.99648" lon="-1.01022">
        <ele>133.841</ele>
        <time>2020-05-27T17:31:47Z</time>
      </trkpt>
      <trkpt lat="46.99649" lon="-1.01018">
        <ele>133.786</ele>
        <time>2020-05-27T17:31:48Z</time>
      </trkpt>
      <trkpt lat="46.99651" lon="-1.01014">
        <ele>133.904</ele>
        <time>2020-05-27T17:31:49Z</time>
      </trkpt>
      <trkpt lat="46.99653" lon="-1.01007">
        <ele>134.2</ele>
        <time>2020-05-27T17:31:50Z</time>
      </trkpt>
      <trkpt lat="46.99655" lon="-1.01002">
        <ele>134.43</ele>
        <time>2020-05-27T17:31:51Z</time>
      </trkpt>
      <trkpt lat="46.99658" lon="-1.00996">
        <ele>135.041</ele>
        <time>2020-05-27T17:31:52Z</time>
      </trkpt>
      <trkpt lat="46.9966" lon="-1.00992">
        <ele>135.21</ele>
        <time>2020-05-27T17:31:53Z</time>
      </trkpt>
      <trkpt lat="46.99662" lon="-1.00987">
        <ele>135.111</ele>
        <time>2020-05-27T17:31:54Z</time>
      </trkpt>
      <trkpt lat="46.99664" lon="-1.00982">
        <ele>137.749</ele>
        <time>2020-05-27T17:31:55Z</time>
      </trkpt>
      <trkpt lat="46.99666" lon="-1.00976">
        <ele>137.86</ele>
        <time>2020-05-27T17:31:56Z</time>
      </trkpt>
      <trkpt lat="46.99668" lon="-1.00971">
        <ele>139.003</ele>
        <time>2020-05-27T17:31:57Z</time>
      </trkpt>
      <trkpt lat="46.9967" lon="-1.00966">
        <ele>139.215</ele>
        <time>2020-05-27T17:31:58Z</time>
      </trkpt>
      <trkpt lat="46.99671" lon="-1.00961">
        <ele>139.573</ele>
        <time>2020-05-27T17:31:59Z</time>
      </trkpt>
      <trkpt lat="46.99673" lon="-1.00956">
        <ele>137.252</ele>
        <time>2020-05-27T17:32:00Z</time>
      </trkpt>
      <trkpt lat="46.99675" lon="-1.00951">
        <ele>137.236</ele>
        <time>2020-05-27T17:32:01Z</time>
      </trkpt>
      <trkpt lat="46.99677" lon="-1.00946">
        <ele>137.252</ele>
        <time>2020-05-27T17:32:02Z</time>
      </trkpt>
      <trkpt lat="46.99679" lon="-1.00941">
        <ele>137.059</ele>
        <time>2020-05-27T17:32:03Z</time>
      </trkpt>
      <trkpt lat="46.99681" lon="-1.00936">
        <ele>137.31</ele>
        <time>2020-05-27T17:32:04Z</time>
      </trkpt>
      <trkpt lat="46.99683" lon="-1.00931">
        <ele>139.222</ele>
        <time>2020-05-27T17:32:05Z</time>
      </trkpt>
      <trkpt lat="46.99685" lon="-1.00926">
        <ele>140.625</ele>
        <time>2020-05-27T17:32:06Z</time>
      </trkpt>
      <trkpt lat="46.99687" lon="-1.00922">
        <ele>140.112</ele>
        <time>2020-05-27T17:32:07Z</time>
      </trkpt>
      <trkpt lat="46.99688" lon="-1.00917">
        <ele>140.428</ele>
        <time>2020-05-27T17:32:08Z</time>
      </trkpt>
      <trkpt lat="46.9969" lon="-1.00912">
        <ele>142.038</ele>
        <time>2020-05-27T17:32:09Z</time>
      </trkpt>
      <trkpt lat="46.99691" lon="-1.00906">
        <ele>143.251</ele>
        <time>2020-05-27T17:32:10Z</time>
      </trkpt>
      <trkpt lat="46.99693" lon="-1.00901">
        <ele>144.784</ele>
        <time>2020-05-27T17:32:11Z</time>
      </trkpt>
      <trkpt lat="46.99695" lon="-1.00895">
        <ele>148.386</ele>
        <time>2020-05-27T17:32:12Z</time>
      </trkpt>
      <trkpt lat="46.99697" lon="-1.0089">
        <ele>148.479</ele>
        <time>2020-05-27T17:32:13Z</time>
      </trkpt>
      <trkpt lat="46.99699" lon="-1.00885">
        <ele>148.021</ele>
        <time>2020-05-27T17:32:14Z</time>
      </trkpt>
      <trkpt lat="46.99701" lon="-1.0088">
        <ele>149.663</ele>
        <time>2020-05-27T17:32:15Z</time>
      </trkpt>
      <trkpt lat="46.99703" lon="-1.00875">
        <ele>149.68</ele>
        <time>2020-05-27T17:32:16Z</time>
      </trkpt>
      <trkpt lat="46.99704" lon="-1.0087">
        <ele>149.024</ele>
        <time>2020-05-27T17:32:17Z</time>
      </trkpt>
      <trkpt lat="46.99706" lon="-1.00865">
        <ele>148.603</ele>
        <time>2020-05-27T17:32:18Z</time>
      </trkpt>
      <trkpt lat="46.99708" lon="-1.00861">
        <ele>148.255</ele>
        <time>2020-05-27T17:32:19Z</time>
      </trkpt>
      <trkpt lat="46.99709" lon="-1.00856">
        <ele>148.384</ele>
        <time>2020-05-27T17:32:20Z</time>
      </trkpt>
      <trkpt lat="46.99711" lon="-1.00852">
        <ele>147.473</ele>
        <time>2020-05-27T17:32:21Z</time>
      </trkpt>
      <trkpt lat="46.99713" lon="-1.00848">
        <ele>147.734</ele>
        <time>2020-05-27T17:32:22Z</time>
      </trkpt>
      <trkpt lat="46.99714" lon="-1.00843">
        <ele>148.552</ele>
        <time>2020-05-27T17:32:23Z</time>
      </trkpt>
      <trkpt lat="46.99716" lon="-1.00839">
        <ele>147.615</ele>
        <time>2020-05-27T17:32:24Z</time>
      </trkpt>
      <trkpt lat="46.99717" lon="-1.00834">
        <ele>147.925</ele>
        <time>2020-05-27T17:32:25Z</time>
      </trkpt>
      <trkpt lat="46.99718" lon="-1.0083">
        <ele>146.666</ele>
        <time>2020-05-27T17:32:26Z</time>
      </trkpt>
      <trkpt lat="46.9972" lon="-1.00826">
        <ele>146.456</ele>
        <time>2020-05-27T17:32:27Z</time>
      </trkpt>
      <trkpt lat="46.99721" lon="-1.00822">
        <ele>145.937</ele>
        <time>2020-05-27T17:32:28Z</time>
      </trkpt>
      <trkpt lat="46.99722" lon="-1.00817">
        <ele>146.501</ele>
        <time>2020-05-27T17:32:29Z</time>
      </trkpt>
      <trkpt lat="46.99723" lon="-1.00812">
        <ele>147.029</ele>
        <time>2020-05-27T17:32:30Z</time>
      </trkpt>
      <trkpt lat="46.99725" lon="-1.00807">
        <ele>147.52</ele>
        <time>2020-05-27T17:32:31Z</time>
      </trkpt>
      <trkpt lat="46.99727" lon="-1.00802">
        <ele>148.072</ele>
        <time>2020-05-27T17:32:32Z</time>
      </trkpt>
      <trkpt lat="46.99728" lon="-1.00798">
        <ele>148.037</ele>
        <time>2020-05-27T17:32:33Z</time>
      </trkpt>
      <trkpt lat="46.99729" lon="-1.00793">
        <ele>147.065</ele>
        <time>2020-05-27T17:32:34Z</time>
      </trkpt>
      <trkpt lat="46.99731" lon="-1.00788">
        <ele>147.071</ele>
        <time>2020-05-27T17:32:35Z</time>
      </trkpt>
      <trkpt lat="46.99733" lon="-1.00782">
        <ele>146.459</ele>
        <time>2020-05-27T17:32:36Z</time>
      </trkpt>
      <trkpt lat="46.99735" lon="-1.00775">
        <ele>146.728</ele>
        <time>2020-05-27T17:32:37Z</time>
      </trkpt>
      <trkpt lat="46.99737" lon="-1.00769">
        <ele>146.37</ele>
        <time>2020-05-27T17:32:38Z</time>
      </trkpt>
      <trkpt lat="46.99739" lon="-1.00763">
        <ele>146.461</ele>
        <time>2020-05-27T17:32:39Z</time>
      </trkpt>
      <trkpt lat="46.99741" lon="-1.00756">
        <ele>146.513</ele>
        <time>2020-05-27T17:32:40Z</time>
      </trkpt>
      <trkpt lat="46.99743" lon="-1.0075">
        <ele>145.932</ele>
        <time>2020-05-27T17:32:41Z</time>
      </trkpt>
      <trkpt lat="46.99746" lon="-1.00742">
        <ele>146.254</ele>
        <time>2020-05-27T17:32:42Z</time>
      </trkpt>
      <trkpt lat="46.99747" lon="-1.00735">
        <ele>145.917</ele>
        <time>2020-05-27T17:32:43Z</time>
      </trkpt>
      <trkpt lat="46.99748" lon="-1.00727">
        <ele>145.783</ele>
        <time>2020-05-27T17:32:44Z</time>
      </trkpt>
      <trkpt lat="46.99749" lon="-1.00718">
        <ele>145.191</ele>
        <time>2020-05-27T17:32:45Z</time>
      </trkpt>
      <trkpt lat="46.9975" lon="-1.00709">
        <ele>145.251</ele>
        <time>2020-05-27T17:32:46Z</time>
      </trkpt>
      <trkpt lat="46.9975" lon="-1.00702">
        <ele>144.834</ele>
        <time>2020-05-27T17:32:47Z</time>
      </trkpt>
      <trkpt lat="46.9975" lon="-1.00693">
        <ele>144.724</ele>
        <time>2020-05-27T17:32:48Z</time>
      </trkpt>
      <trkpt lat="46.99752" lon="-1.00684">
        <ele>145.554</ele>
        <time>2020-05-27T17:32:49Z</time>
      </trkpt>
      <trkpt lat="46.99753" lon="-1.00676">
        <ele>145.454</ele>
        <time>2020-05-27T17:32:51Z</time>
      </trkpt>
      <trkpt lat="46.99754" lon="-1.00667">
        <ele>145.44</ele>
        <time>2020-05-27T17:32:51Z</time>
      </trkpt>
      <trkpt lat="46.99755" lon="-1.00659">
        <ele>145.082</ele>
        <time>2020-05-27T17:32:52Z</time>
      </trkpt>
      <trkpt lat="46.99756" lon="-1.00651">
        <ele>144.892</ele>
        <time>2020-05-27T17:32:53Z</time>
      </trkpt>
      <trkpt lat="46.99756" lon="-1.00644">
        <ele>144.643</ele>
        <time>2020-05-27T17:32:54Z</time>
      </trkpt>
      <trkpt lat="46.99757" lon="-1.00637">
        <ele>144.901</ele>
        <time>2020-05-27T17:32:55Z</time>
      </trkpt>
      <trkpt lat="46.99758" lon="-1.0063">
        <ele>145.584</ele>
        <time>2020-05-27T17:32:56Z</time>
      </trkpt>
      <trkpt lat="46.99756" lon="-1.00625">
        <ele>144.989</ele>
        <time>2020-05-27T17:32:57Z</time>
      </trkpt>
      <trkpt lat="46.99756" lon="-1.0062">
        <ele>145.264</ele>
        <time>2020-05-27T17:32:58Z</time>
      </trkpt>
      <trkpt lat="46.99757" lon="-1.00616">
        <ele>143.921</ele>
        <time>2020-05-27T17:32:59Z</time>
      </trkpt>
      <trkpt lat="46.99759" lon="-1.00613">
        <ele>144.442</ele>
        <time>2020-05-27T17:33:00Z</time>
      </trkpt>
      <trkpt lat="46.99761" lon="-1.00611">
        <ele>140.827</ele>
        <time>2020-05-27T17:33:01Z</time>
      </trkpt>
      <trkpt lat="46.99762" lon="-1.00608">
        <ele>140.117</ele>
        <time>2020-05-27T17:33:02Z</time>
      </trkpt>
      <trkpt lat="46.99763" lon="-1.00601">
        <ele>140.284</ele>
        <time>2020-05-27T17:33:03Z</time>
      </trkpt>
      <trkpt lat="46.99764" lon="-1.00595">
        <ele>139.846</ele>
        <time>2020-05-27T17:33:04Z</time>
      </trkpt>
      <trkpt lat="46.99765" lon="-1.00588">
        <ele>138.054</ele>
        <time>2020-05-27T17:33:05Z</time>
      </trkpt>
      <trkpt lat="46.99766" lon="-1.00583">
        <ele>138.379</ele>
        <time>2020-05-27T17:33:06Z</time>
      </trkpt>
      <trkpt lat="46.99765" lon="-1.00576">
        <ele>138.254</ele>
        <time>2020-05-27T17:33:07Z</time>
      </trkpt>
      <trkpt lat="46.99765" lon="-1.00569">
        <ele>138.319</ele>
        <time>2020-05-27T17:33:08Z</time>
      </trkpt>
      <trkpt lat="46.99765" lon="-1.00563">
        <ele>138.754</ele>
        <time>2020-05-27T17:33:09Z</time>
      </trkpt>
      <trkpt lat="46.99765" lon="-1.00556">
        <ele>138.827</ele>
        <time>2020-05-27T17:33:11Z</time>
      </trkpt>
      <trkpt lat="46.99762" lon="-1.00549">
        <ele>137.836</ele>
        <time>2020-05-27T17:33:11Z</time>
      </trkpt>
      <trkpt lat="46.99761" lon="-1.00542">
        <ele>137.981</ele>
        <time>2020-05-27T17:33:12Z</time>
      </trkpt>
      <trkpt lat="46.99759" lon="-1.00534">
        <ele>136.452</ele>
        <time>2020-05-27T17:33:13Z</time>
      </trkpt>
      <trkpt lat="46.99757" lon="-1.00527">
        <ele>136.022</ele>
        <time>2020-05-27T17:33:14Z</time>
      </trkpt>
      <trkpt lat="46.99755" lon="-1.0052">
        <ele>135.866</ele>
        <time>2020-05-27T17:33:15Z</time>
      </trkpt>
      <trkpt lat="46.99755" lon="-1.00512">
        <ele>135.777</ele>
        <time>2020-05-27T17:33:16Z</time>
      </trkpt>
      <trkpt lat="46.99753" lon="-1.00504">
        <ele>135.917</ele>
        <time>2020-05-27T17:33:17Z</time>
      </trkpt>
      <trkpt lat="46.99752" lon="-1.00497">
        <ele>135.136</ele>
        <time>2020-05-27T17:33:18Z</time>
      </trkpt>
      <trkpt lat="46.99749" lon="-1.00492">
        <ele>134.964</ele>
        <time>2020-05-27T17:33:19Z</time>
      </trkpt>
      <trkpt lat="46.99747" lon="-1.00486">
        <ele>135.3</ele>
        <time>2020-05-27T17:33:20Z</time>
      </trkpt>
      <trkpt lat="46.99745" lon="-1.0048">
        <ele>133.918</ele>
        <time>2020-05-27T17:33:21Z</time>
      </trkpt>
      <trkpt lat="46.99744" lon="-1.00473">
        <ele>133.578</ele>
        <time>2020-05-27T17:33:22Z</time>
      </trkpt>
      <trkpt lat="46.99742" lon="-1.00469">
        <ele>132.196</ele>
        <time>2020-05-27T17:33:23Z</time>
      </trkpt>
      <trkpt lat="46.99741" lon="-1.00461">
        <ele>132.574</ele>
        <time>2020-05-27T17:33:24Z</time>
      </trkpt>
      <trkpt lat="46.99739" lon="-1.00455">
        <ele>133.343</ele>
        <time>2020-05-27T17:33:25Z</time>
      </trkpt>
      <trkpt lat="46.99738" lon="-1.00448">
        <ele>133.364</ele>
        <time>2020-05-27T17:33:26Z</time>
      </trkpt>
      <trkpt lat="46.99736" lon="-1.00443">
        <ele>131.622</ele>
        <time>2020-05-27T17:33:27Z</time>
      </trkpt>
      <trkpt lat="46.99735" lon="-1.00438">
        <ele>131.022</ele>
        <time>2020-05-27T17:33:28Z</time>
      </trkpt>
      <trkpt lat="46.99733" lon="-1.00431">
        <ele>131.048</ele>
        <time>2020-05-27T17:33:29Z</time>
      </trkpt>
      <trkpt lat="46.99731" lon="-1.00423">
        <ele>132.18</ele>
        <time>2020-05-27T17:33:30Z</time>
      </trkpt>
      <trkpt lat="46.9973" lon="-1.00418">
        <ele>130.002</ele>
        <time>2020-05-27T17:33:31Z</time>
      </trkpt>
      <trkpt lat="46.99727" lon="-1.0041">
        <ele>129.9</ele>
        <time>2020-05-27T17:33:32Z</time>
      </trkpt>
      <trkpt lat="46.99727" lon="-1.00403">
        <ele>129.494</ele>
        <time>2020-05-27T17:33:33Z</time>
      </trkpt>
      <trkpt lat="46.99725" lon="-1.00395">
        <ele>129.739</ele>
        <time>2020-05-27T17:33:34Z</time>
      </trkpt>
      <trkpt lat="46.99723" lon="-1.00388">
        <ele>129.215</ele>
        <time>2020-05-27T17:33:35Z</time>
      </trkpt>
      <trkpt lat="46.99722" lon="-1.00383">
        <ele>129.778</ele>
        <time>2020-05-27T17:33:36Z</time>
      </trkpt>
      <trkpt lat="46.9972" lon="-1.00376">
        <ele>129.462</ele>
        <time>2020-05-27T17:33:38Z</time>
      </trkpt>
      <trkpt lat="46.99718" lon="-1.00368">
        <ele>129.355</ele>
        <time>2020-05-27T17:33:38Z</time>
      </trkpt>
      <trkpt lat="46.99716" lon="-1.00363">
        <ele>128.356</ele>
        <time>2020-05-27T17:33:39Z</time>
      </trkpt>
      <trkpt lat="46.99714" lon="-1.00356">
        <ele>128.623</ele>
        <time>2020-05-27T17:33:40Z</time>
      </trkpt>
      <trkpt lat="46.99712" lon="-1.00349">
        <ele>129.04</ele>
        <time>2020-05-27T17:33:41Z</time>
      </trkpt>
      <trkpt lat="46.9971" lon="-1.00342">
        <ele>128.352</ele>
        <time>2020-05-27T17:33:42Z</time>
      </trkpt>
      <trkpt lat="46.99708" lon="-1.00334">
        <ele>127.944</ele>
        <time>2020-05-27T17:33:43Z</time>
      </trkpt>
      <trkpt lat="46.99707" lon="-1.00327">
        <ele>126.32</ele>
        <time>2020-05-27T17:33:44Z</time>
      </trkpt>
      <trkpt lat="46.99705" lon="-1.00319">
        <ele>125.865</ele>
        <time>2020-05-27T17:33:45Z</time>
      </trkpt>
      <trkpt lat="46.99703" lon="-1.00311">
        <ele>126.242</ele>
        <time>2020-05-27T17:33:46Z</time>
      </trkpt>
      <trkpt lat="46.99701" lon="-1.00303">
        <ele>126.08</ele>
        <time>2020-05-27T17:33:47Z</time>
      </trkpt>
      <trkpt lat="46.99699" lon="-1.00295">
        <ele>126.006</ele>
        <time>2020-05-27T17:33:48Z</time>
      </trkpt>
      <trkpt lat="46.99698" lon="-1.00287">
        <ele>126.131</ele>
        <time>2020-05-27T17:33:49Z</time>
      </trkpt>
      <trkpt lat="46.99696" lon="-1.00279">
        <ele>126.698</ele>
        <time>2020-05-27T17:33:50Z</time>
      </trkpt>
      <trkpt lat="46.99695" lon="-1.00271">
        <ele>127.345</ele>
        <time>2020-05-27T17:33:51Z</time>
      </trkpt>
      <trkpt lat="46.99694" lon="-1.00262">
        <ele>127.594</ele>
        <time>2020-05-27T17:33:52Z</time>
      </trkpt>
      <trkpt lat="46.99693" lon="-1.00254">
        <ele>127.689</ele>
        <time>2020-05-27T17:33:53Z</time>
      </trkpt>
      <trkpt lat="46.99692" lon="-1.00246">
        <ele>127.755</ele>
        <time>2020-05-27T17:33:54Z</time>
      </trkpt>
      <trkpt lat="46.99692" lon="-1.00239">
        <ele>127.71</ele>
        <time>2020-05-27T17:33:55Z</time>
      </trkpt>
      <trkpt lat="46.99691" lon="-1.00232">
        <ele>127.581</ele>
        <time>2020-05-27T17:33:56Z</time>
      </trkpt>
      <trkpt lat="46.9969" lon="-1.00225">
        <ele>126.95</ele>
        <time>2020-05-27T17:33:57Z</time>
      </trkpt>
      <trkpt lat="46.99689" lon="-1.00217">
        <ele>126.851</ele>
        <time>2020-05-27T17:33:58Z</time>
      </trkpt>
      <trkpt lat="46.99689" lon="-1.00209">
        <ele>126.98</ele>
        <time>2020-05-27T17:33:59Z</time>
      </trkpt>
      <trkpt lat="46.99689" lon="-1.002">
        <ele>127.064</ele>
        <time>2020-05-27T17:34:00Z</time>
      </trkpt>
      <trkpt lat="46.99688" lon="-1.00193">
        <ele>127.38</ele>
        <time>2020-05-27T17:34:01Z</time>
      </trkpt>
      <trkpt lat="46.99687" lon="-1.00186">
        <ele>127.457</ele>
        <time>2020-05-27T17:34:02Z</time>
      </trkpt>
      <trkpt lat="46.99687" lon="-1.00178">
        <ele>127.496</ele>
        <time>2020-05-27T17:34:03Z</time>
      </trkpt>
      <trkpt lat="46.99686" lon="-1.0017">
        <ele>127.279</ele>
        <time>2020-05-27T17:34:04Z</time>
      </trkpt>
      <trkpt lat="46.99686" lon="-1.00162">
        <ele>126.812</ele>
        <time>2020-05-27T17:34:05Z</time>
      </trkpt>
      <trkpt lat="46.99686" lon="-1.00153">
        <ele>127.602</ele>
        <time>2020-05-27T17:34:06Z</time>
      </trkpt>
      <trkpt lat="46.99686" lon="-1.00145">
        <ele>128.018</ele>
        <time>2020-05-27T17:34:07Z</time>
      </trkpt>
      <trkpt lat="46.99686" lon="-1.00137">
        <ele>128.351</ele>
        <time>2020-05-27T17:34:08Z</time>
      </trkpt>
      <trkpt lat="46.99685" lon="-1.00129">
        <ele>129.066</ele>
        <time>2020-05-27T17:34:09Z</time>
      </trkpt>
      <trkpt lat="46.99684" lon="-1.00121">
        <ele>128.5</ele>
        <time>2020-05-27T17:34:10Z</time>
      </trkpt>
      <trkpt lat="46.99685" lon="-1.00112">
        <ele>130.059</ele>
        <time>2020-05-27T17:34:11Z</time>
      </trkpt>
      <trkpt lat="46.99685" lon="-1.00103">
        <ele>130.009</ele>
        <time>2020-05-27T17:34:12Z</time>
      </trkpt>
      <trkpt lat="46.99684" lon="-1.00094">
        <ele>133.006</ele>
        <time>2020-05-27T17:34:13Z</time>
      </trkpt>
      <trkpt lat="46.99685" lon="-1.00085">
        <ele>133.1</ele>
        <time>2020-05-27T17:34:14Z</time>
      </trkpt>
      <trkpt lat="46.99685" lon="-1.00078">
        <ele>132.416</ele>
        <time>2020-05-27T17:34:15Z</time>
      </trkpt>
      <trkpt lat="46.99686" lon="-1.0007">
        <ele>132.665</ele>
        <time>2020-05-27T17:34:16Z</time>
      </trkpt>
      <trkpt lat="46.99686" lon="-1.00063">
        <ele>133.283</ele>
        <time>2020-05-27T17:34:17Z</time>
      </trkpt>
      <trkpt lat="46.99686" lon="-1.00056">
        <ele>133.15</ele>
        <time>2020-05-27T17:34:18Z</time>
      </trkpt>
      <trkpt lat="46.99685" lon="-1.0005">
        <ele>133.431</ele>
        <time>2020-05-27T17:34:19Z</time>
      </trkpt>
      <trkpt lat="46.99684" lon="-1.00044">
        <ele>132.234</ele>
        <time>2020-05-27T17:34:20Z</time>
      </trkpt>
      <trkpt lat="46.99683" lon="-1.00038">
        <ele>131.773</ele>
        <time>2020-05-27T17:34:22Z</time>
      </trkpt>
      <trkpt lat="46.99683" lon="-1.00031">
        <ele>132.82</ele>
        <time>2020-05-27T17:34:22Z</time>
      </trkpt>
      <trkpt lat="46.99682" lon="-1.00023">
        <ele>131.372</ele>
        <time>2020-05-27T17:34:23Z</time>
      </trkpt>
      <trkpt lat="46.99679" lon="-1.00017">
        <ele>131.188</ele>
        <time>2020-05-27T17:34:24Z</time>
      </trkpt>
      <trkpt lat="46.99677" lon="-1.00011">
        <ele>131.98</ele>
        <time>2020-05-27T17:34:25Z</time>
      </trkpt>
      <trkpt lat="46.99674" lon="-1.00004">
        <ele>133.131</ele>
        <time>2020-05-27T17:34:26Z</time>
      </trkpt>
      <trkpt lat="46.99672" lon="-0.99997">
        <ele>133.911</ele>
        <time>2020-05-27T17:34:27Z</time>
      </trkpt>
      <trkpt lat="46.99671" lon="-0.99992">
        <ele>134.087</ele>
        <time>2020-05-27T17:34:28Z</time>
      </trkpt>
      <trkpt lat="46.9967" lon="-0.99989">
        <ele>133.62</ele>
        <time>2020-05-27T17:34:29Z</time>
      </trkpt>
      <trkpt lat="46.99669" lon="-0.99986">
        <ele>132.897</ele>
        <time>2020-05-27T17:34:30Z</time>
      </trkpt>
      <trkpt lat="46.99668" lon="-0.99979">
        <ele>131.53</ele>
        <time>2020-05-27T17:34:31Z</time>
      </trkpt>
      <trkpt lat="46.99669" lon="-0.99972">
        <ele>130.236</ele>
        <time>2020-05-27T17:34:32Z</time>
      </trkpt>
      <trkpt lat="46.9967" lon="-0.99964">
        <ele>129.165</ele>
        <time>2020-05-27T17:34:33Z</time>
      </trkpt>
      <trkpt lat="46.99671" lon="-0.99956">
        <ele>129.476</ele>
        <time>2020-05-27T17:34:34Z</time>
      </trkpt>
      <trkpt lat="46.99672" lon="-0.99946">
        <ele>151.767</ele>
        <time>2020-05-27T17:34:35Z</time>
      </trkpt>
      <trkpt lat="46.99672" lon="-0.99939">
        <ele>146.654</ele>
        <time>2020-05-27T17:34:36Z</time>
      </trkpt>
      <trkpt lat="46.99674" lon="-0.9993">
        <ele>143.162</ele>
        <time>2020-05-27T17:34:37Z</time>
      </trkpt>
      <trkpt lat="46.99675" lon="-0.99922">
        <ele>141.032</ele>
        <time>2020-05-27T17:34:38Z</time>
      </trkpt>
      <trkpt lat="46.99676" lon="-0.99913">
        <ele>138.375</ele>
        <time>2020-05-27T17:34:39Z</time>
      </trkpt>
      <trkpt lat="46.99678" lon="-0.99904">
        <ele>135.989</ele>
        <time>2020-05-27T17:34:40Z</time>
      </trkpt>
      <trkpt lat="46.99677" lon="-0.99894">
        <ele>134.655</ele>
        <time>2020-05-27T17:34:41Z</time>
      </trkpt>
      <trkpt lat="46.99677" lon="-0.99884">
        <ele>133.649</ele>
        <time>2020-05-27T17:34:43Z</time>
      </trkpt>
      <trkpt lat="46.99679" lon="-0.99875">
        <ele>133.405</ele>
        <time>2020-05-27T17:34:43Z</time>
      </trkpt>
      <trkpt lat="46.99679" lon="-0.99866">
        <ele>133.196</ele>
        <time>2020-05-27T17:34:44Z</time>
      </trkpt>
      <trkpt lat="46.99678" lon="-0.99859">
        <ele>132.808</ele>
        <time>2020-05-27T17:34:45Z</time>
      </trkpt>
      <trkpt lat="46.99678" lon="-0.99849">
        <ele>132.799</ele>
        <time>2020-05-27T17:34:46Z</time>
      </trkpt>
      <trkpt lat="46.99681" lon="-0.99843">
        <ele>132.379</ele>
        <time>2020-05-27T17:34:47Z</time>
      </trkpt>
      <trkpt lat="46.99677" lon="-0.99838">
        <ele>130.961</ele>
        <time>2020-05-27T17:34:48Z</time>
      </trkpt>
      <trkpt lat="46.99676" lon="-0.99828">
        <ele>132.035</ele>
        <time>2020-05-27T17:34:49Z</time>
      </trkpt>
      <trkpt lat="46.99674" lon="-0.9982">
        <ele>131.029</ele>
        <time>2020-05-27T17:34:50Z</time>
      </trkpt>
      <trkpt lat="46.99671" lon="-0.9981">
        <ele>129.557</ele>
        <time>2020-05-27T17:34:52Z</time>
      </trkpt>
      <trkpt lat="46.99671" lon="-0.99802">
        <ele>130.028</ele>
        <time>2020-05-27T17:34:52Z</time>
      </trkpt>
      <trkpt lat="46.99667" lon="-0.99795">
        <ele>127.946</ele>
        <time>2020-05-27T17:34:53Z</time>
      </trkpt>
      <trkpt lat="46.99666" lon="-0.99787">
        <ele>127.33</ele>
        <time>2020-05-27T17:34:54Z</time>
      </trkpt>
      <trkpt lat="46.99669" lon="-0.99781">
        <ele>128.535</ele>
        <time>2020-05-27T17:34:55Z</time>
      </trkpt>
      <trkpt lat="46.9967" lon="-0.99774">
        <ele>128.265</ele>
        <time>2020-05-27T17:34:56Z</time>
      </trkpt>
      <trkpt lat="46.99672" lon="-0.9977">
        <ele>128.09</ele>
        <time>2020-05-27T17:34:57Z</time>
      </trkpt>
      <trkpt lat="46.99676" lon="-0.99766">
        <ele>126.115</ele>
        <time>2020-05-27T17:34:58Z</time>
      </trkpt>
      <trkpt lat="46.99676" lon="-0.99764">
        <ele>124.56</ele>
        <time>2020-05-27T17:34:59Z</time>
      </trkpt>
      <trkpt lat="46.99678" lon="-0.99761">
        <ele>124.099</ele>
        <time>2020-05-27T17:35:00Z</time>
      </trkpt>
      <trkpt lat="46.99679" lon="-0.99757">
        <ele>123.694</ele>
        <time>2020-05-27T17:35:01Z</time>
      </trkpt>
      <trkpt lat="46.99681" lon="-0.99757">
        <ele>123.334</ele>
        <time>2020-05-27T17:35:02Z</time>
      </trkpt>
      <trkpt lat="46.99681" lon="-0.99756">
        <ele>123.219</ele>
        <time>2020-05-27T17:35:03Z</time>
      </trkpt>
      <trkpt lat="46.99682" lon="-0.99755">
        <ele>124.313</ele>
        <time>2020-05-27T17:35:04Z</time>
      </trkpt>
      <trkpt lat="46.99682" lon="-0.99755">
        <ele>123.409</ele>
        <time>2020-05-27T17:35:05Z</time>
      </trkpt>
      <trkpt lat="46.99682" lon="-0.99755">
        <ele>123.939</ele>
        <time>2020-05-27T17:35:06Z</time>
      </trkpt>
      <trkpt lat="46.99682" lon="-0.99755">
        <ele>123.277</ele>
        <time>2020-05-27T17:35:07Z</time>
      </trkpt>
      <trkpt lat="46.99683" lon="-0.99755">
        <ele>121.973</ele>
        <time>2020-05-27T17:35:08Z</time>
      </trkpt>
      <trkpt lat="46.99683" lon="-0.99755">
        <ele>121.385</ele>
        <time>2020-05-27T17:35:11Z</time>
      </trkpt>
      <trkpt lat="46.99683" lon="-0.99755">
        <ele>121.432</ele>
        <time>2020-05-27T17:35:12Z</time>
      </trkpt>
      <trkpt lat="46.99684" lon="-0.99755">
        <ele>121.461</ele>
        <time>2020-05-27T17:35:13Z</time>
      </trkpt>
      <trkpt lat="46.99684" lon="-0.99755">
        <ele>121.557</ele>
        <time>2020-05-27T17:35:14Z</time>
      </trkpt>
      <trkpt lat="46.99684" lon="-0.99755">
        <ele>121.752</ele>
        <time>2020-05-27T17:35:15Z</time>
      </trkpt>
      <trkpt lat="46.99684" lon="-0.99755">
        <ele>121.17</ele>
        <time>2020-05-27T17:35:16Z</time>
      </trkpt>
      <trkpt lat="46.99685" lon="-0.99755">
        <ele>121.087</ele>
        <time>2020-05-27T17:35:17Z</time>
      </trkpt>
      <trkpt lat="46.99685" lon="-0.99755">
        <ele>120.978</ele>
        <time>2020-05-27T17:35:18Z</time>
      </trkpt>
      <trkpt lat="46.99685" lon="-0.99756">
        <ele>120.874</ele>
        <time>2020-05-27T17:35:19Z</time>
      </trkpt>
      <trkpt lat="46.99685" lon="-0.99756">
        <ele>121.05</ele>
        <time>2020-05-27T17:35:20Z</time>
      </trkpt>
      <trkpt lat="46.99685" lon="-0.99756">
        <ele>121.024</ele>
        <time>2020-05-27T17:35:21Z</time>
      </trkpt>
      <trkpt lat="46.99685" lon="-0.99756">
        <ele>120.935</ele>
        <time>2020-05-27T17:35:22Z</time>
      </trkpt>
      <trkpt lat="46.99685" lon="-0.99756">
        <ele>120.972</ele>
        <time>2020-05-27T17:35:23Z</time>
      </trkpt>
      <trkpt lat="46.99685" lon="-0.99756">
        <ele>120.974</ele>
        <time>2020-05-27T17:35:24Z</time>
      </trkpt>
      <trkpt lat="46.99685" lon="-0.99756">
        <ele>120.973</ele>
        <time>2020-05-27T17:35:25Z</time>
      </trkpt>
      <trkpt lat="46.99685" lon="-0.99756">
        <ele>120.984</ele>
        <time>2020-05-27T17:35:26Z</time>
      </trkpt>
      <trkpt lat="46.99685" lon="-0.99756">
        <ele>120.963</ele>
        <time>2020-05-27T17:35:27Z</time>
      </trkpt>
      <trkpt lat="46.99685" lon="-0.99755">
        <ele>121.045</ele>
        <time>2020-05-27T17:35:28Z</time>
      </trkpt>
      <trkpt lat="46.99685" lon="-0.99755">
        <ele>121.051</ele>
        <time>2020-05-27T17:35:29Z</time>
      </trkpt>
      <trkpt lat="46.99685" lon="-0.99755">
        <ele>121.037</ele>
        <time>2020-05-27T17:35:30Z</time>
      </trkpt>
      <trkpt lat="46.99685" lon="-0.99755">
        <ele>121.046</ele>
        <time>2020-05-27T17:35:31Z</time>
      </trkpt>
      <trkpt lat="46.99685" lon="-0.99755">
        <ele>121.059</ele>
        <time>2020-05-27T17:35:32Z</time>
      </trkpt>
      <trkpt lat="46.99685" lon="-0.99754">
        <ele>120.481</ele>
        <time>2020-05-27T17:35:33Z</time>
      </trkpt>
      <trkpt lat="46.99685" lon="-0.99752">
        <ele>118.527</ele>
        <time>2020-05-27T17:35:34Z</time>
      </trkpt>
      <trkpt lat="46.99686" lon="-0.9975">
        <ele>119.27</ele>
        <time>2020-05-27T17:35:35Z</time>
      </trkpt>
      <trkpt lat="46.99686" lon="-0.99748">
        <ele>119.62</ele>
        <time>2020-05-27T17:35:36Z</time>
      </trkpt>
      <trkpt lat="46.99687" lon="-0.99746">
        <ele>119.386</ele>
        <time>2020-05-27T17:35:37Z</time>
      </trkpt>
      <trkpt lat="46.99688" lon="-0.99743">
        <ele>118.491</ele>
        <time>2020-05-27T17:35:38Z</time>
      </trkpt>
      <trkpt lat="46.99689" lon="-0.9974">
        <ele>119.088</ele>
        <time>2020-05-27T17:35:40Z</time>
      </trkpt>
      <trkpt lat="46.99691" lon="-0.99738">
        <ele>118.582</ele>
        <time>2020-05-27T17:35:40Z</time>
      </trkpt>
      <trkpt lat="46.99694" lon="-0.99736">
        <ele>117.546</ele>
        <time>2020-05-27T17:35:41Z</time>
      </trkpt>
      <trkpt lat="46.99695" lon="-0.99734">
        <ele>116.033</ele>
        <time>2020-05-27T17:35:42Z</time>
      </trkpt>
      <trkpt lat="46.99697" lon="-0.99733">
        <ele>117.094</ele>
        <time>2020-05-27T17:35:44Z</time>
      </trkpt>
      <trkpt lat="46.99698" lon="-0.99731">
        <ele>117.177</ele>
        <time>2020-05-27T17:35:44Z</time>
      </trkpt>
      <trkpt lat="46.99699" lon="-0.99725">
        <ele>116.47</ele>
        <time>2020-05-27T17:35:46Z</time>
      </trkpt>
      <trkpt lat="46.99698" lon="-0.9972">
        <ele>116.901</ele>
        <time>2020-05-27T17:35:47Z</time>
      </trkpt>
      <trkpt lat="46.99698" lon="-0.99716">
        <ele>115.508</ele>
        <time>2020-05-27T17:35:48Z</time>
      </trkpt>
      <trkpt lat="46.99697" lon="-0.99713">
        <ele>114.942</ele>
        <time>2020-05-27T17:35:49Z</time>
      </trkpt>
      <trkpt lat="46.99696" lon="-0.99709">
        <ele>115.17</ele>
        <time>2020-05-27T17:35:50Z</time>
      </trkpt>
      <trkpt lat="46.99695" lon="-0.99706">
        <ele>115.616</ele>
        <time>2020-05-27T17:35:51Z</time>
      </trkpt>
      <trkpt lat="46.99694" lon="-0.99703">
        <ele>117.707</ele>
        <time>2020-05-27T17:35:52Z</time>
      </trkpt>
      <trkpt lat="46.99693" lon="-0.997">
        <ele>118.282</ele>
        <time>2020-05-27T17:35:53Z</time>
      </trkpt>
      <trkpt lat="46.99692" lon="-0.99697">
        <ele>117.948</ele>
        <time>2020-05-27T17:35:54Z</time>
      </trkpt>
      <trkpt lat="46.99691" lon="-0.99694">
        <ele>118.07</ele>
        <time>2020-05-27T17:35:55Z</time>
      </trkpt>
      <trkpt lat="46.9969" lon="-0.9969">
        <ele>118.734</ele>
        <time>2020-05-27T17:35:56Z</time>
      </trkpt>
      <trkpt lat="46.99688" lon="-0.99687">
        <ele>118.273</ele>
        <time>2020-05-27T17:35:57Z</time>
      </trkpt>
      <trkpt lat="46.99687" lon="-0.99683">
        <ele>119.035</ele>
        <time>2020-05-27T17:35:58Z</time>
      </trkpt>
      <trkpt lat="46.99686" lon="-0.9968">
        <ele>119.123</ele>
        <time>2020-05-27T17:35:59Z</time>
      </trkpt>
      <trkpt lat="46.99685" lon="-0.99676">
        <ele>117.318</ele>
        <time>2020-05-27T17:36:00Z</time>
      </trkpt>
      <trkpt lat="46.99684" lon="-0.99673">
        <ele>116.814</ele>
        <time>2020-05-27T17:36:01Z</time>
      </trkpt>
      <trkpt lat="46.99682" lon="-0.99671">
        <ele>115.916</ele>
        <time>2020-05-27T17:36:02Z</time>
      </trkpt>
      <trkpt lat="46.99681" lon="-0.99668">
        <ele>115.024</ele>
        <time>2020-05-27T17:36:03Z</time>
      </trkpt>
      <trkpt lat="46.99679" lon="-0.99665">
        <ele>114.572</ele>
        <time>2020-05-27T17:36:04Z</time>
      </trkpt>
      <trkpt lat="46.99677" lon="-0.99661">
        <ele>113.671</ele>
        <time>2020-05-27T17:36:05Z</time>
      </trkpt>
      <trkpt lat="46.99676" lon="-0.99658">
        <ele>114.36</ele>
        <time>2020-05-27T17:36:06Z</time>
      </trkpt>
      <trkpt lat="46.99675" lon="-0.99655">
        <ele>114.89</ele>
        <time>2020-05-27T17:36:07Z</time>
      </trkpt>
      <trkpt lat="46.99675" lon="-0.99653">
        <ele>115.66</ele>
        <time>2020-05-27T17:36:08Z</time>
      </trkpt>
      <trkpt lat="46.99674" lon="-0.9965">
        <ele>115.233</ele>
        <time>2020-05-27T17:36:09Z</time>
      </trkpt>
      <trkpt lat="46.99673" lon="-0.99646">
        <ele>117.455</ele>
        <time>2020-05-27T17:36:10Z</time>
      </trkpt>
      <trkpt lat="46.99672" lon="-0.99641">
        <ele>117.594</ele>
        <time>2020-05-27T17:36:11Z</time>
      </trkpt>
      <trkpt lat="46.99671" lon="-0.99636">
        <ele>117.731</ele>
        <time>2020-05-27T17:36:12Z</time>
      </trkpt>
      <trkpt lat="46.9967" lon="-0.99631">
        <ele>118.84</ele>
        <time>2020-05-27T17:36:13Z</time>
      </trkpt>
      <trkpt lat="46.99669" lon="-0.99627">
        <ele>118.545</ele>
        <time>2020-05-27T17:36:14Z</time>
      </trkpt>
      <trkpt lat="46.99668" lon="-0.99622">
        <ele>116.955</ele>
        <time>2020-05-27T17:36:15Z</time>
      </trkpt>
      <trkpt lat="46.99668" lon="-0.99618">
        <ele>116.181</ele>
        <time>2020-05-27T17:36:16Z</time>
      </trkpt>
      <trkpt lat="46.99667" lon="-0.99614">
        <ele>116.716</ele>
        <time>2020-05-27T17:36:17Z</time>
      </trkpt>
      <trkpt lat="46.99667" lon="-0.9961">
        <ele>117.491</ele>
        <time>2020-05-27T17:36:18Z</time>
      </trkpt>
      <trkpt lat="46.99666" lon="-0.99606">
        <ele>116.228</ele>
        <time>2020-05-27T17:36:19Z</time>
      </trkpt>
      <trkpt lat="46.99666" lon="-0.99601">
        <ele>116.742</ele>
        <time>2020-05-27T17:36:20Z</time>
      </trkpt>
      <trkpt lat="46.99666" lon="-0.99597">
        <ele>116.527</ele>
        <time>2020-05-27T17:36:21Z</time>
      </trkpt>
      <trkpt lat="46.99666" lon="-0.99592">
        <ele>115.759</ele>
        <time>2020-05-27T17:36:22Z</time>
      </trkpt>
      <trkpt lat="46.99665" lon="-0.99588">
        <ele>116.043</ele>
        <time>2020-05-27T17:36:23Z</time>
      </trkpt>
      <trkpt lat="46.99665" lon="-0.99584">
        <ele>116.942</ele>
        <time>2020-05-27T17:36:24Z</time>
      </trkpt>
      <trkpt lat="46.99665" lon="-0.9958">
        <ele>117.603</ele>
        <time>2020-05-27T17:36:25Z</time>
      </trkpt>
      <trkpt lat="46.99664" lon="-0.99578">
        <ele>117.135</ele>
        <time>2020-05-27T17:36:26Z</time>
      </trkpt>
      <trkpt lat="46.99663" lon="-0.99574">
        <ele>117.813</ele>
        <time>2020-05-27T17:36:27Z</time>
      </trkpt>
      <trkpt lat="46.99662" lon="-0.99571">
        <ele>118.887</ele>
        <time>2020-05-27T17:36:28Z</time>
      </trkpt>
      <trkpt lat="46.99661" lon="-0.99568">
        <ele>120.579</ele>
        <time>2020-05-27T17:36:29Z</time>
      </trkpt>
      <trkpt lat="46.99661" lon="-0.99565">
        <ele>120.494</ele>
        <time>2020-05-27T17:36:30Z</time>
      </trkpt>
      <trkpt lat="46.99661" lon="-0.99563">
        <ele>118.997</ele>
        <time>2020-05-27T17:36:31Z</time>
      </trkpt>
      <trkpt lat="46.99661" lon="-0.99561">
        <ele>118.971</ele>
        <time>2020-05-27T17:36:32Z</time>
      </trkpt>
      <trkpt lat="46.99661" lon="-0.99558">
        <ele>116.646</ele>
        <time>2020-05-27T17:36:33Z</time>
      </trkpt>
      <trkpt lat="46.99661" lon="-0.99555">
        <ele>116.676</ele>
        <time>2020-05-27T17:36:34Z</time>
      </trkpt>
      <trkpt lat="46.99661" lon="-0.99552">
        <ele>118.006</ele>
        <time>2020-05-27T17:36:35Z</time>
      </trkpt>
      <trkpt lat="46.99661" lon="-0.99548">
        <ele>117.735</ele>
        <time>2020-05-27T17:36:36Z</time>
      </trkpt>
      <trkpt lat="46.99661" lon="-0.99542">
        <ele>114.904</ele>
        <time>2020-05-27T17:36:37Z</time>
      </trkpt>
      <trkpt lat="46.99661" lon="-0.99537">
        <ele>113.923</ele>
        <time>2020-05-27T17:36:38Z</time>
      </trkpt>
      <trkpt lat="46.9966" lon="-0.99532">
        <ele>115.226</ele>
        <time>2020-05-27T17:36:39Z</time>
      </trkpt>
      <trkpt lat="46.9966" lon="-0.99529">
        <ele>116.382</ele>
        <time>2020-05-27T17:36:40Z</time>
      </trkpt>
      <trkpt lat="46.99659" lon="-0.99525">
        <ele>117.345</ele>
        <time>2020-05-27T17:36:41Z</time>
      </trkpt>
      <trkpt lat="46.99659" lon="-0.99521">
        <ele>119.198</ele>
        <time>2020-05-27T17:36:42Z</time>
      </trkpt>
      <trkpt lat="46.99659" lon="-0.99517">
        <ele>120.073</ele>
        <time>2020-05-27T17:36:43Z</time>
      </trkpt>
      <trkpt lat="46.99659" lon="-0.99513">
        <ele>120.358</ele>
        <time>2020-05-27T17:36:44Z</time>
      </trkpt>
      <trkpt lat="46.99658" lon="-0.9951">
        <ele>121.6</ele>
        <time>2020-05-27T17:36:45Z</time>
      </trkpt>
      <trkpt lat="46.99658" lon="-0.99507">
        <ele>121.158</ele>
        <time>2020-05-27T17:36:46Z</time>
      </trkpt>
      <trkpt lat="46.99658" lon="-0.99504">
        <ele>121.987</ele>
        <time>2020-05-27T17:36:47Z</time>
      </trkpt>
      <trkpt lat="46.99658" lon="-0.99502">
        <ele>123.128</ele>
        <time>2020-05-27T17:36:48Z</time>
      </trkpt>
      <trkpt lat="46.99658" lon="-0.99499">
        <ele>124.052</ele>
        <time>2020-05-27T17:36:49Z</time>
      </trkpt>
      <trkpt lat="46.99657" lon="-0.99496">
        <ele>125.101</ele>
        <time>2020-05-27T17:36:50Z</time>
      </trkpt>
      <trkpt lat="46.99657" lon="-0.99493">
        <ele>125.625</ele>
        <time>2020-05-27T17:36:51Z</time>
      </trkpt>
      <trkpt lat="46.99656" lon="-0.9949">
        <ele>124.923</ele>
        <time>2020-05-27T17:36:52Z</time>
      </trkpt>
      <trkpt lat="46.99656" lon="-0.99486">
        <ele>124.819</ele>
        <time>2020-05-27T17:36:53Z</time>
      </trkpt>
      <trkpt lat="46.99656" lon="-0.99484">
        <ele>124.535</ele>
        <time>2020-05-27T17:36:54Z</time>
      </trkpt>
      <trkpt lat="46.99656" lon="-0.99481">
        <ele>124.456</ele>
        <time>2020-05-27T17:36:55Z</time>
      </trkpt>
      <trkpt lat="46.99656" lon="-0.99478">
        <ele>124.145</ele>
        <time>2020-05-27T17:36:56Z</time>
      </trkpt>
      <trkpt lat="46.99655" lon="-0.99475">
        <ele>125.808</ele>
        <time>2020-05-27T17:36:57Z</time>
      </trkpt>
      <trkpt lat="46.99654" lon="-0.99472">
        <ele>127.041</ele>
        <time>2020-05-27T17:36:58Z</time>
      </trkpt>
      <trkpt lat="46.99653" lon="-0.99468">
        <ele>127.995</ele>
        <time>2020-05-27T17:36:59Z</time>
      </trkpt>
      <trkpt lat="46.99653" lon="-0.99465">
        <ele>127.945</ele>
        <time>2020-05-27T17:37:00Z</time>
      </trkpt>
      <trkpt lat="46.99652" lon="-0.99461">
        <ele>128.641</ele>
        <time>2020-05-27T17:37:01Z</time>
      </trkpt>
      <trkpt lat="46.99652" lon="-0.99458">
        <ele>128.655</ele>
        <time>2020-05-27T17:37:02Z</time>
      </trkpt>
      <trkpt lat="46.99652" lon="-0.99455">
        <ele>127.509</ele>
        <time>2020-05-27T17:37:03Z</time>
      </trkpt>
      <trkpt lat="46.99651" lon="-0.99452">
        <ele>127.623</ele>
        <time>2020-05-27T17:37:04Z</time>
      </trkpt>
      <trkpt lat="46.99651" lon="-0.99449">
        <ele>127.065</ele>
        <time>2020-05-27T17:37:05Z</time>
      </trkpt>
      <trkpt lat="46.99651" lon="-0.99446">
        <ele>126.884</ele>
        <time>2020-05-27T17:37:06Z</time>
      </trkpt>
      <trkpt lat="46.99651" lon="-0.99444">
        <ele>128.447</ele>
        <time>2020-05-27T17:37:07Z</time>
      </trkpt>
      <trkpt lat="46.9965" lon="-0.99441">
        <ele>129.048</ele>
        <time>2020-05-27T17:37:08Z</time>
      </trkpt>
      <trkpt lat="46.9965" lon="-0.99438">
        <ele>128.734</ele>
        <time>2020-05-27T17:37:09Z</time>
      </trkpt>
      <trkpt lat="46.9965" lon="-0.99435">
        <ele>126.497</ele>
        <time>2020-05-27T17:37:10Z</time>
      </trkpt>
      <trkpt lat="46.99649" lon="-0.99432">
        <ele>126.27</ele>
        <time>2020-05-27T17:37:11Z</time>
      </trkpt>
      <trkpt lat="46.99649" lon="-0.99429">
        <ele>125.802</ele>
        <time>2020-05-27T17:37:12Z</time>
      </trkpt>
      <trkpt lat="46.99649" lon="-0.99426">
        <ele>125.389</ele>
        <time>2020-05-27T17:37:13Z</time>
      </trkpt>
      <trkpt lat="46.99649" lon="-0.99423">
        <ele>126.284</ele>
        <time>2020-05-27T17:37:14Z</time>
      </trkpt>
      <trkpt lat="46.99648" lon="-0.99419">
        <ele>126.615</ele>
        <time>2020-05-27T17:37:15Z</time>
      </trkpt>
      <trkpt lat="46.99648" lon="-0.99416">
        <ele>126.565</ele>
        <time>2020-05-27T17:37:16Z</time>
      </trkpt>
      <trkpt lat="46.99648" lon="-0.99412">
        <ele>126.73</ele>
        <time>2020-05-27T17:37:17Z</time>
      </trkpt>
      <trkpt lat="46.99648" lon="-0.99409">
        <ele>129.602</ele>
        <time>2020-05-27T17:37:18Z</time>
      </trkpt>
      <trkpt lat="46.99648" lon="-0.99405">
        <ele>130.016</ele>
        <time>2020-05-27T17:37:19Z</time>
      </trkpt>
      <trkpt lat="46.99647" lon="-0.99401">
        <ele>130.292</ele>
        <time>2020-05-27T17:37:20Z</time>
      </trkpt>
      <trkpt lat="46.99647" lon="-0.99397">
        <ele>131.319</ele>
        <time>2020-05-27T17:37:21Z</time>
      </trkpt>
      <trkpt lat="46.99647" lon="-0.99394">
        <ele>133.458</ele>
        <time>2020-05-27T17:37:22Z</time>
      </trkpt>
      <trkpt lat="46.99646" lon="-0.99391">
        <ele>132.016</ele>
        <time>2020-05-27T17:37:23Z</time>
      </trkpt>
      <trkpt lat="46.99645" lon="-0.99388">
        <ele>131.318</ele>
        <time>2020-05-27T17:37:24Z</time>
      </trkpt>
      <trkpt lat="46.99644" lon="-0.99385">
        <ele>131.677</ele>
        <time>2020-05-27T17:37:25Z</time>
      </trkpt>
      <trkpt lat="46.99644" lon="-0.99383">
        <ele>128.651</ele>
        <time>2020-05-27T17:37:26Z</time>
      </trkpt>
      <trkpt lat="46.99643" lon="-0.99381">
        <ele>129.182</ele>
        <time>2020-05-27T17:37:27Z</time>
      </trkpt>
      <trkpt lat="46.99643" lon="-0.99378">
        <ele>130.935</ele>
        <time>2020-05-27T17:37:28Z</time>
      </trkpt>
      <trkpt lat="46.99643" lon="-0.99376">
        <ele>132.367</ele>
        <time>2020-05-27T17:37:29Z</time>
      </trkpt>
      <trkpt lat="46.99643" lon="-0.99373">
        <ele>132.593</ele>
        <time>2020-05-27T17:37:30Z</time>
      </trkpt>
      <trkpt lat="46.99644" lon="-0.99371">
        <ele>133.417</ele>
        <time>2020-05-27T17:37:31Z</time>
      </trkpt>
      <trkpt lat="46.99644" lon="-0.99369">
        <ele>132.37</ele>
        <time>2020-05-27T17:37:32Z</time>
      </trkpt>
      <trkpt lat="46.99645" lon="-0.99367">
        <ele>131.257</ele>
        <time>2020-05-27T17:37:33Z</time>
      </trkpt>
      <trkpt lat="46.99645" lon="-0.99365">
        <ele>131.584</ele>
        <time>2020-05-27T17:37:34Z</time>
      </trkpt>
      <trkpt lat="46.99646" lon="-0.99362">
        <ele>131.278</ele>
        <time>2020-05-27T17:37:35Z</time>
      </trkpt>
      <trkpt lat="46.99647" lon="-0.99359">
        <ele>132.582</ele>
        <time>2020-05-27T17:37:36Z</time>
      </trkpt>
      <trkpt lat="46.99648" lon="-0.99357">
        <ele>131.7</ele>
        <time>2020-05-27T17:37:37Z</time>
      </trkpt>
      <trkpt lat="46.99649" lon="-0.99354">
        <ele>131.576</ele>
        <time>2020-05-27T17:37:38Z</time>
      </trkpt>
      <trkpt lat="46.9965" lon="-0.99351">
        <ele>131.457</ele>
        <time>2020-05-27T17:37:39Z</time>
      </trkpt>
      <trkpt lat="46.99651" lon="-0.99349">
        <ele>131.553</ele>
        <time>2020-05-27T17:37:40Z</time>
      </trkpt>
      <trkpt lat="46.99652" lon="-0.99346">
        <ele>130.637</ele>
        <time>2020-05-27T17:37:41Z</time>
      </trkpt>
      <trkpt lat="46.99652" lon="-0.99343">
        <ele>133.093</ele>
        <time>2020-05-27T17:37:42Z</time>
      </trkpt>
      <trkpt lat="46.99653" lon="-0.9934">
        <ele>134.676</ele>
        <time>2020-05-27T17:37:43Z</time>
      </trkpt>
      <trkpt lat="46.99654" lon="-0.99337">
        <ele>134.605</ele>
        <time>2020-05-27T17:37:44Z</time>
      </trkpt>
      <trkpt lat="46.99655" lon="-0.99335">
        <ele>137.789</ele>
        <time>2020-05-27T17:37:45Z</time>
      </trkpt>
      <trkpt lat="46.99655" lon="-0.99332">
        <ele>136.795</ele>
        <time>2020-05-27T17:37:46Z</time>
      </trkpt>
      <trkpt lat="46.99657" lon="-0.9933">
        <ele>137.443</ele>
        <time>2020-05-27T17:37:47Z</time>
      </trkpt>
      <trkpt lat="46.99658" lon="-0.99327">
        <ele>136.658</ele>
        <time>2020-05-27T17:37:48Z</time>
      </trkpt>
      <trkpt lat="46.99659" lon="-0.99326">
        <ele>137.072</ele>
        <time>2020-05-27T17:37:49Z</time>
      </trkpt>
      <trkpt lat="46.99661" lon="-0.99324">
        <ele>136.8</ele>
        <time>2020-05-27T17:37:50Z</time>
      </trkpt>
      <trkpt lat="46.99662" lon="-0.99322">
        <ele>119.158</ele>
        <time>2020-05-27T17:37:51Z</time>
      </trkpt>
      <trkpt lat="46.99664" lon="-0.9932">
        <ele>126.329</ele>
        <time>2020-05-27T17:37:52Z</time>
      </trkpt>
      <trkpt lat="46.99666" lon="-0.99318">
        <ele>131.256</ele>
        <time>2020-05-27T17:37:53Z</time>
      </trkpt>
      <trkpt lat="46.99667" lon="-0.99317">
        <ele>134.098</ele>
        <time>2020-05-27T17:37:54Z</time>
      </trkpt>
      <trkpt lat="46.99669" lon="-0.99315">
        <ele>136.871</ele>
        <time>2020-05-27T17:37:55Z</time>
      </trkpt>
      <trkpt lat="46.99671" lon="-0.99313">
        <ele>137.799</ele>
        <time>2020-05-27T17:37:56Z</time>
      </trkpt>
      <trkpt lat="46.99673" lon="-0.99311">
        <ele>138.702</ele>
        <time>2020-05-27T17:37:57Z</time>
      </trkpt>
      <trkpt lat="46.99674" lon="-0.99309">
        <ele>139.81</ele>
        <time>2020-05-27T17:37:58Z</time>
      </trkpt>
      <trkpt lat="46.99676" lon="-0.99307">
        <ele>140.756</ele>
        <time>2020-05-27T17:37:59Z</time>
      </trkpt>
      <trkpt lat="46.99677" lon="-0.99305">
        <ele>141.815</ele>
        <time>2020-05-27T17:38:00Z</time>
      </trkpt>
      <trkpt lat="46.99679" lon="-0.99303">
        <ele>143.239</ele>
        <time>2020-05-27T17:38:01Z</time>
      </trkpt>
      <trkpt lat="46.99681" lon="-0.99302">
        <ele>143.743</ele>
        <time>2020-05-27T17:38:02Z</time>
      </trkpt>
      <trkpt lat="46.99683" lon="-0.993">
        <ele>143.845</ele>
        <time>2020-05-27T17:38:03Z</time>
      </trkpt>
      <trkpt lat="46.99685" lon="-0.99299">
        <ele>144.465</ele>
        <time>2020-05-27T17:38:04Z</time>
      </trkpt>
      <trkpt lat="46.99687" lon="-0.99298">
        <ele>145.565</ele>
        <time>2020-05-27T17:38:05Z</time>
      </trkpt>
      <trkpt lat="46.99689" lon="-0.99296">
        <ele>146.439</ele>
        <time>2020-05-27T17:38:06Z</time>
      </trkpt>
      <trkpt lat="46.9969" lon="-0.99293">
        <ele>146.433</ele>
        <time>2020-05-27T17:38:07Z</time>
      </trkpt>
      <trkpt lat="46.99691" lon="-0.9929">
        <ele>146.317</ele>
        <time>2020-05-27T17:38:08Z</time>
      </trkpt>
      <trkpt lat="46.99691" lon="-0.99286">
        <ele>146.713</ele>
        <time>2020-05-27T17:38:09Z</time>
      </trkpt>
      <trkpt lat="46.99691" lon="-0.99283">
        <ele>147.912</ele>
        <time>2020-05-27T17:38:10Z</time>
      </trkpt>
      <trkpt lat="46.99692" lon="-0.9928">
        <ele>147.335</ele>
        <time>2020-05-27T17:38:11Z</time>
      </trkpt>
      <trkpt lat="46.99692" lon="-0.99276">
        <ele>147.035</ele>
        <time>2020-05-27T17:38:12Z</time>
      </trkpt>
      <trkpt lat="46.99692" lon="-0.99273">
        <ele>148.182</ele>
        <time>2020-05-27T17:38:13Z</time>
      </trkpt>
      <trkpt lat="46.99692" lon="-0.9927">
        <ele>147.69</ele>
        <time>2020-05-27T17:38:14Z</time>
      </trkpt>
      <trkpt lat="46.99691" lon="-0.99266">
        <ele>147.134</ele>
        <time>2020-05-27T17:38:15Z</time>
      </trkpt>
      <trkpt lat="46.9969" lon="-0.99263">
        <ele>135.713</ele>
        <time>2020-05-27T17:38:16Z</time>
      </trkpt>
      <trkpt lat="46.99688" lon="-0.99261">
        <ele>139.148</ele>
        <time>2020-05-27T17:38:18Z</time>
      </trkpt>
      <trkpt lat="46.99686" lon="-0.99259">
        <ele>142.841</ele>
        <time>2020-05-27T17:38:19Z</time>
      </trkpt>
      <trkpt lat="46.99683" lon="-0.99257">
        <ele>144.21</ele>
        <time>2020-05-27T17:38:20Z</time>
      </trkpt>
      <trkpt lat="46.9968" lon="-0.99255">
        <ele>144.233</ele>
        <time>2020-05-27T17:38:21Z</time>
      </trkpt>
      <trkpt lat="46.99677" lon="-0.99253">
        <ele>145.414</ele>
        <time>2020-05-27T17:38:22Z</time>
      </trkpt>
      <trkpt lat="46.99674" lon="-0.9925">
        <ele>146.386</ele>
        <time>2020-05-27T17:38:23Z</time>
      </trkpt>
      <trkpt lat="46.99671" lon="-0.99249">
        <ele>146.682</ele>
        <time>2020-05-27T17:38:24Z</time>
      </trkpt>
      <trkpt lat="46.99667" lon="-0.99247">
        <ele>146.841</ele>
        <time>2020-05-27T17:38:25Z</time>
      </trkpt>
      <trkpt lat="46.99664" lon="-0.99246">
        <ele>147.976</ele>
        <time>2020-05-27T17:38:26Z</time>
      </trkpt>
      <trkpt lat="46.9966" lon="-0.99245">
        <ele>148.688</ele>
        <time>2020-05-27T17:38:27Z</time>
      </trkpt>
      <trkpt lat="46.99656" lon="-0.99244">
        <ele>148.579</ele>
        <time>2020-05-27T17:38:28Z</time>
      </trkpt>
      <trkpt lat="46.99651" lon="-0.99243">
        <ele>148.757</ele>
        <time>2020-05-27T17:38:29Z</time>
      </trkpt>
      <trkpt lat="46.99647" lon="-0.99242">
        <ele>148.576</ele>
        <time>2020-05-27T17:38:30Z</time>
      </trkpt>
      <trkpt lat="46.99643" lon="-0.99241">
        <ele>147.96</ele>
        <time>2020-05-27T17:38:31Z</time>
      </trkpt>
      <trkpt lat="46.99638" lon="-0.9924">
        <ele>148.088</ele>
        <time>2020-05-27T17:38:32Z</time>
      </trkpt>
      <trkpt lat="46.99634" lon="-0.99238">
        <ele>149.093</ele>
        <time>2020-05-27T17:38:33Z</time>
      </trkpt>
      <trkpt lat="46.9963" lon="-0.99237">
        <ele>148.689</ele>
        <time>2020-05-27T17:38:34Z</time>
      </trkpt>
      <trkpt lat="46.99625" lon="-0.99236">
        <ele>148.315</ele>
        <time>2020-05-27T17:38:35Z</time>
      </trkpt>
      <trkpt lat="46.99621" lon="-0.99235">
        <ele>148.57</ele>
        <time>2020-05-27T17:38:36Z</time>
      </trkpt>
      <trkpt lat="46.99616" lon="-0.99233">
        <ele>148.384</ele>
        <time>2020-05-27T17:38:37Z</time>
      </trkpt>
      <trkpt lat="46.99613" lon="-0.99233">
        <ele>147.329</ele>
        <time>2020-05-27T17:38:38Z</time>
      </trkpt>
      <trkpt lat="46.99608" lon="-0.99232">
        <ele>147.354</ele>
        <time>2020-05-27T17:38:39Z</time>
      </trkpt>
      <trkpt lat="46.99604" lon="-0.99231">
        <ele>147.838</ele>
        <time>2020-05-27T17:38:40Z</time>
      </trkpt>
      <trkpt lat="46.996" lon="-0.9923">
        <ele>147.569</ele>
        <time>2020-05-27T17:38:41Z</time>
      </trkpt>
      <trkpt lat="46.99595" lon="-0.99229">
        <ele>147.353</ele>
        <time>2020-05-27T17:38:42Z</time>
      </trkpt>
      <trkpt lat="46.9959" lon="-0.9923">
        <ele>147.539</ele>
        <time>2020-05-27T17:38:43Z</time>
      </trkpt>
      <trkpt lat="46.99586" lon="-0.9923">
        <ele>147.643</ele>
        <time>2020-05-27T17:38:44Z</time>
      </trkpt>
      <trkpt lat="46.99582" lon="-0.99231">
        <ele>147.762</ele>
        <time>2020-05-27T17:38:45Z</time>
      </trkpt>
      <trkpt lat="46.99577" lon="-0.99233">
        <ele>148.058</ele>
        <time>2020-05-27T17:38:46Z</time>
      </trkpt>
      <trkpt lat="46.99573" lon="-0.99235">
        <ele>147.468</ele>
        <time>2020-05-27T17:38:47Z</time>
      </trkpt>
      <trkpt lat="46.99569" lon="-0.99236">
        <ele>147.277</ele>
        <time>2020-05-27T17:38:48Z</time>
      </trkpt>
      <trkpt lat="46.99564" lon="-0.99238">
        <ele>146.914</ele>
        <time>2020-05-27T17:38:49Z</time>
      </trkpt>
      <trkpt lat="46.9956" lon="-0.9924">
        <ele>147.075</ele>
        <time>2020-05-27T17:38:50Z</time>
      </trkpt>
      <trkpt lat="46.99555" lon="-0.99242">
        <ele>147.857</ele>
        <time>2020-05-27T17:38:51Z</time>
      </trkpt>
      <trkpt lat="46.99551" lon="-0.99243">
        <ele>147.534</ele>
        <time>2020-05-27T17:38:52Z</time>
      </trkpt>
      <trkpt lat="46.99547" lon="-0.99245">
        <ele>148.069</ele>
        <time>2020-05-27T17:38:53Z</time>
      </trkpt>
      <trkpt lat="46.99542" lon="-0.99245">
        <ele>147.717</ele>
        <time>2020-05-27T17:38:54Z</time>
      </trkpt>
      <trkpt lat="46.99538" lon="-0.99246">
        <ele>148.067</ele>
        <time>2020-05-27T17:38:55Z</time>
      </trkpt>
      <trkpt lat="46.99534" lon="-0.99246">
        <ele>148.289</ele>
        <time>2020-05-27T17:38:56Z</time>
      </trkpt>
      <trkpt lat="46.9953" lon="-0.99246">
        <ele>147.994</ele>
        <time>2020-05-27T17:38:57Z</time>
      </trkpt>
      <trkpt lat="46.99526" lon="-0.99244">
        <ele>148.263</ele>
        <time>2020-05-27T17:38:58Z</time>
      </trkpt>
      <trkpt lat="46.99522" lon="-0.99242">
        <ele>148.178</ele>
        <time>2020-05-27T17:38:59Z</time>
      </trkpt>
      <trkpt lat="46.99518" lon="-0.99241">
        <ele>148.784</ele>
        <time>2020-05-27T17:39:00Z</time>
      </trkpt>
      <trkpt lat="46.99515" lon="-0.99237">
        <ele>148.27</ele>
        <time>2020-05-27T17:39:01Z</time>
      </trkpt>
      <trkpt lat="46.99511" lon="-0.99234">
        <ele>148.02</ele>
        <time>2020-05-27T17:39:02Z</time>
      </trkpt>
      <trkpt lat="46.99508" lon="-0.9923">
        <ele>148.463</ele>
        <time>2020-05-27T17:39:03Z</time>
      </trkpt>
      <trkpt lat="46.99505" lon="-0.99226">
        <ele>148.726</ele>
        <time>2020-05-27T17:39:04Z</time>
      </trkpt>
      <trkpt lat="46.99502" lon="-0.99221">
        <ele>148.676</ele>
        <time>2020-05-27T17:39:05Z</time>
      </trkpt>
      <trkpt lat="46.995" lon="-0.99217">
        <ele>149.558</ele>
        <time>2020-05-27T17:39:06Z</time>
      </trkpt>
      <trkpt lat="46.99497" lon="-0.99211">
        <ele>150.01</ele>
        <time>2020-05-27T17:39:07Z</time>
      </trkpt>
      <trkpt lat="46.99494" lon="-0.99206">
        <ele>149.415</ele>
        <time>2020-05-27T17:39:08Z</time>
      </trkpt>
      <trkpt lat="46.99491" lon="-0.99201">
        <ele>149.115</ele>
        <time>2020-05-27T17:39:09Z</time>
      </trkpt>
      <trkpt lat="46.9949" lon="-0.992">
        <ele>145.316</ele>
        <time>2020-05-27T17:39:10Z</time>
      </trkpt>
      <trkpt lat="46.99487" lon="-0.99195">
        <ele>145.416</ele>
        <time>2020-05-27T17:39:11Z</time>
      </trkpt>
      <trkpt lat="46.99484" lon="-0.9919">
        <ele>145.196</ele>
        <time>2020-05-27T17:39:12Z</time>
      </trkpt>
      <trkpt lat="46.99481" lon="-0.99185">
        <ele>145.099</ele>
        <time>2020-05-27T17:39:13Z</time>
      </trkpt>
      <trkpt lat="46.99478" lon="-0.9918">
        <ele>144.634</ele>
        <time>2020-05-27T17:39:14Z</time>
      </trkpt>
      <trkpt lat="46.99475" lon="-0.99174">
        <ele>144.165</ele>
        <time>2020-05-27T17:39:15Z</time>
      </trkpt>
      <trkpt lat="46.99472" lon="-0.99167">
        <ele>144.645</ele>
        <time>2020-05-27T17:39:16Z</time>
      </trkpt>
      <trkpt lat="46.99469" lon="-0.99162">
        <ele>145.37</ele>
        <time>2020-05-27T17:39:17Z</time>
      </trkpt>
      <trkpt lat="46.99464" lon="-0.99158">
        <ele>144.186</ele>
        <time>2020-05-27T17:39:18Z</time>
      </trkpt>
      <trkpt lat="46.99461" lon="-0.99152">
        <ele>144.556</ele>
        <time>2020-05-27T17:39:19Z</time>
      </trkpt>
      <trkpt lat="46.99458" lon="-0.99146">
        <ele>145.147</ele>
        <time>2020-05-27T17:39:20Z</time>
      </trkpt>
      <trkpt lat="46.99455" lon="-0.99139">
        <ele>148.117</ele>
        <time>2020-05-27T17:39:21Z</time>
      </trkpt>
      <trkpt lat="46.99452" lon="-0.99136">
        <ele>147.43</ele>
        <time>2020-05-27T17:39:22Z</time>
      </trkpt>
      <trkpt lat="46.99449" lon="-0.9913">
        <ele>148.585</ele>
        <time>2020-05-27T17:39:23Z</time>
      </trkpt>
      <trkpt lat="46.99446" lon="-0.99125">
        <ele>149.144</ele>
        <time>2020-05-27T17:39:24Z</time>
      </trkpt>
      <trkpt lat="46.99442" lon="-0.99119">
        <ele>148.056</ele>
        <time>2020-05-27T17:39:25Z</time>
      </trkpt>
      <trkpt lat="46.99439" lon="-0.99112">
        <ele>148.637</ele>
        <time>2020-05-27T17:39:26Z</time>
      </trkpt>
      <trkpt lat="46.99436" lon="-0.99106">
        <ele>149.406</ele>
        <time>2020-05-27T17:39:27Z</time>
      </trkpt>
      <trkpt lat="46.99432" lon="-0.991">
        <ele>150.401</ele>
        <time>2020-05-27T17:39:28Z</time>
      </trkpt>
      <trkpt lat="46.99428" lon="-0.99094">
        <ele>150.882</ele>
        <time>2020-05-27T17:39:29Z</time>
      </trkpt>
      <trkpt lat="46.99425" lon="-0.99086">
        <ele>152.039</ele>
        <time>2020-05-27T17:39:30Z</time>
      </trkpt>
      <trkpt lat="46.99421" lon="-0.9908">
        <ele>151.622</ele>
        <time>2020-05-27T17:39:31Z</time>
      </trkpt>
      <trkpt lat="46.99418" lon="-0.99073">
        <ele>151.951</ele>
        <time>2020-05-27T17:39:32Z</time>
      </trkpt>
      <trkpt lat="46.99415" lon="-0.99068">
        <ele>151.724</ele>
        <time>2020-05-27T17:39:33Z</time>
      </trkpt>
      <trkpt lat="46.99412" lon="-0.99063">
        <ele>151.737</ele>
        <time>2020-05-27T17:39:34Z</time>
      </trkpt>
      <trkpt lat="46.99408" lon="-0.99058">
        <ele>151.783</ele>
        <time>2020-05-27T17:39:35Z</time>
      </trkpt>
      <trkpt lat="46.99405" lon="-0.99053">
        <ele>151.772</ele>
        <time>2020-05-27T17:39:36Z</time>
      </trkpt>
      <trkpt lat="46.99402" lon="-0.99047">
        <ele>152.062</ele>
        <time>2020-05-27T17:39:37Z</time>
      </trkpt>
      <trkpt lat="46.99399" lon="-0.99041">
        <ele>152.171</ele>
        <time>2020-05-27T17:39:38Z</time>
      </trkpt>
      <trkpt lat="46.99396" lon="-0.99037">
        <ele>152.616</ele>
        <time>2020-05-27T17:39:39Z</time>
      </trkpt>
      <trkpt lat="46.99392" lon="-0.99031">
        <ele>152.648</ele>
        <time>2020-05-27T17:39:40Z</time>
      </trkpt>
      <trkpt lat="46.99388" lon="-0.99025">
        <ele>153.066</ele>
        <time>2020-05-27T17:39:41Z</time>
      </trkpt>
      <trkpt lat="46.99386" lon="-0.99019">
        <ele>153.583</ele>
        <time>2020-05-27T17:39:42Z</time>
      </trkpt>
      <trkpt lat="46.99382" lon="-0.99014">
        <ele>153.243</ele>
        <time>2020-05-27T17:39:43Z</time>
      </trkpt>
      <trkpt lat="46.99379" lon="-0.99008">
        <ele>153.538</ele>
        <time>2020-05-27T17:39:44Z</time>
      </trkpt>
      <trkpt lat="46.99377" lon="-0.99003">
        <ele>154.565</ele>
        <time>2020-05-27T17:39:45Z</time>
      </trkpt>
      <trkpt lat="46.99374" lon="-0.98997">
        <ele>155.639</ele>
        <time>2020-05-27T17:39:46Z</time>
      </trkpt>
      <trkpt lat="46.99371" lon="-0.98992">
        <ele>155.182</ele>
        <time>2020-05-27T17:39:47Z</time>
      </trkpt>
      <trkpt lat="46.99367" lon="-0.98987">
        <ele>155.262</ele>
        <time>2020-05-27T17:39:48Z</time>
      </trkpt>
      <trkpt lat="46.99365" lon="-0.98981">
        <ele>154.981</ele>
        <time>2020-05-27T17:39:49Z</time>
      </trkpt>
      <trkpt lat="46.99362" lon="-0.98977">
        <ele>156.68</ele>
        <time>2020-05-27T17:39:50Z</time>
      </trkpt>
      <trkpt lat="46.99359" lon="-0.98971">
        <ele>157.158</ele>
        <time>2020-05-27T17:39:51Z</time>
      </trkpt>
      <trkpt lat="46.99355" lon="-0.98966">
        <ele>157.084</ele>
        <time>2020-05-27T17:39:52Z</time>
      </trkpt>
      <trkpt lat="46.99352" lon="-0.98961">
        <ele>156.912</ele>
        <time>2020-05-27T17:39:53Z</time>
      </trkpt>
      <trkpt lat="46.99349" lon="-0.98955">
        <ele>157.252</ele>
        <time>2020-05-27T17:39:54Z</time>
      </trkpt>
      <trkpt lat="46.99345" lon="-0.9895">
        <ele>157.426</ele>
        <time>2020-05-27T17:39:55Z</time>
      </trkpt>
      <trkpt lat="46.99342" lon="-0.98945">
        <ele>158.159</ele>
        <time>2020-05-27T17:39:56Z</time>
      </trkpt>
      <trkpt lat="46.99339" lon="-0.9894">
        <ele>158.109</ele>
        <time>2020-05-27T17:39:57Z</time>
      </trkpt>
      <trkpt lat="46.99336" lon="-0.98934">
        <ele>158.651</ele>
        <time>2020-05-27T17:39:58Z</time>
      </trkpt>
      <trkpt lat="46.99333" lon="-0.98928">
        <ele>158.63</ele>
        <time>2020-05-27T17:39:59Z</time>
      </trkpt>
      <trkpt lat="46.9933" lon="-0.98922">
        <ele>159.095</ele>
        <time>2020-05-27T17:40:00Z</time>
      </trkpt>
      <trkpt lat="46.99327" lon="-0.98916">
        <ele>158.62</ele>
        <time>2020-05-27T17:40:01Z</time>
      </trkpt>
      <trkpt lat="46.99324" lon="-0.9891">
        <ele>159.293</ele>
        <time>2020-05-27T17:40:02Z</time>
      </trkpt>
      <trkpt lat="46.99321" lon="-0.98904">
        <ele>159.644</ele>
        <time>2020-05-27T17:40:03Z</time>
      </trkpt>
      <trkpt lat="46.99319" lon="-0.98899">
        <ele>159.365</ele>
        <time>2020-05-27T17:40:04Z</time>
      </trkpt>
      <trkpt lat="46.99315" lon="-0.98894">
        <ele>159.043</ele>
        <time>2020-05-27T17:40:05Z</time>
      </trkpt>
      <trkpt lat="46.99312" lon="-0.98889">
        <ele>159.401</ele>
        <time>2020-05-27T17:40:06Z</time>
      </trkpt>
      <trkpt lat="46.99309" lon="-0.98885">
        <ele>160.084</ele>
        <time>2020-05-27T17:40:07Z</time>
      </trkpt>
      <trkpt lat="46.99306" lon="-0.9888">
        <ele>160.397</ele>
        <time>2020-05-27T17:40:08Z</time>
      </trkpt>
      <trkpt lat="46.99303" lon="-0.98874">
        <ele>161.11</ele>
        <time>2020-05-27T17:40:09Z</time>
      </trkpt>
      <trkpt lat="46.993" lon="-0.98868">
        <ele>160.338</ele>
        <time>2020-05-27T17:40:10Z</time>
      </trkpt>
      <trkpt lat="46.99297" lon="-0.98863">
        <ele>160.056</ele>
        <time>2020-05-27T17:40:11Z</time>
      </trkpt>
      <trkpt lat="46.99295" lon="-0.98857">
        <ele>159.937</ele>
        <time>2020-05-27T17:40:12Z</time>
      </trkpt>
      <trkpt lat="46.99291" lon="-0.98851">
        <ele>160.244</ele>
        <time>2020-05-27T17:40:13Z</time>
      </trkpt>
      <trkpt lat="46.99288" lon="-0.98846">
        <ele>159.298</ele>
        <time>2020-05-27T17:40:14Z</time>
      </trkpt>
      <trkpt lat="46.99285" lon="-0.9884">
        <ele>159.992</ele>
        <time>2020-05-27T17:40:15Z</time>
      </trkpt>
      <trkpt lat="46.99282" lon="-0.98836">
        <ele>160.166</ele>
        <time>2020-05-27T17:40:16Z</time>
      </trkpt>
      <trkpt lat="46.99279" lon="-0.98832">
        <ele>159.672</ele>
        <time>2020-05-27T17:40:17Z</time>
      </trkpt>
      <trkpt lat="46.99277" lon="-0.98828">
        <ele>159.916</ele>
        <time>2020-05-27T17:40:18Z</time>
      </trkpt>
      <trkpt lat="46.99275" lon="-0.98823">
        <ele>160.651</ele>
        <time>2020-05-27T17:40:19Z</time>
      </trkpt>
      <trkpt lat="46.99272" lon="-0.98818">
        <ele>161.724</ele>
        <time>2020-05-27T17:40:20Z</time>
      </trkpt>
      <trkpt lat="46.9927" lon="-0.98814">
        <ele>161.976</ele>
        <time>2020-05-27T17:40:21Z</time>
      </trkpt>
      <trkpt lat="46.99267" lon="-0.9881">
        <ele>162.155</ele>
        <time>2020-05-27T17:40:22Z</time>
      </trkpt>
      <trkpt lat="46.99265" lon="-0.98808">
        <ele>160.842</ele>
        <time>2020-05-27T17:40:23Z</time>
      </trkpt>
      <trkpt lat="46.99263" lon="-0.98804">
        <ele>161.011</ele>
        <time>2020-05-27T17:40:24Z</time>
      </trkpt>
      <trkpt lat="46.99259" lon="-0.98798">
        <ele>161.248</ele>
        <time>2020-05-27T17:40:25Z</time>
      </trkpt>
      <trkpt lat="46.99256" lon="-0.98793">
        <ele>161.488</ele>
        <time>2020-05-27T17:40:26Z</time>
      </trkpt>
      <trkpt lat="46.99254" lon="-0.98788">
        <ele>161.18</ele>
        <time>2020-05-27T17:40:27Z</time>
      </trkpt>
      <trkpt lat="46.99251" lon="-0.98782">
        <ele>161.682</ele>
        <time>2020-05-27T17:40:28Z</time>
      </trkpt>
      <trkpt lat="46.99248" lon="-0.98776">
        <ele>162.084</ele>
        <time>2020-05-27T17:40:29Z</time>
      </trkpt>
      <trkpt lat="46.99245" lon="-0.9877">
        <ele>161.689</ele>
        <time>2020-05-27T17:40:30Z</time>
      </trkpt>
      <trkpt lat="46.99241" lon="-0.98762">
        <ele>161.9</ele>
        <time>2020-05-27T17:40:31Z</time>
      </trkpt>
      <trkpt lat="46.99237" lon="-0.98756">
        <ele>161.562</ele>
        <time>2020-05-27T17:40:32Z</time>
      </trkpt>
      <trkpt lat="46.99233" lon="-0.98749">
        <ele>161.035</ele>
        <time>2020-05-27T17:40:33Z</time>
      </trkpt>
      <trkpt lat="46.99229" lon="-0.98741">
        <ele>160.772</ele>
        <time>2020-05-27T17:40:34Z</time>
      </trkpt>
      <trkpt lat="46.99225" lon="-0.98734">
        <ele>161.409</ele>
        <time>2020-05-27T17:40:35Z</time>
      </trkpt>
      <trkpt lat="46.99221" lon="-0.98727">
        <ele>161.211</ele>
        <time>2020-05-27T17:40:36Z</time>
      </trkpt>
      <trkpt lat="46.99216" lon="-0.98719">
        <ele>160.63</ele>
        <time>2020-05-27T17:40:37Z</time>
      </trkpt>
      <trkpt lat="46.99212" lon="-0.9871">
        <ele>160.761</ele>
        <time>2020-05-27T17:40:38Z</time>
      </trkpt>
      <trkpt lat="46.99207" lon="-0.98702">
        <ele>160.444</ele>
        <time>2020-05-27T17:40:39Z</time>
      </trkpt>
      <trkpt lat="46.99202" lon="-0.98693">
        <ele>159.878</ele>
        <time>2020-05-27T17:40:40Z</time>
      </trkpt>
      <trkpt lat="46.99198" lon="-0.98689">
        <ele>155.712</ele>
        <time>2020-05-27T17:40:41Z</time>
      </trkpt>
      <trkpt lat="46.99193" lon="-0.9868">
        <ele>155.727</ele>
        <time>2020-05-27T17:40:42Z</time>
      </trkpt>
      <trkpt lat="46.99188" lon="-0.9867">
        <ele>156.065</ele>
        <time>2020-05-27T17:40:43Z</time>
      </trkpt>
      <trkpt lat="46.99184" lon="-0.98661">
        <ele>155.699</ele>
        <time>2020-05-27T17:40:44Z</time>
      </trkpt>
      <trkpt lat="46.99178" lon="-0.98652">
        <ele>155.927</ele>
        <time>2020-05-27T17:40:45Z</time>
      </trkpt>
      <trkpt lat="46.99174" lon="-0.98642">
        <ele>156.417</ele>
        <time>2020-05-27T17:40:46Z</time>
      </trkpt>
      <trkpt lat="46.99168" lon="-0.98633">
        <ele>155.836</ele>
        <time>2020-05-27T17:40:47Z</time>
      </trkpt>
      <trkpt lat="46.99164" lon="-0.98623">
        <ele>154.851</ele>
        <time>2020-05-27T17:40:48Z</time>
      </trkpt>
      <trkpt lat="46.99159" lon="-0.98614">
        <ele>154.652</ele>
        <time>2020-05-27T17:40:49Z</time>
      </trkpt>
      <trkpt lat="46.99155" lon="-0.98604">
        <ele>153.969</ele>
        <time>2020-05-27T17:40:50Z</time>
      </trkpt>
      <trkpt lat="46.9915" lon="-0.98595">
        <ele>153.764</ele>
        <time>2020-05-27T17:40:51Z</time>
      </trkpt>
      <trkpt lat="46.99145" lon="-0.98584">
        <ele>154.302</ele>
        <time>2020-05-27T17:40:52Z</time>
      </trkpt>
      <trkpt lat="46.9914" lon="-0.98575">
        <ele>154.497</ele>
        <time>2020-05-27T17:40:53Z</time>
      </trkpt>
      <trkpt lat="46.99136" lon="-0.98566">
        <ele>154.771</ele>
        <time>2020-05-27T17:40:54Z</time>
      </trkpt>
      <trkpt lat="46.99132" lon="-0.98556">
        <ele>155.232</ele>
        <time>2020-05-27T17:40:55Z</time>
      </trkpt>
      <trkpt lat="46.99129" lon="-0.98546">
        <ele>154.885</ele>
        <time>2020-05-27T17:40:56Z</time>
      </trkpt>
      <trkpt lat="46.99126" lon="-0.98537">
        <ele>154.04</ele>
        <time>2020-05-27T17:40:57Z</time>
      </trkpt>
      <trkpt lat="46.99123" lon="-0.98526">
        <ele>153.685</ele>
        <time>2020-05-27T17:40:58Z</time>
      </trkpt>
      <trkpt lat="46.9912" lon="-0.98517">
        <ele>153.729</ele>
        <time>2020-05-27T17:40:59Z</time>
      </trkpt>
      <trkpt lat="46.99117" lon="-0.98507">
        <ele>153.758</ele>
        <time>2020-05-27T17:41:00Z</time>
      </trkpt>
      <trkpt lat="46.99115" lon="-0.98497">
        <ele>153.771</ele>
        <time>2020-05-27T17:41:01Z</time>
      </trkpt>
      <trkpt lat="46.99113" lon="-0.98487">
        <ele>153.672</ele>
        <time>2020-05-27T17:41:02Z</time>
      </trkpt>
      <trkpt lat="46.99112" lon="-0.98478">
        <ele>152.705</ele>
        <time>2020-05-27T17:41:03Z</time>
      </trkpt>
      <trkpt lat="46.9911" lon="-0.98469">
        <ele>152.963</ele>
        <time>2020-05-27T17:41:04Z</time>
      </trkpt>
      <trkpt lat="46.99108" lon="-0.9846">
        <ele>152.766</ele>
        <time>2020-05-27T17:41:05Z</time>
      </trkpt>
      <trkpt lat="46.99104" lon="-0.98451">
        <ele>151.023</ele>
        <time>2020-05-27T17:41:06Z</time>
      </trkpt>
      <trkpt lat="46.99101" lon="-0.98442">
        <ele>150.728</ele>
        <time>2020-05-27T17:41:07Z</time>
      </trkpt>
      <trkpt lat="46.99099" lon="-0.98434">
        <ele>149.959</ele>
        <time>2020-05-27T17:41:08Z</time>
      </trkpt>
      <trkpt lat="46.99096" lon="-0.98425">
        <ele>150.342</ele>
        <time>2020-05-27T17:41:09Z</time>
      </trkpt>
      <trkpt lat="46.99094" lon="-0.98416">
        <ele>150.464</ele>
        <time>2020-05-27T17:41:10Z</time>
      </trkpt>
      <trkpt lat="46.99091" lon="-0.98407">
        <ele>151.609</ele>
        <time>2020-05-27T17:41:11Z</time>
      </trkpt>
      <trkpt lat="46.99089" lon="-0.98399">
        <ele>151.792</ele>
        <time>2020-05-27T17:41:12Z</time>
      </trkpt>
      <trkpt lat="46.99086" lon="-0.9839">
        <ele>152.508</ele>
        <time>2020-05-27T17:41:13Z</time>
      </trkpt>
      <trkpt lat="46.99084" lon="-0.98383">
        <ele>151.891</ele>
        <time>2020-05-27T17:41:14Z</time>
      </trkpt>
      <trkpt lat="46.99081" lon="-0.98375">
        <ele>152.484</ele>
        <time>2020-05-27T17:41:15Z</time>
      </trkpt>
      <trkpt lat="46.99078" lon="-0.98367">
        <ele>152.412</ele>
        <time>2020-05-27T17:41:16Z</time>
      </trkpt>
      <trkpt lat="46.99076" lon="-0.9836">
        <ele>152.372</ele>
        <time>2020-05-27T17:41:17Z</time>
      </trkpt>
      <trkpt lat="46.99074" lon="-0.98352">
        <ele>152.809</ele>
        <time>2020-05-27T17:41:18Z</time>
      </trkpt>
      <trkpt lat="46.99071" lon="-0.98345">
        <ele>153.203</ele>
        <time>2020-05-27T17:41:19Z</time>
      </trkpt>
      <trkpt lat="46.99068" lon="-0.98338">
        <ele>154.008</ele>
        <time>2020-05-27T17:41:20Z</time>
      </trkpt>
      <trkpt lat="46.99066" lon="-0.98331">
        <ele>154.296</ele>
        <time>2020-05-27T17:41:21Z</time>
      </trkpt>
      <trkpt lat="46.99063" lon="-0.98324">
        <ele>155.165</ele>
        <time>2020-05-27T17:41:22Z</time>
      </trkpt>
      <trkpt lat="46.99061" lon="-0.98317">
        <ele>155.226</ele>
        <time>2020-05-27T17:41:23Z</time>
      </trkpt>
      <trkpt lat="46.99059" lon="-0.98309">
        <ele>155.299</ele>
        <time>2020-05-27T17:41:24Z</time>
      </trkpt>
      <trkpt lat="46.99057" lon="-0.98303">
        <ele>156.166</ele>
        <time>2020-05-27T17:41:25Z</time>
      </trkpt>
      <trkpt lat="46.99055" lon="-0.98296">
        <ele>156.414</ele>
        <time>2020-05-27T17:41:26Z</time>
      </trkpt>
      <trkpt lat="46.99053" lon="-0.9829">
        <ele>156.828</ele>
        <time>2020-05-27T17:41:27Z</time>
      </trkpt>
      <trkpt lat="46.99051" lon="-0.98283">
        <ele>157.501</ele>
        <time>2020-05-27T17:41:28Z</time>
      </trkpt>
      <trkpt lat="46.99049" lon="-0.98277">
        <ele>157.706</ele>
        <time>2020-05-27T17:41:29Z</time>
      </trkpt>
      <trkpt lat="46.99047" lon="-0.98272">
        <ele>157.551</ele>
        <time>2020-05-27T17:41:30Z</time>
      </trkpt>
      <trkpt lat="46.99045" lon="-0.98265">
        <ele>158.081</ele>
        <time>2020-05-27T17:41:31Z</time>
      </trkpt>
      <trkpt lat="46.99043" lon="-0.98257">
        <ele>157.956</ele>
        <time>2020-05-27T17:41:32Z</time>
      </trkpt>
      <trkpt lat="46.99041" lon="-0.9825">
        <ele>158.673</ele>
        <time>2020-05-27T17:41:33Z</time>
      </trkpt>
      <trkpt lat="46.99039" lon="-0.98243">
        <ele>158.346</ele>
        <time>2020-05-27T17:41:34Z</time>
      </trkpt>
      <trkpt lat="46.99036" lon="-0.98236">
        <ele>157.891</ele>
        <time>2020-05-27T17:41:35Z</time>
      </trkpt>
      <trkpt lat="46.99034" lon="-0.98228">
        <ele>158.154</ele>
        <time>2020-05-27T17:41:36Z</time>
      </trkpt>
      <trkpt lat="46.99031" lon="-0.9822">
        <ele>158.628</ele>
        <time>2020-05-27T17:41:37Z</time>
      </trkpt>
      <trkpt lat="46.99029" lon="-0.98214">
        <ele>158.86</ele>
        <time>2020-05-27T17:41:38Z</time>
      </trkpt>
      <trkpt lat="46.99028" lon="-0.98207">
        <ele>158.729</ele>
        <time>2020-05-27T17:41:39Z</time>
      </trkpt>
      <trkpt lat="46.99025" lon="-0.98199">
        <ele>159.203</ele>
        <time>2020-05-27T17:41:40Z</time>
      </trkpt>
      <trkpt lat="46.99022" lon="-0.98191">
        <ele>159.14</ele>
        <time>2020-05-27T17:41:41Z</time>
      </trkpt>
      <trkpt lat="46.9902" lon="-0.98184">
        <ele>159.399</ele>
        <time>2020-05-27T17:41:42Z</time>
      </trkpt>
      <trkpt lat="46.99019" lon="-0.98178">
        <ele>158.959</ele>
        <time>2020-05-27T17:41:43Z</time>
      </trkpt>
      <trkpt lat="46.99017" lon="-0.98171">
        <ele>159.305</ele>
        <time>2020-05-27T17:41:44Z</time>
      </trkpt>
      <trkpt lat="46.99014" lon="-0.98165">
        <ele>159.653</ele>
        <time>2020-05-27T17:41:45Z</time>
      </trkpt>
      <trkpt lat="46.99012" lon="-0.98158">
        <ele>159.638</ele>
        <time>2020-05-27T17:41:46Z</time>
      </trkpt>
      <trkpt lat="46.9901" lon="-0.98151">
        <ele>159.913</ele>
        <time>2020-05-27T17:41:47Z</time>
      </trkpt>
      <trkpt lat="46.99007" lon="-0.98145">
        <ele>159.603</ele>
        <time>2020-05-27T17:41:48Z</time>
      </trkpt>
      <trkpt lat="46.99005" lon="-0.98139">
        <ele>159.33</ele>
        <time>2020-05-27T17:41:49Z</time>
      </trkpt>
      <trkpt lat="46.99003" lon="-0.98133">
        <ele>158.9</ele>
        <time>2020-05-27T17:41:50Z</time>
      </trkpt>
      <trkpt lat="46.99001" lon="-0.98127">
        <ele>159.914</ele>
        <time>2020-05-27T17:41:51Z</time>
      </trkpt>
      <trkpt lat="46.98998" lon="-0.98122">
        <ele>159.982</ele>
        <time>2020-05-27T17:41:52Z</time>
      </trkpt>
      <trkpt lat="46.98996" lon="-0.98116">
        <ele>159.89</ele>
        <time>2020-05-27T17:41:53Z</time>
      </trkpt>
      <trkpt lat="46.98994" lon="-0.9811">
        <ele>160.683</ele>
        <time>2020-05-27T17:41:54Z</time>
      </trkpt>
      <trkpt lat="46.98992" lon="-0.98103">
        <ele>160.767</ele>
        <time>2020-05-27T17:41:55Z</time>
      </trkpt>
      <trkpt lat="46.98989" lon="-0.98097">
        <ele>160.726</ele>
        <time>2020-05-27T17:41:56Z</time>
      </trkpt>
      <trkpt lat="46.98988" lon="-0.98091">
        <ele>160.633</ele>
        <time>2020-05-27T17:41:57Z</time>
      </trkpt>
      <trkpt lat="46.98985" lon="-0.98085">
        <ele>160.854</ele>
        <time>2020-05-27T17:41:58Z</time>
      </trkpt>
      <trkpt lat="46.98984" lon="-0.9808">
        <ele>161.174</ele>
        <time>2020-05-27T17:41:59Z</time>
      </trkpt>
      <trkpt lat="46.98982" lon="-0.98074">
        <ele>161.439</ele>
        <time>2020-05-27T17:42:00Z</time>
      </trkpt>
      <trkpt lat="46.9898" lon="-0.98068">
        <ele>160.907</ele>
        <time>2020-05-27T17:42:01Z</time>
      </trkpt>
      <trkpt lat="46.98979" lon="-0.98063">
        <ele>163.867</ele>
        <time>2020-05-27T17:42:02Z</time>
      </trkpt>
      <trkpt lat="46.98977" lon="-0.98058">
        <ele>162.538</ele>
        <time>2020-05-27T17:42:03Z</time>
      </trkpt>
      <trkpt lat="46.98975" lon="-0.98052">
        <ele>161.739</ele>
        <time>2020-05-27T17:42:04Z</time>
      </trkpt>
      <trkpt lat="46.98973" lon="-0.98046">
        <ele>161.529</ele>
        <time>2020-05-27T17:42:05Z</time>
      </trkpt>
      <trkpt lat="46.98972" lon="-0.9804">
        <ele>162.035</ele>
        <time>2020-05-27T17:42:06Z</time>
      </trkpt>
      <trkpt lat="46.9897" lon="-0.98033">
        <ele>161.752</ele>
        <time>2020-05-27T17:42:07Z</time>
      </trkpt>
      <trkpt lat="46.98969" lon="-0.98027">
        <ele>163.216</ele>
        <time>2020-05-27T17:42:08Z</time>
      </trkpt>
      <trkpt lat="46.98967" lon="-0.98021">
        <ele>161.949</ele>
        <time>2020-05-27T17:42:09Z</time>
      </trkpt>
      <trkpt lat="46.98966" lon="-0.98015">
        <ele>162.413</ele>
        <time>2020-05-27T17:42:10Z</time>
      </trkpt>
      <trkpt lat="46.98964" lon="-0.98008">
        <ele>163.634</ele>
        <time>2020-05-27T17:42:11Z</time>
      </trkpt>
      <trkpt lat="46.98962" lon="-0.98002">
        <ele>163.288</ele>
        <time>2020-05-27T17:42:12Z</time>
      </trkpt>
      <trkpt lat="46.9896" lon="-0.97995">
        <ele>162.985</ele>
        <time>2020-05-27T17:42:13Z</time>
      </trkpt>
      <trkpt lat="46.98958" lon="-0.97988">
        <ele>162.954</ele>
        <time>2020-05-27T17:42:14Z</time>
      </trkpt>
      <trkpt lat="46.98956" lon="-0.97982">
        <ele>163.449</ele>
        <time>2020-05-27T17:42:15Z</time>
      </trkpt>
      <trkpt lat="46.98954" lon="-0.97977">
        <ele>163.239</ele>
        <time>2020-05-27T17:42:16Z</time>
      </trkpt>
      <trkpt lat="46.98952" lon="-0.97971">
        <ele>163.198</ele>
        <time>2020-05-27T17:42:17Z</time>
      </trkpt>
      <trkpt lat="46.9895" lon="-0.97964">
        <ele>162.819</ele>
        <time>2020-05-27T17:42:18Z</time>
      </trkpt>
      <trkpt lat="46.98948" lon="-0.97957">
        <ele>162.916</ele>
        <time>2020-05-27T17:42:19Z</time>
      </trkpt>
      <trkpt lat="46.98946" lon="-0.97951">
        <ele>162.896</ele>
        <time>2020-05-27T17:42:20Z</time>
      </trkpt>
      <trkpt lat="46.98944" lon="-0.97945">
        <ele>163.371</ele>
        <time>2020-05-27T17:42:21Z</time>
      </trkpt>
      <trkpt lat="46.98942" lon="-0.97939">
        <ele>163.129</ele>
        <time>2020-05-27T17:42:22Z</time>
      </trkpt>
      <trkpt lat="46.9894" lon="-0.97932">
        <ele>163.399</ele>
        <time>2020-05-27T17:42:23Z</time>
      </trkpt>
      <trkpt lat="46.98938" lon="-0.97925">
        <ele>163.23</ele>
        <time>2020-05-27T17:42:24Z</time>
      </trkpt>
      <trkpt lat="46.98936" lon="-0.97918">
        <ele>163.764</ele>
        <time>2020-05-27T17:42:25Z</time>
      </trkpt>
      <trkpt lat="46.98934" lon="-0.97911">
        <ele>163.712</ele>
        <time>2020-05-27T17:42:26Z</time>
      </trkpt>
      <trkpt lat="46.98932" lon="-0.97905">
        <ele>164.088</ele>
        <time>2020-05-27T17:42:27Z</time>
      </trkpt>
      <trkpt lat="46.9893" lon="-0.97899">
        <ele>163.99</ele>
        <time>2020-05-27T17:42:28Z</time>
      </trkpt>
      <trkpt lat="46.98928" lon="-0.97893">
        <ele>163.787</ele>
        <time>2020-05-27T17:42:29Z</time>
      </trkpt>
      <trkpt lat="46.98927" lon="-0.97886">
        <ele>164.187</ele>
        <time>2020-05-27T17:42:30Z</time>
      </trkpt>
      <trkpt lat="46.98925" lon="-0.9788">
        <ele>163.902</ele>
        <time>2020-05-27T17:42:31Z</time>
      </trkpt>
      <trkpt lat="46.98923" lon="-0.97874">
        <ele>164.136</ele>
        <time>2020-05-27T17:42:32Z</time>
      </trkpt>
      <trkpt lat="46.98922" lon="-0.97867">
        <ele>164.372</ele>
        <time>2020-05-27T17:42:33Z</time>
      </trkpt>
      <trkpt lat="46.9892" lon="-0.97861">
        <ele>165.062</ele>
        <time>2020-05-27T17:42:34Z</time>
      </trkpt>
      <trkpt lat="46.98919" lon="-0.97855">
        <ele>164.847</ele>
        <time>2020-05-27T17:42:35Z</time>
      </trkpt>
      <trkpt lat="46.98919" lon="-0.97849">
        <ele>164.479</ele>
        <time>2020-05-27T17:42:36Z</time>
      </trkpt>
      <trkpt lat="46.98919" lon="-0.97843">
        <ele>165.309</ele>
        <time>2020-05-27T17:42:37Z</time>
      </trkpt>
      <trkpt lat="46.98918" lon="-0.97838">
        <ele>164.508</ele>
        <time>2020-05-27T17:42:38Z</time>
      </trkpt>
      <trkpt lat="46.98918" lon="-0.97832">
        <ele>164.55</ele>
        <time>2020-05-27T17:42:39Z</time>
      </trkpt>
      <trkpt lat="46.98918" lon="-0.97826">
        <ele>164.685</ele>
        <time>2020-05-27T17:42:40Z</time>
      </trkpt>
      <trkpt lat="46.98918" lon="-0.97819">
        <ele>165.065</ele>
        <time>2020-05-27T17:42:41Z</time>
      </trkpt>
      <trkpt lat="46.98918" lon="-0.97813">
        <ele>165.025</ele>
        <time>2020-05-27T17:42:42Z</time>
      </trkpt>
      <trkpt lat="46.98917" lon="-0.97807">
        <ele>164.843</ele>
        <time>2020-05-27T17:42:43Z</time>
      </trkpt>
      <trkpt lat="46.98917" lon="-0.97801">
        <ele>165.248</ele>
        <time>2020-05-27T17:42:44Z</time>
      </trkpt>
      <trkpt lat="46.98917" lon="-0.97795">
        <ele>165.778</ele>
        <time>2020-05-27T17:42:45Z</time>
      </trkpt>
      <trkpt lat="46.98917" lon="-0.97789">
        <ele>165.962</ele>
        <time>2020-05-27T17:42:46Z</time>
      </trkpt>
      <trkpt lat="46.98917" lon="-0.97783">
        <ele>166.124</ele>
        <time>2020-05-27T17:42:47Z</time>
      </trkpt>
      <trkpt lat="46.98916" lon="-0.97779">
        <ele>165.3</ele>
        <time>2020-05-27T17:42:48Z</time>
      </trkpt>
      <trkpt lat="46.98916" lon="-0.97775">
        <ele>166.117</ele>
        <time>2020-05-27T17:42:49Z</time>
      </trkpt>
      <trkpt lat="46.98916" lon="-0.97771">
        <ele>166.568</ele>
        <time>2020-05-27T17:42:50Z</time>
      </trkpt>
      <trkpt lat="46.98916" lon="-0.97769">
        <ele>166.597</ele>
        <time>2020-05-27T17:42:51Z</time>
      </trkpt>
      <trkpt lat="46.98916" lon="-0.97766">
        <ele>166.803</ele>
        <time>2020-05-27T17:42:52Z</time>
      </trkpt>
      <trkpt lat="46.98916" lon="-0.97764">
        <ele>167.179</ele>
        <time>2020-05-27T17:42:53Z</time>
      </trkpt>
      <trkpt lat="46.98916" lon="-0.97761">
        <ele>167.775</ele>
        <time>2020-05-27T17:42:54Z</time>
      </trkpt>
      <trkpt lat="46.98916" lon="-0.97758">
        <ele>168.262</ele>
        <time>2020-05-27T17:42:55Z</time>
      </trkpt>
      <trkpt lat="46.98916" lon="-0.97756">
        <ele>168.221</ele>
        <time>2020-05-27T17:42:56Z</time>
      </trkpt>
      <trkpt lat="46.98916" lon="-0.97754">
        <ele>168.023</ele>
        <time>2020-05-27T17:42:57Z</time>
      </trkpt>
      <trkpt lat="46.98916" lon="-0.97753">
        <ele>167.534</ele>
        <time>2020-05-27T17:42:58Z</time>
      </trkpt>
      <trkpt lat="46.98916" lon="-0.97751">
        <ele>167.397</ele>
        <time>2020-05-27T17:42:59Z</time>
      </trkpt>
      <trkpt lat="46.98916" lon="-0.97749">
        <ele>167.692</ele>
        <time>2020-05-27T17:43:00Z</time>
      </trkpt>
      <trkpt lat="46.98918" lon="-0.97748">
        <ele>167.924</ele>
        <time>2020-05-27T17:43:01Z</time>
      </trkpt>
      <trkpt lat="46.9892" lon="-0.97747">
        <ele>167.248</ele>
        <time>2020-05-27T17:43:02Z</time>
      </trkpt>
      <trkpt lat="46.98923" lon="-0.97747">
        <ele>167.459</ele>
        <time>2020-05-27T17:43:03Z</time>
      </trkpt>
      <trkpt lat="46.98927" lon="-0.97747">
        <ele>167.08</ele>
        <time>2020-05-27T17:43:04Z</time>
      </trkpt>
      <trkpt lat="46.9893" lon="-0.97748">
        <ele>167.066</ele>
        <time>2020-05-27T17:43:05Z</time>
      </trkpt>
      <trkpt lat="46.98933" lon="-0.97748">
        <ele>166.712</ele>
        <time>2020-05-27T17:43:06Z</time>
      </trkpt>
      <trkpt lat="46.98937" lon="-0.97748">
        <ele>166.495</ele>
        <time>2020-05-27T17:43:07Z</time>
      </trkpt>
      <trkpt lat="46.9894" lon="-0.97748">
        <ele>166.719</ele>
        <time>2020-05-27T17:43:08Z</time>
      </trkpt>
      <trkpt lat="46.98944" lon="-0.97748">
        <ele>166.681</ele>
        <time>2020-05-27T17:43:09Z</time>
      </trkpt>
      <trkpt lat="46.98947" lon="-0.97747">
        <ele>166.584</ele>
        <time>2020-05-27T17:43:10Z</time>
      </trkpt>
      <trkpt lat="46.98951" lon="-0.97747">
        <ele>166.548</ele>
        <time>2020-05-27T17:43:11Z</time>
      </trkpt>
      <trkpt lat="46.98954" lon="-0.97746">
        <ele>166.474</ele>
        <time>2020-05-27T17:43:12Z</time>
      </trkpt>
      <trkpt lat="46.98957" lon="-0.97746">
        <ele>166.625</ele>
        <time>2020-05-27T17:43:13Z</time>
      </trkpt>
      <trkpt lat="46.98961" lon="-0.97746">
        <ele>166.22</ele>
        <time>2020-05-27T17:43:14Z</time>
      </trkpt>
      <trkpt lat="46.98965" lon="-0.97745">
        <ele>165.36</ele>
        <time>2020-05-27T17:43:15Z</time>
      </trkpt>
      <trkpt lat="46.98968" lon="-0.97745">
        <ele>164.798</ele>
        <time>2020-05-27T17:43:16Z</time>
      </trkpt>
      <trkpt lat="46.98972" lon="-0.97745">
        <ele>163.827</ele>
        <time>2020-05-27T17:43:17Z</time>
      </trkpt>
      <trkpt lat="46.98976" lon="-0.97744">
        <ele>163.081</ele>
        <time>2020-05-27T17:43:18Z</time>
      </trkpt>
      <trkpt lat="46.9898" lon="-0.97744">
        <ele>162.512</ele>
        <time>2020-05-27T17:43:19Z</time>
      </trkpt>
      <trkpt lat="46.98984" lon="-0.97744">
        <ele>161.995</ele>
        <time>2020-05-27T17:43:20Z</time>
      </trkpt>
      <trkpt lat="46.98988" lon="-0.97744">
        <ele>161.737</ele>
        <time>2020-05-27T17:43:21Z</time>
      </trkpt>
      <trkpt lat="46.98992" lon="-0.97743">
        <ele>161.887</ele>
        <time>2020-05-27T17:43:22Z</time>
      </trkpt>
      <trkpt lat="46.98996" lon="-0.97743">
        <ele>161.772</ele>
        <time>2020-05-27T17:43:23Z</time>
      </trkpt>
      <trkpt lat="46.99" lon="-0.97743">
        <ele>161.77</ele>
        <time>2020-05-27T17:43:24Z</time>
      </trkpt>
      <trkpt lat="46.99004" lon="-0.97743">
        <ele>161.448</ele>
        <time>2020-05-27T17:43:25Z</time>
      </trkpt>
      <trkpt lat="46.99008" lon="-0.97742">
        <ele>161.309</ele>
        <time>2020-05-27T17:43:26Z</time>
      </trkpt>
      <trkpt lat="46.99012" lon="-0.97742">
        <ele>161.072</ele>
        <time>2020-05-27T17:43:27Z</time>
      </trkpt>
      <trkpt lat="46.99016" lon="-0.97742">
        <ele>161.428</ele>
        <time>2020-05-27T17:43:28Z</time>
      </trkpt>
      <trkpt lat="46.99021" lon="-0.97742">
        <ele>160.489</ele>
        <time>2020-05-27T17:43:29Z</time>
      </trkpt>
      <trkpt lat="46.99026" lon="-0.97744">
        <ele>159.552</ele>
        <time>2020-05-27T17:43:30Z</time>
      </trkpt>
      <trkpt lat="46.99031" lon="-0.97743">
        <ele>159.296</ele>
        <time>2020-05-27T17:43:31Z</time>
      </trkpt>
      <trkpt lat="46.99036" lon="-0.97742">
        <ele>159.319</ele>
        <time>2020-05-27T17:43:32Z</time>
      </trkpt>
      <trkpt lat="46.99042" lon="-0.97742">
        <ele>159.586</ele>
        <time>2020-05-27T17:43:33Z</time>
      </trkpt>
      <trkpt lat="46.99047" lon="-0.97742">
        <ele>159.204</ele>
        <time>2020-05-27T17:43:34Z</time>
      </trkpt>
      <trkpt lat="46.99053" lon="-0.97742">
        <ele>157.746</ele>
        <time>2020-05-27T17:43:35Z</time>
      </trkpt>
      <trkpt lat="46.9906" lon="-0.97741">
        <ele>156.708</ele>
        <time>2020-05-27T17:43:36Z</time>
      </trkpt>
      <trkpt lat="46.99067" lon="-0.97739">
        <ele>156.031</ele>
        <time>2020-05-27T17:43:37Z</time>
      </trkpt>
      <trkpt lat="46.99073" lon="-0.97738">
        <ele>155.697</ele>
        <time>2020-05-27T17:43:38Z</time>
      </trkpt>
      <trkpt lat="46.9908" lon="-0.97737">
        <ele>155.261</ele>
        <time>2020-05-27T17:43:39Z</time>
      </trkpt>
      <trkpt lat="46.99087" lon="-0.97734">
        <ele>154.897</ele>
        <time>2020-05-27T17:43:40Z</time>
      </trkpt>
      <trkpt lat="46.99094" lon="-0.97732">
        <ele>152.455</ele>
        <time>2020-05-27T17:43:41Z</time>
      </trkpt>
      <trkpt lat="46.99101" lon="-0.97729">
        <ele>151.893</ele>
        <time>2020-05-27T17:43:42Z</time>
      </trkpt>
      <trkpt lat="46.99108" lon="-0.97727">
        <ele>149.932</ele>
        <time>2020-05-27T17:43:43Z</time>
      </trkpt>
      <trkpt lat="46.99117" lon="-0.97723">
        <ele>149.491</ele>
        <time>2020-05-27T17:43:44Z</time>
      </trkpt>
      <trkpt lat="46.99124" lon="-0.97718">
        <ele>149.491</ele>
        <time>2020-05-27T17:43:45Z</time>
      </trkpt>
      <trkpt lat="46.99133" lon="-0.97715">
        <ele>149.366</ele>
        <time>2020-05-27T17:43:46Z</time>
      </trkpt>
      <trkpt lat="46.99142" lon="-0.97711">
        <ele>150.843</ele>
        <time>2020-05-27T17:43:47Z</time>
      </trkpt>
      <trkpt lat="46.9915" lon="-0.97708">
        <ele>150.462</ele>
        <time>2020-05-27T17:43:48Z</time>
      </trkpt>
      <trkpt lat="46.99158" lon="-0.97704">
        <ele>150.207</ele>
        <time>2020-05-27T17:43:49Z</time>
      </trkpt>
      <trkpt lat="46.99166" lon="-0.977">
        <ele>149.726</ele>
        <time>2020-05-27T17:43:50Z</time>
      </trkpt>
      <trkpt lat="46.99174" lon="-0.97696">
        <ele>149.458</ele>
        <time>2020-05-27T17:43:51Z</time>
      </trkpt>
      <trkpt lat="46.99182" lon="-0.97692">
        <ele>148.633</ele>
        <time>2020-05-27T17:43:52Z</time>
      </trkpt>
      <trkpt lat="46.99189" lon="-0.97689">
        <ele>148.85</ele>
        <time>2020-05-27T17:43:53Z</time>
      </trkpt>
      <trkpt lat="46.99196" lon="-0.97686">
        <ele>149.312</ele>
        <time>2020-05-27T17:43:54Z</time>
      </trkpt>
      <trkpt lat="46.99202" lon="-0.97684">
        <ele>148.718</ele>
        <time>2020-05-27T17:43:55Z</time>
      </trkpt>
      <trkpt lat="46.99208" lon="-0.97682">
        <ele>148.72</ele>
        <time>2020-05-27T17:43:56Z</time>
      </trkpt>
      <trkpt lat="46.99214" lon="-0.97682">
        <ele>148.303</ele>
        <time>2020-05-27T17:43:57Z</time>
      </trkpt>
      <trkpt lat="46.99218" lon="-0.97683">
        <ele>147.185</ele>
        <time>2020-05-27T17:43:58Z</time>
      </trkpt>
      <trkpt lat="46.99221" lon="-0.97683">
        <ele>146.509</ele>
        <time>2020-05-27T17:43:59Z</time>
      </trkpt>
      <trkpt lat="46.99223" lon="-0.97683">
        <ele>146.088</ele>
        <time>2020-05-27T17:44:00Z</time>
      </trkpt>
      <trkpt lat="46.99225" lon="-0.97685">
        <ele>145.29</ele>
        <time>2020-05-27T17:44:01Z</time>
      </trkpt>
      <trkpt lat="46.99225" lon="-0.97688">
        <ele>144.456</ele>
        <time>2020-05-27T17:44:02Z</time>
      </trkpt>
      <trkpt lat="46.99225" lon="-0.9769">
        <ele>144.753</ele>
        <time>2020-05-27T17:44:03Z</time>
      </trkpt>
      <trkpt lat="46.99224" lon="-0.9769">
        <ele>145.202</ele>
        <time>2020-05-27T17:44:05Z</time>
      </trkpt>
      <trkpt lat="46.99222" lon="-0.97689">
        <ele>144.938</ele>
        <time>2020-05-27T17:44:06Z</time>
      </trkpt>
      <trkpt lat="46.99219" lon="-0.97688">
        <ele>144.14</ele>
        <time>2020-05-27T17:44:07Z</time>
      </trkpt>
      <trkpt lat="46.99216" lon="-0.97687">
        <ele>144.487</ele>
        <time>2020-05-27T17:44:08Z</time>
      </trkpt>
      <trkpt lat="46.99214" lon="-0.97687">
        <ele>145.521</ele>
        <time>2020-05-27T17:44:09Z</time>
      </trkpt>
      <trkpt lat="46.99211" lon="-0.97687">
        <ele>145.09</ele>
        <time>2020-05-27T17:44:10Z</time>
      </trkpt>
      <trkpt lat="46.99209" lon="-0.97686">
        <ele>144.563</ele>
        <time>2020-05-27T17:44:11Z</time>
      </trkpt>
      <trkpt lat="46.99207" lon="-0.97687">
        <ele>144.531</ele>
        <time>2020-05-27T17:44:12Z</time>
      </trkpt>
      <trkpt lat="46.99205" lon="-0.97686">
        <ele>143.383</ele>
        <time>2020-05-27T17:44:13Z</time>
      </trkpt>
      <trkpt lat="46.99204" lon="-0.97686">
        <ele>142.793</ele>
        <time>2020-05-27T17:44:14Z</time>
      </trkpt>
      <trkpt lat="46.99203" lon="-0.97686">
        <ele>144.103</ele>
        <time>2020-05-27T17:44:15Z</time>
      </trkpt>
      <trkpt lat="46.99203" lon="-0.97687">
        <ele>144.737</ele>
        <time>2020-05-27T17:44:16Z</time>
      </trkpt>
      <trkpt lat="46.99203" lon="-0.97687">
        <ele>145.252</ele>
        <time>2020-05-27T17:44:17Z</time>
      </trkpt>
      <trkpt lat="46.99203" lon="-0.97686">
        <ele>145.474</ele>
        <time>2020-05-27T17:44:18Z</time>
      </trkpt>
      <trkpt lat="46.99203" lon="-0.97684">
        <ele>145.39</ele>
        <time>2020-05-27T17:44:19Z</time>
      </trkpt>
      <trkpt lat="46.99204" lon="-0.97682">
        <ele>146.436</ele>
        <time>2020-05-27T17:44:20Z</time>
      </trkpt>
      <trkpt lat="46.99206" lon="-0.9768">
        <ele>146.42</ele>
        <time>2020-05-27T17:44:21Z</time>
      </trkpt>
      <trkpt lat="46.99207" lon="-0.97678">
        <ele>146.445</ele>
        <time>2020-05-27T17:44:22Z</time>
      </trkpt>
      <trkpt lat="46.99207" lon="-0.97676">
        <ele>145.628</ele>
        <time>2020-05-27T17:44:23Z</time>
      </trkpt>
      <trkpt lat="46.99207" lon="-0.97674">
        <ele>144.773</ele>
        <time>2020-05-27T17:44:24Z</time>
      </trkpt>
      <trkpt lat="46.99208" lon="-0.97671">
        <ele>145.555</ele>
        <time>2020-05-27T17:44:25Z</time>
      </trkpt>
      <trkpt lat="46.9921" lon="-0.97668">
        <ele>145.021</ele>
        <time>2020-05-27T17:44:26Z</time>
      </trkpt>
      <trkpt lat="46.99212" lon="-0.97667">
        <ele>143.834</ele>
        <time>2020-05-27T17:44:27Z</time>
      </trkpt>
      <trkpt lat="46.99214" lon="-0.97665">
        <ele>142.932</ele>
        <time>2020-05-27T17:44:28Z</time>
      </trkpt>
      <trkpt lat="46.99216" lon="-0.97664">
        <ele>142.506</ele>
        <time>2020-05-27T17:44:29Z</time>
      </trkpt>
      <trkpt lat="46.99218" lon="-0.97664">
        <ele>142.597</ele>
        <time>2020-05-27T17:44:30Z</time>
      </trkpt>
      <trkpt lat="46.99218" lon="-0.97664">
        <ele>141.995</ele>
        <time>2020-05-27T17:44:31Z</time>
      </trkpt>
      <trkpt lat="46.99219" lon="-0.97665">
        <ele>141.929</ele>
        <time>2020-05-27T17:44:32Z</time>
      </trkpt>
      <trkpt lat="46.99219" lon="-0.97665">
        <ele>141.929</ele>
        <time>2020-05-27T17:44:33Z</time>
      </trkpt>
      <trkpt lat="46.99219" lon="-0.97666">
        <ele>141.436</ele>
        <time>2020-05-27T17:44:34Z</time>
      </trkpt>
      <trkpt lat="46.99219" lon="-0.97666">
        <ele>141.286</ele>
        <time>2020-05-27T17:44:35Z</time>
      </trkpt>
      <trkpt lat="46.99219" lon="-0.97666">
        <ele>142.036</ele>
        <time>2020-05-27T17:44:36Z</time>
      </trkpt>
      <trkpt lat="46.9922" lon="-0.97666">
        <ele>142.101</ele>
        <time>2020-05-27T17:44:37Z</time>
      </trkpt>
      <trkpt lat="46.9922" lon="-0.97666">
        <ele>142.1</ele>
        <time>2020-05-27T17:44:38Z</time>
      </trkpt>
      <trkpt lat="46.99219" lon="-0.97666">
        <ele>141.937</ele>
        <time>2020-05-27T17:44:39Z</time>
      </trkpt>
      <trkpt lat="46.9922" lon="-0.97666">
        <ele>141.872</ele>
        <time>2020-05-27T17:44:40Z</time>
      </trkpt>
      <trkpt lat="46.9922" lon="-0.97665">
        <ele>140.955</ele>
        <time>2020-05-27T17:44:41Z</time>
      </trkpt>
      <trkpt lat="46.9922" lon="-0.97664">
        <ele>140.968</ele>
        <time>2020-05-27T17:44:42Z</time>
      </trkpt>
      <trkpt lat="46.9922" lon="-0.97664">
        <ele>140.87</ele>
        <time>2020-05-27T17:44:43Z</time>
      </trkpt>
      <trkpt lat="46.9922" lon="-0.97664">
        <ele>140.849</ele>
        <time>2020-05-27T17:44:44Z</time>
      </trkpt>
      <trkpt lat="46.99221" lon="-0.97664">
        <ele>140.999</ele>
        <time>2020-05-27T17:44:45Z</time>
      </trkpt>
      <trkpt lat="46.99222" lon="-0.97664">
        <ele>141.801</ele>
        <time>2020-05-27T17:44:46Z</time>
      </trkpt>
      <trkpt lat="46.99223" lon="-0.97663">
        <ele>141.457</ele>
        <time>2020-05-27T17:44:47Z</time>
      </trkpt>
      <trkpt lat="46.99225" lon="-0.97662">
        <ele>141.17</ele>
        <time>2020-05-27T17:44:48Z</time>
      </trkpt>
      <trkpt lat="46.99226" lon="-0.97661">
        <ele>140.743</ele>
        <time>2020-05-27T17:44:49Z</time>
      </trkpt>
      <trkpt lat="46.99228" lon="-0.9766">
        <ele>140.81</ele>
        <time>2020-05-27T17:44:50Z</time>
      </trkpt>
      <trkpt lat="46.9923" lon="-0.9766">
        <ele>140.326</ele>
        <time>2020-05-27T17:44:51Z</time>
      </trkpt>
      <trkpt lat="46.99232" lon="-0.9766">
        <ele>140.287</ele>
        <time>2020-05-27T17:44:52Z</time>
      </trkpt>
      <trkpt lat="46.99235" lon="-0.9766">
        <ele>139.665</ele>
        <time>2020-05-27T17:44:53Z</time>
      </trkpt>
      <trkpt lat="46.99237" lon="-0.97659">
        <ele>137.998</ele>
        <time>2020-05-27T17:44:54Z</time>
      </trkpt>
      <trkpt lat="46.99239" lon="-0.97659">
        <ele>135.519</ele>
        <time>2020-05-27T17:44:55Z</time>
      </trkpt>
      <trkpt lat="46.99242" lon="-0.97658">
        <ele>134.857</ele>
        <time>2020-05-27T17:44:56Z</time>
      </trkpt>
      <trkpt lat="46.99245" lon="-0.97657">
        <ele>133.701</ele>
        <time>2020-05-27T17:44:57Z</time>
      </trkpt>
      <trkpt lat="46.99247" lon="-0.97656">
        <ele>134.521</ele>
        <time>2020-05-27T17:44:58Z</time>
      </trkpt>
      <trkpt lat="46.9925" lon="-0.97657">
        <ele>134.362</ele>
        <time>2020-05-27T17:44:59Z</time>
      </trkpt>
      <trkpt lat="46.99253" lon="-0.97658">
        <ele>133.778</ele>
        <time>2020-05-27T17:45:00Z</time>
      </trkpt>
      <trkpt lat="46.99257" lon="-0.9766">
        <ele>132.95</ele>
        <time>2020-05-27T17:45:01Z</time>
      </trkpt>
      <trkpt lat="46.9926" lon="-0.97661">
        <ele>133.145</ele>
        <time>2020-05-27T17:45:02Z</time>
      </trkpt>
      <trkpt lat="46.99263" lon="-0.97662">
        <ele>130.961</ele>
        <time>2020-05-27T17:45:03Z</time>
      </trkpt>
      <trkpt lat="46.99265" lon="-0.97663">
        <ele>131.553</ele>
        <time>2020-05-27T17:45:04Z</time>
      </trkpt>
      <trkpt lat="46.99268" lon="-0.97663">
        <ele>131.37</ele>
        <time>2020-05-27T17:45:05Z</time>
      </trkpt>
      <trkpt lat="46.9927" lon="-0.97664">
        <ele>131.033</ele>
        <time>2020-05-27T17:45:06Z</time>
      </trkpt>
      <trkpt lat="46.99273" lon="-0.97665">
        <ele>130.383</ele>
        <time>2020-05-27T17:45:07Z</time>
      </trkpt>
      <trkpt lat="46.99276" lon="-0.97665">
        <ele>130.47</ele>
        <time>2020-05-27T17:45:08Z</time>
      </trkpt>
      <trkpt lat="46.99278" lon="-0.97665">
        <ele>130.724</ele>
        <time>2020-05-27T17:45:09Z</time>
      </trkpt>
      <trkpt lat="46.99281" lon="-0.97665">
        <ele>132.3</ele>
        <time>2020-05-27T17:45:10Z</time>
      </trkpt>
      <trkpt lat="46.99284" lon="-0.97665">
        <ele>131.669</ele>
        <time>2020-05-27T17:45:11Z</time>
      </trkpt>
      <trkpt lat="46.99287" lon="-0.97664">
        <ele>131.751</ele>
        <time>2020-05-27T17:45:12Z</time>
      </trkpt>
      <trkpt lat="46.9929" lon="-0.97664">
        <ele>131.487</ele>
        <time>2020-05-27T17:45:13Z</time>
      </trkpt>
      <trkpt lat="46.99292" lon="-0.97663">
        <ele>130.612</ele>
        <time>2020-05-27T17:45:14Z</time>
      </trkpt>
      <trkpt lat="46.99299" lon="-0.97656">
        <ele>130.639</ele>
        <time>2020-05-27T17:45:17Z</time>
      </trkpt>
      <trkpt lat="46.99301" lon="-0.97653">
        <ele>130.429</ele>
        <time>2020-05-27T17:45:18Z</time>
      </trkpt>
      <trkpt lat="46.99302" lon="-0.97649">
        <ele>130.602</ele>
        <time>2020-05-27T17:45:19Z</time>
      </trkpt>
      <trkpt lat="46.99303" lon="-0.97645">
        <ele>129.954</ele>
        <time>2020-05-27T17:45:20Z</time>
      </trkpt>
      <trkpt lat="46.99303" lon="-0.97641">
        <ele>127.796</ele>
        <time>2020-05-27T17:45:21Z</time>
      </trkpt>
      <trkpt lat="46.99302" lon="-0.97637">
        <ele>126.655</ele>
        <time>2020-05-27T17:45:22Z</time>
      </trkpt>
      <trkpt lat="46.99301" lon="-0.97633">
        <ele>126.105</ele>
        <time>2020-05-27T17:45:23Z</time>
      </trkpt>
      <trkpt lat="46.99301" lon="-0.97629">
        <ele>124.023</ele>
        <time>2020-05-27T17:45:24Z</time>
      </trkpt>
      <trkpt lat="46.993" lon="-0.97625">
        <ele>123.454</ele>
        <time>2020-05-27T17:45:25Z</time>
      </trkpt>
      <trkpt lat="46.99299" lon="-0.97621">
        <ele>123.535</ele>
        <time>2020-05-27T17:45:26Z</time>
      </trkpt>
      <trkpt lat="46.99299" lon="-0.97617">
        <ele>121.92</ele>
        <time>2020-05-27T17:45:27Z</time>
      </trkpt>
      <trkpt lat="46.99298" lon="-0.97615">
        <ele>120.091</ele>
        <time>2020-05-27T17:45:28Z</time>
      </trkpt>
      <trkpt lat="46.99297" lon="-0.97611">
        <ele>119.507</ele>
        <time>2020-05-27T17:45:29Z</time>
      </trkpt>
      <trkpt lat="46.99296" lon="-0.97606">
        <ele>120.96</ele>
        <time>2020-05-27T17:45:30Z</time>
      </trkpt>
      <trkpt lat="46.99295" lon="-0.97602">
        <ele>121.023</ele>
        <time>2020-05-27T17:45:31Z</time>
      </trkpt>
      <trkpt lat="46.99294" lon="-0.97598">
        <ele>121.37</ele>
        <time>2020-05-27T17:45:32Z</time>
      </trkpt>
      <trkpt lat="46.99293" lon="-0.97594">
        <ele>124.023</ele>
        <time>2020-05-27T17:45:33Z</time>
      </trkpt>
      <trkpt lat="46.99293" lon="-0.9759">
        <ele>124.014</ele>
        <time>2020-05-27T17:45:34Z</time>
      </trkpt>
      <trkpt lat="46.99291" lon="-0.97586">
        <ele>124.652</ele>
        <time>2020-05-27T17:45:35Z</time>
      </trkpt>
      <trkpt lat="46.9929" lon="-0.97582">
        <ele>125.605</ele>
        <time>2020-05-27T17:45:36Z</time>
      </trkpt>
      <trkpt lat="46.9929" lon="-0.97579">
        <ele>127.512</ele>
        <time>2020-05-27T17:45:37Z</time>
      </trkpt>
      <trkpt lat="46.99291" lon="-0.97577">
        <ele>126.502</ele>
        <time>2020-05-27T17:45:38Z</time>
      </trkpt>
      <trkpt lat="46.99292" lon="-0.97576">
        <ele>122.554</ele>
        <time>2020-05-27T17:45:39Z</time>
      </trkpt>
      <trkpt lat="46.99294" lon="-0.97576">
        <ele>119.61</ele>
        <time>2020-05-27T17:45:40Z</time>
      </trkpt>
      <trkpt lat="46.99297" lon="-0.97577">
        <ele>121.144</ele>
        <time>2020-05-27T17:45:41Z</time>
      </trkpt>
      <trkpt lat="46.993" lon="-0.97578">
        <ele>122.894</ele>
        <time>2020-05-27T17:45:42Z</time>
      </trkpt>
      <trkpt lat="46.99304" lon="-0.9758">
        <ele>124.582</ele>
        <time>2020-05-27T17:45:43Z</time>
      </trkpt>
      <trkpt lat="46.99306" lon="-0.97581">
        <ele>123.337</ele>
        <time>2020-05-27T17:45:44Z</time>
      </trkpt>
      <trkpt lat="46.99307" lon="-0.97583">
        <ele>122.809</ele>
        <time>2020-05-27T17:45:45Z</time>
      </trkpt>
      <trkpt lat="46.99309" lon="-0.97586">
        <ele>122.082</ele>
        <time>2020-05-27T17:45:46Z</time>
      </trkpt>
      <trkpt lat="46.99311" lon="-0.97588">
        <ele>121.272</ele>
        <time>2020-05-27T17:45:47Z</time>
      </trkpt>
      <trkpt lat="46.99314" lon="-0.9759">
        <ele>119.726</ele>
        <time>2020-05-27T17:45:48Z</time>
      </trkpt>
      <trkpt lat="46.99317" lon="-0.97591">
        <ele>118.034</ele>
        <time>2020-05-27T17:45:49Z</time>
      </trkpt>
      <trkpt lat="46.99319" lon="-0.97594">
        <ele>117.5</ele>
        <time>2020-05-27T17:45:50Z</time>
      </trkpt>
      <trkpt lat="46.99321" lon="-0.97596">
        <ele>116.136</ele>
        <time>2020-05-27T17:45:51Z</time>
      </trkpt>
      <trkpt lat="46.99323" lon="-0.97599">
        <ele>114.764</ele>
        <time>2020-05-27T17:45:52Z</time>
      </trkpt>
      <trkpt lat="46.99324" lon="-0.97601">
        <ele>115.229</ele>
        <time>2020-05-27T17:45:53Z</time>
      </trkpt>
      <trkpt lat="46.99326" lon="-0.97603">
        <ele>114.357</ele>
        <time>2020-05-27T17:45:54Z</time>
      </trkpt>
      <trkpt lat="46.99328" lon="-0.97606">
        <ele>114.338</ele>
        <time>2020-05-27T17:45:55Z</time>
      </trkpt>
      <trkpt lat="46.9933" lon="-0.97608">
        <ele>115.227</ele>
        <time>2020-05-27T17:45:56Z</time>
      </trkpt>
      <trkpt lat="46.99333" lon="-0.97609">
        <ele>114.07</ele>
        <time>2020-05-27T17:45:57Z</time>
      </trkpt>
      <trkpt lat="46.99335" lon="-0.9761">
        <ele>112.092</ele>
        <time>2020-05-27T17:45:58Z</time>
      </trkpt>
      <trkpt lat="46.99337" lon="-0.97611">
        <ele>111.274</ele>
        <time>2020-05-27T17:45:59Z</time>
      </trkpt>
      <trkpt lat="46.99339" lon="-0.97613">
        <ele>110.935</ele>
        <time>2020-05-27T17:46:00Z</time>
      </trkpt>
      <trkpt lat="46.9934" lon="-0.97616">
        <ele>108.497</ele>
        <time>2020-05-27T17:46:01Z</time>
      </trkpt>
      <trkpt lat="46.99341" lon="-0.97618">
        <ele>164.582</ele>
        <time>2020-05-27T17:46:02Z</time>
      </trkpt>
      <trkpt lat="46.99342" lon="-0.9762">
        <ele>159.028</ele>
        <time>2020-05-27T17:46:03Z</time>
      </trkpt>
      <trkpt lat="46.99343" lon="-0.97623">
        <ele>154.494</ele>
        <time>2020-05-27T17:46:04Z</time>
      </trkpt>
      <trkpt lat="46.99345" lon="-0.97626">
        <ele>150.163</ele>
        <time>2020-05-27T17:46:05Z</time>
      </trkpt>
      <trkpt lat="46.99346" lon="-0.97629">
        <ele>146.007</ele>
        <time>2020-05-27T17:46:06Z</time>
      </trkpt>
      <trkpt lat="46.99348" lon="-0.97632">
        <ele>139.413</ele>
        <time>2020-05-27T17:46:07Z</time>
      </trkpt>
      <trkpt lat="46.99349" lon="-0.97634">
        <ele>132.993</ele>
        <time>2020-05-27T17:46:08Z</time>
      </trkpt>
      <trkpt lat="46.99352" lon="-0.97636">
        <ele>129.203</ele>
        <time>2020-05-27T17:46:09Z</time>
      </trkpt>
      <trkpt lat="46.99353" lon="-0.97638">
        <ele>124.472</ele>
        <time>2020-05-27T17:46:10Z</time>
      </trkpt>
      <trkpt lat="46.99355" lon="-0.97641">
        <ele>120.839</ele>
        <time>2020-05-27T17:46:11Z</time>
      </trkpt>
      <trkpt lat="46.99356" lon="-0.97644">
        <ele>118.26</ele>
        <time>2020-05-27T17:46:12Z</time>
      </trkpt>
      <trkpt lat="46.99358" lon="-0.97647">
        <ele>116.743</ele>
        <time>2020-05-27T17:46:13Z</time>
      </trkpt>
      <trkpt lat="46.9936" lon="-0.97651">
        <ele>115.419</ele>
        <time>2020-05-27T17:46:14Z</time>
      </trkpt>
      <trkpt lat="46.99361" lon="-0.97655">
        <ele>114.131</ele>
        <time>2020-05-27T17:46:15Z</time>
      </trkpt>
      <trkpt lat="46.99362" lon="-0.97658">
        <ele>112.632</ele>
        <time>2020-05-27T17:46:16Z</time>
      </trkpt>
      <trkpt lat="46.99363" lon="-0.97661">
        <ele>113.767</ele>
        <time>2020-05-27T17:46:17Z</time>
      </trkpt>
      <trkpt lat="46.99364" lon="-0.97664">
        <ele>111.728</ele>
        <time>2020-05-27T17:46:18Z</time>
      </trkpt>
      <trkpt lat="46.99364" lon="-0.97666">
        <ele>110.129</ele>
        <time>2020-05-27T17:46:19Z</time>
      </trkpt>
      <trkpt lat="46.99364" lon="-0.97671">
        <ele>111.675</ele>
        <time>2020-05-27T17:46:21Z</time>
      </trkpt>
      <trkpt lat="46.99363" lon="-0.97674">
        <ele>110.995</ele>
        <time>2020-05-27T17:46:22Z</time>
      </trkpt>
      <trkpt lat="46.99362" lon="-0.97677">
        <ele>111.33</ele>
        <time>2020-05-27T17:46:23Z</time>
      </trkpt>
      <trkpt lat="46.99362" lon="-0.97678">
        <ele>110.539</ele>
        <time>2020-05-27T17:46:24Z</time>
      </trkpt>
      <trkpt lat="46.99362" lon="-0.97679">
        <ele>111.201</ele>
        <time>2020-05-27T17:46:25Z</time>
      </trkpt>
      <trkpt lat="46.99362" lon="-0.9768">
        <ele>112.724</ele>
        <time>2020-05-27T17:46:26Z</time>
      </trkpt>
      <trkpt lat="46.99362" lon="-0.9768">
        <ele>113.268</ele>
        <time>2020-05-27T17:46:27Z</time>
      </trkpt>
      <trkpt lat="46.99363" lon="-0.9768">
        <ele>113.033</ele>
        <time>2020-05-27T17:46:28Z</time>
      </trkpt>
      <trkpt lat="46.99362" lon="-0.97681">
        <ele>112.567</ele>
        <time>2020-05-27T17:46:29Z</time>
      </trkpt>
      <trkpt lat="46.99362" lon="-0.97681">
        <ele>113.058</ele>
        <time>2020-05-27T17:46:30Z</time>
      </trkpt>
      <trkpt lat="46.99362" lon="-0.97681">
        <ele>112.806</ele>
        <time>2020-05-27T17:46:31Z</time>
      </trkpt>
      <trkpt lat="46.99362" lon="-0.97681">
        <ele>112.72</ele>
        <time>2020-05-27T17:46:32Z</time>
      </trkpt>
      <trkpt lat="46.99362" lon="-0.97681">
        <ele>112.54</ele>
        <time>2020-05-27T17:46:33Z</time>
      </trkpt>
      <trkpt lat="46.99362" lon="-0.97682">
        <ele>112.487</ele>
        <time>2020-05-27T17:46:34Z</time>
      </trkpt>
      <trkpt lat="46.99362" lon="-0.97682">
        <ele>112.468</ele>
        <time>2020-05-27T17:46:35Z</time>
      </trkpt>
      <trkpt lat="46.99362" lon="-0.97682">
        <ele>112.502</ele>
        <time>2020-05-27T17:46:36Z</time>
      </trkpt>
      <trkpt lat="46.99362" lon="-0.97682">
        <ele>112.469</ele>
        <time>2020-05-27T17:46:37Z</time>
      </trkpt>
      <trkpt lat="46.99362" lon="-0.97682">
        <ele>112.458</ele>
        <time>2020-05-27T17:46:38Z</time>
      </trkpt>
      <trkpt lat="46.99362" lon="-0.97682">
        <ele>112.41</ele>
        <time>2020-05-27T17:46:39Z</time>
      </trkpt>
      <trkpt lat="46.99362" lon="-0.97682">
        <ele>112.404</ele>
        <time>2020-05-27T17:46:40Z</time>
      </trkpt>
      <trkpt lat="46.99362" lon="-0.97682">
        <ele>112.4</ele>
        <time>2020-05-27T17:46:41Z</time>
      </trkpt>
      <trkpt lat="46.99362" lon="-0.97682">
        <ele>112.902</ele>
        <time>2020-05-27T17:46:42Z</time>
      </trkpt>
      <trkpt lat="46.99363" lon="-0.97683">
        <ele>111.728</ele>
        <time>2020-05-27T17:46:43Z</time>
      </trkpt>
      <trkpt lat="46.99362" lon="-0.97684">
        <ele>111.713</ele>
        <time>2020-05-27T17:46:44Z</time>
      </trkpt>
      <trkpt lat="46.99362" lon="-0.97684">
        <ele>112.089</ele>
        <time>2020-05-27T17:46:45Z</time>
      </trkpt>
      <trkpt lat="46.99362" lon="-0.97684">
        <ele>111.499</ele>
        <time>2020-05-27T17:46:46Z</time>
      </trkpt>
      <trkpt lat="46.99363" lon="-0.97684">
        <ele>111.788</ele>
        <time>2020-05-27T17:46:47Z</time>
      </trkpt>
      <trkpt lat="46.99363" lon="-0.97683">
        <ele>111.735</ele>
        <time>2020-05-27T17:46:48Z</time>
      </trkpt>
      <trkpt lat="46.99364" lon="-0.97683">
        <ele>111.987</ele>
        <time>2020-05-27T17:46:49Z</time>
      </trkpt>
      <trkpt lat="46.99364" lon="-0.97682">
        <ele>113.047</ele>
        <time>2020-05-27T17:46:50Z</time>
      </trkpt>
      <trkpt lat="46.99364" lon="-0.9768">
        <ele>113.219</ele>
        <time>2020-05-27T17:46:51Z</time>
      </trkpt>
      <trkpt lat="46.99364" lon="-0.97679">
        <ele>112.534</ele>
        <time>2020-05-27T17:46:52Z</time>
      </trkpt>
      <trkpt lat="46.99364" lon="-0.97678">
        <ele>113.48</ele>
        <time>2020-05-27T17:46:53Z</time>
      </trkpt>
      <trkpt lat="46.99364" lon="-0.97677">
        <ele>113.72</ele>
        <time>2020-05-27T17:46:54Z</time>
      </trkpt>
      <trkpt lat="46.99364" lon="-0.97677">
        <ele>113.837</ele>
        <time>2020-05-27T17:46:55Z</time>
      </trkpt>
      <trkpt lat="46.99364" lon="-0.97677">
        <ele>113.825</ele>
        <time>2020-05-27T17:46:56Z</time>
      </trkpt>
      <trkpt lat="46.99364" lon="-0.97676">
        <ele>113.826</ele>
        <time>2020-05-27T17:46:57Z</time>
      </trkpt>
      <trkpt lat="46.99364" lon="-0.97676">
        <ele>113.581</ele>
        <time>2020-05-27T17:46:58Z</time>
      </trkpt>
      <trkpt lat="46.99363" lon="-0.97675">
        <ele>113.226</ele>
        <time>2020-05-27T17:46:59Z</time>
      </trkpt>
      <trkpt lat="46.99363" lon="-0.97673">
        <ele>114.299</ele>
        <time>2020-05-27T17:47:00Z</time>
      </trkpt>
      <trkpt lat="46.99362" lon="-0.97672">
        <ele>114.972</ele>
        <time>2020-05-27T17:47:01Z</time>
      </trkpt>
      <trkpt lat="46.99362" lon="-0.97671">
        <ele>115.141</ele>
        <time>2020-05-27T17:47:02Z</time>
      </trkpt>
      <trkpt lat="46.99361" lon="-0.97669">
        <ele>115.527</ele>
        <time>2020-05-27T17:47:03Z</time>
      </trkpt>
      <trkpt lat="46.9936" lon="-0.97666">
        <ele>114.919</ele>
        <time>2020-05-27T17:47:04Z</time>
      </trkpt>
      <trkpt lat="46.99359" lon="-0.97663">
        <ele>115.577</ele>
        <time>2020-05-27T17:47:05Z</time>
      </trkpt>
      <trkpt lat="46.99359" lon="-0.9766">
        <ele>115.348</ele>
        <time>2020-05-27T17:47:06Z</time>
      </trkpt>
      <trkpt lat="46.99358" lon="-0.97656">
        <ele>115.131</ele>
        <time>2020-05-27T17:47:07Z</time>
      </trkpt>
      <trkpt lat="46.99357" lon="-0.97653">
        <ele>115.533</ele>
        <time>2020-05-27T17:47:08Z</time>
      </trkpt>
      <trkpt lat="46.99357" lon="-0.97649">
        <ele>115.698</ele>
        <time>2020-05-27T17:47:09Z</time>
      </trkpt>
      <trkpt lat="46.99356" lon="-0.97646">
        <ele>117.189</ele>
        <time>2020-05-27T17:47:10Z</time>
      </trkpt>
      <trkpt lat="46.99355" lon="-0.97642">
        <ele>116.614</ele>
        <time>2020-05-27T17:47:11Z</time>
      </trkpt>
      <trkpt lat="46.99354" lon="-0.97638">
        <ele>114.656</ele>
        <time>2020-05-27T17:47:12Z</time>
      </trkpt>
      <trkpt lat="46.99353" lon="-0.97634">
        <ele>114.049</ele>
        <time>2020-05-27T17:47:13Z</time>
      </trkpt>
      <trkpt lat="46.99353" lon="-0.97631">
        <ele>114.235</ele>
        <time>2020-05-27T17:47:14Z</time>
      </trkpt>
      <trkpt lat="46.99352" lon="-0.97628">
        <ele>114.443</ele>
        <time>2020-05-27T17:47:15Z</time>
      </trkpt>
      <trkpt lat="46.99351" lon="-0.97625">
        <ele>114.42</ele>
        <time>2020-05-27T17:47:16Z</time>
      </trkpt>
      <trkpt lat="46.9935" lon="-0.97624">
        <ele>113.554</ele>
        <time>2020-05-27T17:47:17Z</time>
      </trkpt>
      <trkpt lat="46.99349" lon="-0.97623">
        <ele>113.542</ele>
        <time>2020-05-27T17:47:18Z</time>
      </trkpt>
      <trkpt lat="46.99348" lon="-0.97622">
        <ele>113.736</ele>
        <time>2020-05-27T17:47:19Z</time>
      </trkpt>
      <trkpt lat="46.99347" lon="-0.97622">
        <ele>113.285</ele>
        <time>2020-05-27T17:47:20Z</time>
      </trkpt>
      <trkpt lat="46.99347" lon="-0.97622">
        <ele>112.375</ele>
        <time>2020-05-27T17:47:21Z</time>
      </trkpt>
      <trkpt lat="46.99347" lon="-0.97622">
        <ele>111.982</ele>
        <time>2020-05-27T17:47:22Z</time>
      </trkpt>
      <trkpt lat="46.99348" lon="-0.97621">
        <ele>112.766</ele>
        <time>2020-05-27T17:47:23Z</time>
      </trkpt>
      <trkpt lat="46.99349" lon="-0.97621">
        <ele>112.929</ele>
        <time>2020-05-27T17:47:24Z</time>
      </trkpt>
      <trkpt lat="46.99349" lon="-0.9762">
        <ele>112.456</ele>
        <time>2020-05-27T17:47:25Z</time>
      </trkpt>
      <trkpt lat="46.99349" lon="-0.9762">
        <ele>113.118</ele>
        <time>2020-05-27T17:47:26Z</time>
      </trkpt>
      <trkpt lat="46.99349" lon="-0.9762">
        <ele>112.802</ele>
        <time>2020-05-27T17:47:27Z</time>
      </trkpt>
      <trkpt lat="46.99349" lon="-0.9762">
        <ele>112.221</ele>
        <time>2020-05-27T17:47:28Z</time>
      </trkpt>
      <trkpt lat="46.99349" lon="-0.9762">
        <ele>112.621</ele>
        <time>2020-05-27T17:47:29Z</time>
      </trkpt>
      <trkpt lat="46.99349" lon="-0.97619">
        <ele>112.236</ele>
        <time>2020-05-27T17:47:30Z</time>
      </trkpt>
      <trkpt lat="46.99349" lon="-0.97619">
        <ele>112.141</ele>
        <time>2020-05-27T17:47:31Z</time>
      </trkpt>
      <trkpt lat="46.99349" lon="-0.97617">
        <ele>111.313</ele>
        <time>2020-05-27T17:47:32Z</time>
      </trkpt>
      <trkpt lat="46.9935" lon="-0.97614">
        <ele>112.06</ele>
        <time>2020-05-27T17:47:33Z</time>
      </trkpt>
      <trkpt lat="46.9935" lon="-0.97608">
        <ele>111.634</ele>
        <time>2020-05-27T17:47:35Z</time>
      </trkpt>
      <trkpt lat="46.99349" lon="-0.97605">
        <ele>111.548</ele>
        <time>2020-05-27T17:47:36Z</time>
      </trkpt>
      <trkpt lat="46.99347" lon="-0.97602">
        <ele>112.07</ele>
        <time>2020-05-27T17:47:37Z</time>
      </trkpt>
      <trkpt lat="46.99347" lon="-0.97599">
        <ele>112.13</ele>
        <time>2020-05-27T17:47:38Z</time>
      </trkpt>
      <trkpt lat="46.99346" lon="-0.97596">
        <ele>112.999</ele>
        <time>2020-05-27T17:47:39Z</time>
      </trkpt>
      <trkpt lat="46.99346" lon="-0.97594">
        <ele>113.856</ele>
        <time>2020-05-27T17:47:40Z</time>
      </trkpt>
      <trkpt lat="46.99346" lon="-0.97591">
        <ele>151.408</ele>
        <time>2020-05-27T17:47:41Z</time>
      </trkpt>
      <trkpt lat="46.99346" lon="-0.97589">
        <ele>143.835</ele>
        <time>2020-05-27T17:47:42Z</time>
      </trkpt>
      <trkpt lat="46.99347" lon="-0.97585">
        <ele>136.664</ele>
        <time>2020-05-27T17:47:43Z</time>
      </trkpt>
      <trkpt lat="46.99348" lon="-0.97583">
        <ele>128.233</ele>
        <time>2020-05-27T17:47:44Z</time>
      </trkpt>
      <trkpt lat="46.99349" lon="-0.97581">
        <ele>126.938</ele>
        <time>2020-05-27T17:47:45Z</time>
      </trkpt>
      <trkpt lat="46.99351" lon="-0.97579">
        <ele>122.763</ele>
        <time>2020-05-27T17:47:46Z</time>
      </trkpt>
      <trkpt lat="46.99353" lon="-0.97579">
        <ele>120.118</ele>
        <time>2020-05-27T17:47:47Z</time>
      </trkpt>
      <trkpt lat="46.99356" lon="-0.97578">
        <ele>119.42</ele>
        <time>2020-05-27T17:47:48Z</time>
      </trkpt>
      <trkpt lat="46.99358" lon="-0.97578">
        <ele>117.108</ele>
        <time>2020-05-27T17:47:49Z</time>
      </trkpt>
      <trkpt lat="46.99361" lon="-0.97576">
        <ele>157.839</ele>
        <time>2020-05-27T17:47:50Z</time>
      </trkpt>
      <trkpt lat="46.99363" lon="-0.97574">
        <ele>148.563</ele>
        <time>2020-05-27T17:47:51Z</time>
      </trkpt>
      <trkpt lat="46.99364" lon="-0.97571">
        <ele>138.658</ele>
        <time>2020-05-27T17:47:52Z</time>
      </trkpt>
      <trkpt lat="46.99366" lon="-0.97568">
        <ele>132.065</ele>
        <time>2020-05-27T17:47:53Z</time>
      </trkpt>
      <trkpt lat="46.99367" lon="-0.97565">
        <ele>128.125</ele>
        <time>2020-05-27T17:47:54Z</time>
      </trkpt>
      <trkpt lat="46.99368" lon="-0.97562">
        <ele>125.547</ele>
        <time>2020-05-27T17:47:55Z</time>
      </trkpt>
      <trkpt lat="46.99369" lon="-0.9756">
        <ele>122.915</ele>
        <time>2020-05-27T17:47:56Z</time>
      </trkpt>
      <trkpt lat="46.9937" lon="-0.97557">
        <ele>121.557</ele>
        <time>2020-05-27T17:47:57Z</time>
      </trkpt>
      <trkpt lat="46.99371" lon="-0.97554">
        <ele>119.046</ele>
        <time>2020-05-27T17:47:58Z</time>
      </trkpt>
      <trkpt lat="46.99372" lon="-0.97552">
        <ele>117.202</ele>
        <time>2020-05-27T17:47:59Z</time>
      </trkpt>
      <trkpt lat="46.99373" lon="-0.9755">
        <ele>115.335</ele>
        <time>2020-05-27T17:48:00Z</time>
      </trkpt>
      <trkpt lat="46.99373" lon="-0.97548">
        <ele>113.825</ele>
        <time>2020-05-27T17:48:01Z</time>
      </trkpt>
      <trkpt lat="46.99374" lon="-0.97546">
        <ele>112.183</ele>
        <time>2020-05-27T17:48:02Z</time>
      </trkpt>
      <trkpt lat="46.99375" lon="-0.97544">
        <ele>111.296</ele>
        <time>2020-05-27T17:48:03Z</time>
      </trkpt>
      <trkpt lat="46.99377" lon="-0.97542">
        <ele>111.728</ele>
        <time>2020-05-27T17:48:04Z</time>
      </trkpt>
      <trkpt lat="46.99378" lon="-0.97539">
        <ele>108.175</ele>
        <time>2020-05-27T17:48:05Z</time>
      </trkpt>
      <trkpt lat="46.99379" lon="-0.97537">
        <ele>106.062</ele>
        <time>2020-05-27T17:48:06Z</time>
      </trkpt>
      <trkpt lat="46.99381" lon="-0.97535">
        <ele>105.819</ele>
        <time>2020-05-27T17:48:07Z</time>
      </trkpt>
      <trkpt lat="46.99383" lon="-0.97532">
        <ele>106.052</ele>
        <time>2020-05-27T17:48:08Z</time>
      </trkpt>
      <trkpt lat="46.99385" lon="-0.9753">
        <ele>104.304</ele>
        <time>2020-05-27T17:48:09Z</time>
      </trkpt>
      <trkpt lat="46.99386" lon="-0.97527">
        <ele>106.136</ele>
        <time>2020-05-27T17:48:10Z</time>
      </trkpt>
      <trkpt lat="46.99387" lon="-0.97523">
        <ele>104.711</ele>
        <time>2020-05-27T17:48:11Z</time>
      </trkpt>
      <trkpt lat="46.99388" lon="-0.9752">
        <ele>104.425</ele>
        <time>2020-05-27T17:48:12Z</time>
      </trkpt>
      <trkpt lat="46.99389" lon="-0.97516">
        <ele>105.543</ele>
        <time>2020-05-27T17:48:13Z</time>
      </trkpt>
      <trkpt lat="46.99389" lon="-0.97512">
        <ele>105.845</ele>
        <time>2020-05-27T17:48:14Z</time>
      </trkpt>
      <trkpt lat="46.9939" lon="-0.97509">
        <ele>115.149</ele>
        <time>2020-05-27T17:48:15Z</time>
      </trkpt>
      <trkpt lat="46.99391" lon="-0.97505">
        <ele>112.737</ele>
        <time>2020-05-27T17:48:16Z</time>
      </trkpt>
      <trkpt lat="46.99392" lon="-0.97502">
        <ele>111.093</ele>
        <time>2020-05-27T17:48:17Z</time>
      </trkpt>
      <trkpt lat="46.99394" lon="-0.97497">
        <ele>102.246</ele>
        <time>2020-05-27T17:48:18Z</time>
      </trkpt>
      <trkpt lat="46.99394" lon="-0.97493">
        <ele>102.596</ele>
        <time>2020-05-27T17:48:19Z</time>
      </trkpt>
      <trkpt lat="46.99395" lon="-0.97489">
        <ele>104.481</ele>
        <time>2020-05-27T17:48:20Z</time>
      </trkpt>
      <trkpt lat="46.99396" lon="-0.97484">
        <ele>105.885</ele>
        <time>2020-05-27T17:48:21Z</time>
      </trkpt>
      <trkpt lat="46.99398" lon="-0.9748">
        <ele>106.734</ele>
        <time>2020-05-27T17:48:22Z</time>
      </trkpt>
      <trkpt lat="46.99399" lon="-0.97476">
        <ele>106.675</ele>
        <time>2020-05-27T17:48:23Z</time>
      </trkpt>
      <trkpt lat="46.994" lon="-0.97471">
        <ele>108.485</ele>
        <time>2020-05-27T17:48:24Z</time>
      </trkpt>
      <trkpt lat="46.994" lon="-0.97466">
        <ele>108.68</ele>
        <time>2020-05-27T17:48:25Z</time>
      </trkpt>
      <trkpt lat="46.99401" lon="-0.97462">
        <ele>108.806</ele>
        <time>2020-05-27T17:48:26Z</time>
      </trkpt>
      <trkpt lat="46.99402" lon="-0.97457">
        <ele>108.986</ele>
        <time>2020-05-27T17:48:27Z</time>
      </trkpt>
      <trkpt lat="46.99403" lon="-0.97453">
        <ele>108.57</ele>
        <time>2020-05-27T17:48:28Z</time>
      </trkpt>
      <trkpt lat="46.99405" lon="-0.97448">
        <ele>108.791</ele>
        <time>2020-05-27T17:48:29Z</time>
      </trkpt>
      <trkpt lat="46.99406" lon="-0.97444">
        <ele>108.699</ele>
        <time>2020-05-27T17:48:30Z</time>
      </trkpt>
      <trkpt lat="46.99407" lon="-0.9744">
        <ele>108.186</ele>
        <time>2020-05-27T17:48:31Z</time>
      </trkpt>
      <trkpt lat="46.99408" lon="-0.97435">
        <ele>108.189</ele>
        <time>2020-05-27T17:48:32Z</time>
      </trkpt>
      <trkpt lat="46.99408" lon="-0.97431">
        <ele>108.69</ele>
        <time>2020-05-27T17:48:33Z</time>
      </trkpt>
      <trkpt lat="46.99408" lon="-0.97427">
        <ele>108.896</ele>
        <time>2020-05-27T17:48:34Z</time>
      </trkpt>
      <trkpt lat="46.99409" lon="-0.97422">
        <ele>108.735</ele>
        <time>2020-05-27T17:48:35Z</time>
      </trkpt>
      <trkpt lat="46.99409" lon="-0.97418">
        <ele>109.549</ele>
        <time>2020-05-27T17:48:36Z</time>
      </trkpt>
      <trkpt lat="46.9941" lon="-0.97414">
        <ele>113.197</ele>
        <time>2020-05-27T17:48:37Z</time>
      </trkpt>
      <trkpt lat="46.99411" lon="-0.97409">
        <ele>112.44</ele>
        <time>2020-05-27T17:48:38Z</time>
      </trkpt>
      <trkpt lat="46.99412" lon="-0.97405">
        <ele>111.477</ele>
        <time>2020-05-27T17:48:39Z</time>
      </trkpt>
      <trkpt lat="46.99412" lon="-0.97401">
        <ele>111.066</ele>
        <time>2020-05-27T17:48:40Z</time>
      </trkpt>
      <trkpt lat="46.99412" lon="-0.97397">
        <ele>110.328</ele>
        <time>2020-05-27T17:48:41Z</time>
      </trkpt>
      <trkpt lat="46.99413" lon="-0.97394">
        <ele>111.512</ele>
        <time>2020-05-27T17:48:42Z</time>
      </trkpt>
      <trkpt lat="46.99413" lon="-0.97391">
        <ele>110.989</ele>
        <time>2020-05-27T17:48:43Z</time>
      </trkpt>
      <trkpt lat="46.99413" lon="-0.97388">
        <ele>110.585</ele>
        <time>2020-05-27T17:48:44Z</time>
      </trkpt>
      <trkpt lat="46.99414" lon="-0.97384">
        <ele>111.182</ele>
        <time>2020-05-27T17:48:45Z</time>
      </trkpt>
      <trkpt lat="46.99415" lon="-0.97379">
        <ele>110.722</ele>
        <time>2020-05-27T17:48:46Z</time>
      </trkpt>
      <trkpt lat="46.99416" lon="-0.97375">
        <ele>110.307</ele>
        <time>2020-05-27T17:48:47Z</time>
      </trkpt>
      <trkpt lat="46.99417" lon="-0.9737">
        <ele>110.501</ele>
        <time>2020-05-27T17:48:48Z</time>
      </trkpt>
      <trkpt lat="46.99419" lon="-0.97365">
        <ele>111.461</ele>
        <time>2020-05-27T17:48:49Z</time>
      </trkpt>
      <trkpt lat="46.9942" lon="-0.97361">
        <ele>110.597</ele>
        <time>2020-05-27T17:48:50Z</time>
      </trkpt>
      <trkpt lat="46.99422" lon="-0.97357">
        <ele>111.021</ele>
        <time>2020-05-27T17:48:51Z</time>
      </trkpt>
      <trkpt lat="46.99424" lon="-0.97352">
        <ele>111.007</ele>
        <time>2020-05-27T17:48:52Z</time>
      </trkpt>
      <trkpt lat="46.99427" lon="-0.97349">
        <ele>111.562</ele>
        <time>2020-05-27T17:48:53Z</time>
      </trkpt>
      <trkpt lat="46.9943" lon="-0.97345">
        <ele>112.242</ele>
        <time>2020-05-27T17:48:54Z</time>
      </trkpt>
      <trkpt lat="46.99433" lon="-0.97342">
        <ele>112.223</ele>
        <time>2020-05-27T17:48:55Z</time>
      </trkpt>
      <trkpt lat="46.99436" lon="-0.97339">
        <ele>111.724</ele>
        <time>2020-05-27T17:48:56Z</time>
      </trkpt>
      <trkpt lat="46.99438" lon="-0.97335">
        <ele>112.135</ele>
        <time>2020-05-27T17:48:57Z</time>
      </trkpt>
      <trkpt lat="46.9944" lon="-0.97332">
        <ele>111.381</ele>
        <time>2020-05-27T17:48:58Z</time>
      </trkpt>
      <trkpt lat="46.99442" lon="-0.97329">
        <ele>112.02</ele>
        <time>2020-05-27T17:48:59Z</time>
      </trkpt>
      <trkpt lat="46.99444" lon="-0.97326">
        <ele>111.078</ele>
        <time>2020-05-27T17:49:00Z</time>
      </trkpt>
      <trkpt lat="46.99446" lon="-0.97323">
        <ele>111.363</ele>
        <time>2020-05-27T17:49:01Z</time>
      </trkpt>
      <trkpt lat="46.99448" lon="-0.9732">
        <ele>111.168</ele>
        <time>2020-05-27T17:49:02Z</time>
      </trkpt>
      <trkpt lat="46.99449" lon="-0.97317">
        <ele>110.702</ele>
        <time>2020-05-27T17:49:03Z</time>
      </trkpt>
      <trkpt lat="46.9945" lon="-0.97314">
        <ele>109.639</ele>
        <time>2020-05-27T17:49:04Z</time>
      </trkpt>
      <trkpt lat="46.9945" lon="-0.9731">
        <ele>110.048</ele>
        <time>2020-05-27T17:49:05Z</time>
      </trkpt>
      <trkpt lat="46.99451" lon="-0.97307">
        <ele>110.103</ele>
        <time>2020-05-27T17:49:06Z</time>
      </trkpt>
      <trkpt lat="46.99452" lon="-0.97305">
        <ele>110.604</ele>
        <time>2020-05-27T17:49:07Z</time>
      </trkpt>
      <trkpt lat="46.99453" lon="-0.97302">
        <ele>109.595</ele>
        <time>2020-05-27T17:49:08Z</time>
      </trkpt>
      <trkpt lat="46.99454" lon="-0.97299">
        <ele>108.66</ele>
        <time>2020-05-27T17:49:09Z</time>
      </trkpt>
      <trkpt lat="46.99456" lon="-0.97296">
        <ele>107.788</ele>
        <time>2020-05-27T17:49:10Z</time>
      </trkpt>
      <trkpt lat="46.99457" lon="-0.97293">
        <ele>107.723</ele>
        <time>2020-05-27T17:49:11Z</time>
      </trkpt>
      <trkpt lat="46.99459" lon="-0.97289">
        <ele>109.539</ele>
        <time>2020-05-27T17:49:12Z</time>
      </trkpt>
      <trkpt lat="46.99461" lon="-0.97287">
        <ele>107.221</ele>
        <time>2020-05-27T17:49:13Z</time>
      </trkpt>
      <trkpt lat="46.99463" lon="-0.97285">
        <ele>107.874</ele>
        <time>2020-05-27T17:49:14Z</time>
      </trkpt>
      <trkpt lat="46.99464" lon="-0.97284">
        <ele>107.847</ele>
        <time>2020-05-27T17:49:15Z</time>
      </trkpt>
      <trkpt lat="46.99466" lon="-0.97282">
        <ele>108.461</ele>
        <time>2020-05-27T17:49:16Z</time>
      </trkpt>
      <trkpt lat="46.99466" lon="-0.9728">
        <ele>110.551</ele>
        <time>2020-05-27T17:49:17Z</time>
      </trkpt>
      <trkpt lat="46.99467" lon="-0.97278">
        <ele>110.209</ele>
        <time>2020-05-27T17:49:18Z</time>
      </trkpt>
      <trkpt lat="46.99468" lon="-0.97276">
        <ele>109.411</ele>
        <time>2020-05-27T17:49:19Z</time>
      </trkpt>
      <trkpt lat="46.99469" lon="-0.97274">
        <ele>107.979</ele>
        <time>2020-05-27T17:49:20Z</time>
      </trkpt>
      <trkpt lat="46.99469" lon="-0.97271">
        <ele>107.659</ele>
        <time>2020-05-27T17:49:21Z</time>
      </trkpt>
      <trkpt lat="46.9947" lon="-0.9727">
        <ele>107.51</ele>
        <time>2020-05-27T17:49:22Z</time>
      </trkpt>
      <trkpt lat="46.9947" lon="-0.97268">
        <ele>108.013</ele>
        <time>2020-05-27T17:49:23Z</time>
      </trkpt>
      <trkpt lat="46.9947" lon="-0.97266">
        <ele>107.938</ele>
        <time>2020-05-27T17:49:24Z</time>
      </trkpt>
      <trkpt lat="46.99471" lon="-0.97265">
        <ele>109.434</ele>
        <time>2020-05-27T17:49:25Z</time>
      </trkpt>
      <trkpt lat="46.99471" lon="-0.97263">
        <ele>108.031</ele>
        <time>2020-05-27T17:49:26Z</time>
      </trkpt>
      <trkpt lat="46.99472" lon="-0.97261">
        <ele>108.738</ele>
        <time>2020-05-27T17:49:27Z</time>
      </trkpt>
      <trkpt lat="46.99473" lon="-0.97258">
        <ele>109.265</ele>
        <time>2020-05-27T17:49:28Z</time>
      </trkpt>
      <trkpt lat="46.99474" lon="-0.97255">
        <ele>109.597</ele>
        <time>2020-05-27T17:49:29Z</time>
      </trkpt>
      <trkpt lat="46.99475" lon="-0.97253">
        <ele>109.543</ele>
        <time>2020-05-27T17:49:30Z</time>
      </trkpt>
      <trkpt lat="46.99476" lon="-0.9725">
        <ele>108.315</ele>
        <time>2020-05-27T17:49:31Z</time>
      </trkpt>
      <trkpt lat="46.99477" lon="-0.97248">
        <ele>106.977</ele>
        <time>2020-05-27T17:49:32Z</time>
      </trkpt>
      <trkpt lat="46.99478" lon="-0.97244">
        <ele>106.057</ele>
        <time>2020-05-27T17:49:33Z</time>
      </trkpt>
      <trkpt lat="46.99479" lon="-0.97241">
        <ele>105.04</ele>
        <time>2020-05-27T17:49:34Z</time>
      </trkpt>
      <trkpt lat="46.99479" lon="-0.97239">
        <ele>104.92</ele>
        <time>2020-05-27T17:49:35Z</time>
      </trkpt>
      <trkpt lat="46.99479" lon="-0.97239">
        <ele>104.823</ele>
        <time>2020-05-27T17:49:36Z</time>
      </trkpt>
      <trkpt lat="46.99479" lon="-0.97239">
        <ele>104.392</ele>
        <time>2020-05-27T17:49:37Z</time>
      </trkpt>
      <trkpt lat="46.99479" lon="-0.97238">
        <ele>104.963</ele>
        <time>2020-05-27T17:49:38Z</time>
      </trkpt>
      <trkpt lat="46.99479" lon="-0.97238">
        <ele>104.612</ele>
        <time>2020-05-27T17:49:39Z</time>
      </trkpt>
      <trkpt lat="46.99479" lon="-0.97238">
        <ele>104.131</ele>
        <time>2020-05-27T17:49:40Z</time>
      </trkpt>
      <trkpt lat="46.99479" lon="-0.97237">
        <ele>103.442</ele>
        <time>2020-05-27T17:49:41Z</time>
      </trkpt>
      <trkpt lat="46.99479" lon="-0.97237">
        <ele>103.351</ele>
        <time>2020-05-27T17:49:42Z</time>
      </trkpt>
      <trkpt lat="46.99478" lon="-0.97237">
        <ele>103.684</ele>
        <time>2020-05-27T17:49:43Z</time>
      </trkpt>
      <trkpt lat="46.99478" lon="-0.97237">
        <ele>104.218</ele>
        <time>2020-05-27T17:49:44Z</time>
      </trkpt>
      <trkpt lat="46.99478" lon="-0.97237">
        <ele>104.57</ele>
        <time>2020-05-27T17:49:45Z</time>
      </trkpt>
      <trkpt lat="46.99477" lon="-0.97237">
        <ele>104.621</ele>
        <time>2020-05-27T17:49:46Z</time>
      </trkpt>
      <trkpt lat="46.99477" lon="-0.97237">
        <ele>104.467</ele>
        <time>2020-05-27T17:49:47Z</time>
      </trkpt>
      <trkpt lat="46.99477" lon="-0.97237">
        <ele>104.321</ele>
        <time>2020-05-27T17:49:48Z</time>
      </trkpt>
      <trkpt lat="46.99477" lon="-0.97237">
        <ele>104.604</ele>
        <time>2020-05-27T17:49:49Z</time>
      </trkpt>
      <trkpt lat="46.99477" lon="-0.97237">
        <ele>105.816</ele>
        <time>2020-05-27T17:49:50Z</time>
      </trkpt>
      <trkpt lat="46.99477" lon="-0.97236">
        <ele>106.627</ele>
        <time>2020-05-27T17:49:51Z</time>
      </trkpt>
      <trkpt lat="46.99477" lon="-0.97236">
        <ele>106.713</ele>
        <time>2020-05-27T17:49:52Z</time>
      </trkpt>
      <trkpt lat="46.99477" lon="-0.97236">
        <ele>106.64</ele>
        <time>2020-05-27T17:49:53Z</time>
      </trkpt>
      <trkpt lat="46.99477" lon="-0.97236">
        <ele>106.585</ele>
        <time>2020-05-27T17:49:54Z</time>
      </trkpt>
      <trkpt lat="46.99477" lon="-0.97236">
        <ele>106.8</ele>
        <time>2020-05-27T17:49:55Z</time>
      </trkpt>
      <trkpt lat="46.99478" lon="-0.97236">
        <ele>106.577</ele>
        <time>2020-05-27T17:49:56Z</time>
      </trkpt>
      <trkpt lat="46.99478" lon="-0.97236">
        <ele>106.152</ele>
        <time>2020-05-27T17:49:57Z</time>
      </trkpt>
      <trkpt lat="46.99478" lon="-0.97236">
        <ele>106.354</ele>
        <time>2020-05-27T17:49:58Z</time>
      </trkpt>
      <trkpt lat="46.99478" lon="-0.97236">
        <ele>106.838</ele>
        <time>2020-05-27T17:49:59Z</time>
      </trkpt>
      <trkpt lat="46.99478" lon="-0.97236">
        <ele>107.684</ele>
        <time>2020-05-27T17:50:00Z</time>
      </trkpt>
      <trkpt lat="46.99478" lon="-0.97235">
        <ele>107.884</ele>
        <time>2020-05-27T17:50:02Z</time>
      </trkpt>
      <trkpt lat="46.99478" lon="-0.97236">
        <ele>107.532</ele>
        <time>2020-05-27T17:50:03Z</time>
      </trkpt>
      <trkpt lat="46.99478" lon="-0.97236">
        <ele>107.516</ele>
        <time>2020-05-27T17:50:04Z</time>
      </trkpt>
      <trkpt lat="46.99478" lon="-0.97236">
        <ele>107.457</ele>
        <time>2020-05-27T17:50:05Z</time>
      </trkpt>
      <trkpt lat="46.99478" lon="-0.97236">
        <ele>107.479</ele>
        <time>2020-05-27T17:50:06Z</time>
      </trkpt>
      <trkpt lat="46.99478" lon="-0.97236">
        <ele>107.475</ele>
        <time>2020-05-27T17:50:07Z</time>
      </trkpt>
      <trkpt lat="46.99478" lon="-0.97236">
        <ele>107.465</ele>
        <time>2020-05-27T17:50:08Z</time>
      </trkpt>
      <trkpt lat="46.99478" lon="-0.97236">
        <ele>107.516</ele>
        <time>2020-05-27T17:50:09Z</time>
      </trkpt>
      <trkpt lat="46.99478" lon="-0.97236">
        <ele>107.67</ele>
        <time>2020-05-27T17:50:10Z</time>
      </trkpt>
      <trkpt lat="46.99478" lon="-0.97236">
        <ele>107.672</ele>
        <time>2020-05-27T17:50:11Z</time>
      </trkpt>
      <trkpt lat="46.99478" lon="-0.97236">
        <ele>108.716</ele>
        <time>2020-05-27T17:50:12Z</time>
      </trkpt>
      <trkpt lat="46.99477" lon="-0.97236">
        <ele>108.779</ele>
        <time>2020-05-27T17:50:13Z</time>
      </trkpt>
      <trkpt lat="46.99477" lon="-0.97237">
        <ele>108.022</ele>
        <time>2020-05-27T17:50:14Z</time>
      </trkpt>
      <trkpt lat="46.99476" lon="-0.97239">
        <ele>106.818</ele>
        <time>2020-05-27T17:50:15Z</time>
      </trkpt>
      <trkpt lat="46.99475" lon="-0.97239">
        <ele>106.469</ele>
        <time>2020-05-27T17:50:16Z</time>
      </trkpt>
      <trkpt lat="46.99475" lon="-0.97238">
        <ele>106.059</ele>
        <time>2020-05-27T17:50:17Z</time>
      </trkpt>
      <trkpt lat="46.99475" lon="-0.97238">
        <ele>104.878</ele>
        <time>2020-05-27T17:50:18Z</time>
      </trkpt>
      <trkpt lat="46.99474" lon="-0.97239">
        <ele>103.992</ele>
        <time>2020-05-27T17:50:19Z</time>
      </trkpt>
      <trkpt lat="46.99474" lon="-0.97239">
        <ele>104.538</ele>
        <time>2020-05-27T17:50:20Z</time>
      </trkpt>
      <trkpt lat="46.99473" lon="-0.97239">
        <ele>104.299</ele>
        <time>2020-05-27T17:50:21Z</time>
      </trkpt>
      <trkpt lat="46.99473" lon="-0.97239">
        <ele>105.037</ele>
        <time>2020-05-27T17:50:22Z</time>
      </trkpt>
      <trkpt lat="46.99472" lon="-0.9724">
        <ele>104.397</ele>
        <time>2020-05-27T17:50:23Z</time>
      </trkpt>
      <trkpt lat="46.99471" lon="-0.97241">
        <ele>103.636</ele>
        <time>2020-05-27T17:50:24Z</time>
      </trkpt>
      <trkpt lat="46.99471" lon="-0.97241">
        <ele>104.725</ele>
        <time>2020-05-27T17:50:25Z</time>
      </trkpt>
      <trkpt lat="46.9947" lon="-0.97243">
        <ele>106.46</ele>
        <time>2020-05-27T17:50:26Z</time>
      </trkpt>
      <trkpt lat="46.99469" lon="-0.97246">
        <ele>106.496</ele>
        <time>2020-05-27T17:50:27Z</time>
      </trkpt>
      <trkpt lat="46.99469" lon="-0.97249">
        <ele>105.831</ele>
        <time>2020-05-27T17:50:28Z</time>
      </trkpt>
      <trkpt lat="46.99469" lon="-0.97251">
        <ele>105.457</ele>
        <time>2020-05-27T17:50:29Z</time>
      </trkpt>
      <trkpt lat="46.99469" lon="-0.97253">
        <ele>104.869</ele>
        <time>2020-05-27T17:50:30Z</time>
      </trkpt>
      <trkpt lat="46.99469" lon="-0.97255">
        <ele>104.756</ele>
        <time>2020-05-27T17:50:31Z</time>
      </trkpt>
      <trkpt lat="46.99469" lon="-0.97256">
        <ele>105.162</ele>
        <time>2020-05-27T17:50:32Z</time>
      </trkpt>
      <trkpt lat="46.99469" lon="-0.97256">
        <ele>105.912</ele>
        <time>2020-05-27T17:50:33Z</time>
      </trkpt>
      <trkpt lat="46.9947" lon="-0.97256">
        <ele>106.15</ele>
        <time>2020-05-27T17:50:34Z</time>
      </trkpt>
      <trkpt lat="46.9947" lon="-0.97256">
        <ele>106.94</ele>
        <time>2020-05-27T17:50:35Z</time>
      </trkpt>
      <trkpt lat="46.9947" lon="-0.97256">
        <ele>106.905</ele>
        <time>2020-05-27T17:50:36Z</time>
      </trkpt>
      <trkpt lat="46.9947" lon="-0.97256">
        <ele>106.797</ele>
        <time>2020-05-27T17:50:37Z</time>
      </trkpt>
      <trkpt lat="46.9947" lon="-0.97256">
        <ele>107.219</ele>
        <time>2020-05-27T17:50:38Z</time>
      </trkpt>
      <trkpt lat="46.9947" lon="-0.97256">
        <ele>106.537</ele>
        <time>2020-05-27T17:50:39Z</time>
      </trkpt>
      <trkpt lat="46.9947" lon="-0.97256">
        <ele>107.299</ele>
        <time>2020-05-27T17:50:40Z</time>
      </trkpt>
      <trkpt lat="46.99471" lon="-0.97256">
        <ele>106.514</ele>
        <time>2020-05-27T17:50:41Z</time>
      </trkpt>
      <trkpt lat="46.99471" lon="-0.97256">
        <ele>106.161</ele>
        <time>2020-05-27T17:50:42Z</time>
      </trkpt>
      <trkpt lat="46.99471" lon="-0.97258">
        <ele>104.534</ele>
        <time>2020-05-27T17:50:43Z</time>
      </trkpt>
      <trkpt lat="46.99472" lon="-0.97261">
        <ele>102.814</ele>
        <time>2020-05-27T17:50:45Z</time>
      </trkpt>
      <trkpt lat="46.99472" lon="-0.97262">
        <ele>102.919</ele>
        <time>2020-05-27T17:50:46Z</time>
      </trkpt>
      <trkpt lat="46.99472" lon="-0.97264">
        <ele>102.965</ele>
        <time>2020-05-27T17:50:47Z</time>
      </trkpt>
      <trkpt lat="46.99471" lon="-0.97265">
        <ele>102.936</ele>
        <time>2020-05-27T17:50:48Z</time>
      </trkpt>
      <trkpt lat="46.99472" lon="-0.97266">
        <ele>99.564</ele>
        <time>2020-05-27T17:50:49Z</time>
      </trkpt>
      <trkpt lat="46.99472" lon="-0.97267">
        <ele>99.286</ele>
        <time>2020-05-27T17:50:50Z</time>
      </trkpt>
      <trkpt lat="46.99472" lon="-0.97268">
        <ele>101.303</ele>
        <time>2020-05-27T17:50:51Z</time>
      </trkpt>
      <trkpt lat="46.99472" lon="-0.97269">
        <ele>101.165</ele>
        <time>2020-05-27T17:50:52Z</time>
      </trkpt>
      <trkpt lat="46.99471" lon="-0.9727">
        <ele>101.049</ele>
        <time>2020-05-27T17:50:53Z</time>
      </trkpt>
      <trkpt lat="46.99471" lon="-0.9727">
        <ele>101.783</ele>
        <time>2020-05-27T17:50:54Z</time>
      </trkpt>
      <trkpt lat="46.99471" lon="-0.9727">
        <ele>101.667</ele>
        <time>2020-05-27T17:50:55Z</time>
      </trkpt>
      <trkpt lat="46.99471" lon="-0.9727">
        <ele>101.57</ele>
        <time>2020-05-27T17:50:56Z</time>
      </trkpt>
      <trkpt lat="46.9947" lon="-0.9727">
        <ele>100.862</ele>
        <time>2020-05-27T17:50:57Z</time>
      </trkpt>
      <trkpt lat="46.9947" lon="-0.9727">
        <ele>101.005</ele>
        <time>2020-05-27T17:50:58Z</time>
      </trkpt>
      <trkpt lat="46.9947" lon="-0.9727">
        <ele>101.807</ele>
        <time>2020-05-27T17:51:01Z</time>
      </trkpt>
      <trkpt lat="46.9947" lon="-0.9727">
        <ele>101.244</ele>
        <time>2020-05-27T17:51:01Z</time>
      </trkpt>
      <trkpt lat="46.9947" lon="-0.97271">
        <ele>101.426</ele>
        <time>2020-05-27T17:51:01Z</time>
      </trkpt>
      <trkpt lat="46.9947" lon="-0.97271">
        <ele>101.307</ele>
        <time>2020-05-27T17:51:02Z</time>
      </trkpt>
      <trkpt lat="46.9947" lon="-0.97271">
        <ele>101.306</ele>
        <time>2020-05-27T17:51:03Z</time>
      </trkpt>
      <trkpt lat="46.9947" lon="-0.97271">
        <ele>101.568</ele>
        <time>2020-05-27T17:51:04Z</time>
      </trkpt>
      <trkpt lat="46.9947" lon="-0.97271">
        <ele>101.522</ele>
        <time>2020-05-27T17:51:05Z</time>
      </trkpt>
      <trkpt lat="46.9947" lon="-0.97271">
        <ele>102.249</ele>
        <time>2020-05-27T17:51:06Z</time>
      </trkpt>
      <trkpt lat="46.9947" lon="-0.97271">
        <ele>102.492</ele>
        <time>2020-05-27T17:51:07Z</time>
      </trkpt>
      <trkpt lat="46.9947" lon="-0.97271">
        <ele>102.492</ele>
        <time>2020-05-27T17:51:07Z</time>
      </trkpt>
      <trkpt lat="46.9947" lon="-0.97272">
        <ele>102.519</ele>
        <time>2020-05-27T17:51:08Z</time>
      </trkpt>
      <trkpt lat="46.9947" lon="-0.97272">
        <ele>102.549</ele>
        <time>2020-05-27T17:51:09Z</time>
      </trkpt>
      <trkpt lat="46.9947" lon="-0.97272">
        <ele>102.659</ele>
        <time>2020-05-27T17:51:10Z</time>
      </trkpt>
      <trkpt lat="46.9947" lon="-0.97272">
        <ele>102.685</ele>
        <time>2020-05-27T17:51:11Z</time>
      </trkpt>
      <trkpt lat="46.9947" lon="-0.97272">
        <ele>102.703</ele>
        <time>2020-05-27T17:51:12Z</time>
      </trkpt>
      <trkpt lat="46.9947" lon="-0.97272">
        <ele>102.721</ele>
        <time>2020-05-27T17:51:13Z</time>
      </trkpt>
      <trkpt lat="46.9947" lon="-0.97272">
        <ele>138.024</ele>
        <time>2020-05-27T17:51:14Z</time>
      </trkpt>
      <trkpt lat="46.9947" lon="-0.97272">
        <ele>126.451</ele>
        <time>2020-05-27T17:51:15Z</time>
      </trkpt>
      <trkpt lat="46.9947" lon="-0.97272">
        <ele>119.418</ele>
        <time>2020-05-27T17:51:16Z</time>
      </trkpt>
      <trkpt lat="46.9947" lon="-0.97272">
        <ele>112.403</ele>
        <time>2020-05-27T17:51:17Z</time>
      </trkpt>
      <trkpt lat="46.9947" lon="-0.97271">
        <ele>110.721</ele>
        <time>2020-05-27T17:51:18Z</time>
      </trkpt>
      <trkpt lat="46.9947" lon="-0.97272">
        <ele>108.965</ele>
        <time>2020-05-27T17:51:19Z</time>
      </trkpt>
      <trkpt lat="46.99469" lon="-0.97272">
        <ele>107.127</ele>
        <time>2020-05-27T17:51:20Z</time>
      </trkpt>
      <trkpt lat="46.99469" lon="-0.97272">
        <ele>105.837</ele>
        <time>2020-05-27T17:51:21Z</time>
      </trkpt>
      <trkpt lat="46.99469" lon="-0.97272">
        <ele>103.355</ele>
        <time>2020-05-27T17:51:22Z</time>
      </trkpt>
      <trkpt lat="46.9947" lon="-0.97273">
        <ele>102.97</ele>
        <time>2020-05-27T17:51:23Z</time>
      </trkpt>
      <trkpt lat="46.9947" lon="-0.97273">
        <ele>102.459</ele>
        <time>2020-05-27T17:51:24Z</time>
      </trkpt>
      <trkpt lat="46.9947" lon="-0.97273">
        <ele>100.841</ele>
        <time>2020-05-27T17:51:25Z</time>
      </trkpt>
      <trkpt lat="46.9947" lon="-0.97273">
        <ele>100.348</ele>
        <time>2020-05-27T17:51:26Z</time>
      </trkpt>
      <trkpt lat="46.9947" lon="-0.97273">
        <ele>100.007</ele>
        <time>2020-05-27T17:51:27Z</time>
      </trkpt>
      <trkpt lat="46.9947" lon="-0.97273">
        <ele>99.821</ele>
        <time>2020-05-27T17:51:28Z</time>
      </trkpt>
      <trkpt lat="46.9947" lon="-0.97273">
        <ele>100.192</ele>
        <time>2020-05-27T17:51:29Z</time>
      </trkpt>
      <trkpt lat="46.9947" lon="-0.97273">
        <ele>100.16</ele>
        <time>2020-05-27T17:51:30Z</time>
      </trkpt>
      <trkpt lat="46.9947" lon="-0.97273">
        <ele>99.982</ele>
        <time>2020-05-27T17:51:31Z</time>
      </trkpt>
      <trkpt lat="46.9947" lon="-0.97273">
        <ele>100.346</ele>
        <time>2020-05-27T17:51:32Z</time>
      </trkpt>
      <trkpt lat="46.9947" lon="-0.97273">
        <ele>100.34</ele>
        <time>2020-05-27T17:51:33Z</time>
      </trkpt>
      <trkpt lat="46.9947" lon="-0.97273">
        <ele>100.58</ele>
        <time>2020-05-27T17:51:34Z</time>
      </trkpt>
      <trkpt lat="46.9947" lon="-0.97273">
        <ele>100.529</ele>
        <time>2020-05-27T17:51:35Z</time>
      </trkpt>
      <trkpt lat="46.9947" lon="-0.97273">
        <ele>100.397</ele>
        <time>2020-05-27T17:51:36Z</time>
      </trkpt>
      <trkpt lat="46.9947" lon="-0.97273">
        <ele>100.322</ele>
        <time>2020-05-27T17:51:37Z</time>
      </trkpt>
      <trkpt lat="46.9947" lon="-0.97273">
        <ele>100.484</ele>
        <time>2020-05-27T17:51:38Z</time>
      </trkpt>
      <trkpt lat="46.9947" lon="-0.97273">
        <ele>100.337</ele>
        <time>2020-05-27T17:51:39Z</time>
      </trkpt>
      <trkpt lat="46.99471" lon="-0.97273">
        <ele>99.933</ele>
        <time>2020-05-27T17:51:41Z</time>
      </trkpt>
      <trkpt lat="46.9947" lon="-0.97273">
        <ele>100.404</ele>
        <time>2020-05-27T17:51:42Z</time>
      </trkpt>
      <trkpt lat="46.99469" lon="-0.97275">
        <ele>101.013</ele>
        <time>2020-05-27T17:51:43Z</time>
      </trkpt>
      <trkpt lat="46.99468" lon="-0.97276">
        <ele>102.81</ele>
        <time>2020-05-27T17:51:44Z</time>
      </trkpt>
      <trkpt lat="46.99466" lon="-0.97278">
        <ele>104.447</ele>
        <time>2020-05-27T17:51:45Z</time>
      </trkpt>
      <trkpt lat="46.99465" lon="-0.97279">
        <ele>104.338</ele>
        <time>2020-05-27T17:51:46Z</time>
      </trkpt>
      <trkpt lat="46.99463" lon="-0.97281">
        <ele>106.982</ele>
        <time>2020-05-27T17:51:47Z</time>
      </trkpt>
      <trkpt lat="46.99462" lon="-0.97282">
        <ele>108.208</ele>
        <time>2020-05-27T17:51:48Z</time>
      </trkpt>
      <trkpt lat="46.99461" lon="-0.97283">
        <ele>109.045</ele>
        <time>2020-05-27T17:51:49Z</time>
      </trkpt>
      <trkpt lat="46.99461" lon="-0.97283">
        <ele>109.344</ele>
        <time>2020-05-27T17:51:50Z</time>
      </trkpt>
      <trkpt lat="46.99462" lon="-0.97283">
        <ele>110.477</ele>
        <time>2020-05-27T17:51:51Z</time>
      </trkpt>
      <trkpt lat="46.99462" lon="-0.97283">
        <ele>110.523</ele>
        <time>2020-05-27T17:51:52Z</time>
      </trkpt>
      <trkpt lat="46.99462" lon="-0.97282">
        <ele>111.129</ele>
        <time>2020-05-27T17:51:53Z</time>
      </trkpt>
      <trkpt lat="46.99462" lon="-0.97282">
        <ele>111.428</ele>
        <time>2020-05-27T17:51:54Z</time>
      </trkpt>
      <trkpt lat="46.99461" lon="-0.97283">
        <ele>111.186</ele>
        <time>2020-05-27T17:51:55Z</time>
      </trkpt>
      <trkpt lat="46.9946" lon="-0.97284">
        <ele>111.664</ele>
        <time>2020-05-27T17:51:56Z</time>
      </trkpt>
      <trkpt lat="46.99459" lon="-0.97285">
        <ele>111.813</ele>
        <time>2020-05-27T17:51:57Z</time>
      </trkpt>
      <trkpt lat="46.99457" lon="-0.97287">
        <ele>111.432</ele>
        <time>2020-05-27T17:51:58Z</time>
      </trkpt>
      <trkpt lat="46.99456" lon="-0.97289">
        <ele>111.327</ele>
        <time>2020-05-27T17:51:59Z</time>
      </trkpt>
      <trkpt lat="46.99455" lon="-0.97291">
        <ele>111.745</ele>
        <time>2020-05-27T17:52:00Z</time>
      </trkpt>
      <trkpt lat="46.99454" lon="-0.97294">
        <ele>112.432</ele>
        <time>2020-05-27T17:52:01Z</time>
      </trkpt>
      <trkpt lat="46.99453" lon="-0.97297">
        <ele>112.122</ele>
        <time>2020-05-27T17:52:02Z</time>
      </trkpt>
      <trkpt lat="46.99452" lon="-0.973">
        <ele>111.535</ele>
        <time>2020-05-27T17:52:03Z</time>
      </trkpt>
      <trkpt lat="46.9945" lon="-0.97302">
        <ele>110.363</ele>
        <time>2020-05-27T17:52:04Z</time>
      </trkpt>
      <trkpt lat="46.99449" lon="-0.97305">
        <ele>109.251</ele>
        <time>2020-05-27T17:52:05Z</time>
      </trkpt>
      <trkpt lat="46.99448" lon="-0.97307">
        <ele>109.417</ele>
        <time>2020-05-27T17:52:06Z</time>
      </trkpt>
      <trkpt lat="46.99447" lon="-0.9731">
        <ele>109.054</ele>
        <time>2020-05-27T17:52:07Z</time>
      </trkpt>
      <trkpt lat="46.99446" lon="-0.97313">
        <ele>110.431</ele>
        <time>2020-05-27T17:52:08Z</time>
      </trkpt>
      <trkpt lat="46.99446" lon="-0.97316">
        <ele>110.444</ele>
        <time>2020-05-27T17:52:09Z</time>
      </trkpt>
      <trkpt lat="46.99445" lon="-0.97319">
        <ele>110.629</ele>
        <time>2020-05-27T17:52:10Z</time>
      </trkpt>
      <trkpt lat="46.99444" lon="-0.97322">
        <ele>110.557</ele>
        <time>2020-05-27T17:52:11Z</time>
      </trkpt>
      <trkpt lat="46.99443" lon="-0.97325">
        <ele>110.09</ele>
        <time>2020-05-27T17:52:12Z</time>
      </trkpt>
      <trkpt lat="46.99442" lon="-0.97328">
        <ele>110.022</ele>
        <time>2020-05-27T17:52:13Z</time>
      </trkpt>
      <trkpt lat="46.9944" lon="-0.97331">
        <ele>110.051</ele>
        <time>2020-05-27T17:52:14Z</time>
      </trkpt>
      <trkpt lat="46.99438" lon="-0.97333">
        <ele>109.795</ele>
        <time>2020-05-27T17:52:15Z</time>
      </trkpt>
      <trkpt lat="46.99437" lon="-0.97336">
        <ele>109.676</ele>
        <time>2020-05-27T17:52:16Z</time>
      </trkpt>
      <trkpt lat="46.99435" lon="-0.97338">
        <ele>109.242</ele>
        <time>2020-05-27T17:52:17Z</time>
      </trkpt>
      <trkpt lat="46.99433" lon="-0.9734">
        <ele>109.172</ele>
        <time>2020-05-27T17:52:18Z</time>
      </trkpt>
      <trkpt lat="46.99431" lon="-0.97341">
        <ele>109.181</ele>
        <time>2020-05-27T17:52:19Z</time>
      </trkpt>
      <trkpt lat="46.99429" lon="-0.97341">
        <ele>108.603</ele>
        <time>2020-05-27T17:52:20Z</time>
      </trkpt>
      <trkpt lat="46.99427" lon="-0.9734">
        <ele>107.806</ele>
        <time>2020-05-27T17:52:21Z</time>
      </trkpt>
      <trkpt lat="46.99425" lon="-0.97338">
        <ele>107.603</ele>
        <time>2020-05-27T17:52:22Z</time>
      </trkpt>
      <trkpt lat="46.99424" lon="-0.97335">
        <ele>108.145</ele>
        <time>2020-05-27T17:52:23Z</time>
      </trkpt>
      <trkpt lat="46.99424" lon="-0.97332">
        <ele>107.868</ele>
        <time>2020-05-27T17:52:24Z</time>
      </trkpt>
      <trkpt lat="46.99424" lon="-0.97329">
        <ele>106.121</ele>
        <time>2020-05-27T17:52:25Z</time>
      </trkpt>
      <trkpt lat="46.99424" lon="-0.97326">
        <ele>102.979</ele>
        <time>2020-05-27T17:52:26Z</time>
      </trkpt>
      <trkpt lat="46.99425" lon="-0.97323">
        <ele>103.78</ele>
        <time>2020-05-27T17:52:27Z</time>
      </trkpt>
      <trkpt lat="46.99425" lon="-0.97319">
        <ele>104.269</ele>
        <time>2020-05-27T17:52:28Z</time>
      </trkpt>
      <trkpt lat="46.99426" lon="-0.97316">
        <ele>105.225</ele>
        <time>2020-05-27T17:52:29Z</time>
      </trkpt>
      <trkpt lat="46.99427" lon="-0.97313">
        <ele>105.078</ele>
        <time>2020-05-27T17:52:30Z</time>
      </trkpt>
      <trkpt lat="46.99428" lon="-0.9731">
        <ele>105.169</ele>
        <time>2020-05-27T17:52:31Z</time>
      </trkpt>
      <trkpt lat="46.99429" lon="-0.97308">
        <ele>105.852</ele>
        <time>2020-05-27T17:52:32Z</time>
      </trkpt>
      <trkpt lat="46.99429" lon="-0.97305">
        <ele>105.949</ele>
        <time>2020-05-27T17:52:33Z</time>
      </trkpt>
      <trkpt lat="46.99429" lon="-0.97302">
        <ele>105.629</ele>
        <time>2020-05-27T17:52:34Z</time>
      </trkpt>
      <trkpt lat="46.99429" lon="-0.97299">
        <ele>105.237</ele>
        <time>2020-05-27T17:52:35Z</time>
      </trkpt>
      <trkpt lat="46.99429" lon="-0.97297">
        <ele>105.26</ele>
        <time>2020-05-27T17:52:36Z</time>
      </trkpt>
      <trkpt lat="46.99429" lon="-0.97294">
        <ele>105.728</ele>
        <time>2020-05-27T17:52:37Z</time>
      </trkpt>
      <trkpt lat="46.99429" lon="-0.97291">
        <ele>105.876</ele>
        <time>2020-05-27T17:52:38Z</time>
      </trkpt>
      <trkpt lat="46.99429" lon="-0.97288">
        <ele>106.242</ele>
        <time>2020-05-27T17:52:39Z</time>
      </trkpt>
      <trkpt lat="46.99429" lon="-0.97286">
        <ele>106.2</ele>
        <time>2020-05-27T17:52:40Z</time>
      </trkpt>
      <trkpt lat="46.99429" lon="-0.97283">
        <ele>105.443</ele>
        <time>2020-05-27T17:52:41Z</time>
      </trkpt>
      <trkpt lat="46.99429" lon="-0.97281">
        <ele>106.277</ele>
        <time>2020-05-27T17:52:42Z</time>
      </trkpt>
      <trkpt lat="46.99429" lon="-0.97279">
        <ele>107.004</ele>
        <time>2020-05-27T17:52:43Z</time>
      </trkpt>
      <trkpt lat="46.99429" lon="-0.97277">
        <ele>108</ele>
        <time>2020-05-27T17:52:44Z</time>
      </trkpt>
      <trkpt lat="46.99429" lon="-0.97278">
        <ele>107.519</ele>
        <time>2020-05-27T17:52:45Z</time>
      </trkpt>
      <trkpt lat="46.99428" lon="-0.97278">
        <ele>107.807</ele>
        <time>2020-05-27T17:52:46Z</time>
      </trkpt>
      <trkpt lat="46.99428" lon="-0.97278">
        <ele>109.076</ele>
        <time>2020-05-27T17:52:47Z</time>
      </trkpt>
      <trkpt lat="46.99428" lon="-0.97278">
        <ele>110.101</ele>
        <time>2020-05-27T17:52:48Z</time>
      </trkpt>
      <trkpt lat="46.99429" lon="-0.97278">
        <ele>109.921</ele>
        <time>2020-05-27T17:52:49Z</time>
      </trkpt>
      <trkpt lat="46.99429" lon="-0.97278">
        <ele>110.511</ele>
        <time>2020-05-27T17:52:50Z</time>
      </trkpt>
      <trkpt lat="46.99429" lon="-0.97278">
        <ele>110.501</ele>
        <time>2020-05-27T17:52:51Z</time>
      </trkpt>
      <trkpt lat="46.99429" lon="-0.97278">
        <ele>110.265</ele>
        <time>2020-05-27T17:52:52Z</time>
      </trkpt>
      <trkpt lat="46.9943" lon="-0.97278">
        <ele>110.048</ele>
        <time>2020-05-27T17:52:53Z</time>
      </trkpt>
      <trkpt lat="46.9943" lon="-0.97278">
        <ele>109.605</ele>
        <time>2020-05-27T17:52:54Z</time>
      </trkpt>
      <trkpt lat="46.9943" lon="-0.97278">
        <ele>109.856</ele>
        <time>2020-05-27T17:52:55Z</time>
      </trkpt>
      <trkpt lat="46.99432" lon="-0.97279">
        <ele>110.496</ele>
        <time>2020-05-27T17:52:56Z</time>
      </trkpt>
      <trkpt lat="46.99433" lon="-0.97281">
        <ele>109.959</ele>
        <time>2020-05-27T17:52:57Z</time>
      </trkpt>
      <trkpt lat="46.99434" lon="-0.97284">
        <ele>109.926</ele>
        <time>2020-05-27T17:52:58Z</time>
      </trkpt>
      <trkpt lat="46.99435" lon="-0.97286">
        <ele>109.835</ele>
        <time>2020-05-27T17:52:59Z</time>
      </trkpt>
      <trkpt lat="46.99437" lon="-0.97287">
        <ele>110.012</ele>
        <time>2020-05-27T17:53:00Z</time>
      </trkpt>
      <trkpt lat="46.99439" lon="-0.97286">
        <ele>110.286</ele>
        <time>2020-05-27T17:53:01Z</time>
      </trkpt>
      <trkpt lat="46.9944" lon="-0.97284">
        <ele>110.021</ele>
        <time>2020-05-27T17:53:02Z</time>
      </trkpt>
      <trkpt lat="46.99441" lon="-0.97282">
        <ele>109.476</ele>
        <time>2020-05-27T17:53:03Z</time>
      </trkpt>
      <trkpt lat="46.99442" lon="-0.9728">
        <ele>109.835</ele>
        <time>2020-05-27T17:53:04Z</time>
      </trkpt>
      <trkpt lat="46.99443" lon="-0.97277">
        <ele>109.946</ele>
        <time>2020-05-27T17:53:05Z</time>
      </trkpt>
      <trkpt lat="46.99444" lon="-0.97275">
        <ele>109.096</ele>
        <time>2020-05-27T17:53:06Z</time>
      </trkpt>
      <trkpt lat="46.99445" lon="-0.97274">
        <ele>108.786</ele>
        <time>2020-05-27T17:53:07Z</time>
      </trkpt>
      <trkpt lat="46.99446" lon="-0.97272">
        <ele>108.075</ele>
        <time>2020-05-27T17:53:08Z</time>
      </trkpt>
      <trkpt lat="46.99447" lon="-0.97271">
        <ele>107.718</ele>
        <time>2020-05-27T17:53:09Z</time>
      </trkpt>
      <trkpt lat="46.99448" lon="-0.97268">
        <ele>107.852</ele>
        <time>2020-05-27T17:53:10Z</time>
      </trkpt>
      <trkpt lat="46.99449" lon="-0.97265">
        <ele>106.958</ele>
        <time>2020-05-27T17:53:11Z</time>
      </trkpt>
      <trkpt lat="46.99449" lon="-0.97263">
        <ele>107.774</ele>
        <time>2020-05-27T17:53:12Z</time>
      </trkpt>
      <trkpt lat="46.9945" lon="-0.97259">
        <ele>107.758</ele>
        <time>2020-05-27T17:53:14Z</time>
      </trkpt>
      <trkpt lat="46.9945" lon="-0.97257">
        <ele>108.129</ele>
        <time>2020-05-27T17:53:15Z</time>
      </trkpt>
      <trkpt lat="46.99451" lon="-0.97254">
        <ele>108.76</ele>
        <time>2020-05-27T17:53:16Z</time>
      </trkpt>
      <trkpt lat="46.99451" lon="-0.97251">
        <ele>108.213</ele>
        <time>2020-05-27T17:53:17Z</time>
      </trkpt>
      <trkpt lat="46.99451" lon="-0.97249">
        <ele>108.388</ele>
        <time>2020-05-27T17:53:18Z</time>
      </trkpt>
      <trkpt lat="46.99452" lon="-0.97246">
        <ele>108.163</ele>
        <time>2020-05-27T17:53:19Z</time>
      </trkpt>
      <trkpt lat="46.99452" lon="-0.97243">
        <ele>108.287</ele>
        <time>2020-05-27T17:53:20Z</time>
      </trkpt>
      <trkpt lat="46.99453" lon="-0.9724">
        <ele>108.41</ele>
        <time>2020-05-27T17:53:21Z</time>
      </trkpt>
      <trkpt lat="46.99453" lon="-0.97237">
        <ele>108.445</ele>
        <time>2020-05-27T17:53:22Z</time>
      </trkpt>
      <trkpt lat="46.99453" lon="-0.97235">
        <ele>109.32</ele>
        <time>2020-05-27T17:53:23Z</time>
      </trkpt>
      <trkpt lat="46.99453" lon="-0.97233">
        <ele>108.725</ele>
        <time>2020-05-27T17:53:24Z</time>
      </trkpt>
      <trkpt lat="46.99454" lon="-0.9723">
        <ele>108.957</ele>
        <time>2020-05-27T17:53:25Z</time>
      </trkpt>
      <trkpt lat="46.99456" lon="-0.97228">
        <ele>110.595</ele>
        <time>2020-05-27T17:53:26Z</time>
      </trkpt>
      <trkpt lat="46.99457" lon="-0.97225">
        <ele>110.861</ele>
        <time>2020-05-27T17:53:27Z</time>
      </trkpt>
      <trkpt lat="46.99458" lon="-0.97222">
        <ele>111.218</ele>
        <time>2020-05-27T17:53:28Z</time>
      </trkpt>
      <trkpt lat="46.99459" lon="-0.97219">
        <ele>111.196</ele>
        <time>2020-05-27T17:53:29Z</time>
      </trkpt>
      <trkpt lat="46.99459" lon="-0.97216">
        <ele>110.715</ele>
        <time>2020-05-27T17:53:30Z</time>
      </trkpt>
      <trkpt lat="46.99459" lon="-0.97213">
        <ele>111.325</ele>
        <time>2020-05-27T17:53:31Z</time>
      </trkpt>
      <trkpt lat="46.99459" lon="-0.97211">
        <ele>111.91</ele>
        <time>2020-05-27T17:53:32Z</time>
      </trkpt>
      <trkpt lat="46.99459" lon="-0.97209">
        <ele>112.501</ele>
        <time>2020-05-27T17:53:33Z</time>
      </trkpt>
      <trkpt lat="46.99459" lon="-0.97206">
        <ele>112.52</ele>
        <time>2020-05-27T17:53:34Z</time>
      </trkpt>
      <trkpt lat="46.99456" lon="-0.972">
        <ele>111.383</ele>
        <time>2020-05-27T17:53:37Z</time>
      </trkpt>
      <trkpt lat="46.99455" lon="-0.97198">
        <ele>112.15</ele>
        <time>2020-05-27T17:53:38Z</time>
      </trkpt>
      <trkpt lat="46.99454" lon="-0.97195">
        <ele>111.648</ele>
        <time>2020-05-27T17:53:39Z</time>
      </trkpt>
      <trkpt lat="46.99454" lon="-0.97193">
        <ele>113.03</ele>
        <time>2020-05-27T17:53:40Z</time>
      </trkpt>
      <trkpt lat="46.99454" lon="-0.97191">
        <ele>112.555</ele>
        <time>2020-05-27T17:53:41Z</time>
      </trkpt>
      <trkpt lat="46.99454" lon="-0.97188">
        <ele>114.581</ele>
        <time>2020-05-27T17:53:42Z</time>
      </trkpt>
      <trkpt lat="46.99454" lon="-0.97185">
        <ele>113.752</ele>
        <time>2020-05-27T17:53:43Z</time>
      </trkpt>
      <trkpt lat="46.99453" lon="-0.97182">
        <ele>114.563</ele>
        <time>2020-05-27T17:53:44Z</time>
      </trkpt>
      <trkpt lat="46.99453" lon="-0.97178">
        <ele>114.275</ele>
        <time>2020-05-27T17:53:45Z</time>
      </trkpt>
      <trkpt lat="46.99452" lon="-0.97174">
        <ele>113.802</ele>
        <time>2020-05-27T17:53:46Z</time>
      </trkpt>
      <trkpt lat="46.99452" lon="-0.97171">
        <ele>114.177</ele>
        <time>2020-05-27T17:53:47Z</time>
      </trkpt>
      <trkpt lat="46.99451" lon="-0.97168">
        <ele>114.119</ele>
        <time>2020-05-27T17:53:48Z</time>
      </trkpt>
      <trkpt lat="46.9945" lon="-0.97165">
        <ele>114.078</ele>
        <time>2020-05-27T17:53:49Z</time>
      </trkpt>
      <trkpt lat="46.99449" lon="-0.97163">
        <ele>114.121</ele>
        <time>2020-05-27T17:53:50Z</time>
      </trkpt>
      <trkpt lat="46.99448" lon="-0.9716">
        <ele>114.222</ele>
        <time>2020-05-27T17:53:51Z</time>
      </trkpt>
      <trkpt lat="46.99446" lon="-0.97158">
        <ele>114.891</ele>
        <time>2020-05-27T17:53:52Z</time>
      </trkpt>
      <trkpt lat="46.99444" lon="-0.97156">
        <ele>114.86</ele>
        <time>2020-05-27T17:53:53Z</time>
      </trkpt>
      <trkpt lat="46.99443" lon="-0.97154">
        <ele>114.662</ele>
        <time>2020-05-27T17:53:54Z</time>
      </trkpt>
      <trkpt lat="46.99441" lon="-0.97154">
        <ele>114.735</ele>
        <time>2020-05-27T17:53:55Z</time>
      </trkpt>
      <trkpt lat="46.9944" lon="-0.97153">
        <ele>115.513</ele>
        <time>2020-05-27T17:53:56Z</time>
      </trkpt>
      <trkpt lat="46.99439" lon="-0.97152">
        <ele>115.361</ele>
        <time>2020-05-27T17:53:57Z</time>
      </trkpt>
      <trkpt lat="46.99438" lon="-0.9715">
        <ele>115.546</ele>
        <time>2020-05-27T17:53:58Z</time>
      </trkpt>
      <trkpt lat="46.99438" lon="-0.97147">
        <ele>114.795</ele>
        <time>2020-05-27T17:53:59Z</time>
      </trkpt>
      <trkpt lat="46.99438" lon="-0.97144">
        <ele>114.901</ele>
        <time>2020-05-27T17:54:00Z</time>
      </trkpt>
      <trkpt lat="46.99438" lon="-0.97142">
        <ele>115.381</ele>
        <time>2020-05-27T17:54:01Z</time>
      </trkpt>
      <trkpt lat="46.99438" lon="-0.97138">
        <ele>116.455</ele>
        <time>2020-05-27T17:54:02Z</time>
      </trkpt>
      <trkpt lat="46.99439" lon="-0.97135">
        <ele>116.048</ele>
        <time>2020-05-27T17:54:03Z</time>
      </trkpt>
      <trkpt lat="46.9944" lon="-0.97131">
        <ele>116.188</ele>
        <time>2020-05-27T17:54:04Z</time>
      </trkpt>
      <trkpt lat="46.99441" lon="-0.97128">
        <ele>116.077</ele>
        <time>2020-05-27T17:54:05Z</time>
      </trkpt>
      <trkpt lat="46.99441" lon="-0.97125">
        <ele>115.064</ele>
        <time>2020-05-27T17:54:06Z</time>
      </trkpt>
      <trkpt lat="46.99442" lon="-0.97123">
        <ele>115.3</ele>
        <time>2020-05-27T17:54:07Z</time>
      </trkpt>
      <trkpt lat="46.99442" lon="-0.9712">
        <ele>114.996</ele>
        <time>2020-05-27T17:54:08Z</time>
      </trkpt>
      <trkpt lat="46.99443" lon="-0.97118">
        <ele>114.753</ele>
        <time>2020-05-27T17:54:09Z</time>
      </trkpt>
      <trkpt lat="46.99443" lon="-0.97116">
        <ele>114.78</ele>
        <time>2020-05-27T17:54:10Z</time>
      </trkpt>
      <trkpt lat="46.99443" lon="-0.97115">
        <ele>114.205</ele>
        <time>2020-05-27T17:54:11Z</time>
      </trkpt>
      <trkpt lat="46.99443" lon="-0.97115">
        <ele>113.963</ele>
        <time>2020-05-27T17:54:12Z</time>
      </trkpt>
      <trkpt lat="46.99443" lon="-0.97115">
        <ele>113.83</ele>
        <time>2020-05-27T17:54:13Z</time>
      </trkpt>
      <trkpt lat="46.99444" lon="-0.97115">
        <ele>114.138</ele>
        <time>2020-05-27T17:54:14Z</time>
      </trkpt>
      <trkpt lat="46.99444" lon="-0.97115">
        <ele>113.979</ele>
        <time>2020-05-27T17:54:15Z</time>
      </trkpt>
      <trkpt lat="46.99444" lon="-0.97115">
        <ele>114.511</ele>
        <time>2020-05-27T17:54:16Z</time>
      </trkpt>
      <trkpt lat="46.99444" lon="-0.97116">
        <ele>115.231</ele>
        <time>2020-05-27T17:54:17Z</time>
      </trkpt>
      <trkpt lat="46.99444" lon="-0.97116">
        <ele>115.268</ele>
        <time>2020-05-27T17:54:18Z</time>
      </trkpt>
      <trkpt lat="46.99443" lon="-0.97114">
        <ele>115.251</ele>
        <time>2020-05-27T17:54:19Z</time>
      </trkpt>
      <trkpt lat="46.99442" lon="-0.97112">
        <ele>114.078</ele>
        <time>2020-05-27T17:54:20Z</time>
      </trkpt>
      <trkpt lat="46.99442" lon="-0.97111">
        <ele>113.421</ele>
        <time>2020-05-27T17:54:21Z</time>
      </trkpt>
      <trkpt lat="46.99441" lon="-0.97111">
        <ele>113.732</ele>
        <time>2020-05-27T17:54:22Z</time>
      </trkpt>
      <trkpt lat="46.99442" lon="-0.97111">
        <ele>114.359</ele>
        <time>2020-05-27T17:54:23Z</time>
      </trkpt>
      <trkpt lat="46.99441" lon="-0.97111">
        <ele>114.046</ele>
        <time>2020-05-27T17:54:24Z</time>
      </trkpt>
      <trkpt lat="46.99441" lon="-0.97111">
        <ele>114.733</ele>
        <time>2020-05-27T17:54:25Z</time>
      </trkpt>
      <trkpt lat="46.99441" lon="-0.97111">
        <ele>114.405</ele>
        <time>2020-05-27T17:54:26Z</time>
      </trkpt>
      <trkpt lat="46.99441" lon="-0.97111">
        <ele>114.186</ele>
        <time>2020-05-27T17:54:27Z</time>
      </trkpt>
      <trkpt lat="46.99441" lon="-0.97111">
        <ele>114.791</ele>
        <time>2020-05-27T17:54:29Z</time>
      </trkpt>
      <trkpt lat="46.99442" lon="-0.97111">
        <ele>115.141</ele>
        <time>2020-05-27T17:54:30Z</time>
      </trkpt>
      <trkpt lat="46.99441" lon="-0.97111">
        <ele>114.494</ele>
        <time>2020-05-27T17:54:31Z</time>
      </trkpt>
      <trkpt lat="46.99441" lon="-0.97111">
        <ele>113.583</ele>
        <time>2020-05-27T17:54:32Z</time>
      </trkpt>
      <trkpt lat="46.99441" lon="-0.97112">
        <ele>113.691</ele>
        <time>2020-05-27T17:54:33Z</time>
      </trkpt>
      <trkpt lat="46.99441" lon="-0.97112">
        <ele>113.71</ele>
        <time>2020-05-27T17:54:34Z</time>
      </trkpt>
      <trkpt lat="46.99441" lon="-0.97112">
        <ele>113.797</ele>
        <time>2020-05-27T17:54:35Z</time>
      </trkpt>
      <trkpt lat="46.99441" lon="-0.97112">
        <ele>113.792</ele>
        <time>2020-05-27T17:54:36Z</time>
      </trkpt>
      <trkpt lat="46.99441" lon="-0.97112">
        <ele>113.789</ele>
        <time>2020-05-27T17:54:37Z</time>
      </trkpt>
      <trkpt lat="46.99442" lon="-0.97112">
        <ele>112.993</ele>
        <time>2020-05-27T17:54:38Z</time>
      </trkpt>
      <trkpt lat="46.99442" lon="-0.97111">
        <ele>113.334</ele>
        <time>2020-05-27T17:54:39Z</time>
      </trkpt>
      <trkpt lat="46.99443" lon="-0.9711">
        <ele>113.084</ele>
        <time>2020-05-27T17:54:40Z</time>
      </trkpt>
      <trkpt lat="46.99444" lon="-0.9711">
        <ele>113.046</ele>
        <time>2020-05-27T17:54:41Z</time>
      </trkpt>
      <trkpt lat="46.99445" lon="-0.9711">
        <ele>112.529</ele>
        <time>2020-05-27T17:54:42Z</time>
      </trkpt>
      <trkpt lat="46.99446" lon="-0.9711">
        <ele>110.804</ele>
        <time>2020-05-27T17:54:43Z</time>
      </trkpt>
      <trkpt lat="46.99448" lon="-0.97109">
        <ele>112.411</ele>
        <time>2020-05-27T17:54:45Z</time>
      </trkpt>
      <trkpt lat="46.99449" lon="-0.97108">
        <ele>112.74</ele>
        <time>2020-05-27T17:54:46Z</time>
      </trkpt>
      <trkpt lat="46.99449" lon="-0.97107">
        <ele>112.711</ele>
        <time>2020-05-27T17:54:47Z</time>
      </trkpt>
      <trkpt lat="46.99449" lon="-0.97107">
        <ele>112.016</ele>
        <time>2020-05-27T17:54:48Z</time>
      </trkpt>
      <trkpt lat="46.9945" lon="-0.97107">
        <ele>111.682</ele>
        <time>2020-05-27T17:54:49Z</time>
      </trkpt>
      <trkpt lat="46.9945" lon="-0.97108">
        <ele>112.144</ele>
        <time>2020-05-27T17:54:50Z</time>
      </trkpt>
      <trkpt lat="46.9945" lon="-0.97108">
        <ele>111.94</ele>
        <time>2020-05-27T17:54:51Z</time>
      </trkpt>
      <trkpt lat="46.9945" lon="-0.97108">
        <ele>112.021</ele>
        <time>2020-05-27T17:54:52Z</time>
      </trkpt>
      <trkpt lat="46.99451" lon="-0.97108">
        <ele>112.654</ele>
        <time>2020-05-27T17:54:53Z</time>
      </trkpt>
      <trkpt lat="46.99451" lon="-0.97108">
        <ele>112.76</ele>
        <time>2020-05-27T17:54:54Z</time>
      </trkpt>
      <trkpt lat="46.99451" lon="-0.97108">
        <ele>112.43</ele>
        <time>2020-05-27T17:54:55Z</time>
      </trkpt>
      <trkpt lat="46.99451" lon="-0.97107">
        <ele>111.789</ele>
        <time>2020-05-27T17:54:56Z</time>
      </trkpt>
      <trkpt lat="46.99451" lon="-0.97107">
        <ele>111.817</ele>
        <time>2020-05-27T17:54:57Z</time>
      </trkpt>
      <trkpt lat="46.9945" lon="-0.97107">
        <ele>111.541</ele>
        <time>2020-05-27T17:54:58Z</time>
      </trkpt>
      <trkpt lat="46.9945" lon="-0.97107">
        <ele>111.4</ele>
        <time>2020-05-27T17:54:59Z</time>
      </trkpt>
      <trkpt lat="46.9945" lon="-0.97107">
        <ele>111.373</ele>
        <time>2020-05-27T17:55:00Z</time>
      </trkpt>
      <trkpt lat="46.9945" lon="-0.97107">
        <ele>111.372</ele>
        <time>2020-05-27T17:55:01Z</time>
      </trkpt>
      <trkpt lat="46.9945" lon="-0.97107">
        <ele>111.396</ele>
        <time>2020-05-27T17:55:02Z</time>
      </trkpt>
      <trkpt lat="46.9945" lon="-0.97106">
        <ele>111.389</ele>
        <time>2020-05-27T17:55:03Z</time>
      </trkpt>
      <trkpt lat="46.9945" lon="-0.97106">
        <ele>111.399</ele>
        <time>2020-05-27T17:55:04Z</time>
      </trkpt>
      <trkpt lat="46.9945" lon="-0.97106">
        <ele>102.76</ele>
        <time>2020-05-27T17:55:05Z</time>
      </trkpt>
      <trkpt lat="46.9945" lon="-0.97105">
        <ele>103.811</ele>
        <time>2020-05-27T17:55:06Z</time>
      </trkpt>
      <trkpt lat="46.9945" lon="-0.97104">
        <ele>104.672</ele>
        <time>2020-05-27T17:55:07Z</time>
      </trkpt>
      <trkpt lat="46.9945" lon="-0.97101">
        <ele>106.415</ele>
        <time>2020-05-27T17:55:10Z</time>
      </trkpt>
      <trkpt lat="46.9945" lon="-0.971">
        <ele>106.493</ele>
        <time>2020-05-27T17:55:11Z</time>
      </trkpt>
      <trkpt lat="46.9945" lon="-0.971">
        <ele>106.388</ele>
        <time>2020-05-27T17:55:12Z</time>
      </trkpt>
      <trkpt lat="46.9945" lon="-0.971">
        <ele>106.64</ele>
        <time>2020-05-27T17:55:13Z</time>
      </trkpt>
      <trkpt lat="46.9945" lon="-0.971">
        <ele>107.571</ele>
        <time>2020-05-27T17:55:14Z</time>
      </trkpt>
      <trkpt lat="46.9945" lon="-0.97099">
        <ele>107.576</ele>
        <time>2020-05-27T17:55:15Z</time>
      </trkpt>
      <trkpt lat="46.9945" lon="-0.97099">
        <ele>107.459</ele>
        <time>2020-05-27T17:55:16Z</time>
      </trkpt>
      <trkpt lat="46.99451" lon="-0.97099">
        <ele>106.869</ele>
        <time>2020-05-27T17:55:17Z</time>
      </trkpt>
      <trkpt lat="46.99451" lon="-0.97099">
        <ele>113.651</ele>
        <time>2020-05-27T17:55:18Z</time>
      </trkpt>
      <trkpt lat="46.99451" lon="-0.97099">
        <ele>112.422</ele>
        <time>2020-05-27T17:55:19Z</time>
      </trkpt>
      <trkpt lat="46.99451" lon="-0.97098">
        <ele>111.467</ele>
        <time>2020-05-27T17:55:20Z</time>
      </trkpt>
      <trkpt lat="46.99451" lon="-0.97097">
        <ele>111.621</ele>
        <time>2020-05-27T17:55:21Z</time>
      </trkpt>
      <trkpt lat="46.99451" lon="-0.97095">
        <ele>111.238</ele>
        <time>2020-05-27T17:55:22Z</time>
      </trkpt>
      <trkpt lat="46.99451" lon="-0.97094">
        <ele>110.439</ele>
        <time>2020-05-27T17:55:23Z</time>
      </trkpt>
      <trkpt lat="46.99451" lon="-0.97094">
        <ele>109.651</ele>
        <time>2020-05-27T17:55:24Z</time>
      </trkpt>
      <trkpt lat="46.99452" lon="-0.97093">
        <ele>110.063</ele>
        <time>2020-05-27T17:55:25Z</time>
      </trkpt>
      <trkpt lat="46.99452" lon="-0.97093">
        <ele>109.943</ele>
        <time>2020-05-27T17:55:26Z</time>
      </trkpt>
      <trkpt lat="46.99453" lon="-0.97093">
        <ele>109.727</ele>
        <time>2020-05-27T17:55:27Z</time>
      </trkpt>
      <trkpt lat="46.99453" lon="-0.97093">
        <ele>109.212</ele>
        <time>2020-05-27T17:55:28Z</time>
      </trkpt>
      <trkpt lat="46.99453" lon="-0.97092">
        <ele>109.904</ele>
        <time>2020-05-27T17:55:29Z</time>
      </trkpt>
      <trkpt lat="46.99453" lon="-0.97092">
        <ele>109.946</ele>
        <time>2020-05-27T17:55:30Z</time>
      </trkpt>
      <trkpt lat="46.99453" lon="-0.97091">
        <ele>109.7</ele>
        <time>2020-05-27T17:55:31Z</time>
      </trkpt>
      <trkpt lat="46.99453" lon="-0.97091">
        <ele>109.92</ele>
        <time>2020-05-27T17:55:32Z</time>
      </trkpt>
      <trkpt lat="46.99453" lon="-0.97091">
        <ele>110.117</ele>
        <time>2020-05-27T17:55:33Z</time>
      </trkpt>
      <trkpt lat="46.99453" lon="-0.9709">
        <ele>110.255</ele>
        <time>2020-05-27T17:55:34Z</time>
      </trkpt>
      <trkpt lat="46.99453" lon="-0.9709">
        <ele>110.264</ele>
        <time>2020-05-27T17:55:35Z</time>
      </trkpt>
      <trkpt lat="46.99453" lon="-0.9709">
        <ele>110.299</ele>
        <time>2020-05-27T17:55:36Z</time>
      </trkpt>
      <trkpt lat="46.99453" lon="-0.9709">
        <ele>110.29</ele>
        <time>2020-05-27T17:55:37Z</time>
      </trkpt>
      <trkpt lat="46.99454" lon="-0.9709">
        <ele>110.263</ele>
        <time>2020-05-27T17:55:38Z</time>
      </trkpt>
      <trkpt lat="46.99454" lon="-0.9709">
        <ele>110.276</ele>
        <time>2020-05-27T17:55:39Z</time>
      </trkpt>
      <trkpt lat="46.99454" lon="-0.9709">
        <ele>110.28</ele>
        <time>2020-05-27T17:55:40Z</time>
      </trkpt>
      <trkpt lat="46.99454" lon="-0.9709">
        <ele>110.29</ele>
        <time>2020-05-27T17:55:41Z</time>
      </trkpt>
      <trkpt lat="46.99454" lon="-0.9709">
        <ele>110.283</ele>
        <time>2020-05-27T17:55:42Z</time>
      </trkpt>
      <trkpt lat="46.99454" lon="-0.9709">
        <ele>110.263</ele>
        <time>2020-05-27T17:55:43Z</time>
      </trkpt>
      <trkpt lat="46.99454" lon="-0.9709">
        <ele>110.253</ele>
        <time>2020-05-27T17:55:44Z</time>
      </trkpt>
      <trkpt lat="46.99454" lon="-0.9709">
        <ele>110.135</ele>
        <time>2020-05-27T17:55:45Z</time>
      </trkpt>
      <trkpt lat="46.99455" lon="-0.97089">
        <ele>111.067</ele>
        <time>2020-05-27T17:55:46Z</time>
      </trkpt>
      <trkpt lat="46.99457" lon="-0.97089">
        <ele>112.09</ele>
        <time>2020-05-27T17:55:47Z</time>
      </trkpt>
      <trkpt lat="46.99458" lon="-0.97088">
        <ele>110.141</ele>
        <time>2020-05-27T17:55:48Z</time>
      </trkpt>
      <trkpt lat="46.99459" lon="-0.97087">
        <ele>111.291</ele>
        <time>2020-05-27T17:55:49Z</time>
      </trkpt>
      <trkpt lat="46.9946" lon="-0.97086">
        <ele>111.09</ele>
        <time>2020-05-27T17:55:50Z</time>
      </trkpt>
      <trkpt lat="46.99461" lon="-0.97085">
        <ele>109.005</ele>
        <time>2020-05-27T17:55:51Z</time>
      </trkpt>
      <trkpt lat="46.99462" lon="-0.97083">
        <ele>107.79</ele>
        <time>2020-05-27T17:55:52Z</time>
      </trkpt>
      <trkpt lat="46.99463" lon="-0.97081">
        <ele>108.24</ele>
        <time>2020-05-27T17:55:53Z</time>
      </trkpt>
      <trkpt lat="46.99464" lon="-0.97079">
        <ele>107.152</ele>
        <time>2020-05-27T17:55:54Z</time>
      </trkpt>
      <trkpt lat="46.99465" lon="-0.97077">
        <ele>106.802</ele>
        <time>2020-05-27T17:55:55Z</time>
      </trkpt>
      <trkpt lat="46.99467" lon="-0.97075">
        <ele>107.312</ele>
        <time>2020-05-27T17:55:56Z</time>
      </trkpt>
      <trkpt lat="46.99469" lon="-0.97074">
        <ele>107.931</ele>
        <time>2020-05-27T17:55:57Z</time>
      </trkpt>
      <trkpt lat="46.99471" lon="-0.97074">
        <ele>108.909</ele>
        <time>2020-05-27T17:55:58Z</time>
      </trkpt>
      <trkpt lat="46.99473" lon="-0.97073">
        <ele>109.067</ele>
        <time>2020-05-27T17:55:59Z</time>
      </trkpt>
      <trkpt lat="46.99476" lon="-0.97073">
        <ele>107.455</ele>
        <time>2020-05-27T17:56:00Z</time>
      </trkpt>
      <trkpt lat="46.99478" lon="-0.97072">
        <ele>106.322</ele>
        <time>2020-05-27T17:56:01Z</time>
      </trkpt>
      <trkpt lat="46.99481" lon="-0.97072">
        <ele>104.553</ele>
        <time>2020-05-27T17:56:02Z</time>
      </trkpt>
      <trkpt lat="46.99483" lon="-0.97072">
        <ele>105.251</ele>
        <time>2020-05-27T17:56:03Z</time>
      </trkpt>
      <trkpt lat="46.99486" lon="-0.97073">
        <ele>106.535</ele>
        <time>2020-05-27T17:56:04Z</time>
      </trkpt>
      <trkpt lat="46.99487" lon="-0.97074">
        <ele>106.02</ele>
        <time>2020-05-27T17:56:05Z</time>
      </trkpt>
      <trkpt lat="46.99489" lon="-0.97076">
        <ele>105.193</ele>
        <time>2020-05-27T17:56:06Z</time>
      </trkpt>
      <trkpt lat="46.9949" lon="-0.97077">
        <ele>104.906</ele>
        <time>2020-05-27T17:56:07Z</time>
      </trkpt>
      <trkpt lat="46.99491" lon="-0.97079">
        <ele>105.322</ele>
        <time>2020-05-27T17:56:08Z</time>
      </trkpt>
      <trkpt lat="46.99491" lon="-0.97079">
        <ele>105.448</ele>
        <time>2020-05-27T17:56:09Z</time>
      </trkpt>
      <trkpt lat="46.99491" lon="-0.9708">
        <ele>105.545</ele>
        <time>2020-05-27T17:56:10Z</time>
      </trkpt>
      <trkpt lat="46.99491" lon="-0.9708">
        <ele>105.965</ele>
        <time>2020-05-27T17:56:11Z</time>
      </trkpt>
      <trkpt lat="46.99491" lon="-0.97081">
        <ele>106.581</ele>
        <time>2020-05-27T17:56:12Z</time>
      </trkpt>
      <trkpt lat="46.99491" lon="-0.97082">
        <ele>106.982</ele>
        <time>2020-05-27T17:56:13Z</time>
      </trkpt>
      <trkpt lat="46.99491" lon="-0.97082">
        <ele>107.605</ele>
        <time>2020-05-27T17:56:14Z</time>
      </trkpt>
      <trkpt lat="46.99491" lon="-0.97083">
        <ele>106.894</ele>
        <time>2020-05-27T17:56:15Z</time>
      </trkpt>
      <trkpt lat="46.99492" lon="-0.97083">
        <ele>106.669</ele>
        <time>2020-05-27T17:56:16Z</time>
      </trkpt>
      <trkpt lat="46.99492" lon="-0.97084">
        <ele>106.667</ele>
        <time>2020-05-27T17:56:17Z</time>
      </trkpt>
      <trkpt lat="46.99492" lon="-0.97084">
        <ele>106.513</ele>
        <time>2020-05-27T17:56:18Z</time>
      </trkpt>
      <trkpt lat="46.99492" lon="-0.97083">
        <ele>105.964</ele>
        <time>2020-05-27T17:56:19Z</time>
      </trkpt>
      <trkpt lat="46.99492" lon="-0.97083">
        <ele>106.465</ele>
        <time>2020-05-27T17:56:20Z</time>
      </trkpt>
      <trkpt lat="46.99492" lon="-0.97084">
        <ele>106.936</ele>
        <time>2020-05-27T17:56:22Z</time>
      </trkpt>
      <trkpt lat="46.99492" lon="-0.97084">
        <ele>106.937</ele>
        <time>2020-05-27T17:56:23Z</time>
      </trkpt>
      <trkpt lat="46.99492" lon="-0.97084">
        <ele>106.563</ele>
        <time>2020-05-27T17:56:25Z</time>
      </trkpt>
      <trkpt lat="46.99492" lon="-0.97084">
        <ele>106.574</ele>
        <time>2020-05-27T17:56:26Z</time>
      </trkpt>
      <trkpt lat="46.99492" lon="-0.97084">
        <ele>106.62</ele>
        <time>2020-05-27T17:56:27Z</time>
      </trkpt>
      <trkpt lat="46.99491" lon="-0.97084">
        <ele>106.838</ele>
        <time>2020-05-27T17:56:28Z</time>
      </trkpt>
      <trkpt lat="46.99491" lon="-0.97083">
        <ele>109.746</ele>
        <time>2020-05-27T17:56:29Z</time>
      </trkpt>
      <trkpt lat="46.9949" lon="-0.97081">
        <ele>108.465</ele>
        <time>2020-05-27T17:56:30Z</time>
      </trkpt>
      <trkpt lat="46.9949" lon="-0.97079">
        <ele>108.461</ele>
        <time>2020-05-27T17:56:31Z</time>
      </trkpt>
      <trkpt lat="46.99489" lon="-0.97078">
        <ele>108.862</ele>
        <time>2020-05-27T17:56:32Z</time>
      </trkpt>
      <trkpt lat="46.99488" lon="-0.97077">
        <ele>109.034</ele>
        <time>2020-05-27T17:56:33Z</time>
      </trkpt>
      <trkpt lat="46.99486" lon="-0.97077">
        <ele>109.265</ele>
        <time>2020-05-27T17:56:34Z</time>
      </trkpt>
      <trkpt lat="46.99484" lon="-0.97076">
        <ele>108.598</ele>
        <time>2020-05-27T17:56:35Z</time>
      </trkpt>
      <trkpt lat="46.99482" lon="-0.97076">
        <ele>108.701</ele>
        <time>2020-05-27T17:56:36Z</time>
      </trkpt>
      <trkpt lat="46.9948" lon="-0.97077">
        <ele>109.089</ele>
        <time>2020-05-27T17:56:37Z</time>
      </trkpt>
      <trkpt lat="46.99478" lon="-0.97077">
        <ele>110.806</ele>
        <time>2020-05-27T17:56:38Z</time>
      </trkpt>
      <trkpt lat="46.99477" lon="-0.97077">
        <ele>112.166</ele>
        <time>2020-05-27T17:56:39Z</time>
      </trkpt>
      <trkpt lat="46.99476" lon="-0.97077">
        <ele>109.923</ele>
        <time>2020-05-27T17:56:40Z</time>
      </trkpt>
      <trkpt lat="46.99474" lon="-0.97078">
        <ele>109.173</ele>
        <time>2020-05-27T17:56:41Z</time>
      </trkpt>
      <trkpt lat="46.99473" lon="-0.9708">
        <ele>107.646</ele>
        <time>2020-05-27T17:56:42Z</time>
      </trkpt>
      <trkpt lat="46.99471" lon="-0.97082">
        <ele>107.558</ele>
        <time>2020-05-27T17:56:43Z</time>
      </trkpt>
      <trkpt lat="46.99469" lon="-0.97083">
        <ele>106.404</ele>
        <time>2020-05-27T17:56:44Z</time>
      </trkpt>
      <trkpt lat="46.99468" lon="-0.97084">
        <ele>106.421</ele>
        <time>2020-05-27T17:56:45Z</time>
      </trkpt>
      <trkpt lat="46.99467" lon="-0.97085">
        <ele>106.033</ele>
        <time>2020-05-27T17:56:46Z</time>
      </trkpt>
      <trkpt lat="46.99466" lon="-0.97086">
        <ele>105.296</ele>
        <time>2020-05-27T17:56:47Z</time>
      </trkpt>
      <trkpt lat="46.99465" lon="-0.97088">
        <ele>106.077</ele>
        <time>2020-05-27T17:56:48Z</time>
      </trkpt>
      <trkpt lat="46.99464" lon="-0.97089">
        <ele>106.54</ele>
        <time>2020-05-27T17:56:49Z</time>
      </trkpt>
      <trkpt lat="46.99463" lon="-0.9709">
        <ele>110.493</ele>
        <time>2020-05-27T17:56:50Z</time>
      </trkpt>
      <trkpt lat="46.99461" lon="-0.97092">
        <ele>109.783</ele>
        <time>2020-05-27T17:56:51Z</time>
      </trkpt>
      <trkpt lat="46.9946" lon="-0.97093">
        <ele>110.73</ele>
        <time>2020-05-27T17:56:52Z</time>
      </trkpt>
      <trkpt lat="46.99458" lon="-0.97094">
        <ele>111.338</ele>
        <time>2020-05-27T17:56:53Z</time>
      </trkpt>
      <trkpt lat="46.99456" lon="-0.97095">
        <ele>112.502</ele>
        <time>2020-05-27T17:56:54Z</time>
      </trkpt>
      <trkpt lat="46.99454" lon="-0.97095">
        <ele>113.105</ele>
        <time>2020-05-27T17:56:55Z</time>
      </trkpt>
      <trkpt lat="46.99453" lon="-0.97095">
        <ele>114.237</ele>
        <time>2020-05-27T17:56:56Z</time>
      </trkpt>
      <trkpt lat="46.99451" lon="-0.97095">
        <ele>116.12</ele>
        <time>2020-05-27T17:56:57Z</time>
      </trkpt>
      <trkpt lat="46.9945" lon="-0.97093">
        <ele>117.12</ele>
        <time>2020-05-27T17:56:58Z</time>
      </trkpt>
      <trkpt lat="46.99449" lon="-0.97091">
        <ele>116.016</ele>
        <time>2020-05-27T17:56:59Z</time>
      </trkpt>
      <trkpt lat="46.99448" lon="-0.97089">
        <ele>115.377</ele>
        <time>2020-05-27T17:57:00Z</time>
      </trkpt>
      <trkpt lat="46.99447" lon="-0.97087">
        <ele>116.416</ele>
        <time>2020-05-27T17:57:01Z</time>
      </trkpt>
      <trkpt lat="46.99445" lon="-0.97085">
        <ele>114.984</ele>
        <time>2020-05-27T17:57:02Z</time>
      </trkpt>
      <trkpt lat="46.99445" lon="-0.97084">
        <ele>115.784</ele>
        <time>2020-05-27T17:57:03Z</time>
      </trkpt>
      <trkpt lat="46.99444" lon="-0.97083">
        <ele>116.501</ele>
        <time>2020-05-27T17:57:04Z</time>
      </trkpt>
      <trkpt lat="46.99443" lon="-0.97083">
        <ele>116.101</ele>
        <time>2020-05-27T17:57:05Z</time>
      </trkpt>
      <trkpt lat="46.99443" lon="-0.97083">
        <ele>115.728</ele>
        <time>2020-05-27T17:57:06Z</time>
      </trkpt>
      <trkpt lat="46.99442" lon="-0.97083">
        <ele>115.199</ele>
        <time>2020-05-27T17:57:07Z</time>
      </trkpt>
      <trkpt lat="46.99442" lon="-0.97083">
        <ele>115.146</ele>
        <time>2020-05-27T17:57:08Z</time>
      </trkpt>
      <trkpt lat="46.99442" lon="-0.97083">
        <ele>115.478</ele>
        <time>2020-05-27T17:57:09Z</time>
      </trkpt>
      <trkpt lat="46.99442" lon="-0.97083">
        <ele>115.478</ele>
        <time>2020-05-27T17:57:10Z</time>
      </trkpt>
      <trkpt lat="46.99442" lon="-0.97083">
        <ele>115.885</ele>
        <time>2020-05-27T17:57:11Z</time>
      </trkpt>
      <trkpt lat="46.99442" lon="-0.97082">
        <ele>116.504</ele>
        <time>2020-05-27T17:57:12Z</time>
      </trkpt>
      <trkpt lat="46.99442" lon="-0.97082">
        <ele>116.295</ele>
        <time>2020-05-27T17:57:13Z</time>
      </trkpt>
      <trkpt lat="46.99442" lon="-0.97082">
        <ele>116.839</ele>
        <time>2020-05-27T17:57:14Z</time>
      </trkpt>
      <trkpt lat="46.99442" lon="-0.97082">
        <ele>116.62</ele>
        <time>2020-05-27T17:57:17Z</time>
      </trkpt>
      <trkpt lat="46.99442" lon="-0.97082">
        <ele>116.782</ele>
        <time>2020-05-27T17:57:18Z</time>
      </trkpt>
      <trkpt lat="46.99442" lon="-0.97082">
        <ele>116.814</ele>
        <time>2020-05-27T17:57:19Z</time>
      </trkpt>
      <trkpt lat="46.99442" lon="-0.97082">
        <ele>116.955</ele>
        <time>2020-05-27T17:57:20Z</time>
      </trkpt>
      <trkpt lat="46.99442" lon="-0.97082">
        <ele>117.012</ele>
        <time>2020-05-27T17:57:21Z</time>
      </trkpt>
      <trkpt lat="46.99442" lon="-0.97082">
        <ele>117.16</ele>
        <time>2020-05-27T17:57:22Z</time>
      </trkpt>
      <trkpt lat="46.99442" lon="-0.97082">
        <ele>117.128</ele>
        <time>2020-05-27T17:57:23Z</time>
      </trkpt>
      <trkpt lat="46.99442" lon="-0.97082">
        <ele>117.37</ele>
        <time>2020-05-27T17:57:24Z</time>
      </trkpt>
      <trkpt lat="46.99442" lon="-0.97082">
        <ele>117.369</ele>
        <time>2020-05-27T17:57:25Z</time>
      </trkpt>
      <trkpt lat="46.99442" lon="-0.97082">
        <ele>117.361</ele>
        <time>2020-05-27T17:57:26Z</time>
      </trkpt>
      <trkpt lat="46.99442" lon="-0.97082">
        <ele>117.432</ele>
        <time>2020-05-27T17:57:27Z</time>
      </trkpt>
      <trkpt lat="46.99442" lon="-0.97082">
        <ele>117.711</ele>
        <time>2020-05-27T17:57:28Z</time>
      </trkpt>
      <trkpt lat="46.99442" lon="-0.97082">
        <ele>117.712</ele>
        <time>2020-05-27T17:57:29Z</time>
      </trkpt>
      <trkpt lat="46.99442" lon="-0.97082">
        <ele>117.77</ele>
        <time>2020-05-27T17:57:30Z</time>
      </trkpt>
      <trkpt lat="46.99442" lon="-0.97082">
        <ele>117.759</ele>
        <time>2020-05-27T17:57:31Z</time>
      </trkpt>
      <trkpt lat="46.99441" lon="-0.9708">
        <ele>116.905</ele>
        <time>2020-05-27T17:57:32Z</time>
      </trkpt>
      <trkpt lat="46.99441" lon="-0.97078">
        <ele>117.6</ele>
        <time>2020-05-27T17:57:33Z</time>
      </trkpt>
      <trkpt lat="46.99441" lon="-0.97076">
        <ele>117.621</ele>
        <time>2020-05-27T17:57:34Z</time>
      </trkpt>
      <trkpt lat="46.9944" lon="-0.97073">
        <ele>117.268</ele>
        <time>2020-05-27T17:57:35Z</time>
      </trkpt>
      <trkpt lat="46.9944" lon="-0.97069">
        <ele>116.194</ele>
        <time>2020-05-27T17:57:36Z</time>
      </trkpt>
      <trkpt lat="46.9944" lon="-0.97066">
        <ele>116.592</ele>
        <time>2020-05-27T17:57:37Z</time>
      </trkpt>
      <trkpt lat="46.99441" lon="-0.97063">
        <ele>117.82</ele>
        <time>2020-05-27T17:57:38Z</time>
      </trkpt>
      <trkpt lat="46.99442" lon="-0.9706">
        <ele>118.924</ele>
        <time>2020-05-27T17:57:39Z</time>
      </trkpt>
      <trkpt lat="46.99444" lon="-0.97057">
        <ele>120.12</ele>
        <time>2020-05-27T17:57:40Z</time>
      </trkpt>
      <trkpt lat="46.99445" lon="-0.97053">
        <ele>121.496</ele>
        <time>2020-05-27T17:57:41Z</time>
      </trkpt>
      <trkpt lat="46.99446" lon="-0.97049">
        <ele>121.083</ele>
        <time>2020-05-27T17:57:42Z</time>
      </trkpt>
      <trkpt lat="46.99446" lon="-0.97046">
        <ele>122.34</ele>
        <time>2020-05-27T17:57:43Z</time>
      </trkpt>
      <trkpt lat="46.99447" lon="-0.97043">
        <ele>123.164</ele>
        <time>2020-05-27T17:57:44Z</time>
      </trkpt>
      <trkpt lat="46.99448" lon="-0.9704">
        <ele>122.52</ele>
        <time>2020-05-27T17:57:45Z</time>
      </trkpt>
      <trkpt lat="46.9945" lon="-0.97036">
        <ele>123.387</ele>
        <time>2020-05-27T17:57:46Z</time>
      </trkpt>
      <trkpt lat="46.99451" lon="-0.97033">
        <ele>123.58</ele>
        <time>2020-05-27T17:57:47Z</time>
      </trkpt>
      <trkpt lat="46.99451" lon="-0.97029">
        <ele>123.295</ele>
        <time>2020-05-27T17:57:48Z</time>
      </trkpt>
      <trkpt lat="46.9945" lon="-0.97026">
        <ele>124.28</ele>
        <time>2020-05-27T17:57:49Z</time>
      </trkpt>
      <trkpt lat="46.9945" lon="-0.97023">
        <ele>124.731</ele>
        <time>2020-05-27T17:57:50Z</time>
      </trkpt>
      <trkpt lat="46.99449" lon="-0.9702">
        <ele>124.764</ele>
        <time>2020-05-27T17:57:51Z</time>
      </trkpt>
      <trkpt lat="46.99448" lon="-0.97018">
        <ele>123.926</ele>
        <time>2020-05-27T17:57:52Z</time>
      </trkpt>
      <trkpt lat="46.99448" lon="-0.97015">
        <ele>124.275</ele>
        <time>2020-05-27T17:57:53Z</time>
      </trkpt>
      <trkpt lat="46.99447" lon="-0.97012">
        <ele>124.634</ele>
        <time>2020-05-27T17:57:54Z</time>
      </trkpt>
      <trkpt lat="46.99448" lon="-0.97008">
        <ele>124.662</ele>
        <time>2020-05-27T17:57:55Z</time>
      </trkpt>
      <trkpt lat="46.99448" lon="-0.97005">
        <ele>123.683</ele>
        <time>2020-05-27T17:57:56Z</time>
      </trkpt>
      <trkpt lat="46.99448" lon="-0.97001">
        <ele>122.411</ele>
        <time>2020-05-27T17:57:57Z</time>
      </trkpt>
      <trkpt lat="46.99449" lon="-0.96998">
        <ele>120.999</ele>
        <time>2020-05-27T17:57:58Z</time>
      </trkpt>
      <trkpt lat="46.99449" lon="-0.96995">
        <ele>120.89</ele>
        <time>2020-05-27T17:57:59Z</time>
      </trkpt>
      <trkpt lat="46.9945" lon="-0.96991">
        <ele>119.642</ele>
        <time>2020-05-27T17:58:00Z</time>
      </trkpt>
      <trkpt lat="46.9945" lon="-0.96987">
        <ele>120.288</ele>
        <time>2020-05-27T17:58:01Z</time>
      </trkpt>
      <trkpt lat="46.9945" lon="-0.96984">
        <ele>118.885</ele>
        <time>2020-05-27T17:58:02Z</time>
      </trkpt>
      <trkpt lat="46.99449" lon="-0.96981">
        <ele>119.763</ele>
        <time>2020-05-27T17:58:03Z</time>
      </trkpt>
      <trkpt lat="46.99448" lon="-0.96977">
        <ele>119.94</ele>
        <time>2020-05-27T17:58:04Z</time>
      </trkpt>
      <trkpt lat="46.99447" lon="-0.96973">
        <ele>120.357</ele>
        <time>2020-05-27T17:58:05Z</time>
      </trkpt>
      <trkpt lat="46.99446" lon="-0.96969">
        <ele>120.706</ele>
        <time>2020-05-27T17:58:06Z</time>
      </trkpt>
      <trkpt lat="46.99446" lon="-0.96965">
        <ele>120.683</ele>
        <time>2020-05-27T17:58:07Z</time>
      </trkpt>
      <trkpt lat="46.99445" lon="-0.96962">
        <ele>120.516</ele>
        <time>2020-05-27T17:58:08Z</time>
      </trkpt>
      <trkpt lat="46.99444" lon="-0.96958">
        <ele>120.543</ele>
        <time>2020-05-27T17:58:09Z</time>
      </trkpt>
      <trkpt lat="46.99443" lon="-0.96954">
        <ele>119.797</ele>
        <time>2020-05-27T17:58:10Z</time>
      </trkpt>
      <trkpt lat="46.99442" lon="-0.96951">
        <ele>118.738</ele>
        <time>2020-05-27T17:58:11Z</time>
      </trkpt>
      <trkpt lat="46.99441" lon="-0.96947">
        <ele>117.123</ele>
        <time>2020-05-27T17:58:12Z</time>
      </trkpt>
      <trkpt lat="46.9944" lon="-0.96944">
        <ele>115.293</ele>
        <time>2020-05-27T17:58:13Z</time>
      </trkpt>
      <trkpt lat="46.9944" lon="-0.96941">
        <ele>117.017</ele>
        <time>2020-05-27T17:58:14Z</time>
      </trkpt>
      <trkpt lat="46.9944" lon="-0.96937">
        <ele>117.707</ele>
        <time>2020-05-27T17:58:15Z</time>
      </trkpt>
      <trkpt lat="46.99442" lon="-0.96934">
        <ele>117.85</ele>
        <time>2020-05-27T17:58:16Z</time>
      </trkpt>
      <trkpt lat="46.99444" lon="-0.96931">
        <ele>118.787</ele>
        <time>2020-05-27T17:58:17Z</time>
      </trkpt>
      <trkpt lat="46.99446" lon="-0.96928">
        <ele>119.181</ele>
        <time>2020-05-27T17:58:18Z</time>
      </trkpt>
      <trkpt lat="46.99448" lon="-0.96925">
        <ele>118.827</ele>
        <time>2020-05-27T17:58:19Z</time>
      </trkpt>
      <trkpt lat="46.9945" lon="-0.96922">
        <ele>115.736</ele>
        <time>2020-05-27T17:58:20Z</time>
      </trkpt>
      <trkpt lat="46.99451" lon="-0.96919">
        <ele>114.787</ele>
        <time>2020-05-27T17:58:21Z</time>
      </trkpt>
      <trkpt lat="46.99453" lon="-0.96915">
        <ele>117.656</ele>
        <time>2020-05-27T17:58:22Z</time>
      </trkpt>
      <trkpt lat="46.99455" lon="-0.96911">
        <ele>118.049</ele>
        <time>2020-05-27T17:58:23Z</time>
      </trkpt>
      <trkpt lat="46.99458" lon="-0.96907">
        <ele>118.622</ele>
        <time>2020-05-27T17:58:24Z</time>
      </trkpt>
      <trkpt lat="46.99459" lon="-0.96902">
        <ele>118.553</ele>
        <time>2020-05-27T17:58:25Z</time>
      </trkpt>
      <trkpt lat="46.99461" lon="-0.96898">
        <ele>118.268</ele>
        <time>2020-05-27T17:58:26Z</time>
      </trkpt>
      <trkpt lat="46.99462" lon="-0.96895">
        <ele>116.998</ele>
        <time>2020-05-27T17:58:27Z</time>
      </trkpt>
      <trkpt lat="46.99463" lon="-0.96892">
        <ele>117.718</ele>
        <time>2020-05-27T17:58:28Z</time>
      </trkpt>
      <trkpt lat="46.99464" lon="-0.96888">
        <ele>118.817</ele>
        <time>2020-05-27T17:58:29Z</time>
      </trkpt>
      <trkpt lat="46.99465" lon="-0.96885">
        <ele>119.271</ele>
        <time>2020-05-27T17:58:30Z</time>
      </trkpt>
      <trkpt lat="46.99466" lon="-0.96882">
        <ele>118.083</ele>
        <time>2020-05-27T17:58:31Z</time>
      </trkpt>
      <trkpt lat="46.99467" lon="-0.96879">
        <ele>117.678</ele>
        <time>2020-05-27T17:58:32Z</time>
      </trkpt>
      <trkpt lat="46.99468" lon="-0.96876">
        <ele>118.033</ele>
        <time>2020-05-27T17:58:33Z</time>
      </trkpt>
      <trkpt lat="46.9947" lon="-0.96873">
        <ele>120.999</ele>
        <time>2020-05-27T17:58:34Z</time>
      </trkpt>
      <trkpt lat="46.99472" lon="-0.96872">
        <ele>121.079</ele>
        <time>2020-05-27T17:58:35Z</time>
      </trkpt>
      <trkpt lat="46.99473" lon="-0.96871">
        <ele>120.406</ele>
        <time>2020-05-27T17:58:36Z</time>
      </trkpt>
      <trkpt lat="46.99475" lon="-0.96872">
        <ele>119.902</ele>
        <time>2020-05-27T17:58:37Z</time>
      </trkpt>
      <trkpt lat="46.99476" lon="-0.96873">
        <ele>119.905</ele>
        <time>2020-05-27T17:58:38Z</time>
      </trkpt>
      <trkpt lat="46.99476" lon="-0.96873">
        <ele>120.115</ele>
        <time>2020-05-27T17:58:39Z</time>
      </trkpt>
      <trkpt lat="46.99476" lon="-0.96873">
        <ele>120.254</ele>
        <time>2020-05-27T17:58:40Z</time>
      </trkpt>
      <trkpt lat="46.99476" lon="-0.96873">
        <ele>119.626</ele>
        <time>2020-05-27T17:58:41Z</time>
      </trkpt>
      <trkpt lat="46.99477" lon="-0.96873">
        <ele>119.521</ele>
        <time>2020-05-27T17:58:42Z</time>
      </trkpt>
      <trkpt lat="46.99476" lon="-0.96873">
        <ele>118.912</ele>
        <time>2020-05-27T17:58:43Z</time>
      </trkpt>
      <trkpt lat="46.99476" lon="-0.96873">
        <ele>119.606</ele>
        <time>2020-05-27T17:58:44Z</time>
      </trkpt>
      <trkpt lat="46.99476" lon="-0.96873">
        <ele>119.714</ele>
        <time>2020-05-27T17:58:45Z</time>
      </trkpt>
      <trkpt lat="46.99477" lon="-0.96871">
        <ele>119.494</ele>
        <time>2020-05-27T17:58:46Z</time>
      </trkpt>
      <trkpt lat="46.99479" lon="-0.96868">
        <ele>117.913</ele>
        <time>2020-05-27T17:58:47Z</time>
      </trkpt>
      <trkpt lat="46.9948" lon="-0.96866">
        <ele>117.595</ele>
        <time>2020-05-27T17:58:48Z</time>
      </trkpt>
      <trkpt lat="46.99482" lon="-0.96862">
        <ele>117.951</ele>
        <time>2020-05-27T17:58:49Z</time>
      </trkpt>
      <trkpt lat="46.99483" lon="-0.96858">
        <ele>117.536</ele>
        <time>2020-05-27T17:58:50Z</time>
      </trkpt>
      <trkpt lat="46.99485" lon="-0.96854">
        <ele>117.538</ele>
        <time>2020-05-27T17:58:51Z</time>
      </trkpt>
      <trkpt lat="46.99486" lon="-0.96849">
        <ele>119.177</ele>
        <time>2020-05-27T17:58:52Z</time>
      </trkpt>
      <trkpt lat="46.99488" lon="-0.96845">
        <ele>118.604</ele>
        <time>2020-05-27T17:58:53Z</time>
      </trkpt>
      <trkpt lat="46.99489" lon="-0.96841">
        <ele>118.499</ele>
        <time>2020-05-27T17:58:54Z</time>
      </trkpt>
      <trkpt lat="46.99491" lon="-0.96837">
        <ele>117.242</ele>
        <time>2020-05-27T17:58:55Z</time>
      </trkpt>
      <trkpt lat="46.99493" lon="-0.96834">
        <ele>116.24</ele>
        <time>2020-05-27T17:58:56Z</time>
      </trkpt>
      <trkpt lat="46.99495" lon="-0.96831">
        <ele>117.277</ele>
        <time>2020-05-27T17:58:57Z</time>
      </trkpt>
      <trkpt lat="46.99497" lon="-0.96829">
        <ele>118.074</ele>
        <time>2020-05-27T17:58:58Z</time>
      </trkpt>
      <trkpt lat="46.995" lon="-0.96827">
        <ele>119.174</ele>
        <time>2020-05-27T17:58:59Z</time>
      </trkpt>
      <trkpt lat="46.99503" lon="-0.96825">
        <ele>118.133</ele>
        <time>2020-05-27T17:59:00Z</time>
      </trkpt>
      <trkpt lat="46.99506" lon="-0.96823">
        <ele>118.536</ele>
        <time>2020-05-27T17:59:01Z</time>
      </trkpt>
      <trkpt lat="46.99508" lon="-0.96821">
        <ele>119.715</ele>
        <time>2020-05-27T17:59:02Z</time>
      </trkpt>
      <trkpt lat="46.99511" lon="-0.96819">
        <ele>120.226</ele>
        <time>2020-05-27T17:59:03Z</time>
      </trkpt>
      <trkpt lat="46.99513" lon="-0.96816">
        <ele>120.495</ele>
        <time>2020-05-27T17:59:04Z</time>
      </trkpt>
      <trkpt lat="46.99515" lon="-0.96813">
        <ele>121.508</ele>
        <time>2020-05-27T17:59:05Z</time>
      </trkpt>
      <trkpt lat="46.99517" lon="-0.96809">
        <ele>121.042</ele>
        <time>2020-05-27T17:59:06Z</time>
      </trkpt>
      <trkpt lat="46.9952" lon="-0.96806">
        <ele>120.684</ele>
        <time>2020-05-27T17:59:07Z</time>
      </trkpt>
      <trkpt lat="46.99522" lon="-0.96803">
        <ele>119.818</ele>
        <time>2020-05-27T17:59:08Z</time>
      </trkpt>
      <trkpt lat="46.99524" lon="-0.96799">
        <ele>120.544</ele>
        <time>2020-05-27T17:59:09Z</time>
      </trkpt>
      <trkpt lat="46.99526" lon="-0.96796">
        <ele>118.491</ele>
        <time>2020-05-27T17:59:10Z</time>
      </trkpt>
      <trkpt lat="46.99528" lon="-0.96793">
        <ele>117.716</ele>
        <time>2020-05-27T17:59:11Z</time>
      </trkpt>
      <trkpt lat="46.9953" lon="-0.96789">
        <ele>117.6</ele>
        <time>2020-05-27T17:59:12Z</time>
      </trkpt>
      <trkpt lat="46.99532" lon="-0.96785">
        <ele>117.712</ele>
        <time>2020-05-27T17:59:13Z</time>
      </trkpt>
      <trkpt lat="46.99534" lon="-0.96781">
        <ele>118.271</ele>
        <time>2020-05-27T17:59:14Z</time>
      </trkpt>
      <trkpt lat="46.99535" lon="-0.96777">
        <ele>117.023</ele>
        <time>2020-05-27T17:59:15Z</time>
      </trkpt>
      <trkpt lat="46.99536" lon="-0.96773">
        <ele>116.961</ele>
        <time>2020-05-27T17:59:16Z</time>
      </trkpt>
      <trkpt lat="46.99537" lon="-0.96769">
        <ele>116.458</ele>
        <time>2020-05-27T17:59:17Z</time>
      </trkpt>
      <trkpt lat="46.99538" lon="-0.96764">
        <ele>116.396</ele>
        <time>2020-05-27T17:59:18Z</time>
      </trkpt>
      <trkpt lat="46.99539" lon="-0.9676">
        <ele>116.892</ele>
        <time>2020-05-27T17:59:19Z</time>
      </trkpt>
      <trkpt lat="46.9954" lon="-0.96755">
        <ele>116.74</ele>
        <time>2020-05-27T17:59:20Z</time>
      </trkpt>
      <trkpt lat="46.9954" lon="-0.9675">
        <ele>116.311</ele>
        <time>2020-05-27T17:59:21Z</time>
      </trkpt>
      <trkpt lat="46.9954" lon="-0.96746">
        <ele>115.976</ele>
        <time>2020-05-27T17:59:22Z</time>
      </trkpt>
      <trkpt lat="46.99541" lon="-0.96741">
        <ele>115.576</ele>
        <time>2020-05-27T17:59:23Z</time>
      </trkpt>
      <trkpt lat="46.99541" lon="-0.96736">
        <ele>115.517</ele>
        <time>2020-05-27T17:59:24Z</time>
      </trkpt>
      <trkpt lat="46.99541" lon="-0.96732">
        <ele>115.587</ele>
        <time>2020-05-27T17:59:25Z</time>
      </trkpt>
      <trkpt lat="46.9954" lon="-0.96728">
        <ele>115.572</ele>
        <time>2020-05-27T17:59:26Z</time>
      </trkpt>
      <trkpt lat="46.99539" lon="-0.96724">
        <ele>115.12</ele>
        <time>2020-05-27T17:59:27Z</time>
      </trkpt>
      <trkpt lat="46.99539" lon="-0.9672">
        <ele>115.196</ele>
        <time>2020-05-27T17:59:28Z</time>
      </trkpt>
      <trkpt lat="46.99538" lon="-0.96715">
        <ele>115.13</ele>
        <time>2020-05-27T17:59:29Z</time>
      </trkpt>
      <trkpt lat="46.99538" lon="-0.9671">
        <ele>115.155</ele>
        <time>2020-05-27T17:59:30Z</time>
      </trkpt>
      <trkpt lat="46.99538" lon="-0.96705">
        <ele>115.112</ele>
        <time>2020-05-27T17:59:31Z</time>
      </trkpt>
      <trkpt lat="46.99538" lon="-0.96701">
        <ele>115.262</ele>
        <time>2020-05-27T17:59:32Z</time>
      </trkpt>
      <trkpt lat="46.99538" lon="-0.96698">
        <ele>113.959</ele>
        <time>2020-05-27T17:59:33Z</time>
      </trkpt>
      <trkpt lat="46.99538" lon="-0.96697">
        <ele>114.172</ele>
        <time>2020-05-27T17:59:34Z</time>
      </trkpt>
      <trkpt lat="46.99538" lon="-0.96698">
        <ele>114.156</ele>
        <time>2020-05-27T17:59:35Z</time>
      </trkpt>
      <trkpt lat="46.99539" lon="-0.96698">
        <ele>114.294</ele>
        <time>2020-05-27T17:59:36Z</time>
      </trkpt>
      <trkpt lat="46.99539" lon="-0.96698">
        <ele>114.723</ele>
        <time>2020-05-27T17:59:37Z</time>
      </trkpt>
      <trkpt lat="46.99539" lon="-0.96698">
        <ele>114.724</ele>
        <time>2020-05-27T17:59:38Z</time>
      </trkpt>
      <trkpt lat="46.99539" lon="-0.96698">
        <ele>114.542</ele>
        <time>2020-05-27T17:59:39Z</time>
      </trkpt>
      <trkpt lat="46.9954" lon="-0.96697">
        <ele>115.012</ele>
        <time>2020-05-27T17:59:40Z</time>
      </trkpt>
      <trkpt lat="46.9954" lon="-0.96697">
        <ele>114.467</ele>
        <time>2020-05-27T17:59:41Z</time>
      </trkpt>
      <trkpt lat="46.9954" lon="-0.96697">
        <ele>114.317</ele>
        <time>2020-05-27T17:59:42Z</time>
      </trkpt>
      <trkpt lat="46.9954" lon="-0.96697">
        <ele>113.852</ele>
        <time>2020-05-27T17:59:43Z</time>
      </trkpt>
      <trkpt lat="46.9954" lon="-0.96697">
        <ele>113.645</ele>
        <time>2020-05-27T17:59:44Z</time>
      </trkpt>
      <trkpt lat="46.9954" lon="-0.96697">
        <ele>113.359</ele>
        <time>2020-05-27T17:59:45Z</time>
      </trkpt>
      <trkpt lat="46.9954" lon="-0.96697">
        <ele>113.074</ele>
        <time>2020-05-27T17:59:46Z</time>
      </trkpt>
      <trkpt lat="46.9954" lon="-0.96697">
        <ele>112.97</ele>
        <time>2020-05-27T17:59:47Z</time>
      </trkpt>
      <trkpt lat="46.9954" lon="-0.96697">
        <ele>112.897</ele>
        <time>2020-05-27T17:59:48Z</time>
      </trkpt>
      <trkpt lat="46.9954" lon="-0.96697">
        <ele>113.312</ele>
        <time>2020-05-27T17:59:49Z</time>
      </trkpt>
      <trkpt lat="46.9954" lon="-0.96697">
        <ele>113.164</ele>
        <time>2020-05-27T17:59:50Z</time>
      </trkpt>
      <trkpt lat="46.9954" lon="-0.96697">
        <ele>112.929</ele>
        <time>2020-05-27T17:59:51Z</time>
      </trkpt>
      <trkpt lat="46.9954" lon="-0.96697">
        <ele>112.645</ele>
        <time>2020-05-27T17:59:52Z</time>
      </trkpt>
      <trkpt lat="46.9954" lon="-0.96697">
        <ele>112.267</ele>
        <time>2020-05-27T17:59:53Z</time>
      </trkpt>
      <trkpt lat="46.9954" lon="-0.96697">
        <ele>112.548</ele>
        <time>2020-05-27T17:59:54Z</time>
      </trkpt>
      <trkpt lat="46.9954" lon="-0.96697">
        <ele>112.539</ele>
        <time>2020-05-27T17:59:55Z</time>
      </trkpt>
      <trkpt lat="46.9954" lon="-0.96697">
        <ele>113.17</ele>
        <time>2020-05-27T17:59:56Z</time>
      </trkpt>
      <trkpt lat="46.9954" lon="-0.96697">
        <ele>113.509</ele>
        <time>2020-05-27T17:59:57Z</time>
      </trkpt>
      <trkpt lat="46.9954" lon="-0.96697">
        <ele>113.756</ele>
        <time>2020-05-27T17:59:58Z</time>
      </trkpt>
      <trkpt lat="46.99539" lon="-0.96697">
        <ele>113.675</ele>
        <time>2020-05-27T17:59:59Z</time>
      </trkpt>
      <trkpt lat="46.99539" lon="-0.96697">
        <ele>113.648</ele>
        <time>2020-05-27T18:00:00Z</time>
      </trkpt>
      <trkpt lat="46.99539" lon="-0.96697">
        <ele>113.63</ele>
        <time>2020-05-27T18:00:01Z</time>
      </trkpt>
      <trkpt lat="46.99539" lon="-0.96697">
        <ele>113.647</ele>
        <time>2020-05-27T18:00:02Z</time>
      </trkpt>
      <trkpt lat="46.99539" lon="-0.96696">
        <ele>114.321</ele>
        <time>2020-05-27T18:00:03Z</time>
      </trkpt>
      <trkpt lat="46.99539" lon="-0.96695">
        <ele>114.137</ele>
        <time>2020-05-27T18:00:04Z</time>
      </trkpt>
      <trkpt lat="46.99539" lon="-0.96693">
        <ele>114.646</ele>
        <time>2020-05-27T18:00:05Z</time>
      </trkpt>
      <trkpt lat="46.99539" lon="-0.9669">
        <ele>114.424</ele>
        <time>2020-05-27T18:00:06Z</time>
      </trkpt>
      <trkpt lat="46.99539" lon="-0.96687">
        <ele>113.337</ele>
        <time>2020-05-27T18:00:07Z</time>
      </trkpt>
      <trkpt lat="46.99539" lon="-0.96684">
        <ele>113.5</ele>
        <time>2020-05-27T18:00:08Z</time>
      </trkpt>
      <trkpt lat="46.99538" lon="-0.96681">
        <ele>114.565</ele>
        <time>2020-05-27T18:00:09Z</time>
      </trkpt>
      <trkpt lat="46.99538" lon="-0.96679">
        <ele>115.564</ele>
        <time>2020-05-27T18:00:10Z</time>
      </trkpt>
      <trkpt lat="46.99537" lon="-0.96677">
        <ele>114.898</ele>
        <time>2020-05-27T18:00:11Z</time>
      </trkpt>
      <trkpt lat="46.99536" lon="-0.96675">
        <ele>114.718</ele>
        <time>2020-05-27T18:00:12Z</time>
      </trkpt>
      <trkpt lat="46.99536" lon="-0.96674">
        <ele>114.506</ele>
        <time>2020-05-27T18:00:13Z</time>
      </trkpt>
      <trkpt lat="46.99535" lon="-0.96673">
        <ele>115.255</ele>
        <time>2020-05-27T18:00:14Z</time>
      </trkpt>
      <trkpt lat="46.99535" lon="-0.96671">
        <ele>114.815</ele>
        <time>2020-05-27T18:00:15Z</time>
      </trkpt>
      <trkpt lat="46.99535" lon="-0.9667">
        <ele>115.882</ele>
        <time>2020-05-27T18:00:16Z</time>
      </trkpt>
      <trkpt lat="46.99535" lon="-0.96669">
        <ele>116.445</ele>
        <time>2020-05-27T18:00:17Z</time>
      </trkpt>
      <trkpt lat="46.99536" lon="-0.96669">
        <ele>117.035</ele>
        <time>2020-05-27T18:00:18Z</time>
      </trkpt>
      <trkpt lat="46.99535" lon="-0.9667">
        <ele>116.271</ele>
        <time>2020-05-27T18:00:19Z</time>
      </trkpt>
      <trkpt lat="46.99536" lon="-0.9667">
        <ele>116.447</ele>
        <time>2020-05-27T18:00:20Z</time>
      </trkpt>
      <trkpt lat="46.99536" lon="-0.96671">
        <ele>115.395</ele>
        <time>2020-05-27T18:00:21Z</time>
      </trkpt>
      <trkpt lat="46.99537" lon="-0.96671">
        <ele>115.943</ele>
        <time>2020-05-27T18:00:22Z</time>
      </trkpt>
      <trkpt lat="46.99537" lon="-0.96671">
        <ele>115.943</ele>
        <time>2020-05-27T18:00:23Z</time>
      </trkpt>
      <trkpt lat="46.99537" lon="-0.96672">
        <ele>115.481</ele>
        <time>2020-05-27T18:00:24Z</time>
      </trkpt>
      <trkpt lat="46.99537" lon="-0.96672">
        <ele>115.408</ele>
        <time>2020-05-27T18:00:25Z</time>
      </trkpt>
      <trkpt lat="46.99537" lon="-0.96671">
        <ele>114.62</ele>
        <time>2020-05-27T18:00:26Z</time>
      </trkpt>
      <trkpt lat="46.99537" lon="-0.96669">
        <ele>114.076</ele>
        <time>2020-05-27T18:00:27Z</time>
      </trkpt>
      <trkpt lat="46.99537" lon="-0.96668">
        <ele>115.363</ele>
        <time>2020-05-27T18:00:28Z</time>
      </trkpt>
      <trkpt lat="46.99537" lon="-0.96666">
        <ele>116.455</ele>
        <time>2020-05-27T18:00:29Z</time>
      </trkpt>
      <trkpt lat="46.99538" lon="-0.96665">
        <ele>115.565</ele>
        <time>2020-05-27T18:00:30Z</time>
      </trkpt>
      <trkpt lat="46.99538" lon="-0.96664">
        <ele>114.229</ele>
        <time>2020-05-27T18:00:31Z</time>
      </trkpt>
      <trkpt lat="46.99539" lon="-0.96664">
        <ele>115.387</ele>
        <time>2020-05-27T18:00:32Z</time>
      </trkpt>
      <trkpt lat="46.99539" lon="-0.96664">
        <ele>115.265</ele>
        <time>2020-05-27T18:00:33Z</time>
      </trkpt>
      <trkpt lat="46.9954" lon="-0.96663">
        <ele>115.638</ele>
        <time>2020-05-27T18:00:34Z</time>
      </trkpt>
      <trkpt lat="46.9954" lon="-0.96663">
        <ele>115.703</ele>
        <time>2020-05-27T18:00:35Z</time>
      </trkpt>
      <trkpt lat="46.9954" lon="-0.96663">
        <ele>116.69</ele>
        <time>2020-05-27T18:00:36Z</time>
      </trkpt>
      <trkpt lat="46.9954" lon="-0.96663">
        <ele>116.947</ele>
        <time>2020-05-27T18:00:37Z</time>
      </trkpt>
      <trkpt lat="46.9954" lon="-0.96664">
        <ele>115.75</ele>
        <time>2020-05-27T18:00:38Z</time>
      </trkpt>
      <trkpt lat="46.9954" lon="-0.96664">
        <ele>116.174</ele>
        <time>2020-05-27T18:00:39Z</time>
      </trkpt>
      <trkpt lat="46.9954" lon="-0.96664">
        <ele>116.393</ele>
        <time>2020-05-27T18:00:40Z</time>
      </trkpt>
      <trkpt lat="46.99541" lon="-0.96664">
        <ele>117.647</ele>
        <time>2020-05-27T18:00:42Z</time>
      </trkpt>
      <trkpt lat="46.99541" lon="-0.96664">
        <ele>117.035</ele>
        <time>2020-05-27T18:00:43Z</time>
      </trkpt>
      <trkpt lat="46.99541" lon="-0.96664">
        <ele>117.097</ele>
        <time>2020-05-27T18:00:44Z</time>
      </trkpt>
      <trkpt lat="46.99542" lon="-0.96665">
        <ele>117.178</ele>
        <time>2020-05-27T18:00:45Z</time>
      </trkpt>
      <trkpt lat="46.99542" lon="-0.96665">
        <ele>117.405</ele>
        <time>2020-05-27T18:00:47Z</time>
      </trkpt>
      <trkpt lat="46.99543" lon="-0.96665">
        <ele>118.657</ele>
        <time>2020-05-27T18:00:47Z</time>
      </trkpt>
      <trkpt lat="46.99543" lon="-0.96665">
        <ele>119.406</ele>
        <time>2020-05-27T18:00:49Z</time>
      </trkpt>
      <trkpt lat="46.99544" lon="-0.96665">
        <ele>118.415</ele>
        <time>2020-05-27T18:00:50Z</time>
      </trkpt>
      <trkpt lat="46.99544" lon="-0.96665">
        <ele>118.727</ele>
        <time>2020-05-27T18:00:51Z</time>
      </trkpt>
      <trkpt lat="46.99544" lon="-0.96665">
        <ele>118.418</ele>
        <time>2020-05-27T18:00:52Z</time>
      </trkpt>
      <trkpt lat="46.99543" lon="-0.96664">
        <ele>121.588</ele>
        <time>2020-05-27T18:00:53Z</time>
      </trkpt>
      <trkpt lat="46.99544" lon="-0.96664">
        <ele>121.082</ele>
        <time>2020-05-27T18:00:54Z</time>
      </trkpt>
      <trkpt lat="46.99544" lon="-0.96664">
        <ele>120.463</ele>
        <time>2020-05-27T18:00:55Z</time>
      </trkpt>
      <trkpt lat="46.99544" lon="-0.96663">
        <ele>120.099</ele>
        <time>2020-05-27T18:00:56Z</time>
      </trkpt>
      <trkpt lat="46.99545" lon="-0.96663">
        <ele>120.115</ele>
        <time>2020-05-27T18:00:57Z</time>
      </trkpt>
      <trkpt lat="46.99546" lon="-0.96663">
        <ele>118.807</ele>
        <time>2020-05-27T18:00:58Z</time>
      </trkpt>
      <trkpt lat="46.99547" lon="-0.96662">
        <ele>117.631</ele>
        <time>2020-05-27T18:01:00Z</time>
      </trkpt>
      <trkpt lat="46.99547" lon="-0.96661">
        <ele>116.416</ele>
        <time>2020-05-27T18:01:01Z</time>
      </trkpt>
      <trkpt lat="46.99547" lon="-0.96661">
        <ele>115.907</ele>
        <time>2020-05-27T18:01:02Z</time>
      </trkpt>
      <trkpt lat="46.99548" lon="-0.96661">
        <ele>116.119</ele>
        <time>2020-05-27T18:01:03Z</time>
      </trkpt>
      <trkpt lat="46.99548" lon="-0.96661">
        <ele>115.966</ele>
        <time>2020-05-27T18:01:04Z</time>
      </trkpt>
      <trkpt lat="46.99548" lon="-0.96661">
        <ele>115.904</ele>
        <time>2020-05-27T18:01:05Z</time>
      </trkpt>
      <trkpt lat="46.99548" lon="-0.9666">
        <ele>115.897</ele>
        <time>2020-05-27T18:01:06Z</time>
      </trkpt>
      <trkpt lat="46.99547" lon="-0.9666">
        <ele>115.666</ele>
        <time>2020-05-27T18:01:08Z</time>
      </trkpt>
      <trkpt lat="46.99547" lon="-0.9666">
        <ele>115.392</ele>
        <time>2020-05-27T18:01:10Z</time>
      </trkpt>
      <trkpt lat="46.99547" lon="-0.9666">
        <ele>115.325</ele>
        <time>2020-05-27T18:01:11Z</time>
      </trkpt>
      <trkpt lat="46.99547" lon="-0.9666">
        <ele>115.237</ele>
        <time>2020-05-27T18:01:12Z</time>
      </trkpt>
      <trkpt lat="46.99547" lon="-0.9666">
        <ele>115.237</ele>
        <time>2020-05-27T18:01:13Z</time>
      </trkpt>
      <trkpt lat="46.99547" lon="-0.9666">
        <ele>115.194</ele>
        <time>2020-05-27T18:01:14Z</time>
      </trkpt>
      <trkpt lat="46.99547" lon="-0.9666">
        <ele>115.166</ele>
        <time>2020-05-27T18:01:15Z</time>
      </trkpt>
      <trkpt lat="46.99547" lon="-0.9666">
        <ele>115.154</ele>
        <time>2020-05-27T18:01:16Z</time>
      </trkpt>
      <trkpt lat="46.99547" lon="-0.9666">
        <ele>115.126</ele>
        <time>2020-05-27T18:01:17Z</time>
      </trkpt>
      <trkpt lat="46.99547" lon="-0.9666">
        <ele>115.109</ele>
        <time>2020-05-27T18:01:18Z</time>
      </trkpt>
      <trkpt lat="46.99547" lon="-0.9666">
        <ele>115.11</ele>
        <time>2020-05-27T18:01:19Z</time>
      </trkpt>
      <trkpt lat="46.99547" lon="-0.9666">
        <ele>115.127</ele>
        <time>2020-05-27T18:01:20Z</time>
      </trkpt>
      <trkpt lat="46.99547" lon="-0.9666">
        <ele>115.095</ele>
        <time>2020-05-27T18:01:21Z</time>
      </trkpt>
      <trkpt lat="46.99547" lon="-0.9666">
        <ele>115.085</ele>
        <time>2020-05-27T18:01:22Z</time>
      </trkpt>
      <trkpt lat="46.99547" lon="-0.9666">
        <ele>115.071</ele>
        <time>2020-05-27T18:01:23Z</time>
      </trkpt>
      <trkpt lat="46.99547" lon="-0.9666">
        <ele>114.979</ele>
        <time>2020-05-27T18:01:24Z</time>
      </trkpt>
      <trkpt lat="46.99547" lon="-0.9666">
        <ele>114.891</ele>
        <time>2020-05-27T18:01:25Z</time>
      </trkpt>
      <trkpt lat="46.99547" lon="-0.9666">
        <ele>114.851</ele>
        <time>2020-05-27T18:01:26Z</time>
      </trkpt>
      <trkpt lat="46.99547" lon="-0.9666">
        <ele>114.759</ele>
        <time>2020-05-27T18:01:27Z</time>
      </trkpt>
      <trkpt lat="46.99547" lon="-0.9666">
        <ele>114.627</ele>
        <time>2020-05-27T18:01:28Z</time>
      </trkpt>
      <trkpt lat="46.99547" lon="-0.9666">
        <ele>114.343</ele>
        <time>2020-05-27T18:01:29Z</time>
      </trkpt>
      <trkpt lat="46.99548" lon="-0.9666">
        <ele>114.583</ele>
        <time>2020-05-27T18:01:30Z</time>
      </trkpt>
      <trkpt lat="46.99548" lon="-0.9666">
        <ele>115.134</ele>
        <time>2020-05-27T18:01:31Z</time>
      </trkpt>
      <trkpt lat="46.99548" lon="-0.9666">
        <ele>115.854</ele>
        <time>2020-05-27T18:01:32Z</time>
      </trkpt>
      <trkpt lat="46.99548" lon="-0.9666">
        <ele>116.672</ele>
        <time>2020-05-27T18:01:33Z</time>
      </trkpt>
      <trkpt lat="46.99548" lon="-0.9666">
        <ele>116.869</ele>
        <time>2020-05-27T18:01:34Z</time>
      </trkpt>
      <trkpt lat="46.99549" lon="-0.9666">
        <ele>115.973</ele>
        <time>2020-05-27T18:01:35Z</time>
      </trkpt>
      <trkpt lat="46.9955" lon="-0.9666">
        <ele>115.557</ele>
        <time>2020-05-27T18:01:36Z</time>
      </trkpt>
      <trkpt lat="46.9955" lon="-0.9666">
        <ele>114.904</ele>
        <time>2020-05-27T18:01:37Z</time>
      </trkpt>
      <trkpt lat="46.99551" lon="-0.9666">
        <ele>114.454</ele>
        <time>2020-05-27T18:01:38Z</time>
      </trkpt>
      <trkpt lat="46.99551" lon="-0.9666">
        <ele>113.762</ele>
        <time>2020-05-27T18:01:39Z</time>
      </trkpt>
      <trkpt lat="46.99551" lon="-0.9666">
        <ele>113.707</ele>
        <time>2020-05-27T18:01:40Z</time>
      </trkpt>
      <trkpt lat="46.99552" lon="-0.96661">
        <ele>113.24</ele>
        <time>2020-05-27T18:01:41Z</time>
      </trkpt>
      <trkpt lat="46.99552" lon="-0.96661">
        <ele>113.523</ele>
        <time>2020-05-27T18:01:42Z</time>
      </trkpt>
      <trkpt lat="46.99553" lon="-0.9666">
        <ele>113.378</ele>
        <time>2020-05-27T18:01:43Z</time>
      </trkpt>
      <trkpt lat="46.99554" lon="-0.9666">
        <ele>112.878</ele>
        <time>2020-05-27T18:01:44Z</time>
      </trkpt>
      <trkpt lat="46.99554" lon="-0.96659">
        <ele>113.538</ele>
        <time>2020-05-27T18:01:45Z</time>
      </trkpt>
      <trkpt lat="46.99554" lon="-0.96659">
        <ele>114.09</ele>
        <time>2020-05-27T18:01:46Z</time>
      </trkpt>
      <trkpt lat="46.99555" lon="-0.96659">
        <ele>114.483</ele>
        <time>2020-05-27T18:01:47Z</time>
      </trkpt>
      <trkpt lat="46.99555" lon="-0.96659">
        <ele>114.249</ele>
        <time>2020-05-27T18:01:48Z</time>
      </trkpt>
      <trkpt lat="46.99555" lon="-0.96659">
        <ele>113.925</ele>
        <time>2020-05-27T18:01:49Z</time>
      </trkpt>
      <trkpt lat="46.99555" lon="-0.96659">
        <ele>113.707</ele>
        <time>2020-05-27T18:01:50Z</time>
      </trkpt>
      <trkpt lat="46.99555" lon="-0.96659">
        <ele>113.692</ele>
        <time>2020-05-27T18:01:51Z</time>
      </trkpt>
      <trkpt lat="46.99556" lon="-0.96659">
        <ele>113.63</ele>
        <time>2020-05-27T18:01:52Z</time>
      </trkpt>
      <trkpt lat="46.99556" lon="-0.96659">
        <ele>113.193</ele>
        <time>2020-05-27T18:01:53Z</time>
      </trkpt>
      <trkpt lat="46.99556" lon="-0.96658">
        <ele>112.7</ele>
        <time>2020-05-27T18:01:54Z</time>
      </trkpt>
      <trkpt lat="46.99556" lon="-0.96658">
        <ele>112.174</ele>
        <time>2020-05-27T18:01:55Z</time>
      </trkpt>
      <trkpt lat="46.99556" lon="-0.96658">
        <ele>111.176</ele>
        <time>2020-05-27T18:01:56Z</time>
      </trkpt>
      <trkpt lat="46.99555" lon="-0.96657">
        <ele>110.498</ele>
        <time>2020-05-27T18:01:57Z</time>
      </trkpt>
      <trkpt lat="46.99555" lon="-0.96656">
        <ele>109.813</ele>
        <time>2020-05-27T18:01:58Z</time>
      </trkpt>
      <trkpt lat="46.99555" lon="-0.96656">
        <ele>110.114</ele>
        <time>2020-05-27T18:01:59Z</time>
      </trkpt>
      <trkpt lat="46.99555" lon="-0.96656">
        <ele>110.59</ele>
        <time>2020-05-27T18:02:00Z</time>
      </trkpt>
      <trkpt lat="46.99556" lon="-0.96656">
        <ele>110.789</ele>
        <time>2020-05-27T18:02:01Z</time>
      </trkpt>
      <trkpt lat="46.99555" lon="-0.96656">
        <ele>110.478</ele>
        <time>2020-05-27T18:02:02Z</time>
      </trkpt>
      <trkpt lat="46.99556" lon="-0.96656">
        <ele>110.092</ele>
        <time>2020-05-27T18:02:03Z</time>
      </trkpt>
      <trkpt lat="46.99556" lon="-0.96656">
        <ele>109.883</ele>
        <time>2020-05-27T18:02:04Z</time>
      </trkpt>
      <trkpt lat="46.99556" lon="-0.96655">
        <ele>110.285</ele>
        <time>2020-05-27T18:02:05Z</time>
      </trkpt>
      <trkpt lat="46.99557" lon="-0.96654">
        <ele>110.435</ele>
        <time>2020-05-27T18:02:06Z</time>
      </trkpt>
      <trkpt lat="46.99558" lon="-0.96653">
        <ele>111.582</ele>
        <time>2020-05-27T18:02:07Z</time>
      </trkpt>
      <trkpt lat="46.9956" lon="-0.96652">
        <ele>112.899</ele>
        <time>2020-05-27T18:02:08Z</time>
      </trkpt>
      <trkpt lat="46.99562" lon="-0.96652">
        <ele>112.541</ele>
        <time>2020-05-27T18:02:09Z</time>
      </trkpt>
      <trkpt lat="46.99564" lon="-0.96652">
        <ele>111.082</ele>
        <time>2020-05-27T18:02:10Z</time>
      </trkpt>
      <trkpt lat="46.99567" lon="-0.96652">
        <ele>110.849</ele>
        <time>2020-05-27T18:02:11Z</time>
      </trkpt>
      <trkpt lat="46.9957" lon="-0.96652">
        <ele>111.801</ele>
        <time>2020-05-27T18:02:12Z</time>
      </trkpt>
      <trkpt lat="46.99571" lon="-0.96653">
        <ele>110.735</ele>
        <time>2020-05-27T18:02:13Z</time>
      </trkpt>
      <trkpt lat="46.99573" lon="-0.96653">
        <ele>112.318</ele>
        <time>2020-05-27T18:02:14Z</time>
      </trkpt>
      <trkpt lat="46.99574" lon="-0.96654">
        <ele>112.507</ele>
        <time>2020-05-27T18:02:15Z</time>
      </trkpt>
      <trkpt lat="46.99576" lon="-0.96655">
        <ele>113.041</ele>
        <time>2020-05-27T18:02:16Z</time>
      </trkpt>
      <trkpt lat="46.99577" lon="-0.96656">
        <ele>113.905</ele>
        <time>2020-05-27T18:02:17Z</time>
      </trkpt>
      <trkpt lat="46.99578" lon="-0.96658">
        <ele>113.67</ele>
        <time>2020-05-27T18:02:18Z</time>
      </trkpt>
      <trkpt lat="46.99578" lon="-0.9666">
        <ele>113.216</ele>
        <time>2020-05-27T18:02:19Z</time>
      </trkpt>
      <trkpt lat="46.99579" lon="-0.96661">
        <ele>112.567</ele>
        <time>2020-05-27T18:02:20Z</time>
      </trkpt>
      <trkpt lat="46.99581" lon="-0.96663">
        <ele>111.374</ele>
        <time>2020-05-27T18:02:21Z</time>
      </trkpt>
      <trkpt lat="46.99581" lon="-0.96665">
        <ele>111.854</ele>
        <time>2020-05-27T18:02:22Z</time>
      </trkpt>
      <trkpt lat="46.99582" lon="-0.96667">
        <ele>111.337</ele>
        <time>2020-05-27T18:02:23Z</time>
      </trkpt>
      <trkpt lat="46.99582" lon="-0.96668">
        <ele>112.569</ele>
        <time>2020-05-27T18:02:24Z</time>
      </trkpt>
      <trkpt lat="46.99582" lon="-0.96668">
        <ele>112.609</ele>
        <time>2020-05-27T18:02:25Z</time>
      </trkpt>
      <trkpt lat="46.99582" lon="-0.96669">
        <ele>112.354</ele>
        <time>2020-05-27T18:02:26Z</time>
      </trkpt>
      <trkpt lat="46.99582" lon="-0.96669">
        <ele>112.366</ele>
        <time>2020-05-27T18:02:27Z</time>
      </trkpt>
      <trkpt lat="46.99582" lon="-0.9667">
        <ele>112.447</ele>
        <time>2020-05-27T18:02:28Z</time>
      </trkpt>
      <trkpt lat="46.99582" lon="-0.9667">
        <ele>112.669</ele>
        <time>2020-05-27T18:02:29Z</time>
      </trkpt>
      <trkpt lat="46.99582" lon="-0.9667">
        <ele>112.642</ele>
        <time>2020-05-27T18:02:30Z</time>
      </trkpt>
      <trkpt lat="46.99582" lon="-0.9667">
        <ele>112.507</ele>
        <time>2020-05-27T18:02:31Z</time>
      </trkpt>
      <trkpt lat="46.99581" lon="-0.9667">
        <ele>112.511</ele>
        <time>2020-05-27T18:02:32Z</time>
      </trkpt>
      <trkpt lat="46.99581" lon="-0.9667">
        <ele>112.753</ele>
        <time>2020-05-27T18:02:33Z</time>
      </trkpt>
      <trkpt lat="46.99581" lon="-0.96671">
        <ele>112.439</ele>
        <time>2020-05-27T18:02:34Z</time>
      </trkpt>
      <trkpt lat="46.99582" lon="-0.96672">
        <ele>112.598</ele>
        <time>2020-05-27T18:02:35Z</time>
      </trkpt>
      <trkpt lat="46.99583" lon="-0.96675">
        <ele>112.885</ele>
        <time>2020-05-27T18:02:36Z</time>
      </trkpt>
      <trkpt lat="46.99584" lon="-0.96678">
        <ele>112.414</ele>
        <time>2020-05-27T18:02:37Z</time>
      </trkpt>
      <trkpt lat="46.99585" lon="-0.96682">
        <ele>112.742</ele>
        <time>2020-05-27T18:02:38Z</time>
      </trkpt>
      <trkpt lat="46.99586" lon="-0.96686">
        <ele>112.588</ele>
        <time>2020-05-27T18:02:39Z</time>
      </trkpt>
      <trkpt lat="46.99586" lon="-0.9669">
        <ele>112.217</ele>
        <time>2020-05-27T18:02:40Z</time>
      </trkpt>
      <trkpt lat="46.99587" lon="-0.96694">
        <ele>112.252</ele>
        <time>2020-05-27T18:02:41Z</time>
      </trkpt>
      <trkpt lat="46.99587" lon="-0.96698">
        <ele>111.218</ele>
        <time>2020-05-27T18:02:42Z</time>
      </trkpt>
      <trkpt lat="46.99588" lon="-0.96702">
        <ele>109.93</ele>
        <time>2020-05-27T18:02:43Z</time>
      </trkpt>
      <trkpt lat="46.99588" lon="-0.96706">
        <ele>110.385</ele>
        <time>2020-05-27T18:02:44Z</time>
      </trkpt>
      <trkpt lat="46.99589" lon="-0.9671">
        <ele>111.222</ele>
        <time>2020-05-27T18:02:45Z</time>
      </trkpt>
      <trkpt lat="46.99589" lon="-0.96715">
        <ele>111.087</ele>
        <time>2020-05-27T18:02:46Z</time>
      </trkpt>
      <trkpt lat="46.99589" lon="-0.96719">
        <ele>110.485</ele>
        <time>2020-05-27T18:02:47Z</time>
      </trkpt>
      <trkpt lat="46.9959" lon="-0.96723">
        <ele>110.563</ele>
        <time>2020-05-27T18:02:48Z</time>
      </trkpt>
      <trkpt lat="46.9959" lon="-0.96728">
        <ele>110.803</ele>
        <time>2020-05-27T18:02:49Z</time>
      </trkpt>
      <trkpt lat="46.9959" lon="-0.96732">
        <ele>111.955</ele>
        <time>2020-05-27T18:02:50Z</time>
      </trkpt>
      <trkpt lat="46.99591" lon="-0.96736">
        <ele>112.401</ele>
        <time>2020-05-27T18:02:51Z</time>
      </trkpt>
      <trkpt lat="46.99591" lon="-0.9674">
        <ele>112.379</ele>
        <time>2020-05-27T18:02:52Z</time>
      </trkpt>
      <trkpt lat="46.99591" lon="-0.96745">
        <ele>112.031</ele>
        <time>2020-05-27T18:02:53Z</time>
      </trkpt>
      <trkpt lat="46.99591" lon="-0.96749">
        <ele>112.634</ele>
        <time>2020-05-27T18:02:54Z</time>
      </trkpt>
      <trkpt lat="46.99591" lon="-0.96751">
        <ele>113.502</ele>
        <time>2020-05-27T18:02:55Z</time>
      </trkpt>
      <trkpt lat="46.99592" lon="-0.96754">
        <ele>115.149</ele>
        <time>2020-05-27T18:02:56Z</time>
      </trkpt>
      <trkpt lat="46.99592" lon="-0.96757">
        <ele>114.729</ele>
        <time>2020-05-27T18:02:57Z</time>
      </trkpt>
      <trkpt lat="46.99592" lon="-0.9676">
        <ele>114.726</ele>
        <time>2020-05-27T18:02:58Z</time>
      </trkpt>
      <trkpt lat="46.99592" lon="-0.96764">
        <ele>114.952</ele>
        <time>2020-05-27T18:02:59Z</time>
      </trkpt>
      <trkpt lat="46.99591" lon="-0.96768">
        <ele>114.735</ele>
        <time>2020-05-27T18:03:00Z</time>
      </trkpt>
      <trkpt lat="46.9959" lon="-0.96772">
        <ele>114.622</ele>
        <time>2020-05-27T18:03:01Z</time>
      </trkpt>
      <trkpt lat="46.99588" lon="-0.96777">
        <ele>114.667</ele>
        <time>2020-05-27T18:03:02Z</time>
      </trkpt>
      <trkpt lat="46.99587" lon="-0.96781">
        <ele>114.512</ele>
        <time>2020-05-27T18:03:03Z</time>
      </trkpt>
      <trkpt lat="46.99586" lon="-0.96785">
        <ele>114.405</ele>
        <time>2020-05-27T18:03:04Z</time>
      </trkpt>
      <trkpt lat="46.99585" lon="-0.9679">
        <ele>114.578</ele>
        <time>2020-05-27T18:03:05Z</time>
      </trkpt>
      <trkpt lat="46.99585" lon="-0.96795">
        <ele>114.57</ele>
        <time>2020-05-27T18:03:06Z</time>
      </trkpt>
      <trkpt lat="46.99584" lon="-0.96799">
        <ele>114.783</ele>
        <time>2020-05-27T18:03:07Z</time>
      </trkpt>
      <trkpt lat="46.99584" lon="-0.96803">
        <ele>115.594</ele>
        <time>2020-05-27T18:03:08Z</time>
      </trkpt>
      <trkpt lat="46.99583" lon="-0.96805">
        <ele>115.458</ele>
        <time>2020-05-27T18:03:09Z</time>
      </trkpt>
      <trkpt lat="46.99583" lon="-0.96806">
        <ele>115.805</ele>
        <time>2020-05-27T18:03:10Z</time>
      </trkpt>
      <trkpt lat="46.99583" lon="-0.96807">
        <ele>117.108</ele>
        <time>2020-05-27T18:03:11Z</time>
      </trkpt>
      <trkpt lat="46.99582" lon="-0.96809">
        <ele>117.242</ele>
        <time>2020-05-27T18:03:12Z</time>
      </trkpt>
      <trkpt lat="46.99581" lon="-0.96811">
        <ele>117.145</ele>
        <time>2020-05-27T18:03:13Z</time>
      </trkpt>
      <trkpt lat="46.99579" lon="-0.96813">
        <ele>117.529</ele>
        <time>2020-05-27T18:03:14Z</time>
      </trkpt>
      <trkpt lat="46.99577" lon="-0.96815">
        <ele>117.444</ele>
        <time>2020-05-27T18:03:15Z</time>
      </trkpt>
      <trkpt lat="46.99575" lon="-0.96816">
        <ele>117.882</ele>
        <time>2020-05-27T18:03:16Z</time>
      </trkpt>
      <trkpt lat="46.99573" lon="-0.96819">
        <ele>116.954</ele>
        <time>2020-05-27T18:03:17Z</time>
      </trkpt>
      <trkpt lat="46.9957" lon="-0.96821">
        <ele>117.21</ele>
        <time>2020-05-27T18:03:18Z</time>
      </trkpt>
      <trkpt lat="46.99569" lon="-0.96824">
        <ele>116.115</ele>
        <time>2020-05-27T18:03:19Z</time>
      </trkpt>
      <trkpt lat="46.99566" lon="-0.96828">
        <ele>115.928</ele>
        <time>2020-05-27T18:03:20Z</time>
      </trkpt>
      <trkpt lat="46.99564" lon="-0.96831">
        <ele>115.606</ele>
        <time>2020-05-27T18:03:21Z</time>
      </trkpt>
      <trkpt lat="46.99562" lon="-0.96836">
        <ele>116.781</ele>
        <time>2020-05-27T18:03:22Z</time>
      </trkpt>
      <trkpt lat="46.9956" lon="-0.96841">
        <ele>116.209</ele>
        <time>2020-05-27T18:03:23Z</time>
      </trkpt>
      <trkpt lat="46.99558" lon="-0.96845">
        <ele>115.541</ele>
        <time>2020-05-27T18:03:24Z</time>
      </trkpt>
      <trkpt lat="46.99556" lon="-0.9685">
        <ele>115.449</ele>
        <time>2020-05-27T18:03:25Z</time>
      </trkpt>
      <trkpt lat="46.99554" lon="-0.96855">
        <ele>114.819</ele>
        <time>2020-05-27T18:03:26Z</time>
      </trkpt>
      <trkpt lat="46.99552" lon="-0.9686">
        <ele>114.524</ele>
        <time>2020-05-27T18:03:27Z</time>
      </trkpt>
      <trkpt lat="46.9955" lon="-0.96865">
        <ele>114.307</ele>
        <time>2020-05-27T18:03:28Z</time>
      </trkpt>
      <trkpt lat="46.99549" lon="-0.96871">
        <ele>114.352</ele>
        <time>2020-05-27T18:03:29Z</time>
      </trkpt>
      <trkpt lat="46.99547" lon="-0.96876">
        <ele>115.093</ele>
        <time>2020-05-27T18:03:30Z</time>
      </trkpt>
      <trkpt lat="46.99546" lon="-0.96882">
        <ele>114.659</ele>
        <time>2020-05-27T18:03:31Z</time>
      </trkpt>
      <trkpt lat="46.99546" lon="-0.96888">
        <ele>114.605</ele>
        <time>2020-05-27T18:03:32Z</time>
      </trkpt>
      <trkpt lat="46.99545" lon="-0.96894">
        <ele>114.562</ele>
        <time>2020-05-27T18:03:33Z</time>
      </trkpt>
      <trkpt lat="46.99544" lon="-0.969">
        <ele>114.687</ele>
        <time>2020-05-27T18:03:34Z</time>
      </trkpt>
      <trkpt lat="46.99543" lon="-0.96906">
        <ele>114.427</ele>
        <time>2020-05-27T18:03:35Z</time>
      </trkpt>
      <trkpt lat="46.99543" lon="-0.96914">
        <ele>114.091</ele>
        <time>2020-05-27T18:03:36Z</time>
      </trkpt>
      <trkpt lat="46.99543" lon="-0.96919">
        <ele>114.094</ele>
        <time>2020-05-27T18:03:37Z</time>
      </trkpt>
      <trkpt lat="46.99542" lon="-0.96925">
        <ele>114.396</ele>
        <time>2020-05-27T18:03:38Z</time>
      </trkpt>
      <trkpt lat="46.99542" lon="-0.9693">
        <ele>114.753</ele>
        <time>2020-05-27T18:03:39Z</time>
      </trkpt>
      <trkpt lat="46.9954" lon="-0.96935">
        <ele>114.764</ele>
        <time>2020-05-27T18:03:40Z</time>
      </trkpt>
      <trkpt lat="46.99539" lon="-0.9694">
        <ele>115.249</ele>
        <time>2020-05-27T18:03:41Z</time>
      </trkpt>
      <trkpt lat="46.99537" lon="-0.96945">
        <ele>114.622</ele>
        <time>2020-05-27T18:03:42Z</time>
      </trkpt>
      <trkpt lat="46.99536" lon="-0.96951">
        <ele>114.072</ele>
        <time>2020-05-27T18:03:43Z</time>
      </trkpt>
      <trkpt lat="46.99535" lon="-0.96958">
        <ele>113.67</ele>
        <time>2020-05-27T18:03:44Z</time>
      </trkpt>
      <trkpt lat="46.99534" lon="-0.96964">
        <ele>113.347</ele>
        <time>2020-05-27T18:03:45Z</time>
      </trkpt>
      <trkpt lat="46.99534" lon="-0.9697">
        <ele>113.464</ele>
        <time>2020-05-27T18:03:46Z</time>
      </trkpt>
      <trkpt lat="46.99534" lon="-0.96976">
        <ele>113.828</ele>
        <time>2020-05-27T18:03:47Z</time>
      </trkpt>
      <trkpt lat="46.99534" lon="-0.96983">
        <ele>113.629</ele>
        <time>2020-05-27T18:03:48Z</time>
      </trkpt>
      <trkpt lat="46.99533" lon="-0.96988">
        <ele>114.821</ele>
        <time>2020-05-27T18:03:49Z</time>
      </trkpt>
      <trkpt lat="46.99532" lon="-0.96994">
        <ele>114.347</ele>
        <time>2020-05-27T18:03:50Z</time>
      </trkpt>
      <trkpt lat="46.99531" lon="-0.96999">
        <ele>114.899</ele>
        <time>2020-05-27T18:03:51Z</time>
      </trkpt>
      <trkpt lat="46.99529" lon="-0.97005">
        <ele>114.656</ele>
        <time>2020-05-27T18:03:52Z</time>
      </trkpt>
      <trkpt lat="46.99528" lon="-0.97011">
        <ele>114.197</ele>
        <time>2020-05-27T18:03:53Z</time>
      </trkpt>
      <trkpt lat="46.99527" lon="-0.97018">
        <ele>114.181</ele>
        <time>2020-05-27T18:03:54Z</time>
      </trkpt>
      <trkpt lat="46.99527" lon="-0.97027">
        <ele>114.535</ele>
        <time>2020-05-27T18:03:55Z</time>
      </trkpt>
      <trkpt lat="46.99526" lon="-0.97035">
        <ele>114.53</ele>
        <time>2020-05-27T18:03:56Z</time>
      </trkpt>
      <trkpt lat="46.99525" lon="-0.97043">
        <ele>114.215</ele>
        <time>2020-05-27T18:03:57Z</time>
      </trkpt>
      <trkpt lat="46.99527" lon="-0.9705">
        <ele>113.959</ele>
        <time>2020-05-27T18:03:58Z</time>
      </trkpt>
      <trkpt lat="46.99528" lon="-0.97057">
        <ele>114.035</ele>
        <time>2020-05-27T18:03:59Z</time>
      </trkpt>
      <trkpt lat="46.99529" lon="-0.97064">
        <ele>114.086</ele>
        <time>2020-05-27T18:04:00Z</time>
      </trkpt>
      <trkpt lat="46.99529" lon="-0.97069">
        <ele>114.169</ele>
        <time>2020-05-27T18:04:01Z</time>
      </trkpt>
      <trkpt lat="46.99528" lon="-0.97076">
        <ele>114.272</ele>
        <time>2020-05-27T18:04:02Z</time>
      </trkpt>
      <trkpt lat="46.99527" lon="-0.97083">
        <ele>114.29</ele>
        <time>2020-05-27T18:04:03Z</time>
      </trkpt>
      <trkpt lat="46.99526" lon="-0.9709">
        <ele>114.323</ele>
        <time>2020-05-27T18:04:04Z</time>
      </trkpt>
      <trkpt lat="46.99527" lon="-0.97098">
        <ele>114.021</ele>
        <time>2020-05-27T18:04:05Z</time>
      </trkpt>
      <trkpt lat="46.99528" lon="-0.97106">
        <ele>115.148</ele>
        <time>2020-05-27T18:04:06Z</time>
      </trkpt>
      <trkpt lat="46.99527" lon="-0.97114">
        <ele>114.862</ele>
        <time>2020-05-27T18:04:07Z</time>
      </trkpt>
      <trkpt lat="46.99526" lon="-0.97122">
        <ele>114.903</ele>
        <time>2020-05-27T18:04:08Z</time>
      </trkpt>
      <trkpt lat="46.99525" lon="-0.97129">
        <ele>113.705</ele>
        <time>2020-05-27T18:04:09Z</time>
      </trkpt>
      <trkpt lat="46.99524" lon="-0.97134">
        <ele>113.649</ele>
        <time>2020-05-27T18:04:10Z</time>
      </trkpt>
      <trkpt lat="46.99523" lon="-0.97137">
        <ele>113.269</ele>
        <time>2020-05-27T18:04:11Z</time>
      </trkpt>
      <trkpt lat="46.99522" lon="-0.97138">
        <ele>113.283</ele>
        <time>2020-05-27T18:04:12Z</time>
      </trkpt>
      <trkpt lat="46.99521" lon="-0.97138">
        <ele>112.953</ele>
        <time>2020-05-27T18:04:13Z</time>
      </trkpt>
      <trkpt lat="46.99521" lon="-0.97139">
        <ele>112.512</ele>
        <time>2020-05-27T18:04:14Z</time>
      </trkpt>
      <trkpt lat="46.99521" lon="-0.97139">
        <ele>111.876</ele>
        <time>2020-05-27T18:04:15Z</time>
      </trkpt>
      <trkpt lat="46.99521" lon="-0.97139">
        <ele>111.239</ele>
        <time>2020-05-27T18:04:16Z</time>
      </trkpt>
      <trkpt lat="46.99522" lon="-0.97139">
        <ele>110.143</ele>
        <time>2020-05-27T18:04:17Z</time>
      </trkpt>
      <trkpt lat="46.99522" lon="-0.97139">
        <ele>110.976</ele>
        <time>2020-05-27T18:04:18Z</time>
      </trkpt>
      <trkpt lat="46.99522" lon="-0.97139">
        <ele>111.616</ele>
        <time>2020-05-27T18:04:19Z</time>
      </trkpt>
      <trkpt lat="46.99521" lon="-0.97139">
        <ele>112.111</ele>
        <time>2020-05-27T18:04:20Z</time>
      </trkpt>
      <trkpt lat="46.9952" lon="-0.9714">
        <ele>112.146</ele>
        <time>2020-05-27T18:04:21Z</time>
      </trkpt>
      <trkpt lat="46.9952" lon="-0.9714">
        <ele>112.06</ele>
        <time>2020-05-27T18:04:22Z</time>
      </trkpt>
      <trkpt lat="46.99521" lon="-0.9714">
        <ele>112.195</ele>
        <time>2020-05-27T18:04:23Z</time>
      </trkpt>
      <trkpt lat="46.9952" lon="-0.9714">
        <ele>112.26</ele>
        <time>2020-05-27T18:04:24Z</time>
      </trkpt>
      <trkpt lat="46.9952" lon="-0.97141">
        <ele>111.935</ele>
        <time>2020-05-27T18:04:25Z</time>
      </trkpt>
      <trkpt lat="46.99521" lon="-0.97141">
        <ele>111.54</ele>
        <time>2020-05-27T18:04:26Z</time>
      </trkpt>
      <trkpt lat="46.99521" lon="-0.9714">
        <ele>111.842</ele>
        <time>2020-05-27T18:04:27Z</time>
      </trkpt>
      <trkpt lat="46.99521" lon="-0.9714">
        <ele>111.842</ele>
        <time>2020-05-27T18:04:27Z</time>
      </trkpt>
      <trkpt lat="46.99521" lon="-0.9714">
        <ele>111.273</ele>
        <time>2020-05-27T18:04:28Z</time>
      </trkpt>
      <trkpt lat="46.99521" lon="-0.9714">
        <ele>110.91</ele>
        <time>2020-05-27T18:04:29Z</time>
      </trkpt>
      <trkpt lat="46.99521" lon="-0.97141">
        <ele>110.953</ele>
        <time>2020-05-27T18:04:30Z</time>
      </trkpt>
      <trkpt lat="46.99521" lon="-0.97141">
        <ele>112.6</ele>
        <time>2020-05-27T18:04:31Z</time>
      </trkpt>
      <trkpt lat="46.99521" lon="-0.9714">
        <ele>112.72</ele>
        <time>2020-05-27T18:04:32Z</time>
      </trkpt>
      <trkpt lat="46.99521" lon="-0.9714">
        <ele>113.203</ele>
        <time>2020-05-27T18:04:33Z</time>
      </trkpt>
      <trkpt lat="46.99521" lon="-0.97139">
        <ele>112.326</ele>
        <time>2020-05-27T18:04:34Z</time>
      </trkpt>
      <trkpt lat="46.99521" lon="-0.9714">
        <ele>111.832</ele>
        <time>2020-05-27T18:04:35Z</time>
      </trkpt>
      <trkpt lat="46.99521" lon="-0.9714">
        <ele>111.755</ele>
        <time>2020-05-27T18:04:36Z</time>
      </trkpt>
      <trkpt lat="46.99522" lon="-0.9714">
        <ele>111.151</ele>
        <time>2020-05-27T18:04:37Z</time>
      </trkpt>
      <trkpt lat="46.99522" lon="-0.97141">
        <ele>111.081</ele>
        <time>2020-05-27T18:04:38Z</time>
      </trkpt>
      <trkpt lat="46.99523" lon="-0.97141">
        <ele>110.641</ele>
        <time>2020-05-27T18:04:39Z</time>
      </trkpt>
      <trkpt lat="46.99524" lon="-0.97143">
        <ele>109.605</ele>
        <time>2020-05-27T18:04:40Z</time>
      </trkpt>
      <trkpt lat="46.99525" lon="-0.97145">
        <ele>109.842</ele>
        <time>2020-05-27T18:04:41Z</time>
      </trkpt>
      <trkpt lat="46.99526" lon="-0.97149">
        <ele>110.168</ele>
        <time>2020-05-27T18:04:42Z</time>
      </trkpt>
      <trkpt lat="46.99527" lon="-0.97153">
        <ele>109.997</ele>
        <time>2020-05-27T18:04:43Z</time>
      </trkpt>
      <trkpt lat="46.99528" lon="-0.97158">
        <ele>109.534</ele>
        <time>2020-05-27T18:04:44Z</time>
      </trkpt>
      <trkpt lat="46.99529" lon="-0.97163">
        <ele>108.958</ele>
        <time>2020-05-27T18:04:45Z</time>
      </trkpt>
      <trkpt lat="46.9953" lon="-0.97168">
        <ele>109.907</ele>
        <time>2020-05-27T18:04:46Z</time>
      </trkpt>
      <trkpt lat="46.99531" lon="-0.97173">
        <ele>109.918</ele>
        <time>2020-05-27T18:04:47Z</time>
      </trkpt>
      <trkpt lat="46.99532" lon="-0.97178">
        <ele>109.855</ele>
        <time>2020-05-27T18:04:48Z</time>
      </trkpt>
      <trkpt lat="46.99532" lon="-0.97184">
        <ele>110.476</ele>
        <time>2020-05-27T18:04:49Z</time>
      </trkpt>
      <trkpt lat="46.99531" lon="-0.9719">
        <ele>110.961</ele>
        <time>2020-05-27T18:04:50Z</time>
      </trkpt>
      <trkpt lat="46.99531" lon="-0.97196">
        <ele>110.786</ele>
        <time>2020-05-27T18:04:51Z</time>
      </trkpt>
      <trkpt lat="46.9953" lon="-0.97202">
        <ele>110.151</ele>
        <time>2020-05-27T18:04:52Z</time>
      </trkpt>
      <trkpt lat="46.99528" lon="-0.97208">
        <ele>110.327</ele>
        <time>2020-05-27T18:04:53Z</time>
      </trkpt>
      <trkpt lat="46.99526" lon="-0.97214">
        <ele>110.148</ele>
        <time>2020-05-27T18:04:54Z</time>
      </trkpt>
      <trkpt lat="46.99524" lon="-0.9722">
        <ele>110.409</ele>
        <time>2020-05-27T18:04:55Z</time>
      </trkpt>
      <trkpt lat="46.99521" lon="-0.97227">
        <ele>110.221</ele>
        <time>2020-05-27T18:04:56Z</time>
      </trkpt>
      <trkpt lat="46.99518" lon="-0.97234">
        <ele>110.388</ele>
        <time>2020-05-27T18:04:57Z</time>
      </trkpt>
      <trkpt lat="46.99517" lon="-0.97239">
        <ele>110.53</ele>
        <time>2020-05-27T18:04:58Z</time>
      </trkpt>
      <trkpt lat="46.99515" lon="-0.97244">
        <ele>109.94</ele>
        <time>2020-05-27T18:04:59Z</time>
      </trkpt>
      <trkpt lat="46.99513" lon="-0.97248">
        <ele>110.942</ele>
        <time>2020-05-27T18:05:00Z</time>
      </trkpt>
      <trkpt lat="46.99511" lon="-0.97252">
        <ele>110.984</ele>
        <time>2020-05-27T18:05:01Z</time>
      </trkpt>
      <trkpt lat="46.9951" lon="-0.97256">
        <ele>111.054</ele>
        <time>2020-05-27T18:05:02Z</time>
      </trkpt>
      <trkpt lat="46.99509" lon="-0.97259">
        <ele>111.489</ele>
        <time>2020-05-27T18:05:03Z</time>
      </trkpt>
      <trkpt lat="46.99509" lon="-0.97263">
        <ele>109.775</ele>
        <time>2020-05-27T18:05:04Z</time>
      </trkpt>
      <trkpt lat="46.99509" lon="-0.97263">
        <ele>109.58</ele>
        <time>2020-05-27T18:05:05Z</time>
      </trkpt>
      <trkpt lat="46.99509" lon="-0.97263">
        <ele>109.525</ele>
        <time>2020-05-27T18:05:06Z</time>
      </trkpt>
      <trkpt lat="46.99509" lon="-0.97263">
        <ele>109.376</ele>
        <time>2020-05-27T18:05:07Z</time>
      </trkpt>
      <trkpt lat="46.99509" lon="-0.97263">
        <ele>109.562</ele>
        <time>2020-05-27T18:05:08Z</time>
      </trkpt>
      <trkpt lat="46.99509" lon="-0.97263">
        <ele>109.22</ele>
        <time>2020-05-27T18:05:09Z</time>
      </trkpt>
      <trkpt lat="46.99508" lon="-0.97263">
        <ele>109.082</ele>
        <time>2020-05-27T18:05:10Z</time>
      </trkpt>
      <trkpt lat="46.99509" lon="-0.97263">
        <ele>109.39</ele>
        <time>2020-05-27T18:05:11Z</time>
      </trkpt>
      <trkpt lat="46.99509" lon="-0.97263">
        <ele>109.281</ele>
        <time>2020-05-27T18:05:12Z</time>
      </trkpt>
      <trkpt lat="46.99509" lon="-0.97263">
        <ele>109.281</ele>
        <time>2020-05-27T18:05:13Z</time>
      </trkpt>
      <trkpt lat="46.99509" lon="-0.97263">
        <ele>109.214</ele>
        <time>2020-05-27T18:05:14Z</time>
      </trkpt>
      <trkpt lat="46.99508" lon="-0.97262">
        <ele>109.875</ele>
        <time>2020-05-27T18:05:15Z</time>
      </trkpt>
      <trkpt lat="46.99508" lon="-0.97263">
        <ele>109.716</ele>
        <time>2020-05-27T18:05:16Z</time>
      </trkpt>
      <trkpt lat="46.99508" lon="-0.97263">
        <ele>109.702</ele>
        <time>2020-05-27T18:05:17Z</time>
      </trkpt>
      <trkpt lat="46.99509" lon="-0.97263">
        <ele>109.39</ele>
        <time>2020-05-27T18:05:18Z</time>
      </trkpt>
      <trkpt lat="46.99509" lon="-0.97263">
        <ele>109.418</ele>
        <time>2020-05-27T18:05:19Z</time>
      </trkpt>
      <trkpt lat="46.99508" lon="-0.97263">
        <ele>109.469</ele>
        <time>2020-05-27T18:05:20Z</time>
      </trkpt>
      <trkpt lat="46.99508" lon="-0.97263">
        <ele>109.508</ele>
        <time>2020-05-27T18:05:21Z</time>
      </trkpt>
      <trkpt lat="46.99508" lon="-0.97263">
        <ele>109.51</ele>
        <time>2020-05-27T18:05:22Z</time>
      </trkpt>
      <trkpt lat="46.99508" lon="-0.97263">
        <ele>109.509</ele>
        <time>2020-05-27T18:05:23Z</time>
      </trkpt>
      <trkpt lat="46.99508" lon="-0.97263">
        <ele>109.516</ele>
        <time>2020-05-27T18:05:24Z</time>
      </trkpt>
      <trkpt lat="46.99508" lon="-0.97263">
        <ele>109.517</ele>
        <time>2020-05-27T18:05:25Z</time>
      </trkpt>
      <trkpt lat="46.99508" lon="-0.97263">
        <ele>109.514</ele>
        <time>2020-05-27T18:05:26Z</time>
      </trkpt>
      <trkpt lat="46.99508" lon="-0.97263">
        <ele>109.512</ele>
        <time>2020-05-27T18:05:27Z</time>
      </trkpt>
      <trkpt lat="46.99508" lon="-0.97263">
        <ele>109.513</ele>
        <time>2020-05-27T18:05:28Z</time>
      </trkpt>
      <trkpt lat="46.99509" lon="-0.97264">
        <ele>108.964</ele>
        <time>2020-05-27T18:05:29Z</time>
      </trkpt>
      <trkpt lat="46.99509" lon="-0.97266">
        <ele>107.793</ele>
        <time>2020-05-27T18:05:30Z</time>
      </trkpt>
      <trkpt lat="46.99509" lon="-0.97268">
        <ele>109.735</ele>
        <time>2020-05-27T18:05:31Z</time>
      </trkpt>
      <trkpt lat="46.99508" lon="-0.97272">
        <ele>110.601</ele>
        <time>2020-05-27T18:05:32Z</time>
      </trkpt>
      <trkpt lat="46.99508" lon="-0.97277">
        <ele>109.666</ele>
        <time>2020-05-27T18:05:33Z</time>
      </trkpt>
      <trkpt lat="46.99508" lon="-0.97282">
        <ele>107.656</ele>
        <time>2020-05-27T18:05:34Z</time>
      </trkpt>
      <trkpt lat="46.99508" lon="-0.97287">
        <ele>108.569</ele>
        <time>2020-05-27T18:05:35Z</time>
      </trkpt>
      <trkpt lat="46.99507" lon="-0.97292">
        <ele>106.648</ele>
        <time>2020-05-27T18:05:36Z</time>
      </trkpt>
      <trkpt lat="46.99506" lon="-0.97297">
        <ele>106.779</ele>
        <time>2020-05-27T18:05:37Z</time>
      </trkpt>
      <trkpt lat="46.99505" lon="-0.97302">
        <ele>106.061</ele>
        <time>2020-05-27T18:05:38Z</time>
      </trkpt>
      <trkpt lat="46.99505" lon="-0.97308">
        <ele>106.635</ele>
        <time>2020-05-27T18:05:39Z</time>
      </trkpt>
      <trkpt lat="46.99504" lon="-0.97313">
        <ele>105.107</ele>
        <time>2020-05-27T18:05:40Z</time>
      </trkpt>
      <trkpt lat="46.99503" lon="-0.97319">
        <ele>105.635</ele>
        <time>2020-05-27T18:05:41Z</time>
      </trkpt>
      <trkpt lat="46.99502" lon="-0.97325">
        <ele>106.36</ele>
        <time>2020-05-27T18:05:42Z</time>
      </trkpt>
      <trkpt lat="46.995" lon="-0.9733">
        <ele>108.227</ele>
        <time>2020-05-27T18:05:43Z</time>
      </trkpt>
      <trkpt lat="46.99498" lon="-0.97336">
        <ele>107.882</ele>
        <time>2020-05-27T18:05:44Z</time>
      </trkpt>
      <trkpt lat="46.99497" lon="-0.97342">
        <ele>110.957</ele>
        <time>2020-05-27T18:05:45Z</time>
      </trkpt>
      <trkpt lat="46.99495" lon="-0.97348">
        <ele>114.996</ele>
        <time>2020-05-27T18:05:46Z</time>
      </trkpt>
      <trkpt lat="46.99494" lon="-0.97353">
        <ele>113.678</ele>
        <time>2020-05-27T18:05:47Z</time>
      </trkpt>
      <trkpt lat="46.99492" lon="-0.97361">
        <ele>112.732</ele>
        <time>2020-05-27T18:05:48Z</time>
      </trkpt>
      <trkpt lat="46.99489" lon="-0.97368">
        <ele>112.172</ele>
        <time>2020-05-27T18:05:49Z</time>
      </trkpt>
      <trkpt lat="46.99488" lon="-0.97374">
        <ele>111.745</ele>
        <time>2020-05-27T18:05:50Z</time>
      </trkpt>
      <trkpt lat="46.99488" lon="-0.9738">
        <ele>111.484</ele>
        <time>2020-05-27T18:05:51Z</time>
      </trkpt>
      <trkpt lat="46.99488" lon="-0.97387">
        <ele>110.956</ele>
        <time>2020-05-27T18:05:52Z</time>
      </trkpt>
      <trkpt lat="46.99488" lon="-0.97393">
        <ele>111.967</ele>
        <time>2020-05-27T18:05:53Z</time>
      </trkpt>
      <trkpt lat="46.99488" lon="-0.97402">
        <ele>112.423</ele>
        <time>2020-05-27T18:05:54Z</time>
      </trkpt>
      <trkpt lat="46.99488" lon="-0.97408">
        <ele>111.747</ele>
        <time>2020-05-27T18:05:55Z</time>
      </trkpt>
      <trkpt lat="46.99488" lon="-0.97416">
        <ele>111.212</ele>
        <time>2020-05-27T18:05:56Z</time>
      </trkpt>
      <trkpt lat="46.99487" lon="-0.97423">
        <ele>110.914</ele>
        <time>2020-05-27T18:05:57Z</time>
      </trkpt>
      <trkpt lat="46.99487" lon="-0.9743">
        <ele>110.518</ele>
        <time>2020-05-27T18:05:58Z</time>
      </trkpt>
      <trkpt lat="46.99489" lon="-0.97436">
        <ele>110.926</ele>
        <time>2020-05-27T18:05:59Z</time>
      </trkpt>
      <trkpt lat="46.99489" lon="-0.97443">
        <ele>111.057</ele>
        <time>2020-05-27T18:06:00Z</time>
      </trkpt>
      <trkpt lat="46.9949" lon="-0.97451">
        <ele>109.745</ele>
        <time>2020-05-27T18:06:01Z</time>
      </trkpt>
      <trkpt lat="46.99491" lon="-0.97458">
        <ele>109.274</ele>
        <time>2020-05-27T18:06:02Z</time>
      </trkpt>
      <trkpt lat="46.99492" lon="-0.97464">
        <ele>108.788</ele>
        <time>2020-05-27T18:06:03Z</time>
      </trkpt>
      <trkpt lat="46.99494" lon="-0.97471">
        <ele>108.341</ele>
        <time>2020-05-27T18:06:04Z</time>
      </trkpt>
      <trkpt lat="46.99494" lon="-0.97476">
        <ele>107.963</ele>
        <time>2020-05-27T18:06:05Z</time>
      </trkpt>
      <trkpt lat="46.99495" lon="-0.97484">
        <ele>115.93</ele>
        <time>2020-05-27T18:06:06Z</time>
      </trkpt>
      <trkpt lat="46.99496" lon="-0.97492">
        <ele>113.349</ele>
        <time>2020-05-27T18:06:07Z</time>
      </trkpt>
      <trkpt lat="46.99497" lon="-0.97498">
        <ele>111.497</ele>
        <time>2020-05-27T18:06:08Z</time>
      </trkpt>
      <trkpt lat="46.99497" lon="-0.97506">
        <ele>110.605</ele>
        <time>2020-05-27T18:06:09Z</time>
      </trkpt>
      <trkpt lat="46.99498" lon="-0.97513">
        <ele>109.043</ele>
        <time>2020-05-27T18:06:10Z</time>
      </trkpt>
      <trkpt lat="46.99498" lon="-0.97521">
        <ele>108.073</ele>
        <time>2020-05-27T18:06:11Z</time>
      </trkpt>
      <trkpt lat="46.99499" lon="-0.97529">
        <ele>106.797</ele>
        <time>2020-05-27T18:06:12Z</time>
      </trkpt>
      <trkpt lat="46.995" lon="-0.97537">
        <ele>105.677</ele>
        <time>2020-05-27T18:06:13Z</time>
      </trkpt>
      <trkpt lat="46.99501" lon="-0.97544">
        <ele>105.357</ele>
        <time>2020-05-27T18:06:14Z</time>
      </trkpt>
      <trkpt lat="46.99502" lon="-0.97553">
        <ele>104.754</ele>
        <time>2020-05-27T18:06:15Z</time>
      </trkpt>
      <trkpt lat="46.99503" lon="-0.9756">
        <ele>104.311</ele>
        <time>2020-05-27T18:06:16Z</time>
      </trkpt>
      <trkpt lat="46.99504" lon="-0.97568">
        <ele>102.768</ele>
        <time>2020-05-27T18:06:17Z</time>
      </trkpt>
      <trkpt lat="46.99504" lon="-0.97575">
        <ele>102.859</ele>
        <time>2020-05-27T18:06:18Z</time>
      </trkpt>
      <trkpt lat="46.99505" lon="-0.97583">
        <ele>102.857</ele>
        <time>2020-05-27T18:06:19Z</time>
      </trkpt>
      <trkpt lat="46.99505" lon="-0.97589">
        <ele>103.037</ele>
        <time>2020-05-27T18:06:20Z</time>
      </trkpt>
      <trkpt lat="46.99505" lon="-0.97596">
        <ele>102.746</ele>
        <time>2020-05-27T18:06:21Z</time>
      </trkpt>
      <trkpt lat="46.99503" lon="-0.97599">
        <ele>101.772</ele>
        <time>2020-05-27T18:06:22Z</time>
      </trkpt>
      <trkpt lat="46.99504" lon="-0.97606">
        <ele>102.066</ele>
        <time>2020-05-27T18:06:23Z</time>
      </trkpt>
      <trkpt lat="46.99504" lon="-0.97612">
        <ele>101.794</ele>
        <time>2020-05-27T18:06:24Z</time>
      </trkpt>
      <trkpt lat="46.99504" lon="-0.97619">
        <ele>101.043</ele>
        <time>2020-05-27T18:06:25Z</time>
      </trkpt>
      <trkpt lat="46.99505" lon="-0.97626">
        <ele>102.132</ele>
        <time>2020-05-27T18:06:26Z</time>
      </trkpt>
      <trkpt lat="46.99506" lon="-0.97634">
        <ele>103.185</ele>
        <time>2020-05-27T18:06:27Z</time>
      </trkpt>
      <trkpt lat="46.99506" lon="-0.9764">
        <ele>103.51</ele>
        <time>2020-05-27T18:06:28Z</time>
      </trkpt>
      <trkpt lat="46.99506" lon="-0.97648">
        <ele>103.645</ele>
        <time>2020-05-27T18:06:29Z</time>
      </trkpt>
      <trkpt lat="46.99506" lon="-0.97655">
        <ele>103.693</ele>
        <time>2020-05-27T18:06:30Z</time>
      </trkpt>
      <trkpt lat="46.99507" lon="-0.97662">
        <ele>103.531</ele>
        <time>2020-05-27T18:06:31Z</time>
      </trkpt>
      <trkpt lat="46.99508" lon="-0.97668">
        <ele>104.231</ele>
        <time>2020-05-27T18:06:32Z</time>
      </trkpt>
      <trkpt lat="46.99508" lon="-0.97675">
        <ele>103.73</ele>
        <time>2020-05-27T18:06:33Z</time>
      </trkpt>
      <trkpt lat="46.99508" lon="-0.97681">
        <ele>103.455</ele>
        <time>2020-05-27T18:06:34Z</time>
      </trkpt>
      <trkpt lat="46.99508" lon="-0.97689">
        <ele>103.557</ele>
        <time>2020-05-27T18:06:35Z</time>
      </trkpt>
      <trkpt lat="46.99509" lon="-0.97696">
        <ele>104.248</ele>
        <time>2020-05-27T18:06:36Z</time>
      </trkpt>
      <trkpt lat="46.99509" lon="-0.97703">
        <ele>104.09</ele>
        <time>2020-05-27T18:06:37Z</time>
      </trkpt>
      <trkpt lat="46.99509" lon="-0.97711">
        <ele>104.402</ele>
        <time>2020-05-27T18:06:38Z</time>
      </trkpt>
      <trkpt lat="46.9951" lon="-0.97718">
        <ele>104.193</ele>
        <time>2020-05-27T18:06:39Z</time>
      </trkpt>
      <trkpt lat="46.9951" lon="-0.97725">
        <ele>104.071</ele>
        <time>2020-05-27T18:06:40Z</time>
      </trkpt>
      <trkpt lat="46.99511" lon="-0.97732">
        <ele>103.968</ele>
        <time>2020-05-27T18:06:41Z</time>
      </trkpt>
      <trkpt lat="46.99512" lon="-0.97741">
        <ele>103.653</ele>
        <time>2020-05-27T18:06:42Z</time>
      </trkpt>
      <trkpt lat="46.99513" lon="-0.97748">
        <ele>103.488</ele>
        <time>2020-05-27T18:06:43Z</time>
      </trkpt>
      <trkpt lat="46.99514" lon="-0.97755">
        <ele>104.191</ele>
        <time>2020-05-27T18:06:44Z</time>
      </trkpt>
      <trkpt lat="46.99515" lon="-0.97762">
        <ele>104.182</ele>
        <time>2020-05-27T18:06:45Z</time>
      </trkpt>
      <trkpt lat="46.99515" lon="-0.9777">
        <ele>103.834</ele>
        <time>2020-05-27T18:06:46Z</time>
      </trkpt>
      <trkpt lat="46.99516" lon="-0.97778">
        <ele>103.76</ele>
        <time>2020-05-27T18:06:47Z</time>
      </trkpt>
      <trkpt lat="46.99517" lon="-0.97785">
        <ele>104.12</ele>
        <time>2020-05-27T18:06:48Z</time>
      </trkpt>
      <trkpt lat="46.99519" lon="-0.97791">
        <ele>104.333</ele>
        <time>2020-05-27T18:06:49Z</time>
      </trkpt>
      <trkpt lat="46.99521" lon="-0.97796">
        <ele>104.148</ele>
        <time>2020-05-27T18:06:50Z</time>
      </trkpt>
      <trkpt lat="46.99523" lon="-0.97802">
        <ele>104.672</ele>
        <time>2020-05-27T18:06:51Z</time>
      </trkpt>
      <trkpt lat="46.99526" lon="-0.97806">
        <ele>102.711</ele>
        <time>2020-05-27T18:06:52Z</time>
      </trkpt>
      <trkpt lat="46.9953" lon="-0.97809">
        <ele>103.339</ele>
        <time>2020-05-27T18:06:53Z</time>
      </trkpt>
      <trkpt lat="46.99533" lon="-0.97813">
        <ele>103.406</ele>
        <time>2020-05-27T18:06:54Z</time>
      </trkpt>
      <trkpt lat="46.99535" lon="-0.97817">
        <ele>103.67</ele>
        <time>2020-05-27T18:06:55Z</time>
      </trkpt>
      <trkpt lat="46.99536" lon="-0.97821">
        <ele>103.004</ele>
        <time>2020-05-27T18:06:56Z</time>
      </trkpt>
      <trkpt lat="46.99539" lon="-0.97825">
        <ele>102.744</ele>
        <time>2020-05-27T18:06:57Z</time>
      </trkpt>
      <trkpt lat="46.99539" lon="-0.97828">
        <ele>102.754</ele>
        <time>2020-05-27T18:06:58Z</time>
      </trkpt>
      <trkpt lat="46.99539" lon="-0.97831">
        <ele>103.024</ele>
        <time>2020-05-27T18:06:59Z</time>
      </trkpt>
      <trkpt lat="46.99536" lon="-0.97833">
        <ele>103</ele>
        <time>2020-05-27T18:07:00Z</time>
      </trkpt>
      <trkpt lat="46.99534" lon="-0.97836">
        <ele>102.921</ele>
        <time>2020-05-27T18:07:01Z</time>
      </trkpt>
      <trkpt lat="46.99532" lon="-0.97834">
        <ele>104.489</ele>
        <time>2020-05-27T18:07:02Z</time>
      </trkpt>
      <trkpt lat="46.99531" lon="-0.97833">
        <ele>104.471</ele>
        <time>2020-05-27T18:07:03Z</time>
      </trkpt>
      <trkpt lat="46.99531" lon="-0.97833">
        <ele>104.621</ele>
        <time>2020-05-27T18:07:04Z</time>
      </trkpt>
      <trkpt lat="46.99531" lon="-0.97833">
        <ele>104.339</ele>
        <time>2020-05-27T18:07:05Z</time>
      </trkpt>
      <trkpt lat="46.99531" lon="-0.97834">
        <ele>104.189</ele>
        <time>2020-05-27T18:07:06Z</time>
      </trkpt>
      <trkpt lat="46.9953" lon="-0.97834">
        <ele>104.074</ele>
        <time>2020-05-27T18:07:07Z</time>
      </trkpt>
      <trkpt lat="46.9953" lon="-0.97834">
        <ele>104.052</ele>
        <time>2020-05-27T18:07:08Z</time>
      </trkpt>
      <trkpt lat="46.9953" lon="-0.97834">
        <ele>104.268</ele>
        <time>2020-05-27T18:07:09Z</time>
      </trkpt>
      <trkpt lat="46.99531" lon="-0.97834">
        <ele>104.205</ele>
        <time>2020-05-27T18:07:10Z</time>
      </trkpt>
      <trkpt lat="46.99531" lon="-0.97834">
        <ele>104.485</ele>
        <time>2020-05-27T18:07:11Z</time>
      </trkpt>
      <trkpt lat="46.99531" lon="-0.97833">
        <ele>104.407</ele>
        <time>2020-05-27T18:07:12Z</time>
      </trkpt>
      <trkpt lat="46.99531" lon="-0.97833">
        <ele>105.148</ele>
        <time>2020-05-27T18:07:13Z</time>
      </trkpt>
      <trkpt lat="46.99531" lon="-0.97834">
        <ele>105.167</ele>
        <time>2020-05-27T18:07:14Z</time>
      </trkpt>
      <trkpt lat="46.99531" lon="-0.97834">
        <ele>105.182</ele>
        <time>2020-05-27T18:07:15Z</time>
      </trkpt>
      <trkpt lat="46.99531" lon="-0.97834">
        <ele>105.171</ele>
        <time>2020-05-27T18:07:16Z</time>
      </trkpt>
      <trkpt lat="46.99531" lon="-0.97834">
        <ele>105.195</ele>
        <time>2020-05-27T18:07:17Z</time>
      </trkpt>
      <trkpt lat="46.99531" lon="-0.97834">
        <ele>105.191</ele>
        <time>2020-05-27T18:07:18Z</time>
      </trkpt>
      <trkpt lat="46.99531" lon="-0.97834">
        <ele>105.19</ele>
        <time>2020-05-27T18:07:19Z</time>
      </trkpt>
      <trkpt lat="46.99531" lon="-0.97834">
        <ele>105.188</ele>
        <time>2020-05-27T18:07:20Z</time>
      </trkpt>
      <trkpt lat="46.99531" lon="-0.97834">
        <ele>105.188</ele>
        <time>2020-05-27T18:07:21Z</time>
      </trkpt>
      <trkpt lat="46.99531" lon="-0.97834">
        <ele>105.208</ele>
        <time>2020-05-27T18:07:22Z</time>
      </trkpt>
      <trkpt lat="46.99531" lon="-0.97834">
        <ele>105.203</ele>
        <time>2020-05-27T18:07:23Z</time>
      </trkpt>
      <trkpt lat="46.99531" lon="-0.97833">
        <ele>105.213</ele>
        <time>2020-05-27T18:07:24Z</time>
      </trkpt>
      <trkpt lat="46.99531" lon="-0.97833">
        <ele>105.199</ele>
        <time>2020-05-27T18:07:25Z</time>
      </trkpt>
      <trkpt lat="46.99531" lon="-0.97833">
        <ele>105.209</ele>
        <time>2020-05-27T18:07:26Z</time>
      </trkpt>
      <trkpt lat="46.99531" lon="-0.97833">
        <ele>105.204</ele>
        <time>2020-05-27T18:07:27Z</time>
      </trkpt>
      <trkpt lat="46.99531" lon="-0.97833">
        <ele>105.207</ele>
        <time>2020-05-27T18:07:28Z</time>
      </trkpt>
      <trkpt lat="46.99531" lon="-0.97833">
        <ele>105.202</ele>
        <time>2020-05-27T18:07:29Z</time>
      </trkpt>
      <trkpt lat="46.99531" lon="-0.97833">
        <ele>105.201</ele>
        <time>2020-05-27T18:07:30Z</time>
      </trkpt>
      <trkpt lat="46.99531" lon="-0.97833">
        <ele>105.206</ele>
        <time>2020-05-27T18:07:31Z</time>
      </trkpt>
      <trkpt lat="46.99531" lon="-0.97833">
        <ele>105.205</ele>
        <time>2020-05-27T18:07:32Z</time>
      </trkpt>
      <trkpt lat="46.99531" lon="-0.97833">
        <ele>105.204</ele>
        <time>2020-05-27T18:07:33Z</time>
      </trkpt>
      <trkpt lat="46.99531" lon="-0.97833">
        <ele>105.209</ele>
        <time>2020-05-27T18:07:34Z</time>
      </trkpt>
      <trkpt lat="46.99531" lon="-0.97833">
        <ele>105.215</ele>
        <time>2020-05-27T18:07:35Z</time>
      </trkpt>
      <trkpt lat="46.99531" lon="-0.97833">
        <ele>105.218</ele>
        <time>2020-05-27T18:07:36Z</time>
      </trkpt>
      <trkpt lat="46.99531" lon="-0.97833">
        <ele>105.215</ele>
        <time>2020-05-27T18:07:37Z</time>
      </trkpt>
      <trkpt lat="46.99531" lon="-0.97833">
        <ele>105.215</ele>
        <time>2020-05-27T18:07:38Z</time>
      </trkpt>
      <trkpt lat="46.99531" lon="-0.97833">
        <ele>105.213</ele>
        <time>2020-05-27T18:07:39Z</time>
      </trkpt>
      <trkpt lat="46.99531" lon="-0.97833">
        <ele>105.214</ele>
        <time>2020-05-27T18:07:40Z</time>
      </trkpt>
      <trkpt lat="46.99531" lon="-0.97833">
        <ele>105.216</ele>
        <time>2020-05-27T18:07:41Z</time>
      </trkpt>
      <trkpt lat="46.99531" lon="-0.97833">
        <ele>105.22</ele>
        <time>2020-05-27T18:07:42Z</time>
      </trkpt>
      <trkpt lat="46.99531" lon="-0.97833">
        <ele>105.22</ele>
        <time>2020-05-27T18:07:43Z</time>
      </trkpt>
      <trkpt lat="46.99531" lon="-0.97833">
        <ele>105.23</ele>
        <time>2020-05-27T18:07:44Z</time>
      </trkpt>
      <trkpt lat="46.99531" lon="-0.97833">
        <ele>105.242</ele>
        <time>2020-05-27T18:07:45Z</time>
      </trkpt>
      <trkpt lat="46.99531" lon="-0.97833">
        <ele>105.256</ele>
        <time>2020-05-27T18:07:46Z</time>
      </trkpt>
      <trkpt lat="46.99531" lon="-0.97833">
        <ele>105.264</ele>
        <time>2020-05-27T18:07:47Z</time>
      </trkpt>
      <trkpt lat="46.99531" lon="-0.97833">
        <ele>105.27</ele>
        <time>2020-05-27T18:07:48Z</time>
      </trkpt>
      <trkpt lat="46.99531" lon="-0.97833">
        <ele>105.259</ele>
        <time>2020-05-27T18:07:49Z</time>
      </trkpt>
      <trkpt lat="46.99531" lon="-0.97833">
        <ele>105.256</ele>
        <time>2020-05-27T18:07:50Z</time>
      </trkpt>
      <trkpt lat="46.99531" lon="-0.97833">
        <ele>105.252</ele>
        <time>2020-05-27T18:07:51Z</time>
      </trkpt>
      <trkpt lat="46.99531" lon="-0.97833">
        <ele>105.257</ele>
        <time>2020-05-27T18:07:52Z</time>
      </trkpt>
      <trkpt lat="46.99531" lon="-0.97833">
        <ele>105.254</ele>
        <time>2020-05-27T18:07:53Z</time>
      </trkpt>
      <trkpt lat="46.99531" lon="-0.97833">
        <ele>105.253</ele>
        <time>2020-05-27T18:07:54Z</time>
      </trkpt>
      <trkpt lat="46.99531" lon="-0.97833">
        <ele>105.242</ele>
        <time>2020-05-27T18:07:55Z</time>
      </trkpt>
      <trkpt lat="46.99531" lon="-0.97833">
        <ele>105.23</ele>
        <time>2020-05-27T18:07:56Z</time>
      </trkpt>
      <trkpt lat="46.99531" lon="-0.97833">
        <ele>105.231</ele>
        <time>2020-05-27T18:07:57Z</time>
      </trkpt>
      <trkpt lat="46.99531" lon="-0.97833">
        <ele>105.229</ele>
        <time>2020-05-27T18:07:58Z</time>
      </trkpt>
      <trkpt lat="46.99531" lon="-0.97833">
        <ele>105.226</ele>
        <time>2020-05-27T18:07:59Z</time>
      </trkpt>
      <trkpt lat="46.99531" lon="-0.97833">
        <ele>105.255</ele>
        <time>2020-05-27T18:08:00Z</time>
      </trkpt>
      <trkpt lat="46.99531" lon="-0.97833">
        <ele>105.255</ele>
        <time>2020-05-27T18:08:01Z</time>
      </trkpt>
      <trkpt lat="46.99531" lon="-0.97833">
        <ele>105.255</ele>
        <time>2020-05-27T18:08:02Z</time>
      </trkpt>
      <trkpt lat="46.99531" lon="-0.97833">
        <ele>105.249</ele>
        <time>2020-05-27T18:08:03Z</time>
      </trkpt>
      <trkpt lat="46.99531" lon="-0.97833">
        <ele>105.242</ele>
        <time>2020-05-27T18:08:04Z</time>
      </trkpt>
      <trkpt lat="46.99531" lon="-0.97833">
        <ele>105.239</ele>
        <time>2020-05-27T18:08:05Z</time>
      </trkpt>
      <trkpt lat="46.99531" lon="-0.97833">
        <ele>105.796</ele>
        <time>2020-05-27T18:08:06Z</time>
      </trkpt>
      <trkpt lat="46.99531" lon="-0.97833">
        <ele>105.733</ele>
        <time>2020-05-27T18:08:07Z</time>
      </trkpt>
      <trkpt lat="46.99531" lon="-0.97833">
        <ele>105.661</ele>
        <time>2020-05-27T18:08:08Z</time>
      </trkpt>
      <trkpt lat="46.99531" lon="-0.97833">
        <ele>105.634</ele>
        <time>2020-05-27T18:08:09Z</time>
      </trkpt>
      <trkpt lat="46.99531" lon="-0.97833">
        <ele>105.59</ele>
        <time>2020-05-27T18:08:10Z</time>
      </trkpt>
      <trkpt lat="46.99531" lon="-0.97833">
        <ele>105.545</ele>
        <time>2020-05-27T18:08:11Z</time>
      </trkpt>
      <trkpt lat="46.99531" lon="-0.97833">
        <ele>105.458</ele>
        <time>2020-05-27T18:08:12Z</time>
      </trkpt>
      <trkpt lat="46.99531" lon="-0.97833">
        <ele>105.442</ele>
        <time>2020-05-27T18:08:13Z</time>
      </trkpt>
      <trkpt lat="46.99531" lon="-0.97834">
        <ele>105.415</ele>
        <time>2020-05-27T18:08:14Z</time>
      </trkpt>
      <trkpt lat="46.99531" lon="-0.97834">
        <ele>105.361</ele>
        <time>2020-05-27T18:08:15Z</time>
      </trkpt>
      <trkpt lat="46.99531" lon="-0.97834">
        <ele>105.322</ele>
        <time>2020-05-27T18:08:16Z</time>
      </trkpt>
      <trkpt lat="46.99531" lon="-0.97834">
        <ele>105.326</ele>
        <time>2020-05-27T18:08:17Z</time>
      </trkpt>
      <trkpt lat="46.99531" lon="-0.97834">
        <ele>105.314</ele>
        <time>2020-05-27T18:08:18Z</time>
      </trkpt>
      <trkpt lat="46.99531" lon="-0.97833">
        <ele>105.299</ele>
        <time>2020-05-27T18:08:19Z</time>
      </trkpt>
      <trkpt lat="46.99531" lon="-0.97833">
        <ele>105.281</ele>
        <time>2020-05-27T18:08:20Z</time>
      </trkpt>
      <trkpt lat="46.99531" lon="-0.97833">
        <ele>105.239</ele>
        <time>2020-05-27T18:08:21Z</time>
      </trkpt>
      <trkpt lat="46.99531" lon="-0.97833">
        <ele>105.219</ele>
        <time>2020-05-27T18:08:22Z</time>
      </trkpt>
      <trkpt lat="46.99531" lon="-0.97833">
        <ele>105.196</ele>
        <time>2020-05-27T18:08:23Z</time>
      </trkpt>
      <trkpt lat="46.99531" lon="-0.97833">
        <ele>105.18</ele>
        <time>2020-05-27T18:08:24Z</time>
      </trkpt>
      <trkpt lat="46.99531" lon="-0.97833">
        <ele>105.167</ele>
        <time>2020-05-27T18:08:25Z</time>
      </trkpt>
      <trkpt lat="46.99531" lon="-0.97833">
        <ele>105.159</ele>
        <time>2020-05-27T18:08:26Z</time>
      </trkpt>
      <trkpt lat="46.99531" lon="-0.97833">
        <ele>105.146</ele>
        <time>2020-05-27T18:08:27Z</time>
      </trkpt>
      <trkpt lat="46.99531" lon="-0.97833">
        <ele>105.137</ele>
        <time>2020-05-27T18:08:28Z</time>
      </trkpt>
      <trkpt lat="46.99531" lon="-0.97833">
        <ele>105.133</ele>
        <time>2020-05-27T18:08:29Z</time>
      </trkpt>
      <trkpt lat="46.99531" lon="-0.97833">
        <ele>105.132</ele>
        <time>2020-05-27T18:08:30Z</time>
      </trkpt>
      <trkpt lat="46.99531" lon="-0.97833">
        <ele>105.134</ele>
        <time>2020-05-27T18:08:31Z</time>
      </trkpt>
      <trkpt lat="46.99531" lon="-0.97833">
        <ele>105.133</ele>
        <time>2020-05-27T18:08:32Z</time>
      </trkpt>
      <trkpt lat="46.99531" lon="-0.97834">
        <ele>105.133</ele>
        <time>2020-05-27T18:08:33Z</time>
      </trkpt>
      <trkpt lat="46.99531" lon="-0.97834">
        <ele>105.131</ele>
        <time>2020-05-27T18:08:34Z</time>
      </trkpt>
      <trkpt lat="46.99531" lon="-0.97834">
        <ele>105.123</ele>
        <time>2020-05-27T18:08:35Z</time>
      </trkpt>
      <trkpt lat="46.99531" lon="-0.97834">
        <ele>105.118</ele>
        <time>2020-05-27T18:08:36Z</time>
      </trkpt>
      <trkpt lat="46.99531" lon="-0.97834">
        <ele>105.117</ele>
        <time>2020-05-27T18:08:37Z</time>
      </trkpt>
      <trkpt lat="46.99531" lon="-0.97834">
        <ele>105.12</ele>
        <time>2020-05-27T18:08:38Z</time>
      </trkpt>
      <trkpt lat="46.99531" lon="-0.97834">
        <ele>105.122</ele>
        <time>2020-05-27T18:08:39Z</time>
      </trkpt>
      <trkpt lat="46.99531" lon="-0.97834">
        <ele>105.123</ele>
        <time>2020-05-27T18:08:40Z</time>
      </trkpt>
      <trkpt lat="46.99531" lon="-0.97833">
        <ele>105.124</ele>
        <time>2020-05-27T18:08:41Z</time>
      </trkpt>
      <trkpt lat="46.99531" lon="-0.97833">
        <ele>105.122</ele>
        <time>2020-05-27T18:08:42Z</time>
      </trkpt>
      <trkpt lat="46.99531" lon="-0.97833">
        <ele>105.117</ele>
        <time>2020-05-27T18:08:43Z</time>
      </trkpt>
      <trkpt lat="46.99531" lon="-0.97833">
        <ele>105.115</ele>
        <time>2020-05-27T18:08:44Z</time>
      </trkpt>
      <trkpt lat="46.99531" lon="-0.97833">
        <ele>105.114</ele>
        <time>2020-05-27T18:08:45Z</time>
      </trkpt>
      <trkpt lat="46.99531" lon="-0.97833">
        <ele>105.103</ele>
        <time>2020-05-27T18:08:46Z</time>
      </trkpt>
      <trkpt lat="46.99531" lon="-0.97833">
        <ele>105.089</ele>
        <time>2020-05-27T18:08:47Z</time>
      </trkpt>
      <trkpt lat="46.99531" lon="-0.97833">
        <ele>105.087</ele>
        <time>2020-05-27T18:08:48Z</time>
      </trkpt>
      <trkpt lat="46.99531" lon="-0.97833">
        <ele>105.078</ele>
        <time>2020-05-27T18:08:49Z</time>
      </trkpt>
      <trkpt lat="46.99531" lon="-0.97833">
        <ele>105.075</ele>
        <time>2020-05-27T18:08:50Z</time>
      </trkpt>
      <trkpt lat="46.99531" lon="-0.97833">
        <ele>105.072</ele>
        <time>2020-05-27T18:08:51Z</time>
      </trkpt>
      <trkpt lat="46.99531" lon="-0.97833">
        <ele>105.07</ele>
        <time>2020-05-27T18:08:52Z</time>
      </trkpt>
      <trkpt lat="46.99531" lon="-0.97833">
        <ele>105.064</ele>
        <time>2020-05-27T18:08:53Z</time>
      </trkpt>
      <trkpt lat="46.99531" lon="-0.97833">
        <ele>105.063</ele>
        <time>2020-05-27T18:08:54Z</time>
      </trkpt>
      <trkpt lat="46.99531" lon="-0.97834">
        <ele>105.057</ele>
        <time>2020-05-27T18:08:55Z</time>
      </trkpt>
      <trkpt lat="46.99531" lon="-0.97834">
        <ele>105.05</ele>
        <time>2020-05-27T18:08:56Z</time>
      </trkpt>
      <trkpt lat="46.99531" lon="-0.97834">
        <ele>105.049</ele>
        <time>2020-05-27T18:08:57Z</time>
      </trkpt>
      <trkpt lat="46.99531" lon="-0.97834">
        <ele>105.047</ele>
        <time>2020-05-27T18:08:58Z</time>
      </trkpt>
      <trkpt lat="46.99531" lon="-0.97834">
        <ele>105.046</ele>
        <time>2020-05-27T18:08:59Z</time>
      </trkpt>
      <trkpt lat="46.99531" lon="-0.97834">
        <ele>105.047</ele>
        <time>2020-05-27T18:09:00Z</time>
      </trkpt>
      <trkpt lat="46.99531" lon="-0.97834">
        <ele>105.046</ele>
        <time>2020-05-27T18:09:01Z</time>
      </trkpt>
      <trkpt lat="46.99531" lon="-0.97834">
        <ele>105.047</ele>
        <time>2020-05-27T18:09:02Z</time>
      </trkpt>
      <trkpt lat="46.99531" lon="-0.97834">
        <ele>105.048</ele>
        <time>2020-05-27T18:09:03Z</time>
      </trkpt>
      <trkpt lat="46.99531" lon="-0.97834">
        <ele>105.049</ele>
        <time>2020-05-27T18:09:04Z</time>
      </trkpt>
      <trkpt lat="46.99531" lon="-0.97834">
        <ele>105.047</ele>
        <time>2020-05-27T18:09:05Z</time>
      </trkpt>
      <trkpt lat="46.99531" lon="-0.97834">
        <ele>105.05</ele>
        <time>2020-05-27T18:09:06Z</time>
      </trkpt>
      <trkpt lat="46.99531" lon="-0.97834">
        <ele>105.049</ele>
        <time>2020-05-27T18:09:07Z</time>
      </trkpt>
      <trkpt lat="46.99531" lon="-0.97834">
        <ele>105.048</ele>
        <time>2020-05-27T18:09:08Z</time>
      </trkpt>
      <trkpt lat="46.99531" lon="-0.97834">
        <ele>105.048</ele>
        <time>2020-05-27T18:09:09Z</time>
      </trkpt>
      <trkpt lat="46.99531" lon="-0.97834">
        <ele>105.046</ele>
        <time>2020-05-27T18:09:10Z</time>
      </trkpt>
      <trkpt lat="46.99531" lon="-0.97834">
        <ele>105.044</ele>
        <time>2020-05-27T18:09:11Z</time>
      </trkpt>
      <trkpt lat="46.99531" lon="-0.97834">
        <ele>105.042</ele>
        <time>2020-05-27T18:09:12Z</time>
      </trkpt>
      <trkpt lat="46.99531" lon="-0.97834">
        <ele>105.041</ele>
        <time>2020-05-27T18:09:13Z</time>
      </trkpt>
      <trkpt lat="46.99531" lon="-0.97834">
        <ele>105.04</ele>
        <time>2020-05-27T18:09:14Z</time>
      </trkpt>
      <trkpt lat="46.99531" lon="-0.97834">
        <ele>105.038</ele>
        <time>2020-05-27T18:09:15Z</time>
      </trkpt>
      <trkpt lat="46.99531" lon="-0.97834">
        <ele>105.037</ele>
        <time>2020-05-27T18:09:16Z</time>
      </trkpt>
      <trkpt lat="46.99531" lon="-0.97834">
        <ele>105.038</ele>
        <time>2020-05-27T18:09:17Z</time>
      </trkpt>
      <trkpt lat="46.99531" lon="-0.97834">
        <ele>105.04</ele>
        <time>2020-05-27T18:09:18Z</time>
      </trkpt>
      <trkpt lat="46.99531" lon="-0.97834">
        <ele>105.04</ele>
        <time>2020-05-27T18:09:19Z</time>
      </trkpt>
      <trkpt lat="46.99531" lon="-0.97834">
        <ele>105.039</ele>
        <time>2020-05-27T18:09:20Z</time>
      </trkpt>
      <trkpt lat="46.99531" lon="-0.97834">
        <ele>105.039</ele>
        <time>2020-05-27T18:09:21Z</time>
      </trkpt>
      <trkpt lat="46.99531" lon="-0.97834">
        <ele>105.039</ele>
        <time>2020-05-27T18:09:22Z</time>
      </trkpt>
      <trkpt lat="46.99531" lon="-0.97834">
        <ele>105.04</ele>
        <time>2020-05-27T18:09:23Z</time>
      </trkpt>
      <trkpt lat="46.99531" lon="-0.97834">
        <ele>105.041</ele>
        <time>2020-05-27T18:09:24Z</time>
      </trkpt>
      <trkpt lat="46.99531" lon="-0.97834">
        <ele>105.041</ele>
        <time>2020-05-27T18:09:25Z</time>
      </trkpt>
      <trkpt lat="46.99531" lon="-0.97834">
        <ele>105.043</ele>
        <time>2020-05-27T18:09:26Z</time>
      </trkpt>
      <trkpt lat="46.99531" lon="-0.97834">
        <ele>105.043</ele>
        <time>2020-05-27T18:09:27Z</time>
      </trkpt>
      <trkpt lat="46.99531" lon="-0.97834">
        <ele>105.043</ele>
        <time>2020-05-27T18:09:28Z</time>
      </trkpt>
      <trkpt lat="46.99531" lon="-0.97834">
        <ele>105.043</ele>
        <time>2020-05-27T18:09:29Z</time>
      </trkpt>
      <trkpt lat="46.99531" lon="-0.97834">
        <ele>105.043</ele>
        <time>2020-05-27T18:09:30Z</time>
      </trkpt>
      <trkpt lat="46.99531" lon="-0.97834">
        <ele>105.044</ele>
        <time>2020-05-27T18:09:31Z</time>
      </trkpt>
      <trkpt lat="46.99531" lon="-0.97834">
        <ele>105.044</ele>
        <time>2020-05-27T18:09:32Z</time>
      </trkpt>
      <trkpt lat="46.99531" lon="-0.97834">
        <ele>105.043</ele>
        <time>2020-05-27T18:09:33Z</time>
      </trkpt>
      <trkpt lat="46.99531" lon="-0.97834">
        <ele>105.044</ele>
        <time>2020-05-27T18:09:34Z</time>
      </trkpt>
      <trkpt lat="46.99531" lon="-0.97834">
        <ele>105.038</ele>
        <time>2020-05-27T18:09:35Z</time>
      </trkpt>
      <trkpt lat="46.99531" lon="-0.97834">
        <ele>105.035</ele>
        <time>2020-05-27T18:09:36Z</time>
      </trkpt>
      <trkpt lat="46.99531" lon="-0.97833">
        <ele>105.26</ele>
        <time>2020-05-27T18:09:37Z</time>
      </trkpt>
      <trkpt lat="46.99531" lon="-0.97833">
        <ele>103.013</ele>
        <time>2020-05-27T18:09:38Z</time>
      </trkpt>
      <trkpt lat="46.99531" lon="-0.97833">
        <ele>106.202</ele>
        <time>2020-05-27T18:09:39Z</time>
      </trkpt>
      <trkpt lat="46.99531" lon="-0.97834">
        <ele>106.894</ele>
        <time>2020-05-27T18:09:40Z</time>
      </trkpt>
      <trkpt lat="46.99531" lon="-0.97834">
        <ele>106.263</ele>
        <time>2020-05-27T18:09:41Z</time>
      </trkpt>
      <trkpt lat="46.99531" lon="-0.97834">
        <ele>107.583</ele>
        <time>2020-05-27T18:09:42Z</time>
      </trkpt>
      <trkpt lat="46.99531" lon="-0.97834">
        <ele>106.487</ele>
        <time>2020-05-27T18:09:43Z</time>
      </trkpt>
      <trkpt lat="46.99531" lon="-0.97834">
        <ele>105.774</ele>
        <time>2020-05-27T18:09:44Z</time>
      </trkpt>
      <trkpt lat="46.99531" lon="-0.97834">
        <ele>105.212</ele>
        <time>2020-05-27T18:09:45Z</time>
      </trkpt>
      <trkpt lat="46.99531" lon="-0.97834">
        <ele>106.019</ele>
        <time>2020-05-27T18:09:46Z</time>
      </trkpt>
      <trkpt lat="46.99531" lon="-0.97834">
        <ele>107.573</ele>
        <time>2020-05-27T18:09:47Z</time>
      </trkpt>
      <trkpt lat="46.99531" lon="-0.97833">
        <ele>110.437</ele>
        <time>2020-05-27T18:09:48Z</time>
      </trkpt>
      <trkpt lat="46.99532" lon="-0.97831">
        <ele>108.442</ele>
        <time>2020-05-27T18:09:50Z</time>
      </trkpt>
      <trkpt lat="46.99532" lon="-0.97828">
        <ele>108.31</ele>
        <time>2020-05-27T18:09:51Z</time>
      </trkpt>
      <trkpt lat="46.9953" lon="-0.97824">
        <ele>107.326</ele>
        <time>2020-05-27T18:09:52Z</time>
      </trkpt>
      <trkpt lat="46.99528" lon="-0.9782">
        <ele>106.271</ele>
        <time>2020-05-27T18:09:53Z</time>
      </trkpt>
      <trkpt lat="46.99525" lon="-0.97816">
        <ele>104.417</ele>
        <time>2020-05-27T18:09:54Z</time>
      </trkpt>
      <trkpt lat="46.99523" lon="-0.97812">
        <ele>104.303</ele>
        <time>2020-05-27T18:09:55Z</time>
      </trkpt>
      <trkpt lat="46.99521" lon="-0.97807">
        <ele>103.798</ele>
        <time>2020-05-27T18:09:56Z</time>
      </trkpt>
      <trkpt lat="46.99519" lon="-0.97801">
        <ele>105.185</ele>
        <time>2020-05-27T18:09:57Z</time>
      </trkpt>
      <trkpt lat="46.99516" lon="-0.97793">
        <ele>105.38</ele>
        <time>2020-05-27T18:09:58Z</time>
      </trkpt>
      <trkpt lat="46.99515" lon="-0.97787">
        <ele>105.629</ele>
        <time>2020-05-27T18:09:59Z</time>
      </trkpt>
      <trkpt lat="46.99513" lon="-0.97781">
        <ele>105.484</ele>
        <time>2020-05-27T18:10:00Z</time>
      </trkpt>
      <trkpt lat="46.99512" lon="-0.97772">
        <ele>106.279</ele>
        <time>2020-05-27T18:10:01Z</time>
      </trkpt>
      <trkpt lat="46.99511" lon="-0.97765">
        <ele>107.147</ele>
        <time>2020-05-27T18:10:02Z</time>
      </trkpt>
      <trkpt lat="46.9951" lon="-0.97759">
        <ele>107.175</ele>
        <time>2020-05-27T18:10:03Z</time>
      </trkpt>
      <trkpt lat="46.99511" lon="-0.97752">
        <ele>107.674</ele>
        <time>2020-05-27T18:10:04Z</time>
      </trkpt>
      <trkpt lat="46.9951" lon="-0.97746">
        <ele>106.71</ele>
        <time>2020-05-27T18:10:05Z</time>
      </trkpt>
      <trkpt lat="46.99509" lon="-0.97738">
        <ele>106.312</ele>
        <time>2020-05-27T18:10:06Z</time>
      </trkpt>
      <trkpt lat="46.99509" lon="-0.97732">
        <ele>105.522</ele>
        <time>2020-05-27T18:10:07Z</time>
      </trkpt>
      <trkpt lat="46.99509" lon="-0.97725">
        <ele>105.453</ele>
        <time>2020-05-27T18:10:08Z</time>
      </trkpt>
      <trkpt lat="46.99508" lon="-0.97718">
        <ele>105.098</ele>
        <time>2020-05-27T18:10:09Z</time>
      </trkpt>
      <trkpt lat="46.99508" lon="-0.97711">
        <ele>104.329</ele>
        <time>2020-05-27T18:10:10Z</time>
      </trkpt>
      <trkpt lat="46.99508" lon="-0.97703">
        <ele>106.516</ele>
        <time>2020-05-27T18:10:11Z</time>
      </trkpt>
      <trkpt lat="46.99508" lon="-0.97695">
        <ele>107.815</ele>
        <time>2020-05-27T18:10:12Z</time>
      </trkpt>
      <trkpt lat="46.99507" lon="-0.97687">
        <ele>107.833</ele>
        <time>2020-05-27T18:10:13Z</time>
      </trkpt>
      <trkpt lat="46.99507" lon="-0.9768">
        <ele>107.578</ele>
        <time>2020-05-27T18:10:14Z</time>
      </trkpt>
      <trkpt lat="46.99507" lon="-0.97671">
        <ele>108.537</ele>
        <time>2020-05-27T18:10:15Z</time>
      </trkpt>
      <trkpt lat="46.99506" lon="-0.97663">
        <ele>108.596</ele>
        <time>2020-05-27T18:10:16Z</time>
      </trkpt>
      <trkpt lat="46.99506" lon="-0.97655">
        <ele>108.198</ele>
        <time>2020-05-27T18:10:17Z</time>
      </trkpt>
      <trkpt lat="46.99505" lon="-0.97647">
        <ele>107.601</ele>
        <time>2020-05-27T18:10:18Z</time>
      </trkpt>
      <trkpt lat="46.99505" lon="-0.97638">
        <ele>108.488</ele>
        <time>2020-05-27T18:10:19Z</time>
      </trkpt>
      <trkpt lat="46.99505" lon="-0.97628">
        <ele>109.637</ele>
        <time>2020-05-27T18:10:20Z</time>
      </trkpt>
      <trkpt lat="46.99504" lon="-0.97621">
        <ele>109.924</ele>
        <time>2020-05-27T18:10:21Z</time>
      </trkpt>
      <trkpt lat="46.99503" lon="-0.97612">
        <ele>111.346</ele>
        <time>2020-05-27T18:10:22Z</time>
      </trkpt>
      <trkpt lat="46.99502" lon="-0.97604">
        <ele>110.25</ele>
        <time>2020-05-27T18:10:23Z</time>
      </trkpt>
      <trkpt lat="46.99501" lon="-0.97596">
        <ele>110.505</ele>
        <time>2020-05-27T18:10:24Z</time>
      </trkpt>
      <trkpt lat="46.995" lon="-0.97588">
        <ele>109.936</ele>
        <time>2020-05-27T18:10:25Z</time>
      </trkpt>
      <trkpt lat="46.99499" lon="-0.97579">
        <ele>109.361</ele>
        <time>2020-05-27T18:10:26Z</time>
      </trkpt>
      <trkpt lat="46.99498" lon="-0.97571">
        <ele>108.833</ele>
        <time>2020-05-27T18:10:27Z</time>
      </trkpt>
      <trkpt lat="46.99498" lon="-0.97563">
        <ele>109.2</ele>
        <time>2020-05-27T18:10:28Z</time>
      </trkpt>
      <trkpt lat="46.99497" lon="-0.97554">
        <ele>108.919</ele>
        <time>2020-05-27T18:10:29Z</time>
      </trkpt>
      <trkpt lat="46.99496" lon="-0.97545">
        <ele>109.751</ele>
        <time>2020-05-27T18:10:30Z</time>
      </trkpt>
      <trkpt lat="46.99495" lon="-0.97537">
        <ele>110.994</ele>
        <time>2020-05-27T18:10:31Z</time>
      </trkpt>
      <trkpt lat="46.99494" lon="-0.97529">
        <ele>110.494</ele>
        <time>2020-05-27T18:10:32Z</time>
      </trkpt>
      <trkpt lat="46.99494" lon="-0.9752">
        <ele>112.608</ele>
        <time>2020-05-27T18:10:33Z</time>
      </trkpt>
      <trkpt lat="46.99493" lon="-0.97511">
        <ele>114.666</ele>
        <time>2020-05-27T18:10:34Z</time>
      </trkpt>
      <trkpt lat="46.99494" lon="-0.97503">
        <ele>116.54</ele>
        <time>2020-05-27T18:10:35Z</time>
      </trkpt>
      <trkpt lat="46.99493" lon="-0.97494">
        <ele>115.771</ele>
        <time>2020-05-27T18:10:36Z</time>
      </trkpt>
      <trkpt lat="46.99492" lon="-0.97485">
        <ele>115.584</ele>
        <time>2020-05-27T18:10:37Z</time>
      </trkpt>
      <trkpt lat="46.99491" lon="-0.97478">
        <ele>115.283</ele>
        <time>2020-05-27T18:10:38Z</time>
      </trkpt>
      <trkpt lat="46.9949" lon="-0.9747">
        <ele>114.979</ele>
        <time>2020-05-27T18:10:39Z</time>
      </trkpt>
      <trkpt lat="46.99488" lon="-0.97463">
        <ele>114.505</ele>
        <time>2020-05-27T18:10:40Z</time>
      </trkpt>
      <trkpt lat="46.99488" lon="-0.97456">
        <ele>114.221</ele>
        <time>2020-05-27T18:10:41Z</time>
      </trkpt>
      <trkpt lat="46.99487" lon="-0.97449">
        <ele>113.619</ele>
        <time>2020-05-27T18:10:42Z</time>
      </trkpt>
      <trkpt lat="46.99486" lon="-0.97443">
        <ele>113.791</ele>
        <time>2020-05-27T18:10:43Z</time>
      </trkpt>
      <trkpt lat="46.99486" lon="-0.97437">
        <ele>112.439</ele>
        <time>2020-05-27T18:10:44Z</time>
      </trkpt>
      <trkpt lat="46.99486" lon="-0.97431">
        <ele>111.732</ele>
        <time>2020-05-27T18:10:45Z</time>
      </trkpt>
      <trkpt lat="46.99486" lon="-0.97424">
        <ele>111.755</ele>
        <time>2020-05-27T18:10:46Z</time>
      </trkpt>
      <trkpt lat="46.99486" lon="-0.97419">
        <ele>111.924</ele>
        <time>2020-05-27T18:10:47Z</time>
      </trkpt>
      <trkpt lat="46.99486" lon="-0.97414">
        <ele>111.977</ele>
        <time>2020-05-27T18:10:48Z</time>
      </trkpt>
      <trkpt lat="46.99485" lon="-0.97409">
        <ele>112.469</ele>
        <time>2020-05-27T18:10:49Z</time>
      </trkpt>
      <trkpt lat="46.99484" lon="-0.97403">
        <ele>112.018</ele>
        <time>2020-05-27T18:10:50Z</time>
      </trkpt>
      <trkpt lat="46.99483" lon="-0.97398">
        <ele>112.031</ele>
        <time>2020-05-27T18:10:51Z</time>
      </trkpt>
      <trkpt lat="46.99484" lon="-0.97391">
        <ele>113.909</ele>
        <time>2020-05-27T18:10:52Z</time>
      </trkpt>
      <trkpt lat="46.99484" lon="-0.97384">
        <ele>113.095</ele>
        <time>2020-05-27T18:10:53Z</time>
      </trkpt>
      <trkpt lat="46.99484" lon="-0.97377">
        <ele>114.48</ele>
        <time>2020-05-27T18:10:54Z</time>
      </trkpt>
      <trkpt lat="46.99487" lon="-0.9737">
        <ele>113.981</ele>
        <time>2020-05-27T18:10:55Z</time>
      </trkpt>
      <trkpt lat="46.99491" lon="-0.97363">
        <ele>113.563</ele>
        <time>2020-05-27T18:10:56Z</time>
      </trkpt>
      <trkpt lat="46.99493" lon="-0.97356">
        <ele>113.894</ele>
        <time>2020-05-27T18:10:57Z</time>
      </trkpt>
      <trkpt lat="46.99495" lon="-0.9735">
        <ele>114.082</ele>
        <time>2020-05-27T18:10:58Z</time>
      </trkpt>
      <trkpt lat="46.99498" lon="-0.97342">
        <ele>116.498</ele>
        <time>2020-05-27T18:10:59Z</time>
      </trkpt>
      <trkpt lat="46.995" lon="-0.97335">
        <ele>116.732</ele>
        <time>2020-05-27T18:11:00Z</time>
      </trkpt>
      <trkpt lat="46.995" lon="-0.97329">
        <ele>114.574</ele>
        <time>2020-05-27T18:11:01Z</time>
      </trkpt>
      <trkpt lat="46.99502" lon="-0.97322">
        <ele>115.138</ele>
        <time>2020-05-27T18:11:02Z</time>
      </trkpt>
      <trkpt lat="46.99502" lon="-0.97315">
        <ele>114.219</ele>
        <time>2020-05-27T18:11:03Z</time>
      </trkpt>
      <trkpt lat="46.99504" lon="-0.97308">
        <ele>113.825</ele>
        <time>2020-05-27T18:11:04Z</time>
      </trkpt>
      <trkpt lat="46.99505" lon="-0.97302">
        <ele>113.627</ele>
        <time>2020-05-27T18:11:05Z</time>
      </trkpt>
      <trkpt lat="46.99506" lon="-0.97296">
        <ele>112.038</ele>
        <time>2020-05-27T18:11:06Z</time>
      </trkpt>
      <trkpt lat="46.99508" lon="-0.97289">
        <ele>113.118</ele>
        <time>2020-05-27T18:11:07Z</time>
      </trkpt>
      <trkpt lat="46.99509" lon="-0.97283">
        <ele>113.845</ele>
        <time>2020-05-27T18:11:08Z</time>
      </trkpt>
      <trkpt lat="46.99511" lon="-0.97276">
        <ele>113.83</ele>
        <time>2020-05-27T18:11:09Z</time>
      </trkpt>
      <trkpt lat="46.99511" lon="-0.97268">
        <ele>113.053</ele>
        <time>2020-05-27T18:11:10Z</time>
      </trkpt>
      <trkpt lat="46.99513" lon="-0.9726">
        <ele>112.858</ele>
        <time>2020-05-27T18:11:11Z</time>
      </trkpt>
      <trkpt lat="46.99516" lon="-0.97253">
        <ele>111.917</ele>
        <time>2020-05-27T18:11:12Z</time>
      </trkpt>
      <trkpt lat="46.99516" lon="-0.97246">
        <ele>112.177</ele>
        <time>2020-05-27T18:11:13Z</time>
      </trkpt>
      <trkpt lat="46.99517" lon="-0.97239">
        <ele>111.449</ele>
        <time>2020-05-27T18:11:14Z</time>
      </trkpt>
      <trkpt lat="46.99518" lon="-0.97231">
        <ele>110.456</ele>
        <time>2020-05-27T18:11:15Z</time>
      </trkpt>
      <trkpt lat="46.99521" lon="-0.97224">
        <ele>111.302</ele>
        <time>2020-05-27T18:11:16Z</time>
      </trkpt>
      <trkpt lat="46.99523" lon="-0.97218">
        <ele>111.15</ele>
        <time>2020-05-27T18:11:17Z</time>
      </trkpt>
      <trkpt lat="46.99525" lon="-0.97211">
        <ele>109.417</ele>
        <time>2020-05-27T18:11:18Z</time>
      </trkpt>
      <trkpt lat="46.99527" lon="-0.97205">
        <ele>111.035</ele>
        <time>2020-05-27T18:11:19Z</time>
      </trkpt>
      <trkpt lat="46.99528" lon="-0.97198">
        <ele>111.83</ele>
        <time>2020-05-27T18:11:20Z</time>
      </trkpt>
      <trkpt lat="46.99529" lon="-0.97191">
        <ele>110.988</ele>
        <time>2020-05-27T18:11:21Z</time>
      </trkpt>
      <trkpt lat="46.9953" lon="-0.97184">
        <ele>111.783</ele>
        <time>2020-05-27T18:11:22Z</time>
      </trkpt>
      <trkpt lat="46.99529" lon="-0.97177">
        <ele>112.279</ele>
        <time>2020-05-27T18:11:23Z</time>
      </trkpt>
      <trkpt lat="46.9953" lon="-0.97171">
        <ele>112.784</ele>
        <time>2020-05-27T18:11:24Z</time>
      </trkpt>
      <trkpt lat="46.99528" lon="-0.97165">
        <ele>112.343</ele>
        <time>2020-05-27T18:11:25Z</time>
      </trkpt>
      <trkpt lat="46.99527" lon="-0.97158">
        <ele>110.871</ele>
        <time>2020-05-27T18:11:26Z</time>
      </trkpt>
      <trkpt lat="46.99525" lon="-0.97152">
        <ele>110.556</ele>
        <time>2020-05-27T18:11:27Z</time>
      </trkpt>
      <trkpt lat="46.99525" lon="-0.97144">
        <ele>110.483</ele>
        <time>2020-05-27T18:11:28Z</time>
      </trkpt>
      <trkpt lat="46.99525" lon="-0.97136">
        <ele>110.291</ele>
        <time>2020-05-27T18:11:29Z</time>
      </trkpt>
      <trkpt lat="46.99525" lon="-0.97127">
        <ele>110.456</ele>
        <time>2020-05-27T18:11:30Z</time>
      </trkpt>
      <trkpt lat="46.99526" lon="-0.97119">
        <ele>110.677</ele>
        <time>2020-05-27T18:11:31Z</time>
      </trkpt>
      <trkpt lat="46.99527" lon="-0.97109">
        <ele>111.135</ele>
        <time>2020-05-27T18:11:32Z</time>
      </trkpt>
      <trkpt lat="46.99528" lon="-0.97101">
        <ele>110.805</ele>
        <time>2020-05-27T18:11:33Z</time>
      </trkpt>
      <trkpt lat="46.99532" lon="-0.97093">
        <ele>111.726</ele>
        <time>2020-05-27T18:11:34Z</time>
      </trkpt>
      <trkpt lat="46.99531" lon="-0.97085">
        <ele>111.356</ele>
        <time>2020-05-27T18:11:35Z</time>
      </trkpt>
      <trkpt lat="46.99532" lon="-0.97079">
        <ele>111.291</ele>
        <time>2020-05-27T18:11:36Z</time>
      </trkpt>
      <trkpt lat="46.99531" lon="-0.97071">
        <ele>110.232</ele>
        <time>2020-05-27T18:11:37Z</time>
      </trkpt>
      <trkpt lat="46.99532" lon="-0.97064">
        <ele>112.171</ele>
        <time>2020-05-27T18:11:38Z</time>
      </trkpt>
      <trkpt lat="46.9953" lon="-0.97058">
        <ele>111.63</ele>
        <time>2020-05-27T18:11:39Z</time>
      </trkpt>
      <trkpt lat="46.99529" lon="-0.97051">
        <ele>111.52</ele>
        <time>2020-05-27T18:11:40Z</time>
      </trkpt>
      <trkpt lat="46.99527" lon="-0.97044">
        <ele>111.922</ele>
        <time>2020-05-27T18:11:41Z</time>
      </trkpt>
      <trkpt lat="46.99527" lon="-0.97037">
        <ele>111.925</ele>
        <time>2020-05-27T18:11:42Z</time>
      </trkpt>
      <trkpt lat="46.99527" lon="-0.97031">
        <ele>113.076</ele>
        <time>2020-05-27T18:11:43Z</time>
      </trkpt>
      <trkpt lat="46.99527" lon="-0.97025">
        <ele>111.125</ele>
        <time>2020-05-27T18:11:44Z</time>
      </trkpt>
      <trkpt lat="46.99529" lon="-0.97018">
        <ele>111.277</ele>
        <time>2020-05-27T18:11:45Z</time>
      </trkpt>
      <trkpt lat="46.9953" lon="-0.97013">
        <ele>112.078</ele>
        <time>2020-05-27T18:11:46Z</time>
      </trkpt>
      <trkpt lat="46.99531" lon="-0.97007">
        <ele>112.394</ele>
        <time>2020-05-27T18:11:47Z</time>
      </trkpt>
      <trkpt lat="46.99532" lon="-0.97001">
        <ele>111.576</ele>
        <time>2020-05-27T18:11:48Z</time>
      </trkpt>
      <trkpt lat="46.99533" lon="-0.96995">
        <ele>112.155</ele>
        <time>2020-05-27T18:11:49Z</time>
      </trkpt>
      <trkpt lat="46.99534" lon="-0.96989">
        <ele>112.079</ele>
        <time>2020-05-27T18:11:50Z</time>
      </trkpt>
      <trkpt lat="46.99533" lon="-0.96983">
        <ele>109.151</ele>
        <time>2020-05-27T18:11:51Z</time>
      </trkpt>
      <trkpt lat="46.99534" lon="-0.96977">
        <ele>109.95</ele>
        <time>2020-05-27T18:11:52Z</time>
      </trkpt>
      <trkpt lat="46.99535" lon="-0.96971">
        <ele>109.698</ele>
        <time>2020-05-27T18:11:53Z</time>
      </trkpt>
      <trkpt lat="46.99536" lon="-0.96965">
        <ele>108.561</ele>
        <time>2020-05-27T18:11:54Z</time>
      </trkpt>
      <trkpt lat="46.99538" lon="-0.96958">
        <ele>110.392</ele>
        <time>2020-05-27T18:11:55Z</time>
      </trkpt>
      <trkpt lat="46.9954" lon="-0.96952">
        <ele>109.804</ele>
        <time>2020-05-27T18:11:56Z</time>
      </trkpt>
      <trkpt lat="46.99541" lon="-0.96945">
        <ele>108.977</ele>
        <time>2020-05-27T18:11:57Z</time>
      </trkpt>
      <trkpt lat="46.99542" lon="-0.96939">
        <ele>109.568</ele>
        <time>2020-05-27T18:11:58Z</time>
      </trkpt>
      <trkpt lat="46.99544" lon="-0.96932">
        <ele>109.324</ele>
        <time>2020-05-27T18:11:59Z</time>
      </trkpt>
      <trkpt lat="46.99544" lon="-0.96925">
        <ele>110.451</ele>
        <time>2020-05-27T18:12:00Z</time>
      </trkpt>
      <trkpt lat="46.99545" lon="-0.96918">
        <ele>110.849</ele>
        <time>2020-05-27T18:12:01Z</time>
      </trkpt>
      <trkpt lat="46.99547" lon="-0.96911">
        <ele>112.123</ele>
        <time>2020-05-27T18:12:02Z</time>
      </trkpt>
      <trkpt lat="46.99547" lon="-0.96904">
        <ele>112.129</ele>
        <time>2020-05-27T18:12:03Z</time>
      </trkpt>
      <trkpt lat="46.99548" lon="-0.96895">
        <ele>113.112</ele>
        <time>2020-05-27T18:12:04Z</time>
      </trkpt>
      <trkpt lat="46.99548" lon="-0.96888">
        <ele>110.794</ele>
        <time>2020-05-27T18:12:05Z</time>
      </trkpt>
      <trkpt lat="46.9955" lon="-0.96879">
        <ele>111.255</ele>
        <time>2020-05-27T18:12:06Z</time>
      </trkpt>
      <trkpt lat="46.99552" lon="-0.96871">
        <ele>111.324</ele>
        <time>2020-05-27T18:12:07Z</time>
      </trkpt>
      <trkpt lat="46.99551" lon="-0.96862">
        <ele>111.169</ele>
        <time>2020-05-27T18:12:08Z</time>
      </trkpt>
      <trkpt lat="46.99553" lon="-0.96854">
        <ele>110.277</ele>
        <time>2020-05-27T18:12:09Z</time>
      </trkpt>
      <trkpt lat="46.99557" lon="-0.96846">
        <ele>110.896</ele>
        <time>2020-05-27T18:12:10Z</time>
      </trkpt>
      <trkpt lat="46.9956" lon="-0.96838">
        <ele>111.284</ele>
        <time>2020-05-27T18:12:11Z</time>
      </trkpt>
      <trkpt lat="46.99564" lon="-0.96832">
        <ele>111.411</ele>
        <time>2020-05-27T18:12:12Z</time>
      </trkpt>
      <trkpt lat="46.9957" lon="-0.96826">
        <ele>113.429</ele>
        <time>2020-05-27T18:12:13Z</time>
      </trkpt>
      <trkpt lat="46.99574" lon="-0.9682">
        <ele>114.381</ele>
        <time>2020-05-27T18:12:14Z</time>
      </trkpt>
      <trkpt lat="46.9958" lon="-0.96815">
        <ele>112.765</ele>
        <time>2020-05-27T18:12:15Z</time>
      </trkpt>
      <trkpt lat="46.99583" lon="-0.9681">
        <ele>112.506</ele>
        <time>2020-05-27T18:12:16Z</time>
      </trkpt>
      <trkpt lat="46.99586" lon="-0.96805">
        <ele>112.568</ele>
        <time>2020-05-27T18:12:17Z</time>
      </trkpt>
      <trkpt lat="46.99593" lon="-0.96798">
        <ele>112.826</ele>
        <time>2020-05-27T18:12:18Z</time>
      </trkpt>
      <trkpt lat="46.99598" lon="-0.96793">
        <ele>116.688</ele>
        <time>2020-05-27T18:12:19Z</time>
      </trkpt>
      <trkpt lat="46.996" lon="-0.96791">
        <ele>113.511</ele>
        <time>2020-05-27T18:12:20Z</time>
      </trkpt>
      <trkpt lat="46.99603" lon="-0.96788">
        <ele>112.456</ele>
        <time>2020-05-27T18:12:21Z</time>
      </trkpt>
      <trkpt lat="46.99606" lon="-0.96784">
        <ele>111.544</ele>
        <time>2020-05-27T18:12:22Z</time>
      </trkpt>
      <trkpt lat="46.9961" lon="-0.9678">
        <ele>111.849</ele>
        <time>2020-05-27T18:12:24Z</time>
      </trkpt>
      <trkpt lat="46.99612" lon="-0.96777">
        <ele>110.368</ele>
        <time>2020-05-27T18:12:24Z</time>
      </trkpt>
      <trkpt lat="46.99614" lon="-0.96775">
        <ele>109.149</ele>
        <time>2020-05-27T18:12:25Z</time>
      </trkpt>
      <trkpt lat="46.99614" lon="-0.96775">
        <ele>109.149</ele>
        <time>2020-05-27T18:12:25Z</time>
      </trkpt>
      <trkpt lat="46.99618" lon="-0.96773">
        <ele>108.991</ele>
        <time>2020-05-27T18:12:26Z</time>
      </trkpt>
      <trkpt lat="46.9962" lon="-0.96769">
        <ele>108.283</ele>
        <time>2020-05-27T18:12:27Z</time>
      </trkpt>
      <trkpt lat="46.99623" lon="-0.96764">
        <ele>109.399</ele>
        <time>2020-05-27T18:12:28Z</time>
      </trkpt>
      <trkpt lat="46.99625" lon="-0.96761">
        <ele>109.27</ele>
        <time>2020-05-27T18:12:29Z</time>
      </trkpt>
      <trkpt lat="46.99627" lon="-0.96758">
        <ele>108.786</ele>
        <time>2020-05-27T18:12:30Z</time>
      </trkpt>
      <trkpt lat="46.99629" lon="-0.96756">
        <ele>109.57</ele>
        <time>2020-05-27T18:12:31Z</time>
      </trkpt>
      <trkpt lat="46.9963" lon="-0.96753">
        <ele>110.162</ele>
        <time>2020-05-27T18:12:32Z</time>
      </trkpt>
      <trkpt lat="46.99632" lon="-0.9675">
        <ele>110.654</ele>
        <time>2020-05-27T18:12:33Z</time>
      </trkpt>
      <trkpt lat="46.99633" lon="-0.96748">
        <ele>111.363</ele>
        <time>2020-05-27T18:12:34Z</time>
      </trkpt>
      <trkpt lat="46.99635" lon="-0.96745">
        <ele>110.585</ele>
        <time>2020-05-27T18:12:35Z</time>
      </trkpt>
      <trkpt lat="46.99637" lon="-0.96742">
        <ele>110.502</ele>
        <time>2020-05-27T18:12:36Z</time>
      </trkpt>
      <trkpt lat="46.99639" lon="-0.96738">
        <ele>111.09</ele>
        <time>2020-05-27T18:12:37Z</time>
      </trkpt>
      <trkpt lat="46.99641" lon="-0.96734">
        <ele>111.404</ele>
        <time>2020-05-27T18:12:38Z</time>
      </trkpt>
      <trkpt lat="46.99643" lon="-0.96729">
        <ele>110.863</ele>
        <time>2020-05-27T18:12:39Z</time>
      </trkpt>
      <trkpt lat="46.99646" lon="-0.96724">
        <ele>110.383</ele>
        <time>2020-05-27T18:12:40Z</time>
      </trkpt>
      <trkpt lat="46.99648" lon="-0.96719">
        <ele>109.468</ele>
        <time>2020-05-27T18:12:41Z</time>
      </trkpt>
      <trkpt lat="46.9965" lon="-0.96714">
        <ele>110.545</ele>
        <time>2020-05-27T18:12:42Z</time>
      </trkpt>
      <trkpt lat="46.99652" lon="-0.96708">
        <ele>109.776</ele>
        <time>2020-05-27T18:12:43Z</time>
      </trkpt>
      <trkpt lat="46.99653" lon="-0.96703">
        <ele>110.672</ele>
        <time>2020-05-27T18:12:44Z</time>
      </trkpt>
      <trkpt lat="46.99655" lon="-0.96697">
        <ele>109.32</ele>
        <time>2020-05-27T18:12:45Z</time>
      </trkpt>
      <trkpt lat="46.99656" lon="-0.96692">
        <ele>108.921</ele>
        <time>2020-05-27T18:12:46Z</time>
      </trkpt>
      <trkpt lat="46.99658" lon="-0.96687">
        <ele>109.192</ele>
        <time>2020-05-27T18:12:47Z</time>
      </trkpt>
      <trkpt lat="46.99659" lon="-0.96681">
        <ele>109.054</ele>
        <time>2020-05-27T18:12:48Z</time>
      </trkpt>
      <trkpt lat="46.99661" lon="-0.96676">
        <ele>108.925</ele>
        <time>2020-05-27T18:12:49Z</time>
      </trkpt>
      <trkpt lat="46.99662" lon="-0.96671">
        <ele>109.291</ele>
        <time>2020-05-27T18:12:50Z</time>
      </trkpt>
      <trkpt lat="46.99663" lon="-0.96665">
        <ele>109.811</ele>
        <time>2020-05-27T18:12:51Z</time>
      </trkpt>
      <trkpt lat="46.99663" lon="-0.9666">
        <ele>111.005</ele>
        <time>2020-05-27T18:12:52Z</time>
      </trkpt>
      <trkpt lat="46.99662" lon="-0.96655">
        <ele>110.338</ele>
        <time>2020-05-27T18:12:53Z</time>
      </trkpt>
      <trkpt lat="46.99661" lon="-0.96649">
        <ele>110.664</ele>
        <time>2020-05-27T18:12:54Z</time>
      </trkpt>
      <trkpt lat="46.99659" lon="-0.96644">
        <ele>111.441</ele>
        <time>2020-05-27T18:12:55Z</time>
      </trkpt>
      <trkpt lat="46.99657" lon="-0.96638">
        <ele>112.274</ele>
        <time>2020-05-27T18:12:56Z</time>
      </trkpt>
      <trkpt lat="46.99654" lon="-0.96632">
        <ele>113.086</ele>
        <time>2020-05-27T18:12:57Z</time>
      </trkpt>
      <trkpt lat="46.99651" lon="-0.96624">
        <ele>112.835</ele>
        <time>2020-05-27T18:12:58Z</time>
      </trkpt>
      <trkpt lat="46.9965" lon="-0.96617">
        <ele>112.141</ele>
        <time>2020-05-27T18:12:59Z</time>
      </trkpt>
      <trkpt lat="46.99647" lon="-0.96611">
        <ele>112.452</ele>
        <time>2020-05-27T18:13:00Z</time>
      </trkpt>
      <trkpt lat="46.99645" lon="-0.96603">
        <ele>114.312</ele>
        <time>2020-05-27T18:13:01Z</time>
      </trkpt>
      <trkpt lat="46.99642" lon="-0.96595">
        <ele>115.424</ele>
        <time>2020-05-27T18:13:02Z</time>
      </trkpt>
      <trkpt lat="46.99638" lon="-0.96586">
        <ele>115.885</ele>
        <time>2020-05-27T18:13:03Z</time>
      </trkpt>
      <trkpt lat="46.99635" lon="-0.96579">
        <ele>115.612</ele>
        <time>2020-05-27T18:13:04Z</time>
      </trkpt>
      <trkpt lat="46.99632" lon="-0.96573">
        <ele>115.813</ele>
        <time>2020-05-27T18:13:05Z</time>
      </trkpt>
      <trkpt lat="46.99628" lon="-0.96566">
        <ele>115.457</ele>
        <time>2020-05-27T18:13:06Z</time>
      </trkpt>
      <trkpt lat="46.99625" lon="-0.9656">
        <ele>116.222</ele>
        <time>2020-05-27T18:13:07Z</time>
      </trkpt>
      <trkpt lat="46.9962" lon="-0.96553">
        <ele>116.503</ele>
        <time>2020-05-27T18:13:08Z</time>
      </trkpt>
      <trkpt lat="46.99616" lon="-0.96548">
        <ele>116.909</ele>
        <time>2020-05-27T18:13:09Z</time>
      </trkpt>
      <trkpt lat="46.99612" lon="-0.96541">
        <ele>117.464</ele>
        <time>2020-05-27T18:13:10Z</time>
      </trkpt>
      <trkpt lat="46.99608" lon="-0.96534">
        <ele>116.78</ele>
        <time>2020-05-27T18:13:11Z</time>
      </trkpt>
      <trkpt lat="46.99606" lon="-0.96529">
        <ele>115.578</ele>
        <time>2020-05-27T18:13:12Z</time>
      </trkpt>
      <trkpt lat="46.99602" lon="-0.96522">
        <ele>115.591</ele>
        <time>2020-05-27T18:13:13Z</time>
      </trkpt>
      <trkpt lat="46.99598" lon="-0.96515">
        <ele>115.382</ele>
        <time>2020-05-27T18:13:14Z</time>
      </trkpt>
      <trkpt lat="46.99594" lon="-0.96508">
        <ele>115.63</ele>
        <time>2020-05-27T18:13:15Z</time>
      </trkpt>
      <trkpt lat="46.9959" lon="-0.96501">
        <ele>115.404</ele>
        <time>2020-05-27T18:13:16Z</time>
      </trkpt>
      <trkpt lat="46.99586" lon="-0.96494">
        <ele>116.701</ele>
        <time>2020-05-27T18:13:17Z</time>
      </trkpt>
      <trkpt lat="46.99583" lon="-0.96487">
        <ele>116.616</ele>
        <time>2020-05-27T18:13:18Z</time>
      </trkpt>
      <trkpt lat="46.9958" lon="-0.96481">
        <ele>117.162</ele>
        <time>2020-05-27T18:13:19Z</time>
      </trkpt>
      <trkpt lat="46.99577" lon="-0.96475">
        <ele>117.48</ele>
        <time>2020-05-27T18:13:20Z</time>
      </trkpt>
      <trkpt lat="46.99575" lon="-0.96468">
        <ele>117.595</ele>
        <time>2020-05-27T18:13:21Z</time>
      </trkpt>
      <trkpt lat="46.99573" lon="-0.96463">
        <ele>117.117</ele>
        <time>2020-05-27T18:13:22Z</time>
      </trkpt>
      <trkpt lat="46.99571" lon="-0.96457">
        <ele>117.259</ele>
        <time>2020-05-27T18:13:23Z</time>
      </trkpt>
      <trkpt lat="46.99569" lon="-0.96451">
        <ele>117.992</ele>
        <time>2020-05-27T18:13:24Z</time>
      </trkpt>
      <trkpt lat="46.99567" lon="-0.96446">
        <ele>119.604</ele>
        <time>2020-05-27T18:13:25Z</time>
      </trkpt>
      <trkpt lat="46.99564" lon="-0.96439">
        <ele>119.082</ele>
        <time>2020-05-27T18:13:26Z</time>
      </trkpt>
      <trkpt lat="46.9956" lon="-0.96434">
        <ele>118.75</ele>
        <time>2020-05-27T18:13:27Z</time>
      </trkpt>
      <trkpt lat="46.99558" lon="-0.96427">
        <ele>117.552</ele>
        <time>2020-05-27T18:13:28Z</time>
      </trkpt>
      <trkpt lat="46.99556" lon="-0.96418">
        <ele>120.032</ele>
        <time>2020-05-27T18:13:29Z</time>
      </trkpt>
      <trkpt lat="46.99554" lon="-0.96413">
        <ele>120.358</ele>
        <time>2020-05-27T18:13:30Z</time>
      </trkpt>
      <trkpt lat="46.99549" lon="-0.96409">
        <ele>120.232</ele>
        <time>2020-05-27T18:13:31Z</time>
      </trkpt>
      <trkpt lat="46.99545" lon="-0.96403">
        <ele>119.232</ele>
        <time>2020-05-27T18:13:32Z</time>
      </trkpt>
      <trkpt lat="46.99541" lon="-0.96397">
        <ele>119.093</ele>
        <time>2020-05-27T18:13:33Z</time>
      </trkpt>
      <trkpt lat="46.99539" lon="-0.96393">
        <ele>118.567</ele>
        <time>2020-05-27T18:13:34Z</time>
      </trkpt>
      <trkpt lat="46.99535" lon="-0.96388">
        <ele>118.082</ele>
        <time>2020-05-27T18:13:35Z</time>
      </trkpt>
      <trkpt lat="46.99533" lon="-0.96384">
        <ele>117.789</ele>
        <time>2020-05-27T18:13:36Z</time>
      </trkpt>
      <trkpt lat="46.9953" lon="-0.96378">
        <ele>116.832</ele>
        <time>2020-05-27T18:13:37Z</time>
      </trkpt>
      <trkpt lat="46.99525" lon="-0.96373">
        <ele>116.329</ele>
        <time>2020-05-27T18:13:38Z</time>
      </trkpt>
      <trkpt lat="46.99524" lon="-0.96367">
        <ele>116.163</ele>
        <time>2020-05-27T18:13:39Z</time>
      </trkpt>
      <trkpt lat="46.99521" lon="-0.96363">
        <ele>116.499</ele>
        <time>2020-05-27T18:13:40Z</time>
      </trkpt>
      <trkpt lat="46.99517" lon="-0.96357">
        <ele>116.513</ele>
        <time>2020-05-27T18:13:41Z</time>
      </trkpt>
      <trkpt lat="46.99516" lon="-0.96352">
        <ele>116.217</ele>
        <time>2020-05-27T18:13:42Z</time>
      </trkpt>
      <trkpt lat="46.99514" lon="-0.96345">
        <ele>118.515</ele>
        <time>2020-05-27T18:13:43Z</time>
      </trkpt>
      <trkpt lat="46.99512" lon="-0.9634">
        <ele>116.687</ele>
        <time>2020-05-27T18:13:44Z</time>
      </trkpt>
      <trkpt lat="46.99509" lon="-0.96333">
        <ele>115.607</ele>
        <time>2020-05-27T18:13:45Z</time>
      </trkpt>
      <trkpt lat="46.99507" lon="-0.96326">
        <ele>114.825</ele>
        <time>2020-05-27T18:13:46Z</time>
      </trkpt>
      <trkpt lat="46.99505" lon="-0.96319">
        <ele>114.433</ele>
        <time>2020-05-27T18:13:47Z</time>
      </trkpt>
      <trkpt lat="46.99504" lon="-0.96313">
        <ele>116.109</ele>
        <time>2020-05-27T18:13:48Z</time>
      </trkpt>
      <trkpt lat="46.995" lon="-0.96308">
        <ele>115.912</ele>
        <time>2020-05-27T18:13:49Z</time>
      </trkpt>
      <trkpt lat="46.99497" lon="-0.96301">
        <ele>118.134</ele>
        <time>2020-05-27T18:13:50Z</time>
      </trkpt>
      <trkpt lat="46.99494" lon="-0.96294">
        <ele>118.45</ele>
        <time>2020-05-27T18:13:51Z</time>
      </trkpt>
      <trkpt lat="46.99492" lon="-0.96286">
        <ele>118.958</ele>
        <time>2020-05-27T18:13:52Z</time>
      </trkpt>
      <trkpt lat="46.99488" lon="-0.96278">
        <ele>117.092</ele>
        <time>2020-05-27T18:13:53Z</time>
      </trkpt>
      <trkpt lat="46.99491" lon="-0.96272">
        <ele>117.076</ele>
        <time>2020-05-27T18:13:54Z</time>
      </trkpt>
      <trkpt lat="46.99492" lon="-0.96265">
        <ele>117.351</ele>
        <time>2020-05-27T18:13:55Z</time>
      </trkpt>
      <trkpt lat="46.9949" lon="-0.96259">
        <ele>115.396</ele>
        <time>2020-05-27T18:13:56Z</time>
      </trkpt>
      <trkpt lat="46.99485" lon="-0.96253">
        <ele>113.046</ele>
        <time>2020-05-27T18:13:57Z</time>
      </trkpt>
      <trkpt lat="46.99485" lon="-0.96247">
        <ele>111.484</ele>
        <time>2020-05-27T18:13:58Z</time>
      </trkpt>
      <trkpt lat="46.99483" lon="-0.96241">
        <ele>111.633</ele>
        <time>2020-05-27T18:13:59Z</time>
      </trkpt>
      <trkpt lat="46.99481" lon="-0.96234">
        <ele>111.3</ele>
        <time>2020-05-27T18:14:00Z</time>
      </trkpt>
      <trkpt lat="46.99477" lon="-0.96225">
        <ele>111.48</ele>
        <time>2020-05-27T18:14:01Z</time>
      </trkpt>
      <trkpt lat="46.99476" lon="-0.9622">
        <ele>108.911</ele>
        <time>2020-05-27T18:14:02Z</time>
      </trkpt>
      <trkpt lat="46.99474" lon="-0.96214">
        <ele>110.934</ele>
        <time>2020-05-27T18:14:03Z</time>
      </trkpt>
      <trkpt lat="46.9947" lon="-0.96209">
        <ele>111.354</ele>
        <time>2020-05-27T18:14:04Z</time>
      </trkpt>
      <trkpt lat="46.99471" lon="-0.962">
        <ele>110.055</ele>
        <time>2020-05-27T18:14:05Z</time>
      </trkpt>
      <trkpt lat="46.99469" lon="-0.96189">
        <ele>113.392</ele>
        <time>2020-05-27T18:14:06Z</time>
      </trkpt>
      <trkpt lat="46.99466" lon="-0.96184">
        <ele>114.171</ele>
        <time>2020-05-27T18:14:07Z</time>
      </trkpt>
      <trkpt lat="46.99465" lon="-0.96176">
        <ele>112.887</ele>
        <time>2020-05-27T18:14:08Z</time>
      </trkpt>
      <trkpt lat="46.99463" lon="-0.9617">
        <ele>113.337</ele>
        <time>2020-05-27T18:14:09Z</time>
      </trkpt>
      <trkpt lat="46.99463" lon="-0.96167">
        <ele>112.784</ele>
        <time>2020-05-27T18:14:10Z</time>
      </trkpt>
      <trkpt lat="46.99461" lon="-0.96164">
        <ele>112.53</ele>
        <time>2020-05-27T18:14:11Z</time>
      </trkpt>
      <trkpt lat="46.99459" lon="-0.96162">
        <ele>111.512</ele>
        <time>2020-05-27T18:14:12Z</time>
      </trkpt>
      <trkpt lat="46.99458" lon="-0.96161">
        <ele>111.395</ele>
        <time>2020-05-27T18:14:13Z</time>
      </trkpt>
      <trkpt lat="46.99457" lon="-0.9616">
        <ele>111.093</ele>
        <time>2020-05-27T18:14:14Z</time>
      </trkpt>
      <trkpt lat="46.99457" lon="-0.9616">
        <ele>111.755</ele>
        <time>2020-05-27T18:14:15Z</time>
      </trkpt>
      <trkpt lat="46.99457" lon="-0.9616">
        <ele>111.275</ele>
        <time>2020-05-27T18:14:16Z</time>
      </trkpt>
      <trkpt lat="46.99457" lon="-0.9616">
        <ele>110.318</ele>
        <time>2020-05-27T18:14:17Z</time>
      </trkpt>
      <trkpt lat="46.99457" lon="-0.9616">
        <ele>108.902</ele>
        <time>2020-05-27T18:14:18Z</time>
      </trkpt>
      <trkpt lat="46.99456" lon="-0.96156">
        <ele>110.244</ele>
        <time>2020-05-27T18:14:19Z</time>
      </trkpt>
      <trkpt lat="46.99456" lon="-0.96153">
        <ele>109.528</ele>
        <time>2020-05-27T18:14:20Z</time>
      </trkpt>
      <trkpt lat="46.99456" lon="-0.96152">
        <ele>107.657</ele>
        <time>2020-05-27T18:14:21Z</time>
      </trkpt>
      <trkpt lat="46.99455" lon="-0.9615">
        <ele>108.072</ele>
        <time>2020-05-27T18:14:22Z</time>
      </trkpt>
      <trkpt lat="46.99455" lon="-0.96148">
        <ele>110.333</ele>
        <time>2020-05-27T18:14:23Z</time>
      </trkpt>
      <trkpt lat="46.99455" lon="-0.96146">
        <ele>111.42</ele>
        <time>2020-05-27T18:14:24Z</time>
      </trkpt>
      <trkpt lat="46.99454" lon="-0.96144">
        <ele>112.06</ele>
        <time>2020-05-27T18:14:25Z</time>
      </trkpt>
      <trkpt lat="46.99453" lon="-0.96142">
        <ele>112.168</ele>
        <time>2020-05-27T18:14:26Z</time>
      </trkpt>
      <trkpt lat="46.99452" lon="-0.96139">
        <ele>113.61</ele>
        <time>2020-05-27T18:14:27Z</time>
      </trkpt>
      <trkpt lat="46.99451" lon="-0.96136">
        <ele>115.002</ele>
        <time>2020-05-27T18:14:28Z</time>
      </trkpt>
      <trkpt lat="46.9945" lon="-0.96133">
        <ele>116.745</ele>
        <time>2020-05-27T18:14:29Z</time>
      </trkpt>
      <trkpt lat="46.99449" lon="-0.96129">
        <ele>116.267</ele>
        <time>2020-05-27T18:14:30Z</time>
      </trkpt>
      <trkpt lat="46.99448" lon="-0.96125">
        <ele>116.927</ele>
        <time>2020-05-27T18:14:31Z</time>
      </trkpt>
      <trkpt lat="46.99447" lon="-0.96122">
        <ele>117.259</ele>
        <time>2020-05-27T18:14:32Z</time>
      </trkpt>
      <trkpt lat="46.99446" lon="-0.96118">
        <ele>119.375</ele>
        <time>2020-05-27T18:14:33Z</time>
      </trkpt>
      <trkpt lat="46.99445" lon="-0.96114">
        <ele>119.825</ele>
        <time>2020-05-27T18:14:34Z</time>
      </trkpt>
      <trkpt lat="46.99444" lon="-0.9611">
        <ele>119.201</ele>
        <time>2020-05-27T18:14:35Z</time>
      </trkpt>
      <trkpt lat="46.99443" lon="-0.96107">
        <ele>119.641</ele>
        <time>2020-05-27T18:14:36Z</time>
      </trkpt>
      <trkpt lat="46.99442" lon="-0.96104">
        <ele>119.577</ele>
        <time>2020-05-27T18:14:37Z</time>
      </trkpt>
      <trkpt lat="46.99441" lon="-0.96101">
        <ele>120.678</ele>
        <time>2020-05-27T18:14:38Z</time>
      </trkpt>
      <trkpt lat="46.9944" lon="-0.96097">
        <ele>121.63</ele>
        <time>2020-05-27T18:14:39Z</time>
      </trkpt>
      <trkpt lat="46.99439" lon="-0.96094">
        <ele>121.843</ele>
        <time>2020-05-27T18:14:40Z</time>
      </trkpt>
      <trkpt lat="46.99437" lon="-0.9609">
        <ele>123.277</ele>
        <time>2020-05-27T18:14:41Z</time>
      </trkpt>
      <trkpt lat="46.99436" lon="-0.96087">
        <ele>122.967</ele>
        <time>2020-05-27T18:14:42Z</time>
      </trkpt>
      <trkpt lat="46.99435" lon="-0.96084">
        <ele>122.828</ele>
        <time>2020-05-27T18:14:43Z</time>
      </trkpt>
      <trkpt lat="46.99435" lon="-0.9608">
        <ele>123.213</ele>
        <time>2020-05-27T18:14:44Z</time>
      </trkpt>
      <trkpt lat="46.99434" lon="-0.96077">
        <ele>123.344</ele>
        <time>2020-05-27T18:14:45Z</time>
      </trkpt>
      <trkpt lat="46.99434" lon="-0.96074">
        <ele>123.359</ele>
        <time>2020-05-27T18:14:46Z</time>
      </trkpt>
      <trkpt lat="46.99433" lon="-0.9607">
        <ele>123.831</ele>
        <time>2020-05-27T18:14:47Z</time>
      </trkpt>
      <trkpt lat="46.99433" lon="-0.96067">
        <ele>122.966</ele>
        <time>2020-05-27T18:14:48Z</time>
      </trkpt>
      <trkpt lat="46.99433" lon="-0.96064">
        <ele>124.455</ele>
        <time>2020-05-27T18:14:49Z</time>
      </trkpt>
      <trkpt lat="46.99433" lon="-0.9606">
        <ele>124.376</ele>
        <time>2020-05-27T18:14:50Z</time>
      </trkpt>
      <trkpt lat="46.99433" lon="-0.96057">
        <ele>126.866</ele>
        <time>2020-05-27T18:14:51Z</time>
      </trkpt>
      <trkpt lat="46.99433" lon="-0.96054">
        <ele>127.477</ele>
        <time>2020-05-27T18:14:52Z</time>
      </trkpt>
      <trkpt lat="46.99432" lon="-0.96051">
        <ele>128.825</ele>
        <time>2020-05-27T18:14:53Z</time>
      </trkpt>
      <trkpt lat="46.99431" lon="-0.96049">
        <ele>128.997</ele>
        <time>2020-05-27T18:14:54Z</time>
      </trkpt>
      <trkpt lat="46.99428" lon="-0.96046">
        <ele>129.036</ele>
        <time>2020-05-27T18:14:55Z</time>
      </trkpt>
      <trkpt lat="46.99425" lon="-0.96042">
        <ele>126.997</ele>
        <time>2020-05-27T18:14:56Z</time>
      </trkpt>
      <trkpt lat="46.9942" lon="-0.96038">
        <ele>126.242</ele>
        <time>2020-05-27T18:14:57Z</time>
      </trkpt>
      <trkpt lat="46.99416" lon="-0.96035">
        <ele>124.975</ele>
        <time>2020-05-27T18:14:58Z</time>
      </trkpt>
      <trkpt lat="46.99411" lon="-0.9603">
        <ele>123.698</ele>
        <time>2020-05-27T18:14:59Z</time>
      </trkpt>
      <trkpt lat="46.99407" lon="-0.96026">
        <ele>122.739</ele>
        <time>2020-05-27T18:15:00Z</time>
      </trkpt>
      <trkpt lat="46.99403" lon="-0.96021">
        <ele>120.885</ele>
        <time>2020-05-27T18:15:01Z</time>
      </trkpt>
      <trkpt lat="46.99398" lon="-0.96017">
        <ele>120.957</ele>
        <time>2020-05-27T18:15:02Z</time>
      </trkpt>
      <trkpt lat="46.99394" lon="-0.96012">
        <ele>120.331</ele>
        <time>2020-05-27T18:15:03Z</time>
      </trkpt>
      <trkpt lat="46.9939" lon="-0.96006">
        <ele>120.305</ele>
        <time>2020-05-27T18:15:04Z</time>
      </trkpt>
      <trkpt lat="46.99386" lon="-0.96003">
        <ele>120.707</ele>
        <time>2020-05-27T18:15:05Z</time>
      </trkpt>
      <trkpt lat="46.9938" lon="-0.95999">
        <ele>119.648</ele>
        <time>2020-05-27T18:15:06Z</time>
      </trkpt>
      <trkpt lat="46.99375" lon="-0.95995">
        <ele>120.62</ele>
        <time>2020-05-27T18:15:07Z</time>
      </trkpt>
      <trkpt lat="46.9937" lon="-0.95996">
        <ele>116.12</ele>
        <time>2020-05-27T18:15:08Z</time>
      </trkpt>
      <trkpt lat="46.99364" lon="-0.95996">
        <ele>115.927</ele>
        <time>2020-05-27T18:15:09Z</time>
      </trkpt>
      <trkpt lat="46.99361" lon="-0.95995">
        <ele>116.235</ele>
        <time>2020-05-27T18:15:10Z</time>
      </trkpt>
      <trkpt lat="46.99357" lon="-0.95991">
        <ele>116.772</ele>
        <time>2020-05-27T18:15:11Z</time>
      </trkpt>
      <trkpt lat="46.99351" lon="-0.95987">
        <ele>114.984</ele>
        <time>2020-05-27T18:15:12Z</time>
      </trkpt>
      <trkpt lat="46.99347" lon="-0.95983">
        <ele>115.145</ele>
        <time>2020-05-27T18:15:13Z</time>
      </trkpt>
      <trkpt lat="46.99342" lon="-0.95979">
        <ele>115.763</ele>
        <time>2020-05-27T18:15:14Z</time>
      </trkpt>
      <trkpt lat="46.99338" lon="-0.95976">
        <ele>115.056</ele>
        <time>2020-05-27T18:15:15Z</time>
      </trkpt>
      <trkpt lat="46.99336" lon="-0.9597">
        <ele>115.261</ele>
        <time>2020-05-27T18:15:16Z</time>
      </trkpt>
      <trkpt lat="46.99333" lon="-0.95966">
        <ele>115.987</ele>
        <time>2020-05-27T18:15:17Z</time>
      </trkpt>
      <trkpt lat="46.99329" lon="-0.95961">
        <ele>116.152</ele>
        <time>2020-05-27T18:15:18Z</time>
      </trkpt>
      <trkpt lat="46.99326" lon="-0.95954">
        <ele>117.219</ele>
        <time>2020-05-27T18:15:19Z</time>
      </trkpt>
      <trkpt lat="46.99322" lon="-0.95949">
        <ele>118.027</ele>
        <time>2020-05-27T18:15:20Z</time>
      </trkpt>
      <trkpt lat="46.9932" lon="-0.95944">
        <ele>117.792</ele>
        <time>2020-05-27T18:15:21Z</time>
      </trkpt>
      <trkpt lat="46.99317" lon="-0.9594">
        <ele>118.382</ele>
        <time>2020-05-27T18:15:22Z</time>
      </trkpt>
      <trkpt lat="46.99315" lon="-0.95934">
        <ele>119.125</ele>
        <time>2020-05-27T18:15:23Z</time>
      </trkpt>
      <trkpt lat="46.99313" lon="-0.95929">
        <ele>120.178</ele>
        <time>2020-05-27T18:15:24Z</time>
      </trkpt>
      <trkpt lat="46.99311" lon="-0.95925">
        <ele>120.316</ele>
        <time>2020-05-27T18:15:25Z</time>
      </trkpt>
      <trkpt lat="46.99309" lon="-0.95921">
        <ele>118.445</ele>
        <time>2020-05-27T18:15:26Z</time>
      </trkpt>
      <trkpt lat="46.99307" lon="-0.95918">
        <ele>118.826</ele>
        <time>2020-05-27T18:15:27Z</time>
      </trkpt>
      <trkpt lat="46.99306" lon="-0.95915">
        <ele>121.517</ele>
        <time>2020-05-27T18:15:28Z</time>
      </trkpt>
      <trkpt lat="46.99304" lon="-0.95912">
        <ele>120.291</ele>
        <time>2020-05-27T18:15:29Z</time>
      </trkpt>
      <trkpt lat="46.99303" lon="-0.95909">
        <ele>120.459</ele>
        <time>2020-05-27T18:15:30Z</time>
      </trkpt>
      <trkpt lat="46.99302" lon="-0.95906">
        <ele>119.532</ele>
        <time>2020-05-27T18:15:31Z</time>
      </trkpt>
      <trkpt lat="46.99301" lon="-0.95904">
        <ele>120.281</ele>
        <time>2020-05-27T18:15:32Z</time>
      </trkpt>
      <trkpt lat="46.993" lon="-0.95902">
        <ele>120.687</ele>
        <time>2020-05-27T18:15:33Z</time>
      </trkpt>
      <trkpt lat="46.993" lon="-0.95901">
        <ele>120.387</ele>
        <time>2020-05-27T18:15:34Z</time>
      </trkpt>
      <trkpt lat="46.99299" lon="-0.95901">
        <ele>121.53</ele>
        <time>2020-05-27T18:15:35Z</time>
      </trkpt>
      <trkpt lat="46.99298" lon="-0.95901">
        <ele>121.301</ele>
        <time>2020-05-27T18:15:36Z</time>
      </trkpt>
      <trkpt lat="46.99297" lon="-0.95901">
        <ele>121.364</ele>
        <time>2020-05-27T18:15:37Z</time>
      </trkpt>
      <trkpt lat="46.99296" lon="-0.95902">
        <ele>121.234</ele>
        <time>2020-05-27T18:15:38Z</time>
      </trkpt>
      <trkpt lat="46.99295" lon="-0.95903">
        <ele>120.967</ele>
        <time>2020-05-27T18:15:39Z</time>
      </trkpt>
      <trkpt lat="46.99294" lon="-0.95905">
        <ele>120.113</ele>
        <time>2020-05-27T18:15:40Z</time>
      </trkpt>
      <trkpt lat="46.99293" lon="-0.95906">
        <ele>119.893</ele>
        <time>2020-05-27T18:15:41Z</time>
      </trkpt>
      <trkpt lat="46.99291" lon="-0.95907">
        <ele>120.023</ele>
        <time>2020-05-27T18:15:42Z</time>
      </trkpt>
      <trkpt lat="46.9929" lon="-0.95908">
        <ele>118.645</ele>
        <time>2020-05-27T18:15:43Z</time>
      </trkpt>
      <trkpt lat="46.99289" lon="-0.95908">
        <ele>118.352</ele>
        <time>2020-05-27T18:15:44Z</time>
      </trkpt>
      <trkpt lat="46.99288" lon="-0.95908">
        <ele>117.941</ele>
        <time>2020-05-27T18:15:45Z</time>
      </trkpt>
      <trkpt lat="46.99288" lon="-0.95909">
        <ele>118.116</ele>
        <time>2020-05-27T18:15:46Z</time>
      </trkpt>
      <trkpt lat="46.99287" lon="-0.95909">
        <ele>118.091</ele>
        <time>2020-05-27T18:15:47Z</time>
      </trkpt>
      <trkpt lat="46.99287" lon="-0.95908">
        <ele>116.232</ele>
        <time>2020-05-27T18:15:48Z</time>
      </trkpt>
      <trkpt lat="46.99287" lon="-0.95907">
        <ele>116.195</ele>
        <time>2020-05-27T18:15:49Z</time>
      </trkpt>
      <trkpt lat="46.99287" lon="-0.95907">
        <ele>116.775</ele>
        <time>2020-05-27T18:15:50Z</time>
      </trkpt>
      <trkpt lat="46.99287" lon="-0.95907">
        <ele>116.74</ele>
        <time>2020-05-27T18:15:51Z</time>
      </trkpt>
      <trkpt lat="46.99287" lon="-0.95906">
        <ele>116.554</ele>
        <time>2020-05-27T18:15:52Z</time>
      </trkpt>
      <trkpt lat="46.99287" lon="-0.95907">
        <ele>116.697</ele>
        <time>2020-05-27T18:15:53Z</time>
      </trkpt>
      <trkpt lat="46.99287" lon="-0.95907">
        <ele>116.929</ele>
        <time>2020-05-27T18:15:54Z</time>
      </trkpt>
      <trkpt lat="46.99287" lon="-0.95907">
        <ele>117.078</ele>
        <time>2020-05-27T18:15:55Z</time>
      </trkpt>
      <trkpt lat="46.99287" lon="-0.95907">
        <ele>117.679</ele>
        <time>2020-05-27T18:15:56Z</time>
      </trkpt>
      <trkpt lat="46.99287" lon="-0.95907">
        <ele>117.117</ele>
        <time>2020-05-27T18:15:57Z</time>
      </trkpt>
      <trkpt lat="46.99287" lon="-0.95907">
        <ele>116.975</ele>
        <time>2020-05-27T18:15:58Z</time>
      </trkpt>
      <trkpt lat="46.99287" lon="-0.95908">
        <ele>117.377</ele>
        <time>2020-05-27T18:15:59Z</time>
      </trkpt>
      <trkpt lat="46.99287" lon="-0.95908">
        <ele>117.453</ele>
        <time>2020-05-27T18:16:01Z</time>
      </trkpt>
      <trkpt lat="46.99287" lon="-0.95908">
        <ele>119.379</ele>
        <time>2020-05-27T18:16:02Z</time>
      </trkpt>
      <trkpt lat="46.99286" lon="-0.95908">
        <ele>120.137</ele>
        <time>2020-05-27T18:16:03Z</time>
      </trkpt>
      <trkpt lat="46.99286" lon="-0.95908">
        <ele>119.388</ele>
        <time>2020-05-27T18:16:04Z</time>
      </trkpt>
      <trkpt lat="46.99287" lon="-0.95908">
        <ele>119.462</ele>
        <time>2020-05-27T18:16:05Z</time>
      </trkpt>
      <trkpt lat="46.99289" lon="-0.95907">
        <ele>116.187</ele>
        <time>2020-05-27T18:16:06Z</time>
      </trkpt>
      <trkpt lat="46.9929" lon="-0.95907">
        <ele>117.467</ele>
        <time>2020-05-27T18:16:07Z</time>
      </trkpt>
      <trkpt lat="46.99291" lon="-0.95906">
        <ele>117.301</ele>
        <time>2020-05-27T18:16:08Z</time>
      </trkpt>
      <trkpt lat="46.99293" lon="-0.95906">
        <ele>116.925</ele>
        <time>2020-05-27T18:16:09Z</time>
      </trkpt>
      <trkpt lat="46.99294" lon="-0.95905">
        <ele>117.438</ele>
        <time>2020-05-27T18:16:10Z</time>
      </trkpt>
      <trkpt lat="46.99295" lon="-0.95905">
        <ele>117.867</ele>
        <time>2020-05-27T18:16:11Z</time>
      </trkpt>
      <trkpt lat="46.99295" lon="-0.95904">
        <ele>118.295</ele>
        <time>2020-05-27T18:16:12Z</time>
      </trkpt>
      <trkpt lat="46.99296" lon="-0.95904">
        <ele>117.498</ele>
        <time>2020-05-27T18:16:13Z</time>
      </trkpt>
      <trkpt lat="46.99297" lon="-0.95903">
        <ele>117.069</ele>
        <time>2020-05-27T18:16:14Z</time>
      </trkpt>
      <trkpt lat="46.99297" lon="-0.95903">
        <ele>117.372</ele>
        <time>2020-05-27T18:16:15Z</time>
      </trkpt>
      <trkpt lat="46.99297" lon="-0.95902">
        <ele>117.494</ele>
        <time>2020-05-27T18:16:16Z</time>
      </trkpt>
      <trkpt lat="46.99298" lon="-0.95901">
        <ele>116.124</ele>
        <time>2020-05-27T18:16:17Z</time>
      </trkpt>
      <trkpt lat="46.99299" lon="-0.95899">
        <ele>115.715</ele>
        <time>2020-05-27T18:16:18Z</time>
      </trkpt>
      <trkpt lat="46.99299" lon="-0.95899">
        <ele>115.936</ele>
        <time>2020-05-27T18:16:19Z</time>
      </trkpt>
      <trkpt lat="46.99299" lon="-0.95899">
        <ele>116.045</ele>
        <time>2020-05-27T18:16:20Z</time>
      </trkpt>
      <trkpt lat="46.99299" lon="-0.959">
        <ele>116.468</ele>
        <time>2020-05-27T18:16:21Z</time>
      </trkpt>
      <trkpt lat="46.99299" lon="-0.959">
        <ele>116.161</ele>
        <time>2020-05-27T18:16:22Z</time>
      </trkpt>
      <trkpt lat="46.99299" lon="-0.959">
        <ele>115.519</ele>
        <time>2020-05-27T18:16:23Z</time>
      </trkpt>
      <trkpt lat="46.99298" lon="-0.959">
        <ele>115.284</ele>
        <time>2020-05-27T18:16:24Z</time>
      </trkpt>
      <trkpt lat="46.99298" lon="-0.959">
        <ele>115.341</ele>
        <time>2020-05-27T18:16:25Z</time>
      </trkpt>
      <trkpt lat="46.99298" lon="-0.959">
        <ele>114.616</ele>
        <time>2020-05-27T18:16:26Z</time>
      </trkpt>
      <trkpt lat="46.99298" lon="-0.959">
        <ele>114.68</ele>
        <time>2020-05-27T18:16:27Z</time>
      </trkpt>
      <trkpt lat="46.99298" lon="-0.95899">
        <ele>114.019</ele>
        <time>2020-05-27T18:16:28Z</time>
      </trkpt>
      <trkpt lat="46.99298" lon="-0.95899">
        <ele>113.757</ele>
        <time>2020-05-27T18:16:29Z</time>
      </trkpt>
      <trkpt lat="46.99298" lon="-0.95899">
        <ele>113.988</ele>
        <time>2020-05-27T18:16:30Z</time>
      </trkpt>
      <trkpt lat="46.99297" lon="-0.95899">
        <ele>114.16</ele>
        <time>2020-05-27T18:16:31Z</time>
      </trkpt>
      <trkpt lat="46.99297" lon="-0.95899">
        <ele>113.868</ele>
        <time>2020-05-27T18:16:32Z</time>
      </trkpt>
      <trkpt lat="46.99298" lon="-0.95899">
        <ele>115.594</ele>
        <time>2020-05-27T18:16:33Z</time>
      </trkpt>
      <trkpt lat="46.99298" lon="-0.95899">
        <ele>116.557</ele>
        <time>2020-05-27T18:16:34Z</time>
      </trkpt>
      <trkpt lat="46.99299" lon="-0.95899">
        <ele>115.422</ele>
        <time>2020-05-27T18:16:35Z</time>
      </trkpt>
      <trkpt lat="46.99299" lon="-0.95899">
        <ele>115.246</ele>
        <time>2020-05-27T18:16:36Z</time>
      </trkpt>
      <trkpt lat="46.99299" lon="-0.95899">
        <ele>115.434</ele>
        <time>2020-05-27T18:16:37Z</time>
      </trkpt>
      <trkpt lat="46.99299" lon="-0.95899">
        <ele>115.577</ele>
        <time>2020-05-27T18:16:38Z</time>
      </trkpt>
      <trkpt lat="46.99299" lon="-0.95899">
        <ele>115.418</ele>
        <time>2020-05-27T18:16:39Z</time>
      </trkpt>
      <trkpt lat="46.99299" lon="-0.95899">
        <ele>115.095</ele>
        <time>2020-05-27T18:16:40Z</time>
      </trkpt>
      <trkpt lat="46.99299" lon="-0.95899">
        <ele>114.619</ele>
        <time>2020-05-27T18:16:41Z</time>
      </trkpt>
      <trkpt lat="46.99299" lon="-0.95898">
        <ele>114.503</ele>
        <time>2020-05-27T18:16:42Z</time>
      </trkpt>
      <trkpt lat="46.99299" lon="-0.95898">
        <ele>114.757</ele>
        <time>2020-05-27T18:16:43Z</time>
      </trkpt>
      <trkpt lat="46.99299" lon="-0.95899">
        <ele>115.043</ele>
        <time>2020-05-27T18:16:44Z</time>
      </trkpt>
      <trkpt lat="46.99299" lon="-0.95899">
        <ele>115.291</ele>
        <time>2020-05-27T18:16:45Z</time>
      </trkpt>
      <trkpt lat="46.99298" lon="-0.95899">
        <ele>115.374</ele>
        <time>2020-05-27T18:16:46Z</time>
      </trkpt>
      <trkpt lat="46.99298" lon="-0.95899">
        <ele>115.454</ele>
        <time>2020-05-27T18:16:47Z</time>
      </trkpt>
      <trkpt lat="46.99298" lon="-0.95899">
        <ele>115.487</ele>
        <time>2020-05-27T18:16:48Z</time>
      </trkpt>
      <trkpt lat="46.99298" lon="-0.95899">
        <ele>115.496</ele>
        <time>2020-05-27T18:16:49Z</time>
      </trkpt>
      <trkpt lat="46.99298" lon="-0.95899">
        <ele>115.499</ele>
        <time>2020-05-27T18:16:50Z</time>
      </trkpt>
      <trkpt lat="46.99298" lon="-0.95899">
        <ele>115.511</ele>
        <time>2020-05-27T18:16:51Z</time>
      </trkpt>
      <trkpt lat="46.99298" lon="-0.95899">
        <ele>115.511</ele>
        <time>2020-05-27T18:16:52Z</time>
      </trkpt>
      <trkpt lat="46.99298" lon="-0.95899">
        <ele>115.517</ele>
        <time>2020-05-27T18:16:53Z</time>
      </trkpt>
      <trkpt lat="46.99298" lon="-0.95899">
        <ele>115.521</ele>
        <time>2020-05-27T18:16:54Z</time>
      </trkpt>
      <trkpt lat="46.99298" lon="-0.95899">
        <ele>115.52</ele>
        <time>2020-05-27T18:16:55Z</time>
      </trkpt>
      <trkpt lat="46.99298" lon="-0.95899">
        <ele>115.522</ele>
        <time>2020-05-27T18:16:56Z</time>
      </trkpt>
      <trkpt lat="46.99298" lon="-0.95899">
        <ele>115.521</ele>
        <time>2020-05-27T18:16:57Z</time>
      </trkpt>
      <trkpt lat="46.99298" lon="-0.95899">
        <ele>115.514</ele>
        <time>2020-05-27T18:16:58Z</time>
      </trkpt>
      <trkpt lat="46.99298" lon="-0.95899">
        <ele>115.531</ele>
        <time>2020-05-27T18:17:00Z</time>
      </trkpt>
      <trkpt lat="46.99298" lon="-0.95899">
        <ele>115.54</ele>
        <time>2020-05-27T18:17:01Z</time>
      </trkpt>
      <trkpt lat="46.99298" lon="-0.95899">
        <ele>115.548</ele>
        <time>2020-05-27T18:17:02Z</time>
      </trkpt>
      <trkpt lat="46.99299" lon="-0.95899">
        <ele>115.557</ele>
        <time>2020-05-27T18:17:03Z</time>
      </trkpt>
      <trkpt lat="46.99299" lon="-0.95899">
        <ele>115.563</ele>
        <time>2020-05-27T18:17:04Z</time>
      </trkpt>
      <trkpt lat="46.99299" lon="-0.95899">
        <ele>115.569</ele>
        <time>2020-05-27T18:17:05Z</time>
      </trkpt>
      <trkpt lat="46.99299" lon="-0.95899">
        <ele>115.583</ele>
        <time>2020-05-27T18:17:06Z</time>
      </trkpt>
      <trkpt lat="46.99299" lon="-0.95899">
        <ele>115.573</ele>
        <time>2020-05-27T18:17:07Z</time>
      </trkpt>
      <trkpt lat="46.99299" lon="-0.95899">
        <ele>115.574</ele>
        <time>2020-05-27T18:17:08Z</time>
      </trkpt>
      <trkpt lat="46.99299" lon="-0.95899">
        <ele>115.577</ele>
        <time>2020-05-27T18:17:09Z</time>
      </trkpt>
      <trkpt lat="46.99299" lon="-0.95899">
        <ele>115.581</ele>
        <time>2020-05-27T18:17:10Z</time>
      </trkpt>
      <trkpt lat="46.99299" lon="-0.95899">
        <ele>115.583</ele>
        <time>2020-05-27T18:17:11Z</time>
      </trkpt>
      <trkpt lat="46.99299" lon="-0.95899">
        <ele>115.587</ele>
        <time>2020-05-27T18:17:12Z</time>
      </trkpt>
      <trkpt lat="46.99299" lon="-0.95899">
        <ele>115.588</ele>
        <time>2020-05-27T18:17:15Z</time>
      </trkpt>
      <trkpt lat="46.99299" lon="-0.95899">
        <ele>115.584</ele>
        <time>2020-05-27T18:17:15Z</time>
      </trkpt>
      <trkpt lat="46.99299" lon="-0.95899">
        <ele>115.584</ele>
        <time>2020-05-27T18:17:15Z</time>
      </trkpt>
      <trkpt lat="46.99299" lon="-0.95899">
        <ele>115.577</ele>
        <time>2020-05-27T18:17:16Z</time>
      </trkpt>
      <trkpt lat="46.99299" lon="-0.95899">
        <ele>115.58</ele>
        <time>2020-05-27T18:17:17Z</time>
      </trkpt>
      <trkpt lat="46.99299" lon="-0.95899">
        <ele>115.435</ele>
        <time>2020-05-27T18:17:18Z</time>
      </trkpt>
      <trkpt lat="46.993" lon="-0.95899">
        <ele>115.85</ele>
        <time>2020-05-27T18:17:19Z</time>
      </trkpt>
      <trkpt lat="46.993" lon="-0.95899">
        <ele>115.773</ele>
        <time>2020-05-27T18:17:20Z</time>
      </trkpt>
      <trkpt lat="46.99301" lon="-0.95899">
        <ele>115.018</ele>
        <time>2020-05-27T18:17:21Z</time>
      </trkpt>
      <trkpt lat="46.99301" lon="-0.95899">
        <ele>114.453</ele>
        <time>2020-05-27T18:17:22Z</time>
      </trkpt>
      <trkpt lat="46.99301" lon="-0.959">
        <ele>115.055</ele>
        <time>2020-05-27T18:17:23Z</time>
      </trkpt>
      <trkpt lat="46.99302" lon="-0.95902">
        <ele>116.016</ele>
        <time>2020-05-27T18:17:24Z</time>
      </trkpt>
      <trkpt lat="46.99302" lon="-0.95904">
        <ele>115.57</ele>
        <time>2020-05-27T18:17:25Z</time>
      </trkpt>
      <trkpt lat="46.99303" lon="-0.95905">
        <ele>115.996</ele>
        <time>2020-05-27T18:17:26Z</time>
      </trkpt>
      <trkpt lat="46.99304" lon="-0.95906">
        <ele>116.004</ele>
        <time>2020-05-27T18:17:27Z</time>
      </trkpt>
      <trkpt lat="46.99304" lon="-0.95907">
        <ele>115.907</ele>
        <time>2020-05-27T18:17:28Z</time>
      </trkpt>
      <trkpt lat="46.99305" lon="-0.95908">
        <ele>116.188</ele>
        <time>2020-05-27T18:17:29Z</time>
      </trkpt>
      <trkpt lat="46.99305" lon="-0.9591">
        <ele>116.596</ele>
        <time>2020-05-27T18:17:30Z</time>
      </trkpt>
      <trkpt lat="46.99306" lon="-0.95911">
        <ele>116.499</ele>
        <time>2020-05-27T18:17:31Z</time>
      </trkpt>
      <trkpt lat="46.99306" lon="-0.95912">
        <ele>116.703</ele>
        <time>2020-05-27T18:17:32Z</time>
      </trkpt>
      <trkpt lat="46.99307" lon="-0.95912">
        <ele>117.68</ele>
        <time>2020-05-27T18:17:33Z</time>
      </trkpt>
      <trkpt lat="46.99307" lon="-0.95913">
        <ele>117.54</ele>
        <time>2020-05-27T18:17:34Z</time>
      </trkpt>
      <trkpt lat="46.99308" lon="-0.95914">
        <ele>117.129</ele>
        <time>2020-05-27T18:17:35Z</time>
      </trkpt>
      <trkpt lat="46.99309" lon="-0.95915">
        <ele>117.274</ele>
        <time>2020-05-27T18:17:36Z</time>
      </trkpt>
      <trkpt lat="46.99309" lon="-0.95916">
        <ele>116.895</ele>
        <time>2020-05-27T18:17:37Z</time>
      </trkpt>
      <trkpt lat="46.9931" lon="-0.95918">
        <ele>117.047</ele>
        <time>2020-05-27T18:17:38Z</time>
      </trkpt>
      <trkpt lat="46.9931" lon="-0.95919">
        <ele>117.598</ele>
        <time>2020-05-27T18:17:39Z</time>
      </trkpt>
      <trkpt lat="46.9931" lon="-0.9592">
        <ele>117.206</ele>
        <time>2020-05-27T18:17:40Z</time>
      </trkpt>
      <trkpt lat="46.99311" lon="-0.95921">
        <ele>117.703</ele>
        <time>2020-05-27T18:17:41Z</time>
      </trkpt>
      <trkpt lat="46.99311" lon="-0.95923">
        <ele>117.757</ele>
        <time>2020-05-27T18:17:42Z</time>
      </trkpt>
      <trkpt lat="46.99312" lon="-0.95925">
        <ele>118.924</ele>
        <time>2020-05-27T18:17:43Z</time>
      </trkpt>
      <trkpt lat="46.99312" lon="-0.95926">
        <ele>119.63</ele>
        <time>2020-05-27T18:17:44Z</time>
      </trkpt>
      <trkpt lat="46.99312" lon="-0.95926">
        <ele>119.447</ele>
        <time>2020-05-27T18:17:45Z</time>
      </trkpt>
      <trkpt lat="46.99312" lon="-0.95926">
        <ele>118.454</ele>
        <time>2020-05-27T18:17:46Z</time>
      </trkpt>
      <trkpt lat="46.99312" lon="-0.95926">
        <ele>118.621</ele>
        <time>2020-05-27T18:17:47Z</time>
      </trkpt>
      <trkpt lat="46.99312" lon="-0.95927">
        <ele>119.372</ele>
        <time>2020-05-27T18:17:48Z</time>
      </trkpt>
      <trkpt lat="46.99311" lon="-0.95927">
        <ele>119.28</ele>
        <time>2020-05-27T18:17:49Z</time>
      </trkpt>
      <trkpt lat="46.99311" lon="-0.95927">
        <ele>119.213</ele>
        <time>2020-05-27T18:17:50Z</time>
      </trkpt>
      <trkpt lat="46.99311" lon="-0.95927">
        <ele>119.401</ele>
        <time>2020-05-27T18:17:51Z</time>
      </trkpt>
      <trkpt lat="46.99312" lon="-0.95927">
        <ele>119.897</ele>
        <time>2020-05-27T18:17:52Z</time>
      </trkpt>
      <trkpt lat="46.99312" lon="-0.95927">
        <ele>120.572</ele>
        <time>2020-05-27T18:17:53Z</time>
      </trkpt>
      <trkpt lat="46.99312" lon="-0.95927">
        <ele>120.618</ele>
        <time>2020-05-27T18:17:54Z</time>
      </trkpt>
      <trkpt lat="46.99312" lon="-0.95927">
        <ele>120.576</ele>
        <time>2020-05-27T18:17:55Z</time>
      </trkpt>
      <trkpt lat="46.99312" lon="-0.95927">
        <ele>120.577</ele>
        <time>2020-05-27T18:17:56Z</time>
      </trkpt>
      <trkpt lat="46.99312" lon="-0.95928">
        <ele>120.671</ele>
        <time>2020-05-27T18:17:57Z</time>
      </trkpt>
      <trkpt lat="46.99312" lon="-0.95928">
        <ele>120.781</ele>
        <time>2020-05-27T18:17:58Z</time>
      </trkpt>
      <trkpt lat="46.99312" lon="-0.95928">
        <ele>120.89</ele>
        <time>2020-05-27T18:17:59Z</time>
      </trkpt>
      <trkpt lat="46.99312" lon="-0.95928">
        <ele>120.949</ele>
        <time>2020-05-27T18:18:00Z</time>
      </trkpt>
      <trkpt lat="46.99312" lon="-0.95928">
        <ele>121.011</ele>
        <time>2020-05-27T18:18:01Z</time>
      </trkpt>
      <trkpt lat="46.99312" lon="-0.95928">
        <ele>121.059</ele>
        <time>2020-05-27T18:18:02Z</time>
      </trkpt>
      <trkpt lat="46.99312" lon="-0.95928">
        <ele>121.065</ele>
        <time>2020-05-27T18:18:03Z</time>
      </trkpt>
      <trkpt lat="46.99312" lon="-0.95928">
        <ele>121.078</ele>
        <time>2020-05-27T18:18:04Z</time>
      </trkpt>
      <trkpt lat="46.99312" lon="-0.95928">
        <ele>121.078</ele>
        <time>2020-05-27T18:18:05Z</time>
      </trkpt>
      <trkpt lat="46.99312" lon="-0.95928">
        <ele>121.077</ele>
        <time>2020-05-27T18:18:06Z</time>
      </trkpt>
      <trkpt lat="46.99312" lon="-0.95928">
        <ele>121.081</ele>
        <time>2020-05-27T18:18:07Z</time>
      </trkpt>
      <trkpt lat="46.99312" lon="-0.95928">
        <ele>121.072</ele>
        <time>2020-05-27T18:18:08Z</time>
      </trkpt>
      <trkpt lat="46.99312" lon="-0.95928">
        <ele>121.068</ele>
        <time>2020-05-27T18:18:09Z</time>
      </trkpt>
      <trkpt lat="46.99312" lon="-0.95928">
        <ele>121.065</ele>
        <time>2020-05-27T18:18:10Z</time>
      </trkpt>
      <trkpt lat="46.99312" lon="-0.95928">
        <ele>121.056</ele>
        <time>2020-05-27T18:18:11Z</time>
      </trkpt>
      <trkpt lat="46.99312" lon="-0.95928">
        <ele>121.053</ele>
        <time>2020-05-27T18:18:12Z</time>
      </trkpt>
      <trkpt lat="46.99312" lon="-0.95928">
        <ele>121.05</ele>
        <time>2020-05-27T18:18:13Z</time>
      </trkpt>
      <trkpt lat="46.99312" lon="-0.95928">
        <ele>121.055</ele>
        <time>2020-05-27T18:18:14Z</time>
      </trkpt>
      <trkpt lat="46.99312" lon="-0.95928">
        <ele>120.031</ele>
        <time>2020-05-27T18:18:15Z</time>
      </trkpt>
      <trkpt lat="46.99312" lon="-0.95928">
        <ele>120.202</ele>
        <time>2020-05-27T18:18:16Z</time>
      </trkpt>
      <trkpt lat="46.99312" lon="-0.95929">
        <ele>120.174</ele>
        <time>2020-05-27T18:18:17Z</time>
      </trkpt>
      <trkpt lat="46.99312" lon="-0.95929">
        <ele>121.078</ele>
        <time>2020-05-27T18:18:18Z</time>
      </trkpt>
      <trkpt lat="46.99312" lon="-0.95929">
        <ele>121.506</ele>
        <time>2020-05-27T18:18:19Z</time>
      </trkpt>
      <trkpt lat="46.99312" lon="-0.95929">
        <ele>121.854</ele>
        <time>2020-05-27T18:18:20Z</time>
      </trkpt>
      <trkpt lat="46.99312" lon="-0.9593">
        <ele>122.07</ele>
        <time>2020-05-27T18:18:21Z</time>
      </trkpt>
      <trkpt lat="46.99312" lon="-0.9593">
        <ele>121.795</ele>
        <time>2020-05-27T18:18:22Z</time>
      </trkpt>
      <trkpt lat="46.99312" lon="-0.9593">
        <ele>121.815</ele>
        <time>2020-05-27T18:18:23Z</time>
      </trkpt>
      <trkpt lat="46.99312" lon="-0.9593">
        <ele>121.988</ele>
        <time>2020-05-27T18:18:24Z</time>
      </trkpt>
      <trkpt lat="46.99312" lon="-0.9593">
        <ele>121.773</ele>
        <time>2020-05-27T18:18:25Z</time>
      </trkpt>
      <trkpt lat="46.99312" lon="-0.95931">
        <ele>121.977</ele>
        <time>2020-05-27T18:18:26Z</time>
      </trkpt>
      <trkpt lat="46.99312" lon="-0.95931">
        <ele>122.095</ele>
        <time>2020-05-27T18:18:27Z</time>
      </trkpt>
      <trkpt lat="46.99312" lon="-0.95931">
        <ele>122.062</ele>
        <time>2020-05-27T18:18:28Z</time>
      </trkpt>
      <trkpt lat="46.99312" lon="-0.95931">
        <ele>122.081</ele>
        <time>2020-05-27T18:18:29Z</time>
      </trkpt>
      <trkpt lat="46.99312" lon="-0.95931">
        <ele>122.555</ele>
        <time>2020-05-27T18:18:30Z</time>
      </trkpt>
      <trkpt lat="46.99312" lon="-0.95931">
        <ele>122.015</ele>
        <time>2020-05-27T18:18:31Z</time>
      </trkpt>
      <trkpt lat="46.99312" lon="-0.95931">
        <ele>122.143</ele>
        <time>2020-05-27T18:18:32Z</time>
      </trkpt>
      <trkpt lat="46.99312" lon="-0.95932">
        <ele>121.276</ele>
        <time>2020-05-27T18:18:33Z</time>
      </trkpt>
      <trkpt lat="46.99312" lon="-0.95932">
        <ele>120.27</ele>
        <time>2020-05-27T18:18:34Z</time>
      </trkpt>
      <trkpt lat="46.99311" lon="-0.95932">
        <ele>119.733</ele>
        <time>2020-05-27T18:18:35Z</time>
      </trkpt>
      <trkpt lat="46.99311" lon="-0.95932">
        <ele>118.718</ele>
        <time>2020-05-27T18:18:36Z</time>
      </trkpt>
      <trkpt lat="46.9931" lon="-0.95932">
        <ele>117.409</ele>
        <time>2020-05-27T18:18:37Z</time>
      </trkpt>
      <trkpt lat="46.9931" lon="-0.95932">
        <ele>117.664</ele>
        <time>2020-05-27T18:18:38Z</time>
      </trkpt>
      <trkpt lat="46.9931" lon="-0.95931">
        <ele>118.949</ele>
        <time>2020-05-27T18:18:39Z</time>
      </trkpt>
      <trkpt lat="46.99309" lon="-0.95931">
        <ele>118.585</ele>
        <time>2020-05-27T18:18:40Z</time>
      </trkpt>
      <trkpt lat="46.99308" lon="-0.95929">
        <ele>118.413</ele>
        <time>2020-05-27T18:18:41Z</time>
      </trkpt>
      <trkpt lat="46.99306" lon="-0.95926">
        <ele>117.319</ele>
        <time>2020-05-27T18:18:42Z</time>
      </trkpt>
      <trkpt lat="46.99304" lon="-0.95924">
        <ele>117.278</ele>
        <time>2020-05-27T18:18:43Z</time>
      </trkpt>
      <trkpt lat="46.99303" lon="-0.95921">
        <ele>117.494</ele>
        <time>2020-05-27T18:18:44Z</time>
      </trkpt>
      <trkpt lat="46.99301" lon="-0.95918">
        <ele>117.26</ele>
        <time>2020-05-27T18:18:45Z</time>
      </trkpt>
      <trkpt lat="46.993" lon="-0.95915">
        <ele>117.19</ele>
        <time>2020-05-27T18:18:46Z</time>
      </trkpt>
      <trkpt lat="46.99299" lon="-0.95911">
        <ele>116.218</ele>
        <time>2020-05-27T18:18:47Z</time>
      </trkpt>
      <trkpt lat="46.99299" lon="-0.95907">
        <ele>116.096</ele>
        <time>2020-05-27T18:18:48Z</time>
      </trkpt>
      <trkpt lat="46.99301" lon="-0.95903">
        <ele>115.775</ele>
        <time>2020-05-27T18:18:49Z</time>
      </trkpt>
      <trkpt lat="46.99302" lon="-0.95898">
        <ele>116.081</ele>
        <time>2020-05-27T18:18:50Z</time>
      </trkpt>
      <trkpt lat="46.99303" lon="-0.95894">
        <ele>116.392</ele>
        <time>2020-05-27T18:18:51Z</time>
      </trkpt>
      <trkpt lat="46.99303" lon="-0.95891">
        <ele>116.439</ele>
        <time>2020-05-27T18:18:52Z</time>
      </trkpt>
      <trkpt lat="46.99303" lon="-0.95889">
        <ele>117.245</ele>
        <time>2020-05-27T18:18:53Z</time>
      </trkpt>
      <trkpt lat="46.99302" lon="-0.95887">
        <ele>117.874</ele>
        <time>2020-05-27T18:18:54Z</time>
      </trkpt>
      <trkpt lat="46.99301" lon="-0.95884">
        <ele>118.497</ele>
        <time>2020-05-27T18:18:55Z</time>
      </trkpt>
      <trkpt lat="46.993" lon="-0.95882">
        <ele>118.739</ele>
        <time>2020-05-27T18:18:56Z</time>
      </trkpt>
      <trkpt lat="46.993" lon="-0.95879">
        <ele>119.278</ele>
        <time>2020-05-27T18:18:57Z</time>
      </trkpt>
      <trkpt lat="46.99299" lon="-0.95876">
        <ele>119.46</ele>
        <time>2020-05-27T18:18:58Z</time>
      </trkpt>
      <trkpt lat="46.99298" lon="-0.95872">
        <ele>119.408</ele>
        <time>2020-05-27T18:18:59Z</time>
      </trkpt>
      <trkpt lat="46.99297" lon="-0.95869">
        <ele>118.311</ele>
        <time>2020-05-27T18:19:00Z</time>
      </trkpt>
      <trkpt lat="46.99295" lon="-0.95867">
        <ele>119.269</ele>
        <time>2020-05-27T18:19:01Z</time>
      </trkpt>
      <trkpt lat="46.99294" lon="-0.95864">
        <ele>119.786</ele>
        <time>2020-05-27T18:19:02Z</time>
      </trkpt>
      <trkpt lat="46.99293" lon="-0.9586">
        <ele>119.515</ele>
        <time>2020-05-27T18:19:03Z</time>
      </trkpt>
      <trkpt lat="46.99292" lon="-0.95857">
        <ele>119.265</ele>
        <time>2020-05-27T18:19:04Z</time>
      </trkpt>
      <trkpt lat="46.99291" lon="-0.95854">
        <ele>118.804</ele>
        <time>2020-05-27T18:19:05Z</time>
      </trkpt>
      <trkpt lat="46.99289" lon="-0.95851">
        <ele>119.458</ele>
        <time>2020-05-27T18:19:06Z</time>
      </trkpt>
      <trkpt lat="46.99288" lon="-0.95848">
        <ele>119.385</ele>
        <time>2020-05-27T18:19:07Z</time>
      </trkpt>
      <trkpt lat="46.99287" lon="-0.95845">
        <ele>120.953</ele>
        <time>2020-05-27T18:19:08Z</time>
      </trkpt>
      <trkpt lat="46.99285" lon="-0.95843">
        <ele>120.011</ele>
        <time>2020-05-27T18:19:09Z</time>
      </trkpt>
      <trkpt lat="46.99284" lon="-0.9584">
        <ele>120.897</ele>
        <time>2020-05-27T18:19:10Z</time>
      </trkpt>
      <trkpt lat="46.99282" lon="-0.95838">
        <ele>120.427</ele>
        <time>2020-05-27T18:19:11Z</time>
      </trkpt>
      <trkpt lat="46.99281" lon="-0.95836">
        <ele>120.652</ele>
        <time>2020-05-27T18:19:12Z</time>
      </trkpt>
      <trkpt lat="46.99279" lon="-0.95833">
        <ele>119.666</ele>
        <time>2020-05-27T18:19:13Z</time>
      </trkpt>
      <trkpt lat="46.99278" lon="-0.95831">
        <ele>119.247</ele>
        <time>2020-05-27T18:19:14Z</time>
      </trkpt>
      <trkpt lat="46.99276" lon="-0.95828">
        <ele>118.33</ele>
        <time>2020-05-27T18:19:15Z</time>
      </trkpt>
      <trkpt lat="46.99275" lon="-0.95827">
        <ele>117.43</ele>
        <time>2020-05-27T18:19:16Z</time>
      </trkpt>
      <trkpt lat="46.99274" lon="-0.95824">
        <ele>116.978</ele>
        <time>2020-05-27T18:19:17Z</time>
      </trkpt>
      <trkpt lat="46.99272" lon="-0.95822">
        <ele>116.24</ele>
        <time>2020-05-27T18:19:18Z</time>
      </trkpt>
      <trkpt lat="46.9927" lon="-0.95818">
        <ele>117.564</ele>
        <time>2020-05-27T18:19:19Z</time>
      </trkpt>
      <trkpt lat="46.99267" lon="-0.95814">
        <ele>116.619</ele>
        <time>2020-05-27T18:19:20Z</time>
      </trkpt>
      <trkpt lat="46.99264" lon="-0.95811">
        <ele>117.238</ele>
        <time>2020-05-27T18:19:21Z</time>
      </trkpt>
      <trkpt lat="46.9926" lon="-0.95804">
        <ele>118.034</ele>
        <time>2020-05-27T18:19:22Z</time>
      </trkpt>
      <trkpt lat="46.99256" lon="-0.95801">
        <ele>116.916</ele>
        <time>2020-05-27T18:19:23Z</time>
      </trkpt>
      <trkpt lat="46.99253" lon="-0.95796">
        <ele>117.297</ele>
        <time>2020-05-27T18:19:24Z</time>
      </trkpt>
      <trkpt lat="46.99252" lon="-0.95792">
        <ele>117.076</ele>
        <time>2020-05-27T18:19:25Z</time>
      </trkpt>
      <trkpt lat="46.9925" lon="-0.95786">
        <ele>116.164</ele>
        <time>2020-05-27T18:19:26Z</time>
      </trkpt>
      <trkpt lat="46.99248" lon="-0.95783">
        <ele>115.896</ele>
        <time>2020-05-27T18:19:27Z</time>
      </trkpt>
      <trkpt lat="46.99247" lon="-0.95778">
        <ele>115.876</ele>
        <time>2020-05-27T18:19:28Z</time>
      </trkpt>
      <trkpt lat="46.99244" lon="-0.95776">
        <ele>115.662</ele>
        <time>2020-05-27T18:19:29Z</time>
      </trkpt>
      <trkpt lat="46.99241" lon="-0.95772">
        <ele>116.981</ele>
        <time>2020-05-27T18:19:30Z</time>
      </trkpt>
      <trkpt lat="46.99242" lon="-0.95768">
        <ele>115.717</ele>
        <time>2020-05-27T18:19:31Z</time>
      </trkpt>
      <trkpt lat="46.99239" lon="-0.95764">
        <ele>116.464</ele>
        <time>2020-05-27T18:19:32Z</time>
      </trkpt>
      <trkpt lat="46.99237" lon="-0.95761">
        <ele>115.773</ele>
        <time>2020-05-27T18:19:33Z</time>
      </trkpt>
      <trkpt lat="46.99234" lon="-0.95756">
        <ele>116.486</ele>
        <time>2020-05-27T18:19:34Z</time>
      </trkpt>
      <trkpt lat="46.99232" lon="-0.95752">
        <ele>116.642</ele>
        <time>2020-05-27T18:19:35Z</time>
      </trkpt>
      <trkpt lat="46.99229" lon="-0.95747">
        <ele>116.653</ele>
        <time>2020-05-27T18:19:36Z</time>
      </trkpt>
      <trkpt lat="46.99227" lon="-0.95741">
        <ele>117.127</ele>
        <time>2020-05-27T18:19:37Z</time>
      </trkpt>
      <trkpt lat="46.99224" lon="-0.95737">
        <ele>113.651</ele>
        <time>2020-05-27T18:19:38Z</time>
      </trkpt>
      <trkpt lat="46.99222" lon="-0.95732">
        <ele>113.205</ele>
        <time>2020-05-27T18:19:39Z</time>
      </trkpt>
      <trkpt lat="46.9922" lon="-0.95728">
        <ele>113.294</ele>
        <time>2020-05-27T18:19:40Z</time>
      </trkpt>
      <trkpt lat="46.99217" lon="-0.95723">
        <ele>114.356</ele>
        <time>2020-05-27T18:19:41Z</time>
      </trkpt>
      <trkpt lat="46.99214" lon="-0.95718">
        <ele>115.496</ele>
        <time>2020-05-27T18:19:42Z</time>
      </trkpt>
      <trkpt lat="46.99211" lon="-0.95713">
        <ele>116.13</ele>
        <time>2020-05-27T18:19:43Z</time>
      </trkpt>
      <trkpt lat="46.99209" lon="-0.95709">
        <ele>116.296</ele>
        <time>2020-05-27T18:19:44Z</time>
      </trkpt>
      <trkpt lat="46.99206" lon="-0.95705">
        <ele>116.359</ele>
        <time>2020-05-27T18:19:45Z</time>
      </trkpt>
      <trkpt lat="46.99202" lon="-0.95701">
        <ele>116.513</ele>
        <time>2020-05-27T18:19:46Z</time>
      </trkpt>
      <trkpt lat="46.99199" lon="-0.95698">
        <ele>118.076</ele>
        <time>2020-05-27T18:19:47Z</time>
      </trkpt>
      <trkpt lat="46.99196" lon="-0.95695">
        <ele>115.459</ele>
        <time>2020-05-27T18:19:48Z</time>
      </trkpt>
      <trkpt lat="46.99193" lon="-0.95693">
        <ele>115.427</ele>
        <time>2020-05-27T18:19:49Z</time>
      </trkpt>
      <trkpt lat="46.9919" lon="-0.95691">
        <ele>115.428</ele>
        <time>2020-05-27T18:19:50Z</time>
      </trkpt>
      <trkpt lat="46.99186" lon="-0.9569">
        <ele>114.871</ele>
        <time>2020-05-27T18:19:51Z</time>
      </trkpt>
      <trkpt lat="46.99183" lon="-0.95689">
        <ele>114.333</ele>
        <time>2020-05-27T18:19:52Z</time>
      </trkpt>
      <trkpt lat="46.99181" lon="-0.95688">
        <ele>113.242</ele>
        <time>2020-05-27T18:19:53Z</time>
      </trkpt>
      <trkpt lat="46.99178" lon="-0.95685">
        <ele>112.687</ele>
        <time>2020-05-27T18:19:54Z</time>
      </trkpt>
      <trkpt lat="46.99175" lon="-0.95683">
        <ele>112.303</ele>
        <time>2020-05-27T18:19:55Z</time>
      </trkpt>
      <trkpt lat="46.99173" lon="-0.95681">
        <ele>111.851</ele>
        <time>2020-05-27T18:19:56Z</time>
      </trkpt>
      <trkpt lat="46.99172" lon="-0.95681">
        <ele>111.234</ele>
        <time>2020-05-27T18:19:57Z</time>
      </trkpt>
      <trkpt lat="46.9917" lon="-0.95683">
        <ele>111.171</ele>
        <time>2020-05-27T18:19:58Z</time>
      </trkpt>
      <trkpt lat="46.99168" lon="-0.95686">
        <ele>111.435</ele>
        <time>2020-05-27T18:19:59Z</time>
      </trkpt>
      <trkpt lat="46.99165" lon="-0.95689">
        <ele>111.024</ele>
        <time>2020-05-27T18:20:00Z</time>
      </trkpt>
      <trkpt lat="46.99164" lon="-0.9569">
        <ele>109.988</ele>
        <time>2020-05-27T18:20:01Z</time>
      </trkpt>
      <trkpt lat="46.99162" lon="-0.95689">
        <ele>108.403</ele>
        <time>2020-05-27T18:20:02Z</time>
      </trkpt>
      <trkpt lat="46.9916" lon="-0.95688">
        <ele>107.447</ele>
        <time>2020-05-27T18:20:03Z</time>
      </trkpt>
      <trkpt lat="46.99157" lon="-0.95686">
        <ele>110.342</ele>
        <time>2020-05-27T18:20:04Z</time>
      </trkpt>
      <trkpt lat="46.99155" lon="-0.95683">
        <ele>109.055</ele>
        <time>2020-05-27T18:20:05Z</time>
      </trkpt>
      <trkpt lat="46.99153" lon="-0.95679">
        <ele>109.457</ele>
        <time>2020-05-27T18:20:06Z</time>
      </trkpt>
      <trkpt lat="46.99151" lon="-0.95676">
        <ele>110.115</ele>
        <time>2020-05-27T18:20:07Z</time>
      </trkpt>
      <trkpt lat="46.9915" lon="-0.95673">
        <ele>110.384</ele>
        <time>2020-05-27T18:20:08Z</time>
      </trkpt>
      <trkpt lat="46.99148" lon="-0.9567">
        <ele>110.227</ele>
        <time>2020-05-27T18:20:09Z</time>
      </trkpt>
      <trkpt lat="46.99145" lon="-0.95667">
        <ele>109.732</ele>
        <time>2020-05-27T18:20:10Z</time>
      </trkpt>
      <trkpt lat="46.99143" lon="-0.95663">
        <ele>109.263</ele>
        <time>2020-05-27T18:20:11Z</time>
      </trkpt>
      <trkpt lat="46.9914" lon="-0.9566">
        <ele>109.147</ele>
        <time>2020-05-27T18:20:12Z</time>
      </trkpt>
      <trkpt lat="46.99137" lon="-0.95657">
        <ele>108.53</ele>
        <time>2020-05-27T18:20:13Z</time>
      </trkpt>
      <trkpt lat="46.99134" lon="-0.95654">
        <ele>106.733</ele>
        <time>2020-05-27T18:20:14Z</time>
      </trkpt>
      <trkpt lat="46.9913" lon="-0.95651">
        <ele>106.117</ele>
        <time>2020-05-27T18:20:15Z</time>
      </trkpt>
      <trkpt lat="46.99126" lon="-0.95648">
        <ele>105.796</ele>
        <time>2020-05-27T18:20:16Z</time>
      </trkpt>
      <trkpt lat="46.99122" lon="-0.95645">
        <ele>105.516</ele>
        <time>2020-05-27T18:20:17Z</time>
      </trkpt>
      <trkpt lat="46.99119" lon="-0.95643">
        <ele>104.978</ele>
        <time>2020-05-27T18:20:18Z</time>
      </trkpt>
      <trkpt lat="46.99114" lon="-0.95641">
        <ele>104.902</ele>
        <time>2020-05-27T18:20:19Z</time>
      </trkpt>
      <trkpt lat="46.9911" lon="-0.95638">
        <ele>102.892</ele>
        <time>2020-05-27T18:20:20Z</time>
      </trkpt>
      <trkpt lat="46.99106" lon="-0.95635">
        <ele>101.999</ele>
        <time>2020-05-27T18:20:21Z</time>
      </trkpt>
      <trkpt lat="46.99102" lon="-0.95625">
        <ele>101.649</ele>
        <time>2020-05-27T18:20:22Z</time>
      </trkpt>
      <trkpt lat="46.99098" lon="-0.95624">
        <ele>102.261</ele>
        <time>2020-05-27T18:20:23Z</time>
      </trkpt>
      <trkpt lat="46.99092" lon="-0.95622">
        <ele>102.979</ele>
        <time>2020-05-27T18:20:24Z</time>
      </trkpt>
      <trkpt lat="46.99087" lon="-0.95619">
        <ele>103.965</ele>
        <time>2020-05-27T18:20:25Z</time>
      </trkpt>
      <trkpt lat="46.99084" lon="-0.95617">
        <ele>103.647</ele>
        <time>2020-05-27T18:20:26Z</time>
      </trkpt>
      <trkpt lat="46.9908" lon="-0.95613">
        <ele>102.883</ele>
        <time>2020-05-27T18:20:27Z</time>
      </trkpt>
      <trkpt lat="46.99076" lon="-0.95612">
        <ele>103.242</ele>
        <time>2020-05-27T18:20:28Z</time>
      </trkpt>
      <trkpt lat="46.99072" lon="-0.95611">
        <ele>104.986</ele>
        <time>2020-05-27T18:20:29Z</time>
      </trkpt>
      <trkpt lat="46.99069" lon="-0.95611">
        <ele>105.578</ele>
        <time>2020-05-27T18:20:30Z</time>
      </trkpt>
      <trkpt lat="46.99065" lon="-0.95611">
        <ele>107.51</ele>
        <time>2020-05-27T18:20:31Z</time>
      </trkpt>
      <trkpt lat="46.9906" lon="-0.95609">
        <ele>106.619</ele>
        <time>2020-05-27T18:20:32Z</time>
      </trkpt>
      <trkpt lat="46.99057" lon="-0.95608">
        <ele>106.562</ele>
        <time>2020-05-27T18:20:33Z</time>
      </trkpt>
      <trkpt lat="46.99054" lon="-0.95606">
        <ele>103.968</ele>
        <time>2020-05-27T18:20:34Z</time>
      </trkpt>
      <trkpt lat="46.9905" lon="-0.95606">
        <ele>103.591</ele>
        <time>2020-05-27T18:20:35Z</time>
      </trkpt>
      <trkpt lat="46.99046" lon="-0.95608">
        <ele>103.179</ele>
        <time>2020-05-27T18:20:36Z</time>
      </trkpt>
      <trkpt lat="46.99043" lon="-0.9561">
        <ele>103.236</ele>
        <time>2020-05-27T18:20:37Z</time>
      </trkpt>
      <trkpt lat="46.99038" lon="-0.95618">
        <ele>104.022</ele>
        <time>2020-05-27T18:20:38Z</time>
      </trkpt>
      <trkpt lat="46.99034" lon="-0.95623">
        <ele>103.816</ele>
        <time>2020-05-27T18:20:39Z</time>
      </trkpt>
      <trkpt lat="46.9903" lon="-0.95627">
        <ele>103.978</ele>
        <time>2020-05-27T18:20:40Z</time>
      </trkpt>
      <trkpt lat="46.99026" lon="-0.95631">
        <ele>103.975</ele>
        <time>2020-05-27T18:20:41Z</time>
      </trkpt>
      <trkpt lat="46.9902" lon="-0.95636">
        <ele>105.451</ele>
        <time>2020-05-27T18:20:42Z</time>
      </trkpt>
      <trkpt lat="46.99014" lon="-0.95638">
        <ele>106.276</ele>
        <time>2020-05-27T18:20:43Z</time>
      </trkpt>
      <trkpt lat="46.99011" lon="-0.9564">
        <ele>105.582</ele>
        <time>2020-05-27T18:20:44Z</time>
      </trkpt>
      <trkpt lat="46.99007" lon="-0.95643">
        <ele>107.184</ele>
        <time>2020-05-27T18:20:45Z</time>
      </trkpt>
      <trkpt lat="46.99004" lon="-0.95646">
        <ele>107.212</ele>
        <time>2020-05-27T18:20:46Z</time>
      </trkpt>
      <trkpt lat="46.99002" lon="-0.95649">
        <ele>108.252</ele>
        <time>2020-05-27T18:20:47Z</time>
      </trkpt>
      <trkpt lat="46.98999" lon="-0.95651">
        <ele>108.027</ele>
        <time>2020-05-27T18:20:48Z</time>
      </trkpt>
      <trkpt lat="46.98996" lon="-0.95652">
        <ele>107.673</ele>
        <time>2020-05-27T18:20:49Z</time>
      </trkpt>
      <trkpt lat="46.98993" lon="-0.95652">
        <ele>106.861</ele>
        <time>2020-05-27T18:20:50Z</time>
      </trkpt>
      <trkpt lat="46.9899" lon="-0.95653">
        <ele>105.643</ele>
        <time>2020-05-27T18:20:51Z</time>
      </trkpt>
      <trkpt lat="46.98986" lon="-0.95655">
        <ele>106.426</ele>
        <time>2020-05-27T18:20:52Z</time>
      </trkpt>
      <trkpt lat="46.98984" lon="-0.95657">
        <ele>107.005</ele>
        <time>2020-05-27T18:20:53Z</time>
      </trkpt>
      <trkpt lat="46.98982" lon="-0.9566">
        <ele>106.287</ele>
        <time>2020-05-27T18:20:54Z</time>
      </trkpt>
      <trkpt lat="46.98981" lon="-0.95662">
        <ele>106.425</ele>
        <time>2020-05-27T18:20:55Z</time>
      </trkpt>
      <trkpt lat="46.98979" lon="-0.95664">
        <ele>106.547</ele>
        <time>2020-05-27T18:20:56Z</time>
      </trkpt>
      <trkpt lat="46.98977" lon="-0.95667">
        <ele>107.222</ele>
        <time>2020-05-27T18:20:57Z</time>
      </trkpt>
      <trkpt lat="46.98975" lon="-0.95669">
        <ele>107.825</ele>
        <time>2020-05-27T18:20:58Z</time>
      </trkpt>
      <trkpt lat="46.98973" lon="-0.95672">
        <ele>107.702</ele>
        <time>2020-05-27T18:20:59Z</time>
      </trkpt>
      <trkpt lat="46.9897" lon="-0.95675">
        <ele>108.349</ele>
        <time>2020-05-27T18:21:00Z</time>
      </trkpt>
      <trkpt lat="46.98967" lon="-0.95677">
        <ele>108.318</ele>
        <time>2020-05-27T18:21:01Z</time>
      </trkpt>
      <trkpt lat="46.98964" lon="-0.9568">
        <ele>107.917</ele>
        <time>2020-05-27T18:21:02Z</time>
      </trkpt>
      <trkpt lat="46.98961" lon="-0.95683">
        <ele>107.359</ele>
        <time>2020-05-27T18:21:03Z</time>
      </trkpt>
      <trkpt lat="46.98958" lon="-0.95685">
        <ele>108.688</ele>
        <time>2020-05-27T18:21:04Z</time>
      </trkpt>
      <trkpt lat="46.98955" lon="-0.95687">
        <ele>109.097</ele>
        <time>2020-05-27T18:21:05Z</time>
      </trkpt>
      <trkpt lat="46.98953" lon="-0.95689">
        <ele>113.603</ele>
        <time>2020-05-27T18:21:06Z</time>
      </trkpt>
      <trkpt lat="46.9895" lon="-0.95691">
        <ele>112.443</ele>
        <time>2020-05-27T18:21:07Z</time>
      </trkpt>
      <trkpt lat="46.98948" lon="-0.95693">
        <ele>111.701</ele>
        <time>2020-05-27T18:21:08Z</time>
      </trkpt>
      <trkpt lat="46.98945" lon="-0.95695">
        <ele>111.18</ele>
        <time>2020-05-27T18:21:09Z</time>
      </trkpt>
      <trkpt lat="46.98942" lon="-0.95697">
        <ele>111.475</ele>
        <time>2020-05-27T18:21:10Z</time>
      </trkpt>
      <trkpt lat="46.98939" lon="-0.95699">
        <ele>111.345</ele>
        <time>2020-05-27T18:21:11Z</time>
      </trkpt>
      <trkpt lat="46.98936" lon="-0.95701">
        <ele>111.39</ele>
        <time>2020-05-27T18:21:12Z</time>
      </trkpt>
      <trkpt lat="46.98933" lon="-0.95702">
        <ele>110.56</ele>
        <time>2020-05-27T18:21:13Z</time>
      </trkpt>
      <trkpt lat="46.98931" lon="-0.95704">
        <ele>111.093</ele>
        <time>2020-05-27T18:21:14Z</time>
      </trkpt>
      <trkpt lat="46.98929" lon="-0.95705">
        <ele>110.051</ele>
        <time>2020-05-27T18:21:15Z</time>
      </trkpt>
      <trkpt lat="46.98928" lon="-0.95706">
        <ele>111.163</ele>
        <time>2020-05-27T18:21:16Z</time>
      </trkpt>
      <trkpt lat="46.98927" lon="-0.95707">
        <ele>111.668</ele>
        <time>2020-05-27T18:21:17Z</time>
      </trkpt>
      <trkpt lat="46.98925" lon="-0.95708">
        <ele>112.866</ele>
        <time>2020-05-27T18:21:18Z</time>
      </trkpt>
      <trkpt lat="46.98922" lon="-0.95709">
        <ele>112.496</ele>
        <time>2020-05-27T18:21:19Z</time>
      </trkpt>
      <trkpt lat="46.98919" lon="-0.95711">
        <ele>112.101</ele>
        <time>2020-05-27T18:21:20Z</time>
      </trkpt>
      <trkpt lat="46.98916" lon="-0.95712">
        <ele>113.148</ele>
        <time>2020-05-27T18:21:21Z</time>
      </trkpt>
      <trkpt lat="46.98913" lon="-0.95713">
        <ele>113.221</ele>
        <time>2020-05-27T18:21:22Z</time>
      </trkpt>
      <trkpt lat="46.9891" lon="-0.95715">
        <ele>112.679</ele>
        <time>2020-05-27T18:21:23Z</time>
      </trkpt>
      <trkpt lat="46.98907" lon="-0.95717">
        <ele>113.98</ele>
        <time>2020-05-27T18:21:24Z</time>
      </trkpt>
      <trkpt lat="46.98904" lon="-0.95718">
        <ele>114.27</ele>
        <time>2020-05-27T18:21:25Z</time>
      </trkpt>
      <trkpt lat="46.98902" lon="-0.95719">
        <ele>113.743</ele>
        <time>2020-05-27T18:21:26Z</time>
      </trkpt>
      <trkpt lat="46.98899" lon="-0.9572">
        <ele>113.718</ele>
        <time>2020-05-27T18:21:27Z</time>
      </trkpt>
      <trkpt lat="46.98896" lon="-0.9572">
        <ele>113.043</ele>
        <time>2020-05-27T18:21:28Z</time>
      </trkpt>
      <trkpt lat="46.98893" lon="-0.9572">
        <ele>113.19</ele>
        <time>2020-05-27T18:21:29Z</time>
      </trkpt>
      <trkpt lat="46.9889" lon="-0.95721">
        <ele>114.865</ele>
        <time>2020-05-27T18:21:30Z</time>
      </trkpt>
      <trkpt lat="46.98889" lon="-0.95722">
        <ele>115.458</ele>
        <time>2020-05-27T18:21:31Z</time>
      </trkpt>
      <trkpt lat="46.98889" lon="-0.95721">
        <ele>115.44</ele>
        <time>2020-05-27T18:21:32Z</time>
      </trkpt>
      <trkpt lat="46.98889" lon="-0.95721">
        <ele>115.438</ele>
        <time>2020-05-27T18:21:33Z</time>
      </trkpt>
      <trkpt lat="46.98889" lon="-0.95721">
        <ele>115.582</ele>
        <time>2020-05-27T18:21:34Z</time>
      </trkpt>
      <trkpt lat="46.98888" lon="-0.95722">
        <ele>114.977</ele>
        <time>2020-05-27T18:21:35Z</time>
      </trkpt>
      <trkpt lat="46.98888" lon="-0.95722">
        <ele>114.973</ele>
        <time>2020-05-27T18:21:36Z</time>
      </trkpt>
      <trkpt lat="46.98888" lon="-0.95722">
        <ele>114.77</ele>
        <time>2020-05-27T18:21:37Z</time>
      </trkpt>
      <trkpt lat="46.98888" lon="-0.95722">
        <ele>114.544</ele>
        <time>2020-05-27T18:21:38Z</time>
      </trkpt>
      <trkpt lat="46.98888" lon="-0.95722">
        <ele>113.781</ele>
        <time>2020-05-27T18:21:39Z</time>
      </trkpt>
      <trkpt lat="46.98888" lon="-0.95722">
        <ele>113.301</ele>
        <time>2020-05-27T18:21:41Z</time>
      </trkpt>
      <trkpt lat="46.98887" lon="-0.95722">
        <ele>114.161</ele>
        <time>2020-05-27T18:21:42Z</time>
      </trkpt>
      <trkpt lat="46.98886" lon="-0.95723">
        <ele>115.535</ele>
        <time>2020-05-27T18:21:43Z</time>
      </trkpt>
      <trkpt lat="46.98886" lon="-0.95724">
        <ele>115.471</ele>
        <time>2020-05-27T18:21:44Z</time>
      </trkpt>
      <trkpt lat="46.98885" lon="-0.95723">
        <ele>114.33</ele>
        <time>2020-05-27T18:21:46Z</time>
      </trkpt>
      <trkpt lat="46.98885" lon="-0.95722">
        <ele>114.223</ele>
        <time>2020-05-27T18:21:47Z</time>
      </trkpt>
      <trkpt lat="46.98886" lon="-0.95722">
        <ele>114.321</ele>
        <time>2020-05-27T18:21:48Z</time>
      </trkpt>
      <trkpt lat="46.98886" lon="-0.95721">
        <ele>114.485</ele>
        <time>2020-05-27T18:21:49Z</time>
      </trkpt>
      <trkpt lat="46.98885" lon="-0.95722">
        <ele>113.521</ele>
        <time>2020-05-27T18:21:50Z</time>
      </trkpt>
      <trkpt lat="46.98883" lon="-0.95723">
        <ele>112.417</ele>
        <time>2020-05-27T18:21:51Z</time>
      </trkpt>
      <trkpt lat="46.98881" lon="-0.95723">
        <ele>111.469</ele>
        <time>2020-05-27T18:21:52Z</time>
      </trkpt>
      <trkpt lat="46.98879" lon="-0.95722">
        <ele>112.023</ele>
        <time>2020-05-27T18:21:53Z</time>
      </trkpt>
      <trkpt lat="46.98877" lon="-0.9572">
        <ele>113.268</ele>
        <time>2020-05-27T18:21:54Z</time>
      </trkpt>
      <trkpt lat="46.98875" lon="-0.95717">
        <ele>112.767</ele>
        <time>2020-05-27T18:21:55Z</time>
      </trkpt>
      <trkpt lat="46.98873" lon="-0.95714">
        <ele>114.3</ele>
        <time>2020-05-27T18:21:56Z</time>
      </trkpt>
      <trkpt lat="46.98871" lon="-0.95711">
        <ele>115.397</ele>
        <time>2020-05-27T18:21:57Z</time>
      </trkpt>
      <trkpt lat="46.98869" lon="-0.95707">
        <ele>119.51</ele>
        <time>2020-05-27T18:21:58Z</time>
      </trkpt>
      <trkpt lat="46.98866" lon="-0.95704">
        <ele>120.191</ele>
        <time>2020-05-27T18:21:59Z</time>
      </trkpt>
      <trkpt lat="46.98864" lon="-0.95702">
        <ele>121.157</ele>
        <time>2020-05-27T18:22:00Z</time>
      </trkpt>
      <trkpt lat="46.98862" lon="-0.957">
        <ele>122.338</ele>
        <time>2020-05-27T18:22:01Z</time>
      </trkpt>
      <trkpt lat="46.9886" lon="-0.95698">
        <ele>126.711</ele>
        <time>2020-05-27T18:22:02Z</time>
      </trkpt>
      <trkpt lat="46.98857" lon="-0.95697">
        <ele>127.79</ele>
        <time>2020-05-27T18:22:03Z</time>
      </trkpt>
      <trkpt lat="46.98855" lon="-0.95695">
        <ele>127.872</ele>
        <time>2020-05-27T18:22:04Z</time>
      </trkpt>
      <trkpt lat="46.98853" lon="-0.95695">
        <ele>128.871</ele>
        <time>2020-05-27T18:22:05Z</time>
      </trkpt>
      <trkpt lat="46.98851" lon="-0.95695">
        <ele>125.932</ele>
        <time>2020-05-27T18:22:06Z</time>
      </trkpt>
      <trkpt lat="46.9885" lon="-0.95696">
        <ele>124.701</ele>
        <time>2020-05-27T18:22:07Z</time>
      </trkpt>
      <trkpt lat="46.98849" lon="-0.95696">
        <ele>124.29</ele>
        <time>2020-05-27T18:22:08Z</time>
      </trkpt>
      <trkpt lat="46.98848" lon="-0.95696">
        <ele>123.906</ele>
        <time>2020-05-27T18:22:09Z</time>
      </trkpt>
      <trkpt lat="46.98848" lon="-0.95695">
        <ele>122.868</ele>
        <time>2020-05-27T18:22:10Z</time>
      </trkpt>
      <trkpt lat="46.98848" lon="-0.95693">
        <ele>123.77</ele>
        <time>2020-05-27T18:22:11Z</time>
      </trkpt>
      <trkpt lat="46.9885" lon="-0.9569">
        <ele>123.527</ele>
        <time>2020-05-27T18:22:12Z</time>
      </trkpt>
      <trkpt lat="46.98852" lon="-0.95687">
        <ele>123.26</ele>
        <time>2020-05-27T18:22:13Z</time>
      </trkpt>
      <trkpt lat="46.98854" lon="-0.95684">
        <ele>122.689</ele>
        <time>2020-05-27T18:22:14Z</time>
      </trkpt>
      <trkpt lat="46.98856" lon="-0.95681">
        <ele>123.253</ele>
        <time>2020-05-27T18:22:15Z</time>
      </trkpt>
      <trkpt lat="46.98858" lon="-0.95679">
        <ele>123.169</ele>
        <time>2020-05-27T18:22:16Z</time>
      </trkpt>
      <trkpt lat="46.9886" lon="-0.95677">
        <ele>122.542</ele>
        <time>2020-05-27T18:22:17Z</time>
      </trkpt>
      <trkpt lat="46.98861" lon="-0.95674">
        <ele>123.225</ele>
        <time>2020-05-27T18:22:18Z</time>
      </trkpt>
      <trkpt lat="46.98863" lon="-0.95672">
        <ele>123.123</ele>
        <time>2020-05-27T18:22:19Z</time>
      </trkpt>
      <trkpt lat="46.98865" lon="-0.9567">
        <ele>123.142</ele>
        <time>2020-05-27T18:22:20Z</time>
      </trkpt>
      <trkpt lat="46.98867" lon="-0.95669">
        <ele>122.623</ele>
        <time>2020-05-27T18:22:21Z</time>
      </trkpt>
      <trkpt lat="46.98869" lon="-0.95667">
        <ele>122.277</ele>
        <time>2020-05-27T18:22:22Z</time>
      </trkpt>
      <trkpt lat="46.98871" lon="-0.95665">
        <ele>122.728</ele>
        <time>2020-05-27T18:22:23Z</time>
      </trkpt>
      <trkpt lat="46.98873" lon="-0.95663">
        <ele>123.972</ele>
        <time>2020-05-27T18:22:24Z</time>
      </trkpt>
      <trkpt lat="46.98875" lon="-0.95662">
        <ele>124.6</ele>
        <time>2020-05-27T18:22:25Z</time>
      </trkpt>
      <trkpt lat="46.98876" lon="-0.9566">
        <ele>125.412</ele>
        <time>2020-05-27T18:22:26Z</time>
      </trkpt>
      <trkpt lat="46.98878" lon="-0.95658">
        <ele>125.28</ele>
        <time>2020-05-27T18:22:27Z</time>
      </trkpt>
      <trkpt lat="46.9888" lon="-0.95656">
        <ele>125.953</ele>
        <time>2020-05-27T18:22:28Z</time>
      </trkpt>
      <trkpt lat="46.98882" lon="-0.95654">
        <ele>126.453</ele>
        <time>2020-05-27T18:22:29Z</time>
      </trkpt>
      <trkpt lat="46.98884" lon="-0.95651">
        <ele>126.874</ele>
        <time>2020-05-27T18:22:30Z</time>
      </trkpt>
      <trkpt lat="46.98885" lon="-0.95649">
        <ele>127.149</ele>
        <time>2020-05-27T18:22:31Z</time>
      </trkpt>
      <trkpt lat="46.98887" lon="-0.95646">
        <ele>127.16</ele>
        <time>2020-05-27T18:22:32Z</time>
      </trkpt>
      <trkpt lat="46.98888" lon="-0.95644">
        <ele>127.103</ele>
        <time>2020-05-27T18:22:33Z</time>
      </trkpt>
      <trkpt lat="46.9889" lon="-0.95642">
        <ele>127.628</ele>
        <time>2020-05-27T18:22:34Z</time>
      </trkpt>
      <trkpt lat="46.98891" lon="-0.95639">
        <ele>128.403</ele>
        <time>2020-05-27T18:22:35Z</time>
      </trkpt>
      <trkpt lat="46.98892" lon="-0.95637">
        <ele>128.612</ele>
        <time>2020-05-27T18:22:36Z</time>
      </trkpt>
      <trkpt lat="46.98894" lon="-0.95635">
        <ele>129.296</ele>
        <time>2020-05-27T18:22:37Z</time>
      </trkpt>
      <trkpt lat="46.98895" lon="-0.95633">
        <ele>129.416</ele>
        <time>2020-05-27T18:22:38Z</time>
      </trkpt>
      <trkpt lat="46.98896" lon="-0.95631">
        <ele>129.635</ele>
        <time>2020-05-27T18:22:39Z</time>
      </trkpt>
      <trkpt lat="46.98897" lon="-0.95629">
        <ele>129.741</ele>
        <time>2020-05-27T18:22:40Z</time>
      </trkpt>
      <trkpt lat="46.98899" lon="-0.95627">
        <ele>130.195</ele>
        <time>2020-05-27T18:22:41Z</time>
      </trkpt>
      <trkpt lat="46.989" lon="-0.95625">
        <ele>130.929</ele>
        <time>2020-05-27T18:22:42Z</time>
      </trkpt>
      <trkpt lat="46.98902" lon="-0.95623">
        <ele>130.004</ele>
        <time>2020-05-27T18:22:43Z</time>
      </trkpt>
      <trkpt lat="46.98903" lon="-0.95621">
        <ele>130.19</ele>
        <time>2020-05-27T18:22:44Z</time>
      </trkpt>
      <trkpt lat="46.98905" lon="-0.95619">
        <ele>130.59</ele>
        <time>2020-05-27T18:22:45Z</time>
      </trkpt>
      <trkpt lat="46.98906" lon="-0.95616">
        <ele>130.748</ele>
        <time>2020-05-27T18:22:46Z</time>
      </trkpt>
      <trkpt lat="46.98907" lon="-0.95614">
        <ele>129.867</ele>
        <time>2020-05-27T18:22:47Z</time>
      </trkpt>
      <trkpt lat="46.98908" lon="-0.95611">
        <ele>130.182</ele>
        <time>2020-05-27T18:22:48Z</time>
      </trkpt>
      <trkpt lat="46.98909" lon="-0.95609">
        <ele>129.959</ele>
        <time>2020-05-27T18:22:49Z</time>
      </trkpt>
      <trkpt lat="46.9891" lon="-0.95606">
        <ele>130.012</ele>
        <time>2020-05-27T18:22:50Z</time>
      </trkpt>
      <trkpt lat="46.98911" lon="-0.95603">
        <ele>130.811</ele>
        <time>2020-05-27T18:22:51Z</time>
      </trkpt>
      <trkpt lat="46.98912" lon="-0.95601">
        <ele>131.04</ele>
        <time>2020-05-27T18:22:52Z</time>
      </trkpt>
      <trkpt lat="46.98913" lon="-0.95598">
        <ele>131.487</ele>
        <time>2020-05-27T18:22:53Z</time>
      </trkpt>
      <trkpt lat="46.98914" lon="-0.95596">
        <ele>131.827</ele>
        <time>2020-05-27T18:22:54Z</time>
      </trkpt>
      <trkpt lat="46.98914" lon="-0.95593">
        <ele>131.636</ele>
        <time>2020-05-27T18:22:55Z</time>
      </trkpt>
      <trkpt lat="46.98915" lon="-0.9559">
        <ele>131.274</ele>
        <time>2020-05-27T18:22:56Z</time>
      </trkpt>
      <trkpt lat="46.98916" lon="-0.95588">
        <ele>130.287</ele>
        <time>2020-05-27T18:22:57Z</time>
      </trkpt>
      <trkpt lat="46.98916" lon="-0.95585">
        <ele>129.593</ele>
        <time>2020-05-27T18:22:58Z</time>
      </trkpt>
      <trkpt lat="46.98917" lon="-0.95582">
        <ele>129.847</ele>
        <time>2020-05-27T18:22:59Z</time>
      </trkpt>
      <trkpt lat="46.98917" lon="-0.95579">
        <ele>129.922</ele>
        <time>2020-05-27T18:23:00Z</time>
      </trkpt>
      <trkpt lat="46.98916" lon="-0.95576">
        <ele>130.072</ele>
        <time>2020-05-27T18:23:01Z</time>
      </trkpt>
      <trkpt lat="46.98916" lon="-0.95572">
        <ele>130.814</ele>
        <time>2020-05-27T18:23:02Z</time>
      </trkpt>
      <trkpt lat="46.98916" lon="-0.95569">
        <ele>130.925</ele>
        <time>2020-05-27T18:23:03Z</time>
      </trkpt>
      <trkpt lat="46.98916" lon="-0.95566">
        <ele>132.078</ele>
        <time>2020-05-27T18:23:04Z</time>
      </trkpt>
      <trkpt lat="46.98916" lon="-0.95563">
        <ele>131.636</ele>
        <time>2020-05-27T18:23:05Z</time>
      </trkpt>
      <trkpt lat="46.98915" lon="-0.9556">
        <ele>131.635</ele>
        <time>2020-05-27T18:23:06Z</time>
      </trkpt>
      <trkpt lat="46.98915" lon="-0.95557">
        <ele>132.624</ele>
        <time>2020-05-27T18:23:07Z</time>
      </trkpt>
      <trkpt lat="46.98915" lon="-0.95554">
        <ele>132.865</ele>
        <time>2020-05-27T18:23:08Z</time>
      </trkpt>
      <trkpt lat="46.98914" lon="-0.95552">
        <ele>133.871</ele>
        <time>2020-05-27T18:23:09Z</time>
      </trkpt>
      <trkpt lat="46.98914" lon="-0.95549">
        <ele>134.139</ele>
        <time>2020-05-27T18:23:10Z</time>
      </trkpt>
      <trkpt lat="46.98913" lon="-0.95546">
        <ele>134.366</ele>
        <time>2020-05-27T18:23:11Z</time>
      </trkpt>
      <trkpt lat="46.98913" lon="-0.95543">
        <ele>134.794</ele>
        <time>2020-05-27T18:23:12Z</time>
      </trkpt>
      <trkpt lat="46.98913" lon="-0.9554">
        <ele>135.633</ele>
        <time>2020-05-27T18:23:13Z</time>
      </trkpt>
      <trkpt lat="46.98912" lon="-0.95538">
        <ele>136.092</ele>
        <time>2020-05-27T18:23:14Z</time>
      </trkpt>
      <trkpt lat="46.98912" lon="-0.95536">
        <ele>136.26</ele>
        <time>2020-05-27T18:23:15Z</time>
      </trkpt>
      <trkpt lat="46.98912" lon="-0.95534">
        <ele>136.512</ele>
        <time>2020-05-27T18:23:16Z</time>
      </trkpt>
      <trkpt lat="46.98911" lon="-0.95533">
        <ele>136.456</ele>
        <time>2020-05-27T18:23:17Z</time>
      </trkpt>
      <trkpt lat="46.98911" lon="-0.95531">
        <ele>136.661</ele>
        <time>2020-05-27T18:23:18Z</time>
      </trkpt>
      <trkpt lat="46.98911" lon="-0.95529">
        <ele>136.814</ele>
        <time>2020-05-27T18:23:19Z</time>
      </trkpt>
      <trkpt lat="46.98911" lon="-0.95528">
        <ele>136.356</ele>
        <time>2020-05-27T18:23:20Z</time>
      </trkpt>
      <trkpt lat="46.9891" lon="-0.95526">
        <ele>136.138</ele>
        <time>2020-05-27T18:23:21Z</time>
      </trkpt>
      <trkpt lat="46.98909" lon="-0.95524">
        <ele>136.991</ele>
        <time>2020-05-27T18:23:22Z</time>
      </trkpt>
      <trkpt lat="46.98908" lon="-0.95523">
        <ele>137.528</ele>
        <time>2020-05-27T18:23:23Z</time>
      </trkpt>
      <trkpt lat="46.98906" lon="-0.95523">
        <ele>136.879</ele>
        <time>2020-05-27T18:23:24Z</time>
      </trkpt>
      <trkpt lat="46.98905" lon="-0.95524">
        <ele>136.474</ele>
        <time>2020-05-27T18:23:25Z</time>
      </trkpt>
      <trkpt lat="46.98903" lon="-0.95525">
        <ele>137.411</ele>
        <time>2020-05-27T18:23:26Z</time>
      </trkpt>
      <trkpt lat="46.98902" lon="-0.95528">
        <ele>136.633</ele>
        <time>2020-05-27T18:23:27Z</time>
      </trkpt>
      <trkpt lat="46.98901" lon="-0.9553">
        <ele>136.387</ele>
        <time>2020-05-27T18:23:28Z</time>
      </trkpt>
      <trkpt lat="46.989" lon="-0.95531">
        <ele>136.77</ele>
        <time>2020-05-27T18:23:29Z</time>
      </trkpt>
      <trkpt lat="46.98899" lon="-0.95532">
        <ele>136.534</ele>
        <time>2020-05-27T18:23:30Z</time>
      </trkpt>
      <trkpt lat="46.98898" lon="-0.95533">
        <ele>136.614</ele>
        <time>2020-05-27T18:23:31Z</time>
      </trkpt>
      <trkpt lat="46.98896" lon="-0.95533">
        <ele>136.485</ele>
        <time>2020-05-27T18:23:32Z</time>
      </trkpt>
      <trkpt lat="46.98894" lon="-0.95534">
        <ele>136.312</ele>
        <time>2020-05-27T18:23:33Z</time>
      </trkpt>
      <trkpt lat="46.98893" lon="-0.95533">
        <ele>137.517</ele>
        <time>2020-05-27T18:23:34Z</time>
      </trkpt>
      <trkpt lat="46.98891" lon="-0.95532">
        <ele>136.876</ele>
        <time>2020-05-27T18:23:35Z</time>
      </trkpt>
      <trkpt lat="46.98889" lon="-0.95531">
        <ele>135.475</ele>
        <time>2020-05-27T18:23:36Z</time>
      </trkpt>
      <trkpt lat="46.98887" lon="-0.9553">
        <ele>134.746</ele>
        <time>2020-05-27T18:23:37Z</time>
      </trkpt>
      <trkpt lat="46.98885" lon="-0.95529">
        <ele>135.215</ele>
        <time>2020-05-27T18:23:38Z</time>
      </trkpt>
      <trkpt lat="46.98883" lon="-0.95527">
        <ele>135.338</ele>
        <time>2020-05-27T18:23:39Z</time>
      </trkpt>
      <trkpt lat="46.98881" lon="-0.95526">
        <ele>135.762</ele>
        <time>2020-05-27T18:23:40Z</time>
      </trkpt>
      <trkpt lat="46.9888" lon="-0.95524">
        <ele>136.81</ele>
        <time>2020-05-27T18:23:41Z</time>
      </trkpt>
      <trkpt lat="46.98879" lon="-0.95521">
        <ele>135.71</ele>
        <time>2020-05-27T18:23:42Z</time>
      </trkpt>
      <trkpt lat="46.98878" lon="-0.95519">
        <ele>135.459</ele>
        <time>2020-05-27T18:23:43Z</time>
      </trkpt>
      <trkpt lat="46.98877" lon="-0.95517">
        <ele>135.866</ele>
        <time>2020-05-27T18:23:44Z</time>
      </trkpt>
      <trkpt lat="46.98875" lon="-0.95514">
        <ele>136.27</ele>
        <time>2020-05-27T18:23:45Z</time>
      </trkpt>
      <trkpt lat="46.98873" lon="-0.95512">
        <ele>136.061</ele>
        <time>2020-05-27T18:23:46Z</time>
      </trkpt>
      <trkpt lat="46.98872" lon="-0.95511">
        <ele>137.638</ele>
        <time>2020-05-27T18:23:47Z</time>
      </trkpt>
      <trkpt lat="46.98871" lon="-0.95509">
        <ele>138.485</ele>
        <time>2020-05-27T18:23:48Z</time>
      </trkpt>
      <trkpt lat="46.9887" lon="-0.95507">
        <ele>138.276</ele>
        <time>2020-05-27T18:23:49Z</time>
      </trkpt>
      <trkpt lat="46.98869" lon="-0.95505">
        <ele>138.24</ele>
        <time>2020-05-27T18:23:50Z</time>
      </trkpt>
      <trkpt lat="46.98868" lon="-0.95503">
        <ele>138.075</ele>
        <time>2020-05-27T18:23:51Z</time>
      </trkpt>
      <trkpt lat="46.98868" lon="-0.95501">
        <ele>139.669</ele>
        <time>2020-05-27T18:23:52Z</time>
      </trkpt>
      <trkpt lat="46.98867" lon="-0.95499">
        <ele>139.353</ele>
        <time>2020-05-27T18:23:53Z</time>
      </trkpt>
      <trkpt lat="46.98867" lon="-0.95497">
        <ele>138.907</ele>
        <time>2020-05-27T18:23:54Z</time>
      </trkpt>
      <trkpt lat="46.98866" lon="-0.95494">
        <ele>138.695</ele>
        <time>2020-05-27T18:23:55Z</time>
      </trkpt>
      <trkpt lat="46.98865" lon="-0.95492">
        <ele>137.156</ele>
        <time>2020-05-27T18:23:56Z</time>
      </trkpt>
      <trkpt lat="46.98863" lon="-0.9549">
        <ele>138.212</ele>
        <time>2020-05-27T18:23:57Z</time>
      </trkpt>
      <trkpt lat="46.98862" lon="-0.95488">
        <ele>139.07</ele>
        <time>2020-05-27T18:23:58Z</time>
      </trkpt>
      <trkpt lat="46.9886" lon="-0.95486">
        <ele>139.708</ele>
        <time>2020-05-27T18:23:59Z</time>
      </trkpt>
      <trkpt lat="46.98858" lon="-0.95485">
        <ele>139.081</ele>
        <time>2020-05-27T18:24:00Z</time>
      </trkpt>
      <trkpt lat="46.98856" lon="-0.95484">
        <ele>139.858</ele>
        <time>2020-05-27T18:24:01Z</time>
      </trkpt>
      <trkpt lat="46.98855" lon="-0.95481">
        <ele>140.805</ele>
        <time>2020-05-27T18:24:02Z</time>
      </trkpt>
      <trkpt lat="46.98855" lon="-0.95478">
        <ele>140.764</ele>
        <time>2020-05-27T18:24:03Z</time>
      </trkpt>
      <trkpt lat="46.98854" lon="-0.95475">
        <ele>141.736</ele>
        <time>2020-05-27T18:24:04Z</time>
      </trkpt>
      <trkpt lat="46.98854" lon="-0.95472">
        <ele>141.303</ele>
        <time>2020-05-27T18:24:05Z</time>
      </trkpt>
      <trkpt lat="46.98853" lon="-0.95468">
        <ele>140.795</ele>
        <time>2020-05-27T18:24:06Z</time>
      </trkpt>
      <trkpt lat="46.98852" lon="-0.95464">
        <ele>141.66</ele>
        <time>2020-05-27T18:24:07Z</time>
      </trkpt>
      <trkpt lat="46.98852" lon="-0.9546">
        <ele>143.528</ele>
        <time>2020-05-27T18:24:08Z</time>
      </trkpt>
      <trkpt lat="46.98852" lon="-0.95455">
        <ele>144.405</ele>
        <time>2020-05-27T18:24:09Z</time>
      </trkpt>
      <trkpt lat="46.98851" lon="-0.95451">
        <ele>145.324</ele>
        <time>2020-05-27T18:24:10Z</time>
      </trkpt>
      <trkpt lat="46.98851" lon="-0.95446">
        <ele>145.74</ele>
        <time>2020-05-27T18:24:11Z</time>
      </trkpt>
      <trkpt lat="46.98852" lon="-0.95443">
        <ele>146.002</ele>
        <time>2020-05-27T18:24:12Z</time>
      </trkpt>
      <trkpt lat="46.98852" lon="-0.95439">
        <ele>146.839</ele>
        <time>2020-05-27T18:24:13Z</time>
      </trkpt>
      <trkpt lat="46.98852" lon="-0.95435">
        <ele>146.361</ele>
        <time>2020-05-27T18:24:14Z</time>
      </trkpt>
      <trkpt lat="46.98852" lon="-0.95431">
        <ele>147.274</ele>
        <time>2020-05-27T18:24:15Z</time>
      </trkpt>
      <trkpt lat="46.98852" lon="-0.95427">
        <ele>147.161</ele>
        <time>2020-05-27T18:24:16Z</time>
      </trkpt>
      <trkpt lat="46.98851" lon="-0.95422">
        <ele>147.55</ele>
        <time>2020-05-27T18:24:17Z</time>
      </trkpt>
      <trkpt lat="46.9885" lon="-0.95418">
        <ele>146.562</ele>
        <time>2020-05-27T18:24:18Z</time>
      </trkpt>
      <trkpt lat="46.98849" lon="-0.95414">
        <ele>147.959</ele>
        <time>2020-05-27T18:24:19Z</time>
      </trkpt>
      <trkpt lat="46.98848" lon="-0.9541">
        <ele>147.303</ele>
        <time>2020-05-27T18:24:20Z</time>
      </trkpt>
      <trkpt lat="46.98846" lon="-0.95406">
        <ele>147.47</ele>
        <time>2020-05-27T18:24:21Z</time>
      </trkpt>
      <trkpt lat="46.98845" lon="-0.95403">
        <ele>147.492</ele>
        <time>2020-05-27T18:24:22Z</time>
      </trkpt>
      <trkpt lat="46.98843" lon="-0.95401">
        <ele>148.44</ele>
        <time>2020-05-27T18:24:23Z</time>
      </trkpt>
      <trkpt lat="46.98841" lon="-0.95399">
        <ele>148.783</ele>
        <time>2020-05-27T18:24:24Z</time>
      </trkpt>
      <trkpt lat="46.9884" lon="-0.95396">
        <ele>149.278</ele>
        <time>2020-05-27T18:24:25Z</time>
      </trkpt>
      <trkpt lat="46.98838" lon="-0.95394">
        <ele>149.77</ele>
        <time>2020-05-27T18:24:26Z</time>
      </trkpt>
      <trkpt lat="46.98838" lon="-0.9539">
        <ele>150.173</ele>
        <time>2020-05-27T18:24:27Z</time>
      </trkpt>
      <trkpt lat="46.98837" lon="-0.95387">
        <ele>150.263</ele>
        <time>2020-05-27T18:24:28Z</time>
      </trkpt>
      <trkpt lat="46.98837" lon="-0.95384">
        <ele>150.138</ele>
        <time>2020-05-27T18:24:29Z</time>
      </trkpt>
      <trkpt lat="46.98838" lon="-0.95381">
        <ele>150.172</ele>
        <time>2020-05-27T18:24:30Z</time>
      </trkpt>
      <trkpt lat="46.98839" lon="-0.95378">
        <ele>149.723</ele>
        <time>2020-05-27T18:24:31Z</time>
      </trkpt>
      <trkpt lat="46.9884" lon="-0.95375">
        <ele>150.063</ele>
        <time>2020-05-27T18:24:32Z</time>
      </trkpt>
      <trkpt lat="46.98842" lon="-0.95373">
        <ele>149.803</ele>
        <time>2020-05-27T18:24:33Z</time>
      </trkpt>
      <trkpt lat="46.98843" lon="-0.9537">
        <ele>150.107</ele>
        <time>2020-05-27T18:24:34Z</time>
      </trkpt>
      <trkpt lat="46.98844" lon="-0.9537">
        <ele>149.712</ele>
        <time>2020-05-27T18:24:35Z</time>
      </trkpt>
      <trkpt lat="46.98844" lon="-0.95371">
        <ele>150.195</ele>
        <time>2020-05-27T18:24:36Z</time>
      </trkpt>
      <trkpt lat="46.98844" lon="-0.95371">
        <ele>150.014</ele>
        <time>2020-05-27T18:24:37Z</time>
      </trkpt>
      <trkpt lat="46.98844" lon="-0.95371">
        <ele>150.228</ele>
        <time>2020-05-27T18:24:38Z</time>
      </trkpt>
      <trkpt lat="46.98844" lon="-0.95372">
        <ele>150.064</ele>
        <time>2020-05-27T18:24:39Z</time>
      </trkpt>
      <trkpt lat="46.98845" lon="-0.95372">
        <ele>150.051</ele>
        <time>2020-05-27T18:24:40Z</time>
      </trkpt>
      <trkpt lat="46.98845" lon="-0.95371">
        <ele>149.856</ele>
        <time>2020-05-27T18:24:41Z</time>
      </trkpt>
      <trkpt lat="46.98845" lon="-0.95372">
        <ele>149.824</ele>
        <time>2020-05-27T18:24:42Z</time>
      </trkpt>
      <trkpt lat="46.98845" lon="-0.95371">
        <ele>149.509</ele>
        <time>2020-05-27T18:24:43Z</time>
      </trkpt>
      <trkpt lat="46.98845" lon="-0.95371">
        <ele>149.35</ele>
        <time>2020-05-27T18:24:44Z</time>
      </trkpt>
      <trkpt lat="46.98845" lon="-0.95371">
        <ele>149.126</ele>
        <time>2020-05-27T18:24:45Z</time>
      </trkpt>
      <trkpt lat="46.98845" lon="-0.95371">
        <ele>149.133</ele>
        <time>2020-05-27T18:24:46Z</time>
      </trkpt>
      <trkpt lat="46.98845" lon="-0.95372">
        <ele>149.166</ele>
        <time>2020-05-27T18:24:47Z</time>
      </trkpt>
      <trkpt lat="46.98845" lon="-0.95372">
        <ele>149.147</ele>
        <time>2020-05-27T18:24:48Z</time>
      </trkpt>
      <trkpt lat="46.98845" lon="-0.95372">
        <ele>149.145</ele>
        <time>2020-05-27T18:24:49Z</time>
      </trkpt>
      <trkpt lat="46.98845" lon="-0.95372">
        <ele>149.141</ele>
        <time>2020-05-27T18:24:50Z</time>
      </trkpt>
      <trkpt lat="46.98845" lon="-0.95372">
        <ele>149.142</ele>
        <time>2020-05-27T18:24:51Z</time>
      </trkpt>
      <trkpt lat="46.98845" lon="-0.95372">
        <ele>149.147</ele>
        <time>2020-05-27T18:24:52Z</time>
      </trkpt>
      <trkpt lat="46.98845" lon="-0.95372">
        <ele>149.148</ele>
        <time>2020-05-27T18:24:53Z</time>
      </trkpt>
      <trkpt lat="46.98845" lon="-0.95372">
        <ele>149.145</ele>
        <time>2020-05-27T18:24:54Z</time>
      </trkpt>
      <trkpt lat="46.98845" lon="-0.95372">
        <ele>149.14</ele>
        <time>2020-05-27T18:24:55Z</time>
      </trkpt>
      <trkpt lat="46.98845" lon="-0.95372">
        <ele>149.141</ele>
        <time>2020-05-27T18:24:56Z</time>
      </trkpt>
      <trkpt lat="46.98845" lon="-0.95372">
        <ele>149.138</ele>
        <time>2020-05-27T18:24:57Z</time>
      </trkpt>
      <trkpt lat="46.98845" lon="-0.95372">
        <ele>149.137</ele>
        <time>2020-05-27T18:24:58Z</time>
      </trkpt>
      <trkpt lat="46.98845" lon="-0.95372">
        <ele>149.141</ele>
        <time>2020-05-27T18:24:59Z</time>
      </trkpt>
      <trkpt lat="46.98845" lon="-0.95372">
        <ele>149.141</ele>
        <time>2020-05-27T18:25:00Z</time>
      </trkpt>
      <trkpt lat="46.98845" lon="-0.95372">
        <ele>149.14</ele>
        <time>2020-05-27T18:25:01Z</time>
      </trkpt>
      <trkpt lat="46.98845" lon="-0.95372">
        <ele>149.142</ele>
        <time>2020-05-27T18:25:02Z</time>
      </trkpt>
      <trkpt lat="46.98845" lon="-0.95372">
        <ele>149.138</ele>
        <time>2020-05-27T18:25:03Z</time>
      </trkpt>
      <trkpt lat="46.98845" lon="-0.95372">
        <ele>149.136</ele>
        <time>2020-05-27T18:25:04Z</time>
      </trkpt>
      <trkpt lat="46.98845" lon="-0.95372">
        <ele>149.136</ele>
        <time>2020-05-27T18:25:05Z</time>
      </trkpt>
      <trkpt lat="46.98845" lon="-0.95372">
        <ele>149.134</ele>
        <time>2020-05-27T18:25:06Z</time>
      </trkpt>
      <trkpt lat="46.98845" lon="-0.95372">
        <ele>149.496</ele>
        <time>2020-05-27T18:25:07Z</time>
      </trkpt>
      <trkpt lat="46.98845" lon="-0.95372">
        <ele>149.427</ele>
        <time>2020-05-27T18:25:08Z</time>
      </trkpt>
      <trkpt lat="46.98845" lon="-0.95372">
        <ele>149.374</ele>
        <time>2020-05-27T18:25:09Z</time>
      </trkpt>
      <trkpt lat="46.98845" lon="-0.95372">
        <ele>149.331</ele>
        <time>2020-05-27T18:25:10Z</time>
      </trkpt>
      <trkpt lat="46.98845" lon="-0.95372">
        <ele>149.295</ele>
        <time>2020-05-27T18:25:11Z</time>
      </trkpt>
      <trkpt lat="46.98845" lon="-0.95372">
        <ele>149.268</ele>
        <time>2020-05-27T18:25:12Z</time>
      </trkpt>
      <trkpt lat="46.98845" lon="-0.95372">
        <ele>149.254</ele>
        <time>2020-05-27T18:25:13Z</time>
      </trkpt>
      <trkpt lat="46.98845" lon="-0.95372">
        <ele>149.239</ele>
        <time>2020-05-27T18:25:14Z</time>
      </trkpt>
      <trkpt lat="46.98845" lon="-0.95372">
        <ele>149.226</ele>
        <time>2020-05-27T18:25:15Z</time>
      </trkpt>
      <trkpt lat="46.98845" lon="-0.95371">
        <ele>149.627</ele>
        <time>2020-05-27T18:25:16Z</time>
      </trkpt>
      <trkpt lat="46.98846" lon="-0.9537">
        <ele>149.708</ele>
        <time>2020-05-27T18:25:17Z</time>
      </trkpt>
      <trkpt lat="46.98847" lon="-0.95368">
        <ele>150.015</ele>
        <time>2020-05-27T18:25:18Z</time>
      </trkpt>
      <trkpt lat="46.98848" lon="-0.95366">
        <ele>150.881</ele>
        <time>2020-05-27T18:25:19Z</time>
      </trkpt>
      <trkpt lat="46.98849" lon="-0.95364">
        <ele>151.193</ele>
        <time>2020-05-27T18:25:20Z</time>
      </trkpt>
      <trkpt lat="46.9885" lon="-0.95362">
        <ele>151.284</ele>
        <time>2020-05-27T18:25:21Z</time>
      </trkpt>
      <trkpt lat="46.98851" lon="-0.95361">
        <ele>150.889</ele>
        <time>2020-05-27T18:25:22Z</time>
      </trkpt>
      <trkpt lat="46.98853" lon="-0.9536">
        <ele>150.934</ele>
        <time>2020-05-27T18:25:23Z</time>
      </trkpt>
      <trkpt lat="46.98855" lon="-0.9536">
        <ele>150.502</ele>
        <time>2020-05-27T18:25:24Z</time>
      </trkpt>
      <trkpt lat="46.98858" lon="-0.9536">
        <ele>150.171</ele>
        <time>2020-05-27T18:25:25Z</time>
      </trkpt>
      <trkpt lat="46.9886" lon="-0.9536">
        <ele>150.196</ele>
        <time>2020-05-27T18:25:26Z</time>
      </trkpt>
      <trkpt lat="46.98862" lon="-0.95361">
        <ele>150.787</ele>
        <time>2020-05-27T18:25:27Z</time>
      </trkpt>
      <trkpt lat="46.98865" lon="-0.95361">
        <ele>150.613</ele>
        <time>2020-05-27T18:25:28Z</time>
      </trkpt>
      <trkpt lat="46.98868" lon="-0.95361">
        <ele>150.028</ele>
        <time>2020-05-27T18:25:29Z</time>
      </trkpt>
      <trkpt lat="46.9887" lon="-0.95361">
        <ele>150.289</ele>
        <time>2020-05-27T18:25:30Z</time>
      </trkpt>
      <trkpt lat="46.98872" lon="-0.95361">
        <ele>150.022</ele>
        <time>2020-05-27T18:25:31Z</time>
      </trkpt>
      <trkpt lat="46.98874" lon="-0.95361">
        <ele>150.082</ele>
        <time>2020-05-27T18:25:32Z</time>
      </trkpt>
      <trkpt lat="46.98875" lon="-0.9536">
        <ele>149.998</ele>
        <time>2020-05-27T18:25:33Z</time>
      </trkpt>
      <trkpt lat="46.98875" lon="-0.9536">
        <ele>150.095</ele>
        <time>2020-05-27T18:25:34Z</time>
      </trkpt>
      <trkpt lat="46.98874" lon="-0.9536">
        <ele>150.513</ele>
        <time>2020-05-27T18:25:35Z</time>
      </trkpt>
      <trkpt lat="46.98875" lon="-0.95359">
        <ele>150.492</ele>
        <time>2020-05-27T18:25:36Z</time>
      </trkpt>
      <trkpt lat="46.98876" lon="-0.95359">
        <ele>150.844</ele>
        <time>2020-05-27T18:25:37Z</time>
      </trkpt>
      <trkpt lat="46.98877" lon="-0.95358">
        <ele>150.625</ele>
        <time>2020-05-27T18:25:38Z</time>
      </trkpt>
      <trkpt lat="46.98879" lon="-0.95358">
        <ele>149.75</ele>
        <time>2020-05-27T18:25:39Z</time>
      </trkpt>
      <trkpt lat="46.98882" lon="-0.95358">
        <ele>150.99</ele>
        <time>2020-05-27T18:25:40Z</time>
      </trkpt>
      <trkpt lat="46.98884" lon="-0.95357">
        <ele>150.286</ele>
        <time>2020-05-27T18:25:41Z</time>
      </trkpt>
      <trkpt lat="46.98887" lon="-0.95357">
        <ele>151.015</ele>
        <time>2020-05-27T18:25:42Z</time>
      </trkpt>
      <trkpt lat="46.98889" lon="-0.95356">
        <ele>151.239</ele>
        <time>2020-05-27T18:25:43Z</time>
      </trkpt>
      <trkpt lat="46.98892" lon="-0.95355">
        <ele>151.335</ele>
        <time>2020-05-27T18:25:44Z</time>
      </trkpt>
      <trkpt lat="46.98894" lon="-0.95353">
        <ele>152.042</ele>
        <time>2020-05-27T18:25:45Z</time>
      </trkpt>
      <trkpt lat="46.98896" lon="-0.9535">
        <ele>151.19</ele>
        <time>2020-05-27T18:25:46Z</time>
      </trkpt>
      <trkpt lat="46.98897" lon="-0.95347">
        <ele>150.969</ele>
        <time>2020-05-27T18:25:47Z</time>
      </trkpt>
      <trkpt lat="46.98898" lon="-0.95343">
        <ele>150.793</ele>
        <time>2020-05-27T18:25:48Z</time>
      </trkpt>
      <trkpt lat="46.98899" lon="-0.9534">
        <ele>151.037</ele>
        <time>2020-05-27T18:25:49Z</time>
      </trkpt>
      <trkpt lat="46.989" lon="-0.95336">
        <ele>151.028</ele>
        <time>2020-05-27T18:25:50Z</time>
      </trkpt>
      <trkpt lat="46.98902" lon="-0.95333">
        <ele>151.122</ele>
        <time>2020-05-27T18:25:51Z</time>
      </trkpt>
      <trkpt lat="46.98903" lon="-0.9533">
        <ele>152.006</ele>
        <time>2020-05-27T18:25:52Z</time>
      </trkpt>
      <trkpt lat="46.98905" lon="-0.95327">
        <ele>152.412</ele>
        <time>2020-05-27T18:25:53Z</time>
      </trkpt>
      <trkpt lat="46.98907" lon="-0.95325">
        <ele>152.842</ele>
        <time>2020-05-27T18:25:54Z</time>
      </trkpt>
      <trkpt lat="46.98909" lon="-0.95323">
        <ele>153.202</ele>
        <time>2020-05-27T18:25:55Z</time>
      </trkpt>
      <trkpt lat="46.98912" lon="-0.95322">
        <ele>152.976</ele>
        <time>2020-05-27T18:25:56Z</time>
      </trkpt>
      <trkpt lat="46.98914" lon="-0.95321">
        <ele>152.904</ele>
        <time>2020-05-27T18:25:57Z</time>
      </trkpt>
      <trkpt lat="46.98917" lon="-0.95319">
        <ele>153.192</ele>
        <time>2020-05-27T18:25:58Z</time>
      </trkpt>
      <trkpt lat="46.98919" lon="-0.95318">
        <ele>153.069</ele>
        <time>2020-05-27T18:25:59Z</time>
      </trkpt>
      <trkpt lat="46.98922" lon="-0.95317">
        <ele>153.35</ele>
        <time>2020-05-27T18:26:00Z</time>
      </trkpt>
      <trkpt lat="46.98925" lon="-0.95316">
        <ele>152.905</ele>
        <time>2020-05-27T18:26:01Z</time>
      </trkpt>
      <trkpt lat="46.98927" lon="-0.95315">
        <ele>153.269</ele>
        <time>2020-05-27T18:26:02Z</time>
      </trkpt>
      <trkpt lat="46.9893" lon="-0.95313">
        <ele>153.368</ele>
        <time>2020-05-27T18:26:03Z</time>
      </trkpt>
      <trkpt lat="46.98932" lon="-0.95313">
        <ele>154.238</ele>
        <time>2020-05-27T18:26:04Z</time>
      </trkpt>
      <trkpt lat="46.98935" lon="-0.95312">
        <ele>153.985</ele>
        <time>2020-05-27T18:26:05Z</time>
      </trkpt>
      <trkpt lat="46.98937" lon="-0.95311">
        <ele>154.189</ele>
        <time>2020-05-27T18:26:06Z</time>
      </trkpt>
      <trkpt lat="46.98939" lon="-0.9531">
        <ele>154.174</ele>
        <time>2020-05-27T18:26:07Z</time>
      </trkpt>
      <trkpt lat="46.98942" lon="-0.95309">
        <ele>155.113</ele>
        <time>2020-05-27T18:26:08Z</time>
      </trkpt>
      <trkpt lat="46.98944" lon="-0.95308">
        <ele>155.101</ele>
        <time>2020-05-27T18:26:09Z</time>
      </trkpt>
      <trkpt lat="46.98946" lon="-0.95307">
        <ele>155.627</ele>
        <time>2020-05-27T18:26:10Z</time>
      </trkpt>
      <trkpt lat="46.98949" lon="-0.95306">
        <ele>156.112</ele>
        <time>2020-05-27T18:26:11Z</time>
      </trkpt>
      <trkpt lat="46.98952" lon="-0.95305">
        <ele>156.16</ele>
        <time>2020-05-27T18:26:12Z</time>
      </trkpt>
      <trkpt lat="46.98954" lon="-0.95305">
        <ele>155.799</ele>
        <time>2020-05-27T18:26:13Z</time>
      </trkpt>
      <trkpt lat="46.98957" lon="-0.95304">
        <ele>155.968</ele>
        <time>2020-05-27T18:26:14Z</time>
      </trkpt>
      <trkpt lat="46.9896" lon="-0.95304">
        <ele>155.951</ele>
        <time>2020-05-27T18:26:15Z</time>
      </trkpt>
      <trkpt lat="46.98963" lon="-0.95303">
        <ele>156.68</ele>
        <time>2020-05-27T18:26:16Z</time>
      </trkpt>
      <trkpt lat="46.98966" lon="-0.95303">
        <ele>157.105</ele>
        <time>2020-05-27T18:26:17Z</time>
      </trkpt>
      <trkpt lat="46.9897" lon="-0.95304">
        <ele>156.644</ele>
        <time>2020-05-27T18:26:18Z</time>
      </trkpt>
      <trkpt lat="46.98973" lon="-0.95304">
        <ele>156.338</ele>
        <time>2020-05-27T18:26:19Z</time>
      </trkpt>
      <trkpt lat="46.98976" lon="-0.95304">
        <ele>156.167</ele>
        <time>2020-05-27T18:26:20Z</time>
      </trkpt>
      <trkpt lat="46.9898" lon="-0.95305">
        <ele>156.283</ele>
        <time>2020-05-27T18:26:21Z</time>
      </trkpt>
      <trkpt lat="46.98983" lon="-0.95305">
        <ele>156.356</ele>
        <time>2020-05-27T18:26:22Z</time>
      </trkpt>
      <trkpt lat="46.98986" lon="-0.95305">
        <ele>155.249</ele>
        <time>2020-05-27T18:26:23Z</time>
      </trkpt>
      <trkpt lat="46.98989" lon="-0.95305">
        <ele>155.386</ele>
        <time>2020-05-27T18:26:24Z</time>
      </trkpt>
      <trkpt lat="46.98992" lon="-0.95306">
        <ele>154.806</ele>
        <time>2020-05-27T18:26:25Z</time>
      </trkpt>
      <trkpt lat="46.98994" lon="-0.95306">
        <ele>154.38</ele>
        <time>2020-05-27T18:26:26Z</time>
      </trkpt>
      <trkpt lat="46.98997" lon="-0.95306">
        <ele>154.988</ele>
        <time>2020-05-27T18:26:27Z</time>
      </trkpt>
      <trkpt lat="46.99" lon="-0.95307">
        <ele>155.649</ele>
        <time>2020-05-27T18:26:28Z</time>
      </trkpt>
      <trkpt lat="46.99002" lon="-0.95307">
        <ele>155.276</ele>
        <time>2020-05-27T18:26:29Z</time>
      </trkpt>
      <trkpt lat="46.99004" lon="-0.95307">
        <ele>153.772</ele>
        <time>2020-05-27T18:26:30Z</time>
      </trkpt>
      <trkpt lat="46.99005" lon="-0.95307">
        <ele>154.198</ele>
        <time>2020-05-27T18:26:31Z</time>
      </trkpt>
      <trkpt lat="46.99005" lon="-0.95307">
        <ele>153.936</ele>
        <time>2020-05-27T18:26:32Z</time>
      </trkpt>
      <trkpt lat="46.99005" lon="-0.95306">
        <ele>153.43</ele>
        <time>2020-05-27T18:26:33Z</time>
      </trkpt>
      <trkpt lat="46.99005" lon="-0.95306">
        <ele>153.657</ele>
        <time>2020-05-27T18:26:34Z</time>
      </trkpt>
      <trkpt lat="46.99004" lon="-0.95306">
        <ele>153.378</ele>
        <time>2020-05-27T18:26:35Z</time>
      </trkpt>
      <trkpt lat="46.99004" lon="-0.95305">
        <ele>153.271</ele>
        <time>2020-05-27T18:26:36Z</time>
      </trkpt>
      <trkpt lat="46.99004" lon="-0.95305">
        <ele>153.439</ele>
        <time>2020-05-27T18:26:37Z</time>
      </trkpt>
      <trkpt lat="46.99004" lon="-0.95305">
        <ele>153.636</ele>
        <time>2020-05-27T18:26:38Z</time>
      </trkpt>
      <trkpt lat="46.99003" lon="-0.95305">
        <ele>153.659</ele>
        <time>2020-05-27T18:26:39Z</time>
      </trkpt>
      <trkpt lat="46.99003" lon="-0.95305">
        <ele>153.42</ele>
        <time>2020-05-27T18:26:40Z</time>
      </trkpt>
      <trkpt lat="46.99003" lon="-0.95305">
        <ele>153.765</ele>
        <time>2020-05-27T18:26:41Z</time>
      </trkpt>
      <trkpt lat="46.99003" lon="-0.95305">
        <ele>153.643</ele>
        <time>2020-05-27T18:26:42Z</time>
      </trkpt>
      <trkpt lat="46.99003" lon="-0.95305">
        <ele>153.864</ele>
        <time>2020-05-27T18:26:43Z</time>
      </trkpt>
      <trkpt lat="46.99003" lon="-0.95305">
        <ele>153.927</ele>
        <time>2020-05-27T18:26:44Z</time>
      </trkpt>
      <trkpt lat="46.99004" lon="-0.95305">
        <ele>153.994</ele>
        <time>2020-05-27T18:26:45Z</time>
      </trkpt>
      <trkpt lat="46.99006" lon="-0.95305">
        <ele>154.719</ele>
        <time>2020-05-27T18:26:46Z</time>
      </trkpt>
      <trkpt lat="46.99008" lon="-0.95306">
        <ele>154.24</ele>
        <time>2020-05-27T18:26:47Z</time>
      </trkpt>
      <trkpt lat="46.99011" lon="-0.95306">
        <ele>154.017</ele>
        <time>2020-05-27T18:26:48Z</time>
      </trkpt>
      <trkpt lat="46.99014" lon="-0.95305">
        <ele>155.995</ele>
        <time>2020-05-27T18:26:49Z</time>
      </trkpt>
      <trkpt lat="46.99017" lon="-0.95305">
        <ele>155.855</ele>
        <time>2020-05-27T18:26:50Z</time>
      </trkpt>
      <trkpt lat="46.99019" lon="-0.95304">
        <ele>156.88</ele>
        <time>2020-05-27T18:26:51Z</time>
      </trkpt>
      <trkpt lat="46.99022" lon="-0.95303">
        <ele>157.037</ele>
        <time>2020-05-27T18:26:52Z</time>
      </trkpt>
      <trkpt lat="46.99025" lon="-0.95301">
        <ele>158.22</ele>
        <time>2020-05-27T18:26:53Z</time>
      </trkpt>
      <trkpt lat="46.99028" lon="-0.953">
        <ele>157.956</ele>
        <time>2020-05-27T18:26:54Z</time>
      </trkpt>
      <trkpt lat="46.9903" lon="-0.95299">
        <ele>159.135</ele>
        <time>2020-05-27T18:26:55Z</time>
      </trkpt>
      <trkpt lat="46.99033" lon="-0.95297">
        <ele>160.091</ele>
        <time>2020-05-27T18:26:56Z</time>
      </trkpt>
      <trkpt lat="46.99035" lon="-0.95295">
        <ele>160.281</ele>
        <time>2020-05-27T18:26:57Z</time>
      </trkpt>
      <trkpt lat="46.99038" lon="-0.95293">
        <ele>160.307</ele>
        <time>2020-05-27T18:26:58Z</time>
      </trkpt>
      <trkpt lat="46.9904" lon="-0.95291">
        <ele>160.014</ele>
        <time>2020-05-27T18:26:59Z</time>
      </trkpt>
      <trkpt lat="46.99043" lon="-0.95288">
        <ele>159.793</ele>
        <time>2020-05-27T18:27:00Z</time>
      </trkpt>
      <trkpt lat="46.99046" lon="-0.95286">
        <ele>159.989</ele>
        <time>2020-05-27T18:27:01Z</time>
      </trkpt>
      <trkpt lat="46.99048" lon="-0.95283">
        <ele>158.505</ele>
        <time>2020-05-27T18:27:02Z</time>
      </trkpt>
      <trkpt lat="46.99051" lon="-0.9528">
        <ele>159.944</ele>
        <time>2020-05-27T18:27:03Z</time>
      </trkpt>
      <trkpt lat="46.99053" lon="-0.95277">
        <ele>160.052</ele>
        <time>2020-05-27T18:27:04Z</time>
      </trkpt>
      <trkpt lat="46.99056" lon="-0.95274">
        <ele>160.927</ele>
        <time>2020-05-27T18:27:05Z</time>
      </trkpt>
      <trkpt lat="46.99058" lon="-0.95272">
        <ele>161.803</ele>
        <time>2020-05-27T18:27:06Z</time>
      </trkpt>
      <trkpt lat="46.99061" lon="-0.9527">
        <ele>161.468</ele>
        <time>2020-05-27T18:27:07Z</time>
      </trkpt>
      <trkpt lat="46.99064" lon="-0.95269">
        <ele>160.97</ele>
        <time>2020-05-27T18:27:08Z</time>
      </trkpt>
      <trkpt lat="46.99067" lon="-0.95269">
        <ele>159.535</ele>
        <time>2020-05-27T18:27:09Z</time>
      </trkpt>
      <trkpt lat="46.9907" lon="-0.95268">
        <ele>159.297</ele>
        <time>2020-05-27T18:27:10Z</time>
      </trkpt>
      <trkpt lat="46.99073" lon="-0.95267">
        <ele>159.937</ele>
        <time>2020-05-27T18:27:11Z</time>
      </trkpt>
      <trkpt lat="46.99077" lon="-0.95266">
        <ele>159.467</ele>
        <time>2020-05-27T18:27:12Z</time>
      </trkpt>
      <trkpt lat="46.9908" lon="-0.95264">
        <ele>159.391</ele>
        <time>2020-05-27T18:27:13Z</time>
      </trkpt>
      <trkpt lat="46.99083" lon="-0.95261">
        <ele>159.736</ele>
        <time>2020-05-27T18:27:14Z</time>
      </trkpt>
      <trkpt lat="46.99087" lon="-0.95259">
        <ele>159.472</ele>
        <time>2020-05-27T18:27:15Z</time>
      </trkpt>
      <trkpt lat="46.9909" lon="-0.95256">
        <ele>159.425</ele>
        <time>2020-05-27T18:27:16Z</time>
      </trkpt>
      <trkpt lat="46.99093" lon="-0.95254">
        <ele>159.009</ele>
        <time>2020-05-27T18:27:17Z</time>
      </trkpt>
      <trkpt lat="46.99096" lon="-0.95252">
        <ele>158.506</ele>
        <time>2020-05-27T18:27:18Z</time>
      </trkpt>
      <trkpt lat="46.99099" lon="-0.9525">
        <ele>158.803</ele>
        <time>2020-05-27T18:27:19Z</time>
      </trkpt>
      <trkpt lat="46.99102" lon="-0.95247">
        <ele>158.711</ele>
        <time>2020-05-27T18:27:20Z</time>
      </trkpt>
      <trkpt lat="46.99106" lon="-0.95245">
        <ele>158.347</ele>
        <time>2020-05-27T18:27:21Z</time>
      </trkpt>
      <trkpt lat="46.99109" lon="-0.95243">
        <ele>158.975</ele>
        <time>2020-05-27T18:27:22Z</time>
      </trkpt>
      <trkpt lat="46.99111" lon="-0.9524">
        <ele>159.595</ele>
        <time>2020-05-27T18:27:23Z</time>
      </trkpt>
      <trkpt lat="46.99114" lon="-0.95239">
        <ele>159.603</ele>
        <time>2020-05-27T18:27:24Z</time>
      </trkpt>
      <trkpt lat="46.99117" lon="-0.95237">
        <ele>159.438</ele>
        <time>2020-05-27T18:27:25Z</time>
      </trkpt>
      <trkpt lat="46.9912" lon="-0.95235">
        <ele>159.47</ele>
        <time>2020-05-27T18:27:26Z</time>
      </trkpt>
      <trkpt lat="46.99123" lon="-0.95233">
        <ele>159.098</ele>
        <time>2020-05-27T18:27:27Z</time>
      </trkpt>
      <trkpt lat="46.99126" lon="-0.95231">
        <ele>159.481</ele>
        <time>2020-05-27T18:27:28Z</time>
      </trkpt>
      <trkpt lat="46.9913" lon="-0.95229">
        <ele>159.413</ele>
        <time>2020-05-27T18:27:29Z</time>
      </trkpt>
      <trkpt lat="46.99133" lon="-0.95226">
        <ele>159.262</ele>
        <time>2020-05-27T18:27:30Z</time>
      </trkpt>
      <trkpt lat="46.99137" lon="-0.95223">
        <ele>159.539</ele>
        <time>2020-05-27T18:27:31Z</time>
      </trkpt>
      <trkpt lat="46.9914" lon="-0.95221">
        <ele>160.31</ele>
        <time>2020-05-27T18:27:32Z</time>
      </trkpt>
      <trkpt lat="46.99144" lon="-0.95219">
        <ele>159.696</ele>
        <time>2020-05-27T18:27:33Z</time>
      </trkpt>
      <trkpt lat="46.99147" lon="-0.95217">
        <ele>160.192</ele>
        <time>2020-05-27T18:27:34Z</time>
      </trkpt>
      <trkpt lat="46.99151" lon="-0.95216">
        <ele>160.268</ele>
        <time>2020-05-27T18:27:35Z</time>
      </trkpt>
      <trkpt lat="46.99155" lon="-0.95216">
        <ele>160.432</ele>
        <time>2020-05-27T18:27:36Z</time>
      </trkpt>
      <trkpt lat="46.99159" lon="-0.95218">
        <ele>159.686</ele>
        <time>2020-05-27T18:27:37Z</time>
      </trkpt>
      <trkpt lat="46.99162" lon="-0.95221">
        <ele>158.695</ele>
        <time>2020-05-27T18:27:38Z</time>
      </trkpt>
      <trkpt lat="46.99164" lon="-0.95224">
        <ele>157.434</ele>
        <time>2020-05-27T18:27:39Z</time>
      </trkpt>
      <trkpt lat="46.99167" lon="-0.95229">
        <ele>157.068</ele>
        <time>2020-05-27T18:27:40Z</time>
      </trkpt>
      <trkpt lat="46.9917" lon="-0.95233">
        <ele>157.433</ele>
        <time>2020-05-27T18:27:41Z</time>
      </trkpt>
      <trkpt lat="46.99174" lon="-0.95238">
        <ele>156.782</ele>
        <time>2020-05-27T18:27:42Z</time>
      </trkpt>
      <trkpt lat="46.99178" lon="-0.95243">
        <ele>156.804</ele>
        <time>2020-05-27T18:27:43Z</time>
      </trkpt>
      <trkpt lat="46.9918" lon="-0.95248">
        <ele>156.761</ele>
        <time>2020-05-27T18:27:44Z</time>
      </trkpt>
      <trkpt lat="46.99184" lon="-0.95253">
        <ele>156.742</ele>
        <time>2020-05-27T18:27:45Z</time>
      </trkpt>
      <trkpt lat="46.99188" lon="-0.95259">
        <ele>156.255</ele>
        <time>2020-05-27T18:27:46Z</time>
      </trkpt>
      <trkpt lat="46.99191" lon="-0.95265">
        <ele>156.203</ele>
        <time>2020-05-27T18:27:47Z</time>
      </trkpt>
      <trkpt lat="46.99195" lon="-0.9527">
        <ele>156.641</ele>
        <time>2020-05-27T18:27:48Z</time>
      </trkpt>
      <trkpt lat="46.99198" lon="-0.95274">
        <ele>157.258</ele>
        <time>2020-05-27T18:27:49Z</time>
      </trkpt>
      <trkpt lat="46.99201" lon="-0.95279">
        <ele>159.173</ele>
        <time>2020-05-27T18:27:50Z</time>
      </trkpt>
      <trkpt lat="46.99204" lon="-0.95282">
        <ele>159.232</ele>
        <time>2020-05-27T18:27:51Z</time>
      </trkpt>
      <trkpt lat="46.99208" lon="-0.95285">
        <ele>159.443</ele>
        <time>2020-05-27T18:27:52Z</time>
      </trkpt>
      <trkpt lat="46.99211" lon="-0.95285">
        <ele>159.57</ele>
        <time>2020-05-27T18:27:53Z</time>
      </trkpt>
      <trkpt lat="46.99215" lon="-0.95284">
        <ele>159.445</ele>
        <time>2020-05-27T18:27:54Z</time>
      </trkpt>
      <trkpt lat="46.99218" lon="-0.95283">
        <ele>160.099</ele>
        <time>2020-05-27T18:27:55Z</time>
      </trkpt>
      <trkpt lat="46.99221" lon="-0.95277">
        <ele>159.894</ele>
        <time>2020-05-27T18:27:56Z</time>
      </trkpt>
      <trkpt lat="46.99224" lon="-0.95272">
        <ele>160.378</ele>
        <time>2020-05-27T18:27:57Z</time>
      </trkpt>
      <trkpt lat="46.99226" lon="-0.95268">
        <ele>160.523</ele>
        <time>2020-05-27T18:27:58Z</time>
      </trkpt>
      <trkpt lat="46.99229" lon="-0.95264">
        <ele>160.75</ele>
        <time>2020-05-27T18:27:59Z</time>
      </trkpt>
      <trkpt lat="46.99232" lon="-0.95259">
        <ele>161.47</ele>
        <time>2020-05-27T18:28:00Z</time>
      </trkpt>
      <trkpt lat="46.99235" lon="-0.95254">
        <ele>161.756</ele>
        <time>2020-05-27T18:28:01Z</time>
      </trkpt>
      <trkpt lat="46.99239" lon="-0.95248">
        <ele>162.002</ele>
        <time>2020-05-27T18:28:02Z</time>
      </trkpt>
      <trkpt lat="46.99241" lon="-0.95243">
        <ele>162.075</ele>
        <time>2020-05-27T18:28:03Z</time>
      </trkpt>
      <trkpt lat="46.99245" lon="-0.95238">
        <ele>161.699</ele>
        <time>2020-05-27T18:28:04Z</time>
      </trkpt>
      <trkpt lat="46.99248" lon="-0.95234">
        <ele>161.909</ele>
        <time>2020-05-27T18:28:05Z</time>
      </trkpt>
      <trkpt lat="46.99251" lon="-0.95229">
        <ele>162.807</ele>
        <time>2020-05-27T18:28:06Z</time>
      </trkpt>
      <trkpt lat="46.99255" lon="-0.95225">
        <ele>162.9</ele>
        <time>2020-05-27T18:28:07Z</time>
      </trkpt>
      <trkpt lat="46.99259" lon="-0.95221">
        <ele>163.083</ele>
        <time>2020-05-27T18:28:08Z</time>
      </trkpt>
      <trkpt lat="46.99262" lon="-0.95218">
        <ele>163.37</ele>
        <time>2020-05-27T18:28:09Z</time>
      </trkpt>
      <trkpt lat="46.99266" lon="-0.95215">
        <ele>163.807</ele>
        <time>2020-05-27T18:28:10Z</time>
      </trkpt>
      <trkpt lat="46.99269" lon="-0.95211">
        <ele>164.209</ele>
        <time>2020-05-27T18:28:11Z</time>
      </trkpt>
      <trkpt lat="46.99272" lon="-0.95208">
        <ele>164.512</ele>
        <time>2020-05-27T18:28:12Z</time>
      </trkpt>
      <trkpt lat="46.99275" lon="-0.95205">
        <ele>165.16</ele>
        <time>2020-05-27T18:28:13Z</time>
      </trkpt>
      <trkpt lat="46.99277" lon="-0.95202">
        <ele>165.566</ele>
        <time>2020-05-27T18:28:14Z</time>
      </trkpt>
      <trkpt lat="46.99281" lon="-0.95201">
        <ele>164.883</ele>
        <time>2020-05-27T18:28:15Z</time>
      </trkpt>
      <trkpt lat="46.99284" lon="-0.95199">
        <ele>164.81</ele>
        <time>2020-05-27T18:28:16Z</time>
      </trkpt>
      <trkpt lat="46.99287" lon="-0.95197">
        <ele>164.233</ele>
        <time>2020-05-27T18:28:17Z</time>
      </trkpt>
      <trkpt lat="46.99289" lon="-0.95197">
        <ele>162.803</ele>
        <time>2020-05-27T18:28:18Z</time>
      </trkpt>
      <trkpt lat="46.99292" lon="-0.952">
        <ele>161.456</ele>
        <time>2020-05-27T18:28:19Z</time>
      </trkpt>
      <trkpt lat="46.99293" lon="-0.95204">
        <ele>161.015</ele>
        <time>2020-05-27T18:28:20Z</time>
      </trkpt>
      <trkpt lat="46.99294" lon="-0.95209">
        <ele>161.828</ele>
        <time>2020-05-27T18:28:21Z</time>
      </trkpt>
      <trkpt lat="46.99294" lon="-0.95215">
        <ele>161.326</ele>
        <time>2020-05-27T18:28:22Z</time>
      </trkpt>
      <trkpt lat="46.99294" lon="-0.95221">
        <ele>162.067</ele>
        <time>2020-05-27T18:28:23Z</time>
      </trkpt>
      <trkpt lat="46.99293" lon="-0.95228">
        <ele>163.214</ele>
        <time>2020-05-27T18:28:24Z</time>
      </trkpt>
      <trkpt lat="46.99293" lon="-0.95235">
        <ele>161.495</ele>
        <time>2020-05-27T18:28:25Z</time>
      </trkpt>
      <trkpt lat="46.99293" lon="-0.95242">
        <ele>162.65</ele>
        <time>2020-05-27T18:28:26Z</time>
      </trkpt>
      <trkpt lat="46.99293" lon="-0.95248">
        <ele>163.028</ele>
        <time>2020-05-27T18:28:27Z</time>
      </trkpt>
      <trkpt lat="46.99292" lon="-0.95255">
        <ele>163.632</ele>
        <time>2020-05-27T18:28:28Z</time>
      </trkpt>
      <trkpt lat="46.99293" lon="-0.95261">
        <ele>163.055</ele>
        <time>2020-05-27T18:28:29Z</time>
      </trkpt>
      <trkpt lat="46.99292" lon="-0.95268">
        <ele>163.87</ele>
        <time>2020-05-27T18:28:30Z</time>
      </trkpt>
      <trkpt lat="46.99292" lon="-0.95275">
        <ele>164.673</ele>
        <time>2020-05-27T18:28:31Z</time>
      </trkpt>
      <trkpt lat="46.99292" lon="-0.95281">
        <ele>165.075</ele>
        <time>2020-05-27T18:28:32Z</time>
      </trkpt>
      <trkpt lat="46.99292" lon="-0.95287">
        <ele>165.315</ele>
        <time>2020-05-27T18:28:33Z</time>
      </trkpt>
      <trkpt lat="46.99292" lon="-0.95293">
        <ele>164.847</ele>
        <time>2020-05-27T18:28:34Z</time>
      </trkpt>
      <trkpt lat="46.99292" lon="-0.953">
        <ele>165.169</ele>
        <time>2020-05-27T18:28:35Z</time>
      </trkpt>
      <trkpt lat="46.99292" lon="-0.95306">
        <ele>165.022</ele>
        <time>2020-05-27T18:28:36Z</time>
      </trkpt>
      <trkpt lat="46.99292" lon="-0.95312">
        <ele>164.922</ele>
        <time>2020-05-27T18:28:37Z</time>
      </trkpt>
      <trkpt lat="46.99292" lon="-0.95318">
        <ele>164.39</ele>
        <time>2020-05-27T18:28:38Z</time>
      </trkpt>
      <trkpt lat="46.99292" lon="-0.95324">
        <ele>164.361</ele>
        <time>2020-05-27T18:28:39Z</time>
      </trkpt>
      <trkpt lat="46.99292" lon="-0.95331">
        <ele>163.725</ele>
        <time>2020-05-27T18:28:40Z</time>
      </trkpt>
      <trkpt lat="46.99292" lon="-0.95337">
        <ele>163.788</ele>
        <time>2020-05-27T18:28:41Z</time>
      </trkpt>
      <trkpt lat="46.99292" lon="-0.95342">
        <ele>163.92</ele>
        <time>2020-05-27T18:28:42Z</time>
      </trkpt>
      <trkpt lat="46.99292" lon="-0.95348">
        <ele>164.449</ele>
        <time>2020-05-27T18:28:43Z</time>
      </trkpt>
      <trkpt lat="46.99292" lon="-0.95353">
        <ele>163.469</ele>
        <time>2020-05-27T18:28:44Z</time>
      </trkpt>
      <trkpt lat="46.99292" lon="-0.95358">
        <ele>164.357</ele>
        <time>2020-05-27T18:28:45Z</time>
      </trkpt>
      <trkpt lat="46.99292" lon="-0.95364">
        <ele>164.326</ele>
        <time>2020-05-27T18:28:46Z</time>
      </trkpt>
      <trkpt lat="46.99292" lon="-0.95369">
        <ele>163.349</ele>
        <time>2020-05-27T18:28:47Z</time>
      </trkpt>
      <trkpt lat="46.99292" lon="-0.95375">
        <ele>163.848</ele>
        <time>2020-05-27T18:28:48Z</time>
      </trkpt>
      <trkpt lat="46.99291" lon="-0.95381">
        <ele>164.537</ele>
        <time>2020-05-27T18:28:49Z</time>
      </trkpt>
      <trkpt lat="46.99292" lon="-0.95387">
        <ele>164.628</ele>
        <time>2020-05-27T18:28:50Z</time>
      </trkpt>
      <trkpt lat="46.99292" lon="-0.95394">
        <ele>165.053</ele>
        <time>2020-05-27T18:28:51Z</time>
      </trkpt>
      <trkpt lat="46.99293" lon="-0.95402">
        <ele>164.728</ele>
        <time>2020-05-27T18:28:52Z</time>
      </trkpt>
      <trkpt lat="46.99293" lon="-0.95409">
        <ele>164.326</ele>
        <time>2020-05-27T18:28:53Z</time>
      </trkpt>
      <trkpt lat="46.99293" lon="-0.95417">
        <ele>164.032</ele>
        <time>2020-05-27T18:28:54Z</time>
      </trkpt>
      <trkpt lat="46.99294" lon="-0.95423">
        <ele>163.296</ele>
        <time>2020-05-27T18:28:55Z</time>
      </trkpt>
      <trkpt lat="46.99296" lon="-0.9543">
        <ele>163.098</ele>
        <time>2020-05-27T18:28:56Z</time>
      </trkpt>
      <trkpt lat="46.99297" lon="-0.95438">
        <ele>162.636</ele>
        <time>2020-05-27T18:28:57Z</time>
      </trkpt>
      <trkpt lat="46.993" lon="-0.95445">
        <ele>162.435</ele>
        <time>2020-05-27T18:28:58Z</time>
      </trkpt>
      <trkpt lat="46.99302" lon="-0.95454">
        <ele>161.889</ele>
        <time>2020-05-27T18:28:59Z</time>
      </trkpt>
      <trkpt lat="46.99305" lon="-0.95461">
        <ele>161.526</ele>
        <time>2020-05-27T18:29:00Z</time>
      </trkpt>
      <trkpt lat="46.99307" lon="-0.9547">
        <ele>161.452</ele>
        <time>2020-05-27T18:29:01Z</time>
      </trkpt>
      <trkpt lat="46.99309" lon="-0.95478">
        <ele>160.304</ele>
        <time>2020-05-27T18:29:02Z</time>
      </trkpt>
      <trkpt lat="46.99311" lon="-0.95487">
        <ele>159.068</ele>
        <time>2020-05-27T18:29:03Z</time>
      </trkpt>
      <trkpt lat="46.99315" lon="-0.95497">
        <ele>158.931</ele>
        <time>2020-05-27T18:29:04Z</time>
      </trkpt>
      <trkpt lat="46.99318" lon="-0.95508">
        <ele>158.09</ele>
        <time>2020-05-27T18:29:05Z</time>
      </trkpt>
      <trkpt lat="46.99321" lon="-0.95518">
        <ele>157.779</ele>
        <time>2020-05-27T18:29:06Z</time>
      </trkpt>
      <trkpt lat="46.99325" lon="-0.95527">
        <ele>156.166</ele>
        <time>2020-05-27T18:29:07Z</time>
      </trkpt>
      <trkpt lat="46.99328" lon="-0.95538">
        <ele>155.984</ele>
        <time>2020-05-27T18:29:08Z</time>
      </trkpt>
      <trkpt lat="46.99331" lon="-0.95549">
        <ele>155.629</ele>
        <time>2020-05-27T18:29:09Z</time>
      </trkpt>
      <trkpt lat="46.99333" lon="-0.95558">
        <ele>155.283</ele>
        <time>2020-05-27T18:29:10Z</time>
      </trkpt>
      <trkpt lat="46.99336" lon="-0.95566">
        <ele>155.221</ele>
        <time>2020-05-27T18:29:11Z</time>
      </trkpt>
      <trkpt lat="46.99338" lon="-0.95575">
        <ele>155.108</ele>
        <time>2020-05-27T18:29:12Z</time>
      </trkpt>
      <trkpt lat="46.99341" lon="-0.95584">
        <ele>154.686</ele>
        <time>2020-05-27T18:29:13Z</time>
      </trkpt>
      <trkpt lat="46.99343" lon="-0.9559">
        <ele>154.308</ele>
        <time>2020-05-27T18:29:14Z</time>
      </trkpt>
      <trkpt lat="46.99344" lon="-0.95595">
        <ele>153.584</ele>
        <time>2020-05-27T18:29:15Z</time>
      </trkpt>
      <trkpt lat="46.99345" lon="-0.95597">
        <ele>153.342</ele>
        <time>2020-05-27T18:29:16Z</time>
      </trkpt>
      <trkpt lat="46.99345" lon="-0.95597">
        <ele>153.593</ele>
        <time>2020-05-27T18:29:17Z</time>
      </trkpt>
      <trkpt lat="46.99345" lon="-0.95597">
        <ele>153.488</ele>
        <time>2020-05-27T18:29:18Z</time>
      </trkpt>
      <trkpt lat="46.99345" lon="-0.95597">
        <ele>152.981</ele>
        <time>2020-05-27T18:29:19Z</time>
      </trkpt>
      <trkpt lat="46.99345" lon="-0.95597">
        <ele>153.077</ele>
        <time>2020-05-27T18:29:20Z</time>
      </trkpt>
      <trkpt lat="46.99345" lon="-0.95598">
        <ele>153.227</ele>
        <time>2020-05-27T18:29:21Z</time>
      </trkpt>
      <trkpt lat="46.99345" lon="-0.95598">
        <ele>153.174</ele>
        <time>2020-05-27T18:29:22Z</time>
      </trkpt>
      <trkpt lat="46.99345" lon="-0.95598">
        <ele>153.583</ele>
        <time>2020-05-27T18:29:23Z</time>
      </trkpt>
      <trkpt lat="46.99345" lon="-0.95599">
        <ele>153.07</ele>
        <time>2020-05-27T18:29:24Z</time>
      </trkpt>
      <trkpt lat="46.99345" lon="-0.95599">
        <ele>153.301</ele>
        <time>2020-05-27T18:29:25Z</time>
      </trkpt>
      <trkpt lat="46.99345" lon="-0.95599">
        <ele>153.515</ele>
        <time>2020-05-27T18:29:26Z</time>
      </trkpt>
      <trkpt lat="46.99345" lon="-0.95599">
        <ele>153.458</ele>
        <time>2020-05-27T18:29:27Z</time>
      </trkpt>
      <trkpt lat="46.99345" lon="-0.95599">
        <ele>153.405</ele>
        <time>2020-05-27T18:29:28Z</time>
      </trkpt>
      <trkpt lat="46.99345" lon="-0.95599">
        <ele>153.41</ele>
        <time>2020-05-27T18:29:29Z</time>
      </trkpt>
      <trkpt lat="46.99345" lon="-0.95599">
        <ele>153.394</ele>
        <time>2020-05-27T18:29:30Z</time>
      </trkpt>
      <trkpt lat="46.99345" lon="-0.95599">
        <ele>153.621</ele>
        <time>2020-05-27T18:29:31Z</time>
      </trkpt>
      <trkpt lat="46.99345" lon="-0.95599">
        <ele>153.551</ele>
        <time>2020-05-27T18:29:32Z</time>
      </trkpt>
      <trkpt lat="46.99345" lon="-0.95599">
        <ele>153.51</ele>
        <time>2020-05-27T18:29:33Z</time>
      </trkpt>
      <trkpt lat="46.99345" lon="-0.95599">
        <ele>153.481</ele>
        <time>2020-05-27T18:29:34Z</time>
      </trkpt>
      <trkpt lat="46.99346" lon="-0.956">
        <ele>153.385</ele>
        <time>2020-05-27T18:29:35Z</time>
      </trkpt>
      <trkpt lat="46.99346" lon="-0.95602">
        <ele>153.642</ele>
        <time>2020-05-27T18:29:36Z</time>
      </trkpt>
      <trkpt lat="46.99348" lon="-0.95604">
        <ele>153.069</ele>
        <time>2020-05-27T18:29:37Z</time>
      </trkpt>
      <trkpt lat="46.99349" lon="-0.95605">
        <ele>151.93</ele>
        <time>2020-05-27T18:29:38Z</time>
      </trkpt>
      <trkpt lat="46.99351" lon="-0.95605">
        <ele>151.387</ele>
        <time>2020-05-27T18:29:39Z</time>
      </trkpt>
      <trkpt lat="46.99355" lon="-0.95607">
        <ele>149.828</ele>
        <time>2020-05-27T18:29:40Z</time>
      </trkpt>
      <trkpt lat="46.99358" lon="-0.95608">
        <ele>149.05</ele>
        <time>2020-05-27T18:29:41Z</time>
      </trkpt>
      <trkpt lat="46.99363" lon="-0.95608">
        <ele>149.313</ele>
        <time>2020-05-27T18:29:42Z</time>
      </trkpt>
      <trkpt lat="46.99367" lon="-0.95608">
        <ele>149.117</ele>
        <time>2020-05-27T18:29:43Z</time>
      </trkpt>
      <trkpt lat="46.99372" lon="-0.95607">
        <ele>149.895</ele>
        <time>2020-05-27T18:29:44Z</time>
      </trkpt>
      <trkpt lat="46.99377" lon="-0.95605">
        <ele>151.392</ele>
        <time>2020-05-27T18:29:45Z</time>
      </trkpt>
      <trkpt lat="46.99382" lon="-0.95602">
        <ele>151.813</ele>
        <time>2020-05-27T18:29:46Z</time>
      </trkpt>
      <trkpt lat="46.99387" lon="-0.95598">
        <ele>150.83</ele>
        <time>2020-05-27T18:29:47Z</time>
      </trkpt>
      <trkpt lat="46.9939" lon="-0.95598">
        <ele>150.725</ele>
        <time>2020-05-27T18:29:48Z</time>
      </trkpt>
      <trkpt lat="46.99393" lon="-0.95598">
        <ele>150.711</ele>
        <time>2020-05-27T18:29:49Z</time>
      </trkpt>
      <trkpt lat="46.99396" lon="-0.95599">
        <ele>150.81</ele>
        <time>2020-05-27T18:29:50Z</time>
      </trkpt>
      <trkpt lat="46.99395" lon="-0.95603">
        <ele>149.152</ele>
        <time>2020-05-27T18:29:51Z</time>
      </trkpt>
      <trkpt lat="46.99396" lon="-0.95609">
        <ele>150.085</ele>
        <time>2020-05-27T18:29:52Z</time>
      </trkpt>
      <trkpt lat="46.99396" lon="-0.95613">
        <ele>149.26</ele>
        <time>2020-05-27T18:29:53Z</time>
      </trkpt>
      <trkpt lat="46.99397" lon="-0.95619">
        <ele>148.693</ele>
        <time>2020-05-27T18:29:54Z</time>
      </trkpt>
      <trkpt lat="46.99398" lon="-0.95625">
        <ele>148.56</ele>
        <time>2020-05-27T18:29:55Z</time>
      </trkpt>
      <trkpt lat="46.99399" lon="-0.95632">
        <ele>148.122</ele>
        <time>2020-05-27T18:29:56Z</time>
      </trkpt>
      <trkpt lat="46.994" lon="-0.9564">
        <ele>148.052</ele>
        <time>2020-05-27T18:29:57Z</time>
      </trkpt>
      <trkpt lat="46.994" lon="-0.95648">
        <ele>147.677</ele>
        <time>2020-05-27T18:29:58Z</time>
      </trkpt>
      <trkpt lat="46.99402" lon="-0.95656">
        <ele>148.053</ele>
        <time>2020-05-27T18:29:59Z</time>
      </trkpt>
      <trkpt lat="46.99402" lon="-0.95663">
        <ele>149.301</ele>
        <time>2020-05-27T18:30:00Z</time>
      </trkpt>
      <trkpt lat="46.99403" lon="-0.95672">
        <ele>148.531</ele>
        <time>2020-05-27T18:30:01Z</time>
      </trkpt>
      <trkpt lat="46.99404" lon="-0.9568">
        <ele>148.832</ele>
        <time>2020-05-27T18:30:02Z</time>
      </trkpt>
      <trkpt lat="46.99405" lon="-0.95689">
        <ele>148.172</ele>
        <time>2020-05-27T18:30:03Z</time>
      </trkpt>
      <trkpt lat="46.99405" lon="-0.95698">
        <ele>147.465</ele>
        <time>2020-05-27T18:30:04Z</time>
      </trkpt>
      <trkpt lat="46.99405" lon="-0.95708">
        <ele>147.073</ele>
        <time>2020-05-27T18:30:05Z</time>
      </trkpt>
      <trkpt lat="46.99406" lon="-0.95715">
        <ele>145.45</ele>
        <time>2020-05-27T18:30:06Z</time>
      </trkpt>
      <trkpt lat="46.99407" lon="-0.95725">
        <ele>144.821</ele>
        <time>2020-05-27T18:30:07Z</time>
      </trkpt>
      <trkpt lat="46.99408" lon="-0.95733">
        <ele>144.28</ele>
        <time>2020-05-27T18:30:08Z</time>
      </trkpt>
      <trkpt lat="46.99408" lon="-0.95742">
        <ele>143.341</ele>
        <time>2020-05-27T18:30:09Z</time>
      </trkpt>
      <trkpt lat="46.99409" lon="-0.95751">
        <ele>143.797</ele>
        <time>2020-05-27T18:30:10Z</time>
      </trkpt>
      <trkpt lat="46.9941" lon="-0.95757">
        <ele>143.44</ele>
        <time>2020-05-27T18:30:11Z</time>
      </trkpt>
      <trkpt lat="46.99411" lon="-0.95763">
        <ele>142.567</ele>
        <time>2020-05-27T18:30:12Z</time>
      </trkpt>
      <trkpt lat="46.99412" lon="-0.95766">
        <ele>142.613</ele>
        <time>2020-05-27T18:30:13Z</time>
      </trkpt>
      <trkpt lat="46.99412" lon="-0.95769">
        <ele>142.816</ele>
        <time>2020-05-27T18:30:14Z</time>
      </trkpt>
      <trkpt lat="46.99413" lon="-0.95773">
        <ele>142.649</ele>
        <time>2020-05-27T18:30:15Z</time>
      </trkpt>
      <trkpt lat="46.99415" lon="-0.95776">
        <ele>143.09</ele>
        <time>2020-05-27T18:30:16Z</time>
      </trkpt>
      <trkpt lat="46.99418" lon="-0.95778">
        <ele>142.375</ele>
        <time>2020-05-27T18:30:17Z</time>
      </trkpt>
      <trkpt lat="46.99422" lon="-0.95778">
        <ele>141.548</ele>
        <time>2020-05-27T18:30:18Z</time>
      </trkpt>
      <trkpt lat="46.99426" lon="-0.95779">
        <ele>141.105</ele>
        <time>2020-05-27T18:30:19Z</time>
      </trkpt>
      <trkpt lat="46.9943" lon="-0.95779">
        <ele>140.688</ele>
        <time>2020-05-27T18:30:20Z</time>
      </trkpt>
      <trkpt lat="46.99435" lon="-0.95779">
        <ele>140.729</ele>
        <time>2020-05-27T18:30:21Z</time>
      </trkpt>
      <trkpt lat="46.99439" lon="-0.95779">
        <ele>140.595</ele>
        <time>2020-05-27T18:30:22Z</time>
      </trkpt>
      <trkpt lat="46.99444" lon="-0.95781">
        <ele>140.416</ele>
        <time>2020-05-27T18:30:23Z</time>
      </trkpt>
      <trkpt lat="46.99448" lon="-0.95783">
        <ele>140.544</ele>
        <time>2020-05-27T18:30:24Z</time>
      </trkpt>
      <trkpt lat="46.99453" lon="-0.95788">
        <ele>140.805</ele>
        <time>2020-05-27T18:30:25Z</time>
      </trkpt>
      <trkpt lat="46.99456" lon="-0.95794">
        <ele>139.416</ele>
        <time>2020-05-27T18:30:26Z</time>
      </trkpt>
      <trkpt lat="46.99459" lon="-0.95801">
        <ele>138.977</ele>
        <time>2020-05-27T18:30:27Z</time>
      </trkpt>
      <trkpt lat="46.9946" lon="-0.95809">
        <ele>139.289</ele>
        <time>2020-05-27T18:30:28Z</time>
      </trkpt>
      <trkpt lat="46.99462" lon="-0.95818">
        <ele>138.586</ele>
        <time>2020-05-27T18:30:29Z</time>
      </trkpt>
      <trkpt lat="46.99464" lon="-0.95826">
        <ele>139.524</ele>
        <time>2020-05-27T18:30:30Z</time>
      </trkpt>
      <trkpt lat="46.99464" lon="-0.95834">
        <ele>139.416</ele>
        <time>2020-05-27T18:30:31Z</time>
      </trkpt>
      <trkpt lat="46.99465" lon="-0.95844">
        <ele>139.347</ele>
        <time>2020-05-27T18:30:32Z</time>
      </trkpt>
      <trkpt lat="46.99466" lon="-0.95853">
        <ele>139.997</ele>
        <time>2020-05-27T18:30:33Z</time>
      </trkpt>
      <trkpt lat="46.99467" lon="-0.95863">
        <ele>139.49</ele>
        <time>2020-05-27T18:30:34Z</time>
      </trkpt>
      <trkpt lat="46.99468" lon="-0.95873">
        <ele>138.433</ele>
        <time>2020-05-27T18:30:35Z</time>
      </trkpt>
      <trkpt lat="46.99469" lon="-0.95881">
        <ele>136.912</ele>
        <time>2020-05-27T18:30:36Z</time>
      </trkpt>
      <trkpt lat="46.9947" lon="-0.95891">
        <ele>135.816</ele>
        <time>2020-05-27T18:30:37Z</time>
      </trkpt>
      <trkpt lat="46.9947" lon="-0.95901">
        <ele>136.15</ele>
        <time>2020-05-27T18:30:38Z</time>
      </trkpt>
      <trkpt lat="46.99471" lon="-0.95912">
        <ele>135.914</ele>
        <time>2020-05-27T18:30:39Z</time>
      </trkpt>
      <trkpt lat="46.99471" lon="-0.95923">
        <ele>135.23</ele>
        <time>2020-05-27T18:30:40Z</time>
      </trkpt>
      <trkpt lat="46.9947" lon="-0.95932">
        <ele>134.762</ele>
        <time>2020-05-27T18:30:41Z</time>
      </trkpt>
      <trkpt lat="46.9947" lon="-0.95942">
        <ele>134.641</ele>
        <time>2020-05-27T18:30:42Z</time>
      </trkpt>
      <trkpt lat="46.99469" lon="-0.95953">
        <ele>134.092</ele>
        <time>2020-05-27T18:30:43Z</time>
      </trkpt>
      <trkpt lat="46.99467" lon="-0.95964">
        <ele>133.404</ele>
        <time>2020-05-27T18:30:44Z</time>
      </trkpt>
      <trkpt lat="46.99465" lon="-0.95975">
        <ele>132.824</ele>
        <time>2020-05-27T18:30:45Z</time>
      </trkpt>
      <trkpt lat="46.99463" lon="-0.95986">
        <ele>131.853</ele>
        <time>2020-05-27T18:30:46Z</time>
      </trkpt>
      <trkpt lat="46.9946" lon="-0.95996">
        <ele>131.145</ele>
        <time>2020-05-27T18:30:47Z</time>
      </trkpt>
      <trkpt lat="46.99455" lon="-0.96003">
        <ele>130.435</ele>
        <time>2020-05-27T18:30:48Z</time>
      </trkpt>
      <trkpt lat="46.9945" lon="-0.96012">
        <ele>129.784</ele>
        <time>2020-05-27T18:30:49Z</time>
      </trkpt>
      <trkpt lat="46.99445" lon="-0.96019">
        <ele>128.977</ele>
        <time>2020-05-27T18:30:50Z</time>
      </trkpt>
      <trkpt lat="46.99442" lon="-0.96027">
        <ele>128.063</ele>
        <time>2020-05-27T18:30:51Z</time>
      </trkpt>
      <trkpt lat="46.99438" lon="-0.96034">
        <ele>127.808</ele>
        <time>2020-05-27T18:30:52Z</time>
      </trkpt>
      <trkpt lat="46.99435" lon="-0.96039">
        <ele>127.433</ele>
        <time>2020-05-27T18:30:53Z</time>
      </trkpt>
      <trkpt lat="46.99433" lon="-0.96043">
        <ele>125.715</ele>
        <time>2020-05-27T18:30:54Z</time>
      </trkpt>
      <trkpt lat="46.99431" lon="-0.96048">
        <ele>125.143</ele>
        <time>2020-05-27T18:30:55Z</time>
      </trkpt>
      <trkpt lat="46.99431" lon="-0.96054">
        <ele>124.67</ele>
        <time>2020-05-27T18:30:56Z</time>
      </trkpt>
      <trkpt lat="46.99432" lon="-0.96062">
        <ele>122.392</ele>
        <time>2020-05-27T18:30:57Z</time>
      </trkpt>
      <trkpt lat="46.99433" lon="-0.9607">
        <ele>122.221</ele>
        <time>2020-05-27T18:30:58Z</time>
      </trkpt>
      <trkpt lat="46.99435" lon="-0.96079">
        <ele>122.379</ele>
        <time>2020-05-27T18:30:59Z</time>
      </trkpt>
      <trkpt lat="46.99438" lon="-0.96089">
        <ele>121.876</ele>
        <time>2020-05-27T18:31:00Z</time>
      </trkpt>
      <trkpt lat="46.9944" lon="-0.96099">
        <ele>120.597</ele>
        <time>2020-05-27T18:31:01Z</time>
      </trkpt>
      <trkpt lat="46.99444" lon="-0.9611">
        <ele>119.722</ele>
        <time>2020-05-27T18:31:02Z</time>
      </trkpt>
      <trkpt lat="46.99448" lon="-0.9612">
        <ele>119.435</ele>
        <time>2020-05-27T18:31:03Z</time>
      </trkpt>
      <trkpt lat="46.99451" lon="-0.96131">
        <ele>119.227</ele>
        <time>2020-05-27T18:31:04Z</time>
      </trkpt>
      <trkpt lat="46.99453" lon="-0.96142">
        <ele>118.526</ele>
        <time>2020-05-27T18:31:05Z</time>
      </trkpt>
      <trkpt lat="46.99456" lon="-0.96153">
        <ele>118.459</ele>
        <time>2020-05-27T18:31:06Z</time>
      </trkpt>
      <trkpt lat="46.99458" lon="-0.96165">
        <ele>117.95</ele>
        <time>2020-05-27T18:31:07Z</time>
      </trkpt>
      <trkpt lat="46.99461" lon="-0.96174">
        <ele>117.418</ele>
        <time>2020-05-27T18:31:08Z</time>
      </trkpt>
      <trkpt lat="46.99464" lon="-0.96186">
        <ele>116.806</ele>
        <time>2020-05-27T18:31:09Z</time>
      </trkpt>
      <trkpt lat="46.99468" lon="-0.96197">
        <ele>115.334</ele>
        <time>2020-05-27T18:31:10Z</time>
      </trkpt>
      <trkpt lat="46.99472" lon="-0.96203">
        <ele>117.477</ele>
        <time>2020-05-27T18:31:11Z</time>
      </trkpt>
      <trkpt lat="46.99473" lon="-0.96213">
        <ele>118.074</ele>
        <time>2020-05-27T18:31:12Z</time>
      </trkpt>
      <trkpt lat="46.99475" lon="-0.96225">
        <ele>119.088</ele>
        <time>2020-05-27T18:31:13Z</time>
      </trkpt>
      <trkpt lat="46.99477" lon="-0.96232">
        <ele>117.491</ele>
        <time>2020-05-27T18:31:14Z</time>
      </trkpt>
      <trkpt lat="46.99479" lon="-0.96241">
        <ele>117.492</ele>
        <time>2020-05-27T18:31:15Z</time>
      </trkpt>
      <trkpt lat="46.99482" lon="-0.96246">
        <ele>117.512</ele>
        <time>2020-05-27T18:31:16Z</time>
      </trkpt>
      <trkpt lat="46.99483" lon="-0.96257">
        <ele>117.875</ele>
        <time>2020-05-27T18:31:17Z</time>
      </trkpt>
      <trkpt lat="46.99486" lon="-0.96263">
        <ele>115.321</ele>
        <time>2020-05-27T18:31:18Z</time>
      </trkpt>
      <trkpt lat="46.99488" lon="-0.96269">
        <ele>114.551</ele>
        <time>2020-05-27T18:31:19Z</time>
      </trkpt>
      <trkpt lat="46.9949" lon="-0.96279">
        <ele>113.322</ele>
        <time>2020-05-27T18:31:20Z</time>
      </trkpt>
      <trkpt lat="46.99491" lon="-0.96289">
        <ele>112.853</ele>
        <time>2020-05-27T18:31:21Z</time>
      </trkpt>
      <trkpt lat="46.99493" lon="-0.96294">
        <ele>111.953</ele>
        <time>2020-05-27T18:31:22Z</time>
      </trkpt>
      <trkpt lat="46.99495" lon="-0.963">
        <ele>112.408</ele>
        <time>2020-05-27T18:31:23Z</time>
      </trkpt>
      <trkpt lat="46.99497" lon="-0.96301">
        <ele>109.376</ele>
        <time>2020-05-27T18:31:24Z</time>
      </trkpt>
      <trkpt lat="46.995" lon="-0.96304">
        <ele>109.815</ele>
        <time>2020-05-27T18:31:25Z</time>
      </trkpt>
      <trkpt lat="46.99502" lon="-0.96311">
        <ele>110.505</ele>
        <time>2020-05-27T18:31:26Z</time>
      </trkpt>
      <trkpt lat="46.99504" lon="-0.9632">
        <ele>112.164</ele>
        <time>2020-05-27T18:31:27Z</time>
      </trkpt>
      <trkpt lat="46.99507" lon="-0.96327">
        <ele>113.163</ele>
        <time>2020-05-27T18:31:28Z</time>
      </trkpt>
      <trkpt lat="46.99509" lon="-0.96331">
        <ele>113.154</ele>
        <time>2020-05-27T18:31:29Z</time>
      </trkpt>
      <trkpt lat="46.9951" lon="-0.96336">
        <ele>112.541</ele>
        <time>2020-05-27T18:31:30Z</time>
      </trkpt>
      <trkpt lat="46.99513" lon="-0.96341">
        <ele>113.804</ele>
        <time>2020-05-27T18:31:31Z</time>
      </trkpt>
      <trkpt lat="46.99515" lon="-0.96344">
        <ele>114.292</ele>
        <time>2020-05-27T18:31:32Z</time>
      </trkpt>
      <trkpt lat="46.99517" lon="-0.96348">
        <ele>120.511</ele>
        <time>2020-05-27T18:31:33Z</time>
      </trkpt>
      <trkpt lat="46.99519" lon="-0.96352">
        <ele>120.408</ele>
        <time>2020-05-27T18:31:34Z</time>
      </trkpt>
      <trkpt lat="46.99521" lon="-0.96356">
        <ele>120.657</ele>
        <time>2020-05-27T18:31:35Z</time>
      </trkpt>
      <trkpt lat="46.99523" lon="-0.9636">
        <ele>120.367</ele>
        <time>2020-05-27T18:31:36Z</time>
      </trkpt>
      <trkpt lat="46.99525" lon="-0.96365">
        <ele>119.748</ele>
        <time>2020-05-27T18:31:37Z</time>
      </trkpt>
      <trkpt lat="46.99527" lon="-0.9637">
        <ele>120.116</ele>
        <time>2020-05-27T18:31:38Z</time>
      </trkpt>
      <trkpt lat="46.99531" lon="-0.96376">
        <ele>118.774</ele>
        <time>2020-05-27T18:31:39Z</time>
      </trkpt>
      <trkpt lat="46.99533" lon="-0.96382">
        <ele>121.262</ele>
        <time>2020-05-27T18:31:40Z</time>
      </trkpt>
      <trkpt lat="46.99534" lon="-0.96387">
        <ele>119.975</ele>
        <time>2020-05-27T18:31:41Z</time>
      </trkpt>
      <trkpt lat="46.99537" lon="-0.9639">
        <ele>119.977</ele>
        <time>2020-05-27T18:31:42Z</time>
      </trkpt>
      <trkpt lat="46.99539" lon="-0.96395">
        <ele>120.812</ele>
        <time>2020-05-27T18:31:43Z</time>
      </trkpt>
      <trkpt lat="46.99543" lon="-0.964">
        <ele>117.431</ele>
        <time>2020-05-27T18:31:44Z</time>
      </trkpt>
      <trkpt lat="46.99546" lon="-0.96406">
        <ele>117.872</ele>
        <time>2020-05-27T18:31:45Z</time>
      </trkpt>
      <trkpt lat="46.99549" lon="-0.96412">
        <ele>118.693</ele>
        <time>2020-05-27T18:31:46Z</time>
      </trkpt>
      <trkpt lat="46.99552" lon="-0.96419">
        <ele>117.193</ele>
        <time>2020-05-27T18:31:47Z</time>
      </trkpt>
      <trkpt lat="46.99555" lon="-0.96425">
        <ele>117.836</ele>
        <time>2020-05-27T18:31:48Z</time>
      </trkpt>
      <trkpt lat="46.99561" lon="-0.96431">
        <ele>114.826</ele>
        <time>2020-05-27T18:31:49Z</time>
      </trkpt>
      <trkpt lat="46.99561" lon="-0.96436">
        <ele>113.987</ele>
        <time>2020-05-27T18:31:50Z</time>
      </trkpt>
      <trkpt lat="46.99564" lon="-0.96443">
        <ele>112.905</ele>
        <time>2020-05-27T18:31:51Z</time>
      </trkpt>
      <trkpt lat="46.99567" lon="-0.96451">
        <ele>111.986</ele>
        <time>2020-05-27T18:31:52Z</time>
      </trkpt>
      <trkpt lat="46.9957" lon="-0.96456">
        <ele>112.773</ele>
        <time>2020-05-27T18:31:53Z</time>
      </trkpt>
      <trkpt lat="46.99573" lon="-0.96462">
        <ele>115.408</ele>
        <time>2020-05-27T18:31:54Z</time>
      </trkpt>
      <trkpt lat="46.99576" lon="-0.9647">
        <ele>113.577</ele>
        <time>2020-05-27T18:31:55Z</time>
      </trkpt>
      <trkpt lat="46.9958" lon="-0.96478">
        <ele>112.863</ele>
        <time>2020-05-27T18:31:56Z</time>
      </trkpt>
      <trkpt lat="46.99584" lon="-0.96486">
        <ele>111.661</ele>
        <time>2020-05-27T18:31:57Z</time>
      </trkpt>
      <trkpt lat="46.99588" lon="-0.96494">
        <ele>111.834</ele>
        <time>2020-05-27T18:31:58Z</time>
      </trkpt>
      <trkpt lat="46.99592" lon="-0.96501">
        <ele>111.398</ele>
        <time>2020-05-27T18:31:59Z</time>
      </trkpt>
      <trkpt lat="46.99597" lon="-0.96508">
        <ele>111.152</ele>
        <time>2020-05-27T18:32:00Z</time>
      </trkpt>
      <trkpt lat="46.996" lon="-0.96516">
        <ele>110.272</ele>
        <time>2020-05-27T18:32:01Z</time>
      </trkpt>
      <trkpt lat="46.99604" lon="-0.96524">
        <ele>111.302</ele>
        <time>2020-05-27T18:32:02Z</time>
      </trkpt>
      <trkpt lat="46.99609" lon="-0.96532">
        <ele>111.896</ele>
        <time>2020-05-27T18:32:03Z</time>
      </trkpt>
      <trkpt lat="46.99612" lon="-0.96539">
        <ele>111.949</ele>
        <time>2020-05-27T18:32:04Z</time>
      </trkpt>
      <trkpt lat="46.99616" lon="-0.96545">
        <ele>111.687</ele>
        <time>2020-05-27T18:32:05Z</time>
      </trkpt>
      <trkpt lat="46.99621" lon="-0.96551">
        <ele>112.271</ele>
        <time>2020-05-27T18:32:06Z</time>
      </trkpt>
      <trkpt lat="46.99625" lon="-0.96558">
        <ele>112.45</ele>
        <time>2020-05-27T18:32:07Z</time>
      </trkpt>
      <trkpt lat="46.99629" lon="-0.96564">
        <ele>112.555</ele>
        <time>2020-05-27T18:32:08Z</time>
      </trkpt>
      <trkpt lat="46.99633" lon="-0.96571">
        <ele>112.578</ele>
        <time>2020-05-27T18:32:09Z</time>
      </trkpt>
      <trkpt lat="46.99637" lon="-0.96579">
        <ele>112.802</ele>
        <time>2020-05-27T18:32:10Z</time>
      </trkpt>
      <trkpt lat="46.9964" lon="-0.96587">
        <ele>112.458</ele>
        <time>2020-05-27T18:32:11Z</time>
      </trkpt>
      <trkpt lat="46.99644" lon="-0.96594">
        <ele>112.526</ele>
        <time>2020-05-27T18:32:12Z</time>
      </trkpt>
      <trkpt lat="46.99647" lon="-0.96602">
        <ele>112.883</ele>
        <time>2020-05-27T18:32:13Z</time>
      </trkpt>
      <trkpt lat="46.9965" lon="-0.96611">
        <ele>113.169</ele>
        <time>2020-05-27T18:32:14Z</time>
      </trkpt>
      <trkpt lat="46.99653" lon="-0.9662">
        <ele>113.118</ele>
        <time>2020-05-27T18:32:15Z</time>
      </trkpt>
      <trkpt lat="46.99656" lon="-0.96629">
        <ele>112.914</ele>
        <time>2020-05-27T18:32:16Z</time>
      </trkpt>
      <trkpt lat="46.99659" lon="-0.96637">
        <ele>112.647</ele>
        <time>2020-05-27T18:32:17Z</time>
      </trkpt>
      <trkpt lat="46.99662" lon="-0.96645">
        <ele>113.04</ele>
        <time>2020-05-27T18:32:18Z</time>
      </trkpt>
      <trkpt lat="46.99665" lon="-0.96652">
        <ele>113.043</ele>
        <time>2020-05-27T18:32:19Z</time>
      </trkpt>
      <trkpt lat="46.99665" lon="-0.9666">
        <ele>112.749</ele>
        <time>2020-05-27T18:32:20Z</time>
      </trkpt>
      <trkpt lat="46.99664" lon="-0.9667">
        <ele>113.276</ele>
        <time>2020-05-27T18:32:21Z</time>
      </trkpt>
      <trkpt lat="46.99662" lon="-0.96678">
        <ele>113.503</ele>
        <time>2020-05-27T18:32:22Z</time>
      </trkpt>
      <trkpt lat="46.9966" lon="-0.96685">
        <ele>113.27</ele>
        <time>2020-05-27T18:32:23Z</time>
      </trkpt>
      <trkpt lat="46.99658" lon="-0.96694">
        <ele>113.651</ele>
        <time>2020-05-27T18:32:24Z</time>
      </trkpt>
      <trkpt lat="46.99657" lon="-0.96701">
        <ele>112.156</ele>
        <time>2020-05-27T18:32:25Z</time>
      </trkpt>
      <trkpt lat="46.99654" lon="-0.96709">
        <ele>111.496</ele>
        <time>2020-05-27T18:32:26Z</time>
      </trkpt>
      <trkpt lat="46.99652" lon="-0.96716">
        <ele>112.495</ele>
        <time>2020-05-27T18:32:27Z</time>
      </trkpt>
      <trkpt lat="46.99649" lon="-0.96724">
        <ele>111.529</ele>
        <time>2020-05-27T18:32:28Z</time>
      </trkpt>
      <trkpt lat="46.99646" lon="-0.96733">
        <ele>111.984</ele>
        <time>2020-05-27T18:32:29Z</time>
      </trkpt>
      <trkpt lat="46.99642" lon="-0.9674">
        <ele>112.993</ele>
        <time>2020-05-27T18:32:30Z</time>
      </trkpt>
      <trkpt lat="46.99638" lon="-0.96746">
        <ele>113.466</ele>
        <time>2020-05-27T18:32:31Z</time>
      </trkpt>
      <trkpt lat="46.99634" lon="-0.96751">
        <ele>113.642</ele>
        <time>2020-05-27T18:32:32Z</time>
      </trkpt>
      <trkpt lat="46.9963" lon="-0.96756">
        <ele>114.588</ele>
        <time>2020-05-27T18:32:33Z</time>
      </trkpt>
      <trkpt lat="46.99627" lon="-0.96757">
        <ele>115.698</ele>
        <time>2020-05-27T18:32:34Z</time>
      </trkpt>
      <trkpt lat="46.99625" lon="-0.96756">
        <ele>116.191</ele>
        <time>2020-05-27T18:32:35Z</time>
      </trkpt>
      <trkpt lat="46.99625" lon="-0.96754">
        <ele>116.269</ele>
        <time>2020-05-27T18:32:36Z</time>
      </trkpt>
      <trkpt lat="46.99624" lon="-0.96751">
        <ele>117.132</ele>
        <time>2020-05-27T18:32:37Z</time>
      </trkpt>
      <trkpt lat="46.99623" lon="-0.96749">
        <ele>117.15</ele>
        <time>2020-05-27T18:32:38Z</time>
      </trkpt>
      <trkpt lat="46.9962" lon="-0.96748">
        <ele>117.011</ele>
        <time>2020-05-27T18:32:39Z</time>
      </trkpt>
      <trkpt lat="46.99617" lon="-0.96749">
        <ele>116.054</ele>
        <time>2020-05-27T18:32:40Z</time>
      </trkpt>
      <trkpt lat="46.99615" lon="-0.96749">
        <ele>117.295</ele>
        <time>2020-05-27T18:32:41Z</time>
      </trkpt>
      <trkpt lat="46.99612" lon="-0.9675">
        <ele>118.451</ele>
        <time>2020-05-27T18:32:42Z</time>
      </trkpt>
      <trkpt lat="46.9961" lon="-0.96752">
        <ele>118.165</ele>
        <time>2020-05-27T18:32:43Z</time>
      </trkpt>
      <trkpt lat="46.99607" lon="-0.96753">
        <ele>119.234</ele>
        <time>2020-05-27T18:32:44Z</time>
      </trkpt>
      <trkpt lat="46.99604" lon="-0.96754">
        <ele>126.529</ele>
        <time>2020-05-27T18:32:45Z</time>
      </trkpt>
      <trkpt lat="46.99602" lon="-0.96755">
        <ele>123.455</ele>
        <time>2020-05-27T18:32:46Z</time>
      </trkpt>
      <trkpt lat="46.996" lon="-0.96755">
        <ele>121.524</ele>
        <time>2020-05-27T18:32:47Z</time>
      </trkpt>
      <trkpt lat="46.99598" lon="-0.96755">
        <ele>119.357</ele>
        <time>2020-05-27T18:32:48Z</time>
      </trkpt>
      <trkpt lat="46.99597" lon="-0.96754">
        <ele>118.499</ele>
        <time>2020-05-27T18:32:49Z</time>
      </trkpt>
      <trkpt lat="46.99596" lon="-0.96754">
        <ele>118.783</ele>
        <time>2020-05-27T18:32:50Z</time>
      </trkpt>
      <trkpt lat="46.99595" lon="-0.96755">
        <ele>119.432</ele>
        <time>2020-05-27T18:32:51Z</time>
      </trkpt>
      <trkpt lat="46.99594" lon="-0.96756">
        <ele>117.063</ele>
        <time>2020-05-27T18:32:52Z</time>
      </trkpt>
      <trkpt lat="46.99592" lon="-0.96758">
        <ele>115.196</ele>
        <time>2020-05-27T18:32:53Z</time>
      </trkpt>
      <trkpt lat="46.99592" lon="-0.96761">
        <ele>115.702</ele>
        <time>2020-05-27T18:32:54Z</time>
      </trkpt>
      <trkpt lat="46.99591" lon="-0.96765">
        <ele>114.199</ele>
        <time>2020-05-27T18:32:55Z</time>
      </trkpt>
      <trkpt lat="46.9959" lon="-0.9677">
        <ele>113.215</ele>
        <time>2020-05-27T18:32:56Z</time>
      </trkpt>
      <trkpt lat="46.99589" lon="-0.96775">
        <ele>113.365</ele>
        <time>2020-05-27T18:32:57Z</time>
      </trkpt>
      <trkpt lat="46.99588" lon="-0.96779">
        <ele>113.449</ele>
        <time>2020-05-27T18:32:58Z</time>
      </trkpt>
      <trkpt lat="46.99587" lon="-0.96784">
        <ele>113.388</ele>
        <time>2020-05-27T18:32:59Z</time>
      </trkpt>
      <trkpt lat="46.99587" lon="-0.96792">
        <ele>113.026</ele>
        <time>2020-05-27T18:33:00Z</time>
      </trkpt>
      <trkpt lat="46.99586" lon="-0.96801">
        <ele>113.919</ele>
        <time>2020-05-27T18:33:01Z</time>
      </trkpt>
      <trkpt lat="46.99586" lon="-0.96804">
        <ele>113.932</ele>
        <time>2020-05-27T18:33:02Z</time>
      </trkpt>
      <trkpt lat="46.99584" lon="-0.96808">
        <ele>112.907</ele>
        <time>2020-05-27T18:33:03Z</time>
      </trkpt>
      <trkpt lat="46.9958" lon="-0.96811">
        <ele>114.431</ele>
        <time>2020-05-27T18:33:04Z</time>
      </trkpt>
      <trkpt lat="46.99577" lon="-0.96816">
        <ele>114.294</ele>
        <time>2020-05-27T18:33:05Z</time>
      </trkpt>
      <trkpt lat="46.99574" lon="-0.96819">
        <ele>113.404</ele>
        <time>2020-05-27T18:33:06Z</time>
      </trkpt>
      <trkpt lat="46.99571" lon="-0.96823">
        <ele>112.381</ele>
        <time>2020-05-27T18:33:07Z</time>
      </trkpt>
      <trkpt lat="46.99569" lon="-0.9683">
        <ele>110.507</ele>
        <time>2020-05-27T18:33:08Z</time>
      </trkpt>
      <trkpt lat="46.99568" lon="-0.96834">
        <ele>110.148</ele>
        <time>2020-05-27T18:33:09Z</time>
      </trkpt>
      <trkpt lat="46.99567" lon="-0.96841">
        <ele>107.273</ele>
        <time>2020-05-27T18:33:10Z</time>
      </trkpt>
      <trkpt lat="46.99564" lon="-0.96845">
        <ele>107.929</ele>
        <time>2020-05-27T18:33:11Z</time>
      </trkpt>
      <trkpt lat="46.99561" lon="-0.9685">
        <ele>108.341</ele>
        <time>2020-05-27T18:33:12Z</time>
      </trkpt>
      <trkpt lat="46.99558" lon="-0.96855">
        <ele>110.02</ele>
        <time>2020-05-27T18:33:13Z</time>
      </trkpt>
      <trkpt lat="46.99555" lon="-0.96859">
        <ele>109.364</ele>
        <time>2020-05-27T18:33:14Z</time>
      </trkpt>
      <trkpt lat="46.99555" lon="-0.96866">
        <ele>109.817</ele>
        <time>2020-05-27T18:33:15Z</time>
      </trkpt>
      <trkpt lat="46.99551" lon="-0.96871">
        <ele>108.558</ele>
        <time>2020-05-27T18:33:16Z</time>
      </trkpt>
      <trkpt lat="46.99551" lon="-0.96878">
        <ele>107.099</ele>
        <time>2020-05-27T18:33:17Z</time>
      </trkpt>
      <trkpt lat="46.9955" lon="-0.96884">
        <ele>106.379</ele>
        <time>2020-05-27T18:33:18Z</time>
      </trkpt>
      <trkpt lat="46.9955" lon="-0.96892">
        <ele>106.648</ele>
        <time>2020-05-27T18:33:19Z</time>
      </trkpt>
      <trkpt lat="46.99549" lon="-0.96899">
        <ele>106.769</ele>
        <time>2020-05-27T18:33:20Z</time>
      </trkpt>
      <trkpt lat="46.99547" lon="-0.96907">
        <ele>106.941</ele>
        <time>2020-05-27T18:33:21Z</time>
      </trkpt>
      <trkpt lat="46.99546" lon="-0.96914">
        <ele>106.529</ele>
        <time>2020-05-27T18:33:22Z</time>
      </trkpt>
      <trkpt lat="46.99546" lon="-0.96921">
        <ele>106.923</ele>
        <time>2020-05-27T18:33:23Z</time>
      </trkpt>
      <trkpt lat="46.99544" lon="-0.96928">
        <ele>108.056</ele>
        <time>2020-05-27T18:33:24Z</time>
      </trkpt>
      <trkpt lat="46.99543" lon="-0.96934">
        <ele>106.846</ele>
        <time>2020-05-27T18:33:25Z</time>
      </trkpt>
      <trkpt lat="46.9954" lon="-0.96939">
        <ele>108.031</ele>
        <time>2020-05-27T18:33:26Z</time>
      </trkpt>
      <trkpt lat="46.99537" lon="-0.96944">
        <ele>109.934</ele>
        <time>2020-05-27T18:33:27Z</time>
      </trkpt>
      <trkpt lat="46.99538" lon="-0.96949">
        <ele>112.041</ele>
        <time>2020-05-27T18:33:29Z</time>
      </trkpt>
      <trkpt lat="46.99536" lon="-0.96954">
        <ele>110.971</ele>
        <time>2020-05-27T18:33:29Z</time>
      </trkpt>
      <trkpt lat="46.99535" lon="-0.96957">
        <ele>146.511</ele>
        <time>2020-05-27T18:33:30Z</time>
      </trkpt>
      <trkpt lat="46.99533" lon="-0.9696">
        <ele>138.209</ele>
        <time>2020-05-27T18:33:31Z</time>
      </trkpt>
      <trkpt lat="46.99533" lon="-0.96963">
        <ele>130.486</ele>
        <time>2020-05-27T18:33:32Z</time>
      </trkpt>
      <trkpt lat="46.99533" lon="-0.96967">
        <ele>123.341</ele>
        <time>2020-05-27T18:33:33Z</time>
      </trkpt>
      <trkpt lat="46.99532" lon="-0.96969">
        <ele>120.526</ele>
        <time>2020-05-27T18:33:34Z</time>
      </trkpt>
      <trkpt lat="46.99532" lon="-0.96972">
        <ele>118.582</ele>
        <time>2020-05-27T18:33:35Z</time>
      </trkpt>
      <trkpt lat="46.99531" lon="-0.96973">
        <ele>118.169</ele>
        <time>2020-05-27T18:33:36Z</time>
      </trkpt>
      <trkpt lat="46.9953" lon="-0.96975">
        <ele>117.759</ele>
        <time>2020-05-27T18:33:37Z</time>
      </trkpt>
      <trkpt lat="46.9953" lon="-0.96975">
        <ele>117.662</ele>
        <time>2020-05-27T18:33:38Z</time>
      </trkpt>
      <trkpt lat="46.99531" lon="-0.96975">
        <ele>116.361</ele>
        <time>2020-05-27T18:33:39Z</time>
      </trkpt>
      <trkpt lat="46.99531" lon="-0.96974">
        <ele>115.72</ele>
        <time>2020-05-27T18:33:40Z</time>
      </trkpt>
      <trkpt lat="46.99531" lon="-0.96974">
        <ele>115.316</ele>
        <time>2020-05-27T18:33:41Z</time>
      </trkpt>
      <trkpt lat="46.99532" lon="-0.96975">
        <ele>113.02</ele>
        <time>2020-05-27T18:33:42Z</time>
      </trkpt>
      <trkpt lat="46.99532" lon="-0.96975">
        <ele>111.994</ele>
        <time>2020-05-27T18:33:43Z</time>
      </trkpt>
      <trkpt lat="46.99532" lon="-0.96975">
        <ele>111.736</ele>
        <time>2020-05-27T18:33:44Z</time>
      </trkpt>
      <trkpt lat="46.99533" lon="-0.96975">
        <ele>111.638</ele>
        <time>2020-05-27T18:33:45Z</time>
      </trkpt>
      <trkpt lat="46.99533" lon="-0.96975">
        <ele>111.33</ele>
        <time>2020-05-27T18:33:46Z</time>
      </trkpt>
      <trkpt lat="46.99533" lon="-0.96975">
        <ele>111.524</ele>
        <time>2020-05-27T18:33:47Z</time>
      </trkpt>
      <trkpt lat="46.99532" lon="-0.96976">
        <ele>111.682</ele>
        <time>2020-05-27T18:33:48Z</time>
      </trkpt>
      <trkpt lat="46.99532" lon="-0.96976">
        <ele>111.546</ele>
        <time>2020-05-27T18:33:49Z</time>
      </trkpt>
      <trkpt lat="46.99532" lon="-0.96977">
        <ele>111.701</ele>
        <time>2020-05-27T18:33:50Z</time>
      </trkpt>
      <trkpt lat="46.99532" lon="-0.9698">
        <ele>111.674</ele>
        <time>2020-05-27T18:33:51Z</time>
      </trkpt>
      <trkpt lat="46.99532" lon="-0.96983">
        <ele>110.555</ele>
        <time>2020-05-27T18:33:52Z</time>
      </trkpt>
      <trkpt lat="46.99532" lon="-0.96987">
        <ele>110.56</ele>
        <time>2020-05-27T18:33:53Z</time>
      </trkpt>
      <trkpt lat="46.99532" lon="-0.9699">
        <ele>110.665</ele>
        <time>2020-05-27T18:33:54Z</time>
      </trkpt>
      <trkpt lat="46.99531" lon="-0.96993">
        <ele>109.71</ele>
        <time>2020-05-27T18:33:55Z</time>
      </trkpt>
      <trkpt lat="46.99531" lon="-0.96996">
        <ele>109.45</ele>
        <time>2020-05-27T18:33:56Z</time>
      </trkpt>
      <trkpt lat="46.9953" lon="-0.96999">
        <ele>109.987</ele>
        <time>2020-05-27T18:33:57Z</time>
      </trkpt>
      <trkpt lat="46.99529" lon="-0.97004">
        <ele>110.143</ele>
        <time>2020-05-27T18:33:59Z</time>
      </trkpt>
      <trkpt lat="46.99528" lon="-0.97008">
        <ele>109.556</ele>
        <time>2020-05-27T18:34:00Z</time>
      </trkpt>
      <trkpt lat="46.99528" lon="-0.97011">
        <ele>107.546</ele>
        <time>2020-05-27T18:34:01Z</time>
      </trkpt>
      <trkpt lat="46.99528" lon="-0.97016">
        <ele>107.437</ele>
        <time>2020-05-27T18:34:02Z</time>
      </trkpt>
      <trkpt lat="46.99528" lon="-0.97021">
        <ele>106.946</ele>
        <time>2020-05-27T18:34:03Z</time>
      </trkpt>
      <trkpt lat="46.99528" lon="-0.97027">
        <ele>106.845</ele>
        <time>2020-05-27T18:34:04Z</time>
      </trkpt>
      <trkpt lat="46.99528" lon="-0.97033">
        <ele>107.016</ele>
        <time>2020-05-27T18:34:05Z</time>
      </trkpt>
      <trkpt lat="46.99528" lon="-0.97039">
        <ele>107.749</ele>
        <time>2020-05-27T18:34:06Z</time>
      </trkpt>
      <trkpt lat="46.99529" lon="-0.97046">
        <ele>106.8</ele>
        <time>2020-05-27T18:34:07Z</time>
      </trkpt>
      <trkpt lat="46.99532" lon="-0.97052">
        <ele>106.704</ele>
        <time>2020-05-27T18:34:08Z</time>
      </trkpt>
      <trkpt lat="46.99532" lon="-0.97058">
        <ele>106.106</ele>
        <time>2020-05-27T18:34:09Z</time>
      </trkpt>
      <trkpt lat="46.99534" lon="-0.97065">
        <ele>106.325</ele>
        <time>2020-05-27T18:34:10Z</time>
      </trkpt>
      <trkpt lat="46.99534" lon="-0.97073">
        <ele>106.307</ele>
        <time>2020-05-27T18:34:11Z</time>
      </trkpt>
      <trkpt lat="46.99534" lon="-0.9708">
        <ele>105.141</ele>
        <time>2020-05-27T18:34:12Z</time>
      </trkpt>
      <trkpt lat="46.99531" lon="-0.97088">
        <ele>102.652</ele>
        <time>2020-05-27T18:34:13Z</time>
      </trkpt>
      <trkpt lat="46.99532" lon="-0.97096">
        <ele>102.627</ele>
        <time>2020-05-27T18:34:14Z</time>
      </trkpt>
      <trkpt lat="46.99532" lon="-0.97105">
        <ele>101.867</ele>
        <time>2020-05-27T18:34:15Z</time>
      </trkpt>
      <trkpt lat="46.99531" lon="-0.97114">
        <ele>101.842</ele>
        <time>2020-05-27T18:34:16Z</time>
      </trkpt>
      <trkpt lat="46.9953" lon="-0.97123">
        <ele>102.976</ele>
        <time>2020-05-27T18:34:17Z</time>
      </trkpt>
      <trkpt lat="46.99529" lon="-0.97131">
        <ele>102.532</ele>
        <time>2020-05-27T18:34:18Z</time>
      </trkpt>
      <trkpt lat="46.99527" lon="-0.9714">
        <ele>102.254</ele>
        <time>2020-05-27T18:34:19Z</time>
      </trkpt>
      <trkpt lat="46.99527" lon="-0.9715">
        <ele>99.57</ele>
        <time>2020-05-27T18:34:20Z</time>
      </trkpt>
      <trkpt lat="46.99528" lon="-0.97157">
        <ele>100.125</ele>
        <time>2020-05-27T18:34:21Z</time>
      </trkpt>
      <trkpt lat="46.9953" lon="-0.97163">
        <ele>100.311</ele>
        <time>2020-05-27T18:34:22Z</time>
      </trkpt>
      <trkpt lat="46.99531" lon="-0.97168">
        <ele>101.326</ele>
        <time>2020-05-27T18:34:23Z</time>
      </trkpt>
      <trkpt lat="46.99532" lon="-0.97175">
        <ele>100.083</ele>
        <time>2020-05-27T18:34:24Z</time>
      </trkpt>
      <trkpt lat="46.99533" lon="-0.97182">
        <ele>100.223</ele>
        <time>2020-05-27T18:34:25Z</time>
      </trkpt>
      <trkpt lat="46.99534" lon="-0.97188">
        <ele>99.19</ele>
        <time>2020-05-27T18:34:26Z</time>
      </trkpt>
      <trkpt lat="46.99535" lon="-0.97195">
        <ele>99.134</ele>
        <time>2020-05-27T18:34:27Z</time>
      </trkpt>
      <trkpt lat="46.99534" lon="-0.97201">
        <ele>99.63</ele>
        <time>2020-05-27T18:34:28Z</time>
      </trkpt>
      <trkpt lat="46.99533" lon="-0.97207">
        <ele>98.586</ele>
        <time>2020-05-27T18:34:29Z</time>
      </trkpt>
      <trkpt lat="46.99531" lon="-0.97214">
        <ele>99.142</ele>
        <time>2020-05-27T18:34:30Z</time>
      </trkpt>
      <trkpt lat="46.99529" lon="-0.97221">
        <ele>98.405</ele>
        <time>2020-05-27T18:34:31Z</time>
      </trkpt>
      <trkpt lat="46.99526" lon="-0.97229">
        <ele>98.949</ele>
        <time>2020-05-27T18:34:32Z</time>
      </trkpt>
      <trkpt lat="46.99524" lon="-0.97235">
        <ele>98.911</ele>
        <time>2020-05-27T18:34:33Z</time>
      </trkpt>
      <trkpt lat="46.99524" lon="-0.9724">
        <ele>98.068</ele>
        <time>2020-05-27T18:34:34Z</time>
      </trkpt>
      <trkpt lat="46.99522" lon="-0.97247">
        <ele>97.125</ele>
        <time>2020-05-27T18:34:35Z</time>
      </trkpt>
      <trkpt lat="46.99521" lon="-0.97251">
        <ele>96.162</ele>
        <time>2020-05-27T18:34:36Z</time>
      </trkpt>
      <trkpt lat="46.9952" lon="-0.97254">
        <ele>91.87</ele>
        <time>2020-05-27T18:34:37Z</time>
      </trkpt>
      <trkpt lat="46.99519" lon="-0.97258">
        <ele>93.091</ele>
        <time>2020-05-27T18:34:38Z</time>
      </trkpt>
      <trkpt lat="46.99519" lon="-0.97264">
        <ele>91.579</ele>
        <time>2020-05-27T18:34:39Z</time>
      </trkpt>
      <trkpt lat="46.99518" lon="-0.97268">
        <ele>92.048</ele>
        <time>2020-05-27T18:34:40Z</time>
      </trkpt>
      <trkpt lat="46.99519" lon="-0.97272">
        <ele>93.141</ele>
        <time>2020-05-27T18:34:41Z</time>
      </trkpt>
      <trkpt lat="46.99518" lon="-0.97278">
        <ele>93.584</ele>
        <time>2020-05-27T18:34:42Z</time>
      </trkpt>
      <trkpt lat="46.99517" lon="-0.97283">
        <ele>93.884</ele>
        <time>2020-05-27T18:34:43Z</time>
      </trkpt>
      <trkpt lat="46.99516" lon="-0.97288">
        <ele>93.917</ele>
        <time>2020-05-27T18:34:44Z</time>
      </trkpt>
      <trkpt lat="46.99516" lon="-0.97292">
        <ele>94.373</ele>
        <time>2020-05-27T18:34:45Z</time>
      </trkpt>
      <trkpt lat="46.99516" lon="-0.97294">
        <ele>93.613</ele>
        <time>2020-05-27T18:34:46Z</time>
      </trkpt>
      <trkpt lat="46.99517" lon="-0.97295">
        <ele>93.447</ele>
        <time>2020-05-27T18:34:47Z</time>
      </trkpt>
      <trkpt lat="46.99518" lon="-0.97295">
        <ele>93.413</ele>
        <time>2020-05-27T18:34:48Z</time>
      </trkpt>
      <trkpt lat="46.99519" lon="-0.97292">
        <ele>92.921</ele>
        <time>2020-05-27T18:34:49Z</time>
      </trkpt>
      <trkpt lat="46.99519" lon="-0.97288">
        <ele>93.381</ele>
        <time>2020-05-27T18:34:50Z</time>
      </trkpt>
      <trkpt lat="46.99519" lon="-0.97284">
        <ele>94.492</ele>
        <time>2020-05-27T18:34:51Z</time>
      </trkpt>
      <trkpt lat="46.99518" lon="-0.9728">
        <ele>95.253</ele>
        <time>2020-05-27T18:34:52Z</time>
      </trkpt>
      <trkpt lat="46.99518" lon="-0.9728">
        <ele>95.225</ele>
        <time>2020-05-27T18:34:53Z</time>
      </trkpt>
      <trkpt lat="46.99517" lon="-0.97279">
        <ele>96.592</ele>
        <time>2020-05-27T18:34:54Z</time>
      </trkpt>
      <trkpt lat="46.99517" lon="-0.97279">
        <ele>96.265</ele>
        <time>2020-05-27T18:34:55Z</time>
      </trkpt>
      <trkpt lat="46.99517" lon="-0.97279">
        <ele>95.848</ele>
        <time>2020-05-27T18:34:56Z</time>
      </trkpt>
      <trkpt lat="46.99517" lon="-0.97279">
        <ele>95.791</ele>
        <time>2020-05-27T18:34:57Z</time>
      </trkpt>
      <trkpt lat="46.99517" lon="-0.97279">
        <ele>95.675</ele>
        <time>2020-05-27T18:34:58Z</time>
      </trkpt>
      <trkpt lat="46.99517" lon="-0.97279">
        <ele>95.991</ele>
        <time>2020-05-27T18:34:59Z</time>
      </trkpt>
      <trkpt lat="46.99517" lon="-0.97279">
        <ele>95.465</ele>
        <time>2020-05-27T18:35:00Z</time>
      </trkpt>
      <trkpt lat="46.99516" lon="-0.97279">
        <ele>96.833</ele>
        <time>2020-05-27T18:35:01Z</time>
      </trkpt>
      <trkpt lat="46.99516" lon="-0.97279">
        <ele>97.016</ele>
        <time>2020-05-27T18:35:02Z</time>
      </trkpt>
      <trkpt lat="46.99516" lon="-0.97278">
        <ele>97.313</ele>
        <time>2020-05-27T18:35:03Z</time>
      </trkpt>
      <trkpt lat="46.99516" lon="-0.97277">
        <ele>97.507</ele>
        <time>2020-05-27T18:35:04Z</time>
      </trkpt>
      <trkpt lat="46.99515" lon="-0.97276">
        <ele>98.942</ele>
        <time>2020-05-27T18:35:05Z</time>
      </trkpt>
      <trkpt lat="46.99515" lon="-0.97275">
        <ele>100.335</ele>
        <time>2020-05-27T18:35:06Z</time>
      </trkpt>
      <trkpt lat="46.99514" lon="-0.97276">
        <ele>99.352</ele>
        <time>2020-05-27T18:35:07Z</time>
      </trkpt>
      <trkpt lat="46.99513" lon="-0.97277">
        <ele>99.545</ele>
        <time>2020-05-27T18:35:08Z</time>
      </trkpt>
      <trkpt lat="46.99513" lon="-0.97279">
        <ele>101.199</ele>
        <time>2020-05-27T18:35:09Z</time>
      </trkpt>
      <trkpt lat="46.99513" lon="-0.97279">
        <ele>100.968</ele>
        <time>2020-05-27T18:35:10Z</time>
      </trkpt>
      <trkpt lat="46.99512" lon="-0.97279">
        <ele>101.462</ele>
        <time>2020-05-27T18:35:11Z</time>
      </trkpt>
      <trkpt lat="46.99512" lon="-0.97279">
        <ele>101.438</ele>
        <time>2020-05-27T18:35:12Z</time>
      </trkpt>
      <trkpt lat="46.99511" lon="-0.97279">
        <ele>101.892</ele>
        <time>2020-05-27T18:35:13Z</time>
      </trkpt>
      <trkpt lat="46.99511" lon="-0.97279">
        <ele>102.045</ele>
        <time>2020-05-27T18:35:14Z</time>
      </trkpt>
      <trkpt lat="46.99511" lon="-0.97279">
        <ele>101.964</ele>
        <time>2020-05-27T18:35:15Z</time>
      </trkpt>
      <trkpt lat="46.99511" lon="-0.97279">
        <ele>102.336</ele>
        <time>2020-05-27T18:35:16Z</time>
      </trkpt>
      <trkpt lat="46.99511" lon="-0.97279">
        <ele>102.015</ele>
        <time>2020-05-27T18:35:17Z</time>
      </trkpt>
      <trkpt lat="46.9951" lon="-0.9728">
        <ele>101.659</ele>
        <time>2020-05-27T18:35:18Z</time>
      </trkpt>
      <trkpt lat="46.9951" lon="-0.9728">
        <ele>101.697</ele>
        <time>2020-05-27T18:35:19Z</time>
      </trkpt>
      <trkpt lat="46.9951" lon="-0.9728">
        <ele>101.673</ele>
        <time>2020-05-27T18:35:20Z</time>
      </trkpt>
      <trkpt lat="46.9951" lon="-0.9728">
        <ele>101.739</ele>
        <time>2020-05-27T18:35:21Z</time>
      </trkpt>
      <trkpt lat="46.9951" lon="-0.9728">
        <ele>101.737</ele>
        <time>2020-05-27T18:35:22Z</time>
      </trkpt>
      <trkpt lat="46.9951" lon="-0.9728">
        <ele>101.752</ele>
        <time>2020-05-27T18:35:23Z</time>
      </trkpt>
      <trkpt lat="46.9951" lon="-0.9728">
        <ele>101.748</ele>
        <time>2020-05-27T18:35:24Z</time>
      </trkpt>
      <trkpt lat="46.9951" lon="-0.9728">
        <ele>101.769</ele>
        <time>2020-05-27T18:35:25Z</time>
      </trkpt>
      <trkpt lat="46.9951" lon="-0.9728">
        <ele>101.765</ele>
        <time>2020-05-27T18:35:26Z</time>
      </trkpt>
      <trkpt lat="46.9951" lon="-0.9728">
        <ele>101.762</ele>
        <time>2020-05-27T18:35:27Z</time>
      </trkpt>
      <trkpt lat="46.9951" lon="-0.9728">
        <ele>101.768</ele>
        <time>2020-05-27T18:35:28Z</time>
      </trkpt>
      <trkpt lat="46.9951" lon="-0.9728">
        <ele>101.768</ele>
        <time>2020-05-27T18:35:29Z</time>
      </trkpt>
      <trkpt lat="46.9951" lon="-0.9728">
        <ele>101.778</ele>
        <time>2020-05-27T18:35:30Z</time>
      </trkpt>
      <trkpt lat="46.9951" lon="-0.9728">
        <ele>101.78</ele>
        <time>2020-05-27T18:35:31Z</time>
      </trkpt>
      <trkpt lat="46.9951" lon="-0.9728">
        <ele>101.796</ele>
        <time>2020-05-27T18:35:32Z</time>
      </trkpt>
      <trkpt lat="46.9951" lon="-0.9728">
        <ele>101.782</ele>
        <time>2020-05-27T18:35:33Z</time>
      </trkpt>
      <trkpt lat="46.9951" lon="-0.9728">
        <ele>101.79</ele>
        <time>2020-05-27T18:35:34Z</time>
      </trkpt>
      <trkpt lat="46.9951" lon="-0.9728">
        <ele>101.802</ele>
        <time>2020-05-27T18:35:35Z</time>
      </trkpt>
      <trkpt lat="46.9951" lon="-0.9728">
        <ele>101.813</ele>
        <time>2020-05-27T18:35:36Z</time>
      </trkpt>
      <trkpt lat="46.9951" lon="-0.9728">
        <ele>101.817</ele>
        <time>2020-05-27T18:35:37Z</time>
      </trkpt>
      <trkpt lat="46.9951" lon="-0.97281">
        <ele>103.568</ele>
        <time>2020-05-27T18:35:38Z</time>
      </trkpt>
      <trkpt lat="46.9951" lon="-0.97282">
        <ele>104.94</ele>
        <time>2020-05-27T18:35:39Z</time>
      </trkpt>
      <trkpt lat="46.9951" lon="-0.97283">
        <ele>106.785</ele>
        <time>2020-05-27T18:35:40Z</time>
      </trkpt>
      <trkpt lat="46.9951" lon="-0.97284">
        <ele>106.923</ele>
        <time>2020-05-27T18:35:41Z</time>
      </trkpt>
      <trkpt lat="46.9951" lon="-0.97287">
        <ele>108.89</ele>
        <time>2020-05-27T18:35:42Z</time>
      </trkpt>
      <trkpt lat="46.9951" lon="-0.9729">
        <ele>109.099</ele>
        <time>2020-05-27T18:35:43Z</time>
      </trkpt>
      <trkpt lat="46.99509" lon="-0.97293">
        <ele>107.468</ele>
        <time>2020-05-27T18:35:44Z</time>
      </trkpt>
      <trkpt lat="46.99508" lon="-0.97296">
        <ele>108.29</ele>
        <time>2020-05-27T18:35:45Z</time>
      </trkpt>
      <trkpt lat="46.99508" lon="-0.97298">
        <ele>107.845</ele>
        <time>2020-05-27T18:35:46Z</time>
      </trkpt>
      <trkpt lat="46.99507" lon="-0.973">
        <ele>106.15</ele>
        <time>2020-05-27T18:35:47Z</time>
      </trkpt>
      <trkpt lat="46.99506" lon="-0.97305">
        <ele>106.583</ele>
        <time>2020-05-27T18:35:49Z</time>
      </trkpt>
      <trkpt lat="46.99505" lon="-0.97308">
        <ele>106.358</ele>
        <time>2020-05-27T18:35:50Z</time>
      </trkpt>
      <trkpt lat="46.99504" lon="-0.97312">
        <ele>106.258</ele>
        <time>2020-05-27T18:35:51Z</time>
      </trkpt>
      <trkpt lat="46.99502" lon="-0.97316">
        <ele>106.876</ele>
        <time>2020-05-27T18:35:52Z</time>
      </trkpt>
      <trkpt lat="46.995" lon="-0.97322">
        <ele>107.373</ele>
        <time>2020-05-27T18:35:53Z</time>
      </trkpt>
      <trkpt lat="46.99498" lon="-0.97327">
        <ele>107.169</ele>
        <time>2020-05-27T18:35:54Z</time>
      </trkpt>
      <trkpt lat="46.99496" lon="-0.97333">
        <ele>106.87</ele>
        <time>2020-05-27T18:35:55Z</time>
      </trkpt>
      <trkpt lat="46.99495" lon="-0.97339">
        <ele>105.467</ele>
        <time>2020-05-27T18:35:56Z</time>
      </trkpt>
      <trkpt lat="46.99492" lon="-0.97344">
        <ele>104.349</ele>
        <time>2020-05-27T18:35:57Z</time>
      </trkpt>
      <trkpt lat="46.99489" lon="-0.9735">
        <ele>105.192</ele>
        <time>2020-05-27T18:35:58Z</time>
      </trkpt>
      <trkpt lat="46.99487" lon="-0.97356">
        <ele>106.523</ele>
        <time>2020-05-27T18:35:59Z</time>
      </trkpt>
      <trkpt lat="46.99485" lon="-0.97363">
        <ele>107.57</ele>
        <time>2020-05-27T18:36:00Z</time>
      </trkpt>
      <trkpt lat="46.99484" lon="-0.97371">
        <ele>107.567</ele>
        <time>2020-05-27T18:36:01Z</time>
      </trkpt>
      <trkpt lat="46.99483" lon="-0.97378">
        <ele>107.765</ele>
        <time>2020-05-27T18:36:02Z</time>
      </trkpt>
      <trkpt lat="46.99481" lon="-0.97384">
        <ele>107.363</ele>
        <time>2020-05-27T18:36:03Z</time>
      </trkpt>
      <trkpt lat="46.99482" lon="-0.9739">
        <ele>107.271</ele>
        <time>2020-05-27T18:36:04Z</time>
      </trkpt>
      <trkpt lat="46.99482" lon="-0.97396">
        <ele>107.611</ele>
        <time>2020-05-27T18:36:05Z</time>
      </trkpt>
      <trkpt lat="46.99482" lon="-0.97404">
        <ele>108.77</ele>
        <time>2020-05-27T18:36:06Z</time>
      </trkpt>
      <trkpt lat="46.99483" lon="-0.97412">
        <ele>110.448</ele>
        <time>2020-05-27T18:36:07Z</time>
      </trkpt>
      <trkpt lat="46.99484" lon="-0.97419">
        <ele>111.487</ele>
        <time>2020-05-27T18:36:08Z</time>
      </trkpt>
      <trkpt lat="46.99485" lon="-0.97427">
        <ele>111.044</ele>
        <time>2020-05-27T18:36:09Z</time>
      </trkpt>
      <trkpt lat="46.99486" lon="-0.97434">
        <ele>112.878</ele>
        <time>2020-05-27T18:36:10Z</time>
      </trkpt>
      <trkpt lat="46.99487" lon="-0.97442">
        <ele>112.129</ele>
        <time>2020-05-27T18:36:11Z</time>
      </trkpt>
      <trkpt lat="46.99488" lon="-0.9745">
        <ele>112.562</ele>
        <time>2020-05-27T18:36:12Z</time>
      </trkpt>
      <trkpt lat="46.99489" lon="-0.97455">
        <ele>110.517</ele>
        <time>2020-05-27T18:36:13Z</time>
      </trkpt>
      <trkpt lat="46.99489" lon="-0.97462">
        <ele>130.567</ele>
        <time>2020-05-27T18:36:14Z</time>
      </trkpt>
      <trkpt lat="46.9949" lon="-0.97469">
        <ele>122.189</ele>
        <time>2020-05-27T18:36:15Z</time>
      </trkpt>
      <trkpt lat="46.9949" lon="-0.97477">
        <ele>119.868</ele>
        <time>2020-05-27T18:36:16Z</time>
      </trkpt>
      <trkpt lat="46.9949" lon="-0.97484">
        <ele>116.966</ele>
        <time>2020-05-27T18:36:17Z</time>
      </trkpt>
      <trkpt lat="46.99491" lon="-0.97492">
        <ele>114.371</ele>
        <time>2020-05-27T18:36:18Z</time>
      </trkpt>
      <trkpt lat="46.99493" lon="-0.97501">
        <ele>111.503</ele>
        <time>2020-05-27T18:36:19Z</time>
      </trkpt>
      <trkpt lat="46.99495" lon="-0.97509">
        <ele>111.069</ele>
        <time>2020-05-27T18:36:20Z</time>
      </trkpt>
      <trkpt lat="46.99498" lon="-0.97517">
        <ele>109.684</ele>
        <time>2020-05-27T18:36:21Z</time>
      </trkpt>
      <trkpt lat="46.99499" lon="-0.97525">
        <ele>109.635</ele>
        <time>2020-05-27T18:36:22Z</time>
      </trkpt>
      <trkpt lat="46.995" lon="-0.97533">
        <ele>108.87</ele>
        <time>2020-05-27T18:36:23Z</time>
      </trkpt>
      <trkpt lat="46.99501" lon="-0.97542">
        <ele>108.317</ele>
        <time>2020-05-27T18:36:24Z</time>
      </trkpt>
      <trkpt lat="46.99501" lon="-0.97551">
        <ele>108.316</ele>
        <time>2020-05-27T18:36:25Z</time>
      </trkpt>
      <trkpt lat="46.99501" lon="-0.97559">
        <ele>107.225</ele>
        <time>2020-05-27T18:36:26Z</time>
      </trkpt>
      <trkpt lat="46.99502" lon="-0.97567">
        <ele>107.58</ele>
        <time>2020-05-27T18:36:27Z</time>
      </trkpt>
      <trkpt lat="46.99503" lon="-0.97575">
        <ele>106.648</ele>
        <time>2020-05-27T18:36:28Z</time>
      </trkpt>
      <trkpt lat="46.99503" lon="-0.97583">
        <ele>106.459</ele>
        <time>2020-05-27T18:36:29Z</time>
      </trkpt>
      <trkpt lat="46.99504" lon="-0.97592">
        <ele>106.7</ele>
        <time>2020-05-27T18:36:30Z</time>
      </trkpt>
      <trkpt lat="46.99505" lon="-0.976">
        <ele>106.753</ele>
        <time>2020-05-27T18:36:31Z</time>
      </trkpt>
      <trkpt lat="46.99506" lon="-0.97608">
        <ele>106.848</ele>
        <time>2020-05-27T18:36:32Z</time>
      </trkpt>
      <trkpt lat="46.99507" lon="-0.97615">
        <ele>105.682</ele>
        <time>2020-05-27T18:36:33Z</time>
      </trkpt>
      <trkpt lat="46.99509" lon="-0.97624">
        <ele>104.878</ele>
        <time>2020-05-27T18:36:34Z</time>
      </trkpt>
      <trkpt lat="46.99509" lon="-0.97632">
        <ele>104.933</ele>
        <time>2020-05-27T18:36:35Z</time>
      </trkpt>
      <trkpt lat="46.99509" lon="-0.9764">
        <ele>105.171</ele>
        <time>2020-05-27T18:36:36Z</time>
      </trkpt>
      <trkpt lat="46.99509" lon="-0.97647">
        <ele>105.855</ele>
        <time>2020-05-27T18:36:37Z</time>
      </trkpt>
      <trkpt lat="46.9951" lon="-0.97656">
        <ele>105.683</ele>
        <time>2020-05-27T18:36:38Z</time>
      </trkpt>
      <trkpt lat="46.99511" lon="-0.97662">
        <ele>103.04</ele>
        <time>2020-05-27T18:36:39Z</time>
      </trkpt>
      <trkpt lat="46.99511" lon="-0.9767">
        <ele>102.697</ele>
        <time>2020-05-27T18:36:40Z</time>
      </trkpt>
      <trkpt lat="46.99512" lon="-0.97678">
        <ele>102.666</ele>
        <time>2020-05-27T18:36:41Z</time>
      </trkpt>
      <trkpt lat="46.99512" lon="-0.97686">
        <ele>102.937</ele>
        <time>2020-05-27T18:36:42Z</time>
      </trkpt>
      <trkpt lat="46.99513" lon="-0.97696">
        <ele>103.088</ele>
        <time>2020-05-27T18:36:43Z</time>
      </trkpt>
      <trkpt lat="46.99514" lon="-0.97704">
        <ele>103.417</ele>
        <time>2020-05-27T18:36:44Z</time>
      </trkpt>
      <trkpt lat="46.99514" lon="-0.97712">
        <ele>103.517</ele>
        <time>2020-05-27T18:36:45Z</time>
      </trkpt>
      <trkpt lat="46.99515" lon="-0.9772">
        <ele>103.077</ele>
        <time>2020-05-27T18:36:46Z</time>
      </trkpt>
      <trkpt lat="46.99514" lon="-0.97727">
        <ele>103.017</ele>
        <time>2020-05-27T18:36:47Z</time>
      </trkpt>
      <trkpt lat="46.99515" lon="-0.97736">
        <ele>102.814</ele>
        <time>2020-05-27T18:36:48Z</time>
      </trkpt>
      <trkpt lat="46.99515" lon="-0.97744">
        <ele>102.466</ele>
        <time>2020-05-27T18:36:49Z</time>
      </trkpt>
      <trkpt lat="46.99515" lon="-0.97752">
        <ele>102.788</ele>
        <time>2020-05-27T18:36:50Z</time>
      </trkpt>
      <trkpt lat="46.99515" lon="-0.97762">
        <ele>103.389</ele>
        <time>2020-05-27T18:36:51Z</time>
      </trkpt>
      <trkpt lat="46.99516" lon="-0.9777">
        <ele>103.077</ele>
        <time>2020-05-27T18:36:52Z</time>
      </trkpt>
      <trkpt lat="46.99517" lon="-0.97777">
        <ele>103.712</ele>
        <time>2020-05-27T18:36:53Z</time>
      </trkpt>
      <trkpt lat="46.99518" lon="-0.97783">
        <ele>102.527</ele>
        <time>2020-05-27T18:36:54Z</time>
      </trkpt>
      <trkpt lat="46.9952" lon="-0.9779">
        <ele>102.206</ele>
        <time>2020-05-27T18:36:55Z</time>
      </trkpt>
      <trkpt lat="46.99522" lon="-0.97795">
        <ele>102.16</ele>
        <time>2020-05-27T18:36:56Z</time>
      </trkpt>
      <trkpt lat="46.99524" lon="-0.978">
        <ele>102.192</ele>
        <time>2020-05-27T18:36:57Z</time>
      </trkpt>
      <trkpt lat="46.99525" lon="-0.97804">
        <ele>102.032</ele>
        <time>2020-05-27T18:36:58Z</time>
      </trkpt>
      <trkpt lat="46.99526" lon="-0.97807">
        <ele>102.133</ele>
        <time>2020-05-27T18:36:59Z</time>
      </trkpt>
      <trkpt lat="46.99526" lon="-0.9781">
        <ele>101.869</ele>
        <time>2020-05-27T18:37:00Z</time>
      </trkpt>
      <trkpt lat="46.99527" lon="-0.97813">
        <ele>101.716</ele>
        <time>2020-05-27T18:37:01Z</time>
      </trkpt>
      <trkpt lat="46.99527" lon="-0.97814">
        <ele>102.254</ele>
        <time>2020-05-27T18:37:02Z</time>
      </trkpt>
      <trkpt lat="46.99525" lon="-0.97814">
        <ele>102.1</ele>
        <time>2020-05-27T18:37:03Z</time>
      </trkpt>
      <trkpt lat="46.99522" lon="-0.97815">
        <ele>102.759</ele>
        <time>2020-05-27T18:37:04Z</time>
      </trkpt>
      <trkpt lat="46.99521" lon="-0.97816">
        <ele>103.206</ele>
        <time>2020-05-27T18:37:05Z</time>
      </trkpt>
      <trkpt lat="46.9952" lon="-0.97816">
        <ele>103.549</ele>
        <time>2020-05-27T18:37:06Z</time>
      </trkpt>
      <trkpt lat="46.99518" lon="-0.97818">
        <ele>102.989</ele>
        <time>2020-05-27T18:37:07Z</time>
      </trkpt>
      <trkpt lat="46.99516" lon="-0.9782">
        <ele>103.758</ele>
        <time>2020-05-27T18:37:08Z</time>
      </trkpt>
      <trkpt lat="46.99514" lon="-0.97823">
        <ele>103.436</ele>
        <time>2020-05-27T18:37:09Z</time>
      </trkpt>
      <trkpt lat="46.99512" lon="-0.97826">
        <ele>102.898</ele>
        <time>2020-05-27T18:37:10Z</time>
      </trkpt>
      <trkpt lat="46.9951" lon="-0.97829">
        <ele>102.935</ele>
        <time>2020-05-27T18:37:11Z</time>
      </trkpt>
      <trkpt lat="46.99508" lon="-0.97832">
        <ele>103.542</ele>
        <time>2020-05-27T18:37:12Z</time>
      </trkpt>
      <trkpt lat="46.99506" lon="-0.97835">
        <ele>104.07</ele>
        <time>2020-05-27T18:37:13Z</time>
      </trkpt>
      <trkpt lat="46.99505" lon="-0.97838">
        <ele>103.94</ele>
        <time>2020-05-27T18:37:14Z</time>
      </trkpt>
      <trkpt lat="46.99503" lon="-0.97841">
        <ele>104.701</ele>
        <time>2020-05-27T18:37:15Z</time>
      </trkpt>
      <trkpt lat="46.99501" lon="-0.97843">
        <ele>104.768</ele>
        <time>2020-05-27T18:37:16Z</time>
      </trkpt>
      <trkpt lat="46.995" lon="-0.97845">
        <ele>104.647</ele>
        <time>2020-05-27T18:37:17Z</time>
      </trkpt>
      <trkpt lat="46.99499" lon="-0.97846">
        <ele>105.296</ele>
        <time>2020-05-27T18:37:18Z</time>
      </trkpt>
      <trkpt lat="46.99499" lon="-0.97847">
        <ele>104.777</ele>
        <time>2020-05-27T18:37:19Z</time>
      </trkpt>
      <trkpt lat="46.99499" lon="-0.97846">
        <ele>105.062</ele>
        <time>2020-05-27T18:37:20Z</time>
      </trkpt>
      <trkpt lat="46.99499" lon="-0.97847">
        <ele>104.717</ele>
        <time>2020-05-27T18:37:21Z</time>
      </trkpt>
      <trkpt lat="46.99499" lon="-0.97847">
        <ele>104.135</ele>
        <time>2020-05-27T18:37:22Z</time>
      </trkpt>
      <trkpt lat="46.99499" lon="-0.97847">
        <ele>103.678</ele>
        <time>2020-05-27T18:37:25Z</time>
      </trkpt>
      <trkpt lat="46.99499" lon="-0.97847">
        <ele>103.644</ele>
        <time>2020-05-27T18:37:26Z</time>
      </trkpt>
      <trkpt lat="46.99499" lon="-0.97847">
        <ele>102.962</ele>
        <time>2020-05-27T18:37:28Z</time>
      </trkpt>
      <trkpt lat="46.99499" lon="-0.97847">
        <ele>102.988</ele>
        <time>2020-05-27T18:37:29Z</time>
      </trkpt>
      <trkpt lat="46.99499" lon="-0.97846">
        <ele>103.087</ele>
        <time>2020-05-27T18:37:32Z</time>
      </trkpt>
      <trkpt lat="46.99499" lon="-0.97846">
        <ele>103.078</ele>
        <time>2020-05-27T18:37:32Z</time>
      </trkpt>
      <trkpt lat="46.99498" lon="-0.97846">
        <ele>102.457</ele>
        <time>2020-05-27T18:37:32Z</time>
      </trkpt>
      <trkpt lat="46.99498" lon="-0.97847">
        <ele>102.661</ele>
        <time>2020-05-27T18:37:33Z</time>
      </trkpt>
      <trkpt lat="46.99498" lon="-0.97847">
        <ele>103.053</ele>
        <time>2020-05-27T18:37:34Z</time>
      </trkpt>
      <trkpt lat="46.99497" lon="-0.97847">
        <ele>102.806</ele>
        <time>2020-05-27T18:37:35Z</time>
      </trkpt>
      <trkpt lat="46.99497" lon="-0.97847">
        <ele>103.144</ele>
        <time>2020-05-27T18:37:36Z</time>
      </trkpt>
      <trkpt lat="46.99497" lon="-0.97846">
        <ele>103.898</ele>
        <time>2020-05-27T18:37:37Z</time>
      </trkpt>
      <trkpt lat="46.99497" lon="-0.97846">
        <ele>104.741</ele>
        <time>2020-05-27T18:37:38Z</time>
      </trkpt>
      <trkpt lat="46.99496" lon="-0.97846">
        <ele>104.739</ele>
        <time>2020-05-27T18:37:39Z</time>
      </trkpt>
      <trkpt lat="46.99496" lon="-0.97846">
        <ele>105.336</ele>
        <time>2020-05-27T18:37:40Z</time>
      </trkpt>
      <trkpt lat="46.99496" lon="-0.97847">
        <ele>105.132</ele>
        <time>2020-05-27T18:37:41Z</time>
      </trkpt>
      <trkpt lat="46.99496" lon="-0.97847">
        <ele>105.057</ele>
        <time>2020-05-27T18:37:42Z</time>
      </trkpt>
      <trkpt lat="46.99497" lon="-0.97847">
        <ele>105.583</ele>
        <time>2020-05-27T18:37:43Z</time>
      </trkpt>
      <trkpt lat="46.99497" lon="-0.97848">
        <ele>103.716</ele>
        <time>2020-05-27T18:37:44Z</time>
      </trkpt>
      <trkpt lat="46.99498" lon="-0.97849">
        <ele>103.89</ele>
        <time>2020-05-27T18:37:45Z</time>
      </trkpt>
      <trkpt lat="46.99498" lon="-0.97849">
        <ele>103.38</ele>
        <time>2020-05-27T18:37:46Z</time>
      </trkpt>
      <trkpt lat="46.99497" lon="-0.97849">
        <ele>107.33</ele>
        <time>2020-05-27T18:37:47Z</time>
      </trkpt>
      <trkpt lat="46.99497" lon="-0.97849">
        <ele>107.191</ele>
        <time>2020-05-27T18:37:48Z</time>
      </trkpt>
      <trkpt lat="46.99496" lon="-0.97849">
        <ele>107.819</ele>
        <time>2020-05-27T18:37:49Z</time>
      </trkpt>
      <trkpt lat="46.99496" lon="-0.97849">
        <ele>107.341</ele>
        <time>2020-05-27T18:37:50Z</time>
      </trkpt>
      <trkpt lat="46.99496" lon="-0.97849">
        <ele>107.593</ele>
        <time>2020-05-27T18:37:51Z</time>
      </trkpt>
      <trkpt lat="46.99496" lon="-0.97849">
        <ele>107.572</ele>
        <time>2020-05-27T18:37:52Z</time>
      </trkpt>
      <trkpt lat="46.99496" lon="-0.97849">
        <ele>107.563</ele>
        <time>2020-05-27T18:37:53Z</time>
      </trkpt>
      <trkpt lat="46.99496" lon="-0.97849">
        <ele>107.555</ele>
        <time>2020-05-27T18:37:54Z</time>
      </trkpt>
      <trkpt lat="46.99496" lon="-0.97849">
        <ele>107.554</ele>
        <time>2020-05-27T18:37:55Z</time>
      </trkpt>
      <trkpt lat="46.99496" lon="-0.97849">
        <ele>107.688</ele>
        <time>2020-05-27T18:37:56Z</time>
      </trkpt>
      <trkpt lat="46.99496" lon="-0.97849">
        <ele>108.538</ele>
        <time>2020-05-27T18:37:57Z</time>
      </trkpt>
      <trkpt lat="46.99497" lon="-0.97849">
        <ele>108.615</ele>
        <time>2020-05-27T18:37:58Z</time>
      </trkpt>
      <trkpt lat="46.99497" lon="-0.97849">
        <ele>108.406</ele>
        <time>2020-05-27T18:37:59Z</time>
      </trkpt>
      <trkpt lat="46.99496" lon="-0.97849">
        <ele>108.375</ele>
        <time>2020-05-27T18:38:00Z</time>
      </trkpt>
      <trkpt lat="46.99497" lon="-0.97849">
        <ele>107.611</ele>
        <time>2020-05-27T18:38:01Z</time>
      </trkpt>
      <trkpt lat="46.99497" lon="-0.97848">
        <ele>107.406</ele>
        <time>2020-05-27T18:38:02Z</time>
      </trkpt>
      <trkpt lat="46.99498" lon="-0.97847">
        <ele>107.715</ele>
        <time>2020-05-27T18:38:03Z</time>
      </trkpt>
      <trkpt lat="46.99498" lon="-0.97845">
        <ele>106.713</ele>
        <time>2020-05-27T18:38:04Z</time>
      </trkpt>
      <trkpt lat="46.99499" lon="-0.97844">
        <ele>107.328</ele>
        <time>2020-05-27T18:38:05Z</time>
      </trkpt>
      <trkpt lat="46.995" lon="-0.97843">
        <ele>107.751</ele>
        <time>2020-05-27T18:38:06Z</time>
      </trkpt>
      <trkpt lat="46.99501" lon="-0.97842">
        <ele>108.017</ele>
        <time>2020-05-27T18:38:07Z</time>
      </trkpt>
      <trkpt lat="46.99502" lon="-0.97841">
        <ele>108.86</ele>
        <time>2020-05-27T18:38:08Z</time>
      </trkpt>
      <trkpt lat="46.99503" lon="-0.97839">
        <ele>109.986</ele>
        <time>2020-05-27T18:38:09Z</time>
      </trkpt>
      <trkpt lat="46.99504" lon="-0.97838">
        <ele>110.121</ele>
        <time>2020-05-27T18:38:10Z</time>
      </trkpt>
      <trkpt lat="46.99504" lon="-0.97836">
        <ele>110.295</ele>
        <time>2020-05-27T18:38:11Z</time>
      </trkpt>
      <trkpt lat="46.99505" lon="-0.97835">
        <ele>109.75</ele>
        <time>2020-05-27T18:38:12Z</time>
      </trkpt>
      <trkpt lat="46.99505" lon="-0.97834">
        <ele>109.524</ele>
        <time>2020-05-27T18:38:13Z</time>
      </trkpt>
      <trkpt lat="46.99506" lon="-0.97833">
        <ele>108.3</ele>
        <time>2020-05-27T18:38:14Z</time>
      </trkpt>
      <trkpt lat="46.99507" lon="-0.97831">
        <ele>109.198</ele>
        <time>2020-05-27T18:38:15Z</time>
      </trkpt>
      <trkpt lat="46.99507" lon="-0.97831">
        <ele>108.689</ele>
        <time>2020-05-27T18:38:16Z</time>
      </trkpt>
      <trkpt lat="46.99508" lon="-0.97831">
        <ele>108.756</ele>
        <time>2020-05-27T18:38:17Z</time>
      </trkpt>
      <trkpt lat="46.99509" lon="-0.9783">
        <ele>108.776</ele>
        <time>2020-05-27T18:38:18Z</time>
      </trkpt>
      <trkpt lat="46.99509" lon="-0.9783">
        <ele>109.162</ele>
        <time>2020-05-27T18:38:19Z</time>
      </trkpt>
      <trkpt lat="46.99509" lon="-0.9783">
        <ele>109.061</ele>
        <time>2020-05-27T18:38:20Z</time>
      </trkpt>
      <trkpt lat="46.99508" lon="-0.9783">
        <ele>106.837</ele>
        <time>2020-05-27T18:38:21Z</time>
      </trkpt>
      <trkpt lat="46.99508" lon="-0.9783">
        <ele>106.886</ele>
        <time>2020-05-27T18:38:22Z</time>
      </trkpt>
      <trkpt lat="46.99509" lon="-0.9783">
        <ele>107.523</ele>
        <time>2020-05-27T18:38:23Z</time>
      </trkpt>
      <trkpt lat="46.9951" lon="-0.97829">
        <ele>108.548</ele>
        <time>2020-05-27T18:38:24Z</time>
      </trkpt>
      <trkpt lat="46.9951" lon="-0.97829">
        <ele>108.984</ele>
        <time>2020-05-27T18:38:25Z</time>
      </trkpt>
      <trkpt lat="46.99511" lon="-0.97829">
        <ele>109.43</ele>
        <time>2020-05-27T18:38:26Z</time>
      </trkpt>
      <trkpt lat="46.99511" lon="-0.97828">
        <ele>109.43</ele>
        <time>2020-05-27T18:38:27Z</time>
      </trkpt>
      <trkpt lat="46.99511" lon="-0.97828">
        <ele>109.435</ele>
        <time>2020-05-27T18:38:28Z</time>
      </trkpt>
      <trkpt lat="46.99511" lon="-0.97828">
        <ele>109.191</ele>
        <time>2020-05-27T18:38:29Z</time>
      </trkpt>
      <trkpt lat="46.99511" lon="-0.97828">
        <ele>109.307</ele>
        <time>2020-05-27T18:38:30Z</time>
      </trkpt>
      <trkpt lat="46.99511" lon="-0.97828">
        <ele>109.358</ele>
        <time>2020-05-27T18:38:31Z</time>
      </trkpt>
      <trkpt lat="46.99511" lon="-0.97828">
        <ele>105.182</ele>
        <time>2020-05-27T18:38:32Z</time>
      </trkpt>
      <trkpt lat="46.99511" lon="-0.97828">
        <ele>106.228</ele>
        <time>2020-05-27T18:38:33Z</time>
      </trkpt>
      <trkpt lat="46.99512" lon="-0.97828">
        <ele>107.071</ele>
        <time>2020-05-27T18:38:34Z</time>
      </trkpt>
      <trkpt lat="46.99512" lon="-0.97828">
        <ele>107.596</ele>
        <time>2020-05-27T18:38:35Z</time>
      </trkpt>
      <trkpt lat="46.99512" lon="-0.97828">
        <ele>108.016</ele>
        <time>2020-05-27T18:38:36Z</time>
      </trkpt>
      <trkpt lat="46.99512" lon="-0.97828">
        <ele>108.3</ele>
        <time>2020-05-27T18:38:37Z</time>
      </trkpt>
      <trkpt lat="46.99512" lon="-0.97828">
        <ele>108.43</ele>
        <time>2020-05-27T18:38:38Z</time>
      </trkpt>
      <trkpt lat="46.99512" lon="-0.97828">
        <ele>108.644</ele>
        <time>2020-05-27T18:38:39Z</time>
      </trkpt>
      <trkpt lat="46.99512" lon="-0.97828">
        <ele>108.812</ele>
        <time>2020-05-27T18:38:40Z</time>
      </trkpt>
      <trkpt lat="47.00668" lon="-1.00149">
        <ele>167.39</ele>
        <time>2020-05-27T18:59:22Z</time>
      </trkpt>
      <trkpt lat="47.00669" lon="-1.00153">
        <ele>162.185</ele>
        <time>2020-05-27T18:59:23Z</time>
      </trkpt>
      <trkpt lat="47.00669" lon="-1.00154">
        <ele>161.834</ele>
        <time>2020-05-27T18:59:24Z</time>
      </trkpt>
      <trkpt lat="47.00669" lon="-1.00154">
        <ele>164.517</ele>
        <time>2020-05-27T18:59:25Z</time>
      </trkpt>
      <trkpt lat="47.00668" lon="-1.00152">
        <ele>162.948</ele>
        <time>2020-05-27T18:59:27Z</time>
      </trkpt>
      <trkpt lat="47.00668" lon="-1.00152">
        <ele>162.605</ele>
        <time>2020-05-27T18:59:28Z</time>
      </trkpt>
    </trkseg>
  </trk>
</gpx>